<?xml version="1.0" encoding="UTF-8" standalone="no" ?>
<gpx xmlns="http://www.topografix.com/GPX/1/1" xmlns:xsi="http://www.w3.org/2001/XMLSchema-instance" xsi:schemaLocation="http://www.topografix.com/GPX/1/1 http://www.topografix.com/GPX/1/1/gpx.xsd" version="1.1" creator="VisuGPX - https://www.visugpx.com">
  <metadata>
    <name>05/2022</name>
  </metadata>
  <trk>
    <name><![CDATA[Roc'h 2021]]></name>
    <trkseg>
      <trkpt lat="48.35919" lon="-3.74435">
        <ele>203</ele>
        <time>2021-09-12T06:09:12Z</time>
      </trkpt>
      <trkpt lat="48.35919" lon="-3.74435">
        <ele>203</ele>
        <time>2021-09-12T06:09:13Z</time>
      </trkpt>
      <trkpt lat="48.35916" lon="-3.74426">
        <ele>203</ele>
        <time>2021-09-12T06:09:26Z</time>
      </trkpt>
      <trkpt lat="48.35915" lon="-3.74423">
        <ele>202.80000305176</ele>
        <time>2021-09-12T06:09:27Z</time>
      </trkpt>
      <trkpt lat="48.35913" lon="-3.7442">
        <ele>202.80000305176</ele>
        <time>2021-09-12T06:09:28Z</time>
      </trkpt>
      <trkpt lat="48.35912" lon="-3.74418">
        <ele>202.80000305176</ele>
        <time>2021-09-12T06:09:29Z</time>
      </trkpt>
      <trkpt lat="48.35912" lon="-3.74415">
        <ele>202.80000305176</ele>
        <time>2021-09-12T06:09:30Z</time>
      </trkpt>
      <trkpt lat="48.35911" lon="-3.74414">
        <ele>202.80000305176</ele>
        <time>2021-09-12T06:09:31Z</time>
      </trkpt>
      <trkpt lat="48.35911" lon="-3.74414">
        <ele>202.60000610352</ele>
        <time>2021-09-12T06:09:32Z</time>
      </trkpt>
      <trkpt lat="48.35911" lon="-3.74412">
        <ele>202.60000610352</ele>
        <time>2021-09-12T06:09:33Z</time>
      </trkpt>
      <trkpt lat="48.3591" lon="-3.74409">
        <ele>202.60000610352</ele>
        <time>2021-09-12T06:09:34Z</time>
      </trkpt>
      <trkpt lat="48.35909" lon="-3.74407">
        <ele>202.60000610352</ele>
        <time>2021-09-12T06:09:35Z</time>
      </trkpt>
      <trkpt lat="48.35909" lon="-3.74406">
        <ele>202.60000610352</ele>
        <time>2021-09-12T06:09:36Z</time>
      </trkpt>
      <trkpt lat="48.35908" lon="-3.74403">
        <ele>202.60000610352</ele>
        <time>2021-09-12T06:09:37Z</time>
      </trkpt>
      <trkpt lat="48.35908" lon="-3.74402">
        <ele>202.60000610352</ele>
        <time>2021-09-12T06:09:38Z</time>
      </trkpt>
      <trkpt lat="48.35907" lon="-3.744">
        <ele>202.60000610352</ele>
        <time>2021-09-12T06:09:39Z</time>
      </trkpt>
      <trkpt lat="48.35906" lon="-3.74397">
        <ele>202.60000610352</ele>
        <time>2021-09-12T06:09:40Z</time>
      </trkpt>
      <trkpt lat="48.35905" lon="-3.74395">
        <ele>202.60000610352</ele>
        <time>2021-09-12T06:09:41Z</time>
      </trkpt>
      <trkpt lat="48.35903" lon="-3.74394">
        <ele>202.60000610352</ele>
        <time>2021-09-12T06:09:42Z</time>
      </trkpt>
      <trkpt lat="48.35903" lon="-3.74394">
        <ele>202.60000610352</ele>
        <time>2021-09-12T06:09:43Z</time>
      </trkpt>
      <trkpt lat="48.35902" lon="-3.74394">
        <ele>202.60000610352</ele>
        <time>2021-09-12T06:09:44Z</time>
      </trkpt>
      <trkpt lat="48.35902" lon="-3.74394">
        <ele>202.60000610352</ele>
        <time>2021-09-12T06:09:45Z</time>
      </trkpt>
      <trkpt lat="48.35901" lon="-3.74394">
        <ele>202.39999389648</ele>
        <time>2021-09-12T06:09:46Z</time>
      </trkpt>
      <trkpt lat="48.35901" lon="-3.74395">
        <ele>202.39999389648</ele>
        <time>2021-09-12T06:09:47Z</time>
      </trkpt>
      <trkpt lat="48.359" lon="-3.74395">
        <ele>202.39999389648</ele>
        <time>2021-09-12T06:09:48Z</time>
      </trkpt>
      <trkpt lat="48.35899" lon="-3.74396">
        <ele>202.39999389648</ele>
        <time>2021-09-12T06:09:49Z</time>
      </trkpt>
      <trkpt lat="48.35899" lon="-3.74396">
        <ele>202.60000610352</ele>
        <time>2021-09-12T06:09:50Z</time>
      </trkpt>
      <trkpt lat="48.35898" lon="-3.74396">
        <ele>202.60000610352</ele>
        <time>2021-09-12T06:09:51Z</time>
      </trkpt>
      <trkpt lat="48.35898" lon="-3.74396">
        <ele>202.60000610352</ele>
        <time>2021-09-12T06:09:52Z</time>
      </trkpt>
      <trkpt lat="48.35897" lon="-3.74396">
        <ele>202.60000610352</ele>
        <time>2021-09-12T06:09:53Z</time>
      </trkpt>
      <trkpt lat="48.35897" lon="-3.74396">
        <ele>202.60000610352</ele>
        <time>2021-09-12T06:09:54Z</time>
      </trkpt>
      <trkpt lat="48.35897" lon="-3.74396">
        <ele>202.60000610352</ele>
        <time>2021-09-12T06:09:55Z</time>
      </trkpt>
      <trkpt lat="48.35896" lon="-3.74396">
        <ele>202.60000610352</ele>
        <time>2021-09-12T06:09:56Z</time>
      </trkpt>
      <trkpt lat="48.35895" lon="-3.74396">
        <ele>202.39999389648</ele>
        <time>2021-09-12T06:09:57Z</time>
      </trkpt>
      <trkpt lat="48.35895" lon="-3.74395">
        <ele>202.39999389648</ele>
        <time>2021-09-12T06:09:58Z</time>
      </trkpt>
      <trkpt lat="48.35895" lon="-3.74395">
        <ele>202.19999694824</ele>
        <time>2021-09-12T06:09:59Z</time>
      </trkpt>
      <trkpt lat="48.35895" lon="-3.74395">
        <ele>202.19999694824</ele>
        <time>2021-09-12T06:10:00Z</time>
      </trkpt>
      <trkpt lat="48.35894" lon="-3.7439">
        <ele>202.19999694824</ele>
        <time>2021-09-12T06:10:13Z</time>
      </trkpt>
      <trkpt lat="48.35896" lon="-3.74389">
        <ele>202.19999694824</ele>
        <time>2021-09-12T06:10:14Z</time>
      </trkpt>
      <trkpt lat="48.35898" lon="-3.74387">
        <ele>202.19999694824</ele>
        <time>2021-09-12T06:10:15Z</time>
      </trkpt>
      <trkpt lat="48.35901" lon="-3.74385">
        <ele>202.19999694824</ele>
        <time>2021-09-12T06:10:16Z</time>
      </trkpt>
      <trkpt lat="48.35903" lon="-3.74384">
        <ele>202.19999694824</ele>
        <time>2021-09-12T06:10:17Z</time>
      </trkpt>
      <trkpt lat="48.35905" lon="-3.74383">
        <ele>202.19999694824</ele>
        <time>2021-09-12T06:10:18Z</time>
      </trkpt>
      <trkpt lat="48.35907" lon="-3.74381">
        <ele>202.19999694824</ele>
        <time>2021-09-12T06:10:19Z</time>
      </trkpt>
      <trkpt lat="48.35909" lon="-3.7438">
        <ele>202.19999694824</ele>
        <time>2021-09-12T06:10:20Z</time>
      </trkpt>
      <trkpt lat="48.35912" lon="-3.74379">
        <ele>202.19999694824</ele>
        <time>2021-09-12T06:10:21Z</time>
      </trkpt>
      <trkpt lat="48.35914" lon="-3.74377">
        <ele>202.19999694824</ele>
        <time>2021-09-12T06:10:22Z</time>
      </trkpt>
      <trkpt lat="48.35916" lon="-3.74376">
        <ele>202.19999694824</ele>
        <time>2021-09-12T06:10:23Z</time>
      </trkpt>
      <trkpt lat="48.35919" lon="-3.74374">
        <ele>202.19999694824</ele>
        <time>2021-09-12T06:10:24Z</time>
      </trkpt>
      <trkpt lat="48.35921" lon="-3.74373">
        <ele>202.19999694824</ele>
        <time>2021-09-12T06:10:25Z</time>
      </trkpt>
      <trkpt lat="48.35923" lon="-3.74372">
        <ele>202.19999694824</ele>
        <time>2021-09-12T06:10:26Z</time>
      </trkpt>
      <trkpt lat="48.35925" lon="-3.7437">
        <ele>202.19999694824</ele>
        <time>2021-09-12T06:10:27Z</time>
      </trkpt>
      <trkpt lat="48.35928" lon="-3.74369">
        <ele>202.19999694824</ele>
        <time>2021-09-12T06:10:28Z</time>
      </trkpt>
      <trkpt lat="48.3593" lon="-3.74367">
        <ele>202.19999694824</ele>
        <time>2021-09-12T06:10:29Z</time>
      </trkpt>
      <trkpt lat="48.35932" lon="-3.74366">
        <ele>202.19999694824</ele>
        <time>2021-09-12T06:10:30Z</time>
      </trkpt>
      <trkpt lat="48.35935" lon="-3.74364">
        <ele>202.19999694824</ele>
        <time>2021-09-12T06:10:31Z</time>
      </trkpt>
      <trkpt lat="48.35937" lon="-3.74363">
        <ele>202.19999694824</ele>
        <time>2021-09-12T06:10:32Z</time>
      </trkpt>
      <trkpt lat="48.35938" lon="-3.74362">
        <ele>202.19999694824</ele>
        <time>2021-09-12T06:10:33Z</time>
      </trkpt>
      <trkpt lat="48.3594" lon="-3.74361">
        <ele>202.19999694824</ele>
        <time>2021-09-12T06:10:34Z</time>
      </trkpt>
      <trkpt lat="48.35942" lon="-3.7436">
        <ele>202.19999694824</ele>
        <time>2021-09-12T06:10:35Z</time>
      </trkpt>
      <trkpt lat="48.35944" lon="-3.74359">
        <ele>202.19999694824</ele>
        <time>2021-09-12T06:10:36Z</time>
      </trkpt>
      <trkpt lat="48.35947" lon="-3.74358">
        <ele>202.19999694824</ele>
        <time>2021-09-12T06:10:37Z</time>
      </trkpt>
      <trkpt lat="48.35949" lon="-3.74356">
        <ele>202.19999694824</ele>
        <time>2021-09-12T06:10:38Z</time>
      </trkpt>
      <trkpt lat="48.35951" lon="-3.74355">
        <ele>202.19999694824</ele>
        <time>2021-09-12T06:10:39Z</time>
      </trkpt>
      <trkpt lat="48.35954" lon="-3.74354">
        <ele>202.19999694824</ele>
        <time>2021-09-12T06:10:40Z</time>
      </trkpt>
      <trkpt lat="48.35956" lon="-3.74353">
        <ele>202.19999694824</ele>
        <time>2021-09-12T06:10:41Z</time>
      </trkpt>
      <trkpt lat="48.35958" lon="-3.74351">
        <ele>202.19999694824</ele>
        <time>2021-09-12T06:10:42Z</time>
      </trkpt>
      <trkpt lat="48.3596" lon="-3.7435">
        <ele>202.19999694824</ele>
        <time>2021-09-12T06:10:43Z</time>
      </trkpt>
      <trkpt lat="48.35962" lon="-3.74349">
        <ele>202.39999389648</ele>
        <time>2021-09-12T06:10:44Z</time>
      </trkpt>
      <trkpt lat="48.35964" lon="-3.74348">
        <ele>202.39999389648</ele>
        <time>2021-09-12T06:10:45Z</time>
      </trkpt>
      <trkpt lat="48.35966" lon="-3.74346">
        <ele>202.39999389648</ele>
        <time>2021-09-12T06:10:46Z</time>
      </trkpt>
      <trkpt lat="48.35969" lon="-3.74345">
        <ele>202.39999389648</ele>
        <time>2021-09-12T06:10:47Z</time>
      </trkpt>
      <trkpt lat="48.35971" lon="-3.74343">
        <ele>202.39999389648</ele>
        <time>2021-09-12T06:10:48Z</time>
      </trkpt>
      <trkpt lat="48.35973" lon="-3.74342">
        <ele>202.39999389648</ele>
        <time>2021-09-12T06:10:49Z</time>
      </trkpt>
      <trkpt lat="48.35975" lon="-3.74341">
        <ele>202.39999389648</ele>
        <time>2021-09-12T06:10:50Z</time>
      </trkpt>
      <trkpt lat="48.35977" lon="-3.74339">
        <ele>202.39999389648</ele>
        <time>2021-09-12T06:10:51Z</time>
      </trkpt>
      <trkpt lat="48.3598" lon="-3.74339">
        <ele>202.39999389648</ele>
        <time>2021-09-12T06:10:52Z</time>
      </trkpt>
      <trkpt lat="48.35982" lon="-3.7434">
        <ele>202.39999389648</ele>
        <time>2021-09-12T06:10:53Z</time>
      </trkpt>
      <trkpt lat="48.35984" lon="-3.7434">
        <ele>202.39999389648</ele>
        <time>2021-09-12T06:10:54Z</time>
      </trkpt>
      <trkpt lat="48.35986" lon="-3.7434">
        <ele>202.39999389648</ele>
        <time>2021-09-12T06:10:55Z</time>
      </trkpt>
      <trkpt lat="48.35988" lon="-3.7434">
        <ele>202.39999389648</ele>
        <time>2021-09-12T06:10:56Z</time>
      </trkpt>
      <trkpt lat="48.3599" lon="-3.74339">
        <ele>202.39999389648</ele>
        <time>2021-09-12T06:10:57Z</time>
      </trkpt>
      <trkpt lat="48.35992" lon="-3.74339">
        <ele>202.39999389648</ele>
        <time>2021-09-12T06:10:58Z</time>
      </trkpt>
      <trkpt lat="48.35993" lon="-3.74337">
        <ele>202.39999389648</ele>
        <time>2021-09-12T06:10:59Z</time>
      </trkpt>
      <trkpt lat="48.35994" lon="-3.74334">
        <ele>202.39999389648</ele>
        <time>2021-09-12T06:11:00Z</time>
      </trkpt>
      <trkpt lat="48.35995" lon="-3.74332">
        <ele>202.39999389648</ele>
        <time>2021-09-12T06:11:01Z</time>
      </trkpt>
      <trkpt lat="48.35995" lon="-3.74329">
        <ele>202.39999389648</ele>
        <time>2021-09-12T06:11:02Z</time>
      </trkpt>
      <trkpt lat="48.35995" lon="-3.74326">
        <ele>202.39999389648</ele>
        <time>2021-09-12T06:11:03Z</time>
      </trkpt>
      <trkpt lat="48.35994" lon="-3.74323">
        <ele>202.39999389648</ele>
        <time>2021-09-12T06:11:04Z</time>
      </trkpt>
      <trkpt lat="48.35992" lon="-3.74319">
        <ele>202.39999389648</ele>
        <time>2021-09-12T06:11:05Z</time>
      </trkpt>
      <trkpt lat="48.35989" lon="-3.74316">
        <ele>201.60000610352</ele>
        <time>2021-09-12T06:11:06Z</time>
      </trkpt>
      <trkpt lat="48.35987" lon="-3.74316">
        <ele>201.39999389648</ele>
        <time>2021-09-12T06:11:07Z</time>
      </trkpt>
      <trkpt lat="48.35985" lon="-3.74315">
        <ele>201.39999389648</ele>
        <time>2021-09-12T06:11:08Z</time>
      </trkpt>
      <trkpt lat="48.35983" lon="-3.74314">
        <ele>201.19999694824</ele>
        <time>2021-09-12T06:11:09Z</time>
      </trkpt>
      <trkpt lat="48.35982" lon="-3.74311">
        <ele>201</ele>
        <time>2021-09-12T06:11:10Z</time>
      </trkpt>
      <trkpt lat="48.35982" lon="-3.74307">
        <ele>201</ele>
        <time>2021-09-12T06:11:11Z</time>
      </trkpt>
      <trkpt lat="48.35984" lon="-3.74304">
        <ele>201</ele>
        <time>2021-09-12T06:11:12Z</time>
      </trkpt>
      <trkpt lat="48.35985" lon="-3.743">
        <ele>200.80000305176</ele>
        <time>2021-09-12T06:11:13Z</time>
      </trkpt>
      <trkpt lat="48.35988" lon="-3.74295">
        <ele>200.80000305176</ele>
        <time>2021-09-12T06:11:14Z</time>
      </trkpt>
      <trkpt lat="48.3599" lon="-3.7429">
        <ele>200.60000610352</ele>
        <time>2021-09-12T06:11:15Z</time>
      </trkpt>
      <trkpt lat="48.35993" lon="-3.74284">
        <ele>200.39999389648</ele>
        <time>2021-09-12T06:11:16Z</time>
      </trkpt>
      <trkpt lat="48.35996" lon="-3.74278">
        <ele>200</ele>
        <time>2021-09-12T06:11:17Z</time>
      </trkpt>
      <trkpt lat="48.35999" lon="-3.74271">
        <ele>199.39999389648</ele>
        <time>2021-09-12T06:11:18Z</time>
      </trkpt>
      <trkpt lat="48.36003" lon="-3.74264">
        <ele>199</ele>
        <time>2021-09-12T06:11:19Z</time>
      </trkpt>
      <trkpt lat="48.36007" lon="-3.74256">
        <ele>198.19999694824</ele>
        <time>2021-09-12T06:11:20Z</time>
      </trkpt>
      <trkpt lat="48.3601" lon="-3.74248">
        <ele>198</ele>
        <time>2021-09-12T06:11:21Z</time>
      </trkpt>
      <trkpt lat="48.36012" lon="-3.7424">
        <ele>197.39999389648</ele>
        <time>2021-09-12T06:11:22Z</time>
      </trkpt>
      <trkpt lat="48.36015" lon="-3.74232">
        <ele>196.80000305176</ele>
        <time>2021-09-12T06:11:23Z</time>
      </trkpt>
      <trkpt lat="48.36018" lon="-3.74223">
        <ele>196.80000305176</ele>
        <time>2021-09-12T06:11:24Z</time>
      </trkpt>
      <trkpt lat="48.36019" lon="-3.74213">
        <ele>196</ele>
        <time>2021-09-12T06:11:25Z</time>
      </trkpt>
      <trkpt lat="48.36019" lon="-3.74203">
        <ele>195.80000305176</ele>
        <time>2021-09-12T06:11:26Z</time>
      </trkpt>
      <trkpt lat="48.36019" lon="-3.74192">
        <ele>195.60000610352</ele>
        <time>2021-09-12T06:11:27Z</time>
      </trkpt>
      <trkpt lat="48.36018" lon="-3.74182">
        <ele>195.39999389648</ele>
        <time>2021-09-12T06:11:28Z</time>
      </trkpt>
      <trkpt lat="48.36017" lon="-3.74171">
        <ele>194.80000305176</ele>
        <time>2021-09-12T06:11:29Z</time>
      </trkpt>
      <trkpt lat="48.36016" lon="-3.7416">
        <ele>194.60000610352</ele>
        <time>2021-09-12T06:11:30Z</time>
      </trkpt>
      <trkpt lat="48.36015" lon="-3.74149">
        <ele>194</ele>
        <time>2021-09-12T06:11:31Z</time>
      </trkpt>
      <trkpt lat="48.36014" lon="-3.74138">
        <ele>193.80000305176</ele>
        <time>2021-09-12T06:11:32Z</time>
      </trkpt>
      <trkpt lat="48.36013" lon="-3.74128">
        <ele>193.80000305176</ele>
        <time>2021-09-12T06:11:33Z</time>
      </trkpt>
      <trkpt lat="48.36011" lon="-3.74118">
        <ele>193.60000610352</ele>
        <time>2021-09-12T06:11:34Z</time>
      </trkpt>
      <trkpt lat="48.36009" lon="-3.74108">
        <ele>193.60000610352</ele>
        <time>2021-09-12T06:11:35Z</time>
      </trkpt>
      <trkpt lat="48.36007" lon="-3.74099">
        <ele>193.39999389648</ele>
        <time>2021-09-12T06:11:36Z</time>
      </trkpt>
      <trkpt lat="48.36005" lon="-3.7409">
        <ele>193.39999389648</ele>
        <time>2021-09-12T06:11:37Z</time>
      </trkpt>
      <trkpt lat="48.36003" lon="-3.74082">
        <ele>193.60000610352</ele>
        <time>2021-09-12T06:11:38Z</time>
      </trkpt>
      <trkpt lat="48.36001" lon="-3.74075">
        <ele>193.60000610352</ele>
        <time>2021-09-12T06:11:39Z</time>
      </trkpt>
      <trkpt lat="48.35999" lon="-3.74068">
        <ele>193.60000610352</ele>
        <time>2021-09-12T06:11:40Z</time>
      </trkpt>
      <trkpt lat="48.35997" lon="-3.74062">
        <ele>193.60000610352</ele>
        <time>2021-09-12T06:11:41Z</time>
      </trkpt>
      <trkpt lat="48.35995" lon="-3.74056">
        <ele>193.60000610352</ele>
        <time>2021-09-12T06:11:42Z</time>
      </trkpt>
      <trkpt lat="48.35993" lon="-3.74051">
        <ele>193.80000305176</ele>
        <time>2021-09-12T06:11:43Z</time>
      </trkpt>
      <trkpt lat="48.35991" lon="-3.74045">
        <ele>194</ele>
        <time>2021-09-12T06:11:44Z</time>
      </trkpt>
      <trkpt lat="48.35989" lon="-3.74039">
        <ele>194</ele>
        <time>2021-09-12T06:11:45Z</time>
      </trkpt>
      <trkpt lat="48.35987" lon="-3.74033">
        <ele>194.39999389648</ele>
        <time>2021-09-12T06:11:46Z</time>
      </trkpt>
      <trkpt lat="48.35985" lon="-3.74027">
        <ele>194.39999389648</ele>
        <time>2021-09-12T06:11:47Z</time>
      </trkpt>
      <trkpt lat="48.35982" lon="-3.74021">
        <ele>194.39999389648</ele>
        <time>2021-09-12T06:11:48Z</time>
      </trkpt>
      <trkpt lat="48.3598" lon="-3.74014">
        <ele>194.60000610352</ele>
        <time>2021-09-12T06:11:49Z</time>
      </trkpt>
      <trkpt lat="48.35977" lon="-3.74008">
        <ele>194.60000610352</ele>
        <time>2021-09-12T06:11:50Z</time>
      </trkpt>
      <trkpt lat="48.35974" lon="-3.74002">
        <ele>194.60000610352</ele>
        <time>2021-09-12T06:11:51Z</time>
      </trkpt>
      <trkpt lat="48.35971" lon="-3.73996">
        <ele>194.60000610352</ele>
        <time>2021-09-12T06:11:52Z</time>
      </trkpt>
      <trkpt lat="48.35967" lon="-3.73991">
        <ele>194.60000610352</ele>
        <time>2021-09-12T06:11:53Z</time>
      </trkpt>
      <trkpt lat="48.35964" lon="-3.73985">
        <ele>194.39999389648</ele>
        <time>2021-09-12T06:11:54Z</time>
      </trkpt>
      <trkpt lat="48.3596" lon="-3.73978">
        <ele>194.60000610352</ele>
        <time>2021-09-12T06:11:55Z</time>
      </trkpt>
      <trkpt lat="48.35957" lon="-3.73972">
        <ele>194.39999389648</ele>
        <time>2021-09-12T06:11:56Z</time>
      </trkpt>
      <trkpt lat="48.35954" lon="-3.73966">
        <ele>194.19999694824</ele>
        <time>2021-09-12T06:11:57Z</time>
      </trkpt>
      <trkpt lat="48.3595" lon="-3.73959">
        <ele>194.19999694824</ele>
        <time>2021-09-12T06:11:58Z</time>
      </trkpt>
      <trkpt lat="48.35948" lon="-3.73953">
        <ele>194.19999694824</ele>
        <time>2021-09-12T06:11:59Z</time>
      </trkpt>
      <trkpt lat="48.35945" lon="-3.73946">
        <ele>194.19999694824</ele>
        <time>2021-09-12T06:12:00Z</time>
      </trkpt>
      <trkpt lat="48.35942" lon="-3.73939">
        <ele>194.19999694824</ele>
        <time>2021-09-12T06:12:01Z</time>
      </trkpt>
      <trkpt lat="48.3594" lon="-3.73931">
        <ele>194.19999694824</ele>
        <time>2021-09-12T06:12:02Z</time>
      </trkpt>
      <trkpt lat="48.35938" lon="-3.73924">
        <ele>194.19999694824</ele>
        <time>2021-09-12T06:12:03Z</time>
      </trkpt>
      <trkpt lat="48.35935" lon="-3.73916">
        <ele>194</ele>
        <time>2021-09-12T06:12:04Z</time>
      </trkpt>
      <trkpt lat="48.35933" lon="-3.73908">
        <ele>194</ele>
        <time>2021-09-12T06:12:05Z</time>
      </trkpt>
      <trkpt lat="48.35931" lon="-3.739">
        <ele>194</ele>
        <time>2021-09-12T06:12:06Z</time>
      </trkpt>
      <trkpt lat="48.35928" lon="-3.73893">
        <ele>194</ele>
        <time>2021-09-12T06:12:07Z</time>
      </trkpt>
      <trkpt lat="48.35926" lon="-3.73885">
        <ele>194</ele>
        <time>2021-09-12T06:12:08Z</time>
      </trkpt>
      <trkpt lat="48.35924" lon="-3.73878">
        <ele>194</ele>
        <time>2021-09-12T06:12:09Z</time>
      </trkpt>
      <trkpt lat="48.35921" lon="-3.73871">
        <ele>194</ele>
        <time>2021-09-12T06:12:10Z</time>
      </trkpt>
      <trkpt lat="48.35919" lon="-3.73864">
        <ele>194.19999694824</ele>
        <time>2021-09-12T06:12:11Z</time>
      </trkpt>
      <trkpt lat="48.35917" lon="-3.73858">
        <ele>194.19999694824</ele>
        <time>2021-09-12T06:12:12Z</time>
      </trkpt>
      <trkpt lat="48.35916" lon="-3.73852">
        <ele>194.19999694824</ele>
        <time>2021-09-12T06:12:13Z</time>
      </trkpt>
      <trkpt lat="48.35913" lon="-3.73844">
        <ele>194.39999389648</ele>
        <time>2021-09-12T06:12:14Z</time>
      </trkpt>
      <trkpt lat="48.35911" lon="-3.73837">
        <ele>194.80000305176</ele>
        <time>2021-09-12T06:12:15Z</time>
      </trkpt>
      <trkpt lat="48.35909" lon="-3.73831">
        <ele>195</ele>
        <time>2021-09-12T06:12:16Z</time>
      </trkpt>
      <trkpt lat="48.35906" lon="-3.73825">
        <ele>195</ele>
        <time>2021-09-12T06:12:17Z</time>
      </trkpt>
      <trkpt lat="48.35904" lon="-3.73821">
        <ele>195.19999694824</ele>
        <time>2021-09-12T06:12:18Z</time>
      </trkpt>
      <trkpt lat="48.35902" lon="-3.73814">
        <ele>195.39999389648</ele>
        <time>2021-09-12T06:12:19Z</time>
      </trkpt>
      <trkpt lat="48.359" lon="-3.73808">
        <ele>196</ele>
        <time>2021-09-12T06:12:20Z</time>
      </trkpt>
      <trkpt lat="48.35897" lon="-3.73802">
        <ele>196.39999389648</ele>
        <time>2021-09-12T06:12:21Z</time>
      </trkpt>
      <trkpt lat="48.35895" lon="-3.73796">
        <ele>196.39999389648</ele>
        <time>2021-09-12T06:12:22Z</time>
      </trkpt>
      <trkpt lat="48.35893" lon="-3.73792">
        <ele>196.60000610352</ele>
        <time>2021-09-12T06:12:23Z</time>
      </trkpt>
      <trkpt lat="48.3589" lon="-3.73785">
        <ele>196.60000610352</ele>
        <time>2021-09-12T06:12:24Z</time>
      </trkpt>
      <trkpt lat="48.35887" lon="-3.7378">
        <ele>196.60000610352</ele>
        <time>2021-09-12T06:12:25Z</time>
      </trkpt>
      <trkpt lat="48.35885" lon="-3.73775">
        <ele>196.80000305176</ele>
        <time>2021-09-12T06:12:26Z</time>
      </trkpt>
      <trkpt lat="48.35882" lon="-3.73769">
        <ele>197</ele>
        <time>2021-09-12T06:12:27Z</time>
      </trkpt>
      <trkpt lat="48.3588" lon="-3.73765">
        <ele>197</ele>
        <time>2021-09-12T06:12:28Z</time>
      </trkpt>
      <trkpt lat="48.35877" lon="-3.73759">
        <ele>197</ele>
        <time>2021-09-12T06:12:29Z</time>
      </trkpt>
      <trkpt lat="48.35874" lon="-3.73754">
        <ele>197</ele>
        <time>2021-09-12T06:12:30Z</time>
      </trkpt>
      <trkpt lat="48.3587" lon="-3.73748">
        <ele>197</ele>
        <time>2021-09-12T06:12:31Z</time>
      </trkpt>
      <trkpt lat="48.35867" lon="-3.73743">
        <ele>196.60000610352</ele>
        <time>2021-09-12T06:12:32Z</time>
      </trkpt>
      <trkpt lat="48.35864" lon="-3.73737">
        <ele>196.60000610352</ele>
        <time>2021-09-12T06:12:33Z</time>
      </trkpt>
      <trkpt lat="48.3586" lon="-3.73731">
        <ele>196.39999389648</ele>
        <time>2021-09-12T06:12:34Z</time>
      </trkpt>
      <trkpt lat="48.35856" lon="-3.73724">
        <ele>195.80000305176</ele>
        <time>2021-09-12T06:12:35Z</time>
      </trkpt>
      <trkpt lat="48.35852" lon="-3.73716">
        <ele>195.80000305176</ele>
        <time>2021-09-12T06:12:36Z</time>
      </trkpt>
      <trkpt lat="48.35849" lon="-3.73709">
        <ele>195</ele>
        <time>2021-09-12T06:12:37Z</time>
      </trkpt>
      <trkpt lat="48.35844" lon="-3.73701">
        <ele>194.60000610352</ele>
        <time>2021-09-12T06:12:38Z</time>
      </trkpt>
      <trkpt lat="48.35838" lon="-3.73691">
        <ele>194</ele>
        <time>2021-09-12T06:12:39Z</time>
      </trkpt>
      <trkpt lat="48.35832" lon="-3.73681">
        <ele>193.60000610352</ele>
        <time>2021-09-12T06:12:40Z</time>
      </trkpt>
      <trkpt lat="48.35826" lon="-3.7367">
        <ele>193</ele>
        <time>2021-09-12T06:12:41Z</time>
      </trkpt>
      <trkpt lat="48.35821" lon="-3.73662">
        <ele>191.39999389648</ele>
        <time>2021-09-12T06:12:42Z</time>
      </trkpt>
      <trkpt lat="48.35813" lon="-3.73649">
        <ele>190.80000305176</ele>
        <time>2021-09-12T06:12:43Z</time>
      </trkpt>
      <trkpt lat="48.35806" lon="-3.73638">
        <ele>190</ele>
        <time>2021-09-12T06:12:44Z</time>
      </trkpt>
      <trkpt lat="48.35799" lon="-3.73627">
        <ele>188.39999389648</ele>
        <time>2021-09-12T06:12:45Z</time>
      </trkpt>
      <trkpt lat="48.35791" lon="-3.73614">
        <ele>186.60000610352</ele>
        <time>2021-09-12T06:12:46Z</time>
      </trkpt>
      <trkpt lat="48.35784" lon="-3.736">
        <ele>185.39999389648</ele>
        <time>2021-09-12T06:12:47Z</time>
      </trkpt>
      <trkpt lat="48.35777" lon="-3.73588">
        <ele>184.39999389648</ele>
        <time>2021-09-12T06:12:48Z</time>
      </trkpt>
      <trkpt lat="48.35767" lon="-3.73571">
        <ele>182.80000305176</ele>
        <time>2021-09-12T06:12:49Z</time>
      </trkpt>
      <trkpt lat="48.35758" lon="-3.73556">
        <ele>182.39999389648</ele>
        <time>2021-09-12T06:12:50Z</time>
      </trkpt>
      <trkpt lat="48.35749" lon="-3.7354">
        <ele>180.19999694824</ele>
        <time>2021-09-12T06:12:51Z</time>
      </trkpt>
      <trkpt lat="48.35739" lon="-3.73525">
        <ele>179.39999389648</ele>
        <time>2021-09-12T06:12:52Z</time>
      </trkpt>
      <trkpt lat="48.3573" lon="-3.7351">
        <ele>178.80000305176</ele>
        <time>2021-09-12T06:12:53Z</time>
      </trkpt>
      <trkpt lat="48.35721" lon="-3.73494">
        <ele>177.39999389648</ele>
        <time>2021-09-12T06:12:54Z</time>
      </trkpt>
      <trkpt lat="48.35715" lon="-3.73478">
        <ele>177.39999389648</ele>
        <time>2021-09-12T06:12:55Z</time>
      </trkpt>
      <trkpt lat="48.35711" lon="-3.73463">
        <ele>177.39999389648</ele>
        <time>2021-09-12T06:12:56Z</time>
      </trkpt>
      <trkpt lat="48.35708" lon="-3.73449">
        <ele>177.39999389648</ele>
        <time>2021-09-12T06:12:57Z</time>
      </trkpt>
      <trkpt lat="48.35707" lon="-3.7344">
        <ele>177.60000610352</ele>
        <time>2021-09-12T06:12:58Z</time>
      </trkpt>
      <trkpt lat="48.35705" lon="-3.73428">
        <ele>178.19999694824</ele>
        <time>2021-09-12T06:12:59Z</time>
      </trkpt>
      <trkpt lat="48.35704" lon="-3.7342">
        <ele>178.19999694824</ele>
        <time>2021-09-12T06:13:00Z</time>
      </trkpt>
      <trkpt lat="48.35703" lon="-3.73414">
        <ele>179</ele>
        <time>2021-09-12T06:13:01Z</time>
      </trkpt>
      <trkpt lat="48.35703" lon="-3.73408">
        <ele>179.39999389648</ele>
        <time>2021-09-12T06:13:02Z</time>
      </trkpt>
      <trkpt lat="48.35702" lon="-3.73402">
        <ele>180</ele>
        <time>2021-09-12T06:13:03Z</time>
      </trkpt>
      <trkpt lat="48.35702" lon="-3.73398">
        <ele>180.19999694824</ele>
        <time>2021-09-12T06:13:04Z</time>
      </trkpt>
      <trkpt lat="48.35701" lon="-3.73392">
        <ele>180.80000305176</ele>
        <time>2021-09-12T06:13:05Z</time>
      </trkpt>
      <trkpt lat="48.35701" lon="-3.73387">
        <ele>181.60000610352</ele>
        <time>2021-09-12T06:13:06Z</time>
      </trkpt>
      <trkpt lat="48.35701" lon="-3.73382">
        <ele>181.60000610352</ele>
        <time>2021-09-12T06:13:07Z</time>
      </trkpt>
      <trkpt lat="48.357" lon="-3.73378">
        <ele>182</ele>
        <time>2021-09-12T06:13:08Z</time>
      </trkpt>
      <trkpt lat="48.35699" lon="-3.73373">
        <ele>182.80000305176</ele>
        <time>2021-09-12T06:13:09Z</time>
      </trkpt>
      <trkpt lat="48.35699" lon="-3.73368">
        <ele>183</ele>
        <time>2021-09-12T06:13:10Z</time>
      </trkpt>
      <trkpt lat="48.35699" lon="-3.73362">
        <ele>183.39999389648</ele>
        <time>2021-09-12T06:13:11Z</time>
      </trkpt>
      <trkpt lat="48.35699" lon="-3.73357">
        <ele>183.39999389648</ele>
        <time>2021-09-12T06:13:12Z</time>
      </trkpt>
      <trkpt lat="48.35698" lon="-3.73352">
        <ele>184.19999694824</ele>
        <time>2021-09-12T06:13:13Z</time>
      </trkpt>
      <trkpt lat="48.35698" lon="-3.73346">
        <ele>184.19999694824</ele>
        <time>2021-09-12T06:13:14Z</time>
      </trkpt>
      <trkpt lat="48.35697" lon="-3.73341">
        <ele>184.60000610352</ele>
        <time>2021-09-12T06:13:15Z</time>
      </trkpt>
      <trkpt lat="48.35696" lon="-3.73336">
        <ele>185</ele>
        <time>2021-09-12T06:13:16Z</time>
      </trkpt>
      <trkpt lat="48.35696" lon="-3.7333">
        <ele>185.19999694824</ele>
        <time>2021-09-12T06:13:17Z</time>
      </trkpt>
      <trkpt lat="48.35695" lon="-3.73325">
        <ele>185.60000610352</ele>
        <time>2021-09-12T06:13:18Z</time>
      </trkpt>
      <trkpt lat="48.35695" lon="-3.7332">
        <ele>186</ele>
        <time>2021-09-12T06:13:19Z</time>
      </trkpt>
      <trkpt lat="48.35695" lon="-3.73315">
        <ele>186</ele>
        <time>2021-09-12T06:13:20Z</time>
      </trkpt>
      <trkpt lat="48.35694" lon="-3.7331">
        <ele>186.39999389648</ele>
        <time>2021-09-12T06:13:21Z</time>
      </trkpt>
      <trkpt lat="48.35693" lon="-3.73304">
        <ele>186.80000305176</ele>
        <time>2021-09-12T06:13:22Z</time>
      </trkpt>
      <trkpt lat="48.35693" lon="-3.73299">
        <ele>187</ele>
        <time>2021-09-12T06:13:23Z</time>
      </trkpt>
      <trkpt lat="48.35693" lon="-3.73294">
        <ele>187</ele>
        <time>2021-09-12T06:13:24Z</time>
      </trkpt>
      <trkpt lat="48.35692" lon="-3.73289">
        <ele>187.60000610352</ele>
        <time>2021-09-12T06:13:25Z</time>
      </trkpt>
      <trkpt lat="48.35691" lon="-3.73285">
        <ele>187.80000305176</ele>
        <time>2021-09-12T06:13:26Z</time>
      </trkpt>
      <trkpt lat="48.35691" lon="-3.73278">
        <ele>188</ele>
        <time>2021-09-12T06:13:27Z</time>
      </trkpt>
      <trkpt lat="48.3569" lon="-3.73274">
        <ele>188.39999389648</ele>
        <time>2021-09-12T06:13:28Z</time>
      </trkpt>
      <trkpt lat="48.3569" lon="-3.73269">
        <ele>188.60000610352</ele>
        <time>2021-09-12T06:13:29Z</time>
      </trkpt>
      <trkpt lat="48.35689" lon="-3.73264">
        <ele>188.80000305176</ele>
        <time>2021-09-12T06:13:30Z</time>
      </trkpt>
      <trkpt lat="48.35689" lon="-3.73259">
        <ele>189.19999694824</ele>
        <time>2021-09-12T06:13:31Z</time>
      </trkpt>
      <trkpt lat="48.35689" lon="-3.73256">
        <ele>189.39999389648</ele>
        <time>2021-09-12T06:13:32Z</time>
      </trkpt>
      <trkpt lat="48.35688" lon="-3.7325">
        <ele>189.80000305176</ele>
        <time>2021-09-12T06:13:33Z</time>
      </trkpt>
      <trkpt lat="48.35688" lon="-3.73245">
        <ele>190</ele>
        <time>2021-09-12T06:13:34Z</time>
      </trkpt>
      <trkpt lat="48.35688" lon="-3.73242">
        <ele>190.19999694824</ele>
        <time>2021-09-12T06:13:35Z</time>
      </trkpt>
      <trkpt lat="48.35689" lon="-3.73238">
        <ele>190.60000610352</ele>
        <time>2021-09-12T06:13:36Z</time>
      </trkpt>
      <trkpt lat="48.35692" lon="-3.73236">
        <ele>191</ele>
        <time>2021-09-12T06:13:37Z</time>
      </trkpt>
      <trkpt lat="48.35695" lon="-3.73235">
        <ele>191</ele>
        <time>2021-09-12T06:13:38Z</time>
      </trkpt>
      <trkpt lat="48.35697" lon="-3.73234">
        <ele>191.60000610352</ele>
        <time>2021-09-12T06:13:39Z</time>
      </trkpt>
      <trkpt lat="48.357" lon="-3.73233">
        <ele>191.60000610352</ele>
        <time>2021-09-12T06:13:40Z</time>
      </trkpt>
      <trkpt lat="48.35703" lon="-3.73232">
        <ele>191.80000305176</ele>
        <time>2021-09-12T06:13:41Z</time>
      </trkpt>
      <trkpt lat="48.35707" lon="-3.73231">
        <ele>192</ele>
        <time>2021-09-12T06:13:42Z</time>
      </trkpt>
      <trkpt lat="48.3571" lon="-3.7323">
        <ele>192.19999694824</ele>
        <time>2021-09-12T06:13:43Z</time>
      </trkpt>
      <trkpt lat="48.35714" lon="-3.73229">
        <ele>192.19999694824</ele>
        <time>2021-09-12T06:13:44Z</time>
      </trkpt>
      <trkpt lat="48.35717" lon="-3.73228">
        <ele>192.39999389648</ele>
        <time>2021-09-12T06:13:45Z</time>
      </trkpt>
      <trkpt lat="48.3572" lon="-3.73227">
        <ele>192.80000305176</ele>
        <time>2021-09-12T06:13:46Z</time>
      </trkpt>
      <trkpt lat="48.35724" lon="-3.73226">
        <ele>192.80000305176</ele>
        <time>2021-09-12T06:13:47Z</time>
      </trkpt>
      <trkpt lat="48.35726" lon="-3.73225">
        <ele>192.80000305176</ele>
        <time>2021-09-12T06:13:48Z</time>
      </trkpt>
      <trkpt lat="48.35729" lon="-3.73224">
        <ele>192.80000305176</ele>
        <time>2021-09-12T06:13:49Z</time>
      </trkpt>
      <trkpt lat="48.35732" lon="-3.73222">
        <ele>193</ele>
        <time>2021-09-12T06:13:50Z</time>
      </trkpt>
      <trkpt lat="48.35734" lon="-3.7322">
        <ele>193</ele>
        <time>2021-09-12T06:13:51Z</time>
      </trkpt>
      <trkpt lat="48.35737" lon="-3.73217">
        <ele>193.19999694824</ele>
        <time>2021-09-12T06:13:52Z</time>
      </trkpt>
      <trkpt lat="48.35739" lon="-3.73214">
        <ele>193.39999389648</ele>
        <time>2021-09-12T06:13:53Z</time>
      </trkpt>
      <trkpt lat="48.35741" lon="-3.73211">
        <ele>193.80000305176</ele>
        <time>2021-09-12T06:13:54Z</time>
      </trkpt>
      <trkpt lat="48.35742" lon="-3.73208">
        <ele>193.80000305176</ele>
        <time>2021-09-12T06:13:55Z</time>
      </trkpt>
      <trkpt lat="48.35744" lon="-3.73206">
        <ele>193.80000305176</ele>
        <time>2021-09-12T06:13:56Z</time>
      </trkpt>
      <trkpt lat="48.35745" lon="-3.73204">
        <ele>193.80000305176</ele>
        <time>2021-09-12T06:13:57Z</time>
      </trkpt>
      <trkpt lat="48.35746" lon="-3.73203">
        <ele>194</ele>
        <time>2021-09-12T06:13:58Z</time>
      </trkpt>
      <trkpt lat="48.35747" lon="-3.73201">
        <ele>194.19999694824</ele>
        <time>2021-09-12T06:13:59Z</time>
      </trkpt>
      <trkpt lat="48.35748" lon="-3.732">
        <ele>194.19999694824</ele>
        <time>2021-09-12T06:14:00Z</time>
      </trkpt>
      <trkpt lat="48.35749" lon="-3.73197">
        <ele>194.19999694824</ele>
        <time>2021-09-12T06:14:01Z</time>
      </trkpt>
      <trkpt lat="48.35749" lon="-3.73195">
        <ele>194.39999389648</ele>
        <time>2021-09-12T06:14:02Z</time>
      </trkpt>
      <trkpt lat="48.3575" lon="-3.73193">
        <ele>194.60000610352</ele>
        <time>2021-09-12T06:14:03Z</time>
      </trkpt>
      <trkpt lat="48.3575" lon="-3.73191">
        <ele>194.80000305176</ele>
        <time>2021-09-12T06:14:04Z</time>
      </trkpt>
      <trkpt lat="48.35753" lon="-3.73188">
        <ele>195</ele>
        <time>2021-09-12T06:14:05Z</time>
      </trkpt>
      <trkpt lat="48.35754" lon="-3.73185">
        <ele>195</ele>
        <time>2021-09-12T06:14:06Z</time>
      </trkpt>
      <trkpt lat="48.35756" lon="-3.73182">
        <ele>195</ele>
        <time>2021-09-12T06:14:07Z</time>
      </trkpt>
      <trkpt lat="48.35756" lon="-3.73179">
        <ele>195.19999694824</ele>
        <time>2021-09-12T06:14:08Z</time>
      </trkpt>
      <trkpt lat="48.35757" lon="-3.73178">
        <ele>195.19999694824</ele>
        <time>2021-09-12T06:14:09Z</time>
      </trkpt>
      <trkpt lat="48.35757" lon="-3.73177">
        <ele>195.19999694824</ele>
        <time>2021-09-12T06:14:10Z</time>
      </trkpt>
      <trkpt lat="48.35756" lon="-3.73175">
        <ele>195.19999694824</ele>
        <time>2021-09-12T06:14:11Z</time>
      </trkpt>
      <trkpt lat="48.35755" lon="-3.73173">
        <ele>195.39999389648</ele>
        <time>2021-09-12T06:14:12Z</time>
      </trkpt>
      <trkpt lat="48.35754" lon="-3.73171">
        <ele>196</ele>
        <time>2021-09-12T06:14:13Z</time>
      </trkpt>
      <trkpt lat="48.35753" lon="-3.7317">
        <ele>196.39999389648</ele>
        <time>2021-09-12T06:14:14Z</time>
      </trkpt>
      <trkpt lat="48.35751" lon="-3.73168">
        <ele>196.60000610352</ele>
        <time>2021-09-12T06:14:15Z</time>
      </trkpt>
      <trkpt lat="48.3575" lon="-3.73167">
        <ele>196.60000610352</ele>
        <time>2021-09-12T06:14:16Z</time>
      </trkpt>
      <trkpt lat="48.3575" lon="-3.73165">
        <ele>196.80000305176</ele>
        <time>2021-09-12T06:14:17Z</time>
      </trkpt>
      <trkpt lat="48.3575" lon="-3.73164">
        <ele>197.19999694824</ele>
        <time>2021-09-12T06:14:18Z</time>
      </trkpt>
      <trkpt lat="48.35751" lon="-3.73162">
        <ele>197.39999389648</ele>
        <time>2021-09-12T06:14:19Z</time>
      </trkpt>
      <trkpt lat="48.35751" lon="-3.7316">
        <ele>197.39999389648</ele>
        <time>2021-09-12T06:14:20Z</time>
      </trkpt>
      <trkpt lat="48.35752" lon="-3.73158">
        <ele>197.39999389648</ele>
        <time>2021-09-12T06:14:21Z</time>
      </trkpt>
      <trkpt lat="48.35752" lon="-3.73156">
        <ele>197.60000610352</ele>
        <time>2021-09-12T06:14:22Z</time>
      </trkpt>
      <trkpt lat="48.35752" lon="-3.73154">
        <ele>197.80000305176</ele>
        <time>2021-09-12T06:14:23Z</time>
      </trkpt>
      <trkpt lat="48.35752" lon="-3.73151">
        <ele>197.80000305176</ele>
        <time>2021-09-12T06:14:24Z</time>
      </trkpt>
      <trkpt lat="48.35753" lon="-3.73149">
        <ele>197.80000305176</ele>
        <time>2021-09-12T06:14:25Z</time>
      </trkpt>
      <trkpt lat="48.35752" lon="-3.73148">
        <ele>197.80000305176</ele>
        <time>2021-09-12T06:14:26Z</time>
      </trkpt>
      <trkpt lat="48.35752" lon="-3.73143">
        <ele>197.80000305176</ele>
        <time>2021-09-12T06:14:28Z</time>
      </trkpt>
      <trkpt lat="48.35752" lon="-3.73143">
        <ele>197.80000305176</ele>
        <time>2021-09-12T06:14:29Z</time>
      </trkpt>
      <trkpt lat="48.35751" lon="-3.73142">
        <ele>197.80000305176</ele>
        <time>2021-09-12T06:14:30Z</time>
      </trkpt>
      <trkpt lat="48.35751" lon="-3.73142">
        <ele>197.80000305176</ele>
        <time>2021-09-12T06:14:31Z</time>
      </trkpt>
      <trkpt lat="48.35751" lon="-3.73142">
        <ele>197.80000305176</ele>
        <time>2021-09-12T06:14:32Z</time>
      </trkpt>
      <trkpt lat="48.35751" lon="-3.73142">
        <ele>198</ele>
        <time>2021-09-12T06:14:33Z</time>
      </trkpt>
      <trkpt lat="48.35751" lon="-3.73142">
        <ele>198</ele>
        <time>2021-09-12T06:14:34Z</time>
      </trkpt>
      <trkpt lat="48.35751" lon="-3.73142">
        <ele>198.19999694824</ele>
        <time>2021-09-12T06:14:35Z</time>
      </trkpt>
      <trkpt lat="48.35751" lon="-3.73142">
        <ele>198.19999694824</ele>
        <time>2021-09-12T06:14:36Z</time>
      </trkpt>
      <trkpt lat="48.35751" lon="-3.7314">
        <ele>198.39999389648</ele>
        <time>2021-09-12T06:14:37Z</time>
      </trkpt>
      <trkpt lat="48.3575" lon="-3.73137">
        <ele>198.39999389648</ele>
        <time>2021-09-12T06:14:38Z</time>
      </trkpt>
      <trkpt lat="48.35751" lon="-3.73135">
        <ele>198.39999389648</ele>
        <time>2021-09-12T06:14:39Z</time>
      </trkpt>
      <trkpt lat="48.35752" lon="-3.73133">
        <ele>198.39999389648</ele>
        <time>2021-09-12T06:14:40Z</time>
      </trkpt>
      <trkpt lat="48.35752" lon="-3.7313">
        <ele>198.39999389648</ele>
        <time>2021-09-12T06:14:41Z</time>
      </trkpt>
      <trkpt lat="48.35753" lon="-3.73127">
        <ele>198.60000610352</ele>
        <time>2021-09-12T06:14:42Z</time>
      </trkpt>
      <trkpt lat="48.35753" lon="-3.73123">
        <ele>198.60000610352</ele>
        <time>2021-09-12T06:14:43Z</time>
      </trkpt>
      <trkpt lat="48.35754" lon="-3.73119">
        <ele>198.60000610352</ele>
        <time>2021-09-12T06:14:44Z</time>
      </trkpt>
      <trkpt lat="48.35756" lon="-3.73115">
        <ele>198.60000610352</ele>
        <time>2021-09-12T06:14:45Z</time>
      </trkpt>
      <trkpt lat="48.35757" lon="-3.73112">
        <ele>198.60000610352</ele>
        <time>2021-09-12T06:14:46Z</time>
      </trkpt>
      <trkpt lat="48.35758" lon="-3.73111">
        <ele>198.60000610352</ele>
        <time>2021-09-12T06:14:47Z</time>
      </trkpt>
      <trkpt lat="48.35759" lon="-3.73109">
        <ele>198.80000305176</ele>
        <time>2021-09-12T06:14:48Z</time>
      </trkpt>
      <trkpt lat="48.3576" lon="-3.73108">
        <ele>198.60000610352</ele>
        <time>2021-09-12T06:14:49Z</time>
      </trkpt>
      <trkpt lat="48.35761" lon="-3.73108">
        <ele>198.60000610352</ele>
        <time>2021-09-12T06:14:50Z</time>
      </trkpt>
      <trkpt lat="48.35762" lon="-3.73108">
        <ele>198.60000610352</ele>
        <time>2021-09-12T06:14:51Z</time>
      </trkpt>
      <trkpt lat="48.35765" lon="-3.73107">
        <ele>198.60000610352</ele>
        <time>2021-09-12T06:14:52Z</time>
      </trkpt>
      <trkpt lat="48.35768" lon="-3.73106">
        <ele>198.60000610352</ele>
        <time>2021-09-12T06:14:53Z</time>
      </trkpt>
      <trkpt lat="48.3577" lon="-3.73105">
        <ele>198.39999389648</ele>
        <time>2021-09-12T06:14:54Z</time>
      </trkpt>
      <trkpt lat="48.35771" lon="-3.73103">
        <ele>198.39999389648</ele>
        <time>2021-09-12T06:14:55Z</time>
      </trkpt>
      <trkpt lat="48.35773" lon="-3.73102">
        <ele>198.19999694824</ele>
        <time>2021-09-12T06:14:56Z</time>
      </trkpt>
      <trkpt lat="48.35775" lon="-3.73101">
        <ele>197.80000305176</ele>
        <time>2021-09-12T06:14:57Z</time>
      </trkpt>
      <trkpt lat="48.35777" lon="-3.73101">
        <ele>197.80000305176</ele>
        <time>2021-09-12T06:14:58Z</time>
      </trkpt>
      <trkpt lat="48.35778" lon="-3.731">
        <ele>197.60000610352</ele>
        <time>2021-09-12T06:14:59Z</time>
      </trkpt>
      <trkpt lat="48.35781" lon="-3.73099">
        <ele>197.60000610352</ele>
        <time>2021-09-12T06:15:00Z</time>
      </trkpt>
      <trkpt lat="48.35785" lon="-3.73098">
        <ele>197.39999389648</ele>
        <time>2021-09-12T06:15:01Z</time>
      </trkpt>
      <trkpt lat="48.35788" lon="-3.73097">
        <ele>197.19999694824</ele>
        <time>2021-09-12T06:15:02Z</time>
      </trkpt>
      <trkpt lat="48.3579" lon="-3.73095">
        <ele>196.60000610352</ele>
        <time>2021-09-12T06:15:03Z</time>
      </trkpt>
      <trkpt lat="48.35792" lon="-3.73093">
        <ele>196.60000610352</ele>
        <time>2021-09-12T06:15:04Z</time>
      </trkpt>
      <trkpt lat="48.35795" lon="-3.7309">
        <ele>196.60000610352</ele>
        <time>2021-09-12T06:15:05Z</time>
      </trkpt>
      <trkpt lat="48.35797" lon="-3.73088">
        <ele>196.39999389648</ele>
        <time>2021-09-12T06:15:06Z</time>
      </trkpt>
      <trkpt lat="48.35798" lon="-3.73086">
        <ele>196.39999389648</ele>
        <time>2021-09-12T06:15:07Z</time>
      </trkpt>
      <trkpt lat="48.35799" lon="-3.73084">
        <ele>196.39999389648</ele>
        <time>2021-09-12T06:15:08Z</time>
      </trkpt>
      <trkpt lat="48.35801" lon="-3.73083">
        <ele>196.39999389648</ele>
        <time>2021-09-12T06:15:09Z</time>
      </trkpt>
      <trkpt lat="48.35803" lon="-3.73081">
        <ele>196.19999694824</ele>
        <time>2021-09-12T06:15:10Z</time>
      </trkpt>
      <trkpt lat="48.35805" lon="-3.73078">
        <ele>196.19999694824</ele>
        <time>2021-09-12T06:15:11Z</time>
      </trkpt>
      <trkpt lat="48.35808" lon="-3.73076">
        <ele>196.19999694824</ele>
        <time>2021-09-12T06:15:12Z</time>
      </trkpt>
      <trkpt lat="48.35811" lon="-3.73073">
        <ele>195.80000305176</ele>
        <time>2021-09-12T06:15:13Z</time>
      </trkpt>
      <trkpt lat="48.35814" lon="-3.7307">
        <ele>195.80000305176</ele>
        <time>2021-09-12T06:15:14Z</time>
      </trkpt>
      <trkpt lat="48.35817" lon="-3.73066">
        <ele>195.60000610352</ele>
        <time>2021-09-12T06:15:15Z</time>
      </trkpt>
      <trkpt lat="48.35819" lon="-3.73061">
        <ele>195.19999694824</ele>
        <time>2021-09-12T06:15:16Z</time>
      </trkpt>
      <trkpt lat="48.35821" lon="-3.73057">
        <ele>195</ele>
        <time>2021-09-12T06:15:17Z</time>
      </trkpt>
      <trkpt lat="48.35822" lon="-3.73052">
        <ele>195</ele>
        <time>2021-09-12T06:15:18Z</time>
      </trkpt>
      <trkpt lat="48.35824" lon="-3.73048">
        <ele>194.80000305176</ele>
        <time>2021-09-12T06:15:19Z</time>
      </trkpt>
      <trkpt lat="48.35825" lon="-3.73045">
        <ele>194.60000610352</ele>
        <time>2021-09-12T06:15:20Z</time>
      </trkpt>
      <trkpt lat="48.35826" lon="-3.73041">
        <ele>194.60000610352</ele>
        <time>2021-09-12T06:15:21Z</time>
      </trkpt>
      <trkpt lat="48.35827" lon="-3.73039">
        <ele>194.60000610352</ele>
        <time>2021-09-12T06:15:22Z</time>
      </trkpt>
      <trkpt lat="48.35828" lon="-3.73037">
        <ele>194.39999389648</ele>
        <time>2021-09-12T06:15:23Z</time>
      </trkpt>
      <trkpt lat="48.35828" lon="-3.73034">
        <ele>194.39999389648</ele>
        <time>2021-09-12T06:15:24Z</time>
      </trkpt>
      <trkpt lat="48.35829" lon="-3.73033">
        <ele>194.39999389648</ele>
        <time>2021-09-12T06:15:25Z</time>
      </trkpt>
      <trkpt lat="48.35829" lon="-3.73032">
        <ele>194.39999389648</ele>
        <time>2021-09-12T06:15:26Z</time>
      </trkpt>
      <trkpt lat="48.35829" lon="-3.73032">
        <ele>194.39999389648</ele>
        <time>2021-09-12T06:15:27Z</time>
      </trkpt>
      <trkpt lat="48.35829" lon="-3.73032">
        <ele>194.39999389648</ele>
        <time>2021-09-12T06:15:28Z</time>
      </trkpt>
      <trkpt lat="48.35828" lon="-3.73025">
        <ele>194.60000610352</ele>
        <time>2021-09-12T06:15:53Z</time>
      </trkpt>
      <trkpt lat="48.35828" lon="-3.73023">
        <ele>194.80000305176</ele>
        <time>2021-09-12T06:15:54Z</time>
      </trkpt>
      <trkpt lat="48.35828" lon="-3.7302">
        <ele>195</ele>
        <time>2021-09-12T06:15:55Z</time>
      </trkpt>
      <trkpt lat="48.35828" lon="-3.73017">
        <ele>195.19999694824</ele>
        <time>2021-09-12T06:15:56Z</time>
      </trkpt>
      <trkpt lat="48.35829" lon="-3.73013">
        <ele>195.19999694824</ele>
        <time>2021-09-12T06:15:57Z</time>
      </trkpt>
      <trkpt lat="48.3583" lon="-3.73009">
        <ele>195.39999389648</ele>
        <time>2021-09-12T06:15:58Z</time>
      </trkpt>
      <trkpt lat="48.3583" lon="-3.73005">
        <ele>195.39999389648</ele>
        <time>2021-09-12T06:15:59Z</time>
      </trkpt>
      <trkpt lat="48.35831" lon="-3.73004">
        <ele>195.19999694824</ele>
        <time>2021-09-12T06:16:00Z</time>
      </trkpt>
      <trkpt lat="48.35831" lon="-3.73003">
        <ele>195.39999389648</ele>
        <time>2021-09-12T06:16:01Z</time>
      </trkpt>
      <trkpt lat="48.35831" lon="-3.73003">
        <ele>195.19999694824</ele>
        <time>2021-09-12T06:16:02Z</time>
      </trkpt>
      <trkpt lat="48.35852" lon="-3.72991">
        <ele>189.60000610352</ele>
        <time>2021-09-12T06:17:07Z</time>
      </trkpt>
      <trkpt lat="48.35854" lon="-3.72987">
        <ele>189.39999389648</ele>
        <time>2021-09-12T06:17:08Z</time>
      </trkpt>
      <trkpt lat="48.35855" lon="-3.72984">
        <ele>189.19999694824</ele>
        <time>2021-09-12T06:17:09Z</time>
      </trkpt>
      <trkpt lat="48.35857" lon="-3.72981">
        <ele>188.80000305176</ele>
        <time>2021-09-12T06:17:10Z</time>
      </trkpt>
      <trkpt lat="48.35857" lon="-3.72977">
        <ele>188.39999389648</ele>
        <time>2021-09-12T06:17:11Z</time>
      </trkpt>
      <trkpt lat="48.35858" lon="-3.72973">
        <ele>188.39999389648</ele>
        <time>2021-09-12T06:17:12Z</time>
      </trkpt>
      <trkpt lat="48.35859" lon="-3.72968">
        <ele>188.39999389648</ele>
        <time>2021-09-12T06:17:13Z</time>
      </trkpt>
      <trkpt lat="48.35859" lon="-3.72965">
        <ele>188</ele>
        <time>2021-09-12T06:17:14Z</time>
      </trkpt>
      <trkpt lat="48.35859" lon="-3.72962">
        <ele>188</ele>
        <time>2021-09-12T06:17:15Z</time>
      </trkpt>
      <trkpt lat="48.35859" lon="-3.7296">
        <ele>187.80000305176</ele>
        <time>2021-09-12T06:17:16Z</time>
      </trkpt>
      <trkpt lat="48.35859" lon="-3.72958">
        <ele>187.80000305176</ele>
        <time>2021-09-12T06:17:17Z</time>
      </trkpt>
      <trkpt lat="48.35858" lon="-3.72958">
        <ele>187.80000305176</ele>
        <time>2021-09-12T06:17:18Z</time>
      </trkpt>
      <trkpt lat="48.35858" lon="-3.72958">
        <ele>187.60000610352</ele>
        <time>2021-09-12T06:17:19Z</time>
      </trkpt>
      <trkpt lat="48.35858" lon="-3.72958">
        <ele>187.60000610352</ele>
        <time>2021-09-12T06:17:20Z</time>
      </trkpt>
      <trkpt lat="48.35858" lon="-3.72958">
        <ele>187.60000610352</ele>
        <time>2021-09-12T06:17:21Z</time>
      </trkpt>
      <trkpt lat="48.35866" lon="-3.72906">
        <ele>183.39999389648</ele>
        <time>2021-09-12T06:18:08Z</time>
      </trkpt>
      <trkpt lat="48.35867" lon="-3.72902">
        <ele>182.60000610352</ele>
        <time>2021-09-12T06:18:09Z</time>
      </trkpt>
      <trkpt lat="48.35868" lon="-3.72898">
        <ele>182.60000610352</ele>
        <time>2021-09-12T06:18:10Z</time>
      </trkpt>
      <trkpt lat="48.3587" lon="-3.72892">
        <ele>182.39999389648</ele>
        <time>2021-09-12T06:18:11Z</time>
      </trkpt>
      <trkpt lat="48.35871" lon="-3.72887">
        <ele>181.80000305176</ele>
        <time>2021-09-12T06:18:12Z</time>
      </trkpt>
      <trkpt lat="48.35871" lon="-3.72883">
        <ele>181.39999389648</ele>
        <time>2021-09-12T06:18:13Z</time>
      </trkpt>
      <trkpt lat="48.35871" lon="-3.72878">
        <ele>181.39999389648</ele>
        <time>2021-09-12T06:18:14Z</time>
      </trkpt>
      <trkpt lat="48.35871" lon="-3.72874">
        <ele>181.39999389648</ele>
        <time>2021-09-12T06:18:15Z</time>
      </trkpt>
      <trkpt lat="48.35872" lon="-3.7287">
        <ele>181.39999389648</ele>
        <time>2021-09-12T06:18:16Z</time>
      </trkpt>
      <trkpt lat="48.35873" lon="-3.72866">
        <ele>181.19999694824</ele>
        <time>2021-09-12T06:18:17Z</time>
      </trkpt>
      <trkpt lat="48.35874" lon="-3.72863">
        <ele>181.19999694824</ele>
        <time>2021-09-12T06:18:18Z</time>
      </trkpt>
      <trkpt lat="48.35873" lon="-3.72859">
        <ele>181.19999694824</ele>
        <time>2021-09-12T06:18:19Z</time>
      </trkpt>
      <trkpt lat="48.35872" lon="-3.72857">
        <ele>181.39999389648</ele>
        <time>2021-09-12T06:18:20Z</time>
      </trkpt>
      <trkpt lat="48.3587" lon="-3.72854">
        <ele>181.39999389648</ele>
        <time>2021-09-12T06:18:21Z</time>
      </trkpt>
      <trkpt lat="48.35869" lon="-3.72852">
        <ele>181.39999389648</ele>
        <time>2021-09-12T06:18:22Z</time>
      </trkpt>
      <trkpt lat="48.35869" lon="-3.72848">
        <ele>181.39999389648</ele>
        <time>2021-09-12T06:18:23Z</time>
      </trkpt>
      <trkpt lat="48.3587" lon="-3.72845">
        <ele>181.39999389648</ele>
        <time>2021-09-12T06:18:24Z</time>
      </trkpt>
      <trkpt lat="48.3587" lon="-3.72842">
        <ele>181.39999389648</ele>
        <time>2021-09-12T06:18:25Z</time>
      </trkpt>
      <trkpt lat="48.3587" lon="-3.7284">
        <ele>181.19999694824</ele>
        <time>2021-09-12T06:18:26Z</time>
      </trkpt>
      <trkpt lat="48.3587" lon="-3.72839">
        <ele>181.19999694824</ele>
        <time>2021-09-12T06:18:27Z</time>
      </trkpt>
      <trkpt lat="48.3587" lon="-3.72837">
        <ele>181</ele>
        <time>2021-09-12T06:18:28Z</time>
      </trkpt>
      <trkpt lat="48.3587" lon="-3.72832">
        <ele>181</ele>
        <time>2021-09-12T06:18:29Z</time>
      </trkpt>
      <trkpt lat="48.35871" lon="-3.72829">
        <ele>180.80000305176</ele>
        <time>2021-09-12T06:18:30Z</time>
      </trkpt>
      <trkpt lat="48.35872" lon="-3.72824">
        <ele>180.39999389648</ele>
        <time>2021-09-12T06:18:31Z</time>
      </trkpt>
      <trkpt lat="48.35871" lon="-3.72819">
        <ele>180</ele>
        <time>2021-09-12T06:18:32Z</time>
      </trkpt>
      <trkpt lat="48.35869" lon="-3.72814">
        <ele>179.19999694824</ele>
        <time>2021-09-12T06:18:33Z</time>
      </trkpt>
      <trkpt lat="48.35865" lon="-3.72807">
        <ele>178.19999694824</ele>
        <time>2021-09-12T06:18:34Z</time>
      </trkpt>
      <trkpt lat="48.35863" lon="-3.72801">
        <ele>177.60000610352</ele>
        <time>2021-09-12T06:18:35Z</time>
      </trkpt>
      <trkpt lat="48.35862" lon="-3.72794">
        <ele>177.60000610352</ele>
        <time>2021-09-12T06:18:36Z</time>
      </trkpt>
      <trkpt lat="48.35863" lon="-3.72786">
        <ele>176.80000305176</ele>
        <time>2021-09-12T06:18:37Z</time>
      </trkpt>
      <trkpt lat="48.35865" lon="-3.72775">
        <ele>175.39999389648</ele>
        <time>2021-09-12T06:18:38Z</time>
      </trkpt>
      <trkpt lat="48.35866" lon="-3.72766">
        <ele>174.60000610352</ele>
        <time>2021-09-12T06:18:39Z</time>
      </trkpt>
      <trkpt lat="48.35864" lon="-3.72758">
        <ele>173.19999694824</ele>
        <time>2021-09-12T06:18:40Z</time>
      </trkpt>
      <trkpt lat="48.35863" lon="-3.72751">
        <ele>172.39999389648</ele>
        <time>2021-09-12T06:18:41Z</time>
      </trkpt>
      <trkpt lat="48.35862" lon="-3.72746">
        <ele>172.19999694824</ele>
        <time>2021-09-12T06:18:42Z</time>
      </trkpt>
      <trkpt lat="48.35861" lon="-3.72741">
        <ele>172</ele>
        <time>2021-09-12T06:18:43Z</time>
      </trkpt>
      <trkpt lat="48.3586" lon="-3.72736">
        <ele>171.19999694824</ele>
        <time>2021-09-12T06:18:44Z</time>
      </trkpt>
      <trkpt lat="48.35859" lon="-3.72728">
        <ele>171</ele>
        <time>2021-09-12T06:18:45Z</time>
      </trkpt>
      <trkpt lat="48.3586" lon="-3.72719">
        <ele>171</ele>
        <time>2021-09-12T06:18:46Z</time>
      </trkpt>
      <trkpt lat="48.3586" lon="-3.72712">
        <ele>170.19999694824</ele>
        <time>2021-09-12T06:18:47Z</time>
      </trkpt>
      <trkpt lat="48.3586" lon="-3.72706">
        <ele>169.60000610352</ele>
        <time>2021-09-12T06:18:48Z</time>
      </trkpt>
      <trkpt lat="48.3586" lon="-3.72702">
        <ele>168.80000305176</ele>
        <time>2021-09-12T06:18:49Z</time>
      </trkpt>
      <trkpt lat="48.3586" lon="-3.727">
        <ele>168.80000305176</ele>
        <time>2021-09-12T06:18:50Z</time>
      </trkpt>
      <trkpt lat="48.3586" lon="-3.72698">
        <ele>168.60000610352</ele>
        <time>2021-09-12T06:18:51Z</time>
      </trkpt>
      <trkpt lat="48.3586" lon="-3.72695">
        <ele>168.60000610352</ele>
        <time>2021-09-12T06:18:52Z</time>
      </trkpt>
      <trkpt lat="48.35858" lon="-3.72695">
        <ele>168.60000610352</ele>
        <time>2021-09-12T06:18:53Z</time>
      </trkpt>
      <trkpt lat="48.35858" lon="-3.72693">
        <ele>168.39999389648</ele>
        <time>2021-09-12T06:18:54Z</time>
      </trkpt>
      <trkpt lat="48.35858" lon="-3.7269">
        <ele>168.19999694824</ele>
        <time>2021-09-12T06:18:55Z</time>
      </trkpt>
      <trkpt lat="48.35859" lon="-3.72686">
        <ele>168</ele>
        <time>2021-09-12T06:18:56Z</time>
      </trkpt>
      <trkpt lat="48.35859" lon="-3.72682">
        <ele>168</ele>
        <time>2021-09-12T06:18:57Z</time>
      </trkpt>
      <trkpt lat="48.3586" lon="-3.72678">
        <ele>167.39999389648</ele>
        <time>2021-09-12T06:18:58Z</time>
      </trkpt>
      <trkpt lat="48.35861" lon="-3.72675">
        <ele>166.60000610352</ele>
        <time>2021-09-12T06:18:59Z</time>
      </trkpt>
      <trkpt lat="48.35864" lon="-3.72668">
        <ele>166.19999694824</ele>
        <time>2021-09-12T06:19:00Z</time>
      </trkpt>
      <trkpt lat="48.35866" lon="-3.72662">
        <ele>165.19999694824</ele>
        <time>2021-09-12T06:19:01Z</time>
      </trkpt>
      <trkpt lat="48.35868" lon="-3.72655">
        <ele>164</ele>
        <time>2021-09-12T06:19:02Z</time>
      </trkpt>
      <trkpt lat="48.35868" lon="-3.72647">
        <ele>162.80000305176</ele>
        <time>2021-09-12T06:19:03Z</time>
      </trkpt>
      <trkpt lat="48.35867" lon="-3.72637">
        <ele>162.19999694824</ele>
        <time>2021-09-12T06:19:04Z</time>
      </trkpt>
      <trkpt lat="48.35866" lon="-3.72626">
        <ele>161.60000610352</ele>
        <time>2021-09-12T06:19:05Z</time>
      </trkpt>
      <trkpt lat="48.35864" lon="-3.72619">
        <ele>161.39999389648</ele>
        <time>2021-09-12T06:19:06Z</time>
      </trkpt>
      <trkpt lat="48.35861" lon="-3.72611">
        <ele>161.39999389648</ele>
        <time>2021-09-12T06:19:07Z</time>
      </trkpt>
      <trkpt lat="48.35859" lon="-3.72605">
        <ele>161.39999389648</ele>
        <time>2021-09-12T06:19:08Z</time>
      </trkpt>
      <trkpt lat="48.35857" lon="-3.72597">
        <ele>161.19999694824</ele>
        <time>2021-09-12T06:19:09Z</time>
      </trkpt>
      <trkpt lat="48.35855" lon="-3.72589">
        <ele>161.19999694824</ele>
        <time>2021-09-12T06:19:10Z</time>
      </trkpt>
      <trkpt lat="48.35853" lon="-3.72581">
        <ele>161.19999694824</ele>
        <time>2021-09-12T06:19:11Z</time>
      </trkpt>
      <trkpt lat="48.35852" lon="-3.72576">
        <ele>160.60000610352</ele>
        <time>2021-09-12T06:19:12Z</time>
      </trkpt>
      <trkpt lat="48.35852" lon="-3.72572">
        <ele>159.60000610352</ele>
        <time>2021-09-12T06:19:13Z</time>
      </trkpt>
      <trkpt lat="48.35851" lon="-3.72568">
        <ele>158.39999389648</ele>
        <time>2021-09-12T06:19:14Z</time>
      </trkpt>
      <trkpt lat="48.35848" lon="-3.72565">
        <ele>157.60000610352</ele>
        <time>2021-09-12T06:19:15Z</time>
      </trkpt>
      <trkpt lat="48.35843" lon="-3.72564">
        <ele>157.39999389648</ele>
        <time>2021-09-12T06:19:16Z</time>
      </trkpt>
      <trkpt lat="48.35839" lon="-3.72562">
        <ele>157.39999389648</ele>
        <time>2021-09-12T06:19:17Z</time>
      </trkpt>
      <trkpt lat="48.35835" lon="-3.7256">
        <ele>157.39999389648</ele>
        <time>2021-09-12T06:19:18Z</time>
      </trkpt>
      <trkpt lat="48.3583" lon="-3.72556">
        <ele>157.19999694824</ele>
        <time>2021-09-12T06:19:19Z</time>
      </trkpt>
      <trkpt lat="48.35827" lon="-3.72553">
        <ele>156.19999694824</ele>
        <time>2021-09-12T06:19:20Z</time>
      </trkpt>
      <trkpt lat="48.35827" lon="-3.72549">
        <ele>155.39999389648</ele>
        <time>2021-09-12T06:19:21Z</time>
      </trkpt>
      <trkpt lat="48.35829" lon="-3.72545">
        <ele>154.39999389648</ele>
        <time>2021-09-12T06:19:22Z</time>
      </trkpt>
      <trkpt lat="48.35832" lon="-3.7254">
        <ele>153.60000610352</ele>
        <time>2021-09-12T06:19:23Z</time>
      </trkpt>
      <trkpt lat="48.35837" lon="-3.72536">
        <ele>153.39999389648</ele>
        <time>2021-09-12T06:19:24Z</time>
      </trkpt>
      <trkpt lat="48.35841" lon="-3.72531">
        <ele>152.80000305176</ele>
        <time>2021-09-12T06:19:25Z</time>
      </trkpt>
      <trkpt lat="48.35846" lon="-3.72525">
        <ele>152.19999694824</ele>
        <time>2021-09-12T06:19:26Z</time>
      </trkpt>
      <trkpt lat="48.3585" lon="-3.72517">
        <ele>151.60000610352</ele>
        <time>2021-09-12T06:19:27Z</time>
      </trkpt>
      <trkpt lat="48.35856" lon="-3.72508">
        <ele>151</ele>
        <time>2021-09-12T06:19:28Z</time>
      </trkpt>
      <trkpt lat="48.35862" lon="-3.72501">
        <ele>149.60000610352</ele>
        <time>2021-09-12T06:19:29Z</time>
      </trkpt>
      <trkpt lat="48.35867" lon="-3.72493">
        <ele>149.39999389648</ele>
        <time>2021-09-12T06:19:30Z</time>
      </trkpt>
      <trkpt lat="48.35872" lon="-3.72485">
        <ele>148.39999389648</ele>
        <time>2021-09-12T06:19:31Z</time>
      </trkpt>
      <trkpt lat="48.35876" lon="-3.72477">
        <ele>146.80000305176</ele>
        <time>2021-09-12T06:19:32Z</time>
      </trkpt>
      <trkpt lat="48.3588" lon="-3.72471">
        <ele>145.80000305176</ele>
        <time>2021-09-12T06:19:33Z</time>
      </trkpt>
      <trkpt lat="48.35886" lon="-3.72463">
        <ele>145.19999694824</ele>
        <time>2021-09-12T06:19:34Z</time>
      </trkpt>
      <trkpt lat="48.35891" lon="-3.72456">
        <ele>144.80000305176</ele>
        <time>2021-09-12T06:19:35Z</time>
      </trkpt>
      <trkpt lat="48.35896" lon="-3.7245">
        <ele>143.39999389648</ele>
        <time>2021-09-12T06:19:36Z</time>
      </trkpt>
      <trkpt lat="48.359" lon="-3.72446">
        <ele>143</ele>
        <time>2021-09-12T06:19:37Z</time>
      </trkpt>
      <trkpt lat="48.35902" lon="-3.72444">
        <ele>141.60000610352</ele>
        <time>2021-09-12T06:19:38Z</time>
      </trkpt>
      <trkpt lat="48.35903" lon="-3.72442">
        <ele>140.60000610352</ele>
        <time>2021-09-12T06:19:39Z</time>
      </trkpt>
      <trkpt lat="48.35904" lon="-3.72441">
        <ele>140</ele>
        <time>2021-09-12T06:19:40Z</time>
      </trkpt>
      <trkpt lat="48.35904" lon="-3.72439">
        <ele>139.80000305176</ele>
        <time>2021-09-12T06:19:41Z</time>
      </trkpt>
      <trkpt lat="48.35905" lon="-3.72438">
        <ele>139.60000610352</ele>
        <time>2021-09-12T06:19:42Z</time>
      </trkpt>
      <trkpt lat="48.35906" lon="-3.72435">
        <ele>139.39999389648</ele>
        <time>2021-09-12T06:19:43Z</time>
      </trkpt>
      <trkpt lat="48.35908" lon="-3.7243">
        <ele>139.39999389648</ele>
        <time>2021-09-12T06:19:44Z</time>
      </trkpt>
      <trkpt lat="48.35908" lon="-3.72426">
        <ele>139.39999389648</ele>
        <time>2021-09-12T06:19:45Z</time>
      </trkpt>
      <trkpt lat="48.35907" lon="-3.72423">
        <ele>139</ele>
        <time>2021-09-12T06:19:46Z</time>
      </trkpt>
      <trkpt lat="48.35903" lon="-3.72422">
        <ele>138.80000305176</ele>
        <time>2021-09-12T06:19:47Z</time>
      </trkpt>
      <trkpt lat="48.35899" lon="-3.72421">
        <ele>138.19999694824</ele>
        <time>2021-09-12T06:19:48Z</time>
      </trkpt>
      <trkpt lat="48.35895" lon="-3.72422">
        <ele>138.19999694824</ele>
        <time>2021-09-12T06:19:49Z</time>
      </trkpt>
      <trkpt lat="48.35892" lon="-3.72423">
        <ele>138</ele>
        <time>2021-09-12T06:19:50Z</time>
      </trkpt>
      <trkpt lat="48.35888" lon="-3.72424">
        <ele>137.60000610352</ele>
        <time>2021-09-12T06:19:51Z</time>
      </trkpt>
      <trkpt lat="48.35886" lon="-3.72425">
        <ele>137.60000610352</ele>
        <time>2021-09-12T06:19:52Z</time>
      </trkpt>
      <trkpt lat="48.35883" lon="-3.72425">
        <ele>137.39999389648</ele>
        <time>2021-09-12T06:19:53Z</time>
      </trkpt>
      <trkpt lat="48.35879" lon="-3.72426">
        <ele>137.39999389648</ele>
        <time>2021-09-12T06:19:54Z</time>
      </trkpt>
      <trkpt lat="48.35877" lon="-3.72426">
        <ele>137.39999389648</ele>
        <time>2021-09-12T06:19:55Z</time>
      </trkpt>
      <trkpt lat="48.35873" lon="-3.72427">
        <ele>137.19999694824</ele>
        <time>2021-09-12T06:19:56Z</time>
      </trkpt>
      <trkpt lat="48.35869" lon="-3.72428">
        <ele>137.19999694824</ele>
        <time>2021-09-12T06:19:57Z</time>
      </trkpt>
      <trkpt lat="48.35865" lon="-3.72429">
        <ele>137</ele>
        <time>2021-09-12T06:19:58Z</time>
      </trkpt>
      <trkpt lat="48.35861" lon="-3.7243">
        <ele>136.80000305176</ele>
        <time>2021-09-12T06:19:59Z</time>
      </trkpt>
      <trkpt lat="48.35858" lon="-3.72431">
        <ele>136.80000305176</ele>
        <time>2021-09-12T06:20:00Z</time>
      </trkpt>
      <trkpt lat="48.35854" lon="-3.72433">
        <ele>136.80000305176</ele>
        <time>2021-09-12T06:20:01Z</time>
      </trkpt>
      <trkpt lat="48.3585" lon="-3.72435">
        <ele>136.80000305176</ele>
        <time>2021-09-12T06:20:02Z</time>
      </trkpt>
      <trkpt lat="48.35845" lon="-3.72438">
        <ele>136.60000610352</ele>
        <time>2021-09-12T06:20:03Z</time>
      </trkpt>
      <trkpt lat="48.3584" lon="-3.7244">
        <ele>136.80000305176</ele>
        <time>2021-09-12T06:20:04Z</time>
      </trkpt>
      <trkpt lat="48.35835" lon="-3.72442">
        <ele>136.80000305176</ele>
        <time>2021-09-12T06:20:05Z</time>
      </trkpt>
      <trkpt lat="48.35831" lon="-3.72445">
        <ele>136.80000305176</ele>
        <time>2021-09-12T06:20:06Z</time>
      </trkpt>
      <trkpt lat="48.35826" lon="-3.72447">
        <ele>136.60000610352</ele>
        <time>2021-09-12T06:20:07Z</time>
      </trkpt>
      <trkpt lat="48.35822" lon="-3.7245">
        <ele>136.60000610352</ele>
        <time>2021-09-12T06:20:08Z</time>
      </trkpt>
      <trkpt lat="48.35818" lon="-3.72452">
        <ele>136.60000610352</ele>
        <time>2021-09-12T06:20:09Z</time>
      </trkpt>
      <trkpt lat="48.35814" lon="-3.72454">
        <ele>136.60000610352</ele>
        <time>2021-09-12T06:20:10Z</time>
      </trkpt>
      <trkpt lat="48.35811" lon="-3.72457">
        <ele>136.60000610352</ele>
        <time>2021-09-12T06:20:11Z</time>
      </trkpt>
      <trkpt lat="48.35807" lon="-3.7246">
        <ele>136.60000610352</ele>
        <time>2021-09-12T06:20:12Z</time>
      </trkpt>
      <trkpt lat="48.35805" lon="-3.72463">
        <ele>136.60000610352</ele>
        <time>2021-09-12T06:20:13Z</time>
      </trkpt>
      <trkpt lat="48.35802" lon="-3.72466">
        <ele>136.60000610352</ele>
        <time>2021-09-12T06:20:14Z</time>
      </trkpt>
      <trkpt lat="48.35801" lon="-3.72468">
        <ele>136.60000610352</ele>
        <time>2021-09-12T06:20:15Z</time>
      </trkpt>
      <trkpt lat="48.35799" lon="-3.72468">
        <ele>136.60000610352</ele>
        <time>2021-09-12T06:20:16Z</time>
      </trkpt>
      <trkpt lat="48.35797" lon="-3.72467">
        <ele>136.60000610352</ele>
        <time>2021-09-12T06:20:17Z</time>
      </trkpt>
      <trkpt lat="48.35795" lon="-3.72465">
        <ele>136.39999389648</ele>
        <time>2021-09-12T06:20:18Z</time>
      </trkpt>
      <trkpt lat="48.35794" lon="-3.72463">
        <ele>135.39999389648</ele>
        <time>2021-09-12T06:20:19Z</time>
      </trkpt>
      <trkpt lat="48.35792" lon="-3.7246">
        <ele>134.80000305176</ele>
        <time>2021-09-12T06:20:20Z</time>
      </trkpt>
      <trkpt lat="48.3579" lon="-3.7246">
        <ele>134.39999389648</ele>
        <time>2021-09-12T06:20:21Z</time>
      </trkpt>
      <trkpt lat="48.35787" lon="-3.72461">
        <ele>133.80000305176</ele>
        <time>2021-09-12T06:20:22Z</time>
      </trkpt>
      <trkpt lat="48.35785" lon="-3.72462">
        <ele>133.39999389648</ele>
        <time>2021-09-12T06:20:23Z</time>
      </trkpt>
      <trkpt lat="48.35785" lon="-3.72463">
        <ele>133.19999694824</ele>
        <time>2021-09-12T06:20:24Z</time>
      </trkpt>
      <trkpt lat="48.35784" lon="-3.72464">
        <ele>133.19999694824</ele>
        <time>2021-09-12T06:20:25Z</time>
      </trkpt>
      <trkpt lat="48.35782" lon="-3.72466">
        <ele>133.19999694824</ele>
        <time>2021-09-12T06:20:26Z</time>
      </trkpt>
      <trkpt lat="48.3578" lon="-3.72468">
        <ele>133.39999389648</ele>
        <time>2021-09-12T06:20:27Z</time>
      </trkpt>
      <trkpt lat="48.35779" lon="-3.72471">
        <ele>133.60000610352</ele>
        <time>2021-09-12T06:20:28Z</time>
      </trkpt>
      <trkpt lat="48.35778" lon="-3.72475">
        <ele>133.60000610352</ele>
        <time>2021-09-12T06:20:29Z</time>
      </trkpt>
      <trkpt lat="48.35778" lon="-3.72479">
        <ele>133.60000610352</ele>
        <time>2021-09-12T06:20:30Z</time>
      </trkpt>
      <trkpt lat="48.35777" lon="-3.72485">
        <ele>133.60000610352</ele>
        <time>2021-09-12T06:20:31Z</time>
      </trkpt>
      <trkpt lat="48.35776" lon="-3.7249">
        <ele>133.60000610352</ele>
        <time>2021-09-12T06:20:32Z</time>
      </trkpt>
      <trkpt lat="48.35777" lon="-3.72495">
        <ele>133.60000610352</ele>
        <time>2021-09-12T06:20:33Z</time>
      </trkpt>
      <trkpt lat="48.35778" lon="-3.72499">
        <ele>133.60000610352</ele>
        <time>2021-09-12T06:20:34Z</time>
      </trkpt>
      <trkpt lat="48.35778" lon="-3.72503">
        <ele>133.60000610352</ele>
        <time>2021-09-12T06:20:35Z</time>
      </trkpt>
      <trkpt lat="48.35778" lon="-3.72506">
        <ele>133.60000610352</ele>
        <time>2021-09-12T06:20:36Z</time>
      </trkpt>
      <trkpt lat="48.35777" lon="-3.7251">
        <ele>133.60000610352</ele>
        <time>2021-09-12T06:20:37Z</time>
      </trkpt>
      <trkpt lat="48.35776" lon="-3.72513">
        <ele>133.60000610352</ele>
        <time>2021-09-12T06:20:38Z</time>
      </trkpt>
      <trkpt lat="48.35772" lon="-3.72517">
        <ele>133.60000610352</ele>
        <time>2021-09-12T06:20:39Z</time>
      </trkpt>
      <trkpt lat="48.35769" lon="-3.72519">
        <ele>133.60000610352</ele>
        <time>2021-09-12T06:20:40Z</time>
      </trkpt>
      <trkpt lat="48.35765" lon="-3.72521">
        <ele>133.60000610352</ele>
        <time>2021-09-12T06:20:41Z</time>
      </trkpt>
      <trkpt lat="48.35762" lon="-3.72521">
        <ele>133.80000305176</ele>
        <time>2021-09-12T06:20:42Z</time>
      </trkpt>
      <trkpt lat="48.35759" lon="-3.7252">
        <ele>133.80000305176</ele>
        <time>2021-09-12T06:20:43Z</time>
      </trkpt>
      <trkpt lat="48.35756" lon="-3.72519">
        <ele>133.80000305176</ele>
        <time>2021-09-12T06:20:44Z</time>
      </trkpt>
      <trkpt lat="48.35754" lon="-3.72517">
        <ele>133.80000305176</ele>
        <time>2021-09-12T06:20:45Z</time>
      </trkpt>
      <trkpt lat="48.35751" lon="-3.72515">
        <ele>133.80000305176</ele>
        <time>2021-09-12T06:20:46Z</time>
      </trkpt>
      <trkpt lat="48.35748" lon="-3.72512">
        <ele>133.80000305176</ele>
        <time>2021-09-12T06:20:47Z</time>
      </trkpt>
      <trkpt lat="48.35746" lon="-3.72509">
        <ele>133.80000305176</ele>
        <time>2021-09-12T06:20:48Z</time>
      </trkpt>
      <trkpt lat="48.35743" lon="-3.72506">
        <ele>133.60000610352</ele>
        <time>2021-09-12T06:20:49Z</time>
      </trkpt>
      <trkpt lat="48.35741" lon="-3.72503">
        <ele>133.60000610352</ele>
        <time>2021-09-12T06:20:50Z</time>
      </trkpt>
      <trkpt lat="48.35738" lon="-3.725">
        <ele>133.60000610352</ele>
        <time>2021-09-12T06:20:51Z</time>
      </trkpt>
      <trkpt lat="48.35735" lon="-3.72497">
        <ele>133.60000610352</ele>
        <time>2021-09-12T06:20:52Z</time>
      </trkpt>
      <trkpt lat="48.35733" lon="-3.72494">
        <ele>133.60000610352</ele>
        <time>2021-09-12T06:20:53Z</time>
      </trkpt>
      <trkpt lat="48.3573" lon="-3.72492">
        <ele>133.39999389648</ele>
        <time>2021-09-12T06:20:54Z</time>
      </trkpt>
      <trkpt lat="48.35728" lon="-3.72491">
        <ele>133.39999389648</ele>
        <time>2021-09-12T06:20:55Z</time>
      </trkpt>
      <trkpt lat="48.35725" lon="-3.72491">
        <ele>133.39999389648</ele>
        <time>2021-09-12T06:20:56Z</time>
      </trkpt>
      <trkpt lat="48.35723" lon="-3.72491">
        <ele>133.39999389648</ele>
        <time>2021-09-12T06:20:57Z</time>
      </trkpt>
      <trkpt lat="48.35721" lon="-3.72491">
        <ele>133.39999389648</ele>
        <time>2021-09-12T06:20:58Z</time>
      </trkpt>
      <trkpt lat="48.3572" lon="-3.7249">
        <ele>133.39999389648</ele>
        <time>2021-09-12T06:20:59Z</time>
      </trkpt>
      <trkpt lat="48.35718" lon="-3.72491">
        <ele>133.39999389648</ele>
        <time>2021-09-12T06:21:00Z</time>
      </trkpt>
      <trkpt lat="48.35715" lon="-3.72492">
        <ele>133.39999389648</ele>
        <time>2021-09-12T06:21:01Z</time>
      </trkpt>
      <trkpt lat="48.35712" lon="-3.72493">
        <ele>133.39999389648</ele>
        <time>2021-09-12T06:21:02Z</time>
      </trkpt>
      <trkpt lat="48.3571" lon="-3.72494">
        <ele>133.39999389648</ele>
        <time>2021-09-12T06:21:03Z</time>
      </trkpt>
      <trkpt lat="48.35708" lon="-3.72495">
        <ele>133.39999389648</ele>
        <time>2021-09-12T06:21:04Z</time>
      </trkpt>
      <trkpt lat="48.35706" lon="-3.72496">
        <ele>133.39999389648</ele>
        <time>2021-09-12T06:21:05Z</time>
      </trkpt>
      <trkpt lat="48.35705" lon="-3.72496">
        <ele>133.39999389648</ele>
        <time>2021-09-12T06:21:06Z</time>
      </trkpt>
      <trkpt lat="48.35702" lon="-3.72498">
        <ele>133.39999389648</ele>
        <time>2021-09-12T06:21:07Z</time>
      </trkpt>
      <trkpt lat="48.35698" lon="-3.72501">
        <ele>133.39999389648</ele>
        <time>2021-09-12T06:21:08Z</time>
      </trkpt>
      <trkpt lat="48.35695" lon="-3.72502">
        <ele>133.39999389648</ele>
        <time>2021-09-12T06:21:09Z</time>
      </trkpt>
      <trkpt lat="48.35693" lon="-3.72504">
        <ele>133.39999389648</ele>
        <time>2021-09-12T06:21:10Z</time>
      </trkpt>
      <trkpt lat="48.35691" lon="-3.72506">
        <ele>133.39999389648</ele>
        <time>2021-09-12T06:21:11Z</time>
      </trkpt>
      <trkpt lat="48.35688" lon="-3.72508">
        <ele>133.39999389648</ele>
        <time>2021-09-12T06:21:12Z</time>
      </trkpt>
      <trkpt lat="48.35686" lon="-3.72511">
        <ele>133.60000610352</ele>
        <time>2021-09-12T06:21:13Z</time>
      </trkpt>
      <trkpt lat="48.35684" lon="-3.72513">
        <ele>133.60000610352</ele>
        <time>2021-09-12T06:21:14Z</time>
      </trkpt>
      <trkpt lat="48.35683" lon="-3.72515">
        <ele>133.60000610352</ele>
        <time>2021-09-12T06:21:15Z</time>
      </trkpt>
      <trkpt lat="48.35681" lon="-3.72518">
        <ele>133.39999389648</ele>
        <time>2021-09-12T06:21:16Z</time>
      </trkpt>
      <trkpt lat="48.3568" lon="-3.72519">
        <ele>133.39999389648</ele>
        <time>2021-09-12T06:21:17Z</time>
      </trkpt>
      <trkpt lat="48.3568" lon="-3.72521">
        <ele>133.39999389648</ele>
        <time>2021-09-12T06:21:18Z</time>
      </trkpt>
      <trkpt lat="48.3568" lon="-3.72522">
        <ele>133</ele>
        <time>2021-09-12T06:21:19Z</time>
      </trkpt>
      <trkpt lat="48.35681" lon="-3.72523">
        <ele>132.80000305176</ele>
        <time>2021-09-12T06:21:20Z</time>
      </trkpt>
      <trkpt lat="48.35681" lon="-3.72523">
        <ele>132.80000305176</ele>
        <time>2021-09-12T06:21:21Z</time>
      </trkpt>
      <trkpt lat="48.35681" lon="-3.72523">
        <ele>132.80000305176</ele>
        <time>2021-09-12T06:21:22Z</time>
      </trkpt>
      <trkpt lat="48.35681" lon="-3.72523">
        <ele>132.80000305176</ele>
        <time>2021-09-12T06:21:23Z</time>
      </trkpt>
      <trkpt lat="48.3568" lon="-3.72523">
        <ele>132.80000305176</ele>
        <time>2021-09-12T06:21:24Z</time>
      </trkpt>
      <trkpt lat="48.35673" lon="-3.72526">
        <ele>133.39999389648</ele>
        <time>2021-09-12T06:21:37Z</time>
      </trkpt>
      <trkpt lat="48.35673" lon="-3.72526">
        <ele>133.19999694824</ele>
        <time>2021-09-12T06:21:38Z</time>
      </trkpt>
      <trkpt lat="48.35673" lon="-3.72526">
        <ele>133.19999694824</ele>
        <time>2021-09-12T06:21:39Z</time>
      </trkpt>
      <trkpt lat="48.35671" lon="-3.72526">
        <ele>132.80000305176</ele>
        <time>2021-09-12T06:21:40Z</time>
      </trkpt>
      <trkpt lat="48.35669" lon="-3.72524">
        <ele>132.60000610352</ele>
        <time>2021-09-12T06:21:41Z</time>
      </trkpt>
      <trkpt lat="48.35667" lon="-3.7252">
        <ele>132</ele>
        <time>2021-09-12T06:21:42Z</time>
      </trkpt>
      <trkpt lat="48.35663" lon="-3.72517">
        <ele>130.60000610352</ele>
        <time>2021-09-12T06:21:43Z</time>
      </trkpt>
      <trkpt lat="48.35658" lon="-3.72515">
        <ele>129</ele>
        <time>2021-09-12T06:21:44Z</time>
      </trkpt>
      <trkpt lat="48.35654" lon="-3.72512">
        <ele>127.40000152588</ele>
        <time>2021-09-12T06:21:45Z</time>
      </trkpt>
      <trkpt lat="48.35649" lon="-3.72508">
        <ele>126.19999694824</ele>
        <time>2021-09-12T06:21:46Z</time>
      </trkpt>
      <trkpt lat="48.35647" lon="-3.72503">
        <ele>125.19999694824</ele>
        <time>2021-09-12T06:21:47Z</time>
      </trkpt>
      <trkpt lat="48.35644" lon="-3.72498">
        <ele>124</ele>
        <time>2021-09-12T06:21:48Z</time>
      </trkpt>
      <trkpt lat="48.35643" lon="-3.72493">
        <ele>123</ele>
        <time>2021-09-12T06:21:49Z</time>
      </trkpt>
      <trkpt lat="48.35643" lon="-3.72488">
        <ele>122.19999694824</ele>
        <time>2021-09-12T06:21:50Z</time>
      </trkpt>
      <trkpt lat="48.35643" lon="-3.72481">
        <ele>121</ele>
        <time>2021-09-12T06:21:51Z</time>
      </trkpt>
      <trkpt lat="48.35643" lon="-3.72474">
        <ele>120.19999694824</ele>
        <time>2021-09-12T06:21:52Z</time>
      </trkpt>
      <trkpt lat="48.35644" lon="-3.72466">
        <ele>119</ele>
        <time>2021-09-12T06:21:53Z</time>
      </trkpt>
      <trkpt lat="48.35645" lon="-3.72459">
        <ele>118.19999694824</ele>
        <time>2021-09-12T06:21:54Z</time>
      </trkpt>
      <trkpt lat="48.35647" lon="-3.72453">
        <ele>116.59999847412</ele>
        <time>2021-09-12T06:21:55Z</time>
      </trkpt>
      <trkpt lat="48.35648" lon="-3.72446">
        <ele>116.19999694824</ele>
        <time>2021-09-12T06:21:56Z</time>
      </trkpt>
      <trkpt lat="48.35649" lon="-3.7244">
        <ele>115.19999694824</ele>
        <time>2021-09-12T06:21:57Z</time>
      </trkpt>
      <trkpt lat="48.35648" lon="-3.72435">
        <ele>115</ele>
        <time>2021-09-12T06:21:58Z</time>
      </trkpt>
      <trkpt lat="48.35646" lon="-3.7243">
        <ele>114</ele>
        <time>2021-09-12T06:21:59Z</time>
      </trkpt>
      <trkpt lat="48.35643" lon="-3.72422">
        <ele>113.40000152588</ele>
        <time>2021-09-12T06:22:00Z</time>
      </trkpt>
      <trkpt lat="48.35641" lon="-3.72411">
        <ele>113</ele>
        <time>2021-09-12T06:22:01Z</time>
      </trkpt>
      <trkpt lat="48.35641" lon="-3.72404">
        <ele>112.80000305176</ele>
        <time>2021-09-12T06:22:02Z</time>
      </trkpt>
      <trkpt lat="48.35642" lon="-3.724">
        <ele>112.59999847412</ele>
        <time>2021-09-12T06:22:03Z</time>
      </trkpt>
      <trkpt lat="48.35643" lon="-3.72396">
        <ele>112</ele>
        <time>2021-09-12T06:22:04Z</time>
      </trkpt>
      <trkpt lat="48.35646" lon="-3.72392">
        <ele>112</ele>
        <time>2021-09-12T06:22:05Z</time>
      </trkpt>
      <trkpt lat="48.35648" lon="-3.7239">
        <ele>112.59999847412</ele>
        <time>2021-09-12T06:22:06Z</time>
      </trkpt>
      <trkpt lat="48.3565" lon="-3.72389">
        <ele>112.59999847412</ele>
        <time>2021-09-12T06:22:07Z</time>
      </trkpt>
      <trkpt lat="48.35653" lon="-3.72387">
        <ele>112</ele>
        <time>2021-09-12T06:22:08Z</time>
      </trkpt>
      <trkpt lat="48.35657" lon="-3.72384">
        <ele>111.80000305176</ele>
        <time>2021-09-12T06:22:09Z</time>
      </trkpt>
      <trkpt lat="48.35661" lon="-3.72382">
        <ele>111.59999847412</ele>
        <time>2021-09-12T06:22:10Z</time>
      </trkpt>
      <trkpt lat="48.35666" lon="-3.72381">
        <ele>111.40000152588</ele>
        <time>2021-09-12T06:22:11Z</time>
      </trkpt>
      <trkpt lat="48.35671" lon="-3.72378">
        <ele>110.80000305176</ele>
        <time>2021-09-12T06:22:12Z</time>
      </trkpt>
      <trkpt lat="48.35676" lon="-3.72374">
        <ele>110.40000152588</ele>
        <time>2021-09-12T06:22:13Z</time>
      </trkpt>
      <trkpt lat="48.3568" lon="-3.72369">
        <ele>109.59999847412</ele>
        <time>2021-09-12T06:22:14Z</time>
      </trkpt>
      <trkpt lat="48.35682" lon="-3.72362">
        <ele>109.59999847412</ele>
        <time>2021-09-12T06:22:15Z</time>
      </trkpt>
      <trkpt lat="48.35684" lon="-3.72354">
        <ele>109.59999847412</ele>
        <time>2021-09-12T06:22:16Z</time>
      </trkpt>
      <trkpt lat="48.35684" lon="-3.72346">
        <ele>109.19999694824</ele>
        <time>2021-09-12T06:22:17Z</time>
      </trkpt>
      <trkpt lat="48.35685" lon="-3.72337">
        <ele>108.80000305176</ele>
        <time>2021-09-12T06:22:18Z</time>
      </trkpt>
      <trkpt lat="48.35687" lon="-3.72329">
        <ele>108.59999847412</ele>
        <time>2021-09-12T06:22:19Z</time>
      </trkpt>
      <trkpt lat="48.3569" lon="-3.72323">
        <ele>108.19999694824</ele>
        <time>2021-09-12T06:22:20Z</time>
      </trkpt>
      <trkpt lat="48.35694" lon="-3.72319">
        <ele>108.19999694824</ele>
        <time>2021-09-12T06:22:21Z</time>
      </trkpt>
      <trkpt lat="48.35698" lon="-3.72315">
        <ele>108.19999694824</ele>
        <time>2021-09-12T06:22:22Z</time>
      </trkpt>
      <trkpt lat="48.35703" lon="-3.72312">
        <ele>108.19999694824</ele>
        <time>2021-09-12T06:22:23Z</time>
      </trkpt>
      <trkpt lat="48.35707" lon="-3.72308">
        <ele>108</ele>
        <time>2021-09-12T06:22:24Z</time>
      </trkpt>
      <trkpt lat="48.35713" lon="-3.72303">
        <ele>107.80000305176</ele>
        <time>2021-09-12T06:22:25Z</time>
      </trkpt>
      <trkpt lat="48.35718" lon="-3.72298">
        <ele>107.59999847412</ele>
        <time>2021-09-12T06:22:26Z</time>
      </trkpt>
      <trkpt lat="48.35722" lon="-3.72294">
        <ele>107.19999694824</ele>
        <time>2021-09-12T06:22:27Z</time>
      </trkpt>
      <trkpt lat="48.35726" lon="-3.72289">
        <ele>107</ele>
        <time>2021-09-12T06:22:28Z</time>
      </trkpt>
      <trkpt lat="48.35732" lon="-3.72284">
        <ele>107</ele>
        <time>2021-09-12T06:22:29Z</time>
      </trkpt>
      <trkpt lat="48.35738" lon="-3.72278">
        <ele>107</ele>
        <time>2021-09-12T06:22:30Z</time>
      </trkpt>
      <trkpt lat="48.35743" lon="-3.72273">
        <ele>107</ele>
        <time>2021-09-12T06:22:31Z</time>
      </trkpt>
      <trkpt lat="48.35747" lon="-3.72268">
        <ele>107</ele>
        <time>2021-09-12T06:22:32Z</time>
      </trkpt>
      <trkpt lat="48.35751" lon="-3.72264">
        <ele>107</ele>
        <time>2021-09-12T06:22:33Z</time>
      </trkpt>
      <trkpt lat="48.35757" lon="-3.72259">
        <ele>107</ele>
        <time>2021-09-12T06:22:34Z</time>
      </trkpt>
      <trkpt lat="48.35762" lon="-3.72255">
        <ele>107.19999694824</ele>
        <time>2021-09-12T06:22:35Z</time>
      </trkpt>
      <trkpt lat="48.35766" lon="-3.7225">
        <ele>107.40000152588</ele>
        <time>2021-09-12T06:22:36Z</time>
      </trkpt>
      <trkpt lat="48.3577" lon="-3.72246">
        <ele>107.59999847412</ele>
        <time>2021-09-12T06:22:37Z</time>
      </trkpt>
      <trkpt lat="48.35774" lon="-3.72243">
        <ele>107.80000305176</ele>
        <time>2021-09-12T06:22:38Z</time>
      </trkpt>
      <trkpt lat="48.35777" lon="-3.72239">
        <ele>108.40000152588</ele>
        <time>2021-09-12T06:22:39Z</time>
      </trkpt>
      <trkpt lat="48.35779" lon="-3.72233">
        <ele>108.59999847412</ele>
        <time>2021-09-12T06:22:40Z</time>
      </trkpt>
      <trkpt lat="48.3578" lon="-3.72229">
        <ele>109</ele>
        <time>2021-09-12T06:22:41Z</time>
      </trkpt>
      <trkpt lat="48.35779" lon="-3.72225">
        <ele>109.19999694824</ele>
        <time>2021-09-12T06:22:42Z</time>
      </trkpt>
      <trkpt lat="48.35779" lon="-3.72223">
        <ele>109.40000152588</ele>
        <time>2021-09-12T06:22:43Z</time>
      </trkpt>
      <trkpt lat="48.35777" lon="-3.7222">
        <ele>110.19999694824</ele>
        <time>2021-09-12T06:22:44Z</time>
      </trkpt>
      <trkpt lat="48.35775" lon="-3.72219">
        <ele>110.19999694824</ele>
        <time>2021-09-12T06:22:45Z</time>
      </trkpt>
      <trkpt lat="48.35773" lon="-3.72218">
        <ele>111</ele>
        <time>2021-09-12T06:22:46Z</time>
      </trkpt>
      <trkpt lat="48.35771" lon="-3.72217">
        <ele>111.19999694824</ele>
        <time>2021-09-12T06:22:47Z</time>
      </trkpt>
      <trkpt lat="48.35769" lon="-3.72216">
        <ele>111.19999694824</ele>
        <time>2021-09-12T06:22:48Z</time>
      </trkpt>
      <trkpt lat="48.35767" lon="-3.72216">
        <ele>111.40000152588</ele>
        <time>2021-09-12T06:22:49Z</time>
      </trkpt>
      <trkpt lat="48.35765" lon="-3.72216">
        <ele>111.80000305176</ele>
        <time>2021-09-12T06:22:50Z</time>
      </trkpt>
      <trkpt lat="48.35763" lon="-3.72216">
        <ele>112.19999694824</ele>
        <time>2021-09-12T06:22:51Z</time>
      </trkpt>
      <trkpt lat="48.35761" lon="-3.72217">
        <ele>112.19999694824</ele>
        <time>2021-09-12T06:22:52Z</time>
      </trkpt>
      <trkpt lat="48.3576" lon="-3.72217">
        <ele>112.59999847412</ele>
        <time>2021-09-12T06:22:53Z</time>
      </trkpt>
      <trkpt lat="48.35758" lon="-3.72217">
        <ele>113</ele>
        <time>2021-09-12T06:22:54Z</time>
      </trkpt>
      <trkpt lat="48.35756" lon="-3.72217">
        <ele>113.19999694824</ele>
        <time>2021-09-12T06:22:55Z</time>
      </trkpt>
      <trkpt lat="48.35754" lon="-3.72218">
        <ele>113.80000305176</ele>
        <time>2021-09-12T06:22:56Z</time>
      </trkpt>
      <trkpt lat="48.35752" lon="-3.72218">
        <ele>113.80000305176</ele>
        <time>2021-09-12T06:22:57Z</time>
      </trkpt>
      <trkpt lat="48.35751" lon="-3.72219">
        <ele>114</ele>
        <time>2021-09-12T06:22:58Z</time>
      </trkpt>
      <trkpt lat="48.35749" lon="-3.72219">
        <ele>114.40000152588</ele>
        <time>2021-09-12T06:22:59Z</time>
      </trkpt>
      <trkpt lat="48.35747" lon="-3.72219">
        <ele>115</ele>
        <time>2021-09-12T06:23:00Z</time>
      </trkpt>
      <trkpt lat="48.35746" lon="-3.7222">
        <ele>115.59999847412</ele>
        <time>2021-09-12T06:23:01Z</time>
      </trkpt>
      <trkpt lat="48.35744" lon="-3.72221">
        <ele>115.80000305176</ele>
        <time>2021-09-12T06:23:02Z</time>
      </trkpt>
      <trkpt lat="48.35743" lon="-3.72222">
        <ele>116</ele>
        <time>2021-09-12T06:23:03Z</time>
      </trkpt>
      <trkpt lat="48.3574" lon="-3.72224">
        <ele>116.40000152588</ele>
        <time>2021-09-12T06:23:04Z</time>
      </trkpt>
      <trkpt lat="48.35737" lon="-3.72226">
        <ele>116.80000305176</ele>
        <time>2021-09-12T06:23:05Z</time>
      </trkpt>
      <trkpt lat="48.35735" lon="-3.72227">
        <ele>116.80000305176</ele>
        <time>2021-09-12T06:23:06Z</time>
      </trkpt>
      <trkpt lat="48.35732" lon="-3.72229">
        <ele>117</ele>
        <time>2021-09-12T06:23:07Z</time>
      </trkpt>
      <trkpt lat="48.35729" lon="-3.7223">
        <ele>117</ele>
        <time>2021-09-12T06:23:08Z</time>
      </trkpt>
      <trkpt lat="48.35727" lon="-3.72231">
        <ele>117.19999694824</ele>
        <time>2021-09-12T06:23:09Z</time>
      </trkpt>
      <trkpt lat="48.35725" lon="-3.72232">
        <ele>117.59999847412</ele>
        <time>2021-09-12T06:23:10Z</time>
      </trkpt>
      <trkpt lat="48.35724" lon="-3.72233">
        <ele>117.80000305176</ele>
        <time>2021-09-12T06:23:11Z</time>
      </trkpt>
      <trkpt lat="48.35723" lon="-3.72235">
        <ele>118</ele>
        <time>2021-09-12T06:23:12Z</time>
      </trkpt>
      <trkpt lat="48.3572" lon="-3.72237">
        <ele>118.19999694824</ele>
        <time>2021-09-12T06:23:13Z</time>
      </trkpt>
      <trkpt lat="48.35717" lon="-3.72239">
        <ele>118.80000305176</ele>
        <time>2021-09-12T06:23:14Z</time>
      </trkpt>
      <trkpt lat="48.35715" lon="-3.7224">
        <ele>119</ele>
        <time>2021-09-12T06:23:15Z</time>
      </trkpt>
      <trkpt lat="48.35713" lon="-3.72242">
        <ele>119</ele>
        <time>2021-09-12T06:23:16Z</time>
      </trkpt>
      <trkpt lat="48.35711" lon="-3.72244">
        <ele>119.59999847412</ele>
        <time>2021-09-12T06:23:17Z</time>
      </trkpt>
      <trkpt lat="48.35708" lon="-3.72245">
        <ele>120</ele>
        <time>2021-09-12T06:23:18Z</time>
      </trkpt>
      <trkpt lat="48.35706" lon="-3.72243">
        <ele>120</ele>
        <time>2021-09-12T06:23:19Z</time>
      </trkpt>
      <trkpt lat="48.35703" lon="-3.72243">
        <ele>120.40000152588</ele>
        <time>2021-09-12T06:23:20Z</time>
      </trkpt>
      <trkpt lat="48.357" lon="-3.72243">
        <ele>120.59999847412</ele>
        <time>2021-09-12T06:23:21Z</time>
      </trkpt>
      <trkpt lat="48.35698" lon="-3.72242">
        <ele>120.59999847412</ele>
        <time>2021-09-12T06:23:22Z</time>
      </trkpt>
      <trkpt lat="48.35695" lon="-3.72242">
        <ele>121</ele>
        <time>2021-09-12T06:23:23Z</time>
      </trkpt>
      <trkpt lat="48.35693" lon="-3.72241">
        <ele>121</ele>
        <time>2021-09-12T06:23:24Z</time>
      </trkpt>
      <trkpt lat="48.35691" lon="-3.72241">
        <ele>121.59999847412</ele>
        <time>2021-09-12T06:23:25Z</time>
      </trkpt>
      <trkpt lat="48.35689" lon="-3.7224">
        <ele>121.80000305176</ele>
        <time>2021-09-12T06:23:26Z</time>
      </trkpt>
      <trkpt lat="48.35688" lon="-3.7224">
        <ele>121.80000305176</ele>
        <time>2021-09-12T06:23:27Z</time>
      </trkpt>
      <trkpt lat="48.35687" lon="-3.72241">
        <ele>122.19999694824</ele>
        <time>2021-09-12T06:23:28Z</time>
      </trkpt>
      <trkpt lat="48.35684" lon="-3.72242">
        <ele>122.40000152588</ele>
        <time>2021-09-12T06:23:29Z</time>
      </trkpt>
      <trkpt lat="48.35682" lon="-3.72242">
        <ele>122.59999847412</ele>
        <time>2021-09-12T06:23:30Z</time>
      </trkpt>
      <trkpt lat="48.3568" lon="-3.72242">
        <ele>123</ele>
        <time>2021-09-12T06:23:31Z</time>
      </trkpt>
      <trkpt lat="48.35678" lon="-3.72242">
        <ele>123</ele>
        <time>2021-09-12T06:23:32Z</time>
      </trkpt>
      <trkpt lat="48.35677" lon="-3.72242">
        <ele>123.40000152588</ele>
        <time>2021-09-12T06:23:33Z</time>
      </trkpt>
      <trkpt lat="48.35675" lon="-3.72242">
        <ele>123.59999847412</ele>
        <time>2021-09-12T06:23:34Z</time>
      </trkpt>
      <trkpt lat="48.35673" lon="-3.72242">
        <ele>123.80000305176</ele>
        <time>2021-09-12T06:23:35Z</time>
      </trkpt>
      <trkpt lat="48.35671" lon="-3.72242">
        <ele>124.19999694824</ele>
        <time>2021-09-12T06:23:36Z</time>
      </trkpt>
      <trkpt lat="48.3567" lon="-3.72241">
        <ele>124.40000152588</ele>
        <time>2021-09-12T06:23:37Z</time>
      </trkpt>
      <trkpt lat="48.35668" lon="-3.72241">
        <ele>124.59999847412</ele>
        <time>2021-09-12T06:23:38Z</time>
      </trkpt>
      <trkpt lat="48.35666" lon="-3.72241">
        <ele>124.59999847412</ele>
        <time>2021-09-12T06:23:39Z</time>
      </trkpt>
      <trkpt lat="48.35664" lon="-3.7224">
        <ele>125.19999694824</ele>
        <time>2021-09-12T06:23:40Z</time>
      </trkpt>
      <trkpt lat="48.35662" lon="-3.72239">
        <ele>125.19999694824</ele>
        <time>2021-09-12T06:23:41Z</time>
      </trkpt>
      <trkpt lat="48.35661" lon="-3.72238">
        <ele>125.19999694824</ele>
        <time>2021-09-12T06:23:42Z</time>
      </trkpt>
      <trkpt lat="48.35659" lon="-3.72237">
        <ele>125.59999847412</ele>
        <time>2021-09-12T06:23:43Z</time>
      </trkpt>
      <trkpt lat="48.35659" lon="-3.72235">
        <ele>126.19999694824</ele>
        <time>2021-09-12T06:23:44Z</time>
      </trkpt>
      <trkpt lat="48.35659" lon="-3.72233">
        <ele>126.40000152588</ele>
        <time>2021-09-12T06:23:45Z</time>
      </trkpt>
      <trkpt lat="48.35659" lon="-3.72231">
        <ele>127</ele>
        <time>2021-09-12T06:23:46Z</time>
      </trkpt>
      <trkpt lat="48.3566" lon="-3.7223">
        <ele>127</ele>
        <time>2021-09-12T06:23:47Z</time>
      </trkpt>
      <trkpt lat="48.35662" lon="-3.72229">
        <ele>127</ele>
        <time>2021-09-12T06:23:48Z</time>
      </trkpt>
      <trkpt lat="48.35663" lon="-3.72228">
        <ele>127.40000152588</ele>
        <time>2021-09-12T06:23:49Z</time>
      </trkpt>
      <trkpt lat="48.35664" lon="-3.72227">
        <ele>127.59999847412</ele>
        <time>2021-09-12T06:23:50Z</time>
      </trkpt>
      <trkpt lat="48.35665" lon="-3.72225">
        <ele>127.80000305176</ele>
        <time>2021-09-12T06:23:51Z</time>
      </trkpt>
      <trkpt lat="48.35664" lon="-3.72223">
        <ele>128.19999694824</ele>
        <time>2021-09-12T06:23:52Z</time>
      </trkpt>
      <trkpt lat="48.35663" lon="-3.72221">
        <ele>128.39999389648</ele>
        <time>2021-09-12T06:23:53Z</time>
      </trkpt>
      <trkpt lat="48.35662" lon="-3.7222">
        <ele>128.80000305176</ele>
        <time>2021-09-12T06:23:54Z</time>
      </trkpt>
      <trkpt lat="48.3566" lon="-3.72218">
        <ele>129</ele>
        <time>2021-09-12T06:23:55Z</time>
      </trkpt>
      <trkpt lat="48.35659" lon="-3.72216">
        <ele>129.19999694824</ele>
        <time>2021-09-12T06:23:56Z</time>
      </trkpt>
      <trkpt lat="48.35658" lon="-3.72216">
        <ele>129.60000610352</ele>
        <time>2021-09-12T06:23:57Z</time>
      </trkpt>
      <trkpt lat="48.35656" lon="-3.72215">
        <ele>129.60000610352</ele>
        <time>2021-09-12T06:23:58Z</time>
      </trkpt>
      <trkpt lat="48.35655" lon="-3.72215">
        <ele>130.39999389648</ele>
        <time>2021-09-12T06:23:59Z</time>
      </trkpt>
      <trkpt lat="48.35653" lon="-3.72213">
        <ele>130.60000610352</ele>
        <time>2021-09-12T06:24:00Z</time>
      </trkpt>
      <trkpt lat="48.35652" lon="-3.72212">
        <ele>130.80000305176</ele>
        <time>2021-09-12T06:24:01Z</time>
      </trkpt>
      <trkpt lat="48.35651" lon="-3.72209">
        <ele>131</ele>
        <time>2021-09-12T06:24:02Z</time>
      </trkpt>
      <trkpt lat="48.3565" lon="-3.72208">
        <ele>131.39999389648</ele>
        <time>2021-09-12T06:24:03Z</time>
      </trkpt>
      <trkpt lat="48.35649" lon="-3.72207">
        <ele>131.60000610352</ele>
        <time>2021-09-12T06:24:04Z</time>
      </trkpt>
      <trkpt lat="48.35648" lon="-3.72206">
        <ele>132</ele>
        <time>2021-09-12T06:24:05Z</time>
      </trkpt>
      <trkpt lat="48.35647" lon="-3.72205">
        <ele>132</ele>
        <time>2021-09-12T06:24:06Z</time>
      </trkpt>
      <trkpt lat="48.35648" lon="-3.722">
        <ele>132.19999694824</ele>
        <time>2021-09-12T06:24:07Z</time>
      </trkpt>
      <trkpt lat="48.35647" lon="-3.72198">
        <ele>132.60000610352</ele>
        <time>2021-09-12T06:24:08Z</time>
      </trkpt>
      <trkpt lat="48.35645" lon="-3.72196">
        <ele>132.80000305176</ele>
        <time>2021-09-12T06:24:09Z</time>
      </trkpt>
      <trkpt lat="48.35644" lon="-3.72195">
        <ele>133.19999694824</ele>
        <time>2021-09-12T06:24:10Z</time>
      </trkpt>
      <trkpt lat="48.35643" lon="-3.72195">
        <ele>133.60000610352</ele>
        <time>2021-09-12T06:24:11Z</time>
      </trkpt>
      <trkpt lat="48.35642" lon="-3.72194">
        <ele>133.60000610352</ele>
        <time>2021-09-12T06:24:12Z</time>
      </trkpt>
      <trkpt lat="48.35641" lon="-3.72193">
        <ele>134</ele>
        <time>2021-09-12T06:24:13Z</time>
      </trkpt>
      <trkpt lat="48.3564" lon="-3.72191">
        <ele>134</ele>
        <time>2021-09-12T06:24:14Z</time>
      </trkpt>
      <trkpt lat="48.35639" lon="-3.7219">
        <ele>134.60000610352</ele>
        <time>2021-09-12T06:24:15Z</time>
      </trkpt>
      <trkpt lat="48.35638" lon="-3.72188">
        <ele>134.60000610352</ele>
        <time>2021-09-12T06:24:16Z</time>
      </trkpt>
      <trkpt lat="48.35638" lon="-3.72186">
        <ele>135.19999694824</ele>
        <time>2021-09-12T06:24:17Z</time>
      </trkpt>
      <trkpt lat="48.35637" lon="-3.72184">
        <ele>135.19999694824</ele>
        <time>2021-09-12T06:24:18Z</time>
      </trkpt>
      <trkpt lat="48.35636" lon="-3.72182">
        <ele>135.60000610352</ele>
        <time>2021-09-12T06:24:19Z</time>
      </trkpt>
      <trkpt lat="48.35635" lon="-3.72181">
        <ele>135.60000610352</ele>
        <time>2021-09-12T06:24:20Z</time>
      </trkpt>
      <trkpt lat="48.35634" lon="-3.72179">
        <ele>136</ele>
        <time>2021-09-12T06:24:21Z</time>
      </trkpt>
      <trkpt lat="48.35634" lon="-3.72178">
        <ele>136.39999389648</ele>
        <time>2021-09-12T06:24:22Z</time>
      </trkpt>
      <trkpt lat="48.35634" lon="-3.72177">
        <ele>136.60000610352</ele>
        <time>2021-09-12T06:24:23Z</time>
      </trkpt>
      <trkpt lat="48.35634" lon="-3.72177">
        <ele>136.60000610352</ele>
        <time>2021-09-12T06:24:24Z</time>
      </trkpt>
      <trkpt lat="48.35633" lon="-3.72176">
        <ele>137</ele>
        <time>2021-09-12T06:24:25Z</time>
      </trkpt>
      <trkpt lat="48.35632" lon="-3.72175">
        <ele>137.39999389648</ele>
        <time>2021-09-12T06:24:26Z</time>
      </trkpt>
      <trkpt lat="48.3563" lon="-3.72173">
        <ele>137.80000305176</ele>
        <time>2021-09-12T06:24:27Z</time>
      </trkpt>
      <trkpt lat="48.35629" lon="-3.72171">
        <ele>137.80000305176</ele>
        <time>2021-09-12T06:24:28Z</time>
      </trkpt>
      <trkpt lat="48.35627" lon="-3.7217">
        <ele>138</ele>
        <time>2021-09-12T06:24:29Z</time>
      </trkpt>
      <trkpt lat="48.35625" lon="-3.72169">
        <ele>138.39999389648</ele>
        <time>2021-09-12T06:24:30Z</time>
      </trkpt>
      <trkpt lat="48.35624" lon="-3.72168">
        <ele>138.80000305176</ele>
        <time>2021-09-12T06:24:31Z</time>
      </trkpt>
      <trkpt lat="48.35622" lon="-3.72167">
        <ele>139</ele>
        <time>2021-09-12T06:24:32Z</time>
      </trkpt>
      <trkpt lat="48.35621" lon="-3.72166">
        <ele>139.19999694824</ele>
        <time>2021-09-12T06:24:33Z</time>
      </trkpt>
      <trkpt lat="48.35619" lon="-3.72164">
        <ele>139.19999694824</ele>
        <time>2021-09-12T06:24:34Z</time>
      </trkpt>
      <trkpt lat="48.35617" lon="-3.72163">
        <ele>139.39999389648</ele>
        <time>2021-09-12T06:24:35Z</time>
      </trkpt>
      <trkpt lat="48.35615" lon="-3.72162">
        <ele>139.39999389648</ele>
        <time>2021-09-12T06:24:36Z</time>
      </trkpt>
      <trkpt lat="48.35612" lon="-3.7216">
        <ele>139.60000610352</ele>
        <time>2021-09-12T06:24:37Z</time>
      </trkpt>
      <trkpt lat="48.3561" lon="-3.72158">
        <ele>139.60000610352</ele>
        <time>2021-09-12T06:24:38Z</time>
      </trkpt>
      <trkpt lat="48.35608" lon="-3.72156">
        <ele>139.60000610352</ele>
        <time>2021-09-12T06:24:39Z</time>
      </trkpt>
      <trkpt lat="48.35606" lon="-3.72154">
        <ele>139.60000610352</ele>
        <time>2021-09-12T06:24:40Z</time>
      </trkpt>
      <trkpt lat="48.35604" lon="-3.72151">
        <ele>139.80000305176</ele>
        <time>2021-09-12T06:24:41Z</time>
      </trkpt>
      <trkpt lat="48.35601" lon="-3.72149">
        <ele>139.80000305176</ele>
        <time>2021-09-12T06:24:42Z</time>
      </trkpt>
      <trkpt lat="48.35599" lon="-3.72147">
        <ele>139.80000305176</ele>
        <time>2021-09-12T06:24:43Z</time>
      </trkpt>
      <trkpt lat="48.35597" lon="-3.72144">
        <ele>139.80000305176</ele>
        <time>2021-09-12T06:24:44Z</time>
      </trkpt>
      <trkpt lat="48.35595" lon="-3.72141">
        <ele>139.80000305176</ele>
        <time>2021-09-12T06:24:45Z</time>
      </trkpt>
      <trkpt lat="48.35593" lon="-3.72138">
        <ele>139.80000305176</ele>
        <time>2021-09-12T06:24:46Z</time>
      </trkpt>
      <trkpt lat="48.35591" lon="-3.72135">
        <ele>139.80000305176</ele>
        <time>2021-09-12T06:24:47Z</time>
      </trkpt>
      <trkpt lat="48.35588" lon="-3.72132">
        <ele>139.80000305176</ele>
        <time>2021-09-12T06:24:48Z</time>
      </trkpt>
      <trkpt lat="48.35586" lon="-3.72129">
        <ele>139.80000305176</ele>
        <time>2021-09-12T06:24:49Z</time>
      </trkpt>
      <trkpt lat="48.35585" lon="-3.72126">
        <ele>139.80000305176</ele>
        <time>2021-09-12T06:24:50Z</time>
      </trkpt>
      <trkpt lat="48.35583" lon="-3.72123">
        <ele>139.80000305176</ele>
        <time>2021-09-12T06:24:51Z</time>
      </trkpt>
      <trkpt lat="48.35581" lon="-3.7212">
        <ele>139.80000305176</ele>
        <time>2021-09-12T06:24:52Z</time>
      </trkpt>
      <trkpt lat="48.35581" lon="-3.72118">
        <ele>139.80000305176</ele>
        <time>2021-09-12T06:24:53Z</time>
      </trkpt>
      <trkpt lat="48.35579" lon="-3.72116">
        <ele>140</ele>
        <time>2021-09-12T06:24:54Z</time>
      </trkpt>
      <trkpt lat="48.35578" lon="-3.72115">
        <ele>140</ele>
        <time>2021-09-12T06:24:55Z</time>
      </trkpt>
      <trkpt lat="48.35577" lon="-3.72113">
        <ele>140.19999694824</ele>
        <time>2021-09-12T06:24:56Z</time>
      </trkpt>
      <trkpt lat="48.35576" lon="-3.72111">
        <ele>140.19999694824</ele>
        <time>2021-09-12T06:24:57Z</time>
      </trkpt>
      <trkpt lat="48.35576" lon="-3.72109">
        <ele>140.39999389648</ele>
        <time>2021-09-12T06:24:58Z</time>
      </trkpt>
      <trkpt lat="48.35575" lon="-3.72107">
        <ele>140.80000305176</ele>
        <time>2021-09-12T06:24:59Z</time>
      </trkpt>
      <trkpt lat="48.35575" lon="-3.72104">
        <ele>140.80000305176</ele>
        <time>2021-09-12T06:25:00Z</time>
      </trkpt>
      <trkpt lat="48.35576" lon="-3.72103">
        <ele>141</ele>
        <time>2021-09-12T06:25:01Z</time>
      </trkpt>
      <trkpt lat="48.35576" lon="-3.72103">
        <ele>141.19999694824</ele>
        <time>2021-09-12T06:25:02Z</time>
      </trkpt>
      <trkpt lat="48.35577" lon="-3.72103">
        <ele>141.39999389648</ele>
        <time>2021-09-12T06:25:03Z</time>
      </trkpt>
      <trkpt lat="48.35578" lon="-3.72102">
        <ele>141.60000610352</ele>
        <time>2021-09-12T06:25:04Z</time>
      </trkpt>
      <trkpt lat="48.3558" lon="-3.72101">
        <ele>141.60000610352</ele>
        <time>2021-09-12T06:25:05Z</time>
      </trkpt>
      <trkpt lat="48.35581" lon="-3.72101">
        <ele>141.60000610352</ele>
        <time>2021-09-12T06:25:06Z</time>
      </trkpt>
      <trkpt lat="48.35583" lon="-3.721">
        <ele>141.60000610352</ele>
        <time>2021-09-12T06:25:07Z</time>
      </trkpt>
      <trkpt lat="48.35584" lon="-3.72098">
        <ele>141.60000610352</ele>
        <time>2021-09-12T06:25:08Z</time>
      </trkpt>
      <trkpt lat="48.35586" lon="-3.72098">
        <ele>141.60000610352</ele>
        <time>2021-09-12T06:25:09Z</time>
      </trkpt>
      <trkpt lat="48.35587" lon="-3.72097">
        <ele>141.60000610352</ele>
        <time>2021-09-12T06:25:10Z</time>
      </trkpt>
      <trkpt lat="48.35589" lon="-3.72096">
        <ele>141.80000305176</ele>
        <time>2021-09-12T06:25:11Z</time>
      </trkpt>
      <trkpt lat="48.3559" lon="-3.72096">
        <ele>141.80000305176</ele>
        <time>2021-09-12T06:25:12Z</time>
      </trkpt>
      <trkpt lat="48.35592" lon="-3.72097">
        <ele>142.60000610352</ele>
        <time>2021-09-12T06:25:13Z</time>
      </trkpt>
      <trkpt lat="48.35593" lon="-3.72097">
        <ele>142.60000610352</ele>
        <time>2021-09-12T06:25:14Z</time>
      </trkpt>
      <trkpt lat="48.35595" lon="-3.72097">
        <ele>142.60000610352</ele>
        <time>2021-09-12T06:25:15Z</time>
      </trkpt>
      <trkpt lat="48.35596" lon="-3.72098">
        <ele>143.39999389648</ele>
        <time>2021-09-12T06:25:16Z</time>
      </trkpt>
      <trkpt lat="48.35597" lon="-3.72098">
        <ele>143.39999389648</ele>
        <time>2021-09-12T06:25:17Z</time>
      </trkpt>
      <trkpt lat="48.35599" lon="-3.72098">
        <ele>144.39999389648</ele>
        <time>2021-09-12T06:25:18Z</time>
      </trkpt>
      <trkpt lat="48.356" lon="-3.72099">
        <ele>144.80000305176</ele>
        <time>2021-09-12T06:25:19Z</time>
      </trkpt>
      <trkpt lat="48.35601" lon="-3.72099">
        <ele>145</ele>
        <time>2021-09-12T06:25:20Z</time>
      </trkpt>
      <trkpt lat="48.35602" lon="-3.721">
        <ele>145.19999694824</ele>
        <time>2021-09-12T06:25:21Z</time>
      </trkpt>
      <trkpt lat="48.35603" lon="-3.721">
        <ele>145.80000305176</ele>
        <time>2021-09-12T06:25:22Z</time>
      </trkpt>
      <trkpt lat="48.35605" lon="-3.721">
        <ele>146</ele>
        <time>2021-09-12T06:25:23Z</time>
      </trkpt>
      <trkpt lat="48.35606" lon="-3.72101">
        <ele>146.39999389648</ele>
        <time>2021-09-12T06:25:24Z</time>
      </trkpt>
      <trkpt lat="48.35607" lon="-3.72101">
        <ele>146.60000610352</ele>
        <time>2021-09-12T06:25:25Z</time>
      </trkpt>
      <trkpt lat="48.35608" lon="-3.72101">
        <ele>147</ele>
        <time>2021-09-12T06:25:26Z</time>
      </trkpt>
      <trkpt lat="48.35608" lon="-3.72102">
        <ele>147.39999389648</ele>
        <time>2021-09-12T06:25:27Z</time>
      </trkpt>
      <trkpt lat="48.35609" lon="-3.72102">
        <ele>147.80000305176</ele>
        <time>2021-09-12T06:25:28Z</time>
      </trkpt>
      <trkpt lat="48.35611" lon="-3.72102">
        <ele>148</ele>
        <time>2021-09-12T06:25:29Z</time>
      </trkpt>
      <trkpt lat="48.35613" lon="-3.72102">
        <ele>148.19999694824</ele>
        <time>2021-09-12T06:25:30Z</time>
      </trkpt>
      <trkpt lat="48.35614" lon="-3.72102">
        <ele>148.19999694824</ele>
        <time>2021-09-12T06:25:31Z</time>
      </trkpt>
      <trkpt lat="48.35616" lon="-3.72102">
        <ele>148.39999389648</ele>
        <time>2021-09-12T06:25:32Z</time>
      </trkpt>
      <trkpt lat="48.35617" lon="-3.72101">
        <ele>148.60000610352</ele>
        <time>2021-09-12T06:25:33Z</time>
      </trkpt>
      <trkpt lat="48.35618" lon="-3.72101">
        <ele>149</ele>
        <time>2021-09-12T06:25:34Z</time>
      </trkpt>
      <trkpt lat="48.35619" lon="-3.721">
        <ele>149.39999389648</ele>
        <time>2021-09-12T06:25:35Z</time>
      </trkpt>
      <trkpt lat="48.3562" lon="-3.72099">
        <ele>149.60000610352</ele>
        <time>2021-09-12T06:25:36Z</time>
      </trkpt>
      <trkpt lat="48.35621" lon="-3.72098">
        <ele>149.80000305176</ele>
        <time>2021-09-12T06:25:37Z</time>
      </trkpt>
      <trkpt lat="48.35621" lon="-3.72096">
        <ele>150</ele>
        <time>2021-09-12T06:25:38Z</time>
      </trkpt>
      <trkpt lat="48.35622" lon="-3.72094">
        <ele>150.19999694824</ele>
        <time>2021-09-12T06:25:39Z</time>
      </trkpt>
      <trkpt lat="48.35623" lon="-3.72092">
        <ele>150.39999389648</ele>
        <time>2021-09-12T06:25:40Z</time>
      </trkpt>
      <trkpt lat="48.35624" lon="-3.72092">
        <ele>150.60000610352</ele>
        <time>2021-09-12T06:25:41Z</time>
      </trkpt>
      <trkpt lat="48.35626" lon="-3.72091">
        <ele>150.80000305176</ele>
        <time>2021-09-12T06:25:42Z</time>
      </trkpt>
      <trkpt lat="48.35627" lon="-3.7209">
        <ele>151.19999694824</ele>
        <time>2021-09-12T06:25:43Z</time>
      </trkpt>
      <trkpt lat="48.35628" lon="-3.72087">
        <ele>151.60000610352</ele>
        <time>2021-09-12T06:25:44Z</time>
      </trkpt>
      <trkpt lat="48.35629" lon="-3.72084">
        <ele>151.60000610352</ele>
        <time>2021-09-12T06:25:45Z</time>
      </trkpt>
      <trkpt lat="48.35629" lon="-3.72081">
        <ele>151.60000610352</ele>
        <time>2021-09-12T06:25:46Z</time>
      </trkpt>
      <trkpt lat="48.3563" lon="-3.72079">
        <ele>151.80000305176</ele>
        <time>2021-09-12T06:25:47Z</time>
      </trkpt>
      <trkpt lat="48.3563" lon="-3.72077">
        <ele>152.19999694824</ele>
        <time>2021-09-12T06:25:48Z</time>
      </trkpt>
      <trkpt lat="48.35629" lon="-3.72075">
        <ele>152.19999694824</ele>
        <time>2021-09-12T06:25:49Z</time>
      </trkpt>
      <trkpt lat="48.35629" lon="-3.72074">
        <ele>152.60000610352</ele>
        <time>2021-09-12T06:25:50Z</time>
      </trkpt>
      <trkpt lat="48.35628" lon="-3.72074">
        <ele>152.80000305176</ele>
        <time>2021-09-12T06:25:51Z</time>
      </trkpt>
      <trkpt lat="48.35628" lon="-3.72072">
        <ele>153</ele>
        <time>2021-09-12T06:25:52Z</time>
      </trkpt>
      <trkpt lat="48.35628" lon="-3.7207">
        <ele>153.19999694824</ele>
        <time>2021-09-12T06:25:53Z</time>
      </trkpt>
      <trkpt lat="48.35628" lon="-3.72068">
        <ele>153.19999694824</ele>
        <time>2021-09-12T06:25:54Z</time>
      </trkpt>
      <trkpt lat="48.35628" lon="-3.72066">
        <ele>153.80000305176</ele>
        <time>2021-09-12T06:25:55Z</time>
      </trkpt>
      <trkpt lat="48.35629" lon="-3.72064">
        <ele>153.80000305176</ele>
        <time>2021-09-12T06:25:56Z</time>
      </trkpt>
      <trkpt lat="48.35631" lon="-3.72061">
        <ele>154</ele>
        <time>2021-09-12T06:25:57Z</time>
      </trkpt>
      <trkpt lat="48.35631" lon="-3.72059">
        <ele>154.39999389648</ele>
        <time>2021-09-12T06:25:58Z</time>
      </trkpt>
      <trkpt lat="48.3563" lon="-3.72057">
        <ele>154.39999389648</ele>
        <time>2021-09-12T06:25:59Z</time>
      </trkpt>
      <trkpt lat="48.35628" lon="-3.72054">
        <ele>154.80000305176</ele>
        <time>2021-09-12T06:26:00Z</time>
      </trkpt>
      <trkpt lat="48.35627" lon="-3.7205">
        <ele>154.80000305176</ele>
        <time>2021-09-12T06:26:01Z</time>
      </trkpt>
      <trkpt lat="48.35627" lon="-3.72048">
        <ele>155.19999694824</ele>
        <time>2021-09-12T06:26:02Z</time>
      </trkpt>
      <trkpt lat="48.35625" lon="-3.72046">
        <ele>155.39999389648</ele>
        <time>2021-09-12T06:26:03Z</time>
      </trkpt>
      <trkpt lat="48.35624" lon="-3.72044">
        <ele>155.60000610352</ele>
        <time>2021-09-12T06:26:04Z</time>
      </trkpt>
      <trkpt lat="48.35624" lon="-3.72042">
        <ele>155.80000305176</ele>
        <time>2021-09-12T06:26:05Z</time>
      </trkpt>
      <trkpt lat="48.35624" lon="-3.7204">
        <ele>156.19999694824</ele>
        <time>2021-09-12T06:26:06Z</time>
      </trkpt>
      <trkpt lat="48.35623" lon="-3.72038">
        <ele>156.39999389648</ele>
        <time>2021-09-12T06:26:07Z</time>
      </trkpt>
      <trkpt lat="48.35623" lon="-3.72035">
        <ele>156.39999389648</ele>
        <time>2021-09-12T06:26:08Z</time>
      </trkpt>
      <trkpt lat="48.35622" lon="-3.72033">
        <ele>156.60000610352</ele>
        <time>2021-09-12T06:26:09Z</time>
      </trkpt>
      <trkpt lat="48.35621" lon="-3.72032">
        <ele>157</ele>
        <time>2021-09-12T06:26:10Z</time>
      </trkpt>
      <trkpt lat="48.3562" lon="-3.72029">
        <ele>157.19999694824</ele>
        <time>2021-09-12T06:26:11Z</time>
      </trkpt>
      <trkpt lat="48.3562" lon="-3.72027">
        <ele>157.39999389648</ele>
        <time>2021-09-12T06:26:12Z</time>
      </trkpt>
      <trkpt lat="48.3562" lon="-3.72025">
        <ele>157.80000305176</ele>
        <time>2021-09-12T06:26:13Z</time>
      </trkpt>
      <trkpt lat="48.35619" lon="-3.72023">
        <ele>157.80000305176</ele>
        <time>2021-09-12T06:26:14Z</time>
      </trkpt>
      <trkpt lat="48.35618" lon="-3.72022">
        <ele>158</ele>
        <time>2021-09-12T06:26:15Z</time>
      </trkpt>
      <trkpt lat="48.35617" lon="-3.72021">
        <ele>158.19999694824</ele>
        <time>2021-09-12T06:26:16Z</time>
      </trkpt>
      <trkpt lat="48.35617" lon="-3.72019">
        <ele>158.39999389648</ele>
        <time>2021-09-12T06:26:17Z</time>
      </trkpt>
      <trkpt lat="48.35616" lon="-3.72018">
        <ele>158.80000305176</ele>
        <time>2021-09-12T06:26:18Z</time>
      </trkpt>
      <trkpt lat="48.35615" lon="-3.72016">
        <ele>158.80000305176</ele>
        <time>2021-09-12T06:26:19Z</time>
      </trkpt>
      <trkpt lat="48.35613" lon="-3.72014">
        <ele>159</ele>
        <time>2021-09-12T06:26:20Z</time>
      </trkpt>
      <trkpt lat="48.35612" lon="-3.72012">
        <ele>159.39999389648</ele>
        <time>2021-09-12T06:26:21Z</time>
      </trkpt>
      <trkpt lat="48.35611" lon="-3.7201">
        <ele>159.39999389648</ele>
        <time>2021-09-12T06:26:22Z</time>
      </trkpt>
      <trkpt lat="48.3561" lon="-3.72009">
        <ele>159.39999389648</ele>
        <time>2021-09-12T06:26:23Z</time>
      </trkpt>
      <trkpt lat="48.35608" lon="-3.72008">
        <ele>159.80000305176</ele>
        <time>2021-09-12T06:26:24Z</time>
      </trkpt>
      <trkpt lat="48.35606" lon="-3.72007">
        <ele>160</ele>
        <time>2021-09-12T06:26:25Z</time>
      </trkpt>
      <trkpt lat="48.35604" lon="-3.72007">
        <ele>160.19999694824</ele>
        <time>2021-09-12T06:26:26Z</time>
      </trkpt>
      <trkpt lat="48.35603" lon="-3.72007">
        <ele>160.19999694824</ele>
        <time>2021-09-12T06:26:27Z</time>
      </trkpt>
      <trkpt lat="48.35602" lon="-3.72005">
        <ele>160.60000610352</ele>
        <time>2021-09-12T06:26:28Z</time>
      </trkpt>
      <trkpt lat="48.35601" lon="-3.72004">
        <ele>160.80000305176</ele>
        <time>2021-09-12T06:26:29Z</time>
      </trkpt>
      <trkpt lat="48.35599" lon="-3.72003">
        <ele>161.19999694824</ele>
        <time>2021-09-12T06:26:30Z</time>
      </trkpt>
      <trkpt lat="48.35598" lon="-3.72003">
        <ele>161.39999389648</ele>
        <time>2021-09-12T06:26:31Z</time>
      </trkpt>
      <trkpt lat="48.35597" lon="-3.72002">
        <ele>161.39999389648</ele>
        <time>2021-09-12T06:26:32Z</time>
      </trkpt>
      <trkpt lat="48.35595" lon="-3.72">
        <ele>161.60000610352</ele>
        <time>2021-09-12T06:26:33Z</time>
      </trkpt>
      <trkpt lat="48.35593" lon="-3.71999">
        <ele>161.80000305176</ele>
        <time>2021-09-12T06:26:34Z</time>
      </trkpt>
      <trkpt lat="48.35591" lon="-3.71998">
        <ele>161.80000305176</ele>
        <time>2021-09-12T06:26:35Z</time>
      </trkpt>
      <trkpt lat="48.35589" lon="-3.71997">
        <ele>162.19999694824</ele>
        <time>2021-09-12T06:26:36Z</time>
      </trkpt>
      <trkpt lat="48.35587" lon="-3.71996">
        <ele>162.39999389648</ele>
        <time>2021-09-12T06:26:37Z</time>
      </trkpt>
      <trkpt lat="48.35586" lon="-3.71996">
        <ele>162.60000610352</ele>
        <time>2021-09-12T06:26:38Z</time>
      </trkpt>
      <trkpt lat="48.35583" lon="-3.71995">
        <ele>163</ele>
        <time>2021-09-12T06:26:39Z</time>
      </trkpt>
      <trkpt lat="48.3558" lon="-3.71996">
        <ele>163.19999694824</ele>
        <time>2021-09-12T06:26:40Z</time>
      </trkpt>
      <trkpt lat="48.35578" lon="-3.71996">
        <ele>163.60000610352</ele>
        <time>2021-09-12T06:26:41Z</time>
      </trkpt>
      <trkpt lat="48.35575" lon="-3.71995">
        <ele>163.60000610352</ele>
        <time>2021-09-12T06:26:42Z</time>
      </trkpt>
      <trkpt lat="48.35573" lon="-3.71993">
        <ele>163.60000610352</ele>
        <time>2021-09-12T06:26:43Z</time>
      </trkpt>
      <trkpt lat="48.35572" lon="-3.7199">
        <ele>164</ele>
        <time>2021-09-12T06:26:44Z</time>
      </trkpt>
      <trkpt lat="48.3557" lon="-3.71988">
        <ele>164.19999694824</ele>
        <time>2021-09-12T06:26:45Z</time>
      </trkpt>
      <trkpt lat="48.35568" lon="-3.71989">
        <ele>164.19999694824</ele>
        <time>2021-09-12T06:26:46Z</time>
      </trkpt>
      <trkpt lat="48.35567" lon="-3.71989">
        <ele>164.60000610352</ele>
        <time>2021-09-12T06:26:47Z</time>
      </trkpt>
      <trkpt lat="48.35566" lon="-3.7199">
        <ele>164.80000305176</ele>
        <time>2021-09-12T06:26:48Z</time>
      </trkpt>
      <trkpt lat="48.35565" lon="-3.7199">
        <ele>165</ele>
        <time>2021-09-12T06:26:49Z</time>
      </trkpt>
      <trkpt lat="48.35564" lon="-3.7199">
        <ele>165.19999694824</ele>
        <time>2021-09-12T06:26:50Z</time>
      </trkpt>
      <trkpt lat="48.35563" lon="-3.7199">
        <ele>165.39999389648</ele>
        <time>2021-09-12T06:26:51Z</time>
      </trkpt>
      <trkpt lat="48.35563" lon="-3.71989">
        <ele>165.60000610352</ele>
        <time>2021-09-12T06:26:52Z</time>
      </trkpt>
      <trkpt lat="48.35562" lon="-3.71988">
        <ele>165.60000610352</ele>
        <time>2021-09-12T06:26:53Z</time>
      </trkpt>
      <trkpt lat="48.35562" lon="-3.71988">
        <ele>165.80000305176</ele>
        <time>2021-09-12T06:26:54Z</time>
      </trkpt>
      <trkpt lat="48.35561" lon="-3.71989">
        <ele>166</ele>
        <time>2021-09-12T06:26:55Z</time>
      </trkpt>
      <trkpt lat="48.3556" lon="-3.71989">
        <ele>166.39999389648</ele>
        <time>2021-09-12T06:26:56Z</time>
      </trkpt>
      <trkpt lat="48.35559" lon="-3.71989">
        <ele>166.80000305176</ele>
        <time>2021-09-12T06:26:57Z</time>
      </trkpt>
      <trkpt lat="48.35557" lon="-3.7199">
        <ele>166.80000305176</ele>
        <time>2021-09-12T06:26:58Z</time>
      </trkpt>
      <trkpt lat="48.35555" lon="-3.71991">
        <ele>167</ele>
        <time>2021-09-12T06:26:59Z</time>
      </trkpt>
      <trkpt lat="48.35554" lon="-3.71992">
        <ele>167.19999694824</ele>
        <time>2021-09-12T06:27:00Z</time>
      </trkpt>
      <trkpt lat="48.35552" lon="-3.71992">
        <ele>167.39999389648</ele>
        <time>2021-09-12T06:27:01Z</time>
      </trkpt>
      <trkpt lat="48.35551" lon="-3.71992">
        <ele>167.60000610352</ele>
        <time>2021-09-12T06:27:02Z</time>
      </trkpt>
      <trkpt lat="48.3555" lon="-3.71992">
        <ele>167.80000305176</ele>
        <time>2021-09-12T06:27:03Z</time>
      </trkpt>
      <trkpt lat="48.35549" lon="-3.71993">
        <ele>168</ele>
        <time>2021-09-12T06:27:04Z</time>
      </trkpt>
      <trkpt lat="48.35548" lon="-3.71993">
        <ele>168.19999694824</ele>
        <time>2021-09-12T06:27:05Z</time>
      </trkpt>
      <trkpt lat="48.35547" lon="-3.71993">
        <ele>168.39999389648</ele>
        <time>2021-09-12T06:27:06Z</time>
      </trkpt>
      <trkpt lat="48.35546" lon="-3.71993">
        <ele>168.60000610352</ele>
        <time>2021-09-12T06:27:07Z</time>
      </trkpt>
      <trkpt lat="48.35544" lon="-3.71994">
        <ele>168.80000305176</ele>
        <time>2021-09-12T06:27:08Z</time>
      </trkpt>
      <trkpt lat="48.35543" lon="-3.71995">
        <ele>169</ele>
        <time>2021-09-12T06:27:09Z</time>
      </trkpt>
      <trkpt lat="48.35542" lon="-3.71995">
        <ele>169.19999694824</ele>
        <time>2021-09-12T06:27:10Z</time>
      </trkpt>
      <trkpt lat="48.35541" lon="-3.71995">
        <ele>169.39999389648</ele>
        <time>2021-09-12T06:27:11Z</time>
      </trkpt>
      <trkpt lat="48.35539" lon="-3.71996">
        <ele>169.80000305176</ele>
        <time>2021-09-12T06:27:12Z</time>
      </trkpt>
      <trkpt lat="48.35537" lon="-3.71997">
        <ele>170</ele>
        <time>2021-09-12T06:27:13Z</time>
      </trkpt>
      <trkpt lat="48.35535" lon="-3.71997">
        <ele>170</ele>
        <time>2021-09-12T06:27:14Z</time>
      </trkpt>
      <trkpt lat="48.35533" lon="-3.71998">
        <ele>170.39999389648</ele>
        <time>2021-09-12T06:27:15Z</time>
      </trkpt>
      <trkpt lat="48.3553" lon="-3.71998">
        <ele>170.60000610352</ele>
        <time>2021-09-12T06:27:16Z</time>
      </trkpt>
      <trkpt lat="48.35529" lon="-3.71999">
        <ele>170.80000305176</ele>
        <time>2021-09-12T06:27:17Z</time>
      </trkpt>
      <trkpt lat="48.35528" lon="-3.72">
        <ele>170.80000305176</ele>
        <time>2021-09-12T06:27:18Z</time>
      </trkpt>
      <trkpt lat="48.35526" lon="-3.72001">
        <ele>171</ele>
        <time>2021-09-12T06:27:19Z</time>
      </trkpt>
      <trkpt lat="48.35525" lon="-3.72002">
        <ele>171.39999389648</ele>
        <time>2021-09-12T06:27:20Z</time>
      </trkpt>
      <trkpt lat="48.35523" lon="-3.72003">
        <ele>171.60000610352</ele>
        <time>2021-09-12T06:27:21Z</time>
      </trkpt>
      <trkpt lat="48.35521" lon="-3.72005">
        <ele>171.80000305176</ele>
        <time>2021-09-12T06:27:22Z</time>
      </trkpt>
      <trkpt lat="48.3552" lon="-3.72006">
        <ele>172</ele>
        <time>2021-09-12T06:27:23Z</time>
      </trkpt>
      <trkpt lat="48.35518" lon="-3.72007">
        <ele>172</ele>
        <time>2021-09-12T06:27:24Z</time>
      </trkpt>
      <trkpt lat="48.35516" lon="-3.72007">
        <ele>172.60000610352</ele>
        <time>2021-09-12T06:27:25Z</time>
      </trkpt>
      <trkpt lat="48.35514" lon="-3.72007">
        <ele>172.60000610352</ele>
        <time>2021-09-12T06:27:26Z</time>
      </trkpt>
      <trkpt lat="48.35511" lon="-3.72007">
        <ele>172.80000305176</ele>
        <time>2021-09-12T06:27:27Z</time>
      </trkpt>
      <trkpt lat="48.35509" lon="-3.72008">
        <ele>173</ele>
        <time>2021-09-12T06:27:28Z</time>
      </trkpt>
      <trkpt lat="48.35507" lon="-3.72009">
        <ele>173.19999694824</ele>
        <time>2021-09-12T06:27:29Z</time>
      </trkpt>
      <trkpt lat="48.35505" lon="-3.7201">
        <ele>173.39999389648</ele>
        <time>2021-09-12T06:27:30Z</time>
      </trkpt>
      <trkpt lat="48.35503" lon="-3.72011">
        <ele>173.60000610352</ele>
        <time>2021-09-12T06:27:31Z</time>
      </trkpt>
      <trkpt lat="48.355" lon="-3.72011">
        <ele>173.80000305176</ele>
        <time>2021-09-12T06:27:32Z</time>
      </trkpt>
      <trkpt lat="48.35499" lon="-3.72011">
        <ele>174</ele>
        <time>2021-09-12T06:27:33Z</time>
      </trkpt>
      <trkpt lat="48.35496" lon="-3.72011">
        <ele>174.19999694824</ele>
        <time>2021-09-12T06:27:34Z</time>
      </trkpt>
      <trkpt lat="48.35493" lon="-3.72011">
        <ele>174.60000610352</ele>
        <time>2021-09-12T06:27:35Z</time>
      </trkpt>
      <trkpt lat="48.3549" lon="-3.72011">
        <ele>174.60000610352</ele>
        <time>2021-09-12T06:27:36Z</time>
      </trkpt>
      <trkpt lat="48.35489" lon="-3.7201">
        <ele>175.19999694824</ele>
        <time>2021-09-12T06:27:37Z</time>
      </trkpt>
      <trkpt lat="48.35488" lon="-3.7201">
        <ele>175.39999389648</ele>
        <time>2021-09-12T06:27:38Z</time>
      </trkpt>
      <trkpt lat="48.35488" lon="-3.7201">
        <ele>175.60000610352</ele>
        <time>2021-09-12T06:27:39Z</time>
      </trkpt>
      <trkpt lat="48.35487" lon="-3.72008">
        <ele>175.80000305176</ele>
        <time>2021-09-12T06:27:40Z</time>
      </trkpt>
      <trkpt lat="48.35486" lon="-3.72006">
        <ele>176</ele>
        <time>2021-09-12T06:27:41Z</time>
      </trkpt>
      <trkpt lat="48.35485" lon="-3.72004">
        <ele>176.39999389648</ele>
        <time>2021-09-12T06:27:42Z</time>
      </trkpt>
      <trkpt lat="48.35485" lon="-3.72003">
        <ele>176.60000610352</ele>
        <time>2021-09-12T06:27:43Z</time>
      </trkpt>
      <trkpt lat="48.35484" lon="-3.72001">
        <ele>176.80000305176</ele>
        <time>2021-09-12T06:27:44Z</time>
      </trkpt>
      <trkpt lat="48.35483" lon="-3.71999">
        <ele>176.80000305176</ele>
        <time>2021-09-12T06:27:45Z</time>
      </trkpt>
      <trkpt lat="48.35482" lon="-3.71997">
        <ele>177.19999694824</ele>
        <time>2021-09-12T06:27:46Z</time>
      </trkpt>
      <trkpt lat="48.35481" lon="-3.71994">
        <ele>177.80000305176</ele>
        <time>2021-09-12T06:27:47Z</time>
      </trkpt>
      <trkpt lat="48.3548" lon="-3.71993">
        <ele>177.80000305176</ele>
        <time>2021-09-12T06:27:48Z</time>
      </trkpt>
      <trkpt lat="48.3548" lon="-3.71992">
        <ele>178.19999694824</ele>
        <time>2021-09-12T06:27:49Z</time>
      </trkpt>
      <trkpt lat="48.35479" lon="-3.71991">
        <ele>178.39999389648</ele>
        <time>2021-09-12T06:27:50Z</time>
      </trkpt>
      <trkpt lat="48.35478" lon="-3.71989">
        <ele>178.60000610352</ele>
        <time>2021-09-12T06:27:51Z</time>
      </trkpt>
      <trkpt lat="48.35477" lon="-3.71988">
        <ele>179</ele>
        <time>2021-09-12T06:27:52Z</time>
      </trkpt>
      <trkpt lat="48.35476" lon="-3.71987">
        <ele>179.39999389648</ele>
        <time>2021-09-12T06:27:53Z</time>
      </trkpt>
      <trkpt lat="48.35476" lon="-3.71986">
        <ele>179.60000610352</ele>
        <time>2021-09-12T06:27:54Z</time>
      </trkpt>
      <trkpt lat="48.35475" lon="-3.71984">
        <ele>180</ele>
        <time>2021-09-12T06:27:55Z</time>
      </trkpt>
      <trkpt lat="48.35473" lon="-3.71984">
        <ele>180.19999694824</ele>
        <time>2021-09-12T06:27:56Z</time>
      </trkpt>
      <trkpt lat="48.35472" lon="-3.71983">
        <ele>180.39999389648</ele>
        <time>2021-09-12T06:27:57Z</time>
      </trkpt>
      <trkpt lat="48.35471" lon="-3.71983">
        <ele>180.60000610352</ele>
        <time>2021-09-12T06:27:58Z</time>
      </trkpt>
      <trkpt lat="48.35469" lon="-3.71983">
        <ele>180.80000305176</ele>
        <time>2021-09-12T06:27:59Z</time>
      </trkpt>
      <trkpt lat="48.35467" lon="-3.71983">
        <ele>181.19999694824</ele>
        <time>2021-09-12T06:28:00Z</time>
      </trkpt>
      <trkpt lat="48.35465" lon="-3.71983">
        <ele>181.39999389648</ele>
        <time>2021-09-12T06:28:01Z</time>
      </trkpt>
      <trkpt lat="48.35464" lon="-3.71983">
        <ele>181.60000610352</ele>
        <time>2021-09-12T06:28:02Z</time>
      </trkpt>
      <trkpt lat="48.35462" lon="-3.71984">
        <ele>182</ele>
        <time>2021-09-12T06:28:03Z</time>
      </trkpt>
      <trkpt lat="48.35461" lon="-3.71984">
        <ele>182.39999389648</ele>
        <time>2021-09-12T06:28:04Z</time>
      </trkpt>
      <trkpt lat="48.35459" lon="-3.71984">
        <ele>182.39999389648</ele>
        <time>2021-09-12T06:28:05Z</time>
      </trkpt>
      <trkpt lat="48.35457" lon="-3.71983">
        <ele>182.39999389648</ele>
        <time>2021-09-12T06:28:06Z</time>
      </trkpt>
      <trkpt lat="48.35456" lon="-3.71983">
        <ele>182.80000305176</ele>
        <time>2021-09-12T06:28:07Z</time>
      </trkpt>
      <trkpt lat="48.35454" lon="-3.71983">
        <ele>183</ele>
        <time>2021-09-12T06:28:08Z</time>
      </trkpt>
      <trkpt lat="48.35453" lon="-3.71983">
        <ele>183.19999694824</ele>
        <time>2021-09-12T06:28:09Z</time>
      </trkpt>
      <trkpt lat="48.35452" lon="-3.71984">
        <ele>183.19999694824</ele>
        <time>2021-09-12T06:28:10Z</time>
      </trkpt>
      <trkpt lat="48.3545" lon="-3.71985">
        <ele>183.39999389648</ele>
        <time>2021-09-12T06:28:11Z</time>
      </trkpt>
      <trkpt lat="48.35449" lon="-3.71986">
        <ele>183.39999389648</ele>
        <time>2021-09-12T06:28:12Z</time>
      </trkpt>
      <trkpt lat="48.35447" lon="-3.71988">
        <ele>183.60000610352</ele>
        <time>2021-09-12T06:28:13Z</time>
      </trkpt>
      <trkpt lat="48.35446" lon="-3.7199">
        <ele>183.60000610352</ele>
        <time>2021-09-12T06:28:14Z</time>
      </trkpt>
      <trkpt lat="48.35446" lon="-3.71992">
        <ele>183.60000610352</ele>
        <time>2021-09-12T06:28:15Z</time>
      </trkpt>
      <trkpt lat="48.35446" lon="-3.71994">
        <ele>183.60000610352</ele>
        <time>2021-09-12T06:28:16Z</time>
      </trkpt>
      <trkpt lat="48.35446" lon="-3.71996">
        <ele>183.60000610352</ele>
        <time>2021-09-12T06:28:17Z</time>
      </trkpt>
      <trkpt lat="48.35446" lon="-3.71998">
        <ele>183.60000610352</ele>
        <time>2021-09-12T06:28:18Z</time>
      </trkpt>
      <trkpt lat="48.35446" lon="-3.72">
        <ele>183.60000610352</ele>
        <time>2021-09-12T06:28:19Z</time>
      </trkpt>
      <trkpt lat="48.35446" lon="-3.72">
        <ele>183.60000610352</ele>
        <time>2021-09-12T06:28:20Z</time>
      </trkpt>
      <trkpt lat="48.35448" lon="-3.72002">
        <ele>183.60000610352</ele>
        <time>2021-09-12T06:28:21Z</time>
      </trkpt>
      <trkpt lat="48.35449" lon="-3.72004">
        <ele>183.60000610352</ele>
        <time>2021-09-12T06:28:22Z</time>
      </trkpt>
      <trkpt lat="48.35449" lon="-3.72005">
        <ele>183.60000610352</ele>
        <time>2021-09-12T06:28:23Z</time>
      </trkpt>
      <trkpt lat="48.3545" lon="-3.72006">
        <ele>183.60000610352</ele>
        <time>2021-09-12T06:28:24Z</time>
      </trkpt>
      <trkpt lat="48.35451" lon="-3.72007">
        <ele>183.60000610352</ele>
        <time>2021-09-12T06:28:25Z</time>
      </trkpt>
      <trkpt lat="48.35452" lon="-3.72009">
        <ele>183.60000610352</ele>
        <time>2021-09-12T06:28:26Z</time>
      </trkpt>
      <trkpt lat="48.35452" lon="-3.7201">
        <ele>183.60000610352</ele>
        <time>2021-09-12T06:28:27Z</time>
      </trkpt>
      <trkpt lat="48.35453" lon="-3.72011">
        <ele>183.60000610352</ele>
        <time>2021-09-12T06:28:28Z</time>
      </trkpt>
      <trkpt lat="48.35453" lon="-3.72012">
        <ele>183.80000305176</ele>
        <time>2021-09-12T06:28:29Z</time>
      </trkpt>
      <trkpt lat="48.35454" lon="-3.72013">
        <ele>183.60000610352</ele>
        <time>2021-09-12T06:28:30Z</time>
      </trkpt>
      <trkpt lat="48.35455" lon="-3.72015">
        <ele>183.80000305176</ele>
        <time>2021-09-12T06:28:31Z</time>
      </trkpt>
      <trkpt lat="48.35456" lon="-3.72017">
        <ele>183.80000305176</ele>
        <time>2021-09-12T06:28:32Z</time>
      </trkpt>
      <trkpt lat="48.35457" lon="-3.72018">
        <ele>183.80000305176</ele>
        <time>2021-09-12T06:28:33Z</time>
      </trkpt>
      <trkpt lat="48.35458" lon="-3.7202">
        <ele>183.60000610352</ele>
        <time>2021-09-12T06:28:34Z</time>
      </trkpt>
      <trkpt lat="48.35459" lon="-3.72021">
        <ele>183.60000610352</ele>
        <time>2021-09-12T06:28:35Z</time>
      </trkpt>
      <trkpt lat="48.35461" lon="-3.72023">
        <ele>183.60000610352</ele>
        <time>2021-09-12T06:28:36Z</time>
      </trkpt>
      <trkpt lat="48.35463" lon="-3.72025">
        <ele>183.39999389648</ele>
        <time>2021-09-12T06:28:37Z</time>
      </trkpt>
      <trkpt lat="48.35466" lon="-3.72026">
        <ele>182.60000610352</ele>
        <time>2021-09-12T06:28:38Z</time>
      </trkpt>
      <trkpt lat="48.35468" lon="-3.72028">
        <ele>182</ele>
        <time>2021-09-12T06:28:39Z</time>
      </trkpt>
      <trkpt lat="48.35471" lon="-3.7203">
        <ele>181</ele>
        <time>2021-09-12T06:28:40Z</time>
      </trkpt>
      <trkpt lat="48.35473" lon="-3.72034">
        <ele>179.80000305176</ele>
        <time>2021-09-12T06:28:41Z</time>
      </trkpt>
      <trkpt lat="48.35474" lon="-3.72039">
        <ele>178.80000305176</ele>
        <time>2021-09-12T06:28:42Z</time>
      </trkpt>
      <trkpt lat="48.35474" lon="-3.72042">
        <ele>178.80000305176</ele>
        <time>2021-09-12T06:28:43Z</time>
      </trkpt>
      <trkpt lat="48.35473" lon="-3.72044">
        <ele>178.80000305176</ele>
        <time>2021-09-12T06:28:44Z</time>
      </trkpt>
      <trkpt lat="48.35473" lon="-3.72047">
        <ele>178.80000305176</ele>
        <time>2021-09-12T06:28:45Z</time>
      </trkpt>
      <trkpt lat="48.35473" lon="-3.72049">
        <ele>178.80000305176</ele>
        <time>2021-09-12T06:28:46Z</time>
      </trkpt>
      <trkpt lat="48.35472" lon="-3.7205">
        <ele>178.60000610352</ele>
        <time>2021-09-12T06:28:47Z</time>
      </trkpt>
      <trkpt lat="48.35472" lon="-3.72052">
        <ele>178.60000610352</ele>
        <time>2021-09-12T06:28:48Z</time>
      </trkpt>
      <trkpt lat="48.35472" lon="-3.72054">
        <ele>178.60000610352</ele>
        <time>2021-09-12T06:28:49Z</time>
      </trkpt>
      <trkpt lat="48.35472" lon="-3.72058">
        <ele>178.60000610352</ele>
        <time>2021-09-12T06:28:50Z</time>
      </trkpt>
      <trkpt lat="48.35471" lon="-3.72062">
        <ele>178.39999389648</ele>
        <time>2021-09-12T06:28:51Z</time>
      </trkpt>
      <trkpt lat="48.3547" lon="-3.72066">
        <ele>178.39999389648</ele>
        <time>2021-09-12T06:28:52Z</time>
      </trkpt>
      <trkpt lat="48.3547" lon="-3.7207">
        <ele>178.39999389648</ele>
        <time>2021-09-12T06:28:53Z</time>
      </trkpt>
      <trkpt lat="48.35469" lon="-3.72073">
        <ele>178.39999389648</ele>
        <time>2021-09-12T06:28:54Z</time>
      </trkpt>
      <trkpt lat="48.35468" lon="-3.72076">
        <ele>178</ele>
        <time>2021-09-12T06:28:55Z</time>
      </trkpt>
      <trkpt lat="48.35467" lon="-3.72079">
        <ele>178</ele>
        <time>2021-09-12T06:28:56Z</time>
      </trkpt>
      <trkpt lat="48.35464" lon="-3.72084">
        <ele>178</ele>
        <time>2021-09-12T06:28:57Z</time>
      </trkpt>
      <trkpt lat="48.35463" lon="-3.72089">
        <ele>177.80000305176</ele>
        <time>2021-09-12T06:28:58Z</time>
      </trkpt>
      <trkpt lat="48.35462" lon="-3.72094">
        <ele>177.80000305176</ele>
        <time>2021-09-12T06:28:59Z</time>
      </trkpt>
      <trkpt lat="48.35462" lon="-3.72099">
        <ele>177.80000305176</ele>
        <time>2021-09-12T06:29:00Z</time>
      </trkpt>
      <trkpt lat="48.3546" lon="-3.72104">
        <ele>177.80000305176</ele>
        <time>2021-09-12T06:29:01Z</time>
      </trkpt>
      <trkpt lat="48.35457" lon="-3.72107">
        <ele>177.80000305176</ele>
        <time>2021-09-12T06:29:02Z</time>
      </trkpt>
      <trkpt lat="48.35454" lon="-3.72114">
        <ele>177.80000305176</ele>
        <time>2021-09-12T06:29:03Z</time>
      </trkpt>
      <trkpt lat="48.35452" lon="-3.72117">
        <ele>177.80000305176</ele>
        <time>2021-09-12T06:29:04Z</time>
      </trkpt>
      <trkpt lat="48.35451" lon="-3.7212">
        <ele>177.80000305176</ele>
        <time>2021-09-12T06:29:05Z</time>
      </trkpt>
      <trkpt lat="48.3545" lon="-3.72124">
        <ele>178</ele>
        <time>2021-09-12T06:29:06Z</time>
      </trkpt>
      <trkpt lat="48.35449" lon="-3.72127">
        <ele>177.80000305176</ele>
        <time>2021-09-12T06:29:07Z</time>
      </trkpt>
      <trkpt lat="48.35446" lon="-3.72131">
        <ele>177.80000305176</ele>
        <time>2021-09-12T06:29:08Z</time>
      </trkpt>
      <trkpt lat="48.35442" lon="-3.72136">
        <ele>177.80000305176</ele>
        <time>2021-09-12T06:29:09Z</time>
      </trkpt>
      <trkpt lat="48.35441" lon="-3.72139">
        <ele>177.80000305176</ele>
        <time>2021-09-12T06:29:10Z</time>
      </trkpt>
      <trkpt lat="48.35441" lon="-3.72143">
        <ele>178</ele>
        <time>2021-09-12T06:29:11Z</time>
      </trkpt>
      <trkpt lat="48.35442" lon="-3.72145">
        <ele>178</ele>
        <time>2021-09-12T06:29:12Z</time>
      </trkpt>
      <trkpt lat="48.35442" lon="-3.72147">
        <ele>178</ele>
        <time>2021-09-12T06:29:13Z</time>
      </trkpt>
      <trkpt lat="48.35441" lon="-3.7215">
        <ele>178</ele>
        <time>2021-09-12T06:29:14Z</time>
      </trkpt>
      <trkpt lat="48.3544" lon="-3.72154">
        <ele>178</ele>
        <time>2021-09-12T06:29:15Z</time>
      </trkpt>
      <trkpt lat="48.35437" lon="-3.72156">
        <ele>178</ele>
        <time>2021-09-12T06:29:16Z</time>
      </trkpt>
      <trkpt lat="48.35435" lon="-3.7216">
        <ele>178</ele>
        <time>2021-09-12T06:29:17Z</time>
      </trkpt>
      <trkpt lat="48.35432" lon="-3.72164">
        <ele>178</ele>
        <time>2021-09-12T06:29:18Z</time>
      </trkpt>
      <trkpt lat="48.35431" lon="-3.72167">
        <ele>178.19999694824</ele>
        <time>2021-09-12T06:29:19Z</time>
      </trkpt>
      <trkpt lat="48.35428" lon="-3.7217">
        <ele>178.19999694824</ele>
        <time>2021-09-12T06:29:20Z</time>
      </trkpt>
      <trkpt lat="48.35426" lon="-3.72172">
        <ele>178.19999694824</ele>
        <time>2021-09-12T06:29:21Z</time>
      </trkpt>
      <trkpt lat="48.35425" lon="-3.72174">
        <ele>178.39999389648</ele>
        <time>2021-09-12T06:29:22Z</time>
      </trkpt>
      <trkpt lat="48.35423" lon="-3.72177">
        <ele>178.39999389648</ele>
        <time>2021-09-12T06:29:23Z</time>
      </trkpt>
      <trkpt lat="48.35421" lon="-3.7218">
        <ele>178.39999389648</ele>
        <time>2021-09-12T06:29:24Z</time>
      </trkpt>
      <trkpt lat="48.3542" lon="-3.72182">
        <ele>178.39999389648</ele>
        <time>2021-09-12T06:29:25Z</time>
      </trkpt>
      <trkpt lat="48.35418" lon="-3.72185">
        <ele>178.39999389648</ele>
        <time>2021-09-12T06:29:26Z</time>
      </trkpt>
      <trkpt lat="48.35416" lon="-3.72188">
        <ele>178.39999389648</ele>
        <time>2021-09-12T06:29:27Z</time>
      </trkpt>
      <trkpt lat="48.35414" lon="-3.72191">
        <ele>178.39999389648</ele>
        <time>2021-09-12T06:29:28Z</time>
      </trkpt>
      <trkpt lat="48.35413" lon="-3.72193">
        <ele>178.60000610352</ele>
        <time>2021-09-12T06:29:29Z</time>
      </trkpt>
      <trkpt lat="48.35411" lon="-3.72195">
        <ele>178.60000610352</ele>
        <time>2021-09-12T06:29:30Z</time>
      </trkpt>
      <trkpt lat="48.3541" lon="-3.72197">
        <ele>178.80000305176</ele>
        <time>2021-09-12T06:29:31Z</time>
      </trkpt>
      <trkpt lat="48.35409" lon="-3.72199">
        <ele>178.80000305176</ele>
        <time>2021-09-12T06:29:32Z</time>
      </trkpt>
      <trkpt lat="48.35408" lon="-3.722">
        <ele>178.80000305176</ele>
        <time>2021-09-12T06:29:33Z</time>
      </trkpt>
      <trkpt lat="48.35408" lon="-3.72202">
        <ele>178.80000305176</ele>
        <time>2021-09-12T06:29:34Z</time>
      </trkpt>
      <trkpt lat="48.35407" lon="-3.72204">
        <ele>178.80000305176</ele>
        <time>2021-09-12T06:29:35Z</time>
      </trkpt>
      <trkpt lat="48.35406" lon="-3.72205">
        <ele>178.80000305176</ele>
        <time>2021-09-12T06:29:36Z</time>
      </trkpt>
      <trkpt lat="48.35404" lon="-3.72207">
        <ele>178.80000305176</ele>
        <time>2021-09-12T06:29:37Z</time>
      </trkpt>
      <trkpt lat="48.35403" lon="-3.72209">
        <ele>178.80000305176</ele>
        <time>2021-09-12T06:29:38Z</time>
      </trkpt>
      <trkpt lat="48.35402" lon="-3.72211">
        <ele>179</ele>
        <time>2021-09-12T06:29:39Z</time>
      </trkpt>
      <trkpt lat="48.354" lon="-3.72213">
        <ele>179</ele>
        <time>2021-09-12T06:29:40Z</time>
      </trkpt>
      <trkpt lat="48.35399" lon="-3.72215">
        <ele>179</ele>
        <time>2021-09-12T06:29:41Z</time>
      </trkpt>
      <trkpt lat="48.35397" lon="-3.72217">
        <ele>179</ele>
        <time>2021-09-12T06:29:42Z</time>
      </trkpt>
      <trkpt lat="48.35396" lon="-3.72219">
        <ele>179.19999694824</ele>
        <time>2021-09-12T06:29:43Z</time>
      </trkpt>
      <trkpt lat="48.35395" lon="-3.7222">
        <ele>179.19999694824</ele>
        <time>2021-09-12T06:29:44Z</time>
      </trkpt>
      <trkpt lat="48.35394" lon="-3.72222">
        <ele>179.19999694824</ele>
        <time>2021-09-12T06:29:45Z</time>
      </trkpt>
      <trkpt lat="48.35392" lon="-3.72224">
        <ele>179.39999389648</ele>
        <time>2021-09-12T06:29:46Z</time>
      </trkpt>
      <trkpt lat="48.35391" lon="-3.72226">
        <ele>179.39999389648</ele>
        <time>2021-09-12T06:29:47Z</time>
      </trkpt>
      <trkpt lat="48.35389" lon="-3.72228">
        <ele>179.80000305176</ele>
        <time>2021-09-12T06:29:48Z</time>
      </trkpt>
      <trkpt lat="48.35387" lon="-3.7223">
        <ele>179.80000305176</ele>
        <time>2021-09-12T06:29:49Z</time>
      </trkpt>
      <trkpt lat="48.35386" lon="-3.72233">
        <ele>180</ele>
        <time>2021-09-12T06:29:50Z</time>
      </trkpt>
      <trkpt lat="48.35385" lon="-3.72236">
        <ele>180.19999694824</ele>
        <time>2021-09-12T06:29:51Z</time>
      </trkpt>
      <trkpt lat="48.35384" lon="-3.72238">
        <ele>180.19999694824</ele>
        <time>2021-09-12T06:29:52Z</time>
      </trkpt>
      <trkpt lat="48.35383" lon="-3.7224">
        <ele>180.19999694824</ele>
        <time>2021-09-12T06:29:53Z</time>
      </trkpt>
      <trkpt lat="48.35381" lon="-3.72243">
        <ele>180.19999694824</ele>
        <time>2021-09-12T06:29:54Z</time>
      </trkpt>
      <trkpt lat="48.35379" lon="-3.72245">
        <ele>180.39999389648</ele>
        <time>2021-09-12T06:29:55Z</time>
      </trkpt>
      <trkpt lat="48.35378" lon="-3.72247">
        <ele>180.60000610352</ele>
        <time>2021-09-12T06:29:56Z</time>
      </trkpt>
      <trkpt lat="48.35376" lon="-3.72249">
        <ele>180.60000610352</ele>
        <time>2021-09-12T06:29:57Z</time>
      </trkpt>
      <trkpt lat="48.35374" lon="-3.72251">
        <ele>180.80000305176</ele>
        <time>2021-09-12T06:29:58Z</time>
      </trkpt>
      <trkpt lat="48.35372" lon="-3.72253">
        <ele>181.19999694824</ele>
        <time>2021-09-12T06:29:59Z</time>
      </trkpt>
      <trkpt lat="48.3537" lon="-3.72257">
        <ele>181.19999694824</ele>
        <time>2021-09-12T06:30:00Z</time>
      </trkpt>
      <trkpt lat="48.35369" lon="-3.72259">
        <ele>181.60000610352</ele>
        <time>2021-09-12T06:30:01Z</time>
      </trkpt>
      <trkpt lat="48.35367" lon="-3.72262">
        <ele>181.80000305176</ele>
        <time>2021-09-12T06:30:02Z</time>
      </trkpt>
      <trkpt lat="48.35365" lon="-3.72266">
        <ele>181.80000305176</ele>
        <time>2021-09-12T06:30:03Z</time>
      </trkpt>
      <trkpt lat="48.35364" lon="-3.72268">
        <ele>182.19999694824</ele>
        <time>2021-09-12T06:30:04Z</time>
      </trkpt>
      <trkpt lat="48.35362" lon="-3.72272">
        <ele>182.19999694824</ele>
        <time>2021-09-12T06:30:05Z</time>
      </trkpt>
      <trkpt lat="48.3536" lon="-3.72275">
        <ele>182.19999694824</ele>
        <time>2021-09-12T06:30:06Z</time>
      </trkpt>
      <trkpt lat="48.35358" lon="-3.72278">
        <ele>182.19999694824</ele>
        <time>2021-09-12T06:30:07Z</time>
      </trkpt>
      <trkpt lat="48.35357" lon="-3.7228">
        <ele>182.60000610352</ele>
        <time>2021-09-12T06:30:08Z</time>
      </trkpt>
      <trkpt lat="48.35354" lon="-3.72282">
        <ele>182.60000610352</ele>
        <time>2021-09-12T06:30:09Z</time>
      </trkpt>
      <trkpt lat="48.35352" lon="-3.72284">
        <ele>182.60000610352</ele>
        <time>2021-09-12T06:30:10Z</time>
      </trkpt>
      <trkpt lat="48.35351" lon="-3.72287">
        <ele>182.60000610352</ele>
        <time>2021-09-12T06:30:11Z</time>
      </trkpt>
      <trkpt lat="48.35351" lon="-3.72289">
        <ele>182.60000610352</ele>
        <time>2021-09-12T06:30:12Z</time>
      </trkpt>
      <trkpt lat="48.3535" lon="-3.72291">
        <ele>182.80000305176</ele>
        <time>2021-09-12T06:30:13Z</time>
      </trkpt>
      <trkpt lat="48.35349" lon="-3.72294">
        <ele>182.80000305176</ele>
        <time>2021-09-12T06:30:14Z</time>
      </trkpt>
      <trkpt lat="48.35348" lon="-3.72297">
        <ele>183</ele>
        <time>2021-09-12T06:30:15Z</time>
      </trkpt>
      <trkpt lat="48.35346" lon="-3.72299">
        <ele>183.19999694824</ele>
        <time>2021-09-12T06:30:16Z</time>
      </trkpt>
      <trkpt lat="48.35342" lon="-3.72302">
        <ele>183.19999694824</ele>
        <time>2021-09-12T06:30:17Z</time>
      </trkpt>
      <trkpt lat="48.3534" lon="-3.72306">
        <ele>183.39999389648</ele>
        <time>2021-09-12T06:30:18Z</time>
      </trkpt>
      <trkpt lat="48.35337" lon="-3.72311">
        <ele>183.39999389648</ele>
        <time>2021-09-12T06:30:19Z</time>
      </trkpt>
      <trkpt lat="48.35334" lon="-3.72314">
        <ele>183.60000610352</ele>
        <time>2021-09-12T06:30:20Z</time>
      </trkpt>
      <trkpt lat="48.35331" lon="-3.72317">
        <ele>183.80000305176</ele>
        <time>2021-09-12T06:30:21Z</time>
      </trkpt>
      <trkpt lat="48.35329" lon="-3.72319">
        <ele>183.80000305176</ele>
        <time>2021-09-12T06:30:22Z</time>
      </trkpt>
      <trkpt lat="48.35326" lon="-3.72322">
        <ele>184</ele>
        <time>2021-09-12T06:30:23Z</time>
      </trkpt>
      <trkpt lat="48.35323" lon="-3.72325">
        <ele>184.19999694824</ele>
        <time>2021-09-12T06:30:24Z</time>
      </trkpt>
      <trkpt lat="48.35321" lon="-3.72327">
        <ele>184.39999389648</ele>
        <time>2021-09-12T06:30:25Z</time>
      </trkpt>
      <trkpt lat="48.35318" lon="-3.72328">
        <ele>184.39999389648</ele>
        <time>2021-09-12T06:30:26Z</time>
      </trkpt>
      <trkpt lat="48.35316" lon="-3.7233">
        <ele>184.39999389648</ele>
        <time>2021-09-12T06:30:27Z</time>
      </trkpt>
      <trkpt lat="48.35314" lon="-3.72332">
        <ele>184.39999389648</ele>
        <time>2021-09-12T06:30:28Z</time>
      </trkpt>
      <trkpt lat="48.35311" lon="-3.72334">
        <ele>184.60000610352</ele>
        <time>2021-09-12T06:30:29Z</time>
      </trkpt>
      <trkpt lat="48.35309" lon="-3.72337">
        <ele>184.60000610352</ele>
        <time>2021-09-12T06:30:30Z</time>
      </trkpt>
      <trkpt lat="48.35307" lon="-3.72341">
        <ele>184.60000610352</ele>
        <time>2021-09-12T06:30:31Z</time>
      </trkpt>
      <trkpt lat="48.35305" lon="-3.72343">
        <ele>184.60000610352</ele>
        <time>2021-09-12T06:30:32Z</time>
      </trkpt>
      <trkpt lat="48.35303" lon="-3.72346">
        <ele>184.60000610352</ele>
        <time>2021-09-12T06:30:33Z</time>
      </trkpt>
      <trkpt lat="48.353" lon="-3.72351">
        <ele>184.60000610352</ele>
        <time>2021-09-12T06:30:34Z</time>
      </trkpt>
      <trkpt lat="48.35297" lon="-3.72354">
        <ele>184.60000610352</ele>
        <time>2021-09-12T06:30:35Z</time>
      </trkpt>
      <trkpt lat="48.35295" lon="-3.72358">
        <ele>184.60000610352</ele>
        <time>2021-09-12T06:30:36Z</time>
      </trkpt>
      <trkpt lat="48.35292" lon="-3.72363">
        <ele>184.60000610352</ele>
        <time>2021-09-12T06:30:37Z</time>
      </trkpt>
      <trkpt lat="48.35292" lon="-3.72365">
        <ele>184.60000610352</ele>
        <time>2021-09-12T06:30:38Z</time>
      </trkpt>
      <trkpt lat="48.35292" lon="-3.72367">
        <ele>184.60000610352</ele>
        <time>2021-09-12T06:30:39Z</time>
      </trkpt>
      <trkpt lat="48.35289" lon="-3.72371">
        <ele>184.60000610352</ele>
        <time>2021-09-12T06:30:40Z</time>
      </trkpt>
      <trkpt lat="48.35287" lon="-3.72375">
        <ele>184.60000610352</ele>
        <time>2021-09-12T06:30:41Z</time>
      </trkpt>
      <trkpt lat="48.35285" lon="-3.72379">
        <ele>184.60000610352</ele>
        <time>2021-09-12T06:30:42Z</time>
      </trkpt>
      <trkpt lat="48.35284" lon="-3.72382">
        <ele>184.60000610352</ele>
        <time>2021-09-12T06:30:43Z</time>
      </trkpt>
      <trkpt lat="48.35282" lon="-3.72384">
        <ele>184.60000610352</ele>
        <time>2021-09-12T06:30:44Z</time>
      </trkpt>
      <trkpt lat="48.35279" lon="-3.72387">
        <ele>184.60000610352</ele>
        <time>2021-09-12T06:30:45Z</time>
      </trkpt>
      <trkpt lat="48.35275" lon="-3.7239">
        <ele>184.80000305176</ele>
        <time>2021-09-12T06:30:46Z</time>
      </trkpt>
      <trkpt lat="48.35272" lon="-3.72392">
        <ele>184.80000305176</ele>
        <time>2021-09-12T06:30:47Z</time>
      </trkpt>
      <trkpt lat="48.35271" lon="-3.72393">
        <ele>184.80000305176</ele>
        <time>2021-09-12T06:30:48Z</time>
      </trkpt>
      <trkpt lat="48.35268" lon="-3.72395">
        <ele>185.19999694824</ele>
        <time>2021-09-12T06:30:49Z</time>
      </trkpt>
      <trkpt lat="48.35267" lon="-3.72397">
        <ele>185.19999694824</ele>
        <time>2021-09-12T06:30:50Z</time>
      </trkpt>
      <trkpt lat="48.35265" lon="-3.72396">
        <ele>185.39999389648</ele>
        <time>2021-09-12T06:30:51Z</time>
      </trkpt>
      <trkpt lat="48.35263" lon="-3.72395">
        <ele>185.39999389648</ele>
        <time>2021-09-12T06:30:52Z</time>
      </trkpt>
      <trkpt lat="48.35261" lon="-3.72396">
        <ele>185.60000610352</ele>
        <time>2021-09-12T06:30:53Z</time>
      </trkpt>
      <trkpt lat="48.35259" lon="-3.72398">
        <ele>186.19999694824</ele>
        <time>2021-09-12T06:30:54Z</time>
      </trkpt>
      <trkpt lat="48.35257" lon="-3.72399">
        <ele>186.19999694824</ele>
        <time>2021-09-12T06:30:55Z</time>
      </trkpt>
      <trkpt lat="48.35255" lon="-3.72401">
        <ele>186.60000610352</ele>
        <time>2021-09-12T06:30:56Z</time>
      </trkpt>
      <trkpt lat="48.35253" lon="-3.72402">
        <ele>186.80000305176</ele>
        <time>2021-09-12T06:30:57Z</time>
      </trkpt>
      <trkpt lat="48.35251" lon="-3.72404">
        <ele>186.80000305176</ele>
        <time>2021-09-12T06:30:58Z</time>
      </trkpt>
      <trkpt lat="48.3525" lon="-3.72406">
        <ele>187</ele>
        <time>2021-09-12T06:30:59Z</time>
      </trkpt>
      <trkpt lat="48.35248" lon="-3.72407">
        <ele>187.19999694824</ele>
        <time>2021-09-12T06:31:00Z</time>
      </trkpt>
      <trkpt lat="48.35247" lon="-3.72407">
        <ele>187.19999694824</ele>
        <time>2021-09-12T06:31:01Z</time>
      </trkpt>
      <trkpt lat="48.35246" lon="-3.72408">
        <ele>187.39999389648</ele>
        <time>2021-09-12T06:31:02Z</time>
      </trkpt>
      <trkpt lat="48.35244" lon="-3.72409">
        <ele>187.39999389648</ele>
        <time>2021-09-12T06:31:03Z</time>
      </trkpt>
      <trkpt lat="48.35242" lon="-3.7241">
        <ele>187.39999389648</ele>
        <time>2021-09-12T06:31:04Z</time>
      </trkpt>
      <trkpt lat="48.35241" lon="-3.72411">
        <ele>187.80000305176</ele>
        <time>2021-09-12T06:31:05Z</time>
      </trkpt>
      <trkpt lat="48.3524" lon="-3.72413">
        <ele>188</ele>
        <time>2021-09-12T06:31:06Z</time>
      </trkpt>
      <trkpt lat="48.35238" lon="-3.72417">
        <ele>188.60000610352</ele>
        <time>2021-09-12T06:31:07Z</time>
      </trkpt>
      <trkpt lat="48.35236" lon="-3.72419">
        <ele>188.80000305176</ele>
        <time>2021-09-12T06:31:08Z</time>
      </trkpt>
      <trkpt lat="48.35235" lon="-3.72421">
        <ele>189</ele>
        <time>2021-09-12T06:31:09Z</time>
      </trkpt>
      <trkpt lat="48.35234" lon="-3.72422">
        <ele>189</ele>
        <time>2021-09-12T06:31:10Z</time>
      </trkpt>
      <trkpt lat="48.35234" lon="-3.72423">
        <ele>189.19999694824</ele>
        <time>2021-09-12T06:31:11Z</time>
      </trkpt>
      <trkpt lat="48.35232" lon="-3.72425">
        <ele>189.39999389648</ele>
        <time>2021-09-12T06:31:12Z</time>
      </trkpt>
      <trkpt lat="48.3523" lon="-3.72429">
        <ele>189.60000610352</ele>
        <time>2021-09-12T06:31:13Z</time>
      </trkpt>
      <trkpt lat="48.35228" lon="-3.72431">
        <ele>189.60000610352</ele>
        <time>2021-09-12T06:31:14Z</time>
      </trkpt>
      <trkpt lat="48.35225" lon="-3.72433">
        <ele>190</ele>
        <time>2021-09-12T06:31:15Z</time>
      </trkpt>
      <trkpt lat="48.35223" lon="-3.72435">
        <ele>190</ele>
        <time>2021-09-12T06:31:16Z</time>
      </trkpt>
      <trkpt lat="48.35221" lon="-3.72437">
        <ele>190</ele>
        <time>2021-09-12T06:31:17Z</time>
      </trkpt>
      <trkpt lat="48.35219" lon="-3.7244">
        <ele>190</ele>
        <time>2021-09-12T06:31:18Z</time>
      </trkpt>
      <trkpt lat="48.35217" lon="-3.72443">
        <ele>190.19999694824</ele>
        <time>2021-09-12T06:31:19Z</time>
      </trkpt>
      <trkpt lat="48.35215" lon="-3.72445">
        <ele>190.19999694824</ele>
        <time>2021-09-12T06:31:20Z</time>
      </trkpt>
      <trkpt lat="48.35213" lon="-3.72448">
        <ele>190.19999694824</ele>
        <time>2021-09-12T06:31:21Z</time>
      </trkpt>
      <trkpt lat="48.35211" lon="-3.72451">
        <ele>190.19999694824</ele>
        <time>2021-09-12T06:31:22Z</time>
      </trkpt>
      <trkpt lat="48.35209" lon="-3.72454">
        <ele>190.19999694824</ele>
        <time>2021-09-12T06:31:23Z</time>
      </trkpt>
      <trkpt lat="48.35207" lon="-3.72458">
        <ele>190.19999694824</ele>
        <time>2021-09-12T06:31:24Z</time>
      </trkpt>
      <trkpt lat="48.35204" lon="-3.72462">
        <ele>190.19999694824</ele>
        <time>2021-09-12T06:31:25Z</time>
      </trkpt>
      <trkpt lat="48.35203" lon="-3.72465">
        <ele>190</ele>
        <time>2021-09-12T06:31:26Z</time>
      </trkpt>
      <trkpt lat="48.35201" lon="-3.72468">
        <ele>190</ele>
        <time>2021-09-12T06:31:27Z</time>
      </trkpt>
      <trkpt lat="48.35199" lon="-3.72472">
        <ele>190</ele>
        <time>2021-09-12T06:31:28Z</time>
      </trkpt>
      <trkpt lat="48.35197" lon="-3.72477">
        <ele>190.19999694824</ele>
        <time>2021-09-12T06:31:29Z</time>
      </trkpt>
      <trkpt lat="48.35196" lon="-3.72481">
        <ele>190.19999694824</ele>
        <time>2021-09-12T06:31:30Z</time>
      </trkpt>
      <trkpt lat="48.35194" lon="-3.72483">
        <ele>190.19999694824</ele>
        <time>2021-09-12T06:31:31Z</time>
      </trkpt>
      <trkpt lat="48.35193" lon="-3.72484">
        <ele>190.19999694824</ele>
        <time>2021-09-12T06:31:32Z</time>
      </trkpt>
      <trkpt lat="48.35189" lon="-3.72487">
        <ele>190.19999694824</ele>
        <time>2021-09-12T06:31:33Z</time>
      </trkpt>
      <trkpt lat="48.35186" lon="-3.72489">
        <ele>190.80000305176</ele>
        <time>2021-09-12T06:31:34Z</time>
      </trkpt>
      <trkpt lat="48.35185" lon="-3.72491">
        <ele>191</ele>
        <time>2021-09-12T06:31:35Z</time>
      </trkpt>
      <trkpt lat="48.35183" lon="-3.72495">
        <ele>191.19999694824</ele>
        <time>2021-09-12T06:31:36Z</time>
      </trkpt>
      <trkpt lat="48.35182" lon="-3.72498">
        <ele>191.19999694824</ele>
        <time>2021-09-12T06:31:37Z</time>
      </trkpt>
      <trkpt lat="48.35182" lon="-3.72502">
        <ele>191.19999694824</ele>
        <time>2021-09-12T06:31:38Z</time>
      </trkpt>
      <trkpt lat="48.35183" lon="-3.72506">
        <ele>191.19999694824</ele>
        <time>2021-09-12T06:31:39Z</time>
      </trkpt>
      <trkpt lat="48.35182" lon="-3.72511">
        <ele>191.19999694824</ele>
        <time>2021-09-12T06:31:40Z</time>
      </trkpt>
      <trkpt lat="48.35181" lon="-3.72518">
        <ele>190.60000610352</ele>
        <time>2021-09-12T06:31:41Z</time>
      </trkpt>
      <trkpt lat="48.35182" lon="-3.72523">
        <ele>190.19999694824</ele>
        <time>2021-09-12T06:31:42Z</time>
      </trkpt>
      <trkpt lat="48.35182" lon="-3.72529">
        <ele>189.60000610352</ele>
        <time>2021-09-12T06:31:43Z</time>
      </trkpt>
      <trkpt lat="48.35182" lon="-3.72533">
        <ele>189.39999389648</ele>
        <time>2021-09-12T06:31:44Z</time>
      </trkpt>
      <trkpt lat="48.35182" lon="-3.72536">
        <ele>189</ele>
        <time>2021-09-12T06:31:45Z</time>
      </trkpt>
      <trkpt lat="48.35182" lon="-3.7254">
        <ele>188.39999389648</ele>
        <time>2021-09-12T06:31:46Z</time>
      </trkpt>
      <trkpt lat="48.35183" lon="-3.72545">
        <ele>187.80000305176</ele>
        <time>2021-09-12T06:31:47Z</time>
      </trkpt>
      <trkpt lat="48.35183" lon="-3.72551">
        <ele>187.60000610352</ele>
        <time>2021-09-12T06:31:48Z</time>
      </trkpt>
      <trkpt lat="48.35183" lon="-3.72556">
        <ele>187.60000610352</ele>
        <time>2021-09-12T06:31:49Z</time>
      </trkpt>
      <trkpt lat="48.35182" lon="-3.7256">
        <ele>187</ele>
        <time>2021-09-12T06:31:50Z</time>
      </trkpt>
      <trkpt lat="48.3518" lon="-3.72562">
        <ele>187</ele>
        <time>2021-09-12T06:31:51Z</time>
      </trkpt>
      <trkpt lat="48.35178" lon="-3.72564">
        <ele>186.80000305176</ele>
        <time>2021-09-12T06:31:52Z</time>
      </trkpt>
      <trkpt lat="48.35177" lon="-3.72564">
        <ele>186.60000610352</ele>
        <time>2021-09-12T06:31:53Z</time>
      </trkpt>
      <trkpt lat="48.35176" lon="-3.72566">
        <ele>186.39999389648</ele>
        <time>2021-09-12T06:31:54Z</time>
      </trkpt>
      <trkpt lat="48.35176" lon="-3.72567">
        <ele>186.39999389648</ele>
        <time>2021-09-12T06:31:55Z</time>
      </trkpt>
      <trkpt lat="48.35176" lon="-3.72569">
        <ele>186.39999389648</ele>
        <time>2021-09-12T06:31:56Z</time>
      </trkpt>
      <trkpt lat="48.35176" lon="-3.7257">
        <ele>186.39999389648</ele>
        <time>2021-09-12T06:31:57Z</time>
      </trkpt>
      <trkpt lat="48.35176" lon="-3.72572">
        <ele>186.39999389648</ele>
        <time>2021-09-12T06:31:58Z</time>
      </trkpt>
      <trkpt lat="48.35176" lon="-3.72574">
        <ele>186.39999389648</ele>
        <time>2021-09-12T06:31:59Z</time>
      </trkpt>
      <trkpt lat="48.35175" lon="-3.72577">
        <ele>186.19999694824</ele>
        <time>2021-09-12T06:32:00Z</time>
      </trkpt>
      <trkpt lat="48.35175" lon="-3.72579">
        <ele>186.19999694824</ele>
        <time>2021-09-12T06:32:01Z</time>
      </trkpt>
      <trkpt lat="48.35174" lon="-3.7258">
        <ele>186.39999389648</ele>
        <time>2021-09-12T06:32:02Z</time>
      </trkpt>
      <trkpt lat="48.35173" lon="-3.72581">
        <ele>186.39999389648</ele>
        <time>2021-09-12T06:32:03Z</time>
      </trkpt>
      <trkpt lat="48.35172" lon="-3.72583">
        <ele>186.19999694824</ele>
        <time>2021-09-12T06:32:04Z</time>
      </trkpt>
      <trkpt lat="48.35171" lon="-3.72585">
        <ele>186.39999389648</ele>
        <time>2021-09-12T06:32:05Z</time>
      </trkpt>
      <trkpt lat="48.3517" lon="-3.72588">
        <ele>186.39999389648</ele>
        <time>2021-09-12T06:32:06Z</time>
      </trkpt>
      <trkpt lat="48.35169" lon="-3.72591">
        <ele>186.39999389648</ele>
        <time>2021-09-12T06:32:07Z</time>
      </trkpt>
      <trkpt lat="48.35167" lon="-3.72596">
        <ele>186.39999389648</ele>
        <time>2021-09-12T06:32:08Z</time>
      </trkpt>
      <trkpt lat="48.35166" lon="-3.72599">
        <ele>186.39999389648</ele>
        <time>2021-09-12T06:32:09Z</time>
      </trkpt>
      <trkpt lat="48.35165" lon="-3.72602">
        <ele>186.39999389648</ele>
        <time>2021-09-12T06:32:10Z</time>
      </trkpt>
      <trkpt lat="48.35163" lon="-3.72605">
        <ele>186.39999389648</ele>
        <time>2021-09-12T06:32:11Z</time>
      </trkpt>
      <trkpt lat="48.35162" lon="-3.72608">
        <ele>186.39999389648</ele>
        <time>2021-09-12T06:32:12Z</time>
      </trkpt>
      <trkpt lat="48.3516" lon="-3.72611">
        <ele>186.39999389648</ele>
        <time>2021-09-12T06:32:13Z</time>
      </trkpt>
      <trkpt lat="48.35158" lon="-3.72613">
        <ele>186.39999389648</ele>
        <time>2021-09-12T06:32:14Z</time>
      </trkpt>
      <trkpt lat="48.35157" lon="-3.72616">
        <ele>186.39999389648</ele>
        <time>2021-09-12T06:32:15Z</time>
      </trkpt>
      <trkpt lat="48.35157" lon="-3.72619">
        <ele>186.39999389648</ele>
        <time>2021-09-12T06:32:16Z</time>
      </trkpt>
      <trkpt lat="48.35155" lon="-3.72622">
        <ele>186.39999389648</ele>
        <time>2021-09-12T06:32:17Z</time>
      </trkpt>
      <trkpt lat="48.35153" lon="-3.72627">
        <ele>186.60000610352</ele>
        <time>2021-09-12T06:32:18Z</time>
      </trkpt>
      <trkpt lat="48.35152" lon="-3.7263">
        <ele>186.60000610352</ele>
        <time>2021-09-12T06:32:19Z</time>
      </trkpt>
      <trkpt lat="48.35151" lon="-3.72634">
        <ele>186.80000305176</ele>
        <time>2021-09-12T06:32:20Z</time>
      </trkpt>
      <trkpt lat="48.35148" lon="-3.72638">
        <ele>186.80000305176</ele>
        <time>2021-09-12T06:32:21Z</time>
      </trkpt>
      <trkpt lat="48.35147" lon="-3.72641">
        <ele>186.80000305176</ele>
        <time>2021-09-12T06:32:22Z</time>
      </trkpt>
      <trkpt lat="48.35147" lon="-3.72641">
        <ele>186.80000305176</ele>
        <time>2021-09-12T06:32:23Z</time>
      </trkpt>
      <trkpt lat="48.35146" lon="-3.72644">
        <ele>187.19999694824</ele>
        <time>2021-09-12T06:32:24Z</time>
      </trkpt>
      <trkpt lat="48.35144" lon="-3.72647">
        <ele>187.19999694824</ele>
        <time>2021-09-12T06:32:25Z</time>
      </trkpt>
      <trkpt lat="48.35143" lon="-3.72651">
        <ele>187.19999694824</ele>
        <time>2021-09-12T06:32:26Z</time>
      </trkpt>
      <trkpt lat="48.35142" lon="-3.72655">
        <ele>187.19999694824</ele>
        <time>2021-09-12T06:32:27Z</time>
      </trkpt>
      <trkpt lat="48.35141" lon="-3.72657">
        <ele>187.19999694824</ele>
        <time>2021-09-12T06:32:28Z</time>
      </trkpt>
      <trkpt lat="48.35138" lon="-3.72664">
        <ele>187.19999694824</ele>
        <time>2021-09-12T06:32:29Z</time>
      </trkpt>
      <trkpt lat="48.35136" lon="-3.72667">
        <ele>187.19999694824</ele>
        <time>2021-09-12T06:32:30Z</time>
      </trkpt>
      <trkpt lat="48.35134" lon="-3.7267">
        <ele>187.19999694824</ele>
        <time>2021-09-12T06:32:31Z</time>
      </trkpt>
      <trkpt lat="48.35134" lon="-3.72674">
        <ele>187.39999389648</ele>
        <time>2021-09-12T06:32:32Z</time>
      </trkpt>
      <trkpt lat="48.35133" lon="-3.72676">
        <ele>187.39999389648</ele>
        <time>2021-09-12T06:32:33Z</time>
      </trkpt>
      <trkpt lat="48.35132" lon="-3.72677">
        <ele>187.39999389648</ele>
        <time>2021-09-12T06:32:34Z</time>
      </trkpt>
      <trkpt lat="48.3513" lon="-3.72679">
        <ele>187.39999389648</ele>
        <time>2021-09-12T06:32:35Z</time>
      </trkpt>
      <trkpt lat="48.3513" lon="-3.7268">
        <ele>187.39999389648</ele>
        <time>2021-09-12T06:32:36Z</time>
      </trkpt>
      <trkpt lat="48.3513" lon="-3.7268">
        <ele>187.39999389648</ele>
        <time>2021-09-12T06:32:37Z</time>
      </trkpt>
      <trkpt lat="48.35124" lon="-3.7269">
        <ele>187.60000610352</ele>
        <time>2021-09-12T06:33:30Z</time>
      </trkpt>
      <trkpt lat="48.35122" lon="-3.72693">
        <ele>187.60000610352</ele>
        <time>2021-09-12T06:33:31Z</time>
      </trkpt>
      <trkpt lat="48.35121" lon="-3.72696">
        <ele>187.60000610352</ele>
        <time>2021-09-12T06:33:32Z</time>
      </trkpt>
      <trkpt lat="48.3512" lon="-3.72699">
        <ele>187.80000305176</ele>
        <time>2021-09-12T06:33:33Z</time>
      </trkpt>
      <trkpt lat="48.35118" lon="-3.72701">
        <ele>187.80000305176</ele>
        <time>2021-09-12T06:33:34Z</time>
      </trkpt>
      <trkpt lat="48.35117" lon="-3.72703">
        <ele>188.39999389648</ele>
        <time>2021-09-12T06:33:35Z</time>
      </trkpt>
      <trkpt lat="48.35115" lon="-3.72705">
        <ele>188.39999389648</ele>
        <time>2021-09-12T06:33:36Z</time>
      </trkpt>
      <trkpt lat="48.35115" lon="-3.72706">
        <ele>188.39999389648</ele>
        <time>2021-09-12T06:33:37Z</time>
      </trkpt>
      <trkpt lat="48.35114" lon="-3.72706">
        <ele>188.60000610352</ele>
        <time>2021-09-12T06:33:38Z</time>
      </trkpt>
      <trkpt lat="48.35113" lon="-3.72708">
        <ele>188.60000610352</ele>
        <time>2021-09-12T06:33:39Z</time>
      </trkpt>
      <trkpt lat="48.35112" lon="-3.72711">
        <ele>189</ele>
        <time>2021-09-12T06:33:40Z</time>
      </trkpt>
      <trkpt lat="48.35111" lon="-3.72712">
        <ele>189</ele>
        <time>2021-09-12T06:33:41Z</time>
      </trkpt>
      <trkpt lat="48.3511" lon="-3.72713">
        <ele>189</ele>
        <time>2021-09-12T06:33:42Z</time>
      </trkpt>
      <trkpt lat="48.35109" lon="-3.72713">
        <ele>189</ele>
        <time>2021-09-12T06:33:43Z</time>
      </trkpt>
      <trkpt lat="48.35109" lon="-3.72713">
        <ele>189</ele>
        <time>2021-09-12T06:33:44Z</time>
      </trkpt>
      <trkpt lat="48.35109" lon="-3.72713">
        <ele>189</ele>
        <time>2021-09-12T06:33:45Z</time>
      </trkpt>
      <trkpt lat="48.35104" lon="-3.72721">
        <ele>189.39999389648</ele>
        <time>2021-09-12T06:34:23Z</time>
      </trkpt>
      <trkpt lat="48.35103" lon="-3.72722">
        <ele>189.39999389648</ele>
        <time>2021-09-12T06:34:24Z</time>
      </trkpt>
      <trkpt lat="48.35102" lon="-3.72724">
        <ele>189.39999389648</ele>
        <time>2021-09-12T06:34:25Z</time>
      </trkpt>
      <trkpt lat="48.351" lon="-3.72726">
        <ele>189.39999389648</ele>
        <time>2021-09-12T06:34:26Z</time>
      </trkpt>
      <trkpt lat="48.35099" lon="-3.72728">
        <ele>189.39999389648</ele>
        <time>2021-09-12T06:34:27Z</time>
      </trkpt>
      <trkpt lat="48.35097" lon="-3.7273">
        <ele>189.60000610352</ele>
        <time>2021-09-12T06:34:28Z</time>
      </trkpt>
      <trkpt lat="48.35096" lon="-3.72732">
        <ele>189.60000610352</ele>
        <time>2021-09-12T06:34:29Z</time>
      </trkpt>
      <trkpt lat="48.35095" lon="-3.72734">
        <ele>189.60000610352</ele>
        <time>2021-09-12T06:34:30Z</time>
      </trkpt>
      <trkpt lat="48.35093" lon="-3.72737">
        <ele>189.60000610352</ele>
        <time>2021-09-12T06:34:31Z</time>
      </trkpt>
      <trkpt lat="48.35092" lon="-3.7274">
        <ele>189.60000610352</ele>
        <time>2021-09-12T06:34:32Z</time>
      </trkpt>
      <trkpt lat="48.35091" lon="-3.72742">
        <ele>189.60000610352</ele>
        <time>2021-09-12T06:34:33Z</time>
      </trkpt>
      <trkpt lat="48.3509" lon="-3.72743">
        <ele>189.60000610352</ele>
        <time>2021-09-12T06:34:34Z</time>
      </trkpt>
      <trkpt lat="48.35089" lon="-3.72744">
        <ele>189.60000610352</ele>
        <time>2021-09-12T06:34:35Z</time>
      </trkpt>
      <trkpt lat="48.35089" lon="-3.72744">
        <ele>189.60000610352</ele>
        <time>2021-09-12T06:34:36Z</time>
      </trkpt>
      <trkpt lat="48.35088" lon="-3.72746">
        <ele>189.60000610352</ele>
        <time>2021-09-12T06:34:37Z</time>
      </trkpt>
      <trkpt lat="48.35087" lon="-3.72748">
        <ele>189.60000610352</ele>
        <time>2021-09-12T06:34:38Z</time>
      </trkpt>
      <trkpt lat="48.35085" lon="-3.72749">
        <ele>189.60000610352</ele>
        <time>2021-09-12T06:34:39Z</time>
      </trkpt>
      <trkpt lat="48.35084" lon="-3.72751">
        <ele>189.60000610352</ele>
        <time>2021-09-12T06:34:40Z</time>
      </trkpt>
      <trkpt lat="48.35083" lon="-3.72753">
        <ele>189.60000610352</ele>
        <time>2021-09-12T06:34:41Z</time>
      </trkpt>
      <trkpt lat="48.35082" lon="-3.72754">
        <ele>189.60000610352</ele>
        <time>2021-09-12T06:34:42Z</time>
      </trkpt>
      <trkpt lat="48.3508" lon="-3.72754">
        <ele>189.39999389648</ele>
        <time>2021-09-12T06:34:43Z</time>
      </trkpt>
      <trkpt lat="48.3508" lon="-3.72754">
        <ele>189.39999389648</ele>
        <time>2021-09-12T06:34:44Z</time>
      </trkpt>
      <trkpt lat="48.35079" lon="-3.72756">
        <ele>189.39999389648</ele>
        <time>2021-09-12T06:34:45Z</time>
      </trkpt>
      <trkpt lat="48.35079" lon="-3.72758">
        <ele>189.39999389648</ele>
        <time>2021-09-12T06:34:46Z</time>
      </trkpt>
      <trkpt lat="48.35079" lon="-3.72758">
        <ele>189.60000610352</ele>
        <time>2021-09-12T06:34:47Z</time>
      </trkpt>
      <trkpt lat="48.35078" lon="-3.72759">
        <ele>189.80000305176</ele>
        <time>2021-09-12T06:34:48Z</time>
      </trkpt>
      <trkpt lat="48.35078" lon="-3.7276">
        <ele>189.80000305176</ele>
        <time>2021-09-12T06:34:49Z</time>
      </trkpt>
      <trkpt lat="48.35078" lon="-3.7276">
        <ele>189.80000305176</ele>
        <time>2021-09-12T06:34:50Z</time>
      </trkpt>
      <trkpt lat="48.35078" lon="-3.7276">
        <ele>189.80000305176</ele>
        <time>2021-09-12T06:34:51Z</time>
      </trkpt>
      <trkpt lat="48.35077" lon="-3.72761">
        <ele>189.80000305176</ele>
        <time>2021-09-12T06:34:52Z</time>
      </trkpt>
      <trkpt lat="48.35076" lon="-3.72763">
        <ele>189.80000305176</ele>
        <time>2021-09-12T06:34:53Z</time>
      </trkpt>
      <trkpt lat="48.35076" lon="-3.72764">
        <ele>189.80000305176</ele>
        <time>2021-09-12T06:34:54Z</time>
      </trkpt>
      <trkpt lat="48.35075" lon="-3.72765">
        <ele>189.80000305176</ele>
        <time>2021-09-12T06:34:55Z</time>
      </trkpt>
      <trkpt lat="48.35074" lon="-3.72766">
        <ele>189.80000305176</ele>
        <time>2021-09-12T06:34:56Z</time>
      </trkpt>
      <trkpt lat="48.35074" lon="-3.72768">
        <ele>189.80000305176</ele>
        <time>2021-09-12T06:34:57Z</time>
      </trkpt>
      <trkpt lat="48.35073" lon="-3.72768">
        <ele>189.80000305176</ele>
        <time>2021-09-12T06:34:58Z</time>
      </trkpt>
      <trkpt lat="48.35073" lon="-3.72769">
        <ele>190</ele>
        <time>2021-09-12T06:34:59Z</time>
      </trkpt>
      <trkpt lat="48.35073" lon="-3.72769">
        <ele>190.19999694824</ele>
        <time>2021-09-12T06:35:00Z</time>
      </trkpt>
      <trkpt lat="48.35073" lon="-3.72769">
        <ele>190.19999694824</ele>
        <time>2021-09-12T06:35:01Z</time>
      </trkpt>
      <trkpt lat="48.35072" lon="-3.7277">
        <ele>190.19999694824</ele>
        <time>2021-09-12T06:35:02Z</time>
      </trkpt>
      <trkpt lat="48.3507" lon="-3.7277">
        <ele>190.19999694824</ele>
        <time>2021-09-12T06:35:03Z</time>
      </trkpt>
      <trkpt lat="48.35069" lon="-3.7277">
        <ele>190.19999694824</ele>
        <time>2021-09-12T06:35:04Z</time>
      </trkpt>
      <trkpt lat="48.35068" lon="-3.72769">
        <ele>190.60000610352</ele>
        <time>2021-09-12T06:35:05Z</time>
      </trkpt>
      <trkpt lat="48.35067" lon="-3.72769">
        <ele>190.60000610352</ele>
        <time>2021-09-12T06:35:06Z</time>
      </trkpt>
      <trkpt lat="48.35066" lon="-3.72769">
        <ele>190.80000305176</ele>
        <time>2021-09-12T06:35:07Z</time>
      </trkpt>
      <trkpt lat="48.35065" lon="-3.7277">
        <ele>190.80000305176</ele>
        <time>2021-09-12T06:35:08Z</time>
      </trkpt>
      <trkpt lat="48.35063" lon="-3.7277">
        <ele>190.80000305176</ele>
        <time>2021-09-12T06:35:09Z</time>
      </trkpt>
      <trkpt lat="48.35062" lon="-3.7277">
        <ele>190.80000305176</ele>
        <time>2021-09-12T06:35:10Z</time>
      </trkpt>
      <trkpt lat="48.35061" lon="-3.7277">
        <ele>190.80000305176</ele>
        <time>2021-09-12T06:35:11Z</time>
      </trkpt>
      <trkpt lat="48.3506" lon="-3.72769">
        <ele>190.80000305176</ele>
        <time>2021-09-12T06:35:12Z</time>
      </trkpt>
      <trkpt lat="48.35059" lon="-3.72768">
        <ele>190.80000305176</ele>
        <time>2021-09-12T06:35:13Z</time>
      </trkpt>
      <trkpt lat="48.35058" lon="-3.72767">
        <ele>190.80000305176</ele>
        <time>2021-09-12T06:35:14Z</time>
      </trkpt>
      <trkpt lat="48.35058" lon="-3.72765">
        <ele>191</ele>
        <time>2021-09-12T06:35:15Z</time>
      </trkpt>
      <trkpt lat="48.35059" lon="-3.72764">
        <ele>191</ele>
        <time>2021-09-12T06:35:16Z</time>
      </trkpt>
      <trkpt lat="48.35059" lon="-3.72762">
        <ele>191</ele>
        <time>2021-09-12T06:35:17Z</time>
      </trkpt>
      <trkpt lat="48.35059" lon="-3.7276">
        <ele>191.19999694824</ele>
        <time>2021-09-12T06:35:18Z</time>
      </trkpt>
      <trkpt lat="48.35059" lon="-3.72759">
        <ele>191.19999694824</ele>
        <time>2021-09-12T06:35:19Z</time>
      </trkpt>
      <trkpt lat="48.35058" lon="-3.72756">
        <ele>191.19999694824</ele>
        <time>2021-09-12T06:35:20Z</time>
      </trkpt>
      <trkpt lat="48.35056" lon="-3.72754">
        <ele>191.19999694824</ele>
        <time>2021-09-12T06:35:21Z</time>
      </trkpt>
      <trkpt lat="48.35054" lon="-3.72751">
        <ele>191</ele>
        <time>2021-09-12T06:35:22Z</time>
      </trkpt>
      <trkpt lat="48.35053" lon="-3.72749">
        <ele>191</ele>
        <time>2021-09-12T06:35:23Z</time>
      </trkpt>
      <trkpt lat="48.35053" lon="-3.72748">
        <ele>191</ele>
        <time>2021-09-12T06:35:24Z</time>
      </trkpt>
      <trkpt lat="48.35052" lon="-3.72746">
        <ele>190.80000305176</ele>
        <time>2021-09-12T06:35:25Z</time>
      </trkpt>
      <trkpt lat="48.3505" lon="-3.72744">
        <ele>190.80000305176</ele>
        <time>2021-09-12T06:35:26Z</time>
      </trkpt>
      <trkpt lat="48.35047" lon="-3.72741">
        <ele>190.60000610352</ele>
        <time>2021-09-12T06:35:27Z</time>
      </trkpt>
      <trkpt lat="48.35045" lon="-3.72737">
        <ele>190.60000610352</ele>
        <time>2021-09-12T06:35:28Z</time>
      </trkpt>
      <trkpt lat="48.35042" lon="-3.72732">
        <ele>190.39999389648</ele>
        <time>2021-09-12T06:35:29Z</time>
      </trkpt>
      <trkpt lat="48.35039" lon="-3.72728">
        <ele>190.19999694824</ele>
        <time>2021-09-12T06:35:30Z</time>
      </trkpt>
      <trkpt lat="48.35036" lon="-3.72725">
        <ele>190</ele>
        <time>2021-09-12T06:35:31Z</time>
      </trkpt>
      <trkpt lat="48.35033" lon="-3.72721">
        <ele>189.80000305176</ele>
        <time>2021-09-12T06:35:32Z</time>
      </trkpt>
      <trkpt lat="48.35031" lon="-3.72717">
        <ele>189.80000305176</ele>
        <time>2021-09-12T06:35:33Z</time>
      </trkpt>
      <trkpt lat="48.35029" lon="-3.72714">
        <ele>189.39999389648</ele>
        <time>2021-09-12T06:35:34Z</time>
      </trkpt>
      <trkpt lat="48.35026" lon="-3.7271">
        <ele>189.19999694824</ele>
        <time>2021-09-12T06:35:35Z</time>
      </trkpt>
      <trkpt lat="48.35023" lon="-3.72704">
        <ele>189</ele>
        <time>2021-09-12T06:35:36Z</time>
      </trkpt>
      <trkpt lat="48.35019" lon="-3.72698">
        <ele>188.60000610352</ele>
        <time>2021-09-12T06:35:37Z</time>
      </trkpt>
      <trkpt lat="48.35016" lon="-3.72692">
        <ele>188.39999389648</ele>
        <time>2021-09-12T06:35:38Z</time>
      </trkpt>
      <trkpt lat="48.35012" lon="-3.72686">
        <ele>188.19999694824</ele>
        <time>2021-09-12T06:35:39Z</time>
      </trkpt>
      <trkpt lat="48.35009" lon="-3.7268">
        <ele>188</ele>
        <time>2021-09-12T06:35:40Z</time>
      </trkpt>
      <trkpt lat="48.35008" lon="-3.72676">
        <ele>187.80000305176</ele>
        <time>2021-09-12T06:35:41Z</time>
      </trkpt>
      <trkpt lat="48.35009" lon="-3.72672">
        <ele>187.60000610352</ele>
        <time>2021-09-12T06:35:42Z</time>
      </trkpt>
      <trkpt lat="48.3501" lon="-3.72667">
        <ele>187.60000610352</ele>
        <time>2021-09-12T06:35:43Z</time>
      </trkpt>
      <trkpt lat="48.3501" lon="-3.72662">
        <ele>187.60000610352</ele>
        <time>2021-09-12T06:35:44Z</time>
      </trkpt>
      <trkpt lat="48.35009" lon="-3.72658">
        <ele>187.39999389648</ele>
        <time>2021-09-12T06:35:45Z</time>
      </trkpt>
      <trkpt lat="48.35008" lon="-3.72655">
        <ele>187.39999389648</ele>
        <time>2021-09-12T06:35:46Z</time>
      </trkpt>
      <trkpt lat="48.35006" lon="-3.7265">
        <ele>187.19999694824</ele>
        <time>2021-09-12T06:35:47Z</time>
      </trkpt>
      <trkpt lat="48.35005" lon="-3.72646">
        <ele>186.80000305176</ele>
        <time>2021-09-12T06:35:48Z</time>
      </trkpt>
      <trkpt lat="48.35006" lon="-3.72642">
        <ele>186.39999389648</ele>
        <time>2021-09-12T06:35:49Z</time>
      </trkpt>
      <trkpt lat="48.35008" lon="-3.72638">
        <ele>186</ele>
        <time>2021-09-12T06:35:50Z</time>
      </trkpt>
      <trkpt lat="48.3501" lon="-3.72634">
        <ele>186</ele>
        <time>2021-09-12T06:35:51Z</time>
      </trkpt>
      <trkpt lat="48.35014" lon="-3.72628">
        <ele>186</ele>
        <time>2021-09-12T06:35:52Z</time>
      </trkpt>
      <trkpt lat="48.35017" lon="-3.72622">
        <ele>186</ele>
        <time>2021-09-12T06:35:53Z</time>
      </trkpt>
      <trkpt lat="48.35021" lon="-3.72614">
        <ele>186</ele>
        <time>2021-09-12T06:35:54Z</time>
      </trkpt>
      <trkpt lat="48.35022" lon="-3.72606">
        <ele>185.80000305176</ele>
        <time>2021-09-12T06:35:55Z</time>
      </trkpt>
      <trkpt lat="48.35023" lon="-3.72601">
        <ele>185.80000305176</ele>
        <time>2021-09-12T06:35:56Z</time>
      </trkpt>
      <trkpt lat="48.35026" lon="-3.72596">
        <ele>185.80000305176</ele>
        <time>2021-09-12T06:35:57Z</time>
      </trkpt>
      <trkpt lat="48.35027" lon="-3.72591">
        <ele>185.80000305176</ele>
        <time>2021-09-12T06:35:58Z</time>
      </trkpt>
      <trkpt lat="48.35028" lon="-3.72587">
        <ele>185.80000305176</ele>
        <time>2021-09-12T06:35:59Z</time>
      </trkpt>
      <trkpt lat="48.3503" lon="-3.72582">
        <ele>186</ele>
        <time>2021-09-12T06:36:00Z</time>
      </trkpt>
      <trkpt lat="48.35034" lon="-3.72576">
        <ele>185.80000305176</ele>
        <time>2021-09-12T06:36:01Z</time>
      </trkpt>
      <trkpt lat="48.35037" lon="-3.72569">
        <ele>185.80000305176</ele>
        <time>2021-09-12T06:36:02Z</time>
      </trkpt>
      <trkpt lat="48.35039" lon="-3.72564">
        <ele>185.80000305176</ele>
        <time>2021-09-12T06:36:03Z</time>
      </trkpt>
      <trkpt lat="48.35042" lon="-3.72558">
        <ele>185.60000610352</ele>
        <time>2021-09-12T06:36:04Z</time>
      </trkpt>
      <trkpt lat="48.35045" lon="-3.72551">
        <ele>185.60000610352</ele>
        <time>2021-09-12T06:36:05Z</time>
      </trkpt>
      <trkpt lat="48.35047" lon="-3.72546">
        <ele>185.39999389648</ele>
        <time>2021-09-12T06:36:06Z</time>
      </trkpt>
      <trkpt lat="48.35049" lon="-3.72542">
        <ele>185.39999389648</ele>
        <time>2021-09-12T06:36:07Z</time>
      </trkpt>
      <trkpt lat="48.35051" lon="-3.72539">
        <ele>185.39999389648</ele>
        <time>2021-09-12T06:36:08Z</time>
      </trkpt>
      <trkpt lat="48.35052" lon="-3.72535">
        <ele>185.39999389648</ele>
        <time>2021-09-12T06:36:09Z</time>
      </trkpt>
      <trkpt lat="48.35052" lon="-3.72532">
        <ele>185.19999694824</ele>
        <time>2021-09-12T06:36:10Z</time>
      </trkpt>
      <trkpt lat="48.3505" lon="-3.72529">
        <ele>185</ele>
        <time>2021-09-12T06:36:11Z</time>
      </trkpt>
      <trkpt lat="48.35049" lon="-3.72526">
        <ele>185</ele>
        <time>2021-09-12T06:36:12Z</time>
      </trkpt>
      <trkpt lat="48.35049" lon="-3.72524">
        <ele>185</ele>
        <time>2021-09-12T06:36:13Z</time>
      </trkpt>
      <trkpt lat="48.35047" lon="-3.72523">
        <ele>184.60000610352</ele>
        <time>2021-09-12T06:36:14Z</time>
      </trkpt>
      <trkpt lat="48.35046" lon="-3.7252">
        <ele>183.80000305176</ele>
        <time>2021-09-12T06:36:15Z</time>
      </trkpt>
      <trkpt lat="48.35046" lon="-3.72517">
        <ele>183.80000305176</ele>
        <time>2021-09-12T06:36:16Z</time>
      </trkpt>
      <trkpt lat="48.35045" lon="-3.72514">
        <ele>183.60000610352</ele>
        <time>2021-09-12T06:36:17Z</time>
      </trkpt>
      <trkpt lat="48.35045" lon="-3.72514">
        <ele>183.39999389648</ele>
        <time>2021-09-12T06:36:18Z</time>
      </trkpt>
      <trkpt lat="48.35044" lon="-3.72514">
        <ele>183.39999389648</ele>
        <time>2021-09-12T06:36:19Z</time>
      </trkpt>
      <trkpt lat="48.35042" lon="-3.72514">
        <ele>183</ele>
        <time>2021-09-12T06:36:20Z</time>
      </trkpt>
      <trkpt lat="48.3504" lon="-3.72515">
        <ele>183</ele>
        <time>2021-09-12T06:36:21Z</time>
      </trkpt>
      <trkpt lat="48.35038" lon="-3.72512">
        <ele>182.80000305176</ele>
        <time>2021-09-12T06:36:22Z</time>
      </trkpt>
      <trkpt lat="48.35037" lon="-3.72509">
        <ele>182.80000305176</ele>
        <time>2021-09-12T06:36:23Z</time>
      </trkpt>
      <trkpt lat="48.35036" lon="-3.72505">
        <ele>182.60000610352</ele>
        <time>2021-09-12T06:36:24Z</time>
      </trkpt>
      <trkpt lat="48.35034" lon="-3.72502">
        <ele>182.19999694824</ele>
        <time>2021-09-12T06:36:25Z</time>
      </trkpt>
      <trkpt lat="48.35035" lon="-3.72498">
        <ele>181.80000305176</ele>
        <time>2021-09-12T06:36:26Z</time>
      </trkpt>
      <trkpt lat="48.35037" lon="-3.72495">
        <ele>181.60000610352</ele>
        <time>2021-09-12T06:36:27Z</time>
      </trkpt>
      <trkpt lat="48.3504" lon="-3.72491">
        <ele>181.60000610352</ele>
        <time>2021-09-12T06:36:28Z</time>
      </trkpt>
      <trkpt lat="48.35041" lon="-3.7249">
        <ele>181.60000610352</ele>
        <time>2021-09-12T06:36:29Z</time>
      </trkpt>
      <trkpt lat="48.35044" lon="-3.7249">
        <ele>181.60000610352</ele>
        <time>2021-09-12T06:36:30Z</time>
      </trkpt>
      <trkpt lat="48.35047" lon="-3.72489">
        <ele>181.60000610352</ele>
        <time>2021-09-12T06:36:31Z</time>
      </trkpt>
      <trkpt lat="48.35049" lon="-3.72488">
        <ele>181.60000610352</ele>
        <time>2021-09-12T06:36:32Z</time>
      </trkpt>
      <trkpt lat="48.3505" lon="-3.72487">
        <ele>182.19999694824</ele>
        <time>2021-09-12T06:36:33Z</time>
      </trkpt>
      <trkpt lat="48.35052" lon="-3.72486">
        <ele>182.39999389648</ele>
        <time>2021-09-12T06:36:34Z</time>
      </trkpt>
      <trkpt lat="48.35053" lon="-3.72483">
        <ele>182.39999389648</ele>
        <time>2021-09-12T06:36:35Z</time>
      </trkpt>
      <trkpt lat="48.35053" lon="-3.72481">
        <ele>182.39999389648</ele>
        <time>2021-09-12T06:36:36Z</time>
      </trkpt>
      <trkpt lat="48.35055" lon="-3.72478">
        <ele>182.39999389648</ele>
        <time>2021-09-12T06:36:37Z</time>
      </trkpt>
      <trkpt lat="48.35055" lon="-3.72475">
        <ele>182.39999389648</ele>
        <time>2021-09-12T06:36:38Z</time>
      </trkpt>
      <trkpt lat="48.35056" lon="-3.72473">
        <ele>182.19999694824</ele>
        <time>2021-09-12T06:36:39Z</time>
      </trkpt>
      <trkpt lat="48.35053" lon="-3.72472">
        <ele>182.19999694824</ele>
        <time>2021-09-12T06:36:40Z</time>
      </trkpt>
      <trkpt lat="48.3505" lon="-3.72471">
        <ele>182.19999694824</ele>
        <time>2021-09-12T06:36:41Z</time>
      </trkpt>
      <trkpt lat="48.35047" lon="-3.72469">
        <ele>182</ele>
        <time>2021-09-12T06:36:42Z</time>
      </trkpt>
      <trkpt lat="48.35044" lon="-3.72465">
        <ele>181.60000610352</ele>
        <time>2021-09-12T06:36:43Z</time>
      </trkpt>
      <trkpt lat="48.35042" lon="-3.72463">
        <ele>181.39999389648</ele>
        <time>2021-09-12T06:36:44Z</time>
      </trkpt>
      <trkpt lat="48.3504" lon="-3.72461">
        <ele>181.19999694824</ele>
        <time>2021-09-12T06:36:45Z</time>
      </trkpt>
      <trkpt lat="48.35037" lon="-3.72458">
        <ele>180.60000610352</ele>
        <time>2021-09-12T06:36:46Z</time>
      </trkpt>
      <trkpt lat="48.35034" lon="-3.72455">
        <ele>180.19999694824</ele>
        <time>2021-09-12T06:36:47Z</time>
      </trkpt>
      <trkpt lat="48.35032" lon="-3.72452">
        <ele>180</ele>
        <time>2021-09-12T06:36:48Z</time>
      </trkpt>
      <trkpt lat="48.3503" lon="-3.72448">
        <ele>179.19999694824</ele>
        <time>2021-09-12T06:36:49Z</time>
      </trkpt>
      <trkpt lat="48.35028" lon="-3.72444">
        <ele>179.19999694824</ele>
        <time>2021-09-12T06:36:50Z</time>
      </trkpt>
      <trkpt lat="48.35025" lon="-3.72442">
        <ele>178.39999389648</ele>
        <time>2021-09-12T06:36:51Z</time>
      </trkpt>
      <trkpt lat="48.35023" lon="-3.72439">
        <ele>178.39999389648</ele>
        <time>2021-09-12T06:36:52Z</time>
      </trkpt>
      <trkpt lat="48.35023" lon="-3.72436">
        <ele>178.19999694824</ele>
        <time>2021-09-12T06:36:53Z</time>
      </trkpt>
      <trkpt lat="48.35023" lon="-3.72434">
        <ele>178.19999694824</ele>
        <time>2021-09-12T06:36:54Z</time>
      </trkpt>
      <trkpt lat="48.35024" lon="-3.72431">
        <ele>178.19999694824</ele>
        <time>2021-09-12T06:36:55Z</time>
      </trkpt>
      <trkpt lat="48.35024" lon="-3.72428">
        <ele>177.80000305176</ele>
        <time>2021-09-12T06:36:56Z</time>
      </trkpt>
      <trkpt lat="48.35022" lon="-3.72423">
        <ele>177.60000610352</ele>
        <time>2021-09-12T06:36:57Z</time>
      </trkpt>
      <trkpt lat="48.3502" lon="-3.72419">
        <ele>177.39999389648</ele>
        <time>2021-09-12T06:36:58Z</time>
      </trkpt>
      <trkpt lat="48.35017" lon="-3.72416">
        <ele>177.19999694824</ele>
        <time>2021-09-12T06:36:59Z</time>
      </trkpt>
      <trkpt lat="48.35015" lon="-3.72413">
        <ele>177</ele>
        <time>2021-09-12T06:37:00Z</time>
      </trkpt>
      <trkpt lat="48.35012" lon="-3.72411">
        <ele>177</ele>
        <time>2021-09-12T06:37:01Z</time>
      </trkpt>
      <trkpt lat="48.3501" lon="-3.72407">
        <ele>177</ele>
        <time>2021-09-12T06:37:02Z</time>
      </trkpt>
      <trkpt lat="48.35009" lon="-3.72405">
        <ele>177</ele>
        <time>2021-09-12T06:37:03Z</time>
      </trkpt>
      <trkpt lat="48.35007" lon="-3.72402">
        <ele>176.60000610352</ele>
        <time>2021-09-12T06:37:04Z</time>
      </trkpt>
      <trkpt lat="48.35006" lon="-3.72396">
        <ele>176.39999389648</ele>
        <time>2021-09-12T06:37:05Z</time>
      </trkpt>
      <trkpt lat="48.35004" lon="-3.72391">
        <ele>176.39999389648</ele>
        <time>2021-09-12T06:37:06Z</time>
      </trkpt>
      <trkpt lat="48.35002" lon="-3.72389">
        <ele>176.19999694824</ele>
        <time>2021-09-12T06:37:07Z</time>
      </trkpt>
      <trkpt lat="48.34999" lon="-3.72388">
        <ele>176.19999694824</ele>
        <time>2021-09-12T06:37:08Z</time>
      </trkpt>
      <trkpt lat="48.34996" lon="-3.72388">
        <ele>176.19999694824</ele>
        <time>2021-09-12T06:37:09Z</time>
      </trkpt>
      <trkpt lat="48.34994" lon="-3.72388">
        <ele>176.19999694824</ele>
        <time>2021-09-12T06:37:10Z</time>
      </trkpt>
      <trkpt lat="48.34991" lon="-3.72385">
        <ele>176.19999694824</ele>
        <time>2021-09-12T06:37:11Z</time>
      </trkpt>
      <trkpt lat="48.34986" lon="-3.7238">
        <ele>176.19999694824</ele>
        <time>2021-09-12T06:37:12Z</time>
      </trkpt>
      <trkpt lat="48.34982" lon="-3.72376">
        <ele>176.19999694824</ele>
        <time>2021-09-12T06:37:13Z</time>
      </trkpt>
      <trkpt lat="48.34979" lon="-3.72374">
        <ele>176.19999694824</ele>
        <time>2021-09-12T06:37:14Z</time>
      </trkpt>
      <trkpt lat="48.34977" lon="-3.72372">
        <ele>176.19999694824</ele>
        <time>2021-09-12T06:37:15Z</time>
      </trkpt>
      <trkpt lat="48.34975" lon="-3.7237">
        <ele>176.19999694824</ele>
        <time>2021-09-12T06:37:16Z</time>
      </trkpt>
      <trkpt lat="48.34974" lon="-3.72366">
        <ele>176.19999694824</ele>
        <time>2021-09-12T06:37:17Z</time>
      </trkpt>
      <trkpt lat="48.34972" lon="-3.72364">
        <ele>176</ele>
        <time>2021-09-12T06:37:18Z</time>
      </trkpt>
      <trkpt lat="48.34969" lon="-3.72362">
        <ele>176</ele>
        <time>2021-09-12T06:37:19Z</time>
      </trkpt>
      <trkpt lat="48.34966" lon="-3.72359">
        <ele>176</ele>
        <time>2021-09-12T06:37:20Z</time>
      </trkpt>
      <trkpt lat="48.34963" lon="-3.7236">
        <ele>176</ele>
        <time>2021-09-12T06:37:21Z</time>
      </trkpt>
      <trkpt lat="48.3496" lon="-3.72357">
        <ele>176</ele>
        <time>2021-09-12T06:37:22Z</time>
      </trkpt>
      <trkpt lat="48.34958" lon="-3.72348">
        <ele>176</ele>
        <time>2021-09-12T06:37:23Z</time>
      </trkpt>
      <trkpt lat="48.34957" lon="-3.72344">
        <ele>176</ele>
        <time>2021-09-12T06:37:24Z</time>
      </trkpt>
      <trkpt lat="48.34956" lon="-3.7234">
        <ele>175.80000305176</ele>
        <time>2021-09-12T06:37:25Z</time>
      </trkpt>
      <trkpt lat="48.34956" lon="-3.72338">
        <ele>175.80000305176</ele>
        <time>2021-09-12T06:37:26Z</time>
      </trkpt>
      <trkpt lat="48.34953" lon="-3.72337">
        <ele>175.80000305176</ele>
        <time>2021-09-12T06:37:27Z</time>
      </trkpt>
      <trkpt lat="48.34949" lon="-3.72335">
        <ele>175.80000305176</ele>
        <time>2021-09-12T06:37:28Z</time>
      </trkpt>
      <trkpt lat="48.34945" lon="-3.72335">
        <ele>175.80000305176</ele>
        <time>2021-09-12T06:37:29Z</time>
      </trkpt>
      <trkpt lat="48.34942" lon="-3.72333">
        <ele>176</ele>
        <time>2021-09-12T06:37:30Z</time>
      </trkpt>
      <trkpt lat="48.3494" lon="-3.72328">
        <ele>176</ele>
        <time>2021-09-12T06:37:31Z</time>
      </trkpt>
      <trkpt lat="48.34939" lon="-3.72323">
        <ele>176</ele>
        <time>2021-09-12T06:37:32Z</time>
      </trkpt>
      <trkpt lat="48.34939" lon="-3.72315">
        <ele>176</ele>
        <time>2021-09-12T06:37:33Z</time>
      </trkpt>
      <trkpt lat="48.34939" lon="-3.72314">
        <ele>176</ele>
        <time>2021-09-12T06:37:34Z</time>
      </trkpt>
      <trkpt lat="48.34936" lon="-3.72312">
        <ele>175.80000305176</ele>
        <time>2021-09-12T06:37:35Z</time>
      </trkpt>
      <trkpt lat="48.34931" lon="-3.7231">
        <ele>175.80000305176</ele>
        <time>2021-09-12T06:37:36Z</time>
      </trkpt>
      <trkpt lat="48.34928" lon="-3.72309">
        <ele>175.80000305176</ele>
        <time>2021-09-12T06:37:37Z</time>
      </trkpt>
      <trkpt lat="48.34925" lon="-3.72308">
        <ele>175.80000305176</ele>
        <time>2021-09-12T06:37:38Z</time>
      </trkpt>
      <trkpt lat="48.34923" lon="-3.7231">
        <ele>175.60000610352</ele>
        <time>2021-09-12T06:37:39Z</time>
      </trkpt>
      <trkpt lat="48.34921" lon="-3.72311">
        <ele>175.60000610352</ele>
        <time>2021-09-12T06:37:40Z</time>
      </trkpt>
      <trkpt lat="48.3492" lon="-3.72312">
        <ele>175.60000610352</ele>
        <time>2021-09-12T06:37:41Z</time>
      </trkpt>
      <trkpt lat="48.34917" lon="-3.72312">
        <ele>175.60000610352</ele>
        <time>2021-09-12T06:37:42Z</time>
      </trkpt>
      <trkpt lat="48.34914" lon="-3.72312">
        <ele>175.60000610352</ele>
        <time>2021-09-12T06:37:43Z</time>
      </trkpt>
      <trkpt lat="48.34908" lon="-3.72311">
        <ele>175.60000610352</ele>
        <time>2021-09-12T06:37:44Z</time>
      </trkpt>
      <trkpt lat="48.34904" lon="-3.72311">
        <ele>175.60000610352</ele>
        <time>2021-09-12T06:37:45Z</time>
      </trkpt>
      <trkpt lat="48.349" lon="-3.7231">
        <ele>175.19999694824</ele>
        <time>2021-09-12T06:37:46Z</time>
      </trkpt>
      <trkpt lat="48.34894" lon="-3.7231">
        <ele>175</ele>
        <time>2021-09-12T06:37:47Z</time>
      </trkpt>
      <trkpt lat="48.34889" lon="-3.72309">
        <ele>175</ele>
        <time>2021-09-12T06:37:48Z</time>
      </trkpt>
      <trkpt lat="48.34885" lon="-3.72307">
        <ele>174.80000305176</ele>
        <time>2021-09-12T06:37:49Z</time>
      </trkpt>
      <trkpt lat="48.34881" lon="-3.72306">
        <ele>174.80000305176</ele>
        <time>2021-09-12T06:37:50Z</time>
      </trkpt>
      <trkpt lat="48.34877" lon="-3.72306">
        <ele>174.80000305176</ele>
        <time>2021-09-12T06:37:51Z</time>
      </trkpt>
      <trkpt lat="48.34875" lon="-3.72307">
        <ele>174.80000305176</ele>
        <time>2021-09-12T06:37:52Z</time>
      </trkpt>
      <trkpt lat="48.34872" lon="-3.72308">
        <ele>174.80000305176</ele>
        <time>2021-09-12T06:37:53Z</time>
      </trkpt>
      <trkpt lat="48.3487" lon="-3.72306">
        <ele>174.80000305176</ele>
        <time>2021-09-12T06:37:54Z</time>
      </trkpt>
      <trkpt lat="48.34868" lon="-3.72304">
        <ele>174.60000610352</ele>
        <time>2021-09-12T06:37:55Z</time>
      </trkpt>
      <trkpt lat="48.34865" lon="-3.72303">
        <ele>174.60000610352</ele>
        <time>2021-09-12T06:37:56Z</time>
      </trkpt>
      <trkpt lat="48.34862" lon="-3.72304">
        <ele>174.39999389648</ele>
        <time>2021-09-12T06:37:57Z</time>
      </trkpt>
      <trkpt lat="48.34859" lon="-3.72304">
        <ele>174.39999389648</ele>
        <time>2021-09-12T06:37:58Z</time>
      </trkpt>
      <trkpt lat="48.34857" lon="-3.72303">
        <ele>174.39999389648</ele>
        <time>2021-09-12T06:37:59Z</time>
      </trkpt>
      <trkpt lat="48.34855" lon="-3.72302">
        <ele>174.39999389648</ele>
        <time>2021-09-12T06:38:00Z</time>
      </trkpt>
      <trkpt lat="48.34853" lon="-3.72299">
        <ele>174.19999694824</ele>
        <time>2021-09-12T06:38:01Z</time>
      </trkpt>
      <trkpt lat="48.3485" lon="-3.72296">
        <ele>174.19999694824</ele>
        <time>2021-09-12T06:38:02Z</time>
      </trkpt>
      <trkpt lat="48.34846" lon="-3.72291">
        <ele>174.19999694824</ele>
        <time>2021-09-12T06:38:03Z</time>
      </trkpt>
      <trkpt lat="48.34841" lon="-3.72287">
        <ele>172.80000305176</ele>
        <time>2021-09-12T06:38:04Z</time>
      </trkpt>
      <trkpt lat="48.34835" lon="-3.72284">
        <ele>172.80000305176</ele>
        <time>2021-09-12T06:38:05Z</time>
      </trkpt>
      <trkpt lat="48.3483" lon="-3.72282">
        <ele>172.80000305176</ele>
        <time>2021-09-12T06:38:06Z</time>
      </trkpt>
      <trkpt lat="48.34824" lon="-3.7228">
        <ele>172.39999389648</ele>
        <time>2021-09-12T06:38:07Z</time>
      </trkpt>
      <trkpt lat="48.34818" lon="-3.72278">
        <ele>172.39999389648</ele>
        <time>2021-09-12T06:38:08Z</time>
      </trkpt>
      <trkpt lat="48.34813" lon="-3.72275">
        <ele>172.39999389648</ele>
        <time>2021-09-12T06:38:09Z</time>
      </trkpt>
      <trkpt lat="48.34808" lon="-3.72272">
        <ele>172</ele>
        <time>2021-09-12T06:38:10Z</time>
      </trkpt>
      <trkpt lat="48.34803" lon="-3.72269">
        <ele>171.60000610352</ele>
        <time>2021-09-12T06:38:11Z</time>
      </trkpt>
      <trkpt lat="48.34797" lon="-3.72265">
        <ele>171.60000610352</ele>
        <time>2021-09-12T06:38:12Z</time>
      </trkpt>
      <trkpt lat="48.3479" lon="-3.72261">
        <ele>171.39999389648</ele>
        <time>2021-09-12T06:38:13Z</time>
      </trkpt>
      <trkpt lat="48.34786" lon="-3.72257">
        <ele>171</ele>
        <time>2021-09-12T06:38:14Z</time>
      </trkpt>
      <trkpt lat="48.3478" lon="-3.72252">
        <ele>171</ele>
        <time>2021-09-12T06:38:15Z</time>
      </trkpt>
      <trkpt lat="48.34775" lon="-3.72247">
        <ele>171</ele>
        <time>2021-09-12T06:38:16Z</time>
      </trkpt>
      <trkpt lat="48.34769" lon="-3.7224">
        <ele>170.80000305176</ele>
        <time>2021-09-12T06:38:17Z</time>
      </trkpt>
      <trkpt lat="48.34764" lon="-3.72233">
        <ele>170</ele>
        <time>2021-09-12T06:38:18Z</time>
      </trkpt>
      <trkpt lat="48.34759" lon="-3.72225">
        <ele>169.39999389648</ele>
        <time>2021-09-12T06:38:19Z</time>
      </trkpt>
      <trkpt lat="48.34754" lon="-3.72219">
        <ele>169</ele>
        <time>2021-09-12T06:38:20Z</time>
      </trkpt>
      <trkpt lat="48.34746" lon="-3.7221">
        <ele>168.60000610352</ele>
        <time>2021-09-12T06:38:21Z</time>
      </trkpt>
      <trkpt lat="48.34742" lon="-3.72204">
        <ele>168</ele>
        <time>2021-09-12T06:38:22Z</time>
      </trkpt>
      <trkpt lat="48.34736" lon="-3.72197">
        <ele>167.19999694824</ele>
        <time>2021-09-12T06:38:23Z</time>
      </trkpt>
      <trkpt lat="48.34729" lon="-3.72191">
        <ele>166.80000305176</ele>
        <time>2021-09-12T06:38:24Z</time>
      </trkpt>
      <trkpt lat="48.34721" lon="-3.72186">
        <ele>166.39999389648</ele>
        <time>2021-09-12T06:38:25Z</time>
      </trkpt>
      <trkpt lat="48.34714" lon="-3.72183">
        <ele>166.19999694824</ele>
        <time>2021-09-12T06:38:26Z</time>
      </trkpt>
      <trkpt lat="48.34706" lon="-3.72183">
        <ele>164.60000610352</ele>
        <time>2021-09-12T06:38:27Z</time>
      </trkpt>
      <trkpt lat="48.34697" lon="-3.72185">
        <ele>164.19999694824</ele>
        <time>2021-09-12T06:38:28Z</time>
      </trkpt>
      <trkpt lat="48.3469" lon="-3.72189">
        <ele>164</ele>
        <time>2021-09-12T06:38:29Z</time>
      </trkpt>
      <trkpt lat="48.34682" lon="-3.72193">
        <ele>163.80000305176</ele>
        <time>2021-09-12T06:38:30Z</time>
      </trkpt>
      <trkpt lat="48.34674" lon="-3.72196">
        <ele>163</ele>
        <time>2021-09-12T06:38:31Z</time>
      </trkpt>
      <trkpt lat="48.34667" lon="-3.72198">
        <ele>162.80000305176</ele>
        <time>2021-09-12T06:38:32Z</time>
      </trkpt>
      <trkpt lat="48.34659" lon="-3.72197">
        <ele>162.39999389648</ele>
        <time>2021-09-12T06:38:33Z</time>
      </trkpt>
      <trkpt lat="48.34656" lon="-3.72195">
        <ele>162.19999694824</ele>
        <time>2021-09-12T06:38:34Z</time>
      </trkpt>
      <trkpt lat="48.34653" lon="-3.72189">
        <ele>162</ele>
        <time>2021-09-12T06:38:35Z</time>
      </trkpt>
      <trkpt lat="48.34652" lon="-3.72182">
        <ele>161.80000305176</ele>
        <time>2021-09-12T06:38:36Z</time>
      </trkpt>
      <trkpt lat="48.34651" lon="-3.72173">
        <ele>161.60000610352</ele>
        <time>2021-09-12T06:38:37Z</time>
      </trkpt>
      <trkpt lat="48.34651" lon="-3.72164">
        <ele>161</ele>
        <time>2021-09-12T06:38:38Z</time>
      </trkpt>
      <trkpt lat="48.34651" lon="-3.72155">
        <ele>160.60000610352</ele>
        <time>2021-09-12T06:38:39Z</time>
      </trkpt>
      <trkpt lat="48.3465" lon="-3.72147">
        <ele>160.19999694824</ele>
        <time>2021-09-12T06:38:40Z</time>
      </trkpt>
      <trkpt lat="48.34649" lon="-3.72135">
        <ele>160</ele>
        <time>2021-09-12T06:38:41Z</time>
      </trkpt>
      <trkpt lat="48.34649" lon="-3.72125">
        <ele>159.19999694824</ele>
        <time>2021-09-12T06:38:42Z</time>
      </trkpt>
      <trkpt lat="48.34649" lon="-3.72114">
        <ele>159</ele>
        <time>2021-09-12T06:38:43Z</time>
      </trkpt>
      <trkpt lat="48.34649" lon="-3.72104">
        <ele>158.80000305176</ele>
        <time>2021-09-12T06:38:44Z</time>
      </trkpt>
      <trkpt lat="48.34648" lon="-3.72093">
        <ele>158</ele>
        <time>2021-09-12T06:38:45Z</time>
      </trkpt>
      <trkpt lat="48.34646" lon="-3.72082">
        <ele>157.39999389648</ele>
        <time>2021-09-12T06:38:46Z</time>
      </trkpt>
      <trkpt lat="48.34644" lon="-3.7207">
        <ele>157.19999694824</ele>
        <time>2021-09-12T06:38:47Z</time>
      </trkpt>
      <trkpt lat="48.34641" lon="-3.72059">
        <ele>157</ele>
        <time>2021-09-12T06:38:48Z</time>
      </trkpt>
      <trkpt lat="48.34639" lon="-3.7205">
        <ele>156.39999389648</ele>
        <time>2021-09-12T06:38:49Z</time>
      </trkpt>
      <trkpt lat="48.34635" lon="-3.72039">
        <ele>156</ele>
        <time>2021-09-12T06:38:50Z</time>
      </trkpt>
      <trkpt lat="48.34631" lon="-3.72028">
        <ele>155.80000305176</ele>
        <time>2021-09-12T06:38:51Z</time>
      </trkpt>
      <trkpt lat="48.34627" lon="-3.72017">
        <ele>155</ele>
        <time>2021-09-12T06:38:52Z</time>
      </trkpt>
      <trkpt lat="48.34623" lon="-3.72006">
        <ele>154.60000610352</ele>
        <time>2021-09-12T06:38:53Z</time>
      </trkpt>
      <trkpt lat="48.34619" lon="-3.71996">
        <ele>154.60000610352</ele>
        <time>2021-09-12T06:38:54Z</time>
      </trkpt>
      <trkpt lat="48.34614" lon="-3.71986">
        <ele>153.80000305176</ele>
        <time>2021-09-12T06:38:55Z</time>
      </trkpt>
      <trkpt lat="48.34608" lon="-3.71976">
        <ele>153.19999694824</ele>
        <time>2021-09-12T06:38:56Z</time>
      </trkpt>
      <trkpt lat="48.34602" lon="-3.71964">
        <ele>153.19999694824</ele>
        <time>2021-09-12T06:38:57Z</time>
      </trkpt>
      <trkpt lat="48.34596" lon="-3.71954">
        <ele>153</ele>
        <time>2021-09-12T06:38:58Z</time>
      </trkpt>
      <trkpt lat="48.34591" lon="-3.71944">
        <ele>152.39999389648</ele>
        <time>2021-09-12T06:38:59Z</time>
      </trkpt>
      <trkpt lat="48.34585" lon="-3.71935">
        <ele>151.80000305176</ele>
        <time>2021-09-12T06:39:00Z</time>
      </trkpt>
      <trkpt lat="48.34579" lon="-3.71925">
        <ele>150.80000305176</ele>
        <time>2021-09-12T06:39:01Z</time>
      </trkpt>
      <trkpt lat="48.34573" lon="-3.71916">
        <ele>150.80000305176</ele>
        <time>2021-09-12T06:39:02Z</time>
      </trkpt>
      <trkpt lat="48.34569" lon="-3.71909">
        <ele>150.19999694824</ele>
        <time>2021-09-12T06:39:03Z</time>
      </trkpt>
      <trkpt lat="48.34562" lon="-3.719">
        <ele>149.80000305176</ele>
        <time>2021-09-12T06:39:04Z</time>
      </trkpt>
      <trkpt lat="48.34556" lon="-3.71892">
        <ele>149.80000305176</ele>
        <time>2021-09-12T06:39:05Z</time>
      </trkpt>
      <trkpt lat="48.34548" lon="-3.71883">
        <ele>149.60000610352</ele>
        <time>2021-09-12T06:39:06Z</time>
      </trkpt>
      <trkpt lat="48.34543" lon="-3.71878">
        <ele>148.60000610352</ele>
        <time>2021-09-12T06:39:07Z</time>
      </trkpt>
      <trkpt lat="48.34536" lon="-3.71871">
        <ele>148.19999694824</ele>
        <time>2021-09-12T06:39:08Z</time>
      </trkpt>
      <trkpt lat="48.34528" lon="-3.71865">
        <ele>148</ele>
        <time>2021-09-12T06:39:09Z</time>
      </trkpt>
      <trkpt lat="48.34521" lon="-3.7186">
        <ele>148</ele>
        <time>2021-09-12T06:39:10Z</time>
      </trkpt>
      <trkpt lat="48.34513" lon="-3.71855">
        <ele>147.39999389648</ele>
        <time>2021-09-12T06:39:11Z</time>
      </trkpt>
      <trkpt lat="48.34506" lon="-3.7185">
        <ele>147.19999694824</ele>
        <time>2021-09-12T06:39:12Z</time>
      </trkpt>
      <trkpt lat="48.34499" lon="-3.71846">
        <ele>147.19999694824</ele>
        <time>2021-09-12T06:39:13Z</time>
      </trkpt>
      <trkpt lat="48.34492" lon="-3.71843">
        <ele>146.60000610352</ele>
        <time>2021-09-12T06:39:14Z</time>
      </trkpt>
      <trkpt lat="48.34485" lon="-3.71839">
        <ele>146.60000610352</ele>
        <time>2021-09-12T06:39:15Z</time>
      </trkpt>
      <trkpt lat="48.34478" lon="-3.71836">
        <ele>146.60000610352</ele>
        <time>2021-09-12T06:39:16Z</time>
      </trkpt>
      <trkpt lat="48.34471" lon="-3.71832">
        <ele>146.60000610352</ele>
        <time>2021-09-12T06:39:17Z</time>
      </trkpt>
      <trkpt lat="48.34465" lon="-3.71828">
        <ele>146.19999694824</ele>
        <time>2021-09-12T06:39:18Z</time>
      </trkpt>
      <trkpt lat="48.34459" lon="-3.71825">
        <ele>146.19999694824</ele>
        <time>2021-09-12T06:39:19Z</time>
      </trkpt>
      <trkpt lat="48.34451" lon="-3.7182">
        <ele>146</ele>
        <time>2021-09-12T06:39:20Z</time>
      </trkpt>
      <trkpt lat="48.34445" lon="-3.71815">
        <ele>145.80000305176</ele>
        <time>2021-09-12T06:39:21Z</time>
      </trkpt>
      <trkpt lat="48.3444" lon="-3.71811">
        <ele>145.60000610352</ele>
        <time>2021-09-12T06:39:22Z</time>
      </trkpt>
      <trkpt lat="48.34434" lon="-3.71805">
        <ele>145.39999389648</ele>
        <time>2021-09-12T06:39:23Z</time>
      </trkpt>
      <trkpt lat="48.34428" lon="-3.718">
        <ele>145.39999389648</ele>
        <time>2021-09-12T06:39:24Z</time>
      </trkpt>
      <trkpt lat="48.34422" lon="-3.71794">
        <ele>145.39999389648</ele>
        <time>2021-09-12T06:39:25Z</time>
      </trkpt>
      <trkpt lat="48.34417" lon="-3.71787">
        <ele>145.19999694824</ele>
        <time>2021-09-12T06:39:26Z</time>
      </trkpt>
      <trkpt lat="48.34411" lon="-3.71781">
        <ele>145</ele>
        <time>2021-09-12T06:39:27Z</time>
      </trkpt>
      <trkpt lat="48.34406" lon="-3.71774">
        <ele>145</ele>
        <time>2021-09-12T06:39:28Z</time>
      </trkpt>
      <trkpt lat="48.344" lon="-3.71765">
        <ele>145</ele>
        <time>2021-09-12T06:39:29Z</time>
      </trkpt>
      <trkpt lat="48.34396" lon="-3.71759">
        <ele>145</ele>
        <time>2021-09-12T06:39:30Z</time>
      </trkpt>
      <trkpt lat="48.3439" lon="-3.71751">
        <ele>145</ele>
        <time>2021-09-12T06:39:31Z</time>
      </trkpt>
      <trkpt lat="48.34385" lon="-3.71743">
        <ele>145</ele>
        <time>2021-09-12T06:39:32Z</time>
      </trkpt>
      <trkpt lat="48.34381" lon="-3.71736">
        <ele>145</ele>
        <time>2021-09-12T06:39:33Z</time>
      </trkpt>
      <trkpt lat="48.34378" lon="-3.7173">
        <ele>145</ele>
        <time>2021-09-12T06:39:34Z</time>
      </trkpt>
      <trkpt lat="48.34373" lon="-3.71723">
        <ele>145</ele>
        <time>2021-09-12T06:39:35Z</time>
      </trkpt>
      <trkpt lat="48.34368" lon="-3.71715">
        <ele>145</ele>
        <time>2021-09-12T06:39:36Z</time>
      </trkpt>
      <trkpt lat="48.34364" lon="-3.71708">
        <ele>145</ele>
        <time>2021-09-12T06:39:37Z</time>
      </trkpt>
      <trkpt lat="48.3436" lon="-3.717">
        <ele>145</ele>
        <time>2021-09-12T06:39:38Z</time>
      </trkpt>
      <trkpt lat="48.34357" lon="-3.71693">
        <ele>145.19999694824</ele>
        <time>2021-09-12T06:39:39Z</time>
      </trkpt>
      <trkpt lat="48.34354" lon="-3.71687">
        <ele>145.19999694824</ele>
        <time>2021-09-12T06:39:40Z</time>
      </trkpt>
      <trkpt lat="48.34349" lon="-3.71678">
        <ele>145.19999694824</ele>
        <time>2021-09-12T06:39:41Z</time>
      </trkpt>
      <trkpt lat="48.34346" lon="-3.71671">
        <ele>145.19999694824</ele>
        <time>2021-09-12T06:39:42Z</time>
      </trkpt>
      <trkpt lat="48.34342" lon="-3.71664">
        <ele>145.19999694824</ele>
        <time>2021-09-12T06:39:43Z</time>
      </trkpt>
      <trkpt lat="48.34338" lon="-3.71657">
        <ele>145.39999389648</ele>
        <time>2021-09-12T06:39:44Z</time>
      </trkpt>
      <trkpt lat="48.34335" lon="-3.71652">
        <ele>145.39999389648</ele>
        <time>2021-09-12T06:39:45Z</time>
      </trkpt>
      <trkpt lat="48.34331" lon="-3.71643">
        <ele>145.39999389648</ele>
        <time>2021-09-12T06:39:46Z</time>
      </trkpt>
      <trkpt lat="48.34327" lon="-3.71636">
        <ele>145.39999389648</ele>
        <time>2021-09-12T06:39:47Z</time>
      </trkpt>
      <trkpt lat="48.34324" lon="-3.71629">
        <ele>145.39999389648</ele>
        <time>2021-09-12T06:39:48Z</time>
      </trkpt>
      <trkpt lat="48.3432" lon="-3.71622">
        <ele>145.39999389648</ele>
        <time>2021-09-12T06:39:49Z</time>
      </trkpt>
      <trkpt lat="48.34316" lon="-3.71615">
        <ele>145.39999389648</ele>
        <time>2021-09-12T06:39:50Z</time>
      </trkpt>
      <trkpt lat="48.34313" lon="-3.71607">
        <ele>145.39999389648</ele>
        <time>2021-09-12T06:39:51Z</time>
      </trkpt>
      <trkpt lat="48.34309" lon="-3.716">
        <ele>145.39999389648</ele>
        <time>2021-09-12T06:39:52Z</time>
      </trkpt>
      <trkpt lat="48.34306" lon="-3.71593">
        <ele>145.19999694824</ele>
        <time>2021-09-12T06:39:53Z</time>
      </trkpt>
      <trkpt lat="48.34303" lon="-3.71587">
        <ele>145.19999694824</ele>
        <time>2021-09-12T06:39:54Z</time>
      </trkpt>
      <trkpt lat="48.34298" lon="-3.71579">
        <ele>145</ele>
        <time>2021-09-12T06:39:55Z</time>
      </trkpt>
      <trkpt lat="48.34294" lon="-3.71572">
        <ele>145</ele>
        <time>2021-09-12T06:39:56Z</time>
      </trkpt>
      <trkpt lat="48.3429" lon="-3.71566">
        <ele>145</ele>
        <time>2021-09-12T06:39:57Z</time>
      </trkpt>
      <trkpt lat="48.34285" lon="-3.7156">
        <ele>144.80000305176</ele>
        <time>2021-09-12T06:39:58Z</time>
      </trkpt>
      <trkpt lat="48.34281" lon="-3.71553">
        <ele>144.60000610352</ele>
        <time>2021-09-12T06:39:59Z</time>
      </trkpt>
      <trkpt lat="48.34276" lon="-3.71547">
        <ele>144.60000610352</ele>
        <time>2021-09-12T06:40:00Z</time>
      </trkpt>
      <trkpt lat="48.34272" lon="-3.7154">
        <ele>144.60000610352</ele>
        <time>2021-09-12T06:40:01Z</time>
      </trkpt>
      <trkpt lat="48.34267" lon="-3.71534">
        <ele>144.60000610352</ele>
        <time>2021-09-12T06:40:02Z</time>
      </trkpt>
      <trkpt lat="48.34263" lon="-3.71528">
        <ele>144.39999389648</ele>
        <time>2021-09-12T06:40:03Z</time>
      </trkpt>
      <trkpt lat="48.34259" lon="-3.71522">
        <ele>144.39999389648</ele>
        <time>2021-09-12T06:40:04Z</time>
      </trkpt>
      <trkpt lat="48.34253" lon="-3.71514">
        <ele>144.39999389648</ele>
        <time>2021-09-12T06:40:05Z</time>
      </trkpt>
      <trkpt lat="48.34249" lon="-3.71508">
        <ele>144.19999694824</ele>
        <time>2021-09-12T06:40:06Z</time>
      </trkpt>
      <trkpt lat="48.34245" lon="-3.71503">
        <ele>144.19999694824</ele>
        <time>2021-09-12T06:40:07Z</time>
      </trkpt>
      <trkpt lat="48.34242" lon="-3.71498">
        <ele>144.19999694824</ele>
        <time>2021-09-12T06:40:08Z</time>
      </trkpt>
      <trkpt lat="48.34238" lon="-3.71493">
        <ele>144.19999694824</ele>
        <time>2021-09-12T06:40:09Z</time>
      </trkpt>
      <trkpt lat="48.34233" lon="-3.71486">
        <ele>144.19999694824</ele>
        <time>2021-09-12T06:40:10Z</time>
      </trkpt>
      <trkpt lat="48.34228" lon="-3.7148">
        <ele>144</ele>
        <time>2021-09-12T06:40:11Z</time>
      </trkpt>
      <trkpt lat="48.34225" lon="-3.71475">
        <ele>144</ele>
        <time>2021-09-12T06:40:12Z</time>
      </trkpt>
      <trkpt lat="48.34221" lon="-3.71469">
        <ele>144</ele>
        <time>2021-09-12T06:40:13Z</time>
      </trkpt>
      <trkpt lat="48.34216" lon="-3.71462">
        <ele>144</ele>
        <time>2021-09-12T06:40:14Z</time>
      </trkpt>
      <trkpt lat="48.34211" lon="-3.71456">
        <ele>144</ele>
        <time>2021-09-12T06:40:15Z</time>
      </trkpt>
      <trkpt lat="48.34207" lon="-3.7145">
        <ele>144</ele>
        <time>2021-09-12T06:40:16Z</time>
      </trkpt>
      <trkpt lat="48.34202" lon="-3.71445">
        <ele>144</ele>
        <time>2021-09-12T06:40:17Z</time>
      </trkpt>
      <trkpt lat="48.34198" lon="-3.7144">
        <ele>144</ele>
        <time>2021-09-12T06:40:18Z</time>
      </trkpt>
      <trkpt lat="48.34193" lon="-3.71433">
        <ele>144</ele>
        <time>2021-09-12T06:40:19Z</time>
      </trkpt>
      <trkpt lat="48.34188" lon="-3.71427">
        <ele>143.80000305176</ele>
        <time>2021-09-12T06:40:20Z</time>
      </trkpt>
      <trkpt lat="48.34183" lon="-3.71422">
        <ele>143.80000305176</ele>
        <time>2021-09-12T06:40:21Z</time>
      </trkpt>
      <trkpt lat="48.34179" lon="-3.71418">
        <ele>143.80000305176</ele>
        <time>2021-09-12T06:40:22Z</time>
      </trkpt>
      <trkpt lat="48.34175" lon="-3.71413">
        <ele>143.80000305176</ele>
        <time>2021-09-12T06:40:23Z</time>
      </trkpt>
      <trkpt lat="48.34169" lon="-3.71406">
        <ele>143.60000610352</ele>
        <time>2021-09-12T06:40:24Z</time>
      </trkpt>
      <trkpt lat="48.34165" lon="-3.71401">
        <ele>143.80000305176</ele>
        <time>2021-09-12T06:40:25Z</time>
      </trkpt>
      <trkpt lat="48.3416" lon="-3.71396">
        <ele>143.80000305176</ele>
        <time>2021-09-12T06:40:26Z</time>
      </trkpt>
      <trkpt lat="48.34157" lon="-3.71392">
        <ele>143.80000305176</ele>
        <time>2021-09-12T06:40:27Z</time>
      </trkpt>
      <trkpt lat="48.34152" lon="-3.71387">
        <ele>143.80000305176</ele>
        <time>2021-09-12T06:40:28Z</time>
      </trkpt>
      <trkpt lat="48.34147" lon="-3.71381">
        <ele>144</ele>
        <time>2021-09-12T06:40:29Z</time>
      </trkpt>
      <trkpt lat="48.34142" lon="-3.71376">
        <ele>143.80000305176</ele>
        <time>2021-09-12T06:40:30Z</time>
      </trkpt>
      <trkpt lat="48.34139" lon="-3.71372">
        <ele>143.80000305176</ele>
        <time>2021-09-12T06:40:31Z</time>
      </trkpt>
      <trkpt lat="48.34135" lon="-3.71366">
        <ele>143.80000305176</ele>
        <time>2021-09-12T06:40:32Z</time>
      </trkpt>
      <trkpt lat="48.34129" lon="-3.7136">
        <ele>143.80000305176</ele>
        <time>2021-09-12T06:40:33Z</time>
      </trkpt>
      <trkpt lat="48.34125" lon="-3.71354">
        <ele>143.80000305176</ele>
        <time>2021-09-12T06:40:34Z</time>
      </trkpt>
      <trkpt lat="48.3412" lon="-3.71349">
        <ele>143.80000305176</ele>
        <time>2021-09-12T06:40:35Z</time>
      </trkpt>
      <trkpt lat="48.34116" lon="-3.71344">
        <ele>143.80000305176</ele>
        <time>2021-09-12T06:40:36Z</time>
      </trkpt>
      <trkpt lat="48.34112" lon="-3.71339">
        <ele>143.80000305176</ele>
        <time>2021-09-12T06:40:37Z</time>
      </trkpt>
      <trkpt lat="48.34106" lon="-3.71333">
        <ele>143.39999389648</ele>
        <time>2021-09-12T06:40:38Z</time>
      </trkpt>
      <trkpt lat="48.34102" lon="-3.71328">
        <ele>143.39999389648</ele>
        <time>2021-09-12T06:40:39Z</time>
      </trkpt>
      <trkpt lat="48.34098" lon="-3.71323">
        <ele>143.19999694824</ele>
        <time>2021-09-12T06:40:40Z</time>
      </trkpt>
      <trkpt lat="48.34094" lon="-3.71319">
        <ele>143.19999694824</ele>
        <time>2021-09-12T06:40:41Z</time>
      </trkpt>
      <trkpt lat="48.3409" lon="-3.71314">
        <ele>143.19999694824</ele>
        <time>2021-09-12T06:40:42Z</time>
      </trkpt>
      <trkpt lat="48.34085" lon="-3.71308">
        <ele>143</ele>
        <time>2021-09-12T06:40:43Z</time>
      </trkpt>
      <trkpt lat="48.3408" lon="-3.71302">
        <ele>143</ele>
        <time>2021-09-12T06:40:44Z</time>
      </trkpt>
      <trkpt lat="48.34076" lon="-3.71297">
        <ele>143</ele>
        <time>2021-09-12T06:40:45Z</time>
      </trkpt>
      <trkpt lat="48.34071" lon="-3.71291">
        <ele>142.39999389648</ele>
        <time>2021-09-12T06:40:46Z</time>
      </trkpt>
      <trkpt lat="48.34068" lon="-3.71286">
        <ele>142.39999389648</ele>
        <time>2021-09-12T06:40:47Z</time>
      </trkpt>
      <trkpt lat="48.34062" lon="-3.7128">
        <ele>142.19999694824</ele>
        <time>2021-09-12T06:40:48Z</time>
      </trkpt>
      <trkpt lat="48.34058" lon="-3.71274">
        <ele>142</ele>
        <time>2021-09-12T06:40:49Z</time>
      </trkpt>
      <trkpt lat="48.34054" lon="-3.71269">
        <ele>142</ele>
        <time>2021-09-12T06:40:50Z</time>
      </trkpt>
      <trkpt lat="48.34049" lon="-3.71263">
        <ele>142</ele>
        <time>2021-09-12T06:40:51Z</time>
      </trkpt>
      <trkpt lat="48.34044" lon="-3.71256">
        <ele>141.80000305176</ele>
        <time>2021-09-12T06:40:52Z</time>
      </trkpt>
      <trkpt lat="48.3404" lon="-3.71251">
        <ele>141.80000305176</ele>
        <time>2021-09-12T06:40:53Z</time>
      </trkpt>
      <trkpt lat="48.34037" lon="-3.71246">
        <ele>141.60000610352</ele>
        <time>2021-09-12T06:40:54Z</time>
      </trkpt>
      <trkpt lat="48.34034" lon="-3.71242">
        <ele>141.39999389648</ele>
        <time>2021-09-12T06:40:55Z</time>
      </trkpt>
      <trkpt lat="48.3403" lon="-3.71236">
        <ele>141.39999389648</ele>
        <time>2021-09-12T06:40:56Z</time>
      </trkpt>
      <trkpt lat="48.34025" lon="-3.7123">
        <ele>141.19999694824</ele>
        <time>2021-09-12T06:40:57Z</time>
      </trkpt>
      <trkpt lat="48.34021" lon="-3.71224">
        <ele>140.60000610352</ele>
        <time>2021-09-12T06:40:58Z</time>
      </trkpt>
      <trkpt lat="48.34017" lon="-3.71218">
        <ele>140.60000610352</ele>
        <time>2021-09-12T06:40:59Z</time>
      </trkpt>
      <trkpt lat="48.34013" lon="-3.71213">
        <ele>140.39999389648</ele>
        <time>2021-09-12T06:41:00Z</time>
      </trkpt>
      <trkpt lat="48.34008" lon="-3.71207">
        <ele>140.19999694824</ele>
        <time>2021-09-12T06:41:01Z</time>
      </trkpt>
      <trkpt lat="48.34004" lon="-3.71201">
        <ele>139.80000305176</ele>
        <time>2021-09-12T06:41:02Z</time>
      </trkpt>
      <trkpt lat="48.33999" lon="-3.71195">
        <ele>139.80000305176</ele>
        <time>2021-09-12T06:41:03Z</time>
      </trkpt>
      <trkpt lat="48.33995" lon="-3.71189">
        <ele>139.80000305176</ele>
        <time>2021-09-12T06:41:04Z</time>
      </trkpt>
      <trkpt lat="48.33992" lon="-3.71184">
        <ele>139.80000305176</ele>
        <time>2021-09-12T06:41:05Z</time>
      </trkpt>
      <trkpt lat="48.33987" lon="-3.71176">
        <ele>139.60000610352</ele>
        <time>2021-09-12T06:41:06Z</time>
      </trkpt>
      <trkpt lat="48.33983" lon="-3.7117">
        <ele>139.39999389648</ele>
        <time>2021-09-12T06:41:07Z</time>
      </trkpt>
      <trkpt lat="48.33979" lon="-3.71163">
        <ele>138.80000305176</ele>
        <time>2021-09-12T06:41:08Z</time>
      </trkpt>
      <trkpt lat="48.33975" lon="-3.71157">
        <ele>138.80000305176</ele>
        <time>2021-09-12T06:41:09Z</time>
      </trkpt>
      <trkpt lat="48.33971" lon="-3.7115">
        <ele>138.80000305176</ele>
        <time>2021-09-12T06:41:10Z</time>
      </trkpt>
      <trkpt lat="48.33967" lon="-3.71144">
        <ele>138.60000610352</ele>
        <time>2021-09-12T06:41:11Z</time>
      </trkpt>
      <trkpt lat="48.33963" lon="-3.71137">
        <ele>138.39999389648</ele>
        <time>2021-09-12T06:41:12Z</time>
      </trkpt>
      <trkpt lat="48.3396" lon="-3.71131">
        <ele>138.19999694824</ele>
        <time>2021-09-12T06:41:13Z</time>
      </trkpt>
      <trkpt lat="48.33956" lon="-3.71124">
        <ele>138.19999694824</ele>
        <time>2021-09-12T06:41:14Z</time>
      </trkpt>
      <trkpt lat="48.33953" lon="-3.71117">
        <ele>137.80000305176</ele>
        <time>2021-09-12T06:41:15Z</time>
      </trkpt>
      <trkpt lat="48.33949" lon="-3.7111">
        <ele>137.60000610352</ele>
        <time>2021-09-12T06:41:16Z</time>
      </trkpt>
      <trkpt lat="48.33945" lon="-3.71103">
        <ele>137.39999389648</ele>
        <time>2021-09-12T06:41:17Z</time>
      </trkpt>
      <trkpt lat="48.33942" lon="-3.71096">
        <ele>137</ele>
        <time>2021-09-12T06:41:18Z</time>
      </trkpt>
      <trkpt lat="48.33939" lon="-3.71089">
        <ele>137</ele>
        <time>2021-09-12T06:41:19Z</time>
      </trkpt>
      <trkpt lat="48.33935" lon="-3.71081">
        <ele>136.80000305176</ele>
        <time>2021-09-12T06:41:20Z</time>
      </trkpt>
      <trkpt lat="48.33932" lon="-3.71074">
        <ele>136.80000305176</ele>
        <time>2021-09-12T06:41:21Z</time>
      </trkpt>
      <trkpt lat="48.33929" lon="-3.71067">
        <ele>136.80000305176</ele>
        <time>2021-09-12T06:41:22Z</time>
      </trkpt>
      <trkpt lat="48.33925" lon="-3.71059">
        <ele>136.60000610352</ele>
        <time>2021-09-12T06:41:23Z</time>
      </trkpt>
      <trkpt lat="48.33922" lon="-3.71052">
        <ele>136.60000610352</ele>
        <time>2021-09-12T06:41:24Z</time>
      </trkpt>
      <trkpt lat="48.33918" lon="-3.71045">
        <ele>136.60000610352</ele>
        <time>2021-09-12T06:41:25Z</time>
      </trkpt>
      <trkpt lat="48.33915" lon="-3.71037">
        <ele>136.39999389648</ele>
        <time>2021-09-12T06:41:26Z</time>
      </trkpt>
      <trkpt lat="48.33912" lon="-3.7103">
        <ele>136.39999389648</ele>
        <time>2021-09-12T06:41:27Z</time>
      </trkpt>
      <trkpt lat="48.33909" lon="-3.71023">
        <ele>136.60000610352</ele>
        <time>2021-09-12T06:41:28Z</time>
      </trkpt>
      <trkpt lat="48.33906" lon="-3.71015">
        <ele>136.39999389648</ele>
        <time>2021-09-12T06:41:29Z</time>
      </trkpt>
      <trkpt lat="48.33903" lon="-3.71009">
        <ele>136.39999389648</ele>
        <time>2021-09-12T06:41:30Z</time>
      </trkpt>
      <trkpt lat="48.339" lon="-3.71002">
        <ele>136.39999389648</ele>
        <time>2021-09-12T06:41:31Z</time>
      </trkpt>
      <trkpt lat="48.339" lon="-3.71002">
        <ele>136.19999694824</ele>
        <time>2021-09-12T06:41:32Z</time>
      </trkpt>
      <trkpt lat="48.33894" lon="-3.70989">
        <ele>136</ele>
        <time>2021-09-12T06:41:33Z</time>
      </trkpt>
      <trkpt lat="48.33891" lon="-3.70981">
        <ele>136</ele>
        <time>2021-09-12T06:41:34Z</time>
      </trkpt>
      <trkpt lat="48.33888" lon="-3.70974">
        <ele>136</ele>
        <time>2021-09-12T06:41:35Z</time>
      </trkpt>
      <trkpt lat="48.33885" lon="-3.70968">
        <ele>136</ele>
        <time>2021-09-12T06:41:36Z</time>
      </trkpt>
      <trkpt lat="48.33882" lon="-3.70959">
        <ele>135.80000305176</ele>
        <time>2021-09-12T06:41:37Z</time>
      </trkpt>
      <trkpt lat="48.33879" lon="-3.70952">
        <ele>135.80000305176</ele>
        <time>2021-09-12T06:41:38Z</time>
      </trkpt>
      <trkpt lat="48.33877" lon="-3.70947">
        <ele>135.80000305176</ele>
        <time>2021-09-12T06:41:39Z</time>
      </trkpt>
      <trkpt lat="48.33873" lon="-3.70939">
        <ele>135.80000305176</ele>
        <time>2021-09-12T06:41:40Z</time>
      </trkpt>
      <trkpt lat="48.33871" lon="-3.70932">
        <ele>135.80000305176</ele>
        <time>2021-09-12T06:41:41Z</time>
      </trkpt>
      <trkpt lat="48.33868" lon="-3.70926">
        <ele>135.60000610352</ele>
        <time>2021-09-12T06:41:42Z</time>
      </trkpt>
      <trkpt lat="48.33866" lon="-3.7092">
        <ele>135.39999389648</ele>
        <time>2021-09-12T06:41:43Z</time>
      </trkpt>
      <trkpt lat="48.33863" lon="-3.70914">
        <ele>135.39999389648</ele>
        <time>2021-09-12T06:41:44Z</time>
      </trkpt>
      <trkpt lat="48.33861" lon="-3.70907">
        <ele>135.19999694824</ele>
        <time>2021-09-12T06:41:45Z</time>
      </trkpt>
      <trkpt lat="48.33859" lon="-3.70901">
        <ele>135.19999694824</ele>
        <time>2021-09-12T06:41:46Z</time>
      </trkpt>
      <trkpt lat="48.33856" lon="-3.70895">
        <ele>135.19999694824</ele>
        <time>2021-09-12T06:41:47Z</time>
      </trkpt>
      <trkpt lat="48.33854" lon="-3.70888">
        <ele>135.19999694824</ele>
        <time>2021-09-12T06:41:48Z</time>
      </trkpt>
      <trkpt lat="48.33851" lon="-3.70881">
        <ele>135.19999694824</ele>
        <time>2021-09-12T06:41:49Z</time>
      </trkpt>
      <trkpt lat="48.33849" lon="-3.70874">
        <ele>135.19999694824</ele>
        <time>2021-09-12T06:41:50Z</time>
      </trkpt>
      <trkpt lat="48.33847" lon="-3.70868">
        <ele>135.19999694824</ele>
        <time>2021-09-12T06:41:51Z</time>
      </trkpt>
      <trkpt lat="48.33845" lon="-3.70862">
        <ele>135.19999694824</ele>
        <time>2021-09-12T06:41:52Z</time>
      </trkpt>
      <trkpt lat="48.33843" lon="-3.70855">
        <ele>135.60000610352</ele>
        <time>2021-09-12T06:41:53Z</time>
      </trkpt>
      <trkpt lat="48.33841" lon="-3.70848">
        <ele>135.60000610352</ele>
        <time>2021-09-12T06:41:54Z</time>
      </trkpt>
      <trkpt lat="48.33839" lon="-3.70842">
        <ele>135.60000610352</ele>
        <time>2021-09-12T06:41:55Z</time>
      </trkpt>
      <trkpt lat="48.33837" lon="-3.70836">
        <ele>135.60000610352</ele>
        <time>2021-09-12T06:41:56Z</time>
      </trkpt>
      <trkpt lat="48.33836" lon="-3.70829">
        <ele>135.60000610352</ele>
        <time>2021-09-12T06:41:57Z</time>
      </trkpt>
      <trkpt lat="48.33834" lon="-3.70823">
        <ele>135.60000610352</ele>
        <time>2021-09-12T06:41:58Z</time>
      </trkpt>
      <trkpt lat="48.33833" lon="-3.70817">
        <ele>135.60000610352</ele>
        <time>2021-09-12T06:41:59Z</time>
      </trkpt>
      <trkpt lat="48.33831" lon="-3.70811">
        <ele>135.80000305176</ele>
        <time>2021-09-12T06:42:00Z</time>
      </trkpt>
      <trkpt lat="48.33829" lon="-3.70806">
        <ele>135.80000305176</ele>
        <time>2021-09-12T06:42:01Z</time>
      </trkpt>
      <trkpt lat="48.33827" lon="-3.70802">
        <ele>135.80000305176</ele>
        <time>2021-09-12T06:42:02Z</time>
      </trkpt>
      <trkpt lat="48.33824" lon="-3.708">
        <ele>135.80000305176</ele>
        <time>2021-09-12T06:42:03Z</time>
      </trkpt>
      <trkpt lat="48.3382" lon="-3.70797">
        <ele>136.19999694824</ele>
        <time>2021-09-12T06:42:04Z</time>
      </trkpt>
      <trkpt lat="48.33817" lon="-3.70796">
        <ele>136.19999694824</ele>
        <time>2021-09-12T06:42:05Z</time>
      </trkpt>
      <trkpt lat="48.33814" lon="-3.70794">
        <ele>136.39999389648</ele>
        <time>2021-09-12T06:42:06Z</time>
      </trkpt>
      <trkpt lat="48.3381" lon="-3.70792">
        <ele>136.39999389648</ele>
        <time>2021-09-12T06:42:07Z</time>
      </trkpt>
      <trkpt lat="48.33807" lon="-3.70788">
        <ele>136.60000610352</ele>
        <time>2021-09-12T06:42:08Z</time>
      </trkpt>
      <trkpt lat="48.33804" lon="-3.70784">
        <ele>136.80000305176</ele>
        <time>2021-09-12T06:42:09Z</time>
      </trkpt>
      <trkpt lat="48.33802" lon="-3.70779">
        <ele>136.80000305176</ele>
        <time>2021-09-12T06:42:10Z</time>
      </trkpt>
      <trkpt lat="48.33799" lon="-3.70773">
        <ele>136.80000305176</ele>
        <time>2021-09-12T06:42:11Z</time>
      </trkpt>
      <trkpt lat="48.33796" lon="-3.70767">
        <ele>136.80000305176</ele>
        <time>2021-09-12T06:42:12Z</time>
      </trkpt>
      <trkpt lat="48.33794" lon="-3.70762">
        <ele>137</ele>
        <time>2021-09-12T06:42:13Z</time>
      </trkpt>
      <trkpt lat="48.3379" lon="-3.70756">
        <ele>137</ele>
        <time>2021-09-12T06:42:14Z</time>
      </trkpt>
      <trkpt lat="48.33787" lon="-3.70752">
        <ele>137.19999694824</ele>
        <time>2021-09-12T06:42:15Z</time>
      </trkpt>
      <trkpt lat="48.33784" lon="-3.70747">
        <ele>137.19999694824</ele>
        <time>2021-09-12T06:42:16Z</time>
      </trkpt>
      <trkpt lat="48.3378" lon="-3.70742">
        <ele>137.19999694824</ele>
        <time>2021-09-12T06:42:17Z</time>
      </trkpt>
      <trkpt lat="48.33777" lon="-3.70738">
        <ele>137.39999389648</ele>
        <time>2021-09-12T06:42:18Z</time>
      </trkpt>
      <trkpt lat="48.33773" lon="-3.70734">
        <ele>137.60000610352</ele>
        <time>2021-09-12T06:42:19Z</time>
      </trkpt>
      <trkpt lat="48.3377" lon="-3.70729">
        <ele>137.80000305176</ele>
        <time>2021-09-12T06:42:20Z</time>
      </trkpt>
      <trkpt lat="48.33766" lon="-3.70724">
        <ele>138</ele>
        <time>2021-09-12T06:42:21Z</time>
      </trkpt>
      <trkpt lat="48.33763" lon="-3.7072">
        <ele>138.19999694824</ele>
        <time>2021-09-12T06:42:22Z</time>
      </trkpt>
      <trkpt lat="48.3376" lon="-3.70716">
        <ele>138.19999694824</ele>
        <time>2021-09-12T06:42:23Z</time>
      </trkpt>
      <trkpt lat="48.33757" lon="-3.70712">
        <ele>138.39999389648</ele>
        <time>2021-09-12T06:42:24Z</time>
      </trkpt>
      <trkpt lat="48.33755" lon="-3.70708">
        <ele>138.80000305176</ele>
        <time>2021-09-12T06:42:25Z</time>
      </trkpt>
      <trkpt lat="48.33752" lon="-3.70704">
        <ele>139</ele>
        <time>2021-09-12T06:42:26Z</time>
      </trkpt>
      <trkpt lat="48.33749" lon="-3.707">
        <ele>139.19999694824</ele>
        <time>2021-09-12T06:42:27Z</time>
      </trkpt>
      <trkpt lat="48.33747" lon="-3.70696">
        <ele>139.19999694824</ele>
        <time>2021-09-12T06:42:28Z</time>
      </trkpt>
      <trkpt lat="48.33744" lon="-3.70692">
        <ele>139.19999694824</ele>
        <time>2021-09-12T06:42:29Z</time>
      </trkpt>
      <trkpt lat="48.33741" lon="-3.70688">
        <ele>139.19999694824</ele>
        <time>2021-09-12T06:42:30Z</time>
      </trkpt>
      <trkpt lat="48.33738" lon="-3.70684">
        <ele>139.80000305176</ele>
        <time>2021-09-12T06:42:31Z</time>
      </trkpt>
      <trkpt lat="48.33735" lon="-3.70679">
        <ele>139.80000305176</ele>
        <time>2021-09-12T06:42:32Z</time>
      </trkpt>
      <trkpt lat="48.33732" lon="-3.70674">
        <ele>139.80000305176</ele>
        <time>2021-09-12T06:42:33Z</time>
      </trkpt>
      <trkpt lat="48.33729" lon="-3.70669">
        <ele>139.80000305176</ele>
        <time>2021-09-12T06:42:34Z</time>
      </trkpt>
      <trkpt lat="48.33725" lon="-3.70664">
        <ele>139.80000305176</ele>
        <time>2021-09-12T06:42:35Z</time>
      </trkpt>
      <trkpt lat="48.33721" lon="-3.70658">
        <ele>139.80000305176</ele>
        <time>2021-09-12T06:42:36Z</time>
      </trkpt>
      <trkpt lat="48.33717" lon="-3.70653">
        <ele>139.39999389648</ele>
        <time>2021-09-12T06:42:37Z</time>
      </trkpt>
      <trkpt lat="48.33713" lon="-3.70648">
        <ele>139.39999389648</ele>
        <time>2021-09-12T06:42:38Z</time>
      </trkpt>
      <trkpt lat="48.33708" lon="-3.70642">
        <ele>139</ele>
        <time>2021-09-12T06:42:39Z</time>
      </trkpt>
      <trkpt lat="48.33703" lon="-3.70637">
        <ele>138.80000305176</ele>
        <time>2021-09-12T06:42:40Z</time>
      </trkpt>
      <trkpt lat="48.33698" lon="-3.70632">
        <ele>138.39999389648</ele>
        <time>2021-09-12T06:42:41Z</time>
      </trkpt>
      <trkpt lat="48.33692" lon="-3.70626">
        <ele>138</ele>
        <time>2021-09-12T06:42:42Z</time>
      </trkpt>
      <trkpt lat="48.33687" lon="-3.70621">
        <ele>137.80000305176</ele>
        <time>2021-09-12T06:42:43Z</time>
      </trkpt>
      <trkpt lat="48.33682" lon="-3.70616">
        <ele>137.60000610352</ele>
        <time>2021-09-12T06:42:44Z</time>
      </trkpt>
      <trkpt lat="48.33677" lon="-3.7061">
        <ele>137.39999389648</ele>
        <time>2021-09-12T06:42:45Z</time>
      </trkpt>
      <trkpt lat="48.33672" lon="-3.70604">
        <ele>137.39999389648</ele>
        <time>2021-09-12T06:42:46Z</time>
      </trkpt>
      <trkpt lat="48.33667" lon="-3.70598">
        <ele>137.19999694824</ele>
        <time>2021-09-12T06:42:47Z</time>
      </trkpt>
      <trkpt lat="48.33661" lon="-3.70592">
        <ele>137.19999694824</ele>
        <time>2021-09-12T06:42:48Z</time>
      </trkpt>
      <trkpt lat="48.33656" lon="-3.70586">
        <ele>137.19999694824</ele>
        <time>2021-09-12T06:42:49Z</time>
      </trkpt>
      <trkpt lat="48.33651" lon="-3.7058">
        <ele>137.19999694824</ele>
        <time>2021-09-12T06:42:50Z</time>
      </trkpt>
      <trkpt lat="48.33647" lon="-3.70574">
        <ele>137</ele>
        <time>2021-09-12T06:42:51Z</time>
      </trkpt>
      <trkpt lat="48.33643" lon="-3.70568">
        <ele>137</ele>
        <time>2021-09-12T06:42:52Z</time>
      </trkpt>
      <trkpt lat="48.33639" lon="-3.70563">
        <ele>137</ele>
        <time>2021-09-12T06:42:53Z</time>
      </trkpt>
      <trkpt lat="48.33635" lon="-3.70557">
        <ele>137</ele>
        <time>2021-09-12T06:42:54Z</time>
      </trkpt>
      <trkpt lat="48.33631" lon="-3.70551">
        <ele>137</ele>
        <time>2021-09-12T06:42:55Z</time>
      </trkpt>
      <trkpt lat="48.33627" lon="-3.70545">
        <ele>137.19999694824</ele>
        <time>2021-09-12T06:42:56Z</time>
      </trkpt>
      <trkpt lat="48.33623" lon="-3.7054">
        <ele>137.19999694824</ele>
        <time>2021-09-12T06:42:57Z</time>
      </trkpt>
      <trkpt lat="48.33619" lon="-3.70535">
        <ele>137.39999389648</ele>
        <time>2021-09-12T06:42:58Z</time>
      </trkpt>
      <trkpt lat="48.33615" lon="-3.7053">
        <ele>137.39999389648</ele>
        <time>2021-09-12T06:42:59Z</time>
      </trkpt>
      <trkpt lat="48.33611" lon="-3.70525">
        <ele>137.80000305176</ele>
        <time>2021-09-12T06:43:00Z</time>
      </trkpt>
      <trkpt lat="48.33608" lon="-3.7052">
        <ele>137.80000305176</ele>
        <time>2021-09-12T06:43:01Z</time>
      </trkpt>
      <trkpt lat="48.33604" lon="-3.70515">
        <ele>137.80000305176</ele>
        <time>2021-09-12T06:43:02Z</time>
      </trkpt>
      <trkpt lat="48.33601" lon="-3.7051">
        <ele>137.80000305176</ele>
        <time>2021-09-12T06:43:03Z</time>
      </trkpt>
      <trkpt lat="48.33597" lon="-3.70505">
        <ele>138.19999694824</ele>
        <time>2021-09-12T06:43:04Z</time>
      </trkpt>
      <trkpt lat="48.33594" lon="-3.705">
        <ele>138.39999389648</ele>
        <time>2021-09-12T06:43:05Z</time>
      </trkpt>
      <trkpt lat="48.3359" lon="-3.70496">
        <ele>138.39999389648</ele>
        <time>2021-09-12T06:43:06Z</time>
      </trkpt>
      <trkpt lat="48.33587" lon="-3.70491">
        <ele>138.60000610352</ele>
        <time>2021-09-12T06:43:07Z</time>
      </trkpt>
      <trkpt lat="48.33583" lon="-3.70487">
        <ele>138.80000305176</ele>
        <time>2021-09-12T06:43:08Z</time>
      </trkpt>
      <trkpt lat="48.33581" lon="-3.70482">
        <ele>138.80000305176</ele>
        <time>2021-09-12T06:43:09Z</time>
      </trkpt>
      <trkpt lat="48.33578" lon="-3.70478">
        <ele>139</ele>
        <time>2021-09-12T06:43:10Z</time>
      </trkpt>
      <trkpt lat="48.33574" lon="-3.70472">
        <ele>139</ele>
        <time>2021-09-12T06:43:11Z</time>
      </trkpt>
      <trkpt lat="48.33571" lon="-3.70469">
        <ele>139.39999389648</ele>
        <time>2021-09-12T06:43:12Z</time>
      </trkpt>
      <trkpt lat="48.33568" lon="-3.70464">
        <ele>139.39999389648</ele>
        <time>2021-09-12T06:43:13Z</time>
      </trkpt>
      <trkpt lat="48.33565" lon="-3.70459">
        <ele>139.39999389648</ele>
        <time>2021-09-12T06:43:14Z</time>
      </trkpt>
      <trkpt lat="48.33562" lon="-3.70455">
        <ele>139.39999389648</ele>
        <time>2021-09-12T06:43:15Z</time>
      </trkpt>
      <trkpt lat="48.33559" lon="-3.7045">
        <ele>139.80000305176</ele>
        <time>2021-09-12T06:43:16Z</time>
      </trkpt>
      <trkpt lat="48.33556" lon="-3.70445">
        <ele>140</ele>
        <time>2021-09-12T06:43:17Z</time>
      </trkpt>
      <trkpt lat="48.33553" lon="-3.70441">
        <ele>140</ele>
        <time>2021-09-12T06:43:18Z</time>
      </trkpt>
      <trkpt lat="48.3355" lon="-3.70436">
        <ele>140.19999694824</ele>
        <time>2021-09-12T06:43:19Z</time>
      </trkpt>
      <trkpt lat="48.33546" lon="-3.70432">
        <ele>140.19999694824</ele>
        <time>2021-09-12T06:43:20Z</time>
      </trkpt>
      <trkpt lat="48.33543" lon="-3.70427">
        <ele>140.60000610352</ele>
        <time>2021-09-12T06:43:21Z</time>
      </trkpt>
      <trkpt lat="48.33541" lon="-3.70423">
        <ele>140.80000305176</ele>
        <time>2021-09-12T06:43:22Z</time>
      </trkpt>
      <trkpt lat="48.33538" lon="-3.70419">
        <ele>140.80000305176</ele>
        <time>2021-09-12T06:43:23Z</time>
      </trkpt>
      <trkpt lat="48.33535" lon="-3.70414">
        <ele>141</ele>
        <time>2021-09-12T06:43:24Z</time>
      </trkpt>
      <trkpt lat="48.33532" lon="-3.7041">
        <ele>141.19999694824</ele>
        <time>2021-09-12T06:43:25Z</time>
      </trkpt>
      <trkpt lat="48.3353" lon="-3.70406">
        <ele>141.39999389648</ele>
        <time>2021-09-12T06:43:26Z</time>
      </trkpt>
      <trkpt lat="48.33527" lon="-3.70402">
        <ele>141.60000610352</ele>
        <time>2021-09-12T06:43:27Z</time>
      </trkpt>
      <trkpt lat="48.33524" lon="-3.70397">
        <ele>142</ele>
        <time>2021-09-12T06:43:28Z</time>
      </trkpt>
      <trkpt lat="48.33522" lon="-3.70393">
        <ele>142</ele>
        <time>2021-09-12T06:43:29Z</time>
      </trkpt>
      <trkpt lat="48.3352" lon="-3.70388">
        <ele>142.19999694824</ele>
        <time>2021-09-12T06:43:30Z</time>
      </trkpt>
      <trkpt lat="48.33518" lon="-3.70384">
        <ele>142.39999389648</ele>
        <time>2021-09-12T06:43:31Z</time>
      </trkpt>
      <trkpt lat="48.33516" lon="-3.70379">
        <ele>142.80000305176</ele>
        <time>2021-09-12T06:43:32Z</time>
      </trkpt>
      <trkpt lat="48.33515" lon="-3.70375">
        <ele>143.19999694824</ele>
        <time>2021-09-12T06:43:33Z</time>
      </trkpt>
      <trkpt lat="48.33515" lon="-3.7037">
        <ele>143.60000610352</ele>
        <time>2021-09-12T06:43:34Z</time>
      </trkpt>
      <trkpt lat="48.33515" lon="-3.70366">
        <ele>143.80000305176</ele>
        <time>2021-09-12T06:43:35Z</time>
      </trkpt>
      <trkpt lat="48.33516" lon="-3.70361">
        <ele>144.19999694824</ele>
        <time>2021-09-12T06:43:36Z</time>
      </trkpt>
      <trkpt lat="48.33517" lon="-3.70356">
        <ele>144.39999389648</ele>
        <time>2021-09-12T06:43:37Z</time>
      </trkpt>
      <trkpt lat="48.33519" lon="-3.7035">
        <ele>144.39999389648</ele>
        <time>2021-09-12T06:43:38Z</time>
      </trkpt>
      <trkpt lat="48.33521" lon="-3.70345">
        <ele>144.80000305176</ele>
        <time>2021-09-12T06:43:39Z</time>
      </trkpt>
      <trkpt lat="48.33523" lon="-3.70339">
        <ele>144.80000305176</ele>
        <time>2021-09-12T06:43:40Z</time>
      </trkpt>
      <trkpt lat="48.33526" lon="-3.70334">
        <ele>145</ele>
        <time>2021-09-12T06:43:41Z</time>
      </trkpt>
      <trkpt lat="48.33529" lon="-3.70329">
        <ele>145</ele>
        <time>2021-09-12T06:43:42Z</time>
      </trkpt>
      <trkpt lat="48.33531" lon="-3.70323">
        <ele>145.19999694824</ele>
        <time>2021-09-12T06:43:43Z</time>
      </trkpt>
      <trkpt lat="48.33533" lon="-3.70317">
        <ele>145.39999389648</ele>
        <time>2021-09-12T06:43:44Z</time>
      </trkpt>
      <trkpt lat="48.33536" lon="-3.70312">
        <ele>145.39999389648</ele>
        <time>2021-09-12T06:43:45Z</time>
      </trkpt>
      <trkpt lat="48.33538" lon="-3.70306">
        <ele>145.60000610352</ele>
        <time>2021-09-12T06:43:46Z</time>
      </trkpt>
      <trkpt lat="48.33541" lon="-3.70299">
        <ele>145.60000610352</ele>
        <time>2021-09-12T06:43:47Z</time>
      </trkpt>
      <trkpt lat="48.33543" lon="-3.70293">
        <ele>145.80000305176</ele>
        <time>2021-09-12T06:43:48Z</time>
      </trkpt>
      <trkpt lat="48.33545" lon="-3.70288">
        <ele>145.80000305176</ele>
        <time>2021-09-12T06:43:49Z</time>
      </trkpt>
      <trkpt lat="48.33547" lon="-3.70282">
        <ele>146</ele>
        <time>2021-09-12T06:43:50Z</time>
      </trkpt>
      <trkpt lat="48.33549" lon="-3.70275">
        <ele>146</ele>
        <time>2021-09-12T06:43:51Z</time>
      </trkpt>
      <trkpt lat="48.3355" lon="-3.70269">
        <ele>146.19999694824</ele>
        <time>2021-09-12T06:43:52Z</time>
      </trkpt>
      <trkpt lat="48.33552" lon="-3.70263">
        <ele>146.39999389648</ele>
        <time>2021-09-12T06:43:53Z</time>
      </trkpt>
      <trkpt lat="48.33553" lon="-3.70256">
        <ele>146.60000610352</ele>
        <time>2021-09-12T06:43:54Z</time>
      </trkpt>
      <trkpt lat="48.33554" lon="-3.7025">
        <ele>146.60000610352</ele>
        <time>2021-09-12T06:43:55Z</time>
      </trkpt>
      <trkpt lat="48.33555" lon="-3.70244">
        <ele>147</ele>
        <time>2021-09-12T06:43:56Z</time>
      </trkpt>
      <trkpt lat="48.33557" lon="-3.70237">
        <ele>147</ele>
        <time>2021-09-12T06:43:57Z</time>
      </trkpt>
      <trkpt lat="48.33558" lon="-3.70231">
        <ele>147.19999694824</ele>
        <time>2021-09-12T06:43:58Z</time>
      </trkpt>
      <trkpt lat="48.33559" lon="-3.70224">
        <ele>147.39999389648</ele>
        <time>2021-09-12T06:43:59Z</time>
      </trkpt>
      <trkpt lat="48.33561" lon="-3.70218">
        <ele>147.39999389648</ele>
        <time>2021-09-12T06:44:00Z</time>
      </trkpt>
      <trkpt lat="48.33562" lon="-3.70211">
        <ele>147.80000305176</ele>
        <time>2021-09-12T06:44:01Z</time>
      </trkpt>
      <trkpt lat="48.33563" lon="-3.70205">
        <ele>148</ele>
        <time>2021-09-12T06:44:02Z</time>
      </trkpt>
      <trkpt lat="48.33566" lon="-3.70199">
        <ele>148</ele>
        <time>2021-09-12T06:44:03Z</time>
      </trkpt>
      <trkpt lat="48.33568" lon="-3.70193">
        <ele>148</ele>
        <time>2021-09-12T06:44:04Z</time>
      </trkpt>
      <trkpt lat="48.33571" lon="-3.70188">
        <ele>148</ele>
        <time>2021-09-12T06:44:05Z</time>
      </trkpt>
      <trkpt lat="48.33574" lon="-3.70183">
        <ele>148.19999694824</ele>
        <time>2021-09-12T06:44:06Z</time>
      </trkpt>
      <trkpt lat="48.33578" lon="-3.70178">
        <ele>148.39999389648</ele>
        <time>2021-09-12T06:44:07Z</time>
      </trkpt>
      <trkpt lat="48.33581" lon="-3.70173">
        <ele>148.39999389648</ele>
        <time>2021-09-12T06:44:08Z</time>
      </trkpt>
      <trkpt lat="48.33585" lon="-3.70169">
        <ele>148.39999389648</ele>
        <time>2021-09-12T06:44:09Z</time>
      </trkpt>
      <trkpt lat="48.33589" lon="-3.70164">
        <ele>148.39999389648</ele>
        <time>2021-09-12T06:44:10Z</time>
      </trkpt>
      <trkpt lat="48.33593" lon="-3.70158">
        <ele>148.39999389648</ele>
        <time>2021-09-12T06:44:11Z</time>
      </trkpt>
      <trkpt lat="48.33597" lon="-3.70152">
        <ele>148.39999389648</ele>
        <time>2021-09-12T06:44:12Z</time>
      </trkpt>
      <trkpt lat="48.33601" lon="-3.70145">
        <ele>148</ele>
        <time>2021-09-12T06:44:13Z</time>
      </trkpt>
      <trkpt lat="48.33604" lon="-3.70138">
        <ele>147.80000305176</ele>
        <time>2021-09-12T06:44:14Z</time>
      </trkpt>
      <trkpt lat="48.33607" lon="-3.7013">
        <ele>147.80000305176</ele>
        <time>2021-09-12T06:44:15Z</time>
      </trkpt>
      <trkpt lat="48.3361" lon="-3.70123">
        <ele>147.80000305176</ele>
        <time>2021-09-12T06:44:16Z</time>
      </trkpt>
      <trkpt lat="48.33612" lon="-3.70115">
        <ele>147.80000305176</ele>
        <time>2021-09-12T06:44:17Z</time>
      </trkpt>
      <trkpt lat="48.33614" lon="-3.70108">
        <ele>147.80000305176</ele>
        <time>2021-09-12T06:44:18Z</time>
      </trkpt>
      <trkpt lat="48.33615" lon="-3.701">
        <ele>147.80000305176</ele>
        <time>2021-09-12T06:44:19Z</time>
      </trkpt>
      <trkpt lat="48.33617" lon="-3.70092">
        <ele>148</ele>
        <time>2021-09-12T06:44:20Z</time>
      </trkpt>
      <trkpt lat="48.33619" lon="-3.70084">
        <ele>148</ele>
        <time>2021-09-12T06:44:21Z</time>
      </trkpt>
      <trkpt lat="48.33621" lon="-3.70076">
        <ele>148</ele>
        <time>2021-09-12T06:44:22Z</time>
      </trkpt>
      <trkpt lat="48.33622" lon="-3.70068">
        <ele>148</ele>
        <time>2021-09-12T06:44:23Z</time>
      </trkpt>
      <trkpt lat="48.33623" lon="-3.7006">
        <ele>148</ele>
        <time>2021-09-12T06:44:24Z</time>
      </trkpt>
      <trkpt lat="48.33624" lon="-3.70052">
        <ele>148</ele>
        <time>2021-09-12T06:44:25Z</time>
      </trkpt>
      <trkpt lat="48.33626" lon="-3.70045">
        <ele>148</ele>
        <time>2021-09-12T06:44:26Z</time>
      </trkpt>
      <trkpt lat="48.33627" lon="-3.70037">
        <ele>148</ele>
        <time>2021-09-12T06:44:27Z</time>
      </trkpt>
      <trkpt lat="48.33629" lon="-3.70029">
        <ele>148.19999694824</ele>
        <time>2021-09-12T06:44:28Z</time>
      </trkpt>
      <trkpt lat="48.33631" lon="-3.70021">
        <ele>148.19999694824</ele>
        <time>2021-09-12T06:44:29Z</time>
      </trkpt>
      <trkpt lat="48.33634" lon="-3.70014">
        <ele>148.19999694824</ele>
        <time>2021-09-12T06:44:30Z</time>
      </trkpt>
      <trkpt lat="48.33636" lon="-3.70006">
        <ele>148.19999694824</ele>
        <time>2021-09-12T06:44:31Z</time>
      </trkpt>
      <trkpt lat="48.33639" lon="-3.69999">
        <ele>148.19999694824</ele>
        <time>2021-09-12T06:44:32Z</time>
      </trkpt>
      <trkpt lat="48.33641" lon="-3.69991">
        <ele>148.39999389648</ele>
        <time>2021-09-12T06:44:33Z</time>
      </trkpt>
      <trkpt lat="48.33644" lon="-3.69984">
        <ele>148.39999389648</ele>
        <time>2021-09-12T06:44:34Z</time>
      </trkpt>
      <trkpt lat="48.33648" lon="-3.69977">
        <ele>148.39999389648</ele>
        <time>2021-09-12T06:44:35Z</time>
      </trkpt>
      <trkpt lat="48.33651" lon="-3.6997">
        <ele>148.60000610352</ele>
        <time>2021-09-12T06:44:36Z</time>
      </trkpt>
      <trkpt lat="48.33655" lon="-3.69963">
        <ele>148.60000610352</ele>
        <time>2021-09-12T06:44:37Z</time>
      </trkpt>
      <trkpt lat="48.33658" lon="-3.69956">
        <ele>148.60000610352</ele>
        <time>2021-09-12T06:44:38Z</time>
      </trkpt>
      <trkpt lat="48.33661" lon="-3.69948">
        <ele>148.60000610352</ele>
        <time>2021-09-12T06:44:39Z</time>
      </trkpt>
      <trkpt lat="48.33665" lon="-3.69941">
        <ele>148.60000610352</ele>
        <time>2021-09-12T06:44:40Z</time>
      </trkpt>
      <trkpt lat="48.33668" lon="-3.69933">
        <ele>148.60000610352</ele>
        <time>2021-09-12T06:44:41Z</time>
      </trkpt>
      <trkpt lat="48.33672" lon="-3.69925">
        <ele>148.39999389648</ele>
        <time>2021-09-12T06:44:42Z</time>
      </trkpt>
      <trkpt lat="48.33675" lon="-3.69917">
        <ele>148.39999389648</ele>
        <time>2021-09-12T06:44:43Z</time>
      </trkpt>
      <trkpt lat="48.33679" lon="-3.69908">
        <ele>148.39999389648</ele>
        <time>2021-09-12T06:44:44Z</time>
      </trkpt>
      <trkpt lat="48.33683" lon="-3.699">
        <ele>148</ele>
        <time>2021-09-12T06:44:45Z</time>
      </trkpt>
      <trkpt lat="48.33687" lon="-3.69891">
        <ele>148</ele>
        <time>2021-09-12T06:44:46Z</time>
      </trkpt>
      <trkpt lat="48.3369" lon="-3.69883">
        <ele>147.60000610352</ele>
        <time>2021-09-12T06:44:47Z</time>
      </trkpt>
      <trkpt lat="48.33693" lon="-3.69875">
        <ele>147.60000610352</ele>
        <time>2021-09-12T06:44:48Z</time>
      </trkpt>
      <trkpt lat="48.33697" lon="-3.69867">
        <ele>147.60000610352</ele>
        <time>2021-09-12T06:44:49Z</time>
      </trkpt>
      <trkpt lat="48.337" lon="-3.69858">
        <ele>147.39999389648</ele>
        <time>2021-09-12T06:44:50Z</time>
      </trkpt>
      <trkpt lat="48.33703" lon="-3.6985">
        <ele>147.39999389648</ele>
        <time>2021-09-12T06:44:51Z</time>
      </trkpt>
      <trkpt lat="48.33706" lon="-3.69841">
        <ele>147</ele>
        <time>2021-09-12T06:44:52Z</time>
      </trkpt>
      <trkpt lat="48.33709" lon="-3.69832">
        <ele>147</ele>
        <time>2021-09-12T06:44:53Z</time>
      </trkpt>
      <trkpt lat="48.33712" lon="-3.69824">
        <ele>146.80000305176</ele>
        <time>2021-09-12T06:44:54Z</time>
      </trkpt>
      <trkpt lat="48.33715" lon="-3.69816">
        <ele>146.80000305176</ele>
        <time>2021-09-12T06:44:55Z</time>
      </trkpt>
      <trkpt lat="48.33718" lon="-3.69807">
        <ele>146.60000610352</ele>
        <time>2021-09-12T06:44:56Z</time>
      </trkpt>
      <trkpt lat="48.33721" lon="-3.69798">
        <ele>146.19999694824</ele>
        <time>2021-09-12T06:44:57Z</time>
      </trkpt>
      <trkpt lat="48.33724" lon="-3.69789">
        <ele>145.80000305176</ele>
        <time>2021-09-12T06:44:58Z</time>
      </trkpt>
      <trkpt lat="48.33727" lon="-3.69779">
        <ele>145.60000610352</ele>
        <time>2021-09-12T06:44:59Z</time>
      </trkpt>
      <trkpt lat="48.33729" lon="-3.69769">
        <ele>144.80000305176</ele>
        <time>2021-09-12T06:45:00Z</time>
      </trkpt>
      <trkpt lat="48.33731" lon="-3.69758">
        <ele>144.80000305176</ele>
        <time>2021-09-12T06:45:01Z</time>
      </trkpt>
      <trkpt lat="48.33732" lon="-3.69747">
        <ele>144.39999389648</ele>
        <time>2021-09-12T06:45:02Z</time>
      </trkpt>
      <trkpt lat="48.3373" lon="-3.69736">
        <ele>143.80000305176</ele>
        <time>2021-09-12T06:45:03Z</time>
      </trkpt>
      <trkpt lat="48.33728" lon="-3.69725">
        <ele>143</ele>
        <time>2021-09-12T06:45:04Z</time>
      </trkpt>
      <trkpt lat="48.33725" lon="-3.69713">
        <ele>142.39999389648</ele>
        <time>2021-09-12T06:45:05Z</time>
      </trkpt>
      <trkpt lat="48.3372" lon="-3.69703">
        <ele>141.80000305176</ele>
        <time>2021-09-12T06:45:06Z</time>
      </trkpt>
      <trkpt lat="48.33714" lon="-3.69693">
        <ele>140.60000610352</ele>
        <time>2021-09-12T06:45:07Z</time>
      </trkpt>
      <trkpt lat="48.33707" lon="-3.69684">
        <ele>140.60000610352</ele>
        <time>2021-09-12T06:45:08Z</time>
      </trkpt>
      <trkpt lat="48.33699" lon="-3.69675">
        <ele>139.39999389648</ele>
        <time>2021-09-12T06:45:09Z</time>
      </trkpt>
      <trkpt lat="48.33691" lon="-3.69667">
        <ele>138.80000305176</ele>
        <time>2021-09-12T06:45:10Z</time>
      </trkpt>
      <trkpt lat="48.33683" lon="-3.69659">
        <ele>138.19999694824</ele>
        <time>2021-09-12T06:45:11Z</time>
      </trkpt>
      <trkpt lat="48.33675" lon="-3.6965">
        <ele>137.39999389648</ele>
        <time>2021-09-12T06:45:12Z</time>
      </trkpt>
      <trkpt lat="48.33667" lon="-3.69641">
        <ele>136.80000305176</ele>
        <time>2021-09-12T06:45:13Z</time>
      </trkpt>
      <trkpt lat="48.33659" lon="-3.69631">
        <ele>136.80000305176</ele>
        <time>2021-09-12T06:45:14Z</time>
      </trkpt>
      <trkpt lat="48.33652" lon="-3.69621">
        <ele>135.80000305176</ele>
        <time>2021-09-12T06:45:15Z</time>
      </trkpt>
      <trkpt lat="48.33646" lon="-3.6961">
        <ele>135.19999694824</ele>
        <time>2021-09-12T06:45:16Z</time>
      </trkpt>
      <trkpt lat="48.3364" lon="-3.69599">
        <ele>134.80000305176</ele>
        <time>2021-09-12T06:45:17Z</time>
      </trkpt>
      <trkpt lat="48.33635" lon="-3.69589">
        <ele>134.80000305176</ele>
        <time>2021-09-12T06:45:18Z</time>
      </trkpt>
      <trkpt lat="48.3363" lon="-3.69578">
        <ele>134.80000305176</ele>
        <time>2021-09-12T06:45:19Z</time>
      </trkpt>
      <trkpt lat="48.33627" lon="-3.69569">
        <ele>134.80000305176</ele>
        <time>2021-09-12T06:45:20Z</time>
      </trkpt>
      <trkpt lat="48.33625" lon="-3.69562">
        <ele>135.19999694824</ele>
        <time>2021-09-12T06:45:21Z</time>
      </trkpt>
      <trkpt lat="48.33622" lon="-3.69556">
        <ele>135.80000305176</ele>
        <time>2021-09-12T06:45:22Z</time>
      </trkpt>
      <trkpt lat="48.33621" lon="-3.69552">
        <ele>137</ele>
        <time>2021-09-12T06:45:23Z</time>
      </trkpt>
      <trkpt lat="48.33619" lon="-3.69548">
        <ele>137.19999694824</ele>
        <time>2021-09-12T06:45:24Z</time>
      </trkpt>
      <trkpt lat="48.33619" lon="-3.69545">
        <ele>137.80000305176</ele>
        <time>2021-09-12T06:45:25Z</time>
      </trkpt>
      <trkpt lat="48.33618" lon="-3.69542">
        <ele>138.39999389648</ele>
        <time>2021-09-12T06:45:26Z</time>
      </trkpt>
      <trkpt lat="48.33618" lon="-3.6954">
        <ele>138.39999389648</ele>
        <time>2021-09-12T06:45:27Z</time>
      </trkpt>
      <trkpt lat="48.33617" lon="-3.69538">
        <ele>138.60000610352</ele>
        <time>2021-09-12T06:45:28Z</time>
      </trkpt>
      <trkpt lat="48.33616" lon="-3.69536">
        <ele>139</ele>
        <time>2021-09-12T06:45:29Z</time>
      </trkpt>
      <trkpt lat="48.33615" lon="-3.69533">
        <ele>139.39999389648</ele>
        <time>2021-09-12T06:45:30Z</time>
      </trkpt>
      <trkpt lat="48.33613" lon="-3.69529">
        <ele>139.60000610352</ele>
        <time>2021-09-12T06:45:31Z</time>
      </trkpt>
      <trkpt lat="48.33612" lon="-3.69526">
        <ele>140</ele>
        <time>2021-09-12T06:45:32Z</time>
      </trkpt>
      <trkpt lat="48.33611" lon="-3.69523">
        <ele>140.39999389648</ele>
        <time>2021-09-12T06:45:33Z</time>
      </trkpt>
      <trkpt lat="48.3361" lon="-3.69519">
        <ele>140.39999389648</ele>
        <time>2021-09-12T06:45:34Z</time>
      </trkpt>
      <trkpt lat="48.33608" lon="-3.69516">
        <ele>140.80000305176</ele>
        <time>2021-09-12T06:45:35Z</time>
      </trkpt>
      <trkpt lat="48.33606" lon="-3.69512">
        <ele>141.19999694824</ele>
        <time>2021-09-12T06:45:36Z</time>
      </trkpt>
      <trkpt lat="48.33605" lon="-3.69509">
        <ele>141.39999389648</ele>
        <time>2021-09-12T06:45:37Z</time>
      </trkpt>
      <trkpt lat="48.33603" lon="-3.69506">
        <ele>141.60000610352</ele>
        <time>2021-09-12T06:45:38Z</time>
      </trkpt>
      <trkpt lat="48.336" lon="-3.69502">
        <ele>142</ele>
        <time>2021-09-12T06:45:39Z</time>
      </trkpt>
      <trkpt lat="48.33599" lon="-3.69499">
        <ele>142</ele>
        <time>2021-09-12T06:45:40Z</time>
      </trkpt>
      <trkpt lat="48.33597" lon="-3.69496">
        <ele>142</ele>
        <time>2021-09-12T06:45:41Z</time>
      </trkpt>
      <trkpt lat="48.33595" lon="-3.69493">
        <ele>142.39999389648</ele>
        <time>2021-09-12T06:45:42Z</time>
      </trkpt>
      <trkpt lat="48.33593" lon="-3.69489">
        <ele>142.39999389648</ele>
        <time>2021-09-12T06:45:43Z</time>
      </trkpt>
      <trkpt lat="48.33591" lon="-3.69487">
        <ele>142.60000610352</ele>
        <time>2021-09-12T06:45:44Z</time>
      </trkpt>
      <trkpt lat="48.33589" lon="-3.69485">
        <ele>143</ele>
        <time>2021-09-12T06:45:45Z</time>
      </trkpt>
      <trkpt lat="48.33587" lon="-3.69482">
        <ele>143.19999694824</ele>
        <time>2021-09-12T06:45:46Z</time>
      </trkpt>
      <trkpt lat="48.33586" lon="-3.6948">
        <ele>143.39999389648</ele>
        <time>2021-09-12T06:45:47Z</time>
      </trkpt>
      <trkpt lat="48.33584" lon="-3.69477">
        <ele>143.39999389648</ele>
        <time>2021-09-12T06:45:48Z</time>
      </trkpt>
      <trkpt lat="48.33582" lon="-3.69474">
        <ele>143.39999389648</ele>
        <time>2021-09-12T06:45:49Z</time>
      </trkpt>
      <trkpt lat="48.3358" lon="-3.6947">
        <ele>143.80000305176</ele>
        <time>2021-09-12T06:45:50Z</time>
      </trkpt>
      <trkpt lat="48.33578" lon="-3.69467">
        <ele>143.80000305176</ele>
        <time>2021-09-12T06:45:51Z</time>
      </trkpt>
      <trkpt lat="48.33576" lon="-3.69464">
        <ele>144</ele>
        <time>2021-09-12T06:45:52Z</time>
      </trkpt>
      <trkpt lat="48.33575" lon="-3.69462">
        <ele>144.19999694824</ele>
        <time>2021-09-12T06:45:53Z</time>
      </trkpt>
      <trkpt lat="48.33573" lon="-3.69459">
        <ele>144.19999694824</ele>
        <time>2021-09-12T06:45:54Z</time>
      </trkpt>
      <trkpt lat="48.33571" lon="-3.69456">
        <ele>144.39999389648</ele>
        <time>2021-09-12T06:45:55Z</time>
      </trkpt>
      <trkpt lat="48.33568" lon="-3.69453">
        <ele>144.60000610352</ele>
        <time>2021-09-12T06:45:56Z</time>
      </trkpt>
      <trkpt lat="48.33566" lon="-3.6945">
        <ele>144.80000305176</ele>
        <time>2021-09-12T06:45:57Z</time>
      </trkpt>
      <trkpt lat="48.33564" lon="-3.69446">
        <ele>145</ele>
        <time>2021-09-12T06:45:58Z</time>
      </trkpt>
      <trkpt lat="48.33563" lon="-3.69443">
        <ele>145</ele>
        <time>2021-09-12T06:45:59Z</time>
      </trkpt>
      <trkpt lat="48.33561" lon="-3.69439">
        <ele>145.19999694824</ele>
        <time>2021-09-12T06:46:00Z</time>
      </trkpt>
      <trkpt lat="48.33559" lon="-3.69436">
        <ele>145.19999694824</ele>
        <time>2021-09-12T06:46:01Z</time>
      </trkpt>
      <trkpt lat="48.33557" lon="-3.69433">
        <ele>145.39999389648</ele>
        <time>2021-09-12T06:46:02Z</time>
      </trkpt>
      <trkpt lat="48.33555" lon="-3.6943">
        <ele>145.39999389648</ele>
        <time>2021-09-12T06:46:03Z</time>
      </trkpt>
      <trkpt lat="48.33552" lon="-3.69427">
        <ele>145.60000610352</ele>
        <time>2021-09-12T06:46:04Z</time>
      </trkpt>
      <trkpt lat="48.3355" lon="-3.69423">
        <ele>145.60000610352</ele>
        <time>2021-09-12T06:46:05Z</time>
      </trkpt>
      <trkpt lat="48.33547" lon="-3.69419">
        <ele>145.60000610352</ele>
        <time>2021-09-12T06:46:06Z</time>
      </trkpt>
      <trkpt lat="48.33544" lon="-3.69413">
        <ele>145.60000610352</ele>
        <time>2021-09-12T06:46:07Z</time>
      </trkpt>
      <trkpt lat="48.33541" lon="-3.69406">
        <ele>145.60000610352</ele>
        <time>2021-09-12T06:46:08Z</time>
      </trkpt>
      <trkpt lat="48.33538" lon="-3.69401">
        <ele>145.39999389648</ele>
        <time>2021-09-12T06:46:09Z</time>
      </trkpt>
      <trkpt lat="48.33535" lon="-3.69396">
        <ele>145.19999694824</ele>
        <time>2021-09-12T06:46:10Z</time>
      </trkpt>
      <trkpt lat="48.33533" lon="-3.69391">
        <ele>145.19999694824</ele>
        <time>2021-09-12T06:46:11Z</time>
      </trkpt>
      <trkpt lat="48.33531" lon="-3.69385">
        <ele>145</ele>
        <time>2021-09-12T06:46:12Z</time>
      </trkpt>
      <trkpt lat="48.33528" lon="-3.69379">
        <ele>144.80000305176</ele>
        <time>2021-09-12T06:46:13Z</time>
      </trkpt>
      <trkpt lat="48.33525" lon="-3.69373">
        <ele>144.80000305176</ele>
        <time>2021-09-12T06:46:14Z</time>
      </trkpt>
      <trkpt lat="48.33521" lon="-3.69367">
        <ele>144.60000610352</ele>
        <time>2021-09-12T06:46:15Z</time>
      </trkpt>
      <trkpt lat="48.33517" lon="-3.69361">
        <ele>144.60000610352</ele>
        <time>2021-09-12T06:46:16Z</time>
      </trkpt>
      <trkpt lat="48.33514" lon="-3.69355">
        <ele>144.39999389648</ele>
        <time>2021-09-12T06:46:17Z</time>
      </trkpt>
      <trkpt lat="48.33512" lon="-3.69348">
        <ele>144.19999694824</ele>
        <time>2021-09-12T06:46:18Z</time>
      </trkpt>
      <trkpt lat="48.3351" lon="-3.69343">
        <ele>144.19999694824</ele>
        <time>2021-09-12T06:46:19Z</time>
      </trkpt>
      <trkpt lat="48.33507" lon="-3.69338">
        <ele>144.19999694824</ele>
        <time>2021-09-12T06:46:20Z</time>
      </trkpt>
      <trkpt lat="48.33504" lon="-3.69332">
        <ele>144</ele>
        <time>2021-09-12T06:46:21Z</time>
      </trkpt>
      <trkpt lat="48.33499" lon="-3.69326">
        <ele>144</ele>
        <time>2021-09-12T06:46:22Z</time>
      </trkpt>
      <trkpt lat="48.33495" lon="-3.69321">
        <ele>143.80000305176</ele>
        <time>2021-09-12T06:46:23Z</time>
      </trkpt>
      <trkpt lat="48.33491" lon="-3.69316">
        <ele>143.80000305176</ele>
        <time>2021-09-12T06:46:24Z</time>
      </trkpt>
      <trkpt lat="48.33487" lon="-3.6931">
        <ele>143.80000305176</ele>
        <time>2021-09-12T06:46:25Z</time>
      </trkpt>
      <trkpt lat="48.33483" lon="-3.69305">
        <ele>143.80000305176</ele>
        <time>2021-09-12T06:46:26Z</time>
      </trkpt>
      <trkpt lat="48.33479" lon="-3.693">
        <ele>143.80000305176</ele>
        <time>2021-09-12T06:46:27Z</time>
      </trkpt>
      <trkpt lat="48.33476" lon="-3.69295">
        <ele>143.60000610352</ele>
        <time>2021-09-12T06:46:28Z</time>
      </trkpt>
      <trkpt lat="48.33471" lon="-3.69291">
        <ele>143.60000610352</ele>
        <time>2021-09-12T06:46:29Z</time>
      </trkpt>
      <trkpt lat="48.33467" lon="-3.69284">
        <ele>143.39999389648</ele>
        <time>2021-09-12T06:46:30Z</time>
      </trkpt>
      <trkpt lat="48.33465" lon="-3.6928">
        <ele>143.19999694824</ele>
        <time>2021-09-12T06:46:31Z</time>
      </trkpt>
      <trkpt lat="48.33462" lon="-3.69274">
        <ele>143</ele>
        <time>2021-09-12T06:46:32Z</time>
      </trkpt>
      <trkpt lat="48.33459" lon="-3.69268">
        <ele>142.80000305176</ele>
        <time>2021-09-12T06:46:33Z</time>
      </trkpt>
      <trkpt lat="48.33455" lon="-3.69262">
        <ele>142.19999694824</ele>
        <time>2021-09-12T06:46:34Z</time>
      </trkpt>
      <trkpt lat="48.33451" lon="-3.69255">
        <ele>141.80000305176</ele>
        <time>2021-09-12T06:46:35Z</time>
      </trkpt>
      <trkpt lat="48.33448" lon="-3.69249">
        <ele>141.60000610352</ele>
        <time>2021-09-12T06:46:36Z</time>
      </trkpt>
      <trkpt lat="48.33445" lon="-3.69242">
        <ele>141.60000610352</ele>
        <time>2021-09-12T06:46:37Z</time>
      </trkpt>
      <trkpt lat="48.33443" lon="-3.69237">
        <ele>141.60000610352</ele>
        <time>2021-09-12T06:46:38Z</time>
      </trkpt>
      <trkpt lat="48.33441" lon="-3.69232">
        <ele>141.60000610352</ele>
        <time>2021-09-12T06:46:39Z</time>
      </trkpt>
      <trkpt lat="48.3344" lon="-3.69228">
        <ele>142.19999694824</ele>
        <time>2021-09-12T06:46:40Z</time>
      </trkpt>
      <trkpt lat="48.33439" lon="-3.69223">
        <ele>142.60000610352</ele>
        <time>2021-09-12T06:46:41Z</time>
      </trkpt>
      <trkpt lat="48.33439" lon="-3.69219">
        <ele>142.80000305176</ele>
        <time>2021-09-12T06:46:42Z</time>
      </trkpt>
      <trkpt lat="48.33439" lon="-3.69214">
        <ele>142.80000305176</ele>
        <time>2021-09-12T06:46:43Z</time>
      </trkpt>
      <trkpt lat="48.33439" lon="-3.69209">
        <ele>143.19999694824</ele>
        <time>2021-09-12T06:46:44Z</time>
      </trkpt>
      <trkpt lat="48.3344" lon="-3.69204">
        <ele>143.19999694824</ele>
        <time>2021-09-12T06:46:45Z</time>
      </trkpt>
      <trkpt lat="48.33441" lon="-3.69199">
        <ele>143.19999694824</ele>
        <time>2021-09-12T06:46:46Z</time>
      </trkpt>
      <trkpt lat="48.33443" lon="-3.69192">
        <ele>143.19999694824</ele>
        <time>2021-09-12T06:46:47Z</time>
      </trkpt>
      <trkpt lat="48.33443" lon="-3.69187">
        <ele>143.19999694824</ele>
        <time>2021-09-12T06:46:48Z</time>
      </trkpt>
      <trkpt lat="48.33445" lon="-3.69178">
        <ele>143.19999694824</ele>
        <time>2021-09-12T06:46:49Z</time>
      </trkpt>
      <trkpt lat="48.33445" lon="-3.69171">
        <ele>143.19999694824</ele>
        <time>2021-09-12T06:46:50Z</time>
      </trkpt>
      <trkpt lat="48.33445" lon="-3.69163">
        <ele>143.19999694824</ele>
        <time>2021-09-12T06:46:51Z</time>
      </trkpt>
      <trkpt lat="48.33445" lon="-3.69156">
        <ele>143.19999694824</ele>
        <time>2021-09-12T06:46:52Z</time>
      </trkpt>
      <trkpt lat="48.33445" lon="-3.69149">
        <ele>143.19999694824</ele>
        <time>2021-09-12T06:46:53Z</time>
      </trkpt>
      <trkpt lat="48.33446" lon="-3.69141">
        <ele>143.19999694824</ele>
        <time>2021-09-12T06:46:54Z</time>
      </trkpt>
      <trkpt lat="48.33448" lon="-3.69132">
        <ele>143.19999694824</ele>
        <time>2021-09-12T06:46:55Z</time>
      </trkpt>
      <trkpt lat="48.33451" lon="-3.69124">
        <ele>143.19999694824</ele>
        <time>2021-09-12T06:46:56Z</time>
      </trkpt>
      <trkpt lat="48.33453" lon="-3.69118">
        <ele>143.19999694824</ele>
        <time>2021-09-12T06:46:57Z</time>
      </trkpt>
      <trkpt lat="48.33455" lon="-3.69111">
        <ele>143.19999694824</ele>
        <time>2021-09-12T06:46:58Z</time>
      </trkpt>
      <trkpt lat="48.33457" lon="-3.69104">
        <ele>143.19999694824</ele>
        <time>2021-09-12T06:46:59Z</time>
      </trkpt>
      <trkpt lat="48.33459" lon="-3.69097">
        <ele>143.39999389648</ele>
        <time>2021-09-12T06:47:00Z</time>
      </trkpt>
      <trkpt lat="48.33461" lon="-3.69092">
        <ele>143.39999389648</ele>
        <time>2021-09-12T06:47:01Z</time>
      </trkpt>
      <trkpt lat="48.33463" lon="-3.69085">
        <ele>143.39999389648</ele>
        <time>2021-09-12T06:47:02Z</time>
      </trkpt>
      <trkpt lat="48.33465" lon="-3.6908">
        <ele>143.60000610352</ele>
        <time>2021-09-12T06:47:03Z</time>
      </trkpt>
      <trkpt lat="48.33466" lon="-3.69075">
        <ele>143.80000305176</ele>
        <time>2021-09-12T06:47:04Z</time>
      </trkpt>
      <trkpt lat="48.33467" lon="-3.69069">
        <ele>143.80000305176</ele>
        <time>2021-09-12T06:47:05Z</time>
      </trkpt>
      <trkpt lat="48.33468" lon="-3.69063">
        <ele>144.39999389648</ele>
        <time>2021-09-12T06:47:06Z</time>
      </trkpt>
      <trkpt lat="48.33469" lon="-3.69056">
        <ele>144.60000610352</ele>
        <time>2021-09-12T06:47:07Z</time>
      </trkpt>
      <trkpt lat="48.3347" lon="-3.6905">
        <ele>144.80000305176</ele>
        <time>2021-09-12T06:47:08Z</time>
      </trkpt>
      <trkpt lat="48.3347" lon="-3.69044">
        <ele>144.80000305176</ele>
        <time>2021-09-12T06:47:09Z</time>
      </trkpt>
      <trkpt lat="48.3347" lon="-3.69036">
        <ele>145</ele>
        <time>2021-09-12T06:47:10Z</time>
      </trkpt>
      <trkpt lat="48.33469" lon="-3.6903">
        <ele>145.39999389648</ele>
        <time>2021-09-12T06:47:11Z</time>
      </trkpt>
      <trkpt lat="48.33467" lon="-3.69023">
        <ele>145.39999389648</ele>
        <time>2021-09-12T06:47:12Z</time>
      </trkpt>
      <trkpt lat="48.33466" lon="-3.69019">
        <ele>145.80000305176</ele>
        <time>2021-09-12T06:47:13Z</time>
      </trkpt>
      <trkpt lat="48.33464" lon="-3.69014">
        <ele>145.80000305176</ele>
        <time>2021-09-12T06:47:14Z</time>
      </trkpt>
      <trkpt lat="48.33462" lon="-3.69011">
        <ele>145.80000305176</ele>
        <time>2021-09-12T06:47:15Z</time>
      </trkpt>
      <trkpt lat="48.3346" lon="-3.6901">
        <ele>146</ele>
        <time>2021-09-12T06:47:16Z</time>
      </trkpt>
      <trkpt lat="48.33459" lon="-3.6901">
        <ele>146</ele>
        <time>2021-09-12T06:47:17Z</time>
      </trkpt>
      <trkpt lat="48.33457" lon="-3.69012">
        <ele>146.60000610352</ele>
        <time>2021-09-12T06:47:18Z</time>
      </trkpt>
      <trkpt lat="48.33455" lon="-3.69014">
        <ele>146.60000610352</ele>
        <time>2021-09-12T06:47:19Z</time>
      </trkpt>
      <trkpt lat="48.33454" lon="-3.69017">
        <ele>147</ele>
        <time>2021-09-12T06:47:20Z</time>
      </trkpt>
      <trkpt lat="48.33452" lon="-3.6902">
        <ele>147</ele>
        <time>2021-09-12T06:47:21Z</time>
      </trkpt>
      <trkpt lat="48.33451" lon="-3.69024">
        <ele>147.39999389648</ele>
        <time>2021-09-12T06:47:22Z</time>
      </trkpt>
      <trkpt lat="48.3345" lon="-3.69028">
        <ele>147.39999389648</ele>
        <time>2021-09-12T06:47:23Z</time>
      </trkpt>
      <trkpt lat="48.33449" lon="-3.69032">
        <ele>147.39999389648</ele>
        <time>2021-09-12T06:47:24Z</time>
      </trkpt>
      <trkpt lat="48.33447" lon="-3.69036">
        <ele>147.39999389648</ele>
        <time>2021-09-12T06:47:25Z</time>
      </trkpt>
      <trkpt lat="48.33445" lon="-3.69039">
        <ele>147.39999389648</ele>
        <time>2021-09-12T06:47:26Z</time>
      </trkpt>
      <trkpt lat="48.33443" lon="-3.69041">
        <ele>147.39999389648</ele>
        <time>2021-09-12T06:47:27Z</time>
      </trkpt>
      <trkpt lat="48.33442" lon="-3.69044">
        <ele>147.39999389648</ele>
        <time>2021-09-12T06:47:28Z</time>
      </trkpt>
      <trkpt lat="48.33441" lon="-3.69047">
        <ele>147.60000610352</ele>
        <time>2021-09-12T06:47:29Z</time>
      </trkpt>
      <trkpt lat="48.33439" lon="-3.69049">
        <ele>147.60000610352</ele>
        <time>2021-09-12T06:47:30Z</time>
      </trkpt>
      <trkpt lat="48.33437" lon="-3.69051">
        <ele>147.80000305176</ele>
        <time>2021-09-12T06:47:31Z</time>
      </trkpt>
      <trkpt lat="48.33435" lon="-3.69053">
        <ele>148</ele>
        <time>2021-09-12T06:47:32Z</time>
      </trkpt>
      <trkpt lat="48.33432" lon="-3.69054">
        <ele>148.19999694824</ele>
        <time>2021-09-12T06:47:33Z</time>
      </trkpt>
      <trkpt lat="48.3343" lon="-3.69055">
        <ele>148.19999694824</ele>
        <time>2021-09-12T06:47:34Z</time>
      </trkpt>
      <trkpt lat="48.33428" lon="-3.69056">
        <ele>148.39999389648</ele>
        <time>2021-09-12T06:47:35Z</time>
      </trkpt>
      <trkpt lat="48.33425" lon="-3.69057">
        <ele>148.80000305176</ele>
        <time>2021-09-12T06:47:36Z</time>
      </trkpt>
      <trkpt lat="48.33423" lon="-3.69059">
        <ele>149</ele>
        <time>2021-09-12T06:47:37Z</time>
      </trkpt>
      <trkpt lat="48.33421" lon="-3.69063">
        <ele>149.39999389648</ele>
        <time>2021-09-12T06:47:38Z</time>
      </trkpt>
      <trkpt lat="48.3342" lon="-3.69065">
        <ele>149.60000610352</ele>
        <time>2021-09-12T06:47:39Z</time>
      </trkpt>
      <trkpt lat="48.33417" lon="-3.69068">
        <ele>149.60000610352</ele>
        <time>2021-09-12T06:47:40Z</time>
      </trkpt>
      <trkpt lat="48.33415" lon="-3.6907">
        <ele>149.80000305176</ele>
        <time>2021-09-12T06:47:41Z</time>
      </trkpt>
      <trkpt lat="48.33413" lon="-3.69072">
        <ele>150</ele>
        <time>2021-09-12T06:47:42Z</time>
      </trkpt>
      <trkpt lat="48.33412" lon="-3.69074">
        <ele>150.19999694824</ele>
        <time>2021-09-12T06:47:43Z</time>
      </trkpt>
      <trkpt lat="48.33412" lon="-3.69076">
        <ele>150.19999694824</ele>
        <time>2021-09-12T06:47:44Z</time>
      </trkpt>
      <trkpt lat="48.33411" lon="-3.69079">
        <ele>150.39999389648</ele>
        <time>2021-09-12T06:47:45Z</time>
      </trkpt>
      <trkpt lat="48.33411" lon="-3.69081">
        <ele>150.60000610352</ele>
        <time>2021-09-12T06:47:46Z</time>
      </trkpt>
      <trkpt lat="48.33409" lon="-3.69084">
        <ele>150.60000610352</ele>
        <time>2021-09-12T06:47:47Z</time>
      </trkpt>
      <trkpt lat="48.33407" lon="-3.69086">
        <ele>150.60000610352</ele>
        <time>2021-09-12T06:47:48Z</time>
      </trkpt>
      <trkpt lat="48.33406" lon="-3.6909">
        <ele>150.80000305176</ele>
        <time>2021-09-12T06:47:49Z</time>
      </trkpt>
      <trkpt lat="48.33405" lon="-3.69093">
        <ele>150.80000305176</ele>
        <time>2021-09-12T06:47:50Z</time>
      </trkpt>
      <trkpt lat="48.33405" lon="-3.69097">
        <ele>150.80000305176</ele>
        <time>2021-09-12T06:47:51Z</time>
      </trkpt>
      <trkpt lat="48.33405" lon="-3.69101">
        <ele>150.80000305176</ele>
        <time>2021-09-12T06:47:52Z</time>
      </trkpt>
      <trkpt lat="48.33406" lon="-3.69106">
        <ele>151</ele>
        <time>2021-09-12T06:47:53Z</time>
      </trkpt>
      <trkpt lat="48.33404" lon="-3.69109">
        <ele>151</ele>
        <time>2021-09-12T06:47:54Z</time>
      </trkpt>
      <trkpt lat="48.33403" lon="-3.69112">
        <ele>151</ele>
        <time>2021-09-12T06:47:55Z</time>
      </trkpt>
      <trkpt lat="48.33401" lon="-3.69116">
        <ele>151</ele>
        <time>2021-09-12T06:47:56Z</time>
      </trkpt>
      <trkpt lat="48.33399" lon="-3.69121">
        <ele>151.19999694824</ele>
        <time>2021-09-12T06:47:57Z</time>
      </trkpt>
      <trkpt lat="48.334" lon="-3.69124">
        <ele>151.19999694824</ele>
        <time>2021-09-12T06:47:58Z</time>
      </trkpt>
      <trkpt lat="48.334" lon="-3.69129">
        <ele>151.60000610352</ele>
        <time>2021-09-12T06:47:59Z</time>
      </trkpt>
      <trkpt lat="48.33399" lon="-3.69133">
        <ele>151.60000610352</ele>
        <time>2021-09-12T06:48:00Z</time>
      </trkpt>
      <trkpt lat="48.33399" lon="-3.69136">
        <ele>151.60000610352</ele>
        <time>2021-09-12T06:48:01Z</time>
      </trkpt>
      <trkpt lat="48.33398" lon="-3.69141">
        <ele>151.80000305176</ele>
        <time>2021-09-12T06:48:02Z</time>
      </trkpt>
      <trkpt lat="48.33397" lon="-3.69146">
        <ele>151.80000305176</ele>
        <time>2021-09-12T06:48:03Z</time>
      </trkpt>
      <trkpt lat="48.33396" lon="-3.69149">
        <ele>151.80000305176</ele>
        <time>2021-09-12T06:48:04Z</time>
      </trkpt>
      <trkpt lat="48.33396" lon="-3.69152">
        <ele>152</ele>
        <time>2021-09-12T06:48:05Z</time>
      </trkpt>
      <trkpt lat="48.33396" lon="-3.69154">
        <ele>152</ele>
        <time>2021-09-12T06:48:06Z</time>
      </trkpt>
      <trkpt lat="48.33396" lon="-3.69156">
        <ele>152</ele>
        <time>2021-09-12T06:48:07Z</time>
      </trkpt>
      <trkpt lat="48.33396" lon="-3.69158">
        <ele>152.19999694824</ele>
        <time>2021-09-12T06:48:08Z</time>
      </trkpt>
      <trkpt lat="48.33395" lon="-3.69164">
        <ele>152.19999694824</ele>
        <time>2021-09-12T06:48:09Z</time>
      </trkpt>
      <trkpt lat="48.33395" lon="-3.69167">
        <ele>152.39999389648</ele>
        <time>2021-09-12T06:48:10Z</time>
      </trkpt>
      <trkpt lat="48.33395" lon="-3.6917">
        <ele>152.60000610352</ele>
        <time>2021-09-12T06:48:11Z</time>
      </trkpt>
      <trkpt lat="48.33395" lon="-3.69173">
        <ele>152.60000610352</ele>
        <time>2021-09-12T06:48:12Z</time>
      </trkpt>
      <trkpt lat="48.33395" lon="-3.69176">
        <ele>152.60000610352</ele>
        <time>2021-09-12T06:48:13Z</time>
      </trkpt>
      <trkpt lat="48.33394" lon="-3.69178">
        <ele>152.60000610352</ele>
        <time>2021-09-12T06:48:14Z</time>
      </trkpt>
      <trkpt lat="48.33394" lon="-3.6918">
        <ele>153.19999694824</ele>
        <time>2021-09-12T06:48:15Z</time>
      </trkpt>
      <trkpt lat="48.33393" lon="-3.69183">
        <ele>153.19999694824</ele>
        <time>2021-09-12T06:48:16Z</time>
      </trkpt>
      <trkpt lat="48.33393" lon="-3.69185">
        <ele>153.39999389648</ele>
        <time>2021-09-12T06:48:17Z</time>
      </trkpt>
      <trkpt lat="48.33394" lon="-3.69188">
        <ele>153.60000610352</ele>
        <time>2021-09-12T06:48:18Z</time>
      </trkpt>
      <trkpt lat="48.33394" lon="-3.6919">
        <ele>153.60000610352</ele>
        <time>2021-09-12T06:48:19Z</time>
      </trkpt>
      <trkpt lat="48.33394" lon="-3.69194">
        <ele>153.60000610352</ele>
        <time>2021-09-12T06:48:20Z</time>
      </trkpt>
      <trkpt lat="48.33393" lon="-3.69197">
        <ele>153.80000305176</ele>
        <time>2021-09-12T06:48:21Z</time>
      </trkpt>
      <trkpt lat="48.33393" lon="-3.69202">
        <ele>153.80000305176</ele>
        <time>2021-09-12T06:48:22Z</time>
      </trkpt>
      <trkpt lat="48.33392" lon="-3.69205">
        <ele>153.80000305176</ele>
        <time>2021-09-12T06:48:23Z</time>
      </trkpt>
      <trkpt lat="48.33392" lon="-3.69208">
        <ele>153.80000305176</ele>
        <time>2021-09-12T06:48:24Z</time>
      </trkpt>
      <trkpt lat="48.33391" lon="-3.69211">
        <ele>153.80000305176</ele>
        <time>2021-09-12T06:48:25Z</time>
      </trkpt>
      <trkpt lat="48.3339" lon="-3.69214">
        <ele>153.80000305176</ele>
        <time>2021-09-12T06:48:26Z</time>
      </trkpt>
      <trkpt lat="48.3339" lon="-3.69218">
        <ele>153.80000305176</ele>
        <time>2021-09-12T06:48:27Z</time>
      </trkpt>
      <trkpt lat="48.3339" lon="-3.69222">
        <ele>153.80000305176</ele>
        <time>2021-09-12T06:48:28Z</time>
      </trkpt>
      <trkpt lat="48.3339" lon="-3.69227">
        <ele>154</ele>
        <time>2021-09-12T06:48:29Z</time>
      </trkpt>
      <trkpt lat="48.3339" lon="-3.69231">
        <ele>154</ele>
        <time>2021-09-12T06:48:30Z</time>
      </trkpt>
      <trkpt lat="48.33389" lon="-3.69234">
        <ele>154</ele>
        <time>2021-09-12T06:48:31Z</time>
      </trkpt>
      <trkpt lat="48.33388" lon="-3.69238">
        <ele>154</ele>
        <time>2021-09-12T06:48:32Z</time>
      </trkpt>
      <trkpt lat="48.33388" lon="-3.69241">
        <ele>154</ele>
        <time>2021-09-12T06:48:33Z</time>
      </trkpt>
      <trkpt lat="48.33387" lon="-3.69243">
        <ele>154.19999694824</ele>
        <time>2021-09-12T06:48:34Z</time>
      </trkpt>
      <trkpt lat="48.33388" lon="-3.69246">
        <ele>154.19999694824</ele>
        <time>2021-09-12T06:48:35Z</time>
      </trkpt>
      <trkpt lat="48.33388" lon="-3.69248">
        <ele>154.19999694824</ele>
        <time>2021-09-12T06:48:36Z</time>
      </trkpt>
      <trkpt lat="48.33388" lon="-3.6925">
        <ele>154.19999694824</ele>
        <time>2021-09-12T06:48:37Z</time>
      </trkpt>
      <trkpt lat="48.33388" lon="-3.69253">
        <ele>154.60000610352</ele>
        <time>2021-09-12T06:48:38Z</time>
      </trkpt>
      <trkpt lat="48.33387" lon="-3.69256">
        <ele>154.60000610352</ele>
        <time>2021-09-12T06:48:39Z</time>
      </trkpt>
      <trkpt lat="48.33385" lon="-3.6926">
        <ele>154.80000305176</ele>
        <time>2021-09-12T06:48:40Z</time>
      </trkpt>
      <trkpt lat="48.33383" lon="-3.69264">
        <ele>155</ele>
        <time>2021-09-12T06:48:41Z</time>
      </trkpt>
      <trkpt lat="48.3338" lon="-3.69268">
        <ele>155.39999389648</ele>
        <time>2021-09-12T06:48:42Z</time>
      </trkpt>
      <trkpt lat="48.33379" lon="-3.69269">
        <ele>155.60000610352</ele>
        <time>2021-09-12T06:48:43Z</time>
      </trkpt>
      <trkpt lat="48.33377" lon="-3.69271">
        <ele>156</ele>
        <time>2021-09-12T06:48:44Z</time>
      </trkpt>
      <trkpt lat="48.33376" lon="-3.69272">
        <ele>156.19999694824</ele>
        <time>2021-09-12T06:48:45Z</time>
      </trkpt>
      <trkpt lat="48.33375" lon="-3.69275">
        <ele>156.39999389648</ele>
        <time>2021-09-12T06:48:46Z</time>
      </trkpt>
      <trkpt lat="48.33374" lon="-3.69277">
        <ele>156.39999389648</ele>
        <time>2021-09-12T06:48:47Z</time>
      </trkpt>
      <trkpt lat="48.33374" lon="-3.69279">
        <ele>156.60000610352</ele>
        <time>2021-09-12T06:48:48Z</time>
      </trkpt>
      <trkpt lat="48.33373" lon="-3.69282">
        <ele>156.80000305176</ele>
        <time>2021-09-12T06:48:49Z</time>
      </trkpt>
      <trkpt lat="48.33373" lon="-3.69283">
        <ele>156.80000305176</ele>
        <time>2021-09-12T06:48:50Z</time>
      </trkpt>
      <trkpt lat="48.33372" lon="-3.69285">
        <ele>157</ele>
        <time>2021-09-12T06:48:51Z</time>
      </trkpt>
      <trkpt lat="48.3337" lon="-3.69286">
        <ele>157.39999389648</ele>
        <time>2021-09-12T06:48:52Z</time>
      </trkpt>
      <trkpt lat="48.33369" lon="-3.69287">
        <ele>157.80000305176</ele>
        <time>2021-09-12T06:48:53Z</time>
      </trkpt>
      <trkpt lat="48.33368" lon="-3.69288">
        <ele>157.80000305176</ele>
        <time>2021-09-12T06:48:54Z</time>
      </trkpt>
      <trkpt lat="48.33367" lon="-3.6929">
        <ele>158.19999694824</ele>
        <time>2021-09-12T06:48:55Z</time>
      </trkpt>
      <trkpt lat="48.33366" lon="-3.69292">
        <ele>158.19999694824</ele>
        <time>2021-09-12T06:48:56Z</time>
      </trkpt>
      <trkpt lat="48.33366" lon="-3.69294">
        <ele>158.39999389648</ele>
        <time>2021-09-12T06:48:57Z</time>
      </trkpt>
      <trkpt lat="48.33365" lon="-3.69297">
        <ele>158.60000610352</ele>
        <time>2021-09-12T06:48:58Z</time>
      </trkpt>
      <trkpt lat="48.33365" lon="-3.69299">
        <ele>158.60000610352</ele>
        <time>2021-09-12T06:48:59Z</time>
      </trkpt>
      <trkpt lat="48.33365" lon="-3.69301">
        <ele>158.60000610352</ele>
        <time>2021-09-12T06:49:00Z</time>
      </trkpt>
      <trkpt lat="48.33365" lon="-3.69301">
        <ele>158.60000610352</ele>
        <time>2021-09-12T06:49:01Z</time>
      </trkpt>
      <trkpt lat="48.33365" lon="-3.69306">
        <ele>158.60000610352</ele>
        <time>2021-09-12T06:49:02Z</time>
      </trkpt>
      <trkpt lat="48.33364" lon="-3.69311">
        <ele>158.80000305176</ele>
        <time>2021-09-12T06:49:03Z</time>
      </trkpt>
      <trkpt lat="48.33362" lon="-3.69315">
        <ele>158.80000305176</ele>
        <time>2021-09-12T06:49:04Z</time>
      </trkpt>
      <trkpt lat="48.3336" lon="-3.69319">
        <ele>159</ele>
        <time>2021-09-12T06:49:05Z</time>
      </trkpt>
      <trkpt lat="48.33359" lon="-3.69321">
        <ele>159</ele>
        <time>2021-09-12T06:49:06Z</time>
      </trkpt>
      <trkpt lat="48.33358" lon="-3.69324">
        <ele>159.19999694824</ele>
        <time>2021-09-12T06:49:07Z</time>
      </trkpt>
      <trkpt lat="48.33357" lon="-3.69326">
        <ele>159.60000610352</ele>
        <time>2021-09-12T06:49:08Z</time>
      </trkpt>
      <trkpt lat="48.33355" lon="-3.69329">
        <ele>159.80000305176</ele>
        <time>2021-09-12T06:49:09Z</time>
      </trkpt>
      <trkpt lat="48.33355" lon="-3.69333">
        <ele>159.80000305176</ele>
        <time>2021-09-12T06:49:10Z</time>
      </trkpt>
      <trkpt lat="48.33354" lon="-3.69337">
        <ele>160</ele>
        <time>2021-09-12T06:49:11Z</time>
      </trkpt>
      <trkpt lat="48.33355" lon="-3.69341">
        <ele>160</ele>
        <time>2021-09-12T06:49:12Z</time>
      </trkpt>
      <trkpt lat="48.33355" lon="-3.69343">
        <ele>160</ele>
        <time>2021-09-12T06:49:13Z</time>
      </trkpt>
      <trkpt lat="48.33355" lon="-3.69345">
        <ele>160</ele>
        <time>2021-09-12T06:49:14Z</time>
      </trkpt>
      <trkpt lat="48.33354" lon="-3.69347">
        <ele>160</ele>
        <time>2021-09-12T06:49:15Z</time>
      </trkpt>
      <trkpt lat="48.33354" lon="-3.6935">
        <ele>160</ele>
        <time>2021-09-12T06:49:16Z</time>
      </trkpt>
      <trkpt lat="48.33353" lon="-3.69353">
        <ele>160.19999694824</ele>
        <time>2021-09-12T06:49:17Z</time>
      </trkpt>
      <trkpt lat="48.33352" lon="-3.69359">
        <ele>160.39999389648</ele>
        <time>2021-09-12T06:49:18Z</time>
      </trkpt>
      <trkpt lat="48.33351" lon="-3.69366">
        <ele>160.39999389648</ele>
        <time>2021-09-12T06:49:19Z</time>
      </trkpt>
      <trkpt lat="48.3335" lon="-3.69374">
        <ele>160.39999389648</ele>
        <time>2021-09-12T06:49:20Z</time>
      </trkpt>
      <trkpt lat="48.33351" lon="-3.6938">
        <ele>160.60000610352</ele>
        <time>2021-09-12T06:49:21Z</time>
      </trkpt>
      <trkpt lat="48.33351" lon="-3.69384">
        <ele>160.60000610352</ele>
        <time>2021-09-12T06:49:22Z</time>
      </trkpt>
      <trkpt lat="48.33352" lon="-3.69387">
        <ele>160.80000305176</ele>
        <time>2021-09-12T06:49:23Z</time>
      </trkpt>
      <trkpt lat="48.33353" lon="-3.6939">
        <ele>160.80000305176</ele>
        <time>2021-09-12T06:49:24Z</time>
      </trkpt>
      <trkpt lat="48.33355" lon="-3.69395">
        <ele>160.80000305176</ele>
        <time>2021-09-12T06:49:25Z</time>
      </trkpt>
      <trkpt lat="48.33356" lon="-3.69398">
        <ele>160.80000305176</ele>
        <time>2021-09-12T06:49:26Z</time>
      </trkpt>
      <trkpt lat="48.33356" lon="-3.69402">
        <ele>160.80000305176</ele>
        <time>2021-09-12T06:49:27Z</time>
      </trkpt>
      <trkpt lat="48.33356" lon="-3.69405">
        <ele>160.80000305176</ele>
        <time>2021-09-12T06:49:28Z</time>
      </trkpt>
      <trkpt lat="48.33356" lon="-3.69408">
        <ele>161</ele>
        <time>2021-09-12T06:49:29Z</time>
      </trkpt>
      <trkpt lat="48.33356" lon="-3.69411">
        <ele>161</ele>
        <time>2021-09-12T06:49:30Z</time>
      </trkpt>
      <trkpt lat="48.33356" lon="-3.69414">
        <ele>161.19999694824</ele>
        <time>2021-09-12T06:49:31Z</time>
      </trkpt>
      <trkpt lat="48.33355" lon="-3.69417">
        <ele>161.19999694824</ele>
        <time>2021-09-12T06:49:32Z</time>
      </trkpt>
      <trkpt lat="48.33354" lon="-3.6942">
        <ele>161.19999694824</ele>
        <time>2021-09-12T06:49:33Z</time>
      </trkpt>
      <trkpt lat="48.33352" lon="-3.69423">
        <ele>161.19999694824</ele>
        <time>2021-09-12T06:49:34Z</time>
      </trkpt>
      <trkpt lat="48.33351" lon="-3.69426">
        <ele>161.39999389648</ele>
        <time>2021-09-12T06:49:35Z</time>
      </trkpt>
      <trkpt lat="48.33349" lon="-3.69429">
        <ele>161.39999389648</ele>
        <time>2021-09-12T06:49:36Z</time>
      </trkpt>
      <trkpt lat="48.33348" lon="-3.69432">
        <ele>161.60000610352</ele>
        <time>2021-09-12T06:49:37Z</time>
      </trkpt>
      <trkpt lat="48.33347" lon="-3.69436">
        <ele>161.80000305176</ele>
        <time>2021-09-12T06:49:38Z</time>
      </trkpt>
      <trkpt lat="48.33346" lon="-3.6944">
        <ele>161.80000305176</ele>
        <time>2021-09-12T06:49:39Z</time>
      </trkpt>
      <trkpt lat="48.33344" lon="-3.69443">
        <ele>161.80000305176</ele>
        <time>2021-09-12T06:49:40Z</time>
      </trkpt>
      <trkpt lat="48.33343" lon="-3.69446">
        <ele>161.80000305176</ele>
        <time>2021-09-12T06:49:41Z</time>
      </trkpt>
      <trkpt lat="48.33342" lon="-3.69449">
        <ele>161.80000305176</ele>
        <time>2021-09-12T06:49:42Z</time>
      </trkpt>
      <trkpt lat="48.3334" lon="-3.69451">
        <ele>161.80000305176</ele>
        <time>2021-09-12T06:49:43Z</time>
      </trkpt>
      <trkpt lat="48.33339" lon="-3.69454">
        <ele>162.19999694824</ele>
        <time>2021-09-12T06:49:44Z</time>
      </trkpt>
      <trkpt lat="48.33337" lon="-3.69458">
        <ele>162.19999694824</ele>
        <time>2021-09-12T06:49:45Z</time>
      </trkpt>
      <trkpt lat="48.33335" lon="-3.69461">
        <ele>162.19999694824</ele>
        <time>2021-09-12T06:49:46Z</time>
      </trkpt>
      <trkpt lat="48.33334" lon="-3.69465">
        <ele>162.19999694824</ele>
        <time>2021-09-12T06:49:47Z</time>
      </trkpt>
      <trkpt lat="48.33332" lon="-3.69468">
        <ele>162.19999694824</ele>
        <time>2021-09-12T06:49:48Z</time>
      </trkpt>
      <trkpt lat="48.3333" lon="-3.6947">
        <ele>162.19999694824</ele>
        <time>2021-09-12T06:49:49Z</time>
      </trkpt>
      <trkpt lat="48.33329" lon="-3.69472">
        <ele>162.39999389648</ele>
        <time>2021-09-12T06:49:50Z</time>
      </trkpt>
      <trkpt lat="48.33328" lon="-3.69475">
        <ele>162.19999694824</ele>
        <time>2021-09-12T06:49:51Z</time>
      </trkpt>
      <trkpt lat="48.33328" lon="-3.69475">
        <ele>162.39999389648</ele>
        <time>2021-09-12T06:49:52Z</time>
      </trkpt>
      <trkpt lat="48.33325" lon="-3.69482">
        <ele>162.39999389648</ele>
        <time>2021-09-12T06:49:53Z</time>
      </trkpt>
      <trkpt lat="48.33322" lon="-3.69484">
        <ele>162.39999389648</ele>
        <time>2021-09-12T06:49:54Z</time>
      </trkpt>
      <trkpt lat="48.33319" lon="-3.69485">
        <ele>162.60000610352</ele>
        <time>2021-09-12T06:49:55Z</time>
      </trkpt>
      <trkpt lat="48.33316" lon="-3.69484">
        <ele>162.80000305176</ele>
        <time>2021-09-12T06:49:56Z</time>
      </trkpt>
      <trkpt lat="48.33313" lon="-3.69482">
        <ele>162.80000305176</ele>
        <time>2021-09-12T06:49:57Z</time>
      </trkpt>
      <trkpt lat="48.33312" lon="-3.69479">
        <ele>162.80000305176</ele>
        <time>2021-09-12T06:49:58Z</time>
      </trkpt>
      <trkpt lat="48.3331" lon="-3.69477">
        <ele>163</ele>
        <time>2021-09-12T06:49:59Z</time>
      </trkpt>
      <trkpt lat="48.33309" lon="-3.69475">
        <ele>163</ele>
        <time>2021-09-12T06:50:00Z</time>
      </trkpt>
      <trkpt lat="48.33306" lon="-3.69474">
        <ele>163.19999694824</ele>
        <time>2021-09-12T06:50:01Z</time>
      </trkpt>
      <trkpt lat="48.33303" lon="-3.69473">
        <ele>163.19999694824</ele>
        <time>2021-09-12T06:50:02Z</time>
      </trkpt>
      <trkpt lat="48.33301" lon="-3.69474">
        <ele>163.60000610352</ele>
        <time>2021-09-12T06:50:03Z</time>
      </trkpt>
      <trkpt lat="48.33297" lon="-3.69475">
        <ele>163.60000610352</ele>
        <time>2021-09-12T06:50:04Z</time>
      </trkpt>
      <trkpt lat="48.33294" lon="-3.69475">
        <ele>163.60000610352</ele>
        <time>2021-09-12T06:50:05Z</time>
      </trkpt>
      <trkpt lat="48.33292" lon="-3.69475">
        <ele>163.80000305176</ele>
        <time>2021-09-12T06:50:06Z</time>
      </trkpt>
      <trkpt lat="48.33289" lon="-3.69475">
        <ele>164</ele>
        <time>2021-09-12T06:50:07Z</time>
      </trkpt>
      <trkpt lat="48.33286" lon="-3.69475">
        <ele>164.19999694824</ele>
        <time>2021-09-12T06:50:08Z</time>
      </trkpt>
      <trkpt lat="48.33284" lon="-3.69475">
        <ele>164.39999389648</ele>
        <time>2021-09-12T06:50:09Z</time>
      </trkpt>
      <trkpt lat="48.33282" lon="-3.69476">
        <ele>164.39999389648</ele>
        <time>2021-09-12T06:50:10Z</time>
      </trkpt>
      <trkpt lat="48.3328" lon="-3.69476">
        <ele>164.39999389648</ele>
        <time>2021-09-12T06:50:11Z</time>
      </trkpt>
      <trkpt lat="48.33278" lon="-3.69476">
        <ele>164.39999389648</ele>
        <time>2021-09-12T06:50:12Z</time>
      </trkpt>
      <trkpt lat="48.33276" lon="-3.69476">
        <ele>164.39999389648</ele>
        <time>2021-09-12T06:50:13Z</time>
      </trkpt>
      <trkpt lat="48.33275" lon="-3.69476">
        <ele>164.39999389648</ele>
        <time>2021-09-12T06:50:14Z</time>
      </trkpt>
      <trkpt lat="48.33273" lon="-3.69475">
        <ele>164.39999389648</ele>
        <time>2021-09-12T06:50:15Z</time>
      </trkpt>
      <trkpt lat="48.33271" lon="-3.69474">
        <ele>164.39999389648</ele>
        <time>2021-09-12T06:50:16Z</time>
      </trkpt>
      <trkpt lat="48.3327" lon="-3.69473">
        <ele>164.80000305176</ele>
        <time>2021-09-12T06:50:17Z</time>
      </trkpt>
      <trkpt lat="48.33268" lon="-3.69471">
        <ele>164.80000305176</ele>
        <time>2021-09-12T06:50:18Z</time>
      </trkpt>
      <trkpt lat="48.33266" lon="-3.69468">
        <ele>164.80000305176</ele>
        <time>2021-09-12T06:50:19Z</time>
      </trkpt>
      <trkpt lat="48.33264" lon="-3.69466">
        <ele>165</ele>
        <time>2021-09-12T06:50:20Z</time>
      </trkpt>
      <trkpt lat="48.33261" lon="-3.69466">
        <ele>165</ele>
        <time>2021-09-12T06:50:21Z</time>
      </trkpt>
      <trkpt lat="48.33259" lon="-3.69466">
        <ele>165.19999694824</ele>
        <time>2021-09-12T06:50:22Z</time>
      </trkpt>
      <trkpt lat="48.33256" lon="-3.69466">
        <ele>165.19999694824</ele>
        <time>2021-09-12T06:50:23Z</time>
      </trkpt>
      <trkpt lat="48.33253" lon="-3.69467">
        <ele>165.19999694824</ele>
        <time>2021-09-12T06:50:24Z</time>
      </trkpt>
      <trkpt lat="48.33251" lon="-3.69468">
        <ele>165.19999694824</ele>
        <time>2021-09-12T06:50:25Z</time>
      </trkpt>
      <trkpt lat="48.33248" lon="-3.6947">
        <ele>165.19999694824</ele>
        <time>2021-09-12T06:50:26Z</time>
      </trkpt>
      <trkpt lat="48.33245" lon="-3.69472">
        <ele>165.19999694824</ele>
        <time>2021-09-12T06:50:27Z</time>
      </trkpt>
      <trkpt lat="48.33242" lon="-3.69474">
        <ele>165.19999694824</ele>
        <time>2021-09-12T06:50:28Z</time>
      </trkpt>
      <trkpt lat="48.3324" lon="-3.69476">
        <ele>165.39999389648</ele>
        <time>2021-09-12T06:50:29Z</time>
      </trkpt>
      <trkpt lat="48.33237" lon="-3.69478">
        <ele>165.39999389648</ele>
        <time>2021-09-12T06:50:30Z</time>
      </trkpt>
      <trkpt lat="48.33234" lon="-3.6948">
        <ele>165.39999389648</ele>
        <time>2021-09-12T06:50:31Z</time>
      </trkpt>
      <trkpt lat="48.3323" lon="-3.69482">
        <ele>165.60000610352</ele>
        <time>2021-09-12T06:50:32Z</time>
      </trkpt>
      <trkpt lat="48.33226" lon="-3.69485">
        <ele>165.60000610352</ele>
        <time>2021-09-12T06:50:33Z</time>
      </trkpt>
      <trkpt lat="48.33222" lon="-3.69487">
        <ele>165.80000305176</ele>
        <time>2021-09-12T06:50:34Z</time>
      </trkpt>
      <trkpt lat="48.33219" lon="-3.69489">
        <ele>165.80000305176</ele>
        <time>2021-09-12T06:50:35Z</time>
      </trkpt>
      <trkpt lat="48.33216" lon="-3.69491">
        <ele>165.80000305176</ele>
        <time>2021-09-12T06:50:36Z</time>
      </trkpt>
      <trkpt lat="48.33213" lon="-3.69494">
        <ele>165.80000305176</ele>
        <time>2021-09-12T06:50:37Z</time>
      </trkpt>
      <trkpt lat="48.3321" lon="-3.69498">
        <ele>165.80000305176</ele>
        <time>2021-09-12T06:50:38Z</time>
      </trkpt>
      <trkpt lat="48.33208" lon="-3.69501">
        <ele>165.80000305176</ele>
        <time>2021-09-12T06:50:39Z</time>
      </trkpt>
      <trkpt lat="48.33205" lon="-3.69505">
        <ele>165.80000305176</ele>
        <time>2021-09-12T06:50:40Z</time>
      </trkpt>
      <trkpt lat="48.33204" lon="-3.69509">
        <ele>165.80000305176</ele>
        <time>2021-09-12T06:50:41Z</time>
      </trkpt>
      <trkpt lat="48.33202" lon="-3.69514">
        <ele>165.80000305176</ele>
        <time>2021-09-12T06:50:42Z</time>
      </trkpt>
      <trkpt lat="48.33201" lon="-3.69519">
        <ele>165.80000305176</ele>
        <time>2021-09-12T06:50:43Z</time>
      </trkpt>
      <trkpt lat="48.33199" lon="-3.69524">
        <ele>165.80000305176</ele>
        <time>2021-09-12T06:50:44Z</time>
      </trkpt>
      <trkpt lat="48.33196" lon="-3.69529">
        <ele>165.80000305176</ele>
        <time>2021-09-12T06:50:45Z</time>
      </trkpt>
      <trkpt lat="48.33194" lon="-3.69534">
        <ele>165.80000305176</ele>
        <time>2021-09-12T06:50:46Z</time>
      </trkpt>
      <trkpt lat="48.33193" lon="-3.69539">
        <ele>165.80000305176</ele>
        <time>2021-09-12T06:50:47Z</time>
      </trkpt>
      <trkpt lat="48.33192" lon="-3.69543">
        <ele>165.80000305176</ele>
        <time>2021-09-12T06:50:48Z</time>
      </trkpt>
      <trkpt lat="48.33192" lon="-3.69548">
        <ele>165.80000305176</ele>
        <time>2021-09-12T06:50:49Z</time>
      </trkpt>
      <trkpt lat="48.3319" lon="-3.69552">
        <ele>165.80000305176</ele>
        <time>2021-09-12T06:50:50Z</time>
      </trkpt>
      <trkpt lat="48.33189" lon="-3.69557">
        <ele>165.80000305176</ele>
        <time>2021-09-12T06:50:51Z</time>
      </trkpt>
      <trkpt lat="48.33187" lon="-3.69566">
        <ele>165.19999694824</ele>
        <time>2021-09-12T06:50:52Z</time>
      </trkpt>
      <trkpt lat="48.33186" lon="-3.69573">
        <ele>164.60000610352</ele>
        <time>2021-09-12T06:50:53Z</time>
      </trkpt>
      <trkpt lat="48.33185" lon="-3.69577">
        <ele>164.60000610352</ele>
        <time>2021-09-12T06:50:54Z</time>
      </trkpt>
      <trkpt lat="48.33184" lon="-3.69583">
        <ele>164.60000610352</ele>
        <time>2021-09-12T06:50:55Z</time>
      </trkpt>
      <trkpt lat="48.33183" lon="-3.69589">
        <ele>164.60000610352</ele>
        <time>2021-09-12T06:50:56Z</time>
      </trkpt>
      <trkpt lat="48.33183" lon="-3.69597">
        <ele>164.19999694824</ele>
        <time>2021-09-12T06:50:57Z</time>
      </trkpt>
      <trkpt lat="48.3318" lon="-3.69605">
        <ele>163.60000610352</ele>
        <time>2021-09-12T06:50:58Z</time>
      </trkpt>
      <trkpt lat="48.33179" lon="-3.69616">
        <ele>163.60000610352</ele>
        <time>2021-09-12T06:50:59Z</time>
      </trkpt>
      <trkpt lat="48.33178" lon="-3.69624">
        <ele>162.80000305176</ele>
        <time>2021-09-12T06:51:00Z</time>
      </trkpt>
      <trkpt lat="48.33176" lon="-3.69632">
        <ele>162.80000305176</ele>
        <time>2021-09-12T06:51:01Z</time>
      </trkpt>
      <trkpt lat="48.33174" lon="-3.69639">
        <ele>162.19999694824</ele>
        <time>2021-09-12T06:51:02Z</time>
      </trkpt>
      <trkpt lat="48.33172" lon="-3.69645">
        <ele>162</ele>
        <time>2021-09-12T06:51:03Z</time>
      </trkpt>
      <trkpt lat="48.33171" lon="-3.69652">
        <ele>161.39999389648</ele>
        <time>2021-09-12T06:51:04Z</time>
      </trkpt>
      <trkpt lat="48.3317" lon="-3.69659">
        <ele>161.19999694824</ele>
        <time>2021-09-12T06:51:05Z</time>
      </trkpt>
      <trkpt lat="48.3317" lon="-3.69666">
        <ele>161</ele>
        <time>2021-09-12T06:51:06Z</time>
      </trkpt>
      <trkpt lat="48.33169" lon="-3.69672">
        <ele>160.39999389648</ele>
        <time>2021-09-12T06:51:07Z</time>
      </trkpt>
      <trkpt lat="48.33169" lon="-3.69678">
        <ele>159.80000305176</ele>
        <time>2021-09-12T06:51:08Z</time>
      </trkpt>
      <trkpt lat="48.33166" lon="-3.69681">
        <ele>159.80000305176</ele>
        <time>2021-09-12T06:51:09Z</time>
      </trkpt>
      <trkpt lat="48.33162" lon="-3.69681">
        <ele>159.19999694824</ele>
        <time>2021-09-12T06:51:10Z</time>
      </trkpt>
      <trkpt lat="48.33157" lon="-3.69682">
        <ele>159</ele>
        <time>2021-09-12T06:51:11Z</time>
      </trkpt>
      <trkpt lat="48.33154" lon="-3.69682">
        <ele>158.60000610352</ele>
        <time>2021-09-12T06:51:12Z</time>
      </trkpt>
      <trkpt lat="48.33151" lon="-3.69683">
        <ele>158.39999389648</ele>
        <time>2021-09-12T06:51:13Z</time>
      </trkpt>
      <trkpt lat="48.33147" lon="-3.69683">
        <ele>158</ele>
        <time>2021-09-12T06:51:14Z</time>
      </trkpt>
      <trkpt lat="48.33143" lon="-3.69682">
        <ele>157.80000305176</ele>
        <time>2021-09-12T06:51:15Z</time>
      </trkpt>
      <trkpt lat="48.33139" lon="-3.69681">
        <ele>157</ele>
        <time>2021-09-12T06:51:16Z</time>
      </trkpt>
      <trkpt lat="48.33135" lon="-3.69681">
        <ele>156.60000610352</ele>
        <time>2021-09-12T06:51:17Z</time>
      </trkpt>
      <trkpt lat="48.33134" lon="-3.6968">
        <ele>156.19999694824</ele>
        <time>2021-09-12T06:51:18Z</time>
      </trkpt>
      <trkpt lat="48.33132" lon="-3.69678">
        <ele>156.19999694824</ele>
        <time>2021-09-12T06:51:19Z</time>
      </trkpt>
      <trkpt lat="48.3313" lon="-3.69675">
        <ele>156.19999694824</ele>
        <time>2021-09-12T06:51:20Z</time>
      </trkpt>
      <trkpt lat="48.33129" lon="-3.69671">
        <ele>156.19999694824</ele>
        <time>2021-09-12T06:51:21Z</time>
      </trkpt>
      <trkpt lat="48.33127" lon="-3.69666">
        <ele>156.39999389648</ele>
        <time>2021-09-12T06:51:22Z</time>
      </trkpt>
      <trkpt lat="48.33126" lon="-3.69662">
        <ele>156.39999389648</ele>
        <time>2021-09-12T06:51:23Z</time>
      </trkpt>
      <trkpt lat="48.33125" lon="-3.69657">
        <ele>156.60000610352</ele>
        <time>2021-09-12T06:51:24Z</time>
      </trkpt>
      <trkpt lat="48.33123" lon="-3.69651">
        <ele>156.60000610352</ele>
        <time>2021-09-12T06:51:25Z</time>
      </trkpt>
      <trkpt lat="48.33121" lon="-3.69647">
        <ele>156.60000610352</ele>
        <time>2021-09-12T06:51:26Z</time>
      </trkpt>
      <trkpt lat="48.33117" lon="-3.69642">
        <ele>156.60000610352</ele>
        <time>2021-09-12T06:51:27Z</time>
      </trkpt>
      <trkpt lat="48.33115" lon="-3.69637">
        <ele>156.60000610352</ele>
        <time>2021-09-12T06:51:28Z</time>
      </trkpt>
      <trkpt lat="48.33115" lon="-3.69637">
        <ele>156.60000610352</ele>
        <time>2021-09-12T06:51:29Z</time>
      </trkpt>
      <trkpt lat="48.33111" lon="-3.69624">
        <ele>156.80000305176</ele>
        <time>2021-09-12T06:51:30Z</time>
      </trkpt>
      <trkpt lat="48.3311" lon="-3.69617">
        <ele>157</ele>
        <time>2021-09-12T06:51:31Z</time>
      </trkpt>
      <trkpt lat="48.33109" lon="-3.69611">
        <ele>157</ele>
        <time>2021-09-12T06:51:32Z</time>
      </trkpt>
      <trkpt lat="48.33108" lon="-3.69602">
        <ele>157.19999694824</ele>
        <time>2021-09-12T06:51:33Z</time>
      </trkpt>
      <trkpt lat="48.33108" lon="-3.69596">
        <ele>157.19999694824</ele>
        <time>2021-09-12T06:51:34Z</time>
      </trkpt>
      <trkpt lat="48.33108" lon="-3.6959">
        <ele>157.60000610352</ele>
        <time>2021-09-12T06:51:35Z</time>
      </trkpt>
      <trkpt lat="48.33108" lon="-3.69584">
        <ele>157.60000610352</ele>
        <time>2021-09-12T06:51:36Z</time>
      </trkpt>
      <trkpt lat="48.33108" lon="-3.69577">
        <ele>157.60000610352</ele>
        <time>2021-09-12T06:51:37Z</time>
      </trkpt>
      <trkpt lat="48.33108" lon="-3.69571">
        <ele>157.60000610352</ele>
        <time>2021-09-12T06:51:38Z</time>
      </trkpt>
      <trkpt lat="48.33107" lon="-3.69565">
        <ele>157.60000610352</ele>
        <time>2021-09-12T06:51:39Z</time>
      </trkpt>
      <trkpt lat="48.33106" lon="-3.6956">
        <ele>157.80000305176</ele>
        <time>2021-09-12T06:51:40Z</time>
      </trkpt>
      <trkpt lat="48.33106" lon="-3.69555">
        <ele>157.80000305176</ele>
        <time>2021-09-12T06:51:41Z</time>
      </trkpt>
      <trkpt lat="48.33105" lon="-3.69549">
        <ele>157.80000305176</ele>
        <time>2021-09-12T06:51:42Z</time>
      </trkpt>
      <trkpt lat="48.33105" lon="-3.69542">
        <ele>157.80000305176</ele>
        <time>2021-09-12T06:51:43Z</time>
      </trkpt>
      <trkpt lat="48.33104" lon="-3.69536">
        <ele>157.80000305176</ele>
        <time>2021-09-12T06:51:44Z</time>
      </trkpt>
      <trkpt lat="48.33101" lon="-3.69529">
        <ele>158.19999694824</ele>
        <time>2021-09-12T06:51:45Z</time>
      </trkpt>
      <trkpt lat="48.331" lon="-3.69523">
        <ele>158.39999389648</ele>
        <time>2021-09-12T06:51:46Z</time>
      </trkpt>
      <trkpt lat="48.33099" lon="-3.69518">
        <ele>158.39999389648</ele>
        <time>2021-09-12T06:51:47Z</time>
      </trkpt>
      <trkpt lat="48.33098" lon="-3.69512">
        <ele>158.39999389648</ele>
        <time>2021-09-12T06:51:48Z</time>
      </trkpt>
      <trkpt lat="48.33098" lon="-3.69505">
        <ele>158.39999389648</ele>
        <time>2021-09-12T06:51:49Z</time>
      </trkpt>
      <trkpt lat="48.33096" lon="-3.69498">
        <ele>158.39999389648</ele>
        <time>2021-09-12T06:51:50Z</time>
      </trkpt>
      <trkpt lat="48.33095" lon="-3.69492">
        <ele>158.39999389648</ele>
        <time>2021-09-12T06:51:51Z</time>
      </trkpt>
      <trkpt lat="48.33094" lon="-3.69486">
        <ele>158.19999694824</ele>
        <time>2021-09-12T06:51:52Z</time>
      </trkpt>
      <trkpt lat="48.33094" lon="-3.6948">
        <ele>158.19999694824</ele>
        <time>2021-09-12T06:51:53Z</time>
      </trkpt>
      <trkpt lat="48.33093" lon="-3.69473">
        <ele>158.19999694824</ele>
        <time>2021-09-12T06:51:54Z</time>
      </trkpt>
      <trkpt lat="48.33093" lon="-3.69466">
        <ele>158.19999694824</ele>
        <time>2021-09-12T06:51:55Z</time>
      </trkpt>
      <trkpt lat="48.33093" lon="-3.6946">
        <ele>158.19999694824</ele>
        <time>2021-09-12T06:51:56Z</time>
      </trkpt>
      <trkpt lat="48.33093" lon="-3.69453">
        <ele>158.19999694824</ele>
        <time>2021-09-12T06:51:57Z</time>
      </trkpt>
      <trkpt lat="48.33092" lon="-3.69447">
        <ele>158.19999694824</ele>
        <time>2021-09-12T06:51:58Z</time>
      </trkpt>
      <trkpt lat="48.33092" lon="-3.69442">
        <ele>158.19999694824</ele>
        <time>2021-09-12T06:51:59Z</time>
      </trkpt>
      <trkpt lat="48.33091" lon="-3.69436">
        <ele>158.19999694824</ele>
        <time>2021-09-12T06:52:00Z</time>
      </trkpt>
      <trkpt lat="48.3309" lon="-3.69429">
        <ele>158.19999694824</ele>
        <time>2021-09-12T06:52:01Z</time>
      </trkpt>
      <trkpt lat="48.33089" lon="-3.69423">
        <ele>158</ele>
        <time>2021-09-12T06:52:02Z</time>
      </trkpt>
      <trkpt lat="48.33088" lon="-3.69417">
        <ele>157.80000305176</ele>
        <time>2021-09-12T06:52:03Z</time>
      </trkpt>
      <trkpt lat="48.33088" lon="-3.69412">
        <ele>157.80000305176</ele>
        <time>2021-09-12T06:52:04Z</time>
      </trkpt>
      <trkpt lat="48.33088" lon="-3.69406">
        <ele>157.80000305176</ele>
        <time>2021-09-12T06:52:05Z</time>
      </trkpt>
      <trkpt lat="48.33087" lon="-3.694">
        <ele>157.39999389648</ele>
        <time>2021-09-12T06:52:06Z</time>
      </trkpt>
      <trkpt lat="48.33087" lon="-3.69392">
        <ele>157.39999389648</ele>
        <time>2021-09-12T06:52:07Z</time>
      </trkpt>
      <trkpt lat="48.33087" lon="-3.69387">
        <ele>157.39999389648</ele>
        <time>2021-09-12T06:52:08Z</time>
      </trkpt>
      <trkpt lat="48.33086" lon="-3.69381">
        <ele>157.39999389648</ele>
        <time>2021-09-12T06:52:09Z</time>
      </trkpt>
      <trkpt lat="48.33085" lon="-3.69374">
        <ele>157</ele>
        <time>2021-09-12T06:52:10Z</time>
      </trkpt>
      <trkpt lat="48.33084" lon="-3.69365">
        <ele>156.60000610352</ele>
        <time>2021-09-12T06:52:11Z</time>
      </trkpt>
      <trkpt lat="48.33084" lon="-3.69358">
        <ele>156.39999389648</ele>
        <time>2021-09-12T06:52:12Z</time>
      </trkpt>
      <trkpt lat="48.33084" lon="-3.69352">
        <ele>156.39999389648</ele>
        <time>2021-09-12T06:52:13Z</time>
      </trkpt>
      <trkpt lat="48.33086" lon="-3.69348">
        <ele>156.39999389648</ele>
        <time>2021-09-12T06:52:14Z</time>
      </trkpt>
      <trkpt lat="48.33084" lon="-3.69338">
        <ele>156.19999694824</ele>
        <time>2021-09-12T06:52:15Z</time>
      </trkpt>
      <trkpt lat="48.33086" lon="-3.69333">
        <ele>156.19999694824</ele>
        <time>2021-09-12T06:52:16Z</time>
      </trkpt>
      <trkpt lat="48.33087" lon="-3.69327">
        <ele>156.19999694824</ele>
        <time>2021-09-12T06:52:17Z</time>
      </trkpt>
      <trkpt lat="48.33088" lon="-3.69321">
        <ele>156.19999694824</ele>
        <time>2021-09-12T06:52:18Z</time>
      </trkpt>
      <trkpt lat="48.33089" lon="-3.69316">
        <ele>156</ele>
        <time>2021-09-12T06:52:19Z</time>
      </trkpt>
      <trkpt lat="48.3309" lon="-3.69311">
        <ele>156</ele>
        <time>2021-09-12T06:52:20Z</time>
      </trkpt>
      <trkpt lat="48.33091" lon="-3.69304">
        <ele>156</ele>
        <time>2021-09-12T06:52:21Z</time>
      </trkpt>
      <trkpt lat="48.33092" lon="-3.693">
        <ele>156</ele>
        <time>2021-09-12T06:52:22Z</time>
      </trkpt>
      <trkpt lat="48.33094" lon="-3.69294">
        <ele>156</ele>
        <time>2021-09-12T06:52:23Z</time>
      </trkpt>
      <trkpt lat="48.33095" lon="-3.69287">
        <ele>155.80000305176</ele>
        <time>2021-09-12T06:52:24Z</time>
      </trkpt>
      <trkpt lat="48.33096" lon="-3.69282">
        <ele>155.80000305176</ele>
        <time>2021-09-12T06:52:25Z</time>
      </trkpt>
      <trkpt lat="48.33098" lon="-3.69275">
        <ele>155.60000610352</ele>
        <time>2021-09-12T06:52:26Z</time>
      </trkpt>
      <trkpt lat="48.33099" lon="-3.69271">
        <ele>155.39999389648</ele>
        <time>2021-09-12T06:52:27Z</time>
      </trkpt>
      <trkpt lat="48.331" lon="-3.69264">
        <ele>155.19999694824</ele>
        <time>2021-09-12T06:52:28Z</time>
      </trkpt>
      <trkpt lat="48.33101" lon="-3.69259">
        <ele>155.19999694824</ele>
        <time>2021-09-12T06:52:29Z</time>
      </trkpt>
      <trkpt lat="48.33102" lon="-3.69253">
        <ele>155.19999694824</ele>
        <time>2021-09-12T06:52:30Z</time>
      </trkpt>
      <trkpt lat="48.33104" lon="-3.69247">
        <ele>155.19999694824</ele>
        <time>2021-09-12T06:52:31Z</time>
      </trkpt>
      <trkpt lat="48.33105" lon="-3.6924">
        <ele>155</ele>
        <time>2021-09-12T06:52:32Z</time>
      </trkpt>
      <trkpt lat="48.33106" lon="-3.69234">
        <ele>155</ele>
        <time>2021-09-12T06:52:33Z</time>
      </trkpt>
      <trkpt lat="48.33106" lon="-3.6923">
        <ele>154.39999389648</ele>
        <time>2021-09-12T06:52:34Z</time>
      </trkpt>
      <trkpt lat="48.33106" lon="-3.69224">
        <ele>154.39999389648</ele>
        <time>2021-09-12T06:52:35Z</time>
      </trkpt>
      <trkpt lat="48.33107" lon="-3.69218">
        <ele>154</ele>
        <time>2021-09-12T06:52:36Z</time>
      </trkpt>
      <trkpt lat="48.33108" lon="-3.69212">
        <ele>154</ele>
        <time>2021-09-12T06:52:37Z</time>
      </trkpt>
      <trkpt lat="48.33109" lon="-3.69206">
        <ele>153.80000305176</ele>
        <time>2021-09-12T06:52:38Z</time>
      </trkpt>
      <trkpt lat="48.33111" lon="-3.69201">
        <ele>153.60000610352</ele>
        <time>2021-09-12T06:52:39Z</time>
      </trkpt>
      <trkpt lat="48.33112" lon="-3.69191">
        <ele>153.39999389648</ele>
        <time>2021-09-12T06:52:40Z</time>
      </trkpt>
      <trkpt lat="48.33114" lon="-3.69185">
        <ele>153.19999694824</ele>
        <time>2021-09-12T06:52:41Z</time>
      </trkpt>
      <trkpt lat="48.33116" lon="-3.69176">
        <ele>153</ele>
        <time>2021-09-12T06:52:42Z</time>
      </trkpt>
      <trkpt lat="48.33118" lon="-3.69166">
        <ele>153</ele>
        <time>2021-09-12T06:52:43Z</time>
      </trkpt>
      <trkpt lat="48.3312" lon="-3.69157">
        <ele>152.80000305176</ele>
        <time>2021-09-12T06:52:44Z</time>
      </trkpt>
      <trkpt lat="48.33122" lon="-3.69151">
        <ele>152.39999389648</ele>
        <time>2021-09-12T06:52:45Z</time>
      </trkpt>
      <trkpt lat="48.33125" lon="-3.69142">
        <ele>152.39999389648</ele>
        <time>2021-09-12T06:52:46Z</time>
      </trkpt>
      <trkpt lat="48.33126" lon="-3.69132">
        <ele>152.19999694824</ele>
        <time>2021-09-12T06:52:47Z</time>
      </trkpt>
      <trkpt lat="48.33128" lon="-3.69124">
        <ele>152.19999694824</ele>
        <time>2021-09-12T06:52:48Z</time>
      </trkpt>
      <trkpt lat="48.3313" lon="-3.69114">
        <ele>152</ele>
        <time>2021-09-12T06:52:49Z</time>
      </trkpt>
      <trkpt lat="48.33129" lon="-3.69106">
        <ele>151.60000610352</ele>
        <time>2021-09-12T06:52:50Z</time>
      </trkpt>
      <trkpt lat="48.33128" lon="-3.69094">
        <ele>151.19999694824</ele>
        <time>2021-09-12T06:52:51Z</time>
      </trkpt>
      <trkpt lat="48.33125" lon="-3.69083">
        <ele>151</ele>
        <time>2021-09-12T06:52:52Z</time>
      </trkpt>
      <trkpt lat="48.3312" lon="-3.69073">
        <ele>150</ele>
        <time>2021-09-12T06:52:53Z</time>
      </trkpt>
      <trkpt lat="48.33117" lon="-3.69063">
        <ele>150</ele>
        <time>2021-09-12T06:52:54Z</time>
      </trkpt>
      <trkpt lat="48.33113" lon="-3.69051">
        <ele>149.60000610352</ele>
        <time>2021-09-12T06:52:55Z</time>
      </trkpt>
      <trkpt lat="48.3311" lon="-3.69041">
        <ele>149</ele>
        <time>2021-09-12T06:52:56Z</time>
      </trkpt>
      <trkpt lat="48.33106" lon="-3.6903">
        <ele>148.80000305176</ele>
        <time>2021-09-12T06:52:57Z</time>
      </trkpt>
      <trkpt lat="48.33102" lon="-3.69019">
        <ele>148.19999694824</ele>
        <time>2021-09-12T06:52:58Z</time>
      </trkpt>
      <trkpt lat="48.33099" lon="-3.6901">
        <ele>148</ele>
        <time>2021-09-12T06:52:59Z</time>
      </trkpt>
      <trkpt lat="48.33097" lon="-3.69001">
        <ele>147.39999389648</ele>
        <time>2021-09-12T06:53:00Z</time>
      </trkpt>
      <trkpt lat="48.33095" lon="-3.68987">
        <ele>147</ele>
        <time>2021-09-12T06:53:01Z</time>
      </trkpt>
      <trkpt lat="48.33094" lon="-3.68976">
        <ele>146.60000610352</ele>
        <time>2021-09-12T06:53:02Z</time>
      </trkpt>
      <trkpt lat="48.33095" lon="-3.68966">
        <ele>146.19999694824</ele>
        <time>2021-09-12T06:53:03Z</time>
      </trkpt>
      <trkpt lat="48.33096" lon="-3.68957">
        <ele>145.60000610352</ele>
        <time>2021-09-12T06:53:04Z</time>
      </trkpt>
      <trkpt lat="48.33098" lon="-3.68951">
        <ele>145</ele>
        <time>2021-09-12T06:53:05Z</time>
      </trkpt>
      <trkpt lat="48.33102" lon="-3.68946">
        <ele>144.80000305176</ele>
        <time>2021-09-12T06:53:06Z</time>
      </trkpt>
      <trkpt lat="48.33107" lon="-3.6894">
        <ele>144.80000305176</ele>
        <time>2021-09-12T06:53:07Z</time>
      </trkpt>
      <trkpt lat="48.33112" lon="-3.68936">
        <ele>144.80000305176</ele>
        <time>2021-09-12T06:53:08Z</time>
      </trkpt>
      <trkpt lat="48.33116" lon="-3.68932">
        <ele>144.80000305176</ele>
        <time>2021-09-12T06:53:09Z</time>
      </trkpt>
      <trkpt lat="48.33119" lon="-3.68929">
        <ele>144.80000305176</ele>
        <time>2021-09-12T06:53:10Z</time>
      </trkpt>
      <trkpt lat="48.33123" lon="-3.68925">
        <ele>144.80000305176</ele>
        <time>2021-09-12T06:53:11Z</time>
      </trkpt>
      <trkpt lat="48.33127" lon="-3.68922">
        <ele>144.80000305176</ele>
        <time>2021-09-12T06:53:12Z</time>
      </trkpt>
      <trkpt lat="48.33129" lon="-3.68918">
        <ele>144.80000305176</ele>
        <time>2021-09-12T06:53:13Z</time>
      </trkpt>
      <trkpt lat="48.33131" lon="-3.68914">
        <ele>144.80000305176</ele>
        <time>2021-09-12T06:53:14Z</time>
      </trkpt>
      <trkpt lat="48.3313" lon="-3.6891">
        <ele>144.80000305176</ele>
        <time>2021-09-12T06:53:15Z</time>
      </trkpt>
      <trkpt lat="48.33128" lon="-3.68908">
        <ele>144.80000305176</ele>
        <time>2021-09-12T06:53:16Z</time>
      </trkpt>
      <trkpt lat="48.33124" lon="-3.68905">
        <ele>144.39999389648</ele>
        <time>2021-09-12T06:53:17Z</time>
      </trkpt>
      <trkpt lat="48.33119" lon="-3.68905">
        <ele>144</ele>
        <time>2021-09-12T06:53:18Z</time>
      </trkpt>
      <trkpt lat="48.33114" lon="-3.68906">
        <ele>144</ele>
        <time>2021-09-12T06:53:19Z</time>
      </trkpt>
      <trkpt lat="48.3311" lon="-3.68906">
        <ele>143.60000610352</ele>
        <time>2021-09-12T06:53:20Z</time>
      </trkpt>
      <trkpt lat="48.33103" lon="-3.68907">
        <ele>143.19999694824</ele>
        <time>2021-09-12T06:53:21Z</time>
      </trkpt>
      <trkpt lat="48.33097" lon="-3.68908">
        <ele>143.19999694824</ele>
        <time>2021-09-12T06:53:22Z</time>
      </trkpt>
      <trkpt lat="48.33091" lon="-3.68908">
        <ele>143.19999694824</ele>
        <time>2021-09-12T06:53:23Z</time>
      </trkpt>
      <trkpt lat="48.33085" lon="-3.68908">
        <ele>142.19999694824</ele>
        <time>2021-09-12T06:53:24Z</time>
      </trkpt>
      <trkpt lat="48.33079" lon="-3.68909">
        <ele>142.19999694824</ele>
        <time>2021-09-12T06:53:25Z</time>
      </trkpt>
      <trkpt lat="48.33073" lon="-3.6891">
        <ele>141.39999389648</ele>
        <time>2021-09-12T06:53:26Z</time>
      </trkpt>
      <trkpt lat="48.33066" lon="-3.6891">
        <ele>141.19999694824</ele>
        <time>2021-09-12T06:53:27Z</time>
      </trkpt>
      <trkpt lat="48.33058" lon="-3.68911">
        <ele>141</ele>
        <time>2021-09-12T06:53:28Z</time>
      </trkpt>
      <trkpt lat="48.33051" lon="-3.68911">
        <ele>140.19999694824</ele>
        <time>2021-09-12T06:53:29Z</time>
      </trkpt>
      <trkpt lat="48.33045" lon="-3.68912">
        <ele>139.60000610352</ele>
        <time>2021-09-12T06:53:30Z</time>
      </trkpt>
      <trkpt lat="48.33035" lon="-3.68911">
        <ele>139</ele>
        <time>2021-09-12T06:53:31Z</time>
      </trkpt>
      <trkpt lat="48.33027" lon="-3.68911">
        <ele>138.39999389648</ele>
        <time>2021-09-12T06:53:32Z</time>
      </trkpt>
      <trkpt lat="48.33019" lon="-3.68912">
        <ele>137.60000610352</ele>
        <time>2021-09-12T06:53:33Z</time>
      </trkpt>
      <trkpt lat="48.33012" lon="-3.68913">
        <ele>137</ele>
        <time>2021-09-12T06:53:34Z</time>
      </trkpt>
      <trkpt lat="48.33006" lon="-3.68914">
        <ele>135.19999694824</ele>
        <time>2021-09-12T06:53:35Z</time>
      </trkpt>
      <trkpt lat="48.33001" lon="-3.68914">
        <ele>133.39999389648</ele>
        <time>2021-09-12T06:53:36Z</time>
      </trkpt>
      <trkpt lat="48.32997" lon="-3.68914">
        <ele>132.19999694824</ele>
        <time>2021-09-12T06:53:37Z</time>
      </trkpt>
      <trkpt lat="48.32994" lon="-3.68915">
        <ele>132</ele>
        <time>2021-09-12T06:53:38Z</time>
      </trkpt>
      <trkpt lat="48.32993" lon="-3.68916">
        <ele>132</ele>
        <time>2021-09-12T06:53:39Z</time>
      </trkpt>
      <trkpt lat="48.32991" lon="-3.68916">
        <ele>132</ele>
        <time>2021-09-12T06:53:40Z</time>
      </trkpt>
      <trkpt lat="48.32989" lon="-3.68917">
        <ele>132</ele>
        <time>2021-09-12T06:53:41Z</time>
      </trkpt>
      <trkpt lat="48.32987" lon="-3.68917">
        <ele>132</ele>
        <time>2021-09-12T06:53:42Z</time>
      </trkpt>
      <trkpt lat="48.32984" lon="-3.68917">
        <ele>132</ele>
        <time>2021-09-12T06:53:43Z</time>
      </trkpt>
      <trkpt lat="48.32982" lon="-3.68917">
        <ele>132</ele>
        <time>2021-09-12T06:53:44Z</time>
      </trkpt>
      <trkpt lat="48.3298" lon="-3.68917">
        <ele>132</ele>
        <time>2021-09-12T06:53:45Z</time>
      </trkpt>
      <trkpt lat="48.32976" lon="-3.68917">
        <ele>131.80000305176</ele>
        <time>2021-09-12T06:53:46Z</time>
      </trkpt>
      <trkpt lat="48.32973" lon="-3.68918">
        <ele>130.80000305176</ele>
        <time>2021-09-12T06:53:47Z</time>
      </trkpt>
      <trkpt lat="48.3297" lon="-3.68918">
        <ele>130</ele>
        <time>2021-09-12T06:53:48Z</time>
      </trkpt>
      <trkpt lat="48.32967" lon="-3.68917">
        <ele>128.80000305176</ele>
        <time>2021-09-12T06:53:49Z</time>
      </trkpt>
      <trkpt lat="48.32964" lon="-3.68917">
        <ele>127.80000305176</ele>
        <time>2021-09-12T06:53:50Z</time>
      </trkpt>
      <trkpt lat="48.32961" lon="-3.68917">
        <ele>127.59999847412</ele>
        <time>2021-09-12T06:53:51Z</time>
      </trkpt>
      <trkpt lat="48.32959" lon="-3.68918">
        <ele>127.59999847412</ele>
        <time>2021-09-12T06:53:52Z</time>
      </trkpt>
      <trkpt lat="48.32957" lon="-3.68918">
        <ele>127.59999847412</ele>
        <time>2021-09-12T06:53:53Z</time>
      </trkpt>
      <trkpt lat="48.32955" lon="-3.68917">
        <ele>127.59999847412</ele>
        <time>2021-09-12T06:53:54Z</time>
      </trkpt>
      <trkpt lat="48.32954" lon="-3.68917">
        <ele>128</ele>
        <time>2021-09-12T06:53:55Z</time>
      </trkpt>
      <trkpt lat="48.32952" lon="-3.68916">
        <ele>128.19999694824</ele>
        <time>2021-09-12T06:53:56Z</time>
      </trkpt>
      <trkpt lat="48.32951" lon="-3.68915">
        <ele>128.80000305176</ele>
        <time>2021-09-12T06:53:57Z</time>
      </trkpt>
      <trkpt lat="48.3295" lon="-3.68915">
        <ele>129.60000610352</ele>
        <time>2021-09-12T06:53:58Z</time>
      </trkpt>
      <trkpt lat="48.32948" lon="-3.68915">
        <ele>129.80000305176</ele>
        <time>2021-09-12T06:53:59Z</time>
      </trkpt>
      <trkpt lat="48.32947" lon="-3.68915">
        <ele>130.19999694824</ele>
        <time>2021-09-12T06:54:00Z</time>
      </trkpt>
      <trkpt lat="48.32944" lon="-3.68916">
        <ele>130.60000610352</ele>
        <time>2021-09-12T06:54:01Z</time>
      </trkpt>
      <trkpt lat="48.32942" lon="-3.68916">
        <ele>131</ele>
        <time>2021-09-12T06:54:02Z</time>
      </trkpt>
      <trkpt lat="48.3294" lon="-3.68915">
        <ele>131.60000610352</ele>
        <time>2021-09-12T06:54:03Z</time>
      </trkpt>
      <trkpt lat="48.32938" lon="-3.68915">
        <ele>132</ele>
        <time>2021-09-12T06:54:04Z</time>
      </trkpt>
      <trkpt lat="48.32937" lon="-3.68915">
        <ele>132.39999389648</ele>
        <time>2021-09-12T06:54:05Z</time>
      </trkpt>
      <trkpt lat="48.32935" lon="-3.68915">
        <ele>132.80000305176</ele>
        <time>2021-09-12T06:54:06Z</time>
      </trkpt>
      <trkpt lat="48.32931" lon="-3.68914">
        <ele>133.19999694824</ele>
        <time>2021-09-12T06:54:07Z</time>
      </trkpt>
      <trkpt lat="48.3293" lon="-3.68914">
        <ele>133.60000610352</ele>
        <time>2021-09-12T06:54:08Z</time>
      </trkpt>
      <trkpt lat="48.32928" lon="-3.68914">
        <ele>134.39999389648</ele>
        <time>2021-09-12T06:54:09Z</time>
      </trkpt>
      <trkpt lat="48.32926" lon="-3.68913">
        <ele>134.39999389648</ele>
        <time>2021-09-12T06:54:10Z</time>
      </trkpt>
      <trkpt lat="48.32925" lon="-3.68913">
        <ele>134.80000305176</ele>
        <time>2021-09-12T06:54:11Z</time>
      </trkpt>
      <trkpt lat="48.32924" lon="-3.68913">
        <ele>135.19999694824</ele>
        <time>2021-09-12T06:54:12Z</time>
      </trkpt>
      <trkpt lat="48.32921" lon="-3.68913">
        <ele>135.39999389648</ele>
        <time>2021-09-12T06:54:13Z</time>
      </trkpt>
      <trkpt lat="48.32919" lon="-3.68914">
        <ele>136</ele>
        <time>2021-09-12T06:54:14Z</time>
      </trkpt>
      <trkpt lat="48.32918" lon="-3.68914">
        <ele>136</ele>
        <time>2021-09-12T06:54:15Z</time>
      </trkpt>
      <trkpt lat="48.32916" lon="-3.68914">
        <ele>136.39999389648</ele>
        <time>2021-09-12T06:54:16Z</time>
      </trkpt>
      <trkpt lat="48.32914" lon="-3.68915">
        <ele>136.39999389648</ele>
        <time>2021-09-12T06:54:17Z</time>
      </trkpt>
      <trkpt lat="48.32913" lon="-3.68915">
        <ele>136.80000305176</ele>
        <time>2021-09-12T06:54:18Z</time>
      </trkpt>
      <trkpt lat="48.32912" lon="-3.68916">
        <ele>136.80000305176</ele>
        <time>2021-09-12T06:54:19Z</time>
      </trkpt>
      <trkpt lat="48.3291" lon="-3.68916">
        <ele>137.19999694824</ele>
        <time>2021-09-12T06:54:20Z</time>
      </trkpt>
      <trkpt lat="48.32908" lon="-3.68917">
        <ele>137.60000610352</ele>
        <time>2021-09-12T06:54:21Z</time>
      </trkpt>
      <trkpt lat="48.32906" lon="-3.68917">
        <ele>137.80000305176</ele>
        <time>2021-09-12T06:54:22Z</time>
      </trkpt>
      <trkpt lat="48.32905" lon="-3.68917">
        <ele>137.80000305176</ele>
        <time>2021-09-12T06:54:23Z</time>
      </trkpt>
      <trkpt lat="48.32904" lon="-3.68914">
        <ele>137.80000305176</ele>
        <time>2021-09-12T06:54:24Z</time>
      </trkpt>
      <trkpt lat="48.32903" lon="-3.68911">
        <ele>137.80000305176</ele>
        <time>2021-09-12T06:54:25Z</time>
      </trkpt>
      <trkpt lat="48.32903" lon="-3.68907">
        <ele>137.80000305176</ele>
        <time>2021-09-12T06:54:26Z</time>
      </trkpt>
      <trkpt lat="48.32903" lon="-3.68903">
        <ele>137.80000305176</ele>
        <time>2021-09-12T06:54:27Z</time>
      </trkpt>
      <trkpt lat="48.32903" lon="-3.68898">
        <ele>137.19999694824</ele>
        <time>2021-09-12T06:54:28Z</time>
      </trkpt>
      <trkpt lat="48.32903" lon="-3.68893">
        <ele>137</ele>
        <time>2021-09-12T06:54:29Z</time>
      </trkpt>
      <trkpt lat="48.32902" lon="-3.68887">
        <ele>137</ele>
        <time>2021-09-12T06:54:30Z</time>
      </trkpt>
      <trkpt lat="48.32902" lon="-3.68881">
        <ele>137</ele>
        <time>2021-09-12T06:54:31Z</time>
      </trkpt>
      <trkpt lat="48.32901" lon="-3.68874">
        <ele>136.19999694824</ele>
        <time>2021-09-12T06:54:32Z</time>
      </trkpt>
      <trkpt lat="48.32901" lon="-3.68866">
        <ele>136</ele>
        <time>2021-09-12T06:54:33Z</time>
      </trkpt>
      <trkpt lat="48.329" lon="-3.68857">
        <ele>136</ele>
        <time>2021-09-12T06:54:34Z</time>
      </trkpt>
      <trkpt lat="48.32899" lon="-3.68847">
        <ele>135.39999389648</ele>
        <time>2021-09-12T06:54:35Z</time>
      </trkpt>
      <trkpt lat="48.32899" lon="-3.68836">
        <ele>135.19999694824</ele>
        <time>2021-09-12T06:54:36Z</time>
      </trkpt>
      <trkpt lat="48.329" lon="-3.68827">
        <ele>134.80000305176</ele>
        <time>2021-09-12T06:54:37Z</time>
      </trkpt>
      <trkpt lat="48.329" lon="-3.68817">
        <ele>134.60000610352</ele>
        <time>2021-09-12T06:54:38Z</time>
      </trkpt>
      <trkpt lat="48.32899" lon="-3.68807">
        <ele>134.19999694824</ele>
        <time>2021-09-12T06:54:39Z</time>
      </trkpt>
      <trkpt lat="48.32899" lon="-3.68798">
        <ele>133.39999389648</ele>
        <time>2021-09-12T06:54:40Z</time>
      </trkpt>
      <trkpt lat="48.32899" lon="-3.68787">
        <ele>132.80000305176</ele>
        <time>2021-09-12T06:54:41Z</time>
      </trkpt>
      <trkpt lat="48.32898" lon="-3.68773">
        <ele>132.60000610352</ele>
        <time>2021-09-12T06:54:42Z</time>
      </trkpt>
      <trkpt lat="48.32897" lon="-3.68761">
        <ele>132</ele>
        <time>2021-09-12T06:54:43Z</time>
      </trkpt>
      <trkpt lat="48.32897" lon="-3.68747">
        <ele>132</ele>
        <time>2021-09-12T06:54:44Z</time>
      </trkpt>
      <trkpt lat="48.32897" lon="-3.68735">
        <ele>131.80000305176</ele>
        <time>2021-09-12T06:54:45Z</time>
      </trkpt>
      <trkpt lat="48.32897" lon="-3.68723">
        <ele>131</ele>
        <time>2021-09-12T06:54:46Z</time>
      </trkpt>
      <trkpt lat="48.32895" lon="-3.68711">
        <ele>130.39999389648</ele>
        <time>2021-09-12T06:54:47Z</time>
      </trkpt>
      <trkpt lat="48.32893" lon="-3.68697">
        <ele>129.80000305176</ele>
        <time>2021-09-12T06:54:48Z</time>
      </trkpt>
      <trkpt lat="48.32892" lon="-3.68683">
        <ele>129.60000610352</ele>
        <time>2021-09-12T06:54:49Z</time>
      </trkpt>
      <trkpt lat="48.32891" lon="-3.68675">
        <ele>129.39999389648</ele>
        <time>2021-09-12T06:54:50Z</time>
      </trkpt>
      <trkpt lat="48.3289" lon="-3.68663">
        <ele>128.39999389648</ele>
        <time>2021-09-12T06:54:51Z</time>
      </trkpt>
      <trkpt lat="48.32889" lon="-3.68652">
        <ele>127.80000305176</ele>
        <time>2021-09-12T06:54:52Z</time>
      </trkpt>
      <trkpt lat="48.32887" lon="-3.68639">
        <ele>127.19999694824</ele>
        <time>2021-09-12T06:54:53Z</time>
      </trkpt>
      <trkpt lat="48.32889" lon="-3.68624">
        <ele>126.59999847412</ele>
        <time>2021-09-12T06:54:54Z</time>
      </trkpt>
      <trkpt lat="48.32891" lon="-3.68613">
        <ele>126.40000152588</ele>
        <time>2021-09-12T06:54:55Z</time>
      </trkpt>
      <trkpt lat="48.32892" lon="-3.68602">
        <ele>125.40000152588</ele>
        <time>2021-09-12T06:54:56Z</time>
      </trkpt>
      <trkpt lat="48.32895" lon="-3.68589">
        <ele>125.40000152588</ele>
        <time>2021-09-12T06:54:57Z</time>
      </trkpt>
      <trkpt lat="48.32897" lon="-3.68576">
        <ele>125</ele>
        <time>2021-09-12T06:54:58Z</time>
      </trkpt>
      <trkpt lat="48.32899" lon="-3.68565">
        <ele>124.80000305176</ele>
        <time>2021-09-12T06:54:59Z</time>
      </trkpt>
      <trkpt lat="48.329" lon="-3.68556">
        <ele>124.80000305176</ele>
        <time>2021-09-12T06:55:00Z</time>
      </trkpt>
      <trkpt lat="48.329" lon="-3.68545">
        <ele>124.59999847412</ele>
        <time>2021-09-12T06:55:01Z</time>
      </trkpt>
      <trkpt lat="48.32902" lon="-3.68535">
        <ele>124.59999847412</ele>
        <time>2021-09-12T06:55:02Z</time>
      </trkpt>
      <trkpt lat="48.32903" lon="-3.68524">
        <ele>124.19999694824</ele>
        <time>2021-09-12T06:55:03Z</time>
      </trkpt>
      <trkpt lat="48.32904" lon="-3.68515">
        <ele>123.80000305176</ele>
        <time>2021-09-12T06:55:04Z</time>
      </trkpt>
      <trkpt lat="48.32904" lon="-3.68504">
        <ele>123.80000305176</ele>
        <time>2021-09-12T06:55:05Z</time>
      </trkpt>
      <trkpt lat="48.32906" lon="-3.68494">
        <ele>123.59999847412</ele>
        <time>2021-09-12T06:55:06Z</time>
      </trkpt>
      <trkpt lat="48.32907" lon="-3.68483">
        <ele>123.40000152588</ele>
        <time>2021-09-12T06:55:07Z</time>
      </trkpt>
      <trkpt lat="48.32907" lon="-3.68474">
        <ele>123.19999694824</ele>
        <time>2021-09-12T06:55:08Z</time>
      </trkpt>
      <trkpt lat="48.32907" lon="-3.68464">
        <ele>122.59999847412</ele>
        <time>2021-09-12T06:55:09Z</time>
      </trkpt>
      <trkpt lat="48.32907" lon="-3.68451">
        <ele>121</ele>
        <time>2021-09-12T06:55:10Z</time>
      </trkpt>
      <trkpt lat="48.32909" lon="-3.68438">
        <ele>120.59999847412</ele>
        <time>2021-09-12T06:55:11Z</time>
      </trkpt>
      <trkpt lat="48.32913" lon="-3.68425">
        <ele>119.40000152588</ele>
        <time>2021-09-12T06:55:12Z</time>
      </trkpt>
      <trkpt lat="48.32911" lon="-3.68411">
        <ele>118</ele>
        <time>2021-09-12T06:55:13Z</time>
      </trkpt>
      <trkpt lat="48.32912" lon="-3.68401">
        <ele>116.80000305176</ele>
        <time>2021-09-12T06:55:14Z</time>
      </trkpt>
      <trkpt lat="48.32913" lon="-3.68393">
        <ele>115</ele>
        <time>2021-09-12T06:55:15Z</time>
      </trkpt>
      <trkpt lat="48.32912" lon="-3.68383">
        <ele>113.40000152588</ele>
        <time>2021-09-12T06:55:16Z</time>
      </trkpt>
      <trkpt lat="48.32911" lon="-3.68374">
        <ele>112.59999847412</ele>
        <time>2021-09-12T06:55:17Z</time>
      </trkpt>
      <trkpt lat="48.32908" lon="-3.68369">
        <ele>111.40000152588</ele>
        <time>2021-09-12T06:55:18Z</time>
      </trkpt>
      <trkpt lat="48.32903" lon="-3.68368">
        <ele>110.59999847412</ele>
        <time>2021-09-12T06:55:19Z</time>
      </trkpt>
      <trkpt lat="48.32896" lon="-3.68367">
        <ele>110.19999694824</ele>
        <time>2021-09-12T06:55:20Z</time>
      </trkpt>
      <trkpt lat="48.3289" lon="-3.68368">
        <ele>109.59999847412</ele>
        <time>2021-09-12T06:55:21Z</time>
      </trkpt>
      <trkpt lat="48.32882" lon="-3.68369">
        <ele>108.80000305176</ele>
        <time>2021-09-12T06:55:22Z</time>
      </trkpt>
      <trkpt lat="48.32874" lon="-3.68371">
        <ele>108.59999847412</ele>
        <time>2021-09-12T06:55:23Z</time>
      </trkpt>
      <trkpt lat="48.32867" lon="-3.68375">
        <ele>108.19999694824</ele>
        <time>2021-09-12T06:55:24Z</time>
      </trkpt>
      <trkpt lat="48.32861" lon="-3.68379">
        <ele>107.80000305176</ele>
        <time>2021-09-12T06:55:25Z</time>
      </trkpt>
      <trkpt lat="48.32856" lon="-3.68383">
        <ele>107.80000305176</ele>
        <time>2021-09-12T06:55:26Z</time>
      </trkpt>
      <trkpt lat="48.32851" lon="-3.68388">
        <ele>107.80000305176</ele>
        <time>2021-09-12T06:55:27Z</time>
      </trkpt>
      <trkpt lat="48.32846" lon="-3.68392">
        <ele>107.80000305176</ele>
        <time>2021-09-12T06:55:28Z</time>
      </trkpt>
      <trkpt lat="48.32841" lon="-3.68397">
        <ele>107.80000305176</ele>
        <time>2021-09-12T06:55:29Z</time>
      </trkpt>
      <trkpt lat="48.32835" lon="-3.68401">
        <ele>107.80000305176</ele>
        <time>2021-09-12T06:55:30Z</time>
      </trkpt>
      <trkpt lat="48.3283" lon="-3.68406">
        <ele>107.80000305176</ele>
        <time>2021-09-12T06:55:31Z</time>
      </trkpt>
      <trkpt lat="48.32826" lon="-3.68412">
        <ele>108.19999694824</ele>
        <time>2021-09-12T06:55:32Z</time>
      </trkpt>
      <trkpt lat="48.32822" lon="-3.68418">
        <ele>108.19999694824</ele>
        <time>2021-09-12T06:55:33Z</time>
      </trkpt>
      <trkpt lat="48.32816" lon="-3.68428">
        <ele>108.19999694824</ele>
        <time>2021-09-12T06:55:34Z</time>
      </trkpt>
      <trkpt lat="48.32811" lon="-3.68435">
        <ele>108.19999694824</ele>
        <time>2021-09-12T06:55:35Z</time>
      </trkpt>
      <trkpt lat="48.32806" lon="-3.68443">
        <ele>108.19999694824</ele>
        <time>2021-09-12T06:55:36Z</time>
      </trkpt>
      <trkpt lat="48.32803" lon="-3.68449">
        <ele>108.40000152588</ele>
        <time>2021-09-12T06:55:37Z</time>
      </trkpt>
      <trkpt lat="48.32801" lon="-3.68456">
        <ele>108.59999847412</ele>
        <time>2021-09-12T06:55:38Z</time>
      </trkpt>
      <trkpt lat="48.32797" lon="-3.68463">
        <ele>108.80000305176</ele>
        <time>2021-09-12T06:55:39Z</time>
      </trkpt>
      <trkpt lat="48.32794" lon="-3.68469">
        <ele>108.80000305176</ele>
        <time>2021-09-12T06:55:40Z</time>
      </trkpt>
      <trkpt lat="48.32792" lon="-3.68474">
        <ele>108.80000305176</ele>
        <time>2021-09-12T06:55:41Z</time>
      </trkpt>
      <trkpt lat="48.3279" lon="-3.68478">
        <ele>109.19999694824</ele>
        <time>2021-09-12T06:55:42Z</time>
      </trkpt>
      <trkpt lat="48.32788" lon="-3.68483">
        <ele>109.40000152588</ele>
        <time>2021-09-12T06:55:43Z</time>
      </trkpt>
      <trkpt lat="48.32784" lon="-3.68488">
        <ele>109.40000152588</ele>
        <time>2021-09-12T06:55:44Z</time>
      </trkpt>
      <trkpt lat="48.32781" lon="-3.68493">
        <ele>109.59999847412</ele>
        <time>2021-09-12T06:55:45Z</time>
      </trkpt>
      <trkpt lat="48.32777" lon="-3.68497">
        <ele>109.59999847412</ele>
        <time>2021-09-12T06:55:46Z</time>
      </trkpt>
      <trkpt lat="48.32773" lon="-3.68501">
        <ele>109.59999847412</ele>
        <time>2021-09-12T06:55:47Z</time>
      </trkpt>
      <trkpt lat="48.32768" lon="-3.68504">
        <ele>109.59999847412</ele>
        <time>2021-09-12T06:55:48Z</time>
      </trkpt>
      <trkpt lat="48.32763" lon="-3.68504">
        <ele>109.40000152588</ele>
        <time>2021-09-12T06:55:49Z</time>
      </trkpt>
      <trkpt lat="48.32759" lon="-3.68501">
        <ele>109</ele>
        <time>2021-09-12T06:55:50Z</time>
      </trkpt>
      <trkpt lat="48.32757" lon="-3.68495">
        <ele>108.80000305176</ele>
        <time>2021-09-12T06:55:51Z</time>
      </trkpt>
      <trkpt lat="48.32756" lon="-3.68488">
        <ele>108</ele>
        <time>2021-09-12T06:55:52Z</time>
      </trkpt>
      <trkpt lat="48.32753" lon="-3.68481">
        <ele>107.19999694824</ele>
        <time>2021-09-12T06:55:53Z</time>
      </trkpt>
      <trkpt lat="48.3275" lon="-3.68472">
        <ele>106.80000305176</ele>
        <time>2021-09-12T06:55:54Z</time>
      </trkpt>
      <trkpt lat="48.32748" lon="-3.68465">
        <ele>106</ele>
        <time>2021-09-12T06:55:55Z</time>
      </trkpt>
      <trkpt lat="48.32746" lon="-3.68457">
        <ele>105.19999694824</ele>
        <time>2021-09-12T06:55:56Z</time>
      </trkpt>
      <trkpt lat="48.32745" lon="-3.68449">
        <ele>103.80000305176</ele>
        <time>2021-09-12T06:55:57Z</time>
      </trkpt>
      <trkpt lat="48.32742" lon="-3.6844">
        <ele>102.80000305176</ele>
        <time>2021-09-12T06:55:58Z</time>
      </trkpt>
      <trkpt lat="48.3274" lon="-3.68428">
        <ele>102.40000152588</ele>
        <time>2021-09-12T06:55:59Z</time>
      </trkpt>
      <trkpt lat="48.32738" lon="-3.68422">
        <ele>100.19999694824</ele>
        <time>2021-09-12T06:56:00Z</time>
      </trkpt>
      <trkpt lat="48.32737" lon="-3.68418">
        <ele>99</ele>
        <time>2021-09-12T06:56:01Z</time>
      </trkpt>
      <trkpt lat="48.32734" lon="-3.68415">
        <ele>97.599998474121</ele>
        <time>2021-09-12T06:56:02Z</time>
      </trkpt>
      <trkpt lat="48.32729" lon="-3.6841">
        <ele>97</ele>
        <time>2021-09-12T06:56:03Z</time>
      </trkpt>
      <trkpt lat="48.32726" lon="-3.68404">
        <ele>96</ele>
        <time>2021-09-12T06:56:04Z</time>
      </trkpt>
      <trkpt lat="48.32723" lon="-3.68399">
        <ele>95.199996948242</ele>
        <time>2021-09-12T06:56:05Z</time>
      </trkpt>
      <trkpt lat="48.3272" lon="-3.68396">
        <ele>93.199996948242</ele>
        <time>2021-09-12T06:56:06Z</time>
      </trkpt>
      <trkpt lat="48.32719" lon="-3.68396">
        <ele>92.199996948242</ele>
        <time>2021-09-12T06:56:07Z</time>
      </trkpt>
      <trkpt lat="48.32716" lon="-3.68397">
        <ele>92</ele>
        <time>2021-09-12T06:56:08Z</time>
      </trkpt>
      <trkpt lat="48.32713" lon="-3.68396">
        <ele>91</ele>
        <time>2021-09-12T06:56:09Z</time>
      </trkpt>
      <trkpt lat="48.32711" lon="-3.68398">
        <ele>90.800003051758</ele>
        <time>2021-09-12T06:56:10Z</time>
      </trkpt>
      <trkpt lat="48.32709" lon="-3.68399">
        <ele>90.599998474121</ele>
        <time>2021-09-12T06:56:11Z</time>
      </trkpt>
      <trkpt lat="48.32707" lon="-3.68402">
        <ele>90.199996948242</ele>
        <time>2021-09-12T06:56:12Z</time>
      </trkpt>
      <trkpt lat="48.32705" lon="-3.68406">
        <ele>89.599998474121</ele>
        <time>2021-09-12T06:56:13Z</time>
      </trkpt>
      <trkpt lat="48.32703" lon="-3.6841">
        <ele>88.800003051758</ele>
        <time>2021-09-12T06:56:14Z</time>
      </trkpt>
      <trkpt lat="48.327" lon="-3.68414">
        <ele>87.400001525879</ele>
        <time>2021-09-12T06:56:15Z</time>
      </trkpt>
      <trkpt lat="48.32698" lon="-3.68415">
        <ele>86.599998474121</ele>
        <time>2021-09-12T06:56:16Z</time>
      </trkpt>
      <trkpt lat="48.32696" lon="-3.68414">
        <ele>85.800003051758</ele>
        <time>2021-09-12T06:56:17Z</time>
      </trkpt>
      <trkpt lat="48.32695" lon="-3.68411">
        <ele>85.199996948242</ele>
        <time>2021-09-12T06:56:18Z</time>
      </trkpt>
      <trkpt lat="48.32695" lon="-3.68405">
        <ele>84.800003051758</ele>
        <time>2021-09-12T06:56:19Z</time>
      </trkpt>
      <trkpt lat="48.32695" lon="-3.68399">
        <ele>84.199996948242</ele>
        <time>2021-09-12T06:56:20Z</time>
      </trkpt>
      <trkpt lat="48.32695" lon="-3.68392">
        <ele>83.800003051758</ele>
        <time>2021-09-12T06:56:21Z</time>
      </trkpt>
      <trkpt lat="48.32696" lon="-3.68387">
        <ele>83.800003051758</ele>
        <time>2021-09-12T06:56:22Z</time>
      </trkpt>
      <trkpt lat="48.32698" lon="-3.68383">
        <ele>83.800003051758</ele>
        <time>2021-09-12T06:56:23Z</time>
      </trkpt>
      <trkpt lat="48.32702" lon="-3.6838">
        <ele>83.800003051758</ele>
        <time>2021-09-12T06:56:24Z</time>
      </trkpt>
      <trkpt lat="48.32704" lon="-3.6838">
        <ele>83.800003051758</ele>
        <time>2021-09-12T06:56:25Z</time>
      </trkpt>
      <trkpt lat="48.32708" lon="-3.6838">
        <ele>83.800003051758</ele>
        <time>2021-09-12T06:56:26Z</time>
      </trkpt>
      <trkpt lat="48.32712" lon="-3.6838">
        <ele>83.800003051758</ele>
        <time>2021-09-12T06:56:27Z</time>
      </trkpt>
      <trkpt lat="48.32716" lon="-3.68379">
        <ele>83.800003051758</ele>
        <time>2021-09-12T06:56:28Z</time>
      </trkpt>
      <trkpt lat="48.3272" lon="-3.68377">
        <ele>84</ele>
        <time>2021-09-12T06:56:29Z</time>
      </trkpt>
      <trkpt lat="48.32724" lon="-3.68377">
        <ele>84</ele>
        <time>2021-09-12T06:56:30Z</time>
      </trkpt>
      <trkpt lat="48.32727" lon="-3.68376">
        <ele>84</ele>
        <time>2021-09-12T06:56:31Z</time>
      </trkpt>
      <trkpt lat="48.3273" lon="-3.68375">
        <ele>84</ele>
        <time>2021-09-12T06:56:32Z</time>
      </trkpt>
      <trkpt lat="48.32733" lon="-3.68375">
        <ele>84</ele>
        <time>2021-09-12T06:56:33Z</time>
      </trkpt>
      <trkpt lat="48.32735" lon="-3.68375">
        <ele>84</ele>
        <time>2021-09-12T06:56:34Z</time>
      </trkpt>
      <trkpt lat="48.32737" lon="-3.68374">
        <ele>84</ele>
        <time>2021-09-12T06:56:35Z</time>
      </trkpt>
      <trkpt lat="48.3274" lon="-3.68373">
        <ele>84</ele>
        <time>2021-09-12T06:56:36Z</time>
      </trkpt>
      <trkpt lat="48.32742" lon="-3.68371">
        <ele>84</ele>
        <time>2021-09-12T06:56:37Z</time>
      </trkpt>
      <trkpt lat="48.32744" lon="-3.6837">
        <ele>84</ele>
        <time>2021-09-12T06:56:38Z</time>
      </trkpt>
      <trkpt lat="48.32746" lon="-3.68369">
        <ele>84</ele>
        <time>2021-09-12T06:56:39Z</time>
      </trkpt>
      <trkpt lat="48.32749" lon="-3.68369">
        <ele>84</ele>
        <time>2021-09-12T06:56:40Z</time>
      </trkpt>
      <trkpt lat="48.32752" lon="-3.68368">
        <ele>84</ele>
        <time>2021-09-12T06:56:41Z</time>
      </trkpt>
      <trkpt lat="48.32756" lon="-3.68367">
        <ele>84</ele>
        <time>2021-09-12T06:56:42Z</time>
      </trkpt>
      <trkpt lat="48.32759" lon="-3.68366">
        <ele>84</ele>
        <time>2021-09-12T06:56:43Z</time>
      </trkpt>
      <trkpt lat="48.32762" lon="-3.68365">
        <ele>84.199996948242</ele>
        <time>2021-09-12T06:56:44Z</time>
      </trkpt>
      <trkpt lat="48.32766" lon="-3.68363">
        <ele>84.199996948242</ele>
        <time>2021-09-12T06:56:45Z</time>
      </trkpt>
      <trkpt lat="48.32772" lon="-3.68358">
        <ele>84.400001525879</ele>
        <time>2021-09-12T06:56:46Z</time>
      </trkpt>
      <trkpt lat="48.32775" lon="-3.68353">
        <ele>84.400001525879</ele>
        <time>2021-09-12T06:56:47Z</time>
      </trkpt>
      <trkpt lat="48.3278" lon="-3.68348">
        <ele>84.400001525879</ele>
        <time>2021-09-12T06:56:48Z</time>
      </trkpt>
      <trkpt lat="48.32784" lon="-3.68346">
        <ele>84.400001525879</ele>
        <time>2021-09-12T06:56:49Z</time>
      </trkpt>
      <trkpt lat="48.32786" lon="-3.68344">
        <ele>84.400001525879</ele>
        <time>2021-09-12T06:56:50Z</time>
      </trkpt>
      <trkpt lat="48.32789" lon="-3.68342">
        <ele>84.400001525879</ele>
        <time>2021-09-12T06:56:51Z</time>
      </trkpt>
      <trkpt lat="48.32791" lon="-3.68341">
        <ele>84.400001525879</ele>
        <time>2021-09-12T06:56:52Z</time>
      </trkpt>
      <trkpt lat="48.32794" lon="-3.68339">
        <ele>84.400001525879</ele>
        <time>2021-09-12T06:56:53Z</time>
      </trkpt>
      <trkpt lat="48.32798" lon="-3.68335">
        <ele>84.400001525879</ele>
        <time>2021-09-12T06:56:54Z</time>
      </trkpt>
      <trkpt lat="48.32803" lon="-3.68333">
        <ele>84.400001525879</ele>
        <time>2021-09-12T06:56:55Z</time>
      </trkpt>
      <trkpt lat="48.32808" lon="-3.68329">
        <ele>84.400001525879</ele>
        <time>2021-09-12T06:56:56Z</time>
      </trkpt>
      <trkpt lat="48.32814" lon="-3.68326">
        <ele>84.599998474121</ele>
        <time>2021-09-12T06:56:57Z</time>
      </trkpt>
      <trkpt lat="48.32819" lon="-3.68323">
        <ele>84.599998474121</ele>
        <time>2021-09-12T06:56:58Z</time>
      </trkpt>
      <trkpt lat="48.32822" lon="-3.68321">
        <ele>84.599998474121</ele>
        <time>2021-09-12T06:56:59Z</time>
      </trkpt>
      <trkpt lat="48.32826" lon="-3.6832">
        <ele>84.599998474121</ele>
        <time>2021-09-12T06:57:00Z</time>
      </trkpt>
      <trkpt lat="48.3283" lon="-3.68318">
        <ele>84.599998474121</ele>
        <time>2021-09-12T06:57:01Z</time>
      </trkpt>
      <trkpt lat="48.32835" lon="-3.68316">
        <ele>84.800003051758</ele>
        <time>2021-09-12T06:57:02Z</time>
      </trkpt>
      <trkpt lat="48.32838" lon="-3.68313">
        <ele>84.800003051758</ele>
        <time>2021-09-12T06:57:03Z</time>
      </trkpt>
      <trkpt lat="48.32842" lon="-3.6831">
        <ele>84.800003051758</ele>
        <time>2021-09-12T06:57:04Z</time>
      </trkpt>
      <trkpt lat="48.32845" lon="-3.68308">
        <ele>84.800003051758</ele>
        <time>2021-09-12T06:57:05Z</time>
      </trkpt>
      <trkpt lat="48.3285" lon="-3.68306">
        <ele>84.800003051758</ele>
        <time>2021-09-12T06:57:06Z</time>
      </trkpt>
      <trkpt lat="48.32855" lon="-3.68306">
        <ele>84.800003051758</ele>
        <time>2021-09-12T06:57:07Z</time>
      </trkpt>
      <trkpt lat="48.32862" lon="-3.68304">
        <ele>84.800003051758</ele>
        <time>2021-09-12T06:57:08Z</time>
      </trkpt>
      <trkpt lat="48.32869" lon="-3.68301">
        <ele>84.800003051758</ele>
        <time>2021-09-12T06:57:09Z</time>
      </trkpt>
      <trkpt lat="48.32872" lon="-3.68298">
        <ele>85.199996948242</ele>
        <time>2021-09-12T06:57:10Z</time>
      </trkpt>
      <trkpt lat="48.32875" lon="-3.68296">
        <ele>85.199996948242</ele>
        <time>2021-09-12T06:57:11Z</time>
      </trkpt>
      <trkpt lat="48.32878" lon="-3.68296">
        <ele>85.400001525879</ele>
        <time>2021-09-12T06:57:12Z</time>
      </trkpt>
      <trkpt lat="48.32882" lon="-3.68294">
        <ele>85.400001525879</ele>
        <time>2021-09-12T06:57:13Z</time>
      </trkpt>
      <trkpt lat="48.32888" lon="-3.68291">
        <ele>85.599998474121</ele>
        <time>2021-09-12T06:57:14Z</time>
      </trkpt>
      <trkpt lat="48.32893" lon="-3.68289">
        <ele>85.800003051758</ele>
        <time>2021-09-12T06:57:15Z</time>
      </trkpt>
      <trkpt lat="48.32897" lon="-3.68287">
        <ele>85.800003051758</ele>
        <time>2021-09-12T06:57:16Z</time>
      </trkpt>
      <trkpt lat="48.32903" lon="-3.68283">
        <ele>85.800003051758</ele>
        <time>2021-09-12T06:57:17Z</time>
      </trkpt>
      <trkpt lat="48.32908" lon="-3.68281">
        <ele>85.800003051758</ele>
        <time>2021-09-12T06:57:18Z</time>
      </trkpt>
      <trkpt lat="48.32914" lon="-3.68279">
        <ele>86</ele>
        <time>2021-09-12T06:57:19Z</time>
      </trkpt>
      <trkpt lat="48.32917" lon="-3.68278">
        <ele>86.199996948242</ele>
        <time>2021-09-12T06:57:20Z</time>
      </trkpt>
      <trkpt lat="48.3292" lon="-3.68278">
        <ele>86.199996948242</ele>
        <time>2021-09-12T06:57:21Z</time>
      </trkpt>
      <trkpt lat="48.32923" lon="-3.68278">
        <ele>86.199996948242</ele>
        <time>2021-09-12T06:57:22Z</time>
      </trkpt>
      <trkpt lat="48.32926" lon="-3.68276">
        <ele>86.199996948242</ele>
        <time>2021-09-12T06:57:23Z</time>
      </trkpt>
      <trkpt lat="48.32929" lon="-3.68275">
        <ele>86.599998474121</ele>
        <time>2021-09-12T06:57:24Z</time>
      </trkpt>
      <trkpt lat="48.32934" lon="-3.68273">
        <ele>86.800003051758</ele>
        <time>2021-09-12T06:57:25Z</time>
      </trkpt>
      <trkpt lat="48.32939" lon="-3.68272">
        <ele>87</ele>
        <time>2021-09-12T06:57:26Z</time>
      </trkpt>
      <trkpt lat="48.32944" lon="-3.68272">
        <ele>87.199996948242</ele>
        <time>2021-09-12T06:57:27Z</time>
      </trkpt>
      <trkpt lat="48.32948" lon="-3.68273">
        <ele>87.400001525879</ele>
        <time>2021-09-12T06:57:28Z</time>
      </trkpt>
      <trkpt lat="48.32952" lon="-3.68275">
        <ele>87.400001525879</ele>
        <time>2021-09-12T06:57:29Z</time>
      </trkpt>
      <trkpt lat="48.32956" lon="-3.68278">
        <ele>87.599998474121</ele>
        <time>2021-09-12T06:57:30Z</time>
      </trkpt>
      <trkpt lat="48.32959" lon="-3.68282">
        <ele>87.599998474121</ele>
        <time>2021-09-12T06:57:31Z</time>
      </trkpt>
      <trkpt lat="48.32962" lon="-3.68287">
        <ele>87.800003051758</ele>
        <time>2021-09-12T06:57:32Z</time>
      </trkpt>
      <trkpt lat="48.32965" lon="-3.68291">
        <ele>87.800003051758</ele>
        <time>2021-09-12T06:57:33Z</time>
      </trkpt>
      <trkpt lat="48.32968" lon="-3.68295">
        <ele>88</ele>
        <time>2021-09-12T06:57:34Z</time>
      </trkpt>
      <trkpt lat="48.32969" lon="-3.68299">
        <ele>88</ele>
        <time>2021-09-12T06:57:35Z</time>
      </trkpt>
      <trkpt lat="48.3297" lon="-3.68302">
        <ele>88</ele>
        <time>2021-09-12T06:57:36Z</time>
      </trkpt>
      <trkpt lat="48.32972" lon="-3.68307">
        <ele>88.199996948242</ele>
        <time>2021-09-12T06:57:37Z</time>
      </trkpt>
      <trkpt lat="48.32974" lon="-3.68312">
        <ele>88.199996948242</ele>
        <time>2021-09-12T06:57:38Z</time>
      </trkpt>
      <trkpt lat="48.32976" lon="-3.68317">
        <ele>88.199996948242</ele>
        <time>2021-09-12T06:57:39Z</time>
      </trkpt>
      <trkpt lat="48.32979" lon="-3.6832">
        <ele>88.199996948242</ele>
        <time>2021-09-12T06:57:40Z</time>
      </trkpt>
      <trkpt lat="48.32984" lon="-3.68322">
        <ele>88.199996948242</ele>
        <time>2021-09-12T06:57:41Z</time>
      </trkpt>
      <trkpt lat="48.32989" lon="-3.68322">
        <ele>88.199996948242</ele>
        <time>2021-09-12T06:57:42Z</time>
      </trkpt>
      <trkpt lat="48.32995" lon="-3.68319">
        <ele>88.199996948242</ele>
        <time>2021-09-12T06:57:43Z</time>
      </trkpt>
      <trkpt lat="48.32999" lon="-3.68315">
        <ele>88.400001525879</ele>
        <time>2021-09-12T06:57:44Z</time>
      </trkpt>
      <trkpt lat="48.33001" lon="-3.68309">
        <ele>88.400001525879</ele>
        <time>2021-09-12T06:57:45Z</time>
      </trkpt>
      <trkpt lat="48.33002" lon="-3.68303">
        <ele>88.599998474121</ele>
        <time>2021-09-12T06:57:46Z</time>
      </trkpt>
      <trkpt lat="48.33002" lon="-3.68297">
        <ele>88.800003051758</ele>
        <time>2021-09-12T06:57:47Z</time>
      </trkpt>
      <trkpt lat="48.33002" lon="-3.68291">
        <ele>88.800003051758</ele>
        <time>2021-09-12T06:57:48Z</time>
      </trkpt>
      <trkpt lat="48.33001" lon="-3.68286">
        <ele>88.800003051758</ele>
        <time>2021-09-12T06:57:49Z</time>
      </trkpt>
      <trkpt lat="48.33002" lon="-3.6828">
        <ele>88.800003051758</ele>
        <time>2021-09-12T06:57:50Z</time>
      </trkpt>
      <trkpt lat="48.33003" lon="-3.68273">
        <ele>88.599998474121</ele>
        <time>2021-09-12T06:57:51Z</time>
      </trkpt>
      <trkpt lat="48.33003" lon="-3.68266">
        <ele>88.599998474121</ele>
        <time>2021-09-12T06:57:52Z</time>
      </trkpt>
      <trkpt lat="48.33005" lon="-3.6826">
        <ele>88.599998474121</ele>
        <time>2021-09-12T06:57:53Z</time>
      </trkpt>
      <trkpt lat="48.33007" lon="-3.68254">
        <ele>88.599998474121</ele>
        <time>2021-09-12T06:57:54Z</time>
      </trkpt>
      <trkpt lat="48.3301" lon="-3.68248">
        <ele>88.599998474121</ele>
        <time>2021-09-12T06:57:55Z</time>
      </trkpt>
      <trkpt lat="48.33014" lon="-3.68243">
        <ele>88.599998474121</ele>
        <time>2021-09-12T06:57:56Z</time>
      </trkpt>
      <trkpt lat="48.33018" lon="-3.68238">
        <ele>88.400001525879</ele>
        <time>2021-09-12T06:57:57Z</time>
      </trkpt>
      <trkpt lat="48.33022" lon="-3.68233">
        <ele>88.199996948242</ele>
        <time>2021-09-12T06:57:58Z</time>
      </trkpt>
      <trkpt lat="48.33026" lon="-3.6823">
        <ele>88.199996948242</ele>
        <time>2021-09-12T06:57:59Z</time>
      </trkpt>
      <trkpt lat="48.33029" lon="-3.68226">
        <ele>88.199996948242</ele>
        <time>2021-09-12T06:58:00Z</time>
      </trkpt>
      <trkpt lat="48.33032" lon="-3.68223">
        <ele>87.599998474121</ele>
        <time>2021-09-12T06:58:01Z</time>
      </trkpt>
      <trkpt lat="48.33036" lon="-3.6822">
        <ele>87.599998474121</ele>
        <time>2021-09-12T06:58:02Z</time>
      </trkpt>
      <trkpt lat="48.3304" lon="-3.68217">
        <ele>87.599998474121</ele>
        <time>2021-09-12T06:58:03Z</time>
      </trkpt>
      <trkpt lat="48.33044" lon="-3.68215">
        <ele>87.599998474121</ele>
        <time>2021-09-12T06:58:04Z</time>
      </trkpt>
      <trkpt lat="48.3305" lon="-3.68212">
        <ele>87.199996948242</ele>
        <time>2021-09-12T06:58:05Z</time>
      </trkpt>
      <trkpt lat="48.33054" lon="-3.68209">
        <ele>87.199996948242</ele>
        <time>2021-09-12T06:58:06Z</time>
      </trkpt>
      <trkpt lat="48.33059" lon="-3.68206">
        <ele>87.199996948242</ele>
        <time>2021-09-12T06:58:07Z</time>
      </trkpt>
      <trkpt lat="48.33066" lon="-3.68204">
        <ele>87.199996948242</ele>
        <time>2021-09-12T06:58:08Z</time>
      </trkpt>
      <trkpt lat="48.33071" lon="-3.68202">
        <ele>87</ele>
        <time>2021-09-12T06:58:09Z</time>
      </trkpt>
      <trkpt lat="48.33076" lon="-3.682">
        <ele>87</ele>
        <time>2021-09-12T06:58:10Z</time>
      </trkpt>
      <trkpt lat="48.33081" lon="-3.68198">
        <ele>87</ele>
        <time>2021-09-12T06:58:11Z</time>
      </trkpt>
      <trkpt lat="48.33087" lon="-3.68196">
        <ele>86.800003051758</ele>
        <time>2021-09-12T06:58:12Z</time>
      </trkpt>
      <trkpt lat="48.33091" lon="-3.68195">
        <ele>86.800003051758</ele>
        <time>2021-09-12T06:58:13Z</time>
      </trkpt>
      <trkpt lat="48.33096" lon="-3.68194">
        <ele>86.599998474121</ele>
        <time>2021-09-12T06:58:14Z</time>
      </trkpt>
      <trkpt lat="48.33101" lon="-3.68194">
        <ele>86.599998474121</ele>
        <time>2021-09-12T06:58:15Z</time>
      </trkpt>
      <trkpt lat="48.33108" lon="-3.68195">
        <ele>86.599998474121</ele>
        <time>2021-09-12T06:58:16Z</time>
      </trkpt>
      <trkpt lat="48.33116" lon="-3.68196">
        <ele>86.599998474121</ele>
        <time>2021-09-12T06:58:17Z</time>
      </trkpt>
      <trkpt lat="48.33122" lon="-3.68198">
        <ele>86.599998474121</ele>
        <time>2021-09-12T06:58:18Z</time>
      </trkpt>
      <trkpt lat="48.33127" lon="-3.68204">
        <ele>86.599998474121</ele>
        <time>2021-09-12T06:58:19Z</time>
      </trkpt>
      <trkpt lat="48.33131" lon="-3.68209">
        <ele>86.400001525879</ele>
        <time>2021-09-12T06:58:20Z</time>
      </trkpt>
      <trkpt lat="48.33135" lon="-3.68216">
        <ele>86.400001525879</ele>
        <time>2021-09-12T06:58:21Z</time>
      </trkpt>
      <trkpt lat="48.33138" lon="-3.68223">
        <ele>86</ele>
        <time>2021-09-12T06:58:22Z</time>
      </trkpt>
      <trkpt lat="48.33142" lon="-3.68229">
        <ele>86</ele>
        <time>2021-09-12T06:58:23Z</time>
      </trkpt>
      <trkpt lat="48.33146" lon="-3.68233">
        <ele>85.800003051758</ele>
        <time>2021-09-12T06:58:24Z</time>
      </trkpt>
      <trkpt lat="48.3315" lon="-3.68234">
        <ele>85.800003051758</ele>
        <time>2021-09-12T06:58:25Z</time>
      </trkpt>
      <trkpt lat="48.33157" lon="-3.68232">
        <ele>85.599998474121</ele>
        <time>2021-09-12T06:58:26Z</time>
      </trkpt>
      <trkpt lat="48.3316" lon="-3.68227">
        <ele>85.599998474121</ele>
        <time>2021-09-12T06:58:27Z</time>
      </trkpt>
      <trkpt lat="48.33162" lon="-3.68221">
        <ele>85.599998474121</ele>
        <time>2021-09-12T06:58:28Z</time>
      </trkpt>
      <trkpt lat="48.33162" lon="-3.68214">
        <ele>85.400001525879</ele>
        <time>2021-09-12T06:58:29Z</time>
      </trkpt>
      <trkpt lat="48.33163" lon="-3.68207">
        <ele>85.400001525879</ele>
        <time>2021-09-12T06:58:30Z</time>
      </trkpt>
      <trkpt lat="48.33164" lon="-3.68199">
        <ele>85.199996948242</ele>
        <time>2021-09-12T06:58:31Z</time>
      </trkpt>
      <trkpt lat="48.33166" lon="-3.68192">
        <ele>85.199996948242</ele>
        <time>2021-09-12T06:58:32Z</time>
      </trkpt>
      <trkpt lat="48.3317" lon="-3.68186">
        <ele>85.199996948242</ele>
        <time>2021-09-12T06:58:33Z</time>
      </trkpt>
      <trkpt lat="48.33174" lon="-3.68181">
        <ele>85.199996948242</ele>
        <time>2021-09-12T06:58:34Z</time>
      </trkpt>
      <trkpt lat="48.33178" lon="-3.68178">
        <ele>85.199996948242</ele>
        <time>2021-09-12T06:58:35Z</time>
      </trkpt>
      <trkpt lat="48.33183" lon="-3.68176">
        <ele>85.199996948242</ele>
        <time>2021-09-12T06:58:36Z</time>
      </trkpt>
      <trkpt lat="48.33187" lon="-3.68174">
        <ele>85</ele>
        <time>2021-09-12T06:58:37Z</time>
      </trkpt>
      <trkpt lat="48.33192" lon="-3.68173">
        <ele>84.599998474121</ele>
        <time>2021-09-12T06:58:38Z</time>
      </trkpt>
      <trkpt lat="48.33197" lon="-3.68173">
        <ele>84.400001525879</ele>
        <time>2021-09-12T06:58:39Z</time>
      </trkpt>
      <trkpt lat="48.33203" lon="-3.68171">
        <ele>84.400001525879</ele>
        <time>2021-09-12T06:58:40Z</time>
      </trkpt>
      <trkpt lat="48.33208" lon="-3.6817">
        <ele>84.199996948242</ele>
        <time>2021-09-12T06:58:41Z</time>
      </trkpt>
      <trkpt lat="48.33214" lon="-3.68169">
        <ele>84</ele>
        <time>2021-09-12T06:58:42Z</time>
      </trkpt>
      <trkpt lat="48.33219" lon="-3.68169">
        <ele>83.599998474121</ele>
        <time>2021-09-12T06:58:43Z</time>
      </trkpt>
      <trkpt lat="48.33224" lon="-3.6817">
        <ele>83.599998474121</ele>
        <time>2021-09-12T06:58:44Z</time>
      </trkpt>
      <trkpt lat="48.3323" lon="-3.68171">
        <ele>83.400001525879</ele>
        <time>2021-09-12T06:58:45Z</time>
      </trkpt>
      <trkpt lat="48.33235" lon="-3.68171">
        <ele>83.400001525879</ele>
        <time>2021-09-12T06:58:46Z</time>
      </trkpt>
      <trkpt lat="48.3324" lon="-3.68171">
        <ele>83</ele>
        <time>2021-09-12T06:58:47Z</time>
      </trkpt>
      <trkpt lat="48.33246" lon="-3.68172">
        <ele>82.800003051758</ele>
        <time>2021-09-12T06:58:48Z</time>
      </trkpt>
      <trkpt lat="48.3325" lon="-3.68173">
        <ele>82.599998474121</ele>
        <time>2021-09-12T06:58:49Z</time>
      </trkpt>
      <trkpt lat="48.33254" lon="-3.68174">
        <ele>82.400001525879</ele>
        <time>2021-09-12T06:58:50Z</time>
      </trkpt>
      <trkpt lat="48.33258" lon="-3.68174">
        <ele>82.400001525879</ele>
        <time>2021-09-12T06:58:51Z</time>
      </trkpt>
      <trkpt lat="48.33263" lon="-3.68175">
        <ele>82</ele>
        <time>2021-09-12T06:58:52Z</time>
      </trkpt>
      <trkpt lat="48.33267" lon="-3.68177">
        <ele>81.800003051758</ele>
        <time>2021-09-12T06:58:53Z</time>
      </trkpt>
      <trkpt lat="48.33273" lon="-3.6818">
        <ele>81.599998474121</ele>
        <time>2021-09-12T06:58:54Z</time>
      </trkpt>
      <trkpt lat="48.3328" lon="-3.68182">
        <ele>81.599998474121</ele>
        <time>2021-09-12T06:58:55Z</time>
      </trkpt>
      <trkpt lat="48.33286" lon="-3.68184">
        <ele>81.400001525879</ele>
        <time>2021-09-12T06:58:56Z</time>
      </trkpt>
      <trkpt lat="48.33292" lon="-3.68185">
        <ele>81.400001525879</ele>
        <time>2021-09-12T06:58:57Z</time>
      </trkpt>
      <trkpt lat="48.33298" lon="-3.68186">
        <ele>81.199996948242</ele>
        <time>2021-09-12T06:58:58Z</time>
      </trkpt>
      <trkpt lat="48.33302" lon="-3.68187">
        <ele>81.199996948242</ele>
        <time>2021-09-12T06:58:59Z</time>
      </trkpt>
      <trkpt lat="48.33306" lon="-3.68188">
        <ele>81</ele>
        <time>2021-09-12T06:59:00Z</time>
      </trkpt>
      <trkpt lat="48.3331" lon="-3.68191">
        <ele>80.800003051758</ele>
        <time>2021-09-12T06:59:01Z</time>
      </trkpt>
      <trkpt lat="48.33316" lon="-3.68193">
        <ele>80.800003051758</ele>
        <time>2021-09-12T06:59:02Z</time>
      </trkpt>
      <trkpt lat="48.33323" lon="-3.68193">
        <ele>80.400001525879</ele>
        <time>2021-09-12T06:59:03Z</time>
      </trkpt>
      <trkpt lat="48.33331" lon="-3.68193">
        <ele>80.400001525879</ele>
        <time>2021-09-12T06:59:04Z</time>
      </trkpt>
      <trkpt lat="48.33337" lon="-3.68193">
        <ele>80.400001525879</ele>
        <time>2021-09-12T06:59:05Z</time>
      </trkpt>
      <trkpt lat="48.33344" lon="-3.68194">
        <ele>80.400001525879</ele>
        <time>2021-09-12T06:59:06Z</time>
      </trkpt>
      <trkpt lat="48.3335" lon="-3.68195">
        <ele>80.400001525879</ele>
        <time>2021-09-12T06:59:07Z</time>
      </trkpt>
      <trkpt lat="48.33359" lon="-3.68196">
        <ele>80</ele>
        <time>2021-09-12T06:59:08Z</time>
      </trkpt>
      <trkpt lat="48.33364" lon="-3.68196">
        <ele>80</ele>
        <time>2021-09-12T06:59:09Z</time>
      </trkpt>
      <trkpt lat="48.33372" lon="-3.68195">
        <ele>80</ele>
        <time>2021-09-12T06:59:10Z</time>
      </trkpt>
      <trkpt lat="48.33379" lon="-3.68192">
        <ele>80</ele>
        <time>2021-09-12T06:59:11Z</time>
      </trkpt>
      <trkpt lat="48.33385" lon="-3.68189">
        <ele>79.800003051758</ele>
        <time>2021-09-12T06:59:12Z</time>
      </trkpt>
      <trkpt lat="48.33391" lon="-3.68187">
        <ele>79.599998474121</ele>
        <time>2021-09-12T06:59:13Z</time>
      </trkpt>
      <trkpt lat="48.33398" lon="-3.68184">
        <ele>79.599998474121</ele>
        <time>2021-09-12T06:59:14Z</time>
      </trkpt>
      <trkpt lat="48.33402" lon="-3.68181">
        <ele>79.599998474121</ele>
        <time>2021-09-12T06:59:15Z</time>
      </trkpt>
      <trkpt lat="48.33407" lon="-3.68178">
        <ele>79.599998474121</ele>
        <time>2021-09-12T06:59:16Z</time>
      </trkpt>
      <trkpt lat="48.33412" lon="-3.68175">
        <ele>79.400001525879</ele>
        <time>2021-09-12T06:59:17Z</time>
      </trkpt>
      <trkpt lat="48.33418" lon="-3.68173">
        <ele>79.400001525879</ele>
        <time>2021-09-12T06:59:18Z</time>
      </trkpt>
      <trkpt lat="48.33423" lon="-3.6817">
        <ele>79.199996948242</ele>
        <time>2021-09-12T06:59:19Z</time>
      </trkpt>
      <trkpt lat="48.33428" lon="-3.68169">
        <ele>79</ele>
        <time>2021-09-12T06:59:20Z</time>
      </trkpt>
      <trkpt lat="48.33433" lon="-3.68167">
        <ele>79</ele>
        <time>2021-09-12T06:59:21Z</time>
      </trkpt>
      <trkpt lat="48.33437" lon="-3.68165">
        <ele>79</ele>
        <time>2021-09-12T06:59:22Z</time>
      </trkpt>
      <trkpt lat="48.33442" lon="-3.68163">
        <ele>78.800003051758</ele>
        <time>2021-09-12T06:59:23Z</time>
      </trkpt>
      <trkpt lat="48.33447" lon="-3.6816">
        <ele>79</ele>
        <time>2021-09-12T06:59:24Z</time>
      </trkpt>
      <trkpt lat="48.33451" lon="-3.68159">
        <ele>78.800003051758</ele>
        <time>2021-09-12T06:59:25Z</time>
      </trkpt>
      <trkpt lat="48.33455" lon="-3.68156">
        <ele>78.800003051758</ele>
        <time>2021-09-12T06:59:26Z</time>
      </trkpt>
      <trkpt lat="48.3346" lon="-3.68153">
        <ele>79</ele>
        <time>2021-09-12T06:59:27Z</time>
      </trkpt>
      <trkpt lat="48.33464" lon="-3.68151">
        <ele>79</ele>
        <time>2021-09-12T06:59:28Z</time>
      </trkpt>
      <trkpt lat="48.33468" lon="-3.68148">
        <ele>79</ele>
        <time>2021-09-12T06:59:29Z</time>
      </trkpt>
      <trkpt lat="48.33472" lon="-3.68147">
        <ele>79</ele>
        <time>2021-09-12T06:59:30Z</time>
      </trkpt>
      <trkpt lat="48.33476" lon="-3.68145">
        <ele>79</ele>
        <time>2021-09-12T06:59:31Z</time>
      </trkpt>
      <trkpt lat="48.33481" lon="-3.68145">
        <ele>79</ele>
        <time>2021-09-12T06:59:32Z</time>
      </trkpt>
      <trkpt lat="48.33485" lon="-3.68143">
        <ele>79.199996948242</ele>
        <time>2021-09-12T06:59:33Z</time>
      </trkpt>
      <trkpt lat="48.3349" lon="-3.68142">
        <ele>79.199996948242</ele>
        <time>2021-09-12T06:59:34Z</time>
      </trkpt>
      <trkpt lat="48.33496" lon="-3.6814">
        <ele>79.199996948242</ele>
        <time>2021-09-12T06:59:35Z</time>
      </trkpt>
      <trkpt lat="48.33501" lon="-3.68138">
        <ele>79</ele>
        <time>2021-09-12T06:59:36Z</time>
      </trkpt>
      <trkpt lat="48.33505" lon="-3.68136">
        <ele>79</ele>
        <time>2021-09-12T06:59:37Z</time>
      </trkpt>
      <trkpt lat="48.3351" lon="-3.68135">
        <ele>79</ele>
        <time>2021-09-12T06:59:38Z</time>
      </trkpt>
      <trkpt lat="48.33513" lon="-3.68134">
        <ele>79</ele>
        <time>2021-09-12T06:59:39Z</time>
      </trkpt>
      <trkpt lat="48.33517" lon="-3.68134">
        <ele>79</ele>
        <time>2021-09-12T06:59:40Z</time>
      </trkpt>
      <trkpt lat="48.3352" lon="-3.68133">
        <ele>79.199996948242</ele>
        <time>2021-09-12T06:59:41Z</time>
      </trkpt>
      <trkpt lat="48.33524" lon="-3.68133">
        <ele>79.400001525879</ele>
        <time>2021-09-12T06:59:42Z</time>
      </trkpt>
      <trkpt lat="48.33528" lon="-3.68132">
        <ele>79.400001525879</ele>
        <time>2021-09-12T06:59:43Z</time>
      </trkpt>
      <trkpt lat="48.33532" lon="-3.6813">
        <ele>79.599998474121</ele>
        <time>2021-09-12T06:59:44Z</time>
      </trkpt>
      <trkpt lat="48.33539" lon="-3.68126">
        <ele>79.800003051758</ele>
        <time>2021-09-12T06:59:45Z</time>
      </trkpt>
      <trkpt lat="48.33546" lon="-3.68124">
        <ele>79.800003051758</ele>
        <time>2021-09-12T06:59:46Z</time>
      </trkpt>
      <trkpt lat="48.33552" lon="-3.68123">
        <ele>80</ele>
        <time>2021-09-12T06:59:47Z</time>
      </trkpt>
      <trkpt lat="48.33558" lon="-3.68122">
        <ele>80</ele>
        <time>2021-09-12T06:59:48Z</time>
      </trkpt>
      <trkpt lat="48.33564" lon="-3.68121">
        <ele>80.199996948242</ele>
        <time>2021-09-12T06:59:49Z</time>
      </trkpt>
      <trkpt lat="48.3357" lon="-3.6812">
        <ele>80.199996948242</ele>
        <time>2021-09-12T06:59:50Z</time>
      </trkpt>
      <trkpt lat="48.33576" lon="-3.68119">
        <ele>80.199996948242</ele>
        <time>2021-09-12T06:59:51Z</time>
      </trkpt>
      <trkpt lat="48.33581" lon="-3.6812">
        <ele>80.400001525879</ele>
        <time>2021-09-12T06:59:52Z</time>
      </trkpt>
      <trkpt lat="48.33587" lon="-3.6812">
        <ele>80.599998474121</ele>
        <time>2021-09-12T06:59:53Z</time>
      </trkpt>
      <trkpt lat="48.33597" lon="-3.68119">
        <ele>80.599998474121</ele>
        <time>2021-09-12T06:59:54Z</time>
      </trkpt>
      <trkpt lat="48.33606" lon="-3.68117">
        <ele>80.599998474121</ele>
        <time>2021-09-12T06:59:55Z</time>
      </trkpt>
      <trkpt lat="48.33612" lon="-3.68118">
        <ele>80.800003051758</ele>
        <time>2021-09-12T06:59:56Z</time>
      </trkpt>
      <trkpt lat="48.33617" lon="-3.68118">
        <ele>81</ele>
        <time>2021-09-12T06:59:57Z</time>
      </trkpt>
      <trkpt lat="48.33621" lon="-3.68118">
        <ele>81.400001525879</ele>
        <time>2021-09-12T06:59:58Z</time>
      </trkpt>
      <trkpt lat="48.33625" lon="-3.68118">
        <ele>81.400001525879</ele>
        <time>2021-09-12T06:59:59Z</time>
      </trkpt>
      <trkpt lat="48.33629" lon="-3.68118">
        <ele>81.400001525879</ele>
        <time>2021-09-12T07:00:00Z</time>
      </trkpt>
      <trkpt lat="48.33632" lon="-3.68119">
        <ele>81.400001525879</ele>
        <time>2021-09-12T07:00:01Z</time>
      </trkpt>
      <trkpt lat="48.33636" lon="-3.68121">
        <ele>81.599998474121</ele>
        <time>2021-09-12T07:00:02Z</time>
      </trkpt>
      <trkpt lat="48.3364" lon="-3.68121">
        <ele>81.599998474121</ele>
        <time>2021-09-12T07:00:03Z</time>
      </trkpt>
      <trkpt lat="48.33645" lon="-3.68121">
        <ele>81.800003051758</ele>
        <time>2021-09-12T07:00:04Z</time>
      </trkpt>
      <trkpt lat="48.3365" lon="-3.68123">
        <ele>82</ele>
        <time>2021-09-12T07:00:05Z</time>
      </trkpt>
      <trkpt lat="48.33655" lon="-3.68123">
        <ele>82</ele>
        <time>2021-09-12T07:00:06Z</time>
      </trkpt>
      <trkpt lat="48.3366" lon="-3.68123">
        <ele>82</ele>
        <time>2021-09-12T07:00:07Z</time>
      </trkpt>
      <trkpt lat="48.33665" lon="-3.68123">
        <ele>82.599998474121</ele>
        <time>2021-09-12T07:00:08Z</time>
      </trkpt>
      <trkpt lat="48.33669" lon="-3.68123">
        <ele>82.599998474121</ele>
        <time>2021-09-12T07:00:09Z</time>
      </trkpt>
      <trkpt lat="48.33673" lon="-3.68122">
        <ele>82.599998474121</ele>
        <time>2021-09-12T07:00:10Z</time>
      </trkpt>
      <trkpt lat="48.33677" lon="-3.68122">
        <ele>82.599998474121</ele>
        <time>2021-09-12T07:00:11Z</time>
      </trkpt>
      <trkpt lat="48.33681" lon="-3.68121">
        <ele>82.599998474121</ele>
        <time>2021-09-12T07:00:12Z</time>
      </trkpt>
      <trkpt lat="48.33684" lon="-3.68121">
        <ele>83</ele>
        <time>2021-09-12T07:00:13Z</time>
      </trkpt>
      <trkpt lat="48.33688" lon="-3.6812">
        <ele>83.199996948242</ele>
        <time>2021-09-12T07:00:14Z</time>
      </trkpt>
      <trkpt lat="48.33693" lon="-3.68119">
        <ele>83.199996948242</ele>
        <time>2021-09-12T07:00:15Z</time>
      </trkpt>
      <trkpt lat="48.33697" lon="-3.68118">
        <ele>83.199996948242</ele>
        <time>2021-09-12T07:00:16Z</time>
      </trkpt>
      <trkpt lat="48.33701" lon="-3.68117">
        <ele>83.400001525879</ele>
        <time>2021-09-12T07:00:17Z</time>
      </trkpt>
      <trkpt lat="48.33705" lon="-3.68117">
        <ele>83.599998474121</ele>
        <time>2021-09-12T07:00:18Z</time>
      </trkpt>
      <trkpt lat="48.33709" lon="-3.68117">
        <ele>83.800003051758</ele>
        <time>2021-09-12T07:00:19Z</time>
      </trkpt>
      <trkpt lat="48.33713" lon="-3.68117">
        <ele>84</ele>
        <time>2021-09-12T07:00:20Z</time>
      </trkpt>
      <trkpt lat="48.33717" lon="-3.68118">
        <ele>84</ele>
        <time>2021-09-12T07:00:21Z</time>
      </trkpt>
      <trkpt lat="48.33722" lon="-3.68117">
        <ele>84</ele>
        <time>2021-09-12T07:00:22Z</time>
      </trkpt>
      <trkpt lat="48.33725" lon="-3.68116">
        <ele>84.199996948242</ele>
        <time>2021-09-12T07:00:23Z</time>
      </trkpt>
      <trkpt lat="48.33729" lon="-3.68115">
        <ele>84.199996948242</ele>
        <time>2021-09-12T07:00:24Z</time>
      </trkpt>
      <trkpt lat="48.33733" lon="-3.68114">
        <ele>84.199996948242</ele>
        <time>2021-09-12T07:00:25Z</time>
      </trkpt>
      <trkpt lat="48.33737" lon="-3.68114">
        <ele>84.599998474121</ele>
        <time>2021-09-12T07:00:26Z</time>
      </trkpt>
      <trkpt lat="48.33741" lon="-3.68114">
        <ele>84.800003051758</ele>
        <time>2021-09-12T07:00:27Z</time>
      </trkpt>
      <trkpt lat="48.33744" lon="-3.68116">
        <ele>84.800003051758</ele>
        <time>2021-09-12T07:00:28Z</time>
      </trkpt>
      <trkpt lat="48.33748" lon="-3.68116">
        <ele>84.800003051758</ele>
        <time>2021-09-12T07:00:29Z</time>
      </trkpt>
      <trkpt lat="48.33752" lon="-3.68118">
        <ele>85</ele>
        <time>2021-09-12T07:00:30Z</time>
      </trkpt>
      <trkpt lat="48.33757" lon="-3.68119">
        <ele>85.400001525879</ele>
        <time>2021-09-12T07:00:31Z</time>
      </trkpt>
      <trkpt lat="48.33762" lon="-3.6812">
        <ele>85.599998474121</ele>
        <time>2021-09-12T07:00:32Z</time>
      </trkpt>
      <trkpt lat="48.33765" lon="-3.68122">
        <ele>85.800003051758</ele>
        <time>2021-09-12T07:00:33Z</time>
      </trkpt>
      <trkpt lat="48.33769" lon="-3.68124">
        <ele>86</ele>
        <time>2021-09-12T07:00:34Z</time>
      </trkpt>
      <trkpt lat="48.33773" lon="-3.68125">
        <ele>86</ele>
        <time>2021-09-12T07:00:35Z</time>
      </trkpt>
      <trkpt lat="48.33776" lon="-3.68125">
        <ele>86</ele>
        <time>2021-09-12T07:00:36Z</time>
      </trkpt>
      <trkpt lat="48.3378" lon="-3.68122">
        <ele>86</ele>
        <time>2021-09-12T07:00:37Z</time>
      </trkpt>
      <trkpt lat="48.33783" lon="-3.68118">
        <ele>86</ele>
        <time>2021-09-12T07:00:38Z</time>
      </trkpt>
      <trkpt lat="48.33786" lon="-3.68114">
        <ele>85.800003051758</ele>
        <time>2021-09-12T07:00:39Z</time>
      </trkpt>
      <trkpt lat="48.33789" lon="-3.68108">
        <ele>85.800003051758</ele>
        <time>2021-09-12T07:00:40Z</time>
      </trkpt>
      <trkpt lat="48.33793" lon="-3.68104">
        <ele>85.800003051758</ele>
        <time>2021-09-12T07:00:41Z</time>
      </trkpt>
      <trkpt lat="48.33797" lon="-3.68101">
        <ele>85.599998474121</ele>
        <time>2021-09-12T07:00:42Z</time>
      </trkpt>
      <trkpt lat="48.33802" lon="-3.68099">
        <ele>85.599998474121</ele>
        <time>2021-09-12T07:00:43Z</time>
      </trkpt>
      <trkpt lat="48.33807" lon="-3.68097">
        <ele>85.400001525879</ele>
        <time>2021-09-12T07:00:44Z</time>
      </trkpt>
      <trkpt lat="48.33811" lon="-3.68096">
        <ele>85.400001525879</ele>
        <time>2021-09-12T07:00:45Z</time>
      </trkpt>
      <trkpt lat="48.33816" lon="-3.68094">
        <ele>85.400001525879</ele>
        <time>2021-09-12T07:00:46Z</time>
      </trkpt>
      <trkpt lat="48.33822" lon="-3.68093">
        <ele>85.400001525879</ele>
        <time>2021-09-12T07:00:47Z</time>
      </trkpt>
      <trkpt lat="48.33828" lon="-3.68091">
        <ele>85.400001525879</ele>
        <time>2021-09-12T07:00:48Z</time>
      </trkpt>
      <trkpt lat="48.33836" lon="-3.68089">
        <ele>85.599998474121</ele>
        <time>2021-09-12T07:00:49Z</time>
      </trkpt>
      <trkpt lat="48.33842" lon="-3.68087">
        <ele>85.400001525879</ele>
        <time>2021-09-12T07:00:50Z</time>
      </trkpt>
      <trkpt lat="48.33846" lon="-3.68085">
        <ele>85.400001525879</ele>
        <time>2021-09-12T07:00:51Z</time>
      </trkpt>
      <trkpt lat="48.3385" lon="-3.68082">
        <ele>85.599998474121</ele>
        <time>2021-09-12T07:00:52Z</time>
      </trkpt>
      <trkpt lat="48.33855" lon="-3.6808">
        <ele>85.800003051758</ele>
        <time>2021-09-12T07:00:53Z</time>
      </trkpt>
      <trkpt lat="48.33859" lon="-3.68082">
        <ele>85.800003051758</ele>
        <time>2021-09-12T07:00:54Z</time>
      </trkpt>
      <trkpt lat="48.33862" lon="-3.68083">
        <ele>85.599998474121</ele>
        <time>2021-09-12T07:00:55Z</time>
      </trkpt>
      <trkpt lat="48.33865" lon="-3.68082">
        <ele>85.599998474121</ele>
        <time>2021-09-12T07:00:56Z</time>
      </trkpt>
      <trkpt lat="48.33871" lon="-3.68081">
        <ele>85.599998474121</ele>
        <time>2021-09-12T07:00:57Z</time>
      </trkpt>
      <trkpt lat="48.33877" lon="-3.6808">
        <ele>85.800003051758</ele>
        <time>2021-09-12T07:00:58Z</time>
      </trkpt>
      <trkpt lat="48.33882" lon="-3.6808">
        <ele>85.800003051758</ele>
        <time>2021-09-12T07:00:59Z</time>
      </trkpt>
      <trkpt lat="48.33886" lon="-3.6808">
        <ele>85.800003051758</ele>
        <time>2021-09-12T07:01:00Z</time>
      </trkpt>
      <trkpt lat="48.3389" lon="-3.68079">
        <ele>85.800003051758</ele>
        <time>2021-09-12T07:01:01Z</time>
      </trkpt>
      <trkpt lat="48.33894" lon="-3.68078">
        <ele>86</ele>
        <time>2021-09-12T07:01:02Z</time>
      </trkpt>
      <trkpt lat="48.339" lon="-3.68075">
        <ele>86</ele>
        <time>2021-09-12T07:01:03Z</time>
      </trkpt>
      <trkpt lat="48.33907" lon="-3.68071">
        <ele>86</ele>
        <time>2021-09-12T07:01:04Z</time>
      </trkpt>
      <trkpt lat="48.33913" lon="-3.68069">
        <ele>86</ele>
        <time>2021-09-12T07:01:05Z</time>
      </trkpt>
      <trkpt lat="48.33917" lon="-3.68068">
        <ele>85.800003051758</ele>
        <time>2021-09-12T07:01:06Z</time>
      </trkpt>
      <trkpt lat="48.3392" lon="-3.68067">
        <ele>85.800003051758</ele>
        <time>2021-09-12T07:01:07Z</time>
      </trkpt>
      <trkpt lat="48.33925" lon="-3.68066">
        <ele>85.800003051758</ele>
        <time>2021-09-12T07:01:08Z</time>
      </trkpt>
      <trkpt lat="48.33929" lon="-3.68064">
        <ele>85.800003051758</ele>
        <time>2021-09-12T07:01:09Z</time>
      </trkpt>
      <trkpt lat="48.33935" lon="-3.68063">
        <ele>85.800003051758</ele>
        <time>2021-09-12T07:01:10Z</time>
      </trkpt>
      <trkpt lat="48.33941" lon="-3.68062">
        <ele>86</ele>
        <time>2021-09-12T07:01:11Z</time>
      </trkpt>
      <trkpt lat="48.33944" lon="-3.68062">
        <ele>86.199996948242</ele>
        <time>2021-09-12T07:01:12Z</time>
      </trkpt>
      <trkpt lat="48.33948" lon="-3.68061">
        <ele>86.599998474121</ele>
        <time>2021-09-12T07:01:13Z</time>
      </trkpt>
      <trkpt lat="48.33951" lon="-3.68062">
        <ele>87</ele>
        <time>2021-09-12T07:01:14Z</time>
      </trkpt>
      <trkpt lat="48.33954" lon="-3.68063">
        <ele>87.400001525879</ele>
        <time>2021-09-12T07:01:15Z</time>
      </trkpt>
      <trkpt lat="48.33955" lon="-3.68065">
        <ele>87.599998474121</ele>
        <time>2021-09-12T07:01:16Z</time>
      </trkpt>
      <trkpt lat="48.33957" lon="-3.68066">
        <ele>87.800003051758</ele>
        <time>2021-09-12T07:01:17Z</time>
      </trkpt>
      <trkpt lat="48.33959" lon="-3.68067">
        <ele>88.400001525879</ele>
        <time>2021-09-12T07:01:18Z</time>
      </trkpt>
      <trkpt lat="48.3396" lon="-3.68068">
        <ele>88.599998474121</ele>
        <time>2021-09-12T07:01:19Z</time>
      </trkpt>
      <trkpt lat="48.33962" lon="-3.6807">
        <ele>89</ele>
        <time>2021-09-12T07:01:20Z</time>
      </trkpt>
      <trkpt lat="48.33965" lon="-3.6807">
        <ele>89</ele>
        <time>2021-09-12T07:01:21Z</time>
      </trkpt>
      <trkpt lat="48.33967" lon="-3.68071">
        <ele>89.599998474121</ele>
        <time>2021-09-12T07:01:22Z</time>
      </trkpt>
      <trkpt lat="48.3397" lon="-3.68072">
        <ele>90</ele>
        <time>2021-09-12T07:01:23Z</time>
      </trkpt>
      <trkpt lat="48.33973" lon="-3.68072">
        <ele>90.400001525879</ele>
        <time>2021-09-12T07:01:24Z</time>
      </trkpt>
      <trkpt lat="48.33975" lon="-3.68073">
        <ele>90.599998474121</ele>
        <time>2021-09-12T07:01:25Z</time>
      </trkpt>
      <trkpt lat="48.33976" lon="-3.68074">
        <ele>91</ele>
        <time>2021-09-12T07:01:26Z</time>
      </trkpt>
      <trkpt lat="48.33978" lon="-3.68075">
        <ele>91</ele>
        <time>2021-09-12T07:01:27Z</time>
      </trkpt>
      <trkpt lat="48.3398" lon="-3.68075">
        <ele>91.599998474121</ele>
        <time>2021-09-12T07:01:28Z</time>
      </trkpt>
      <trkpt lat="48.33982" lon="-3.68076">
        <ele>91.800003051758</ele>
        <time>2021-09-12T07:01:29Z</time>
      </trkpt>
      <trkpt lat="48.33984" lon="-3.68077">
        <ele>92.199996948242</ele>
        <time>2021-09-12T07:01:30Z</time>
      </trkpt>
      <trkpt lat="48.33986" lon="-3.68077">
        <ele>92.400001525879</ele>
        <time>2021-09-12T07:01:31Z</time>
      </trkpt>
      <trkpt lat="48.33989" lon="-3.68078">
        <ele>92.599998474121</ele>
        <time>2021-09-12T07:01:32Z</time>
      </trkpt>
      <trkpt lat="48.3399" lon="-3.68077">
        <ele>92.599998474121</ele>
        <time>2021-09-12T07:01:33Z</time>
      </trkpt>
      <trkpt lat="48.33993" lon="-3.68077">
        <ele>92.800003051758</ele>
        <time>2021-09-12T07:01:34Z</time>
      </trkpt>
      <trkpt lat="48.33994" lon="-3.68075">
        <ele>92.800003051758</ele>
        <time>2021-09-12T07:01:35Z</time>
      </trkpt>
      <trkpt lat="48.33995" lon="-3.68074">
        <ele>92.800003051758</ele>
        <time>2021-09-12T07:01:36Z</time>
      </trkpt>
      <trkpt lat="48.33998" lon="-3.68072">
        <ele>92.800003051758</ele>
        <time>2021-09-12T07:01:37Z</time>
      </trkpt>
      <trkpt lat="48.34002" lon="-3.68071">
        <ele>92</ele>
        <time>2021-09-12T07:01:38Z</time>
      </trkpt>
      <trkpt lat="48.34006" lon="-3.68069">
        <ele>91.199996948242</ele>
        <time>2021-09-12T07:01:39Z</time>
      </trkpt>
      <trkpt lat="48.34008" lon="-3.68068">
        <ele>91</ele>
        <time>2021-09-12T07:01:40Z</time>
      </trkpt>
      <trkpt lat="48.34012" lon="-3.68068">
        <ele>90.599998474121</ele>
        <time>2021-09-12T07:01:41Z</time>
      </trkpt>
      <trkpt lat="48.34016" lon="-3.68068">
        <ele>90</ele>
        <time>2021-09-12T07:01:42Z</time>
      </trkpt>
      <trkpt lat="48.34019" lon="-3.68067">
        <ele>89.800003051758</ele>
        <time>2021-09-12T07:01:43Z</time>
      </trkpt>
      <trkpt lat="48.34023" lon="-3.68067">
        <ele>89.800003051758</ele>
        <time>2021-09-12T07:01:44Z</time>
      </trkpt>
      <trkpt lat="48.34027" lon="-3.68068">
        <ele>89.400001525879</ele>
        <time>2021-09-12T07:01:45Z</time>
      </trkpt>
      <trkpt lat="48.34029" lon="-3.68068">
        <ele>88.800003051758</ele>
        <time>2021-09-12T07:01:46Z</time>
      </trkpt>
      <trkpt lat="48.3403" lon="-3.68068">
        <ele>88.599998474121</ele>
        <time>2021-09-12T07:01:47Z</time>
      </trkpt>
      <trkpt lat="48.34031" lon="-3.68068">
        <ele>88.400001525879</ele>
        <time>2021-09-12T07:01:48Z</time>
      </trkpt>
      <trkpt lat="48.34033" lon="-3.68069">
        <ele>88</ele>
        <time>2021-09-12T07:01:49Z</time>
      </trkpt>
      <trkpt lat="48.34036" lon="-3.68071">
        <ele>88</ele>
        <time>2021-09-12T07:01:50Z</time>
      </trkpt>
      <trkpt lat="48.34037" lon="-3.68072">
        <ele>87.800003051758</ele>
        <time>2021-09-12T07:01:51Z</time>
      </trkpt>
      <trkpt lat="48.3404" lon="-3.68074">
        <ele>87.800003051758</ele>
        <time>2021-09-12T07:01:52Z</time>
      </trkpt>
      <trkpt lat="48.34043" lon="-3.68075">
        <ele>87.800003051758</ele>
        <time>2021-09-12T07:01:53Z</time>
      </trkpt>
      <trkpt lat="48.34046" lon="-3.68074">
        <ele>87.599998474121</ele>
        <time>2021-09-12T07:01:54Z</time>
      </trkpt>
      <trkpt lat="48.34047" lon="-3.68075">
        <ele>87.199996948242</ele>
        <time>2021-09-12T07:01:55Z</time>
      </trkpt>
      <trkpt lat="48.34049" lon="-3.68076">
        <ele>86.800003051758</ele>
        <time>2021-09-12T07:01:56Z</time>
      </trkpt>
      <trkpt lat="48.34053" lon="-3.68078">
        <ele>86.199996948242</ele>
        <time>2021-09-12T07:01:57Z</time>
      </trkpt>
      <trkpt lat="48.34055" lon="-3.68081">
        <ele>85.400001525879</ele>
        <time>2021-09-12T07:01:58Z</time>
      </trkpt>
      <trkpt lat="48.34056" lon="-3.68084">
        <ele>85.199996948242</ele>
        <time>2021-09-12T07:01:59Z</time>
      </trkpt>
      <trkpt lat="48.34057" lon="-3.68087">
        <ele>84.400001525879</ele>
        <time>2021-09-12T07:02:00Z</time>
      </trkpt>
      <trkpt lat="48.34059" lon="-3.68091">
        <ele>83.800003051758</ele>
        <time>2021-09-12T07:02:01Z</time>
      </trkpt>
      <trkpt lat="48.34061" lon="-3.68092">
        <ele>83</ele>
        <time>2021-09-12T07:02:02Z</time>
      </trkpt>
      <trkpt lat="48.34064" lon="-3.68092">
        <ele>82.800003051758</ele>
        <time>2021-09-12T07:02:03Z</time>
      </trkpt>
      <trkpt lat="48.34071" lon="-3.68094">
        <ele>82</ele>
        <time>2021-09-12T07:02:04Z</time>
      </trkpt>
      <trkpt lat="48.34077" lon="-3.68094">
        <ele>81.599998474121</ele>
        <time>2021-09-12T07:02:05Z</time>
      </trkpt>
      <trkpt lat="48.3408" lon="-3.68093">
        <ele>80.800003051758</ele>
        <time>2021-09-12T07:02:06Z</time>
      </trkpt>
      <trkpt lat="48.34084" lon="-3.68091">
        <ele>79.800003051758</ele>
        <time>2021-09-12T07:02:07Z</time>
      </trkpt>
      <trkpt lat="48.34088" lon="-3.68086">
        <ele>79.599998474121</ele>
        <time>2021-09-12T07:02:08Z</time>
      </trkpt>
      <trkpt lat="48.34093" lon="-3.68082">
        <ele>79.400001525879</ele>
        <time>2021-09-12T07:02:09Z</time>
      </trkpt>
      <trkpt lat="48.34096" lon="-3.68078">
        <ele>79</ele>
        <time>2021-09-12T07:02:10Z</time>
      </trkpt>
      <trkpt lat="48.34099" lon="-3.68073">
        <ele>78.800003051758</ele>
        <time>2021-09-12T07:02:11Z</time>
      </trkpt>
      <trkpt lat="48.34102" lon="-3.68069">
        <ele>78.800003051758</ele>
        <time>2021-09-12T07:02:12Z</time>
      </trkpt>
      <trkpt lat="48.34106" lon="-3.68065">
        <ele>78.599998474121</ele>
        <time>2021-09-12T07:02:13Z</time>
      </trkpt>
      <trkpt lat="48.34108" lon="-3.68063">
        <ele>78.599998474121</ele>
        <time>2021-09-12T07:02:14Z</time>
      </trkpt>
      <trkpt lat="48.34111" lon="-3.68059">
        <ele>78.599998474121</ele>
        <time>2021-09-12T07:02:15Z</time>
      </trkpt>
      <trkpt lat="48.34112" lon="-3.68056">
        <ele>78.400001525879</ele>
        <time>2021-09-12T07:02:16Z</time>
      </trkpt>
      <trkpt lat="48.34113" lon="-3.68052">
        <ele>78.400001525879</ele>
        <time>2021-09-12T07:02:17Z</time>
      </trkpt>
      <trkpt lat="48.34115" lon="-3.68048">
        <ele>78.400001525879</ele>
        <time>2021-09-12T07:02:18Z</time>
      </trkpt>
      <trkpt lat="48.34117" lon="-3.68044">
        <ele>78.199996948242</ele>
        <time>2021-09-12T07:02:19Z</time>
      </trkpt>
      <trkpt lat="48.34121" lon="-3.68042">
        <ele>78.199996948242</ele>
        <time>2021-09-12T07:02:20Z</time>
      </trkpt>
      <trkpt lat="48.34124" lon="-3.68041">
        <ele>78.199996948242</ele>
        <time>2021-09-12T07:02:21Z</time>
      </trkpt>
      <trkpt lat="48.34127" lon="-3.68041">
        <ele>78.199996948242</ele>
        <time>2021-09-12T07:02:22Z</time>
      </trkpt>
      <trkpt lat="48.3413" lon="-3.68041">
        <ele>78.199996948242</ele>
        <time>2021-09-12T07:02:23Z</time>
      </trkpt>
      <trkpt lat="48.34133" lon="-3.68042">
        <ele>78.400001525879</ele>
        <time>2021-09-12T07:02:24Z</time>
      </trkpt>
      <trkpt lat="48.34135" lon="-3.68043">
        <ele>78.800003051758</ele>
        <time>2021-09-12T07:02:25Z</time>
      </trkpt>
      <trkpt lat="48.34138" lon="-3.68044">
        <ele>78.800003051758</ele>
        <time>2021-09-12T07:02:26Z</time>
      </trkpt>
      <trkpt lat="48.3414" lon="-3.68045">
        <ele>79</ele>
        <time>2021-09-12T07:02:27Z</time>
      </trkpt>
      <trkpt lat="48.34143" lon="-3.68046">
        <ele>79</ele>
        <time>2021-09-12T07:02:28Z</time>
      </trkpt>
      <trkpt lat="48.34145" lon="-3.68048">
        <ele>79.400001525879</ele>
        <time>2021-09-12T07:02:29Z</time>
      </trkpt>
      <trkpt lat="48.34148" lon="-3.68048">
        <ele>79.599998474121</ele>
        <time>2021-09-12T07:02:30Z</time>
      </trkpt>
      <trkpt lat="48.3415" lon="-3.6805">
        <ele>79.800003051758</ele>
        <time>2021-09-12T07:02:31Z</time>
      </trkpt>
      <trkpt lat="48.34152" lon="-3.68051">
        <ele>80.199996948242</ele>
        <time>2021-09-12T07:02:32Z</time>
      </trkpt>
      <trkpt lat="48.34154" lon="-3.68052">
        <ele>80.199996948242</ele>
        <time>2021-09-12T07:02:33Z</time>
      </trkpt>
      <trkpt lat="48.34156" lon="-3.68053">
        <ele>80.400001525879</ele>
        <time>2021-09-12T07:02:34Z</time>
      </trkpt>
      <trkpt lat="48.34158" lon="-3.68054">
        <ele>80.400001525879</ele>
        <time>2021-09-12T07:02:35Z</time>
      </trkpt>
      <trkpt lat="48.3416" lon="-3.68056">
        <ele>80.599998474121</ele>
        <time>2021-09-12T07:02:36Z</time>
      </trkpt>
      <trkpt lat="48.34162" lon="-3.68057">
        <ele>80.800003051758</ele>
        <time>2021-09-12T07:02:37Z</time>
      </trkpt>
      <trkpt lat="48.34164" lon="-3.68057">
        <ele>81.400001525879</ele>
        <time>2021-09-12T07:02:38Z</time>
      </trkpt>
      <trkpt lat="48.34166" lon="-3.68058">
        <ele>81.599998474121</ele>
        <time>2021-09-12T07:02:39Z</time>
      </trkpt>
      <trkpt lat="48.34168" lon="-3.68059">
        <ele>81.800003051758</ele>
        <time>2021-09-12T07:02:40Z</time>
      </trkpt>
      <trkpt lat="48.34169" lon="-3.6806">
        <ele>81.800003051758</ele>
        <time>2021-09-12T07:02:41Z</time>
      </trkpt>
      <trkpt lat="48.34171" lon="-3.68061">
        <ele>82.199996948242</ele>
        <time>2021-09-12T07:02:42Z</time>
      </trkpt>
      <trkpt lat="48.34173" lon="-3.68061">
        <ele>82.400001525879</ele>
        <time>2021-09-12T07:02:43Z</time>
      </trkpt>
      <trkpt lat="48.34175" lon="-3.68062">
        <ele>82.400001525879</ele>
        <time>2021-09-12T07:02:44Z</time>
      </trkpt>
      <trkpt lat="48.34177" lon="-3.68063">
        <ele>82.800003051758</ele>
        <time>2021-09-12T07:02:45Z</time>
      </trkpt>
      <trkpt lat="48.34179" lon="-3.68065">
        <ele>83</ele>
        <time>2021-09-12T07:02:46Z</time>
      </trkpt>
      <trkpt lat="48.34181" lon="-3.68066">
        <ele>83.599998474121</ele>
        <time>2021-09-12T07:02:47Z</time>
      </trkpt>
      <trkpt lat="48.34183" lon="-3.68067">
        <ele>83.599998474121</ele>
        <time>2021-09-12T07:02:48Z</time>
      </trkpt>
      <trkpt lat="48.34185" lon="-3.68069">
        <ele>83.800003051758</ele>
        <time>2021-09-12T07:02:49Z</time>
      </trkpt>
      <trkpt lat="48.34187" lon="-3.6807">
        <ele>84.199996948242</ele>
        <time>2021-09-12T07:02:50Z</time>
      </trkpt>
      <trkpt lat="48.34189" lon="-3.68072">
        <ele>84.199996948242</ele>
        <time>2021-09-12T07:02:51Z</time>
      </trkpt>
      <trkpt lat="48.34191" lon="-3.68074">
        <ele>84.599998474121</ele>
        <time>2021-09-12T07:02:52Z</time>
      </trkpt>
      <trkpt lat="48.34193" lon="-3.68076">
        <ele>84.800003051758</ele>
        <time>2021-09-12T07:02:53Z</time>
      </trkpt>
      <trkpt lat="48.34195" lon="-3.68078">
        <ele>85.199996948242</ele>
        <time>2021-09-12T07:02:54Z</time>
      </trkpt>
      <trkpt lat="48.34198" lon="-3.6808">
        <ele>85.199996948242</ele>
        <time>2021-09-12T07:02:55Z</time>
      </trkpt>
      <trkpt lat="48.342" lon="-3.68081">
        <ele>85.599998474121</ele>
        <time>2021-09-12T07:02:56Z</time>
      </trkpt>
      <trkpt lat="48.34201" lon="-3.68082">
        <ele>85.599998474121</ele>
        <time>2021-09-12T07:02:57Z</time>
      </trkpt>
      <trkpt lat="48.34204" lon="-3.68083">
        <ele>86</ele>
        <time>2021-09-12T07:02:58Z</time>
      </trkpt>
      <trkpt lat="48.34206" lon="-3.68085">
        <ele>86.199996948242</ele>
        <time>2021-09-12T07:02:59Z</time>
      </trkpt>
      <trkpt lat="48.34209" lon="-3.68087">
        <ele>86.199996948242</ele>
        <time>2021-09-12T07:03:00Z</time>
      </trkpt>
      <trkpt lat="48.34212" lon="-3.68089">
        <ele>86.199996948242</ele>
        <time>2021-09-12T07:03:01Z</time>
      </trkpt>
      <trkpt lat="48.34214" lon="-3.68092">
        <ele>86.199996948242</ele>
        <time>2021-09-12T07:03:02Z</time>
      </trkpt>
      <trkpt lat="48.34217" lon="-3.68095">
        <ele>86.199996948242</ele>
        <time>2021-09-12T07:03:03Z</time>
      </trkpt>
      <trkpt lat="48.3422" lon="-3.68098">
        <ele>86.199996948242</ele>
        <time>2021-09-12T07:03:04Z</time>
      </trkpt>
      <trkpt lat="48.34222" lon="-3.68101">
        <ele>86.199996948242</ele>
        <time>2021-09-12T07:03:05Z</time>
      </trkpt>
      <trkpt lat="48.34225" lon="-3.68103">
        <ele>86.400001525879</ele>
        <time>2021-09-12T07:03:06Z</time>
      </trkpt>
      <trkpt lat="48.34228" lon="-3.68106">
        <ele>86.400001525879</ele>
        <time>2021-09-12T07:03:07Z</time>
      </trkpt>
      <trkpt lat="48.3423" lon="-3.68108">
        <ele>86.199996948242</ele>
        <time>2021-09-12T07:03:08Z</time>
      </trkpt>
      <trkpt lat="48.34233" lon="-3.6811">
        <ele>86.400001525879</ele>
        <time>2021-09-12T07:03:09Z</time>
      </trkpt>
      <trkpt lat="48.34236" lon="-3.68111">
        <ele>86.400001525879</ele>
        <time>2021-09-12T07:03:10Z</time>
      </trkpt>
      <trkpt lat="48.3424" lon="-3.68112">
        <ele>86.199996948242</ele>
        <time>2021-09-12T07:03:11Z</time>
      </trkpt>
      <trkpt lat="48.34245" lon="-3.68114">
        <ele>86.199996948242</ele>
        <time>2021-09-12T07:03:12Z</time>
      </trkpt>
      <trkpt lat="48.3425" lon="-3.68117">
        <ele>86.199996948242</ele>
        <time>2021-09-12T07:03:13Z</time>
      </trkpt>
      <trkpt lat="48.34256" lon="-3.68118">
        <ele>86.199996948242</ele>
        <time>2021-09-12T07:03:14Z</time>
      </trkpt>
      <trkpt lat="48.3426" lon="-3.68121">
        <ele>86.199996948242</ele>
        <time>2021-09-12T07:03:15Z</time>
      </trkpt>
      <trkpt lat="48.34266" lon="-3.68122">
        <ele>86</ele>
        <time>2021-09-12T07:03:16Z</time>
      </trkpt>
      <trkpt lat="48.34273" lon="-3.68125">
        <ele>86</ele>
        <time>2021-09-12T07:03:17Z</time>
      </trkpt>
      <trkpt lat="48.34279" lon="-3.68127">
        <ele>86</ele>
        <time>2021-09-12T07:03:18Z</time>
      </trkpt>
      <trkpt lat="48.34285" lon="-3.6813">
        <ele>86</ele>
        <time>2021-09-12T07:03:19Z</time>
      </trkpt>
      <trkpt lat="48.34291" lon="-3.68132">
        <ele>86</ele>
        <time>2021-09-12T07:03:20Z</time>
      </trkpt>
      <trkpt lat="48.34297" lon="-3.68136">
        <ele>85.800003051758</ele>
        <time>2021-09-12T07:03:21Z</time>
      </trkpt>
      <trkpt lat="48.34304" lon="-3.68139">
        <ele>85.800003051758</ele>
        <time>2021-09-12T07:03:22Z</time>
      </trkpt>
      <trkpt lat="48.34309" lon="-3.6814">
        <ele>85.800003051758</ele>
        <time>2021-09-12T07:03:23Z</time>
      </trkpt>
      <trkpt lat="48.34315" lon="-3.68141">
        <ele>85.800003051758</ele>
        <time>2021-09-12T07:03:24Z</time>
      </trkpt>
      <trkpt lat="48.3432" lon="-3.68144">
        <ele>85.599998474121</ele>
        <time>2021-09-12T07:03:25Z</time>
      </trkpt>
      <trkpt lat="48.34326" lon="-3.68147">
        <ele>85.599998474121</ele>
        <time>2021-09-12T07:03:26Z</time>
      </trkpt>
      <trkpt lat="48.34332" lon="-3.6815">
        <ele>85.599998474121</ele>
        <time>2021-09-12T07:03:27Z</time>
      </trkpt>
      <trkpt lat="48.34339" lon="-3.68152">
        <ele>85.599998474121</ele>
        <time>2021-09-12T07:03:28Z</time>
      </trkpt>
      <trkpt lat="48.34344" lon="-3.68154">
        <ele>85.599998474121</ele>
        <time>2021-09-12T07:03:29Z</time>
      </trkpt>
      <trkpt lat="48.34348" lon="-3.68155">
        <ele>85.599998474121</ele>
        <time>2021-09-12T07:03:30Z</time>
      </trkpt>
      <trkpt lat="48.34353" lon="-3.68154">
        <ele>85.400001525879</ele>
        <time>2021-09-12T07:03:31Z</time>
      </trkpt>
      <trkpt lat="48.34363" lon="-3.68157">
        <ele>85.599998474121</ele>
        <time>2021-09-12T07:03:32Z</time>
      </trkpt>
      <trkpt lat="48.3437" lon="-3.68158">
        <ele>85.400001525879</ele>
        <time>2021-09-12T07:03:33Z</time>
      </trkpt>
      <trkpt lat="48.34378" lon="-3.68161">
        <ele>85.400001525879</ele>
        <time>2021-09-12T07:03:34Z</time>
      </trkpt>
      <trkpt lat="48.34385" lon="-3.68163">
        <ele>85.400001525879</ele>
        <time>2021-09-12T07:03:35Z</time>
      </trkpt>
      <trkpt lat="48.34391" lon="-3.68165">
        <ele>85.400001525879</ele>
        <time>2021-09-12T07:03:36Z</time>
      </trkpt>
      <trkpt lat="48.34396" lon="-3.68167">
        <ele>85.199996948242</ele>
        <time>2021-09-12T07:03:37Z</time>
      </trkpt>
      <trkpt lat="48.34404" lon="-3.68174">
        <ele>85.199996948242</ele>
        <time>2021-09-12T07:03:38Z</time>
      </trkpt>
      <trkpt lat="48.34411" lon="-3.6818">
        <ele>85.199996948242</ele>
        <time>2021-09-12T07:03:39Z</time>
      </trkpt>
      <trkpt lat="48.34417" lon="-3.68184">
        <ele>85</ele>
        <time>2021-09-12T07:03:40Z</time>
      </trkpt>
      <trkpt lat="48.34423" lon="-3.68187">
        <ele>85</ele>
        <time>2021-09-12T07:03:41Z</time>
      </trkpt>
      <trkpt lat="48.3443" lon="-3.68192">
        <ele>84.800003051758</ele>
        <time>2021-09-12T07:03:42Z</time>
      </trkpt>
      <trkpt lat="48.34439" lon="-3.68198">
        <ele>84.599998474121</ele>
        <time>2021-09-12T07:03:43Z</time>
      </trkpt>
      <trkpt lat="48.34444" lon="-3.682">
        <ele>84.599998474121</ele>
        <time>2021-09-12T07:03:44Z</time>
      </trkpt>
      <trkpt lat="48.34451" lon="-3.68203">
        <ele>84.599998474121</ele>
        <time>2021-09-12T07:03:45Z</time>
      </trkpt>
      <trkpt lat="48.34458" lon="-3.68206">
        <ele>84.599998474121</ele>
        <time>2021-09-12T07:03:46Z</time>
      </trkpt>
      <trkpt lat="48.34463" lon="-3.68209">
        <ele>84.599998474121</ele>
        <time>2021-09-12T07:03:47Z</time>
      </trkpt>
      <trkpt lat="48.3447" lon="-3.68213">
        <ele>84.599998474121</ele>
        <time>2021-09-12T07:03:48Z</time>
      </trkpt>
      <trkpt lat="48.34475" lon="-3.68216">
        <ele>84.599998474121</ele>
        <time>2021-09-12T07:03:49Z</time>
      </trkpt>
      <trkpt lat="48.34479" lon="-3.6822">
        <ele>84.599998474121</ele>
        <time>2021-09-12T07:03:50Z</time>
      </trkpt>
      <trkpt lat="48.34483" lon="-3.68226">
        <ele>84.599998474121</ele>
        <time>2021-09-12T07:03:51Z</time>
      </trkpt>
      <trkpt lat="48.34487" lon="-3.68231">
        <ele>84.599998474121</ele>
        <time>2021-09-12T07:03:52Z</time>
      </trkpt>
      <trkpt lat="48.34493" lon="-3.68238">
        <ele>84.400001525879</ele>
        <time>2021-09-12T07:03:53Z</time>
      </trkpt>
      <trkpt lat="48.34498" lon="-3.68244">
        <ele>84.400001525879</ele>
        <time>2021-09-12T07:03:54Z</time>
      </trkpt>
      <trkpt lat="48.34503" lon="-3.6825">
        <ele>84.400001525879</ele>
        <time>2021-09-12T07:03:55Z</time>
      </trkpt>
      <trkpt lat="48.34508" lon="-3.68256">
        <ele>84.400001525879</ele>
        <time>2021-09-12T07:03:56Z</time>
      </trkpt>
      <trkpt lat="48.34513" lon="-3.68262">
        <ele>84.400001525879</ele>
        <time>2021-09-12T07:03:57Z</time>
      </trkpt>
      <trkpt lat="48.34518" lon="-3.6827">
        <ele>84.400001525879</ele>
        <time>2021-09-12T07:03:58Z</time>
      </trkpt>
      <trkpt lat="48.34523" lon="-3.68277">
        <ele>84.400001525879</ele>
        <time>2021-09-12T07:03:59Z</time>
      </trkpt>
      <trkpt lat="48.34527" lon="-3.68284">
        <ele>84.400001525879</ele>
        <time>2021-09-12T07:04:00Z</time>
      </trkpt>
      <trkpt lat="48.34532" lon="-3.68291">
        <ele>84.599998474121</ele>
        <time>2021-09-12T07:04:01Z</time>
      </trkpt>
      <trkpt lat="48.34537" lon="-3.68298">
        <ele>84.599998474121</ele>
        <time>2021-09-12T07:04:02Z</time>
      </trkpt>
      <trkpt lat="48.34541" lon="-3.68304">
        <ele>84.800003051758</ele>
        <time>2021-09-12T07:04:03Z</time>
      </trkpt>
      <trkpt lat="48.34547" lon="-3.6831">
        <ele>84.800003051758</ele>
        <time>2021-09-12T07:04:04Z</time>
      </trkpt>
      <trkpt lat="48.34553" lon="-3.68316">
        <ele>84.599998474121</ele>
        <time>2021-09-12T07:04:05Z</time>
      </trkpt>
      <trkpt lat="48.34558" lon="-3.6832">
        <ele>84.599998474121</ele>
        <time>2021-09-12T07:04:06Z</time>
      </trkpt>
      <trkpt lat="48.34564" lon="-3.68325">
        <ele>84.599998474121</ele>
        <time>2021-09-12T07:04:07Z</time>
      </trkpt>
      <trkpt lat="48.3457" lon="-3.68331">
        <ele>84.400001525879</ele>
        <time>2021-09-12T07:04:08Z</time>
      </trkpt>
      <trkpt lat="48.34577" lon="-3.68336">
        <ele>84.400001525879</ele>
        <time>2021-09-12T07:04:09Z</time>
      </trkpt>
      <trkpt lat="48.34584" lon="-3.6834">
        <ele>84.400001525879</ele>
        <time>2021-09-12T07:04:10Z</time>
      </trkpt>
      <trkpt lat="48.34591" lon="-3.68344">
        <ele>84.199996948242</ele>
        <time>2021-09-12T07:04:11Z</time>
      </trkpt>
      <trkpt lat="48.34597" lon="-3.68347">
        <ele>84</ele>
        <time>2021-09-12T07:04:12Z</time>
      </trkpt>
      <trkpt lat="48.34604" lon="-3.68351">
        <ele>84</ele>
        <time>2021-09-12T07:04:13Z</time>
      </trkpt>
      <trkpt lat="48.34613" lon="-3.68355">
        <ele>84</ele>
        <time>2021-09-12T07:04:14Z</time>
      </trkpt>
      <trkpt lat="48.3462" lon="-3.68361">
        <ele>84</ele>
        <time>2021-09-12T07:04:15Z</time>
      </trkpt>
      <trkpt lat="48.34625" lon="-3.68366">
        <ele>84.199996948242</ele>
        <time>2021-09-12T07:04:16Z</time>
      </trkpt>
      <trkpt lat="48.3463" lon="-3.6837">
        <ele>84.199996948242</ele>
        <time>2021-09-12T07:04:17Z</time>
      </trkpt>
      <trkpt lat="48.34636" lon="-3.68374">
        <ele>84</ele>
        <time>2021-09-12T07:04:18Z</time>
      </trkpt>
      <trkpt lat="48.34642" lon="-3.68377">
        <ele>84</ele>
        <time>2021-09-12T07:04:19Z</time>
      </trkpt>
      <trkpt lat="48.34648" lon="-3.68381">
        <ele>84</ele>
        <time>2021-09-12T07:04:20Z</time>
      </trkpt>
      <trkpt lat="48.34653" lon="-3.68383">
        <ele>83.800003051758</ele>
        <time>2021-09-12T07:04:21Z</time>
      </trkpt>
      <trkpt lat="48.34663" lon="-3.68386">
        <ele>83.800003051758</ele>
        <time>2021-09-12T07:04:22Z</time>
      </trkpt>
      <trkpt lat="48.3467" lon="-3.68391">
        <ele>83.800003051758</ele>
        <time>2021-09-12T07:04:23Z</time>
      </trkpt>
      <trkpt lat="48.34677" lon="-3.68393">
        <ele>83.800003051758</ele>
        <time>2021-09-12T07:04:24Z</time>
      </trkpt>
      <trkpt lat="48.34688" lon="-3.68397">
        <ele>83.800003051758</ele>
        <time>2021-09-12T07:04:25Z</time>
      </trkpt>
      <trkpt lat="48.34694" lon="-3.684">
        <ele>83.800003051758</ele>
        <time>2021-09-12T07:04:26Z</time>
      </trkpt>
      <trkpt lat="48.34702" lon="-3.68403">
        <ele>83.800003051758</ele>
        <time>2021-09-12T07:04:27Z</time>
      </trkpt>
      <trkpt lat="48.3471" lon="-3.68405">
        <ele>83.800003051758</ele>
        <time>2021-09-12T07:04:28Z</time>
      </trkpt>
      <trkpt lat="48.34716" lon="-3.68407">
        <ele>83.800003051758</ele>
        <time>2021-09-12T07:04:29Z</time>
      </trkpt>
      <trkpt lat="48.34723" lon="-3.68409">
        <ele>83.599998474121</ele>
        <time>2021-09-12T07:04:30Z</time>
      </trkpt>
      <trkpt lat="48.3473" lon="-3.6841">
        <ele>83.599998474121</ele>
        <time>2021-09-12T07:04:31Z</time>
      </trkpt>
      <trkpt lat="48.34739" lon="-3.68411">
        <ele>83.599998474121</ele>
        <time>2021-09-12T07:04:32Z</time>
      </trkpt>
      <trkpt lat="48.34745" lon="-3.68413">
        <ele>83.599998474121</ele>
        <time>2021-09-12T07:04:33Z</time>
      </trkpt>
      <trkpt lat="48.34751" lon="-3.68414">
        <ele>83.599998474121</ele>
        <time>2021-09-12T07:04:34Z</time>
      </trkpt>
      <trkpt lat="48.34756" lon="-3.68417">
        <ele>83.599998474121</ele>
        <time>2021-09-12T07:04:35Z</time>
      </trkpt>
      <trkpt lat="48.34762" lon="-3.68418">
        <ele>83.599998474121</ele>
        <time>2021-09-12T07:04:36Z</time>
      </trkpt>
      <trkpt lat="48.34766" lon="-3.68418">
        <ele>83.800003051758</ele>
        <time>2021-09-12T07:04:37Z</time>
      </trkpt>
      <trkpt lat="48.34772" lon="-3.6842">
        <ele>83.800003051758</ele>
        <time>2021-09-12T07:04:38Z</time>
      </trkpt>
      <trkpt lat="48.34777" lon="-3.68422">
        <ele>83.800003051758</ele>
        <time>2021-09-12T07:04:39Z</time>
      </trkpt>
      <trkpt lat="48.34785" lon="-3.68422">
        <ele>83.800003051758</ele>
        <time>2021-09-12T07:04:40Z</time>
      </trkpt>
      <trkpt lat="48.34791" lon="-3.68422">
        <ele>83.800003051758</ele>
        <time>2021-09-12T07:04:41Z</time>
      </trkpt>
      <trkpt lat="48.34797" lon="-3.68421">
        <ele>83.800003051758</ele>
        <time>2021-09-12T07:04:42Z</time>
      </trkpt>
      <trkpt lat="48.34804" lon="-3.68423">
        <ele>83.800003051758</ele>
        <time>2021-09-12T07:04:43Z</time>
      </trkpt>
      <trkpt lat="48.34811" lon="-3.68424">
        <ele>83.800003051758</ele>
        <time>2021-09-12T07:04:44Z</time>
      </trkpt>
      <trkpt lat="48.34817" lon="-3.68425">
        <ele>83.800003051758</ele>
        <time>2021-09-12T07:04:45Z</time>
      </trkpt>
      <trkpt lat="48.34824" lon="-3.68426">
        <ele>83.800003051758</ele>
        <time>2021-09-12T07:04:46Z</time>
      </trkpt>
      <trkpt lat="48.3483" lon="-3.68426">
        <ele>83.800003051758</ele>
        <time>2021-09-12T07:04:47Z</time>
      </trkpt>
      <trkpt lat="48.34837" lon="-3.68427">
        <ele>83.800003051758</ele>
        <time>2021-09-12T07:04:48Z</time>
      </trkpt>
      <trkpt lat="48.34843" lon="-3.68427">
        <ele>83.800003051758</ele>
        <time>2021-09-12T07:04:49Z</time>
      </trkpt>
      <trkpt lat="48.3485" lon="-3.68427">
        <ele>83.800003051758</ele>
        <time>2021-09-12T07:04:50Z</time>
      </trkpt>
      <trkpt lat="48.34856" lon="-3.68428">
        <ele>83.800003051758</ele>
        <time>2021-09-12T07:04:51Z</time>
      </trkpt>
      <trkpt lat="48.34863" lon="-3.68428">
        <ele>83.800003051758</ele>
        <time>2021-09-12T07:04:52Z</time>
      </trkpt>
      <trkpt lat="48.34869" lon="-3.68427">
        <ele>83.599998474121</ele>
        <time>2021-09-12T07:04:53Z</time>
      </trkpt>
      <trkpt lat="48.34878" lon="-3.68428">
        <ele>83.599998474121</ele>
        <time>2021-09-12T07:04:54Z</time>
      </trkpt>
      <trkpt lat="48.34884" lon="-3.68428">
        <ele>83.599998474121</ele>
        <time>2021-09-12T07:04:55Z</time>
      </trkpt>
      <trkpt lat="48.34891" lon="-3.68429">
        <ele>83.800003051758</ele>
        <time>2021-09-12T07:04:56Z</time>
      </trkpt>
      <trkpt lat="48.34897" lon="-3.68429">
        <ele>83.800003051758</ele>
        <time>2021-09-12T07:04:57Z</time>
      </trkpt>
      <trkpt lat="48.34904" lon="-3.68429">
        <ele>83.800003051758</ele>
        <time>2021-09-12T07:04:58Z</time>
      </trkpt>
      <trkpt lat="48.3491" lon="-3.68429">
        <ele>84.199996948242</ele>
        <time>2021-09-12T07:04:59Z</time>
      </trkpt>
      <trkpt lat="48.34916" lon="-3.68429">
        <ele>84.400001525879</ele>
        <time>2021-09-12T07:05:00Z</time>
      </trkpt>
      <trkpt lat="48.34922" lon="-3.68428">
        <ele>84.400001525879</ele>
        <time>2021-09-12T07:05:01Z</time>
      </trkpt>
      <trkpt lat="48.34928" lon="-3.68428">
        <ele>84.400001525879</ele>
        <time>2021-09-12T07:05:02Z</time>
      </trkpt>
      <trkpt lat="48.34934" lon="-3.68428">
        <ele>84.199996948242</ele>
        <time>2021-09-12T07:05:03Z</time>
      </trkpt>
      <trkpt lat="48.34941" lon="-3.68428">
        <ele>84.199996948242</ele>
        <time>2021-09-12T07:05:04Z</time>
      </trkpt>
      <trkpt lat="48.34948" lon="-3.68427">
        <ele>84.199996948242</ele>
        <time>2021-09-12T07:05:05Z</time>
      </trkpt>
      <trkpt lat="48.34955" lon="-3.68427">
        <ele>84.199996948242</ele>
        <time>2021-09-12T07:05:06Z</time>
      </trkpt>
      <trkpt lat="48.34961" lon="-3.68426">
        <ele>84.199996948242</ele>
        <time>2021-09-12T07:05:07Z</time>
      </trkpt>
      <trkpt lat="48.34968" lon="-3.68425">
        <ele>84.199996948242</ele>
        <time>2021-09-12T07:05:08Z</time>
      </trkpt>
      <trkpt lat="48.34975" lon="-3.68423">
        <ele>84</ele>
        <time>2021-09-12T07:05:09Z</time>
      </trkpt>
      <trkpt lat="48.34982" lon="-3.68422">
        <ele>83.800003051758</ele>
        <time>2021-09-12T07:05:10Z</time>
      </trkpt>
      <trkpt lat="48.34987" lon="-3.68422">
        <ele>83.800003051758</ele>
        <time>2021-09-12T07:05:11Z</time>
      </trkpt>
      <trkpt lat="48.34993" lon="-3.6842">
        <ele>83.800003051758</ele>
        <time>2021-09-12T07:05:12Z</time>
      </trkpt>
      <trkpt lat="48.34999" lon="-3.68419">
        <ele>83.800003051758</ele>
        <time>2021-09-12T07:05:13Z</time>
      </trkpt>
      <trkpt lat="48.35006" lon="-3.68417">
        <ele>83.800003051758</ele>
        <time>2021-09-12T07:05:14Z</time>
      </trkpt>
      <trkpt lat="48.35013" lon="-3.68416">
        <ele>83.800003051758</ele>
        <time>2021-09-12T07:05:15Z</time>
      </trkpt>
      <trkpt lat="48.35019" lon="-3.68415">
        <ele>83.800003051758</ele>
        <time>2021-09-12T07:05:16Z</time>
      </trkpt>
      <trkpt lat="48.35025" lon="-3.68415">
        <ele>83.800003051758</ele>
        <time>2021-09-12T07:05:17Z</time>
      </trkpt>
      <trkpt lat="48.3503" lon="-3.68414">
        <ele>83.800003051758</ele>
        <time>2021-09-12T07:05:18Z</time>
      </trkpt>
      <trkpt lat="48.35037" lon="-3.68412">
        <ele>84</ele>
        <time>2021-09-12T07:05:19Z</time>
      </trkpt>
      <trkpt lat="48.35044" lon="-3.6841">
        <ele>83.800003051758</ele>
        <time>2021-09-12T07:05:20Z</time>
      </trkpt>
      <trkpt lat="48.35051" lon="-3.68408">
        <ele>84</ele>
        <time>2021-09-12T07:05:21Z</time>
      </trkpt>
      <trkpt lat="48.35057" lon="-3.68407">
        <ele>84</ele>
        <time>2021-09-12T07:05:22Z</time>
      </trkpt>
      <trkpt lat="48.35063" lon="-3.68405">
        <ele>84</ele>
        <time>2021-09-12T07:05:23Z</time>
      </trkpt>
      <trkpt lat="48.3507" lon="-3.68404">
        <ele>84</ele>
        <time>2021-09-12T07:05:24Z</time>
      </trkpt>
      <trkpt lat="48.35075" lon="-3.68403">
        <ele>84</ele>
        <time>2021-09-12T07:05:25Z</time>
      </trkpt>
      <trkpt lat="48.35081" lon="-3.68401">
        <ele>83.800003051758</ele>
        <time>2021-09-12T07:05:26Z</time>
      </trkpt>
      <trkpt lat="48.35086" lon="-3.684">
        <ele>83.800003051758</ele>
        <time>2021-09-12T07:05:27Z</time>
      </trkpt>
      <trkpt lat="48.35091" lon="-3.68398">
        <ele>83.800003051758</ele>
        <time>2021-09-12T07:05:28Z</time>
      </trkpt>
      <trkpt lat="48.35097" lon="-3.68396">
        <ele>83.800003051758</ele>
        <time>2021-09-12T07:05:29Z</time>
      </trkpt>
      <trkpt lat="48.35103" lon="-3.68394">
        <ele>83.800003051758</ele>
        <time>2021-09-12T07:05:30Z</time>
      </trkpt>
      <trkpt lat="48.35108" lon="-3.68392">
        <ele>84</ele>
        <time>2021-09-12T07:05:31Z</time>
      </trkpt>
      <trkpt lat="48.35115" lon="-3.68389">
        <ele>84</ele>
        <time>2021-09-12T07:05:32Z</time>
      </trkpt>
      <trkpt lat="48.3512" lon="-3.68387">
        <ele>84</ele>
        <time>2021-09-12T07:05:33Z</time>
      </trkpt>
      <trkpt lat="48.35127" lon="-3.68385">
        <ele>84</ele>
        <time>2021-09-12T07:05:34Z</time>
      </trkpt>
      <trkpt lat="48.35133" lon="-3.68383">
        <ele>84</ele>
        <time>2021-09-12T07:05:35Z</time>
      </trkpt>
      <trkpt lat="48.35139" lon="-3.68381">
        <ele>84</ele>
        <time>2021-09-12T07:05:36Z</time>
      </trkpt>
      <trkpt lat="48.35146" lon="-3.68379">
        <ele>83.800003051758</ele>
        <time>2021-09-12T07:05:37Z</time>
      </trkpt>
      <trkpt lat="48.35152" lon="-3.68377">
        <ele>83.800003051758</ele>
        <time>2021-09-12T07:05:38Z</time>
      </trkpt>
      <trkpt lat="48.35159" lon="-3.68376">
        <ele>83.800003051758</ele>
        <time>2021-09-12T07:05:39Z</time>
      </trkpt>
      <trkpt lat="48.35165" lon="-3.68376">
        <ele>83.800003051758</ele>
        <time>2021-09-12T07:05:40Z</time>
      </trkpt>
      <trkpt lat="48.35171" lon="-3.68376">
        <ele>83.800003051758</ele>
        <time>2021-09-12T07:05:41Z</time>
      </trkpt>
      <trkpt lat="48.35177" lon="-3.68377">
        <ele>83.800003051758</ele>
        <time>2021-09-12T07:05:42Z</time>
      </trkpt>
      <trkpt lat="48.35183" lon="-3.68378">
        <ele>83.800003051758</ele>
        <time>2021-09-12T07:05:43Z</time>
      </trkpt>
      <trkpt lat="48.35189" lon="-3.6838">
        <ele>83.800003051758</ele>
        <time>2021-09-12T07:05:44Z</time>
      </trkpt>
      <trkpt lat="48.35195" lon="-3.68382">
        <ele>83.800003051758</ele>
        <time>2021-09-12T07:05:45Z</time>
      </trkpt>
      <trkpt lat="48.35201" lon="-3.68386">
        <ele>84</ele>
        <time>2021-09-12T07:05:46Z</time>
      </trkpt>
      <trkpt lat="48.35207" lon="-3.68389">
        <ele>84</ele>
        <time>2021-09-12T07:05:47Z</time>
      </trkpt>
      <trkpt lat="48.35212" lon="-3.68393">
        <ele>84</ele>
        <time>2021-09-12T07:05:48Z</time>
      </trkpt>
      <trkpt lat="48.35218" lon="-3.68396">
        <ele>84</ele>
        <time>2021-09-12T07:05:49Z</time>
      </trkpt>
      <trkpt lat="48.35224" lon="-3.68399">
        <ele>84</ele>
        <time>2021-09-12T07:05:50Z</time>
      </trkpt>
      <trkpt lat="48.3523" lon="-3.68401">
        <ele>84</ele>
        <time>2021-09-12T07:05:51Z</time>
      </trkpt>
      <trkpt lat="48.35236" lon="-3.68403">
        <ele>84</ele>
        <time>2021-09-12T07:05:52Z</time>
      </trkpt>
      <trkpt lat="48.35242" lon="-3.68405">
        <ele>84.199996948242</ele>
        <time>2021-09-12T07:05:53Z</time>
      </trkpt>
      <trkpt lat="48.35248" lon="-3.68405">
        <ele>84</ele>
        <time>2021-09-12T07:05:54Z</time>
      </trkpt>
      <trkpt lat="48.35253" lon="-3.68405">
        <ele>84.199996948242</ele>
        <time>2021-09-12T07:05:55Z</time>
      </trkpt>
      <trkpt lat="48.35259" lon="-3.68404">
        <ele>84.199996948242</ele>
        <time>2021-09-12T07:05:56Z</time>
      </trkpt>
      <trkpt lat="48.35265" lon="-3.68403">
        <ele>84</ele>
        <time>2021-09-12T07:05:57Z</time>
      </trkpt>
      <trkpt lat="48.35271" lon="-3.68401">
        <ele>84.199996948242</ele>
        <time>2021-09-12T07:05:58Z</time>
      </trkpt>
      <trkpt lat="48.35277" lon="-3.684">
        <ele>84.199996948242</ele>
        <time>2021-09-12T07:05:59Z</time>
      </trkpt>
      <trkpt lat="48.35283" lon="-3.68398">
        <ele>84.199996948242</ele>
        <time>2021-09-12T07:06:00Z</time>
      </trkpt>
      <trkpt lat="48.35289" lon="-3.68395">
        <ele>84.400001525879</ele>
        <time>2021-09-12T07:06:01Z</time>
      </trkpt>
      <trkpt lat="48.35295" lon="-3.68393">
        <ele>84.199996948242</ele>
        <time>2021-09-12T07:06:02Z</time>
      </trkpt>
      <trkpt lat="48.35301" lon="-3.6839">
        <ele>84.199996948242</ele>
        <time>2021-09-12T07:06:03Z</time>
      </trkpt>
      <trkpt lat="48.35307" lon="-3.68386">
        <ele>84.400001525879</ele>
        <time>2021-09-12T07:06:04Z</time>
      </trkpt>
      <trkpt lat="48.35313" lon="-3.68382">
        <ele>84.400001525879</ele>
        <time>2021-09-12T07:06:05Z</time>
      </trkpt>
      <trkpt lat="48.35318" lon="-3.68377">
        <ele>84.400001525879</ele>
        <time>2021-09-12T07:06:06Z</time>
      </trkpt>
      <trkpt lat="48.35324" lon="-3.68373">
        <ele>84.400001525879</ele>
        <time>2021-09-12T07:06:07Z</time>
      </trkpt>
      <trkpt lat="48.3533" lon="-3.68368">
        <ele>84.400001525879</ele>
        <time>2021-09-12T07:06:08Z</time>
      </trkpt>
      <trkpt lat="48.35336" lon="-3.68364">
        <ele>84.400001525879</ele>
        <time>2021-09-12T07:06:09Z</time>
      </trkpt>
      <trkpt lat="48.35342" lon="-3.68359">
        <ele>84.199996948242</ele>
        <time>2021-09-12T07:06:10Z</time>
      </trkpt>
      <trkpt lat="48.35348" lon="-3.68355">
        <ele>84.199996948242</ele>
        <time>2021-09-12T07:06:11Z</time>
      </trkpt>
      <trkpt lat="48.35353" lon="-3.68351">
        <ele>84.199996948242</ele>
        <time>2021-09-12T07:06:12Z</time>
      </trkpt>
      <trkpt lat="48.35359" lon="-3.68347">
        <ele>84.199996948242</ele>
        <time>2021-09-12T07:06:13Z</time>
      </trkpt>
      <trkpt lat="48.35365" lon="-3.68344">
        <ele>84.199996948242</ele>
        <time>2021-09-12T07:06:14Z</time>
      </trkpt>
      <trkpt lat="48.35371" lon="-3.6834">
        <ele>84.199996948242</ele>
        <time>2021-09-12T07:06:15Z</time>
      </trkpt>
      <trkpt lat="48.35377" lon="-3.68338">
        <ele>84.199996948242</ele>
        <time>2021-09-12T07:06:16Z</time>
      </trkpt>
      <trkpt lat="48.35383" lon="-3.68335">
        <ele>84.199996948242</ele>
        <time>2021-09-12T07:06:17Z</time>
      </trkpt>
      <trkpt lat="48.35389" lon="-3.68332">
        <ele>84.199996948242</ele>
        <time>2021-09-12T07:06:18Z</time>
      </trkpt>
      <trkpt lat="48.35396" lon="-3.6833">
        <ele>84.199996948242</ele>
        <time>2021-09-12T07:06:19Z</time>
      </trkpt>
      <trkpt lat="48.35403" lon="-3.68327">
        <ele>84</ele>
        <time>2021-09-12T07:06:20Z</time>
      </trkpt>
      <trkpt lat="48.3541" lon="-3.68325">
        <ele>83.800003051758</ele>
        <time>2021-09-12T07:06:21Z</time>
      </trkpt>
      <trkpt lat="48.35416" lon="-3.68324">
        <ele>84</ele>
        <time>2021-09-12T07:06:22Z</time>
      </trkpt>
      <trkpt lat="48.35423" lon="-3.68322">
        <ele>84</ele>
        <time>2021-09-12T07:06:23Z</time>
      </trkpt>
      <trkpt lat="48.35429" lon="-3.6832">
        <ele>84</ele>
        <time>2021-09-12T07:06:24Z</time>
      </trkpt>
      <trkpt lat="48.35435" lon="-3.68319">
        <ele>84</ele>
        <time>2021-09-12T07:06:25Z</time>
      </trkpt>
      <trkpt lat="48.35441" lon="-3.68318">
        <ele>84</ele>
        <time>2021-09-12T07:06:26Z</time>
      </trkpt>
      <trkpt lat="48.35448" lon="-3.68316">
        <ele>84</ele>
        <time>2021-09-12T07:06:27Z</time>
      </trkpt>
      <trkpt lat="48.35454" lon="-3.68315">
        <ele>84</ele>
        <time>2021-09-12T07:06:28Z</time>
      </trkpt>
      <trkpt lat="48.3546" lon="-3.68314">
        <ele>84</ele>
        <time>2021-09-12T07:06:29Z</time>
      </trkpt>
      <trkpt lat="48.35466" lon="-3.68312">
        <ele>83.800003051758</ele>
        <time>2021-09-12T07:06:30Z</time>
      </trkpt>
      <trkpt lat="48.35473" lon="-3.68311">
        <ele>83.800003051758</ele>
        <time>2021-09-12T07:06:31Z</time>
      </trkpt>
      <trkpt lat="48.35479" lon="-3.68309">
        <ele>83.800003051758</ele>
        <time>2021-09-12T07:06:32Z</time>
      </trkpt>
      <trkpt lat="48.35486" lon="-3.68307">
        <ele>83.599998474121</ele>
        <time>2021-09-12T07:06:33Z</time>
      </trkpt>
      <trkpt lat="48.35493" lon="-3.68305">
        <ele>83.800003051758</ele>
        <time>2021-09-12T07:06:34Z</time>
      </trkpt>
      <trkpt lat="48.35499" lon="-3.68304">
        <ele>83.800003051758</ele>
        <time>2021-09-12T07:06:35Z</time>
      </trkpt>
      <trkpt lat="48.35506" lon="-3.68302">
        <ele>83.800003051758</ele>
        <time>2021-09-12T07:06:36Z</time>
      </trkpt>
      <trkpt lat="48.35513" lon="-3.683">
        <ele>83.800003051758</ele>
        <time>2021-09-12T07:06:37Z</time>
      </trkpt>
      <trkpt lat="48.35519" lon="-3.68299">
        <ele>83.800003051758</ele>
        <time>2021-09-12T07:06:38Z</time>
      </trkpt>
      <trkpt lat="48.35526" lon="-3.68298">
        <ele>83.800003051758</ele>
        <time>2021-09-12T07:06:39Z</time>
      </trkpt>
      <trkpt lat="48.35533" lon="-3.68297">
        <ele>83.800003051758</ele>
        <time>2021-09-12T07:06:40Z</time>
      </trkpt>
      <trkpt lat="48.35539" lon="-3.68296">
        <ele>83.800003051758</ele>
        <time>2021-09-12T07:06:41Z</time>
      </trkpt>
      <trkpt lat="48.35546" lon="-3.68295">
        <ele>83.800003051758</ele>
        <time>2021-09-12T07:06:42Z</time>
      </trkpt>
      <trkpt lat="48.35553" lon="-3.68294">
        <ele>83.800003051758</ele>
        <time>2021-09-12T07:06:43Z</time>
      </trkpt>
      <trkpt lat="48.35558" lon="-3.68293">
        <ele>83.800003051758</ele>
        <time>2021-09-12T07:06:44Z</time>
      </trkpt>
      <trkpt lat="48.35565" lon="-3.68293">
        <ele>83.800003051758</ele>
        <time>2021-09-12T07:06:45Z</time>
      </trkpt>
      <trkpt lat="48.35571" lon="-3.68292">
        <ele>83.599998474121</ele>
        <time>2021-09-12T07:06:46Z</time>
      </trkpt>
      <trkpt lat="48.35578" lon="-3.68292">
        <ele>83.599998474121</ele>
        <time>2021-09-12T07:06:47Z</time>
      </trkpt>
      <trkpt lat="48.35585" lon="-3.68292">
        <ele>83.599998474121</ele>
        <time>2021-09-12T07:06:48Z</time>
      </trkpt>
      <trkpt lat="48.35592" lon="-3.68293">
        <ele>83.599998474121</ele>
        <time>2021-09-12T07:06:49Z</time>
      </trkpt>
      <trkpt lat="48.35599" lon="-3.68293">
        <ele>83.599998474121</ele>
        <time>2021-09-12T07:06:50Z</time>
      </trkpt>
      <trkpt lat="48.35605" lon="-3.68294">
        <ele>83.599998474121</ele>
        <time>2021-09-12T07:06:51Z</time>
      </trkpt>
      <trkpt lat="48.35612" lon="-3.68295">
        <ele>83.800003051758</ele>
        <time>2021-09-12T07:06:52Z</time>
      </trkpt>
      <trkpt lat="48.35619" lon="-3.68296">
        <ele>83.800003051758</ele>
        <time>2021-09-12T07:06:53Z</time>
      </trkpt>
      <trkpt lat="48.35627" lon="-3.68297">
        <ele>83.800003051758</ele>
        <time>2021-09-12T07:06:54Z</time>
      </trkpt>
      <trkpt lat="48.35633" lon="-3.68299">
        <ele>83.800003051758</ele>
        <time>2021-09-12T07:06:55Z</time>
      </trkpt>
      <trkpt lat="48.35639" lon="-3.683">
        <ele>84</ele>
        <time>2021-09-12T07:06:56Z</time>
      </trkpt>
      <trkpt lat="48.35646" lon="-3.68303">
        <ele>84</ele>
        <time>2021-09-12T07:06:57Z</time>
      </trkpt>
      <trkpt lat="48.35654" lon="-3.68305">
        <ele>84</ele>
        <time>2021-09-12T07:06:58Z</time>
      </trkpt>
      <trkpt lat="48.35661" lon="-3.68308">
        <ele>84</ele>
        <time>2021-09-12T07:06:59Z</time>
      </trkpt>
      <trkpt lat="48.35667" lon="-3.68311">
        <ele>84</ele>
        <time>2021-09-12T07:07:00Z</time>
      </trkpt>
      <trkpt lat="48.35673" lon="-3.68314">
        <ele>84</ele>
        <time>2021-09-12T07:07:01Z</time>
      </trkpt>
      <trkpt lat="48.35679" lon="-3.68317">
        <ele>84</ele>
        <time>2021-09-12T07:07:02Z</time>
      </trkpt>
      <trkpt lat="48.35685" lon="-3.6832">
        <ele>84</ele>
        <time>2021-09-12T07:07:03Z</time>
      </trkpt>
      <trkpt lat="48.35691" lon="-3.68323">
        <ele>83.800003051758</ele>
        <time>2021-09-12T07:07:04Z</time>
      </trkpt>
      <trkpt lat="48.35697" lon="-3.68326">
        <ele>83.800003051758</ele>
        <time>2021-09-12T07:07:05Z</time>
      </trkpt>
      <trkpt lat="48.35703" lon="-3.6833">
        <ele>83.800003051758</ele>
        <time>2021-09-12T07:07:06Z</time>
      </trkpt>
      <trkpt lat="48.35708" lon="-3.68335">
        <ele>84</ele>
        <time>2021-09-12T07:07:07Z</time>
      </trkpt>
      <trkpt lat="48.35714" lon="-3.6834">
        <ele>84</ele>
        <time>2021-09-12T07:07:08Z</time>
      </trkpt>
      <trkpt lat="48.3572" lon="-3.68344">
        <ele>84.199996948242</ele>
        <time>2021-09-12T07:07:09Z</time>
      </trkpt>
      <trkpt lat="48.35726" lon="-3.68349">
        <ele>84.199996948242</ele>
        <time>2021-09-12T07:07:10Z</time>
      </trkpt>
      <trkpt lat="48.35732" lon="-3.68354">
        <ele>84.199996948242</ele>
        <time>2021-09-12T07:07:11Z</time>
      </trkpt>
      <trkpt lat="48.35738" lon="-3.68358">
        <ele>84.400001525879</ele>
        <time>2021-09-12T07:07:12Z</time>
      </trkpt>
      <trkpt lat="48.35744" lon="-3.68363">
        <ele>84.199996948242</ele>
        <time>2021-09-12T07:07:13Z</time>
      </trkpt>
      <trkpt lat="48.3575" lon="-3.68368">
        <ele>84.400001525879</ele>
        <time>2021-09-12T07:07:14Z</time>
      </trkpt>
      <trkpt lat="48.35756" lon="-3.68373">
        <ele>84.400001525879</ele>
        <time>2021-09-12T07:07:15Z</time>
      </trkpt>
      <trkpt lat="48.35762" lon="-3.68377">
        <ele>84.400001525879</ele>
        <time>2021-09-12T07:07:16Z</time>
      </trkpt>
      <trkpt lat="48.35768" lon="-3.68382">
        <ele>84.599998474121</ele>
        <time>2021-09-12T07:07:17Z</time>
      </trkpt>
      <trkpt lat="48.35773" lon="-3.68388">
        <ele>84.599998474121</ele>
        <time>2021-09-12T07:07:18Z</time>
      </trkpt>
      <trkpt lat="48.35779" lon="-3.68393">
        <ele>84.599998474121</ele>
        <time>2021-09-12T07:07:19Z</time>
      </trkpt>
      <trkpt lat="48.35784" lon="-3.68397">
        <ele>84.599998474121</ele>
        <time>2021-09-12T07:07:20Z</time>
      </trkpt>
      <trkpt lat="48.35784" lon="-3.68397">
        <ele>84.599998474121</ele>
        <time>2021-09-12T07:07:21Z</time>
      </trkpt>
      <trkpt lat="48.35796" lon="-3.68407">
        <ele>84.800003051758</ele>
        <time>2021-09-12T07:07:22Z</time>
      </trkpt>
      <trkpt lat="48.35802" lon="-3.68412">
        <ele>84.599998474121</ele>
        <time>2021-09-12T07:07:23Z</time>
      </trkpt>
      <trkpt lat="48.35807" lon="-3.68417">
        <ele>84.800003051758</ele>
        <time>2021-09-12T07:07:24Z</time>
      </trkpt>
      <trkpt lat="48.35813" lon="-3.68422">
        <ele>84.800003051758</ele>
        <time>2021-09-12T07:07:25Z</time>
      </trkpt>
      <trkpt lat="48.35818" lon="-3.68426">
        <ele>84.800003051758</ele>
        <time>2021-09-12T07:07:26Z</time>
      </trkpt>
      <trkpt lat="48.35824" lon="-3.68432">
        <ele>84.800003051758</ele>
        <time>2021-09-12T07:07:27Z</time>
      </trkpt>
      <trkpt lat="48.35829" lon="-3.68436">
        <ele>84.800003051758</ele>
        <time>2021-09-12T07:07:28Z</time>
      </trkpt>
      <trkpt lat="48.35834" lon="-3.6844">
        <ele>84.800003051758</ele>
        <time>2021-09-12T07:07:29Z</time>
      </trkpt>
      <trkpt lat="48.3584" lon="-3.68444">
        <ele>85</ele>
        <time>2021-09-12T07:07:30Z</time>
      </trkpt>
      <trkpt lat="48.35845" lon="-3.68448">
        <ele>85</ele>
        <time>2021-09-12T07:07:31Z</time>
      </trkpt>
      <trkpt lat="48.3585" lon="-3.68452">
        <ele>85</ele>
        <time>2021-09-12T07:07:32Z</time>
      </trkpt>
      <trkpt lat="48.35855" lon="-3.68456">
        <ele>85</ele>
        <time>2021-09-12T07:07:33Z</time>
      </trkpt>
      <trkpt lat="48.35859" lon="-3.68459">
        <ele>85.199996948242</ele>
        <time>2021-09-12T07:07:34Z</time>
      </trkpt>
      <trkpt lat="48.35863" lon="-3.68461">
        <ele>85.199996948242</ele>
        <time>2021-09-12T07:07:35Z</time>
      </trkpt>
      <trkpt lat="48.35867" lon="-3.68464">
        <ele>85.199996948242</ele>
        <time>2021-09-12T07:07:36Z</time>
      </trkpt>
      <trkpt lat="48.35871" lon="-3.68466">
        <ele>85.199996948242</ele>
        <time>2021-09-12T07:07:37Z</time>
      </trkpt>
      <trkpt lat="48.35874" lon="-3.6847">
        <ele>85.199996948242</ele>
        <time>2021-09-12T07:07:38Z</time>
      </trkpt>
      <trkpt lat="48.35876" lon="-3.68476">
        <ele>85.199996948242</ele>
        <time>2021-09-12T07:07:39Z</time>
      </trkpt>
      <trkpt lat="48.35875" lon="-3.68482">
        <ele>85.199996948242</ele>
        <time>2021-09-12T07:07:40Z</time>
      </trkpt>
      <trkpt lat="48.35872" lon="-3.68488">
        <ele>85.199996948242</ele>
        <time>2021-09-12T07:07:41Z</time>
      </trkpt>
      <trkpt lat="48.35869" lon="-3.68496">
        <ele>83.800003051758</ele>
        <time>2021-09-12T07:07:42Z</time>
      </trkpt>
      <trkpt lat="48.35867" lon="-3.68506">
        <ele>83.199996948242</ele>
        <time>2021-09-12T07:07:43Z</time>
      </trkpt>
      <trkpt lat="48.35866" lon="-3.68517">
        <ele>82.800003051758</ele>
        <time>2021-09-12T07:07:44Z</time>
      </trkpt>
      <trkpt lat="48.35866" lon="-3.68527">
        <ele>82.599998474121</ele>
        <time>2021-09-12T07:07:45Z</time>
      </trkpt>
      <trkpt lat="48.35866" lon="-3.68537">
        <ele>82.599998474121</ele>
        <time>2021-09-12T07:07:46Z</time>
      </trkpt>
      <trkpt lat="48.35865" lon="-3.68547">
        <ele>82.400001525879</ele>
        <time>2021-09-12T07:07:47Z</time>
      </trkpt>
      <trkpt lat="48.35864" lon="-3.68557">
        <ele>82.400001525879</ele>
        <time>2021-09-12T07:07:48Z</time>
      </trkpt>
      <trkpt lat="48.35864" lon="-3.68566">
        <ele>82.400001525879</ele>
        <time>2021-09-12T07:07:49Z</time>
      </trkpt>
      <trkpt lat="48.35863" lon="-3.68575">
        <ele>82.400001525879</ele>
        <time>2021-09-12T07:07:50Z</time>
      </trkpt>
      <trkpt lat="48.35863" lon="-3.68583">
        <ele>82.400001525879</ele>
        <time>2021-09-12T07:07:51Z</time>
      </trkpt>
      <trkpt lat="48.35862" lon="-3.68592">
        <ele>82.400001525879</ele>
        <time>2021-09-12T07:07:52Z</time>
      </trkpt>
      <trkpt lat="48.35862" lon="-3.68601">
        <ele>82.400001525879</ele>
        <time>2021-09-12T07:07:53Z</time>
      </trkpt>
      <trkpt lat="48.3586" lon="-3.68609">
        <ele>82.400001525879</ele>
        <time>2021-09-12T07:07:54Z</time>
      </trkpt>
      <trkpt lat="48.35859" lon="-3.68618">
        <ele>82.400001525879</ele>
        <time>2021-09-12T07:07:55Z</time>
      </trkpt>
      <trkpt lat="48.35858" lon="-3.68627">
        <ele>82.400001525879</ele>
        <time>2021-09-12T07:07:56Z</time>
      </trkpt>
      <trkpt lat="48.35856" lon="-3.68634">
        <ele>82.400001525879</ele>
        <time>2021-09-12T07:07:57Z</time>
      </trkpt>
      <trkpt lat="48.35856" lon="-3.68642">
        <ele>82.599998474121</ele>
        <time>2021-09-12T07:07:58Z</time>
      </trkpt>
      <trkpt lat="48.35855" lon="-3.68648">
        <ele>82.800003051758</ele>
        <time>2021-09-12T07:07:59Z</time>
      </trkpt>
      <trkpt lat="48.35855" lon="-3.68654">
        <ele>83</ele>
        <time>2021-09-12T07:08:00Z</time>
      </trkpt>
      <trkpt lat="48.35856" lon="-3.68662">
        <ele>83.199996948242</ele>
        <time>2021-09-12T07:08:01Z</time>
      </trkpt>
      <trkpt lat="48.35856" lon="-3.68668">
        <ele>83.400001525879</ele>
        <time>2021-09-12T07:08:02Z</time>
      </trkpt>
      <trkpt lat="48.35855" lon="-3.68674">
        <ele>83.599998474121</ele>
        <time>2021-09-12T07:08:03Z</time>
      </trkpt>
      <trkpt lat="48.35854" lon="-3.68682">
        <ele>83.800003051758</ele>
        <time>2021-09-12T07:08:04Z</time>
      </trkpt>
      <trkpt lat="48.35854" lon="-3.68688">
        <ele>84</ele>
        <time>2021-09-12T07:08:05Z</time>
      </trkpt>
      <trkpt lat="48.35854" lon="-3.68695">
        <ele>84</ele>
        <time>2021-09-12T07:08:06Z</time>
      </trkpt>
      <trkpt lat="48.35855" lon="-3.68701">
        <ele>84.199996948242</ele>
        <time>2021-09-12T07:08:07Z</time>
      </trkpt>
      <trkpt lat="48.35855" lon="-3.68707">
        <ele>84.199996948242</ele>
        <time>2021-09-12T07:08:08Z</time>
      </trkpt>
      <trkpt lat="48.35856" lon="-3.68714">
        <ele>84.599998474121</ele>
        <time>2021-09-12T07:08:09Z</time>
      </trkpt>
      <trkpt lat="48.35857" lon="-3.68719">
        <ele>84.599998474121</ele>
        <time>2021-09-12T07:08:10Z</time>
      </trkpt>
      <trkpt lat="48.35857" lon="-3.68723">
        <ele>84.800003051758</ele>
        <time>2021-09-12T07:08:11Z</time>
      </trkpt>
      <trkpt lat="48.35857" lon="-3.68729">
        <ele>85.199996948242</ele>
        <time>2021-09-12T07:08:12Z</time>
      </trkpt>
      <trkpt lat="48.35858" lon="-3.68733">
        <ele>85.400001525879</ele>
        <time>2021-09-12T07:08:13Z</time>
      </trkpt>
      <trkpt lat="48.35858" lon="-3.68738">
        <ele>85.400001525879</ele>
        <time>2021-09-12T07:08:14Z</time>
      </trkpt>
      <trkpt lat="48.35858" lon="-3.68742">
        <ele>85.800003051758</ele>
        <time>2021-09-12T07:08:15Z</time>
      </trkpt>
      <trkpt lat="48.35857" lon="-3.68748">
        <ele>85.800003051758</ele>
        <time>2021-09-12T07:08:16Z</time>
      </trkpt>
      <trkpt lat="48.35856" lon="-3.68755">
        <ele>86</ele>
        <time>2021-09-12T07:08:17Z</time>
      </trkpt>
      <trkpt lat="48.35853" lon="-3.68762">
        <ele>86</ele>
        <time>2021-09-12T07:08:18Z</time>
      </trkpt>
      <trkpt lat="48.35851" lon="-3.6877">
        <ele>86</ele>
        <time>2021-09-12T07:08:19Z</time>
      </trkpt>
      <trkpt lat="48.35849" lon="-3.68777">
        <ele>86</ele>
        <time>2021-09-12T07:08:20Z</time>
      </trkpt>
      <trkpt lat="48.35847" lon="-3.68785">
        <ele>86</ele>
        <time>2021-09-12T07:08:21Z</time>
      </trkpt>
      <trkpt lat="48.35845" lon="-3.68792">
        <ele>85.800003051758</ele>
        <time>2021-09-12T07:08:22Z</time>
      </trkpt>
      <trkpt lat="48.35844" lon="-3.68801">
        <ele>85.800003051758</ele>
        <time>2021-09-12T07:08:23Z</time>
      </trkpt>
      <trkpt lat="48.35842" lon="-3.68808">
        <ele>85.800003051758</ele>
        <time>2021-09-12T07:08:24Z</time>
      </trkpt>
      <trkpt lat="48.35839" lon="-3.68817">
        <ele>85.800003051758</ele>
        <time>2021-09-12T07:08:25Z</time>
      </trkpt>
      <trkpt lat="48.35837" lon="-3.68824">
        <ele>85.800003051758</ele>
        <time>2021-09-12T07:08:26Z</time>
      </trkpt>
      <trkpt lat="48.35835" lon="-3.68831">
        <ele>85.800003051758</ele>
        <time>2021-09-12T07:08:27Z</time>
      </trkpt>
      <trkpt lat="48.35834" lon="-3.68839">
        <ele>85.800003051758</ele>
        <time>2021-09-12T07:08:28Z</time>
      </trkpt>
      <trkpt lat="48.35832" lon="-3.68847">
        <ele>85.800003051758</ele>
        <time>2021-09-12T07:08:29Z</time>
      </trkpt>
      <trkpt lat="48.3583" lon="-3.68855">
        <ele>85.800003051758</ele>
        <time>2021-09-12T07:08:30Z</time>
      </trkpt>
      <trkpt lat="48.35828" lon="-3.68861">
        <ele>85.800003051758</ele>
        <time>2021-09-12T07:08:31Z</time>
      </trkpt>
      <trkpt lat="48.35827" lon="-3.68867">
        <ele>85.800003051758</ele>
        <time>2021-09-12T07:08:32Z</time>
      </trkpt>
      <trkpt lat="48.35826" lon="-3.68874">
        <ele>85.800003051758</ele>
        <time>2021-09-12T07:08:33Z</time>
      </trkpt>
      <trkpt lat="48.35825" lon="-3.68884">
        <ele>85.800003051758</ele>
        <time>2021-09-12T07:08:34Z</time>
      </trkpt>
      <trkpt lat="48.35824" lon="-3.68896">
        <ele>85.800003051758</ele>
        <time>2021-09-12T07:08:35Z</time>
      </trkpt>
      <trkpt lat="48.35819" lon="-3.68906">
        <ele>85.800003051758</ele>
        <time>2021-09-12T07:08:36Z</time>
      </trkpt>
      <trkpt lat="48.35818" lon="-3.68915">
        <ele>85.599998474121</ele>
        <time>2021-09-12T07:08:37Z</time>
      </trkpt>
      <trkpt lat="48.35817" lon="-3.68924">
        <ele>85.599998474121</ele>
        <time>2021-09-12T07:08:38Z</time>
      </trkpt>
      <trkpt lat="48.35816" lon="-3.68933">
        <ele>85.400001525879</ele>
        <time>2021-09-12T07:08:39Z</time>
      </trkpt>
      <trkpt lat="48.35816" lon="-3.68941">
        <ele>85.199996948242</ele>
        <time>2021-09-12T07:08:40Z</time>
      </trkpt>
      <trkpt lat="48.35817" lon="-3.6895">
        <ele>85.199996948242</ele>
        <time>2021-09-12T07:08:41Z</time>
      </trkpt>
      <trkpt lat="48.35818" lon="-3.68961">
        <ele>85</ele>
        <time>2021-09-12T07:08:42Z</time>
      </trkpt>
      <trkpt lat="48.35816" lon="-3.68975">
        <ele>84.800003051758</ele>
        <time>2021-09-12T07:08:43Z</time>
      </trkpt>
      <trkpt lat="48.35814" lon="-3.68989">
        <ele>84.400001525879</ele>
        <time>2021-09-12T07:08:44Z</time>
      </trkpt>
      <trkpt lat="48.35814" lon="-3.68996">
        <ele>84.400001525879</ele>
        <time>2021-09-12T07:08:45Z</time>
      </trkpt>
      <trkpt lat="48.35814" lon="-3.69002">
        <ele>84.400001525879</ele>
        <time>2021-09-12T07:08:46Z</time>
      </trkpt>
      <trkpt lat="48.35815" lon="-3.69009">
        <ele>84.400001525879</ele>
        <time>2021-09-12T07:08:47Z</time>
      </trkpt>
      <trkpt lat="48.35814" lon="-3.69018">
        <ele>84.400001525879</ele>
        <time>2021-09-12T07:08:48Z</time>
      </trkpt>
      <trkpt lat="48.35813" lon="-3.69028">
        <ele>84.599998474121</ele>
        <time>2021-09-12T07:08:49Z</time>
      </trkpt>
      <trkpt lat="48.35811" lon="-3.69039">
        <ele>84.800003051758</ele>
        <time>2021-09-12T07:08:50Z</time>
      </trkpt>
      <trkpt lat="48.35811" lon="-3.69047">
        <ele>84.800003051758</ele>
        <time>2021-09-12T07:08:51Z</time>
      </trkpt>
      <trkpt lat="48.35811" lon="-3.69055">
        <ele>84.800003051758</ele>
        <time>2021-09-12T07:08:52Z</time>
      </trkpt>
      <trkpt lat="48.35812" lon="-3.69063">
        <ele>85</ele>
        <time>2021-09-12T07:08:53Z</time>
      </trkpt>
      <trkpt lat="48.35813" lon="-3.69071">
        <ele>85</ele>
        <time>2021-09-12T07:08:54Z</time>
      </trkpt>
      <trkpt lat="48.35813" lon="-3.6908">
        <ele>85</ele>
        <time>2021-09-12T07:08:55Z</time>
      </trkpt>
      <trkpt lat="48.35815" lon="-3.69086">
        <ele>85.199996948242</ele>
        <time>2021-09-12T07:08:56Z</time>
      </trkpt>
      <trkpt lat="48.35817" lon="-3.69091">
        <ele>85.199996948242</ele>
        <time>2021-09-12T07:08:57Z</time>
      </trkpt>
      <trkpt lat="48.3582" lon="-3.69095">
        <ele>85.400001525879</ele>
        <time>2021-09-12T07:08:58Z</time>
      </trkpt>
      <trkpt lat="48.35823" lon="-3.69099">
        <ele>85.599998474121</ele>
        <time>2021-09-12T07:08:59Z</time>
      </trkpt>
      <trkpt lat="48.35825" lon="-3.69102">
        <ele>85.800003051758</ele>
        <time>2021-09-12T07:09:00Z</time>
      </trkpt>
      <trkpt lat="48.35826" lon="-3.69106">
        <ele>86</ele>
        <time>2021-09-12T07:09:01Z</time>
      </trkpt>
      <trkpt lat="48.35828" lon="-3.69111">
        <ele>86.400001525879</ele>
        <time>2021-09-12T07:09:02Z</time>
      </trkpt>
      <trkpt lat="48.35829" lon="-3.69113">
        <ele>86.599998474121</ele>
        <time>2021-09-12T07:09:03Z</time>
      </trkpt>
      <trkpt lat="48.35831" lon="-3.69114">
        <ele>86.599998474121</ele>
        <time>2021-09-12T07:09:04Z</time>
      </trkpt>
      <trkpt lat="48.35833" lon="-3.69113">
        <ele>87.199996948242</ele>
        <time>2021-09-12T07:09:05Z</time>
      </trkpt>
      <trkpt lat="48.35835" lon="-3.69111">
        <ele>87.599998474121</ele>
        <time>2021-09-12T07:09:06Z</time>
      </trkpt>
      <trkpt lat="48.35836" lon="-3.69109">
        <ele>88</ele>
        <time>2021-09-12T07:09:07Z</time>
      </trkpt>
      <trkpt lat="48.35836" lon="-3.69106">
        <ele>88.199996948242</ele>
        <time>2021-09-12T07:09:08Z</time>
      </trkpt>
      <trkpt lat="48.35837" lon="-3.69104">
        <ele>88.599998474121</ele>
        <time>2021-09-12T07:09:09Z</time>
      </trkpt>
      <trkpt lat="48.35838" lon="-3.69102">
        <ele>88.800003051758</ele>
        <time>2021-09-12T07:09:10Z</time>
      </trkpt>
      <trkpt lat="48.35839" lon="-3.691">
        <ele>88.800003051758</ele>
        <time>2021-09-12T07:09:11Z</time>
      </trkpt>
      <trkpt lat="48.35841" lon="-3.69099">
        <ele>89</ele>
        <time>2021-09-12T07:09:12Z</time>
      </trkpt>
      <trkpt lat="48.35843" lon="-3.69098">
        <ele>89.400001525879</ele>
        <time>2021-09-12T07:09:13Z</time>
      </trkpt>
      <trkpt lat="48.35844" lon="-3.69098">
        <ele>89.800003051758</ele>
        <time>2021-09-12T07:09:14Z</time>
      </trkpt>
      <trkpt lat="48.35846" lon="-3.691">
        <ele>90.199996948242</ele>
        <time>2021-09-12T07:09:15Z</time>
      </trkpt>
      <trkpt lat="48.35847" lon="-3.69101">
        <ele>90.400001525879</ele>
        <time>2021-09-12T07:09:16Z</time>
      </trkpt>
      <trkpt lat="48.35847" lon="-3.69104">
        <ele>90.800003051758</ele>
        <time>2021-09-12T07:09:17Z</time>
      </trkpt>
      <trkpt lat="48.35849" lon="-3.69106">
        <ele>91.199996948242</ele>
        <time>2021-09-12T07:09:18Z</time>
      </trkpt>
      <trkpt lat="48.3585" lon="-3.69108">
        <ele>91.599998474121</ele>
        <time>2021-09-12T07:09:19Z</time>
      </trkpt>
      <trkpt lat="48.35851" lon="-3.69111">
        <ele>91.599998474121</ele>
        <time>2021-09-12T07:09:20Z</time>
      </trkpt>
      <trkpt lat="48.35851" lon="-3.69114">
        <ele>91.800003051758</ele>
        <time>2021-09-12T07:09:21Z</time>
      </trkpt>
      <trkpt lat="48.35852" lon="-3.69118">
        <ele>92.199996948242</ele>
        <time>2021-09-12T07:09:22Z</time>
      </trkpt>
      <trkpt lat="48.35853" lon="-3.6912">
        <ele>92.199996948242</ele>
        <time>2021-09-12T07:09:23Z</time>
      </trkpt>
      <trkpt lat="48.35853" lon="-3.69123">
        <ele>93</ele>
        <time>2021-09-12T07:09:24Z</time>
      </trkpt>
      <trkpt lat="48.35854" lon="-3.69126">
        <ele>93.400001525879</ele>
        <time>2021-09-12T07:09:25Z</time>
      </trkpt>
      <trkpt lat="48.35854" lon="-3.69129">
        <ele>93.400001525879</ele>
        <time>2021-09-12T07:09:26Z</time>
      </trkpt>
      <trkpt lat="48.35855" lon="-3.69132">
        <ele>93.599998474121</ele>
        <time>2021-09-12T07:09:27Z</time>
      </trkpt>
      <trkpt lat="48.35856" lon="-3.69135">
        <ele>93.800003051758</ele>
        <time>2021-09-12T07:09:28Z</time>
      </trkpt>
      <trkpt lat="48.35857" lon="-3.69138">
        <ele>94.400001525879</ele>
        <time>2021-09-12T07:09:29Z</time>
      </trkpt>
      <trkpt lat="48.35857" lon="-3.69142">
        <ele>94.599998474121</ele>
        <time>2021-09-12T07:09:30Z</time>
      </trkpt>
      <trkpt lat="48.35858" lon="-3.69145">
        <ele>94.599998474121</ele>
        <time>2021-09-12T07:09:31Z</time>
      </trkpt>
      <trkpt lat="48.35859" lon="-3.69149">
        <ele>95</ele>
        <time>2021-09-12T07:09:32Z</time>
      </trkpt>
      <trkpt lat="48.3586" lon="-3.69152">
        <ele>95.199996948242</ele>
        <time>2021-09-12T07:09:33Z</time>
      </trkpt>
      <trkpt lat="48.35861" lon="-3.69155">
        <ele>95.400001525879</ele>
        <time>2021-09-12T07:09:34Z</time>
      </trkpt>
      <trkpt lat="48.35862" lon="-3.69158">
        <ele>95.400001525879</ele>
        <time>2021-09-12T07:09:35Z</time>
      </trkpt>
      <trkpt lat="48.35863" lon="-3.69161">
        <ele>95.599998474121</ele>
        <time>2021-09-12T07:09:36Z</time>
      </trkpt>
      <trkpt lat="48.35864" lon="-3.69164">
        <ele>96</ele>
        <time>2021-09-12T07:09:37Z</time>
      </trkpt>
      <trkpt lat="48.35865" lon="-3.69167">
        <ele>96.199996948242</ele>
        <time>2021-09-12T07:09:38Z</time>
      </trkpt>
      <trkpt lat="48.35866" lon="-3.69169">
        <ele>96.199996948242</ele>
        <time>2021-09-12T07:09:39Z</time>
      </trkpt>
      <trkpt lat="48.35867" lon="-3.69172">
        <ele>96.400001525879</ele>
        <time>2021-09-12T07:09:40Z</time>
      </trkpt>
      <trkpt lat="48.35869" lon="-3.69175">
        <ele>96.800003051758</ele>
        <time>2021-09-12T07:09:41Z</time>
      </trkpt>
      <trkpt lat="48.3587" lon="-3.69178">
        <ele>96.800003051758</ele>
        <time>2021-09-12T07:09:42Z</time>
      </trkpt>
      <trkpt lat="48.35871" lon="-3.6918">
        <ele>97.199996948242</ele>
        <time>2021-09-12T07:09:43Z</time>
      </trkpt>
      <trkpt lat="48.35873" lon="-3.69183">
        <ele>97.599998474121</ele>
        <time>2021-09-12T07:09:44Z</time>
      </trkpt>
      <trkpt lat="48.35875" lon="-3.69185">
        <ele>97.599998474121</ele>
        <time>2021-09-12T07:09:45Z</time>
      </trkpt>
      <trkpt lat="48.35876" lon="-3.69187">
        <ele>97.800003051758</ele>
        <time>2021-09-12T07:09:46Z</time>
      </trkpt>
      <trkpt lat="48.35878" lon="-3.69189">
        <ele>97.800003051758</ele>
        <time>2021-09-12T07:09:47Z</time>
      </trkpt>
      <trkpt lat="48.35879" lon="-3.69191">
        <ele>98</ele>
        <time>2021-09-12T07:09:48Z</time>
      </trkpt>
      <trkpt lat="48.35881" lon="-3.69193">
        <ele>98.400001525879</ele>
        <time>2021-09-12T07:09:49Z</time>
      </trkpt>
      <trkpt lat="48.35883" lon="-3.69195">
        <ele>98.599998474121</ele>
        <time>2021-09-12T07:09:50Z</time>
      </trkpt>
      <trkpt lat="48.35885" lon="-3.69198">
        <ele>98.800003051758</ele>
        <time>2021-09-12T07:09:51Z</time>
      </trkpt>
      <trkpt lat="48.35886" lon="-3.692">
        <ele>98.800003051758</ele>
        <time>2021-09-12T07:09:52Z</time>
      </trkpt>
      <trkpt lat="48.35888" lon="-3.69202">
        <ele>99.199996948242</ele>
        <time>2021-09-12T07:09:53Z</time>
      </trkpt>
      <trkpt lat="48.35889" lon="-3.69204">
        <ele>99.599998474121</ele>
        <time>2021-09-12T07:09:54Z</time>
      </trkpt>
      <trkpt lat="48.35891" lon="-3.69206">
        <ele>99.599998474121</ele>
        <time>2021-09-12T07:09:55Z</time>
      </trkpt>
      <trkpt lat="48.35892" lon="-3.69208">
        <ele>100</ele>
        <time>2021-09-12T07:09:56Z</time>
      </trkpt>
      <trkpt lat="48.35894" lon="-3.6921">
        <ele>100</ele>
        <time>2021-09-12T07:09:57Z</time>
      </trkpt>
      <trkpt lat="48.35896" lon="-3.69212">
        <ele>100.40000152588</ele>
        <time>2021-09-12T07:09:58Z</time>
      </trkpt>
      <trkpt lat="48.35898" lon="-3.69214">
        <ele>100.80000305176</ele>
        <time>2021-09-12T07:09:59Z</time>
      </trkpt>
      <trkpt lat="48.359" lon="-3.69216">
        <ele>101</ele>
        <time>2021-09-12T07:10:00Z</time>
      </trkpt>
      <trkpt lat="48.35902" lon="-3.69217">
        <ele>101.40000152588</ele>
        <time>2021-09-12T07:10:01Z</time>
      </trkpt>
      <trkpt lat="48.35904" lon="-3.69218">
        <ele>101.40000152588</ele>
        <time>2021-09-12T07:10:02Z</time>
      </trkpt>
      <trkpt lat="48.35906" lon="-3.6922">
        <ele>101.40000152588</ele>
        <time>2021-09-12T07:10:03Z</time>
      </trkpt>
      <trkpt lat="48.35907" lon="-3.69221">
        <ele>101.80000305176</ele>
        <time>2021-09-12T07:10:04Z</time>
      </trkpt>
      <trkpt lat="48.35909" lon="-3.69222">
        <ele>102</ele>
        <time>2021-09-12T07:10:05Z</time>
      </trkpt>
      <trkpt lat="48.3591" lon="-3.69223">
        <ele>102.19999694824</ele>
        <time>2021-09-12T07:10:06Z</time>
      </trkpt>
      <trkpt lat="48.35912" lon="-3.69224">
        <ele>102.40000152588</ele>
        <time>2021-09-12T07:10:07Z</time>
      </trkpt>
      <trkpt lat="48.35913" lon="-3.69224">
        <ele>102.59999847412</ele>
        <time>2021-09-12T07:10:08Z</time>
      </trkpt>
      <trkpt lat="48.35915" lon="-3.69225">
        <ele>102.80000305176</ele>
        <time>2021-09-12T07:10:09Z</time>
      </trkpt>
      <trkpt lat="48.35917" lon="-3.69225">
        <ele>103</ele>
        <time>2021-09-12T07:10:10Z</time>
      </trkpt>
      <trkpt lat="48.35919" lon="-3.69227">
        <ele>103.40000152588</ele>
        <time>2021-09-12T07:10:11Z</time>
      </trkpt>
      <trkpt lat="48.35921" lon="-3.69228">
        <ele>103.59999847412</ele>
        <time>2021-09-12T07:10:12Z</time>
      </trkpt>
      <trkpt lat="48.35922" lon="-3.69229">
        <ele>104</ele>
        <time>2021-09-12T07:10:13Z</time>
      </trkpt>
      <trkpt lat="48.35924" lon="-3.6923">
        <ele>104.19999694824</ele>
        <time>2021-09-12T07:10:14Z</time>
      </trkpt>
      <trkpt lat="48.35926" lon="-3.69231">
        <ele>104.40000152588</ele>
        <time>2021-09-12T07:10:15Z</time>
      </trkpt>
      <trkpt lat="48.35927" lon="-3.69232">
        <ele>104.80000305176</ele>
        <time>2021-09-12T07:10:16Z</time>
      </trkpt>
      <trkpt lat="48.35929" lon="-3.69233">
        <ele>105</ele>
        <time>2021-09-12T07:10:17Z</time>
      </trkpt>
      <trkpt lat="48.3593" lon="-3.69233">
        <ele>105.19999694824</ele>
        <time>2021-09-12T07:10:18Z</time>
      </trkpt>
      <trkpt lat="48.35931" lon="-3.69234">
        <ele>105.19999694824</ele>
        <time>2021-09-12T07:10:19Z</time>
      </trkpt>
      <trkpt lat="48.35933" lon="-3.69234">
        <ele>105.80000305176</ele>
        <time>2021-09-12T07:10:20Z</time>
      </trkpt>
      <trkpt lat="48.35934" lon="-3.69235">
        <ele>106</ele>
        <time>2021-09-12T07:10:21Z</time>
      </trkpt>
      <trkpt lat="48.35936" lon="-3.69235">
        <ele>106.19999694824</ele>
        <time>2021-09-12T07:10:22Z</time>
      </trkpt>
      <trkpt lat="48.35938" lon="-3.69235">
        <ele>106.19999694824</ele>
        <time>2021-09-12T07:10:23Z</time>
      </trkpt>
      <trkpt lat="48.3594" lon="-3.69236">
        <ele>106.59999847412</ele>
        <time>2021-09-12T07:10:24Z</time>
      </trkpt>
      <trkpt lat="48.35942" lon="-3.69236">
        <ele>106.80000305176</ele>
        <time>2021-09-12T07:10:25Z</time>
      </trkpt>
      <trkpt lat="48.35944" lon="-3.69236">
        <ele>107</ele>
        <time>2021-09-12T07:10:26Z</time>
      </trkpt>
      <trkpt lat="48.35945" lon="-3.69236">
        <ele>107.19999694824</ele>
        <time>2021-09-12T07:10:27Z</time>
      </trkpt>
      <trkpt lat="48.35947" lon="-3.69237">
        <ele>107.40000152588</ele>
        <time>2021-09-12T07:10:28Z</time>
      </trkpt>
      <trkpt lat="48.35948" lon="-3.69237">
        <ele>108</ele>
        <time>2021-09-12T07:10:29Z</time>
      </trkpt>
      <trkpt lat="48.35949" lon="-3.69238">
        <ele>108.19999694824</ele>
        <time>2021-09-12T07:10:30Z</time>
      </trkpt>
      <trkpt lat="48.35951" lon="-3.69238">
        <ele>108.40000152588</ele>
        <time>2021-09-12T07:10:31Z</time>
      </trkpt>
      <trkpt lat="48.35952" lon="-3.69238">
        <ele>108.59999847412</ele>
        <time>2021-09-12T07:10:32Z</time>
      </trkpt>
      <trkpt lat="48.35954" lon="-3.69238">
        <ele>109</ele>
        <time>2021-09-12T07:10:33Z</time>
      </trkpt>
      <trkpt lat="48.35955" lon="-3.69239">
        <ele>109.59999847412</ele>
        <time>2021-09-12T07:10:34Z</time>
      </trkpt>
      <trkpt lat="48.35956" lon="-3.6924">
        <ele>109.80000305176</ele>
        <time>2021-09-12T07:10:35Z</time>
      </trkpt>
      <trkpt lat="48.35957" lon="-3.6924">
        <ele>110</ele>
        <time>2021-09-12T07:10:36Z</time>
      </trkpt>
      <trkpt lat="48.35958" lon="-3.69241">
        <ele>110</ele>
        <time>2021-09-12T07:10:37Z</time>
      </trkpt>
      <trkpt lat="48.35959" lon="-3.69242">
        <ele>110.19999694824</ele>
        <time>2021-09-12T07:10:38Z</time>
      </trkpt>
      <trkpt lat="48.35961" lon="-3.69243">
        <ele>110.40000152588</ele>
        <time>2021-09-12T07:10:39Z</time>
      </trkpt>
      <trkpt lat="48.35961" lon="-3.69243">
        <ele>111</ele>
        <time>2021-09-12T07:10:40Z</time>
      </trkpt>
      <trkpt lat="48.35962" lon="-3.69243">
        <ele>111.19999694824</ele>
        <time>2021-09-12T07:10:41Z</time>
      </trkpt>
      <trkpt lat="48.35964" lon="-3.69244">
        <ele>111.59999847412</ele>
        <time>2021-09-12T07:10:42Z</time>
      </trkpt>
      <trkpt lat="48.35965" lon="-3.69245">
        <ele>111.80000305176</ele>
        <time>2021-09-12T07:10:43Z</time>
      </trkpt>
      <trkpt lat="48.35966" lon="-3.69245">
        <ele>112.19999694824</ele>
        <time>2021-09-12T07:10:44Z</time>
      </trkpt>
      <trkpt lat="48.35967" lon="-3.69246">
        <ele>112.19999694824</ele>
        <time>2021-09-12T07:10:45Z</time>
      </trkpt>
      <trkpt lat="48.35968" lon="-3.69247">
        <ele>112.40000152588</ele>
        <time>2021-09-12T07:10:46Z</time>
      </trkpt>
      <trkpt lat="48.3597" lon="-3.69248">
        <ele>112.80000305176</ele>
        <time>2021-09-12T07:10:47Z</time>
      </trkpt>
      <trkpt lat="48.35971" lon="-3.69249">
        <ele>113.19999694824</ele>
        <time>2021-09-12T07:10:48Z</time>
      </trkpt>
      <trkpt lat="48.35972" lon="-3.6925">
        <ele>113.40000152588</ele>
        <time>2021-09-12T07:10:49Z</time>
      </trkpt>
      <trkpt lat="48.35974" lon="-3.69252">
        <ele>113.40000152588</ele>
        <time>2021-09-12T07:10:50Z</time>
      </trkpt>
      <trkpt lat="48.35975" lon="-3.69254">
        <ele>113.80000305176</ele>
        <time>2021-09-12T07:10:51Z</time>
      </trkpt>
      <trkpt lat="48.35976" lon="-3.69255">
        <ele>114</ele>
        <time>2021-09-12T07:10:52Z</time>
      </trkpt>
      <trkpt lat="48.35978" lon="-3.69257">
        <ele>114.40000152588</ele>
        <time>2021-09-12T07:10:53Z</time>
      </trkpt>
      <trkpt lat="48.35979" lon="-3.69259">
        <ele>114.80000305176</ele>
        <time>2021-09-12T07:10:54Z</time>
      </trkpt>
      <trkpt lat="48.35981" lon="-3.6926">
        <ele>115.19999694824</ele>
        <time>2021-09-12T07:10:55Z</time>
      </trkpt>
      <trkpt lat="48.35982" lon="-3.69261">
        <ele>115.40000152588</ele>
        <time>2021-09-12T07:10:56Z</time>
      </trkpt>
      <trkpt lat="48.35983" lon="-3.69263">
        <ele>115.80000305176</ele>
        <time>2021-09-12T07:10:57Z</time>
      </trkpt>
      <trkpt lat="48.35984" lon="-3.69264">
        <ele>116</ele>
        <time>2021-09-12T07:10:58Z</time>
      </trkpt>
      <trkpt lat="48.35985" lon="-3.69266">
        <ele>116.59999847412</ele>
        <time>2021-09-12T07:10:59Z</time>
      </trkpt>
      <trkpt lat="48.35986" lon="-3.69268">
        <ele>116.59999847412</ele>
        <time>2021-09-12T07:11:00Z</time>
      </trkpt>
      <trkpt lat="48.35987" lon="-3.6927">
        <ele>116.59999847412</ele>
        <time>2021-09-12T07:11:01Z</time>
      </trkpt>
      <trkpt lat="48.35989" lon="-3.69272">
        <ele>117.40000152588</ele>
        <time>2021-09-12T07:11:02Z</time>
      </trkpt>
      <trkpt lat="48.3599" lon="-3.69274">
        <ele>117.40000152588</ele>
        <time>2021-09-12T07:11:03Z</time>
      </trkpt>
      <trkpt lat="48.3599" lon="-3.69275">
        <ele>117.80000305176</ele>
        <time>2021-09-12T07:11:04Z</time>
      </trkpt>
      <trkpt lat="48.35991" lon="-3.69276">
        <ele>118.19999694824</ele>
        <time>2021-09-12T07:11:05Z</time>
      </trkpt>
      <trkpt lat="48.35992" lon="-3.69278">
        <ele>118.40000152588</ele>
        <time>2021-09-12T07:11:06Z</time>
      </trkpt>
      <trkpt lat="48.35994" lon="-3.69281">
        <ele>118.59999847412</ele>
        <time>2021-09-12T07:11:07Z</time>
      </trkpt>
      <trkpt lat="48.35995" lon="-3.69285">
        <ele>118.80000305176</ele>
        <time>2021-09-12T07:11:08Z</time>
      </trkpt>
      <trkpt lat="48.35996" lon="-3.69288">
        <ele>119</ele>
        <time>2021-09-12T07:11:09Z</time>
      </trkpt>
      <trkpt lat="48.35997" lon="-3.6929">
        <ele>119.40000152588</ele>
        <time>2021-09-12T07:11:10Z</time>
      </trkpt>
      <trkpt lat="48.35998" lon="-3.69293">
        <ele>119.40000152588</ele>
        <time>2021-09-12T07:11:11Z</time>
      </trkpt>
      <trkpt lat="48.35998" lon="-3.69296">
        <ele>119.80000305176</ele>
        <time>2021-09-12T07:11:12Z</time>
      </trkpt>
      <trkpt lat="48.35999" lon="-3.69298">
        <ele>120</ele>
        <time>2021-09-12T07:11:13Z</time>
      </trkpt>
      <trkpt lat="48.36" lon="-3.69301">
        <ele>120.19999694824</ele>
        <time>2021-09-12T07:11:14Z</time>
      </trkpt>
      <trkpt lat="48.36001" lon="-3.69304">
        <ele>120.80000305176</ele>
        <time>2021-09-12T07:11:15Z</time>
      </trkpt>
      <trkpt lat="48.36001" lon="-3.69307">
        <ele>121.19999694824</ele>
        <time>2021-09-12T07:11:16Z</time>
      </trkpt>
      <trkpt lat="48.36" lon="-3.6931">
        <ele>121.19999694824</ele>
        <time>2021-09-12T07:11:17Z</time>
      </trkpt>
      <trkpt lat="48.35999" lon="-3.69312">
        <ele>121.40000152588</ele>
        <time>2021-09-12T07:11:18Z</time>
      </trkpt>
      <trkpt lat="48.35999" lon="-3.69316">
        <ele>121.40000152588</ele>
        <time>2021-09-12T07:11:19Z</time>
      </trkpt>
      <trkpt lat="48.35998" lon="-3.69319">
        <ele>121.40000152588</ele>
        <time>2021-09-12T07:11:20Z</time>
      </trkpt>
      <trkpt lat="48.35997" lon="-3.69324">
        <ele>121.40000152588</ele>
        <time>2021-09-12T07:11:21Z</time>
      </trkpt>
      <trkpt lat="48.35997" lon="-3.69329">
        <ele>121.59999847412</ele>
        <time>2021-09-12T07:11:22Z</time>
      </trkpt>
      <trkpt lat="48.35997" lon="-3.69334">
        <ele>121.40000152588</ele>
        <time>2021-09-12T07:11:23Z</time>
      </trkpt>
      <trkpt lat="48.35997" lon="-3.69338">
        <ele>121.40000152588</ele>
        <time>2021-09-12T07:11:24Z</time>
      </trkpt>
      <trkpt lat="48.35997" lon="-3.69342">
        <ele>121.40000152588</ele>
        <time>2021-09-12T07:11:25Z</time>
      </trkpt>
      <trkpt lat="48.35998" lon="-3.69346">
        <ele>121.40000152588</ele>
        <time>2021-09-12T07:11:26Z</time>
      </trkpt>
      <trkpt lat="48.35998" lon="-3.6935">
        <ele>121.59999847412</ele>
        <time>2021-09-12T07:11:27Z</time>
      </trkpt>
      <trkpt lat="48.35998" lon="-3.69354">
        <ele>121.59999847412</ele>
        <time>2021-09-12T07:11:28Z</time>
      </trkpt>
      <trkpt lat="48.35999" lon="-3.69359">
        <ele>121.80000305176</ele>
        <time>2021-09-12T07:11:29Z</time>
      </trkpt>
      <trkpt lat="48.35999" lon="-3.69364">
        <ele>121.80000305176</ele>
        <time>2021-09-12T07:11:30Z</time>
      </trkpt>
      <trkpt lat="48.35999" lon="-3.6937">
        <ele>121.80000305176</ele>
        <time>2021-09-12T07:11:31Z</time>
      </trkpt>
      <trkpt lat="48.35998" lon="-3.69375">
        <ele>121.80000305176</ele>
        <time>2021-09-12T07:11:32Z</time>
      </trkpt>
      <trkpt lat="48.35997" lon="-3.6938">
        <ele>121.59999847412</ele>
        <time>2021-09-12T07:11:33Z</time>
      </trkpt>
      <trkpt lat="48.35995" lon="-3.69387">
        <ele>121.59999847412</ele>
        <time>2021-09-12T07:11:34Z</time>
      </trkpt>
      <trkpt lat="48.35994" lon="-3.69394">
        <ele>120.40000152588</ele>
        <time>2021-09-12T07:11:35Z</time>
      </trkpt>
      <trkpt lat="48.35995" lon="-3.69398">
        <ele>120.19999694824</ele>
        <time>2021-09-12T07:11:36Z</time>
      </trkpt>
      <trkpt lat="48.35997" lon="-3.69405">
        <ele>119.59999847412</ele>
        <time>2021-09-12T07:11:37Z</time>
      </trkpt>
      <trkpt lat="48.35999" lon="-3.69409">
        <ele>118.59999847412</ele>
        <time>2021-09-12T07:11:38Z</time>
      </trkpt>
      <trkpt lat="48.36002" lon="-3.69412">
        <ele>118.59999847412</ele>
        <time>2021-09-12T07:11:39Z</time>
      </trkpt>
      <trkpt lat="48.36006" lon="-3.69415">
        <ele>118.40000152588</ele>
        <time>2021-09-12T07:11:40Z</time>
      </trkpt>
      <trkpt lat="48.36011" lon="-3.69418">
        <ele>118.19999694824</ele>
        <time>2021-09-12T07:11:41Z</time>
      </trkpt>
      <trkpt lat="48.36015" lon="-3.69422">
        <ele>117.80000305176</ele>
        <time>2021-09-12T07:11:42Z</time>
      </trkpt>
      <trkpt lat="48.36017" lon="-3.69426">
        <ele>116.80000305176</ele>
        <time>2021-09-12T07:11:43Z</time>
      </trkpt>
      <trkpt lat="48.36019" lon="-3.6943">
        <ele>116.40000152588</ele>
        <time>2021-09-12T07:11:44Z</time>
      </trkpt>
      <trkpt lat="48.3602" lon="-3.69435">
        <ele>115.59999847412</ele>
        <time>2021-09-12T07:11:45Z</time>
      </trkpt>
      <trkpt lat="48.36021" lon="-3.69439">
        <ele>115.40000152588</ele>
        <time>2021-09-12T07:11:46Z</time>
      </trkpt>
      <trkpt lat="48.36022" lon="-3.69444">
        <ele>114.80000305176</ele>
        <time>2021-09-12T07:11:47Z</time>
      </trkpt>
      <trkpt lat="48.36024" lon="-3.69449">
        <ele>114.80000305176</ele>
        <time>2021-09-12T07:11:48Z</time>
      </trkpt>
      <trkpt lat="48.36025" lon="-3.69454">
        <ele>114</ele>
        <time>2021-09-12T07:11:49Z</time>
      </trkpt>
      <trkpt lat="48.36027" lon="-3.69459">
        <ele>113.40000152588</ele>
        <time>2021-09-12T07:11:50Z</time>
      </trkpt>
      <trkpt lat="48.36029" lon="-3.69464">
        <ele>113</ele>
        <time>2021-09-12T07:11:51Z</time>
      </trkpt>
      <trkpt lat="48.36031" lon="-3.69469">
        <ele>111.59999847412</ele>
        <time>2021-09-12T07:11:52Z</time>
      </trkpt>
      <trkpt lat="48.36034" lon="-3.69475">
        <ele>110.80000305176</ele>
        <time>2021-09-12T07:11:53Z</time>
      </trkpt>
      <trkpt lat="48.36037" lon="-3.69483">
        <ele>109.80000305176</ele>
        <time>2021-09-12T07:11:54Z</time>
      </trkpt>
      <trkpt lat="48.36041" lon="-3.69491">
        <ele>109.19999694824</ele>
        <time>2021-09-12T07:11:55Z</time>
      </trkpt>
      <trkpt lat="48.36044" lon="-3.69499">
        <ele>108.40000152588</ele>
        <time>2021-09-12T07:11:56Z</time>
      </trkpt>
      <trkpt lat="48.36047" lon="-3.69507">
        <ele>107.19999694824</ele>
        <time>2021-09-12T07:11:57Z</time>
      </trkpt>
      <trkpt lat="48.3605" lon="-3.69516">
        <ele>105.59999847412</ele>
        <time>2021-09-12T07:11:58Z</time>
      </trkpt>
      <trkpt lat="48.36054" lon="-3.69524">
        <ele>104.40000152588</ele>
        <time>2021-09-12T07:11:59Z</time>
      </trkpt>
      <trkpt lat="48.36058" lon="-3.69531">
        <ele>103.19999694824</ele>
        <time>2021-09-12T07:12:00Z</time>
      </trkpt>
      <trkpt lat="48.36061" lon="-3.6954">
        <ele>102.40000152588</ele>
        <time>2021-09-12T07:12:01Z</time>
      </trkpt>
      <trkpt lat="48.36064" lon="-3.69546">
        <ele>101.19999694824</ele>
        <time>2021-09-12T07:12:02Z</time>
      </trkpt>
      <trkpt lat="48.36068" lon="-3.69553">
        <ele>100.80000305176</ele>
        <time>2021-09-12T07:12:03Z</time>
      </trkpt>
      <trkpt lat="48.36072" lon="-3.6956">
        <ele>99.400001525879</ele>
        <time>2021-09-12T07:12:04Z</time>
      </trkpt>
      <trkpt lat="48.36076" lon="-3.69566">
        <ele>98</ele>
        <time>2021-09-12T07:12:05Z</time>
      </trkpt>
      <trkpt lat="48.36078" lon="-3.69573">
        <ele>97.599998474121</ele>
        <time>2021-09-12T07:12:06Z</time>
      </trkpt>
      <trkpt lat="48.3608" lon="-3.69581">
        <ele>96.599998474121</ele>
        <time>2021-09-12T07:12:07Z</time>
      </trkpt>
      <trkpt lat="48.36082" lon="-3.69589">
        <ele>95.599998474121</ele>
        <time>2021-09-12T07:12:08Z</time>
      </trkpt>
      <trkpt lat="48.36086" lon="-3.69598">
        <ele>95</ele>
        <time>2021-09-12T07:12:09Z</time>
      </trkpt>
      <trkpt lat="48.36087" lon="-3.69606">
        <ele>94.599998474121</ele>
        <time>2021-09-12T07:12:10Z</time>
      </trkpt>
      <trkpt lat="48.36088" lon="-3.6962">
        <ele>93</ele>
        <time>2021-09-12T07:12:11Z</time>
      </trkpt>
      <trkpt lat="48.36088" lon="-3.69629">
        <ele>92.400001525879</ele>
        <time>2021-09-12T07:12:12Z</time>
      </trkpt>
      <trkpt lat="48.36088" lon="-3.69642">
        <ele>91.800003051758</ele>
        <time>2021-09-12T07:12:13Z</time>
      </trkpt>
      <trkpt lat="48.36089" lon="-3.69652">
        <ele>91.400001525879</ele>
        <time>2021-09-12T07:12:14Z</time>
      </trkpt>
      <trkpt lat="48.36089" lon="-3.69661">
        <ele>90.599998474121</ele>
        <time>2021-09-12T07:12:15Z</time>
      </trkpt>
      <trkpt lat="48.36089" lon="-3.6967">
        <ele>90.199996948242</ele>
        <time>2021-09-12T07:12:16Z</time>
      </trkpt>
      <trkpt lat="48.3609" lon="-3.69679">
        <ele>90</ele>
        <time>2021-09-12T07:12:17Z</time>
      </trkpt>
      <trkpt lat="48.36091" lon="-3.69687">
        <ele>89.800003051758</ele>
        <time>2021-09-12T07:12:18Z</time>
      </trkpt>
      <trkpt lat="48.36092" lon="-3.69697">
        <ele>89.800003051758</ele>
        <time>2021-09-12T07:12:19Z</time>
      </trkpt>
      <trkpt lat="48.36091" lon="-3.69708">
        <ele>89.599998474121</ele>
        <time>2021-09-12T07:12:20Z</time>
      </trkpt>
      <trkpt lat="48.36091" lon="-3.69718">
        <ele>89.400001525879</ele>
        <time>2021-09-12T07:12:21Z</time>
      </trkpt>
      <trkpt lat="48.36091" lon="-3.69725">
        <ele>89.199996948242</ele>
        <time>2021-09-12T07:12:22Z</time>
      </trkpt>
      <trkpt lat="48.36091" lon="-3.69731">
        <ele>89.199996948242</ele>
        <time>2021-09-12T07:12:23Z</time>
      </trkpt>
      <trkpt lat="48.36091" lon="-3.69737">
        <ele>89</ele>
        <time>2021-09-12T07:12:24Z</time>
      </trkpt>
      <trkpt lat="48.36092" lon="-3.69741">
        <ele>89</ele>
        <time>2021-09-12T07:12:25Z</time>
      </trkpt>
      <trkpt lat="48.36093" lon="-3.69747">
        <ele>88.800003051758</ele>
        <time>2021-09-12T07:12:26Z</time>
      </trkpt>
      <trkpt lat="48.36094" lon="-3.69751">
        <ele>88.599998474121</ele>
        <time>2021-09-12T07:12:27Z</time>
      </trkpt>
      <trkpt lat="48.36095" lon="-3.69757">
        <ele>88.400001525879</ele>
        <time>2021-09-12T07:12:28Z</time>
      </trkpt>
      <trkpt lat="48.36097" lon="-3.69763">
        <ele>88.400001525879</ele>
        <time>2021-09-12T07:12:29Z</time>
      </trkpt>
      <trkpt lat="48.36098" lon="-3.69768">
        <ele>88.199996948242</ele>
        <time>2021-09-12T07:12:30Z</time>
      </trkpt>
      <trkpt lat="48.36099" lon="-3.69774">
        <ele>88</ele>
        <time>2021-09-12T07:12:31Z</time>
      </trkpt>
      <trkpt lat="48.361" lon="-3.6978">
        <ele>87.800003051758</ele>
        <time>2021-09-12T07:12:32Z</time>
      </trkpt>
      <trkpt lat="48.36101" lon="-3.69784">
        <ele>87.800003051758</ele>
        <time>2021-09-12T07:12:33Z</time>
      </trkpt>
      <trkpt lat="48.36103" lon="-3.6979">
        <ele>87.599998474121</ele>
        <time>2021-09-12T07:12:34Z</time>
      </trkpt>
      <trkpt lat="48.36105" lon="-3.69796">
        <ele>87.400001525879</ele>
        <time>2021-09-12T07:12:35Z</time>
      </trkpt>
      <trkpt lat="48.36108" lon="-3.69801">
        <ele>87.199996948242</ele>
        <time>2021-09-12T07:12:36Z</time>
      </trkpt>
      <trkpt lat="48.36112" lon="-3.69805">
        <ele>87</ele>
        <time>2021-09-12T07:12:37Z</time>
      </trkpt>
      <trkpt lat="48.36113" lon="-3.6981">
        <ele>87</ele>
        <time>2021-09-12T07:12:38Z</time>
      </trkpt>
      <trkpt lat="48.36115" lon="-3.69816">
        <ele>87</ele>
        <time>2021-09-12T07:12:39Z</time>
      </trkpt>
      <trkpt lat="48.36116" lon="-3.69823">
        <ele>87</ele>
        <time>2021-09-12T07:12:40Z</time>
      </trkpt>
      <trkpt lat="48.36117" lon="-3.69828">
        <ele>86.800003051758</ele>
        <time>2021-09-12T07:12:41Z</time>
      </trkpt>
      <trkpt lat="48.36117" lon="-3.69832">
        <ele>86.800003051758</ele>
        <time>2021-09-12T07:12:42Z</time>
      </trkpt>
      <trkpt lat="48.36117" lon="-3.69835">
        <ele>86.599998474121</ele>
        <time>2021-09-12T07:12:43Z</time>
      </trkpt>
      <trkpt lat="48.36116" lon="-3.69837">
        <ele>86.599998474121</ele>
        <time>2021-09-12T07:12:44Z</time>
      </trkpt>
      <trkpt lat="48.36116" lon="-3.69839">
        <ele>86.599998474121</ele>
        <time>2021-09-12T07:12:45Z</time>
      </trkpt>
      <trkpt lat="48.36116" lon="-3.69841">
        <ele>86.599998474121</ele>
        <time>2021-09-12T07:12:46Z</time>
      </trkpt>
      <trkpt lat="48.36116" lon="-3.69843">
        <ele>86.599998474121</ele>
        <time>2021-09-12T07:12:47Z</time>
      </trkpt>
      <trkpt lat="48.36116" lon="-3.69845">
        <ele>86.599998474121</ele>
        <time>2021-09-12T07:12:48Z</time>
      </trkpt>
      <trkpt lat="48.36116" lon="-3.69848">
        <ele>86.599998474121</ele>
        <time>2021-09-12T07:12:49Z</time>
      </trkpt>
      <trkpt lat="48.36117" lon="-3.69849">
        <ele>86.599998474121</ele>
        <time>2021-09-12T07:12:50Z</time>
      </trkpt>
      <trkpt lat="48.36118" lon="-3.69851">
        <ele>86.599998474121</ele>
        <time>2021-09-12T07:12:51Z</time>
      </trkpt>
      <trkpt lat="48.36118" lon="-3.69853">
        <ele>86.599998474121</ele>
        <time>2021-09-12T07:12:52Z</time>
      </trkpt>
      <trkpt lat="48.36119" lon="-3.69855">
        <ele>86.800003051758</ele>
        <time>2021-09-12T07:12:53Z</time>
      </trkpt>
      <trkpt lat="48.36118" lon="-3.69858">
        <ele>86.800003051758</ele>
        <time>2021-09-12T07:12:54Z</time>
      </trkpt>
      <trkpt lat="48.36117" lon="-3.6986">
        <ele>86.800003051758</ele>
        <time>2021-09-12T07:12:55Z</time>
      </trkpt>
      <trkpt lat="48.36117" lon="-3.69862">
        <ele>86.800003051758</ele>
        <time>2021-09-12T07:12:56Z</time>
      </trkpt>
      <trkpt lat="48.36118" lon="-3.69865">
        <ele>86.599998474121</ele>
        <time>2021-09-12T07:12:57Z</time>
      </trkpt>
      <trkpt lat="48.36118" lon="-3.69867">
        <ele>86.400001525879</ele>
        <time>2021-09-12T07:12:58Z</time>
      </trkpt>
      <trkpt lat="48.36118" lon="-3.69869">
        <ele>86.199996948242</ele>
        <time>2021-09-12T07:12:59Z</time>
      </trkpt>
      <trkpt lat="48.36119" lon="-3.69872">
        <ele>86.199996948242</ele>
        <time>2021-09-12T07:13:00Z</time>
      </trkpt>
      <trkpt lat="48.36119" lon="-3.69874">
        <ele>86.199996948242</ele>
        <time>2021-09-12T07:13:01Z</time>
      </trkpt>
      <trkpt lat="48.36119" lon="-3.69877">
        <ele>86.199996948242</ele>
        <time>2021-09-12T07:13:02Z</time>
      </trkpt>
      <trkpt lat="48.3612" lon="-3.69879">
        <ele>86.199996948242</ele>
        <time>2021-09-12T07:13:03Z</time>
      </trkpt>
      <trkpt lat="48.36119" lon="-3.69883">
        <ele>86</ele>
        <time>2021-09-12T07:13:04Z</time>
      </trkpt>
      <trkpt lat="48.3612" lon="-3.69884">
        <ele>86</ele>
        <time>2021-09-12T07:13:05Z</time>
      </trkpt>
      <trkpt lat="48.3612" lon="-3.69884">
        <ele>86</ele>
        <time>2021-09-12T07:13:06Z</time>
      </trkpt>
      <trkpt lat="48.3612" lon="-3.69885">
        <ele>86</ele>
        <time>2021-09-12T07:13:07Z</time>
      </trkpt>
      <trkpt lat="48.36118" lon="-3.6993">
        <ele>85.400001525879</ele>
        <time>2021-09-12T07:13:42Z</time>
      </trkpt>
      <trkpt lat="48.36118" lon="-3.69933">
        <ele>85.400001525879</ele>
        <time>2021-09-12T07:13:43Z</time>
      </trkpt>
      <trkpt lat="48.36118" lon="-3.69935">
        <ele>85.199996948242</ele>
        <time>2021-09-12T07:13:44Z</time>
      </trkpt>
      <trkpt lat="48.36118" lon="-3.69939">
        <ele>85.400001525879</ele>
        <time>2021-09-12T07:13:45Z</time>
      </trkpt>
      <trkpt lat="48.36119" lon="-3.69942">
        <ele>85.400001525879</ele>
        <time>2021-09-12T07:13:46Z</time>
      </trkpt>
      <trkpt lat="48.36119" lon="-3.69944">
        <ele>85.400001525879</ele>
        <time>2021-09-12T07:13:47Z</time>
      </trkpt>
      <trkpt lat="48.36119" lon="-3.69947">
        <ele>85.400001525879</ele>
        <time>2021-09-12T07:13:48Z</time>
      </trkpt>
      <trkpt lat="48.36119" lon="-3.6995">
        <ele>85.400001525879</ele>
        <time>2021-09-12T07:13:49Z</time>
      </trkpt>
      <trkpt lat="48.3612" lon="-3.69953">
        <ele>85.599998474121</ele>
        <time>2021-09-12T07:13:50Z</time>
      </trkpt>
      <trkpt lat="48.36121" lon="-3.69958">
        <ele>85.599998474121</ele>
        <time>2021-09-12T07:13:51Z</time>
      </trkpt>
      <trkpt lat="48.36121" lon="-3.69962">
        <ele>85.599998474121</ele>
        <time>2021-09-12T07:13:52Z</time>
      </trkpt>
      <trkpt lat="48.36122" lon="-3.69967">
        <ele>85.599998474121</ele>
        <time>2021-09-12T07:13:53Z</time>
      </trkpt>
      <trkpt lat="48.36123" lon="-3.69972">
        <ele>85.599998474121</ele>
        <time>2021-09-12T07:13:54Z</time>
      </trkpt>
      <trkpt lat="48.36124" lon="-3.69977">
        <ele>85.599998474121</ele>
        <time>2021-09-12T07:13:55Z</time>
      </trkpt>
      <trkpt lat="48.36125" lon="-3.69982">
        <ele>85.800003051758</ele>
        <time>2021-09-12T07:13:56Z</time>
      </trkpt>
      <trkpt lat="48.36126" lon="-3.69987">
        <ele>85.800003051758</ele>
        <time>2021-09-12T07:13:57Z</time>
      </trkpt>
      <trkpt lat="48.36127" lon="-3.69991">
        <ele>85.800003051758</ele>
        <time>2021-09-12T07:13:58Z</time>
      </trkpt>
      <trkpt lat="48.36129" lon="-3.69996">
        <ele>86</ele>
        <time>2021-09-12T07:13:59Z</time>
      </trkpt>
      <trkpt lat="48.36131" lon="-3.70001">
        <ele>86</ele>
        <time>2021-09-12T07:14:00Z</time>
      </trkpt>
      <trkpt lat="48.36133" lon="-3.70006">
        <ele>86</ele>
        <time>2021-09-12T07:14:01Z</time>
      </trkpt>
      <trkpt lat="48.36134" lon="-3.70011">
        <ele>86</ele>
        <time>2021-09-12T07:14:02Z</time>
      </trkpt>
      <trkpt lat="48.36136" lon="-3.70015">
        <ele>86</ele>
        <time>2021-09-12T07:14:03Z</time>
      </trkpt>
      <trkpt lat="48.36137" lon="-3.7002">
        <ele>86</ele>
        <time>2021-09-12T07:14:04Z</time>
      </trkpt>
      <trkpt lat="48.36138" lon="-3.70024">
        <ele>86.199996948242</ele>
        <time>2021-09-12T07:14:05Z</time>
      </trkpt>
      <trkpt lat="48.3614" lon="-3.70029">
        <ele>86.199996948242</ele>
        <time>2021-09-12T07:14:06Z</time>
      </trkpt>
      <trkpt lat="48.36142" lon="-3.70033">
        <ele>86.400001525879</ele>
        <time>2021-09-12T07:14:07Z</time>
      </trkpt>
      <trkpt lat="48.36144" lon="-3.70039">
        <ele>86.400001525879</ele>
        <time>2021-09-12T07:14:08Z</time>
      </trkpt>
      <trkpt lat="48.36144" lon="-3.70044">
        <ele>86.400001525879</ele>
        <time>2021-09-12T07:14:09Z</time>
      </trkpt>
      <trkpt lat="48.36144" lon="-3.7005">
        <ele>86.400001525879</ele>
        <time>2021-09-12T07:14:10Z</time>
      </trkpt>
      <trkpt lat="48.36146" lon="-3.70054">
        <ele>86.400001525879</ele>
        <time>2021-09-12T07:14:11Z</time>
      </trkpt>
      <trkpt lat="48.36148" lon="-3.70058">
        <ele>86.400001525879</ele>
        <time>2021-09-12T07:14:12Z</time>
      </trkpt>
      <trkpt lat="48.36151" lon="-3.70063">
        <ele>86.599998474121</ele>
        <time>2021-09-12T07:14:13Z</time>
      </trkpt>
      <trkpt lat="48.36153" lon="-3.70069">
        <ele>86.800003051758</ele>
        <time>2021-09-12T07:14:14Z</time>
      </trkpt>
      <trkpt lat="48.36154" lon="-3.70074">
        <ele>86.800003051758</ele>
        <time>2021-09-12T07:14:15Z</time>
      </trkpt>
      <trkpt lat="48.36156" lon="-3.70079">
        <ele>86.800003051758</ele>
        <time>2021-09-12T07:14:16Z</time>
      </trkpt>
      <trkpt lat="48.36158" lon="-3.70084">
        <ele>87</ele>
        <time>2021-09-12T07:14:17Z</time>
      </trkpt>
      <trkpt lat="48.3616" lon="-3.70091">
        <ele>87.199996948242</ele>
        <time>2021-09-12T07:14:18Z</time>
      </trkpt>
      <trkpt lat="48.36162" lon="-3.70097">
        <ele>87.400001525879</ele>
        <time>2021-09-12T07:14:19Z</time>
      </trkpt>
      <trkpt lat="48.36163" lon="-3.70102">
        <ele>87.400001525879</ele>
        <time>2021-09-12T07:14:20Z</time>
      </trkpt>
      <trkpt lat="48.36163" lon="-3.70106">
        <ele>87.400001525879</ele>
        <time>2021-09-12T07:14:21Z</time>
      </trkpt>
      <trkpt lat="48.36165" lon="-3.70111">
        <ele>87.599998474121</ele>
        <time>2021-09-12T07:14:22Z</time>
      </trkpt>
      <trkpt lat="48.36166" lon="-3.70115">
        <ele>87.599998474121</ele>
        <time>2021-09-12T07:14:23Z</time>
      </trkpt>
      <trkpt lat="48.36169" lon="-3.70119">
        <ele>87.599998474121</ele>
        <time>2021-09-12T07:14:24Z</time>
      </trkpt>
      <trkpt lat="48.36171" lon="-3.70122">
        <ele>87.599998474121</ele>
        <time>2021-09-12T07:14:25Z</time>
      </trkpt>
      <trkpt lat="48.36172" lon="-3.70126">
        <ele>87.800003051758</ele>
        <time>2021-09-12T07:14:26Z</time>
      </trkpt>
      <trkpt lat="48.36172" lon="-3.70133">
        <ele>87.800003051758</ele>
        <time>2021-09-12T07:14:27Z</time>
      </trkpt>
      <trkpt lat="48.36175" lon="-3.70141">
        <ele>87.800003051758</ele>
        <time>2021-09-12T07:14:28Z</time>
      </trkpt>
      <trkpt lat="48.36177" lon="-3.70147">
        <ele>88</ele>
        <time>2021-09-12T07:14:29Z</time>
      </trkpt>
      <trkpt lat="48.3618" lon="-3.70153">
        <ele>88</ele>
        <time>2021-09-12T07:14:30Z</time>
      </trkpt>
      <trkpt lat="48.36182" lon="-3.7016">
        <ele>88</ele>
        <time>2021-09-12T07:14:31Z</time>
      </trkpt>
      <trkpt lat="48.36184" lon="-3.70166">
        <ele>88</ele>
        <time>2021-09-12T07:14:32Z</time>
      </trkpt>
      <trkpt lat="48.36186" lon="-3.70173">
        <ele>88</ele>
        <time>2021-09-12T07:14:33Z</time>
      </trkpt>
      <trkpt lat="48.36187" lon="-3.70181">
        <ele>88</ele>
        <time>2021-09-12T07:14:34Z</time>
      </trkpt>
      <trkpt lat="48.36188" lon="-3.70185">
        <ele>88.199996948242</ele>
        <time>2021-09-12T07:14:35Z</time>
      </trkpt>
      <trkpt lat="48.3619" lon="-3.7019">
        <ele>88.199996948242</ele>
        <time>2021-09-12T07:14:36Z</time>
      </trkpt>
      <trkpt lat="48.36193" lon="-3.70196">
        <ele>88.199996948242</ele>
        <time>2021-09-12T07:14:37Z</time>
      </trkpt>
      <trkpt lat="48.36195" lon="-3.70199">
        <ele>88.199996948242</ele>
        <time>2021-09-12T07:14:38Z</time>
      </trkpt>
      <trkpt lat="48.36197" lon="-3.70203">
        <ele>88.199996948242</ele>
        <time>2021-09-12T07:14:39Z</time>
      </trkpt>
      <trkpt lat="48.36201" lon="-3.70208">
        <ele>88.199996948242</ele>
        <time>2021-09-12T07:14:40Z</time>
      </trkpt>
      <trkpt lat="48.36204" lon="-3.70214">
        <ele>88.199996948242</ele>
        <time>2021-09-12T07:14:41Z</time>
      </trkpt>
      <trkpt lat="48.36209" lon="-3.70218">
        <ele>88.199996948242</ele>
        <time>2021-09-12T07:14:42Z</time>
      </trkpt>
      <trkpt lat="48.3621" lon="-3.70221">
        <ele>88.199996948242</ele>
        <time>2021-09-12T07:14:43Z</time>
      </trkpt>
      <trkpt lat="48.36214" lon="-3.70224">
        <ele>88.400001525879</ele>
        <time>2021-09-12T07:14:44Z</time>
      </trkpt>
      <trkpt lat="48.36217" lon="-3.70227">
        <ele>88.400001525879</ele>
        <time>2021-09-12T07:14:45Z</time>
      </trkpt>
      <trkpt lat="48.36221" lon="-3.7023">
        <ele>88.400001525879</ele>
        <time>2021-09-12T07:14:46Z</time>
      </trkpt>
      <trkpt lat="48.36226" lon="-3.70233">
        <ele>88.400001525879</ele>
        <time>2021-09-12T07:14:47Z</time>
      </trkpt>
      <trkpt lat="48.3623" lon="-3.70235">
        <ele>88.800003051758</ele>
        <time>2021-09-12T07:14:48Z</time>
      </trkpt>
      <trkpt lat="48.36234" lon="-3.70237">
        <ele>88.800003051758</ele>
        <time>2021-09-12T07:14:49Z</time>
      </trkpt>
      <trkpt lat="48.36237" lon="-3.70239">
        <ele>88.800003051758</ele>
        <time>2021-09-12T07:14:50Z</time>
      </trkpt>
      <trkpt lat="48.36241" lon="-3.70242">
        <ele>89.199996948242</ele>
        <time>2021-09-12T07:14:51Z</time>
      </trkpt>
      <trkpt lat="48.36244" lon="-3.70244">
        <ele>89.400001525879</ele>
        <time>2021-09-12T07:14:52Z</time>
      </trkpt>
      <trkpt lat="48.36248" lon="-3.70247">
        <ele>89.400001525879</ele>
        <time>2021-09-12T07:14:53Z</time>
      </trkpt>
      <trkpt lat="48.36252" lon="-3.70249">
        <ele>89.599998474121</ele>
        <time>2021-09-12T07:14:54Z</time>
      </trkpt>
      <trkpt lat="48.36256" lon="-3.70252">
        <ele>89.599998474121</ele>
        <time>2021-09-12T07:14:55Z</time>
      </trkpt>
      <trkpt lat="48.36259" lon="-3.70254">
        <ele>89.800003051758</ele>
        <time>2021-09-12T07:14:56Z</time>
      </trkpt>
      <trkpt lat="48.36263" lon="-3.70256">
        <ele>89.800003051758</ele>
        <time>2021-09-12T07:14:57Z</time>
      </trkpt>
      <trkpt lat="48.36267" lon="-3.70259">
        <ele>89.800003051758</ele>
        <time>2021-09-12T07:14:58Z</time>
      </trkpt>
      <trkpt lat="48.3627" lon="-3.7026">
        <ele>90</ele>
        <time>2021-09-12T07:14:59Z</time>
      </trkpt>
      <trkpt lat="48.36274" lon="-3.70262">
        <ele>90.199996948242</ele>
        <time>2021-09-12T07:15:00Z</time>
      </trkpt>
      <trkpt lat="48.36278" lon="-3.70265">
        <ele>90.199996948242</ele>
        <time>2021-09-12T07:15:01Z</time>
      </trkpt>
      <trkpt lat="48.36282" lon="-3.70266">
        <ele>90.199996948242</ele>
        <time>2021-09-12T07:15:02Z</time>
      </trkpt>
      <trkpt lat="48.36287" lon="-3.70268">
        <ele>90.400001525879</ele>
        <time>2021-09-12T07:15:03Z</time>
      </trkpt>
      <trkpt lat="48.3629" lon="-3.7027">
        <ele>90.400001525879</ele>
        <time>2021-09-12T07:15:04Z</time>
      </trkpt>
      <trkpt lat="48.36293" lon="-3.70271">
        <ele>90.599998474121</ele>
        <time>2021-09-12T07:15:05Z</time>
      </trkpt>
      <trkpt lat="48.36297" lon="-3.70273">
        <ele>90.800003051758</ele>
        <time>2021-09-12T07:15:06Z</time>
      </trkpt>
      <trkpt lat="48.363" lon="-3.70275">
        <ele>90.800003051758</ele>
        <time>2021-09-12T07:15:07Z</time>
      </trkpt>
      <trkpt lat="48.36303" lon="-3.70276">
        <ele>91.199996948242</ele>
        <time>2021-09-12T07:15:08Z</time>
      </trkpt>
      <trkpt lat="48.36307" lon="-3.70277">
        <ele>91.199996948242</ele>
        <time>2021-09-12T07:15:09Z</time>
      </trkpt>
      <trkpt lat="48.3631" lon="-3.70276">
        <ele>91.599998474121</ele>
        <time>2021-09-12T07:15:10Z</time>
      </trkpt>
      <trkpt lat="48.36312" lon="-3.70275">
        <ele>91.599998474121</ele>
        <time>2021-09-12T07:15:11Z</time>
      </trkpt>
      <trkpt lat="48.36315" lon="-3.70274">
        <ele>92</ele>
        <time>2021-09-12T07:15:12Z</time>
      </trkpt>
      <trkpt lat="48.36318" lon="-3.70273">
        <ele>92</ele>
        <time>2021-09-12T07:15:13Z</time>
      </trkpt>
      <trkpt lat="48.36321" lon="-3.70272">
        <ele>92.599998474121</ele>
        <time>2021-09-12T07:15:14Z</time>
      </trkpt>
      <trkpt lat="48.36323" lon="-3.70271">
        <ele>92.599998474121</ele>
        <time>2021-09-12T07:15:15Z</time>
      </trkpt>
      <trkpt lat="48.36326" lon="-3.70268">
        <ele>93</ele>
        <time>2021-09-12T07:15:16Z</time>
      </trkpt>
      <trkpt lat="48.3633" lon="-3.70267">
        <ele>93.199996948242</ele>
        <time>2021-09-12T07:15:17Z</time>
      </trkpt>
      <trkpt lat="48.36333" lon="-3.70266">
        <ele>93.400001525879</ele>
        <time>2021-09-12T07:15:18Z</time>
      </trkpt>
      <trkpt lat="48.36336" lon="-3.70265">
        <ele>93.599998474121</ele>
        <time>2021-09-12T07:15:19Z</time>
      </trkpt>
      <trkpt lat="48.36338" lon="-3.70264">
        <ele>93.800003051758</ele>
        <time>2021-09-12T07:15:20Z</time>
      </trkpt>
      <trkpt lat="48.36341" lon="-3.70263">
        <ele>94.199996948242</ele>
        <time>2021-09-12T07:15:21Z</time>
      </trkpt>
      <trkpt lat="48.36343" lon="-3.70262">
        <ele>94.599998474121</ele>
        <time>2021-09-12T07:15:22Z</time>
      </trkpt>
      <trkpt lat="48.36346" lon="-3.70262">
        <ele>94.800003051758</ele>
        <time>2021-09-12T07:15:23Z</time>
      </trkpt>
      <trkpt lat="48.36348" lon="-3.70263">
        <ele>95</ele>
        <time>2021-09-12T07:15:24Z</time>
      </trkpt>
      <trkpt lat="48.36352" lon="-3.70263">
        <ele>95.199996948242</ele>
        <time>2021-09-12T07:15:25Z</time>
      </trkpt>
      <trkpt lat="48.36355" lon="-3.70265">
        <ele>95.400001525879</ele>
        <time>2021-09-12T07:15:26Z</time>
      </trkpt>
      <trkpt lat="48.36357" lon="-3.70267">
        <ele>95.599998474121</ele>
        <time>2021-09-12T07:15:27Z</time>
      </trkpt>
      <trkpt lat="48.3636" lon="-3.7027">
        <ele>96.199996948242</ele>
        <time>2021-09-12T07:15:28Z</time>
      </trkpt>
      <trkpt lat="48.36363" lon="-3.70274">
        <ele>96.400001525879</ele>
        <time>2021-09-12T07:15:29Z</time>
      </trkpt>
      <trkpt lat="48.36365" lon="-3.70279">
        <ele>96.400001525879</ele>
        <time>2021-09-12T07:15:30Z</time>
      </trkpt>
      <trkpt lat="48.36367" lon="-3.70284">
        <ele>96.400001525879</ele>
        <time>2021-09-12T07:15:31Z</time>
      </trkpt>
      <trkpt lat="48.36368" lon="-3.7029">
        <ele>96.400001525879</ele>
        <time>2021-09-12T07:15:32Z</time>
      </trkpt>
      <trkpt lat="48.36368" lon="-3.70294">
        <ele>96.400001525879</ele>
        <time>2021-09-12T07:15:33Z</time>
      </trkpt>
      <trkpt lat="48.36368" lon="-3.70302">
        <ele>96.400001525879</ele>
        <time>2021-09-12T07:15:34Z</time>
      </trkpt>
      <trkpt lat="48.36369" lon="-3.70309">
        <ele>96.400001525879</ele>
        <time>2021-09-12T07:15:35Z</time>
      </trkpt>
      <trkpt lat="48.3637" lon="-3.70315">
        <ele>96.199996948242</ele>
        <time>2021-09-12T07:15:36Z</time>
      </trkpt>
      <trkpt lat="48.36371" lon="-3.70321">
        <ele>95.800003051758</ele>
        <time>2021-09-12T07:15:37Z</time>
      </trkpt>
      <trkpt lat="48.36372" lon="-3.70328">
        <ele>95.800003051758</ele>
        <time>2021-09-12T07:15:38Z</time>
      </trkpt>
      <trkpt lat="48.36372" lon="-3.70336">
        <ele>95.800003051758</ele>
        <time>2021-09-12T07:15:39Z</time>
      </trkpt>
      <trkpt lat="48.36374" lon="-3.70344">
        <ele>95.599998474121</ele>
        <time>2021-09-12T07:15:40Z</time>
      </trkpt>
      <trkpt lat="48.36375" lon="-3.70352">
        <ele>95.400001525879</ele>
        <time>2021-09-12T07:15:41Z</time>
      </trkpt>
      <trkpt lat="48.36376" lon="-3.70361">
        <ele>95</ele>
        <time>2021-09-12T07:15:42Z</time>
      </trkpt>
      <trkpt lat="48.36377" lon="-3.70369">
        <ele>94.800003051758</ele>
        <time>2021-09-12T07:15:43Z</time>
      </trkpt>
      <trkpt lat="48.36378" lon="-3.70378">
        <ele>94.599998474121</ele>
        <time>2021-09-12T07:15:44Z</time>
      </trkpt>
      <trkpt lat="48.3638" lon="-3.70386">
        <ele>94.599998474121</ele>
        <time>2021-09-12T07:15:45Z</time>
      </trkpt>
      <trkpt lat="48.36381" lon="-3.70395">
        <ele>94.400001525879</ele>
        <time>2021-09-12T07:15:46Z</time>
      </trkpt>
      <trkpt lat="48.36382" lon="-3.70403">
        <ele>94</ele>
        <time>2021-09-12T07:15:47Z</time>
      </trkpt>
      <trkpt lat="48.36383" lon="-3.70415">
        <ele>94</ele>
        <time>2021-09-12T07:15:48Z</time>
      </trkpt>
      <trkpt lat="48.36384" lon="-3.70425">
        <ele>93.800003051758</ele>
        <time>2021-09-12T07:15:49Z</time>
      </trkpt>
      <trkpt lat="48.36386" lon="-3.70434">
        <ele>93.599998474121</ele>
        <time>2021-09-12T07:15:50Z</time>
      </trkpt>
      <trkpt lat="48.36387" lon="-3.70444">
        <ele>93.599998474121</ele>
        <time>2021-09-12T07:15:51Z</time>
      </trkpt>
      <trkpt lat="48.36389" lon="-3.70452">
        <ele>93</ele>
        <time>2021-09-12T07:15:52Z</time>
      </trkpt>
      <trkpt lat="48.36392" lon="-3.70463">
        <ele>93</ele>
        <time>2021-09-12T07:15:53Z</time>
      </trkpt>
      <trkpt lat="48.36393" lon="-3.70473">
        <ele>92.800003051758</ele>
        <time>2021-09-12T07:15:54Z</time>
      </trkpt>
      <trkpt lat="48.36395" lon="-3.70483">
        <ele>92.800003051758</ele>
        <time>2021-09-12T07:15:55Z</time>
      </trkpt>
      <trkpt lat="48.36396" lon="-3.70494">
        <ele>92.599998474121</ele>
        <time>2021-09-12T07:15:56Z</time>
      </trkpt>
      <trkpt lat="48.36397" lon="-3.70504">
        <ele>92</ele>
        <time>2021-09-12T07:15:57Z</time>
      </trkpt>
      <trkpt lat="48.36399" lon="-3.70516">
        <ele>92</ele>
        <time>2021-09-12T07:15:58Z</time>
      </trkpt>
      <trkpt lat="48.364" lon="-3.70527">
        <ele>92</ele>
        <time>2021-09-12T07:15:59Z</time>
      </trkpt>
      <trkpt lat="48.36401" lon="-3.70539">
        <ele>91.599998474121</ele>
        <time>2021-09-12T07:16:00Z</time>
      </trkpt>
      <trkpt lat="48.36403" lon="-3.70548">
        <ele>91.199996948242</ele>
        <time>2021-09-12T07:16:01Z</time>
      </trkpt>
      <trkpt lat="48.36404" lon="-3.70558">
        <ele>91.199996948242</ele>
        <time>2021-09-12T07:16:02Z</time>
      </trkpt>
      <trkpt lat="48.36404" lon="-3.70567">
        <ele>90.800003051758</ele>
        <time>2021-09-12T07:16:03Z</time>
      </trkpt>
      <trkpt lat="48.36405" lon="-3.70577">
        <ele>90.400001525879</ele>
        <time>2021-09-12T07:16:04Z</time>
      </trkpt>
      <trkpt lat="48.36405" lon="-3.70586">
        <ele>90.400001525879</ele>
        <time>2021-09-12T07:16:05Z</time>
      </trkpt>
      <trkpt lat="48.36407" lon="-3.70594">
        <ele>90.199996948242</ele>
        <time>2021-09-12T07:16:06Z</time>
      </trkpt>
      <trkpt lat="48.36409" lon="-3.70602">
        <ele>90.199996948242</ele>
        <time>2021-09-12T07:16:07Z</time>
      </trkpt>
      <trkpt lat="48.36412" lon="-3.70608">
        <ele>90.199996948242</ele>
        <time>2021-09-12T07:16:08Z</time>
      </trkpt>
      <trkpt lat="48.36416" lon="-3.70614">
        <ele>90.199996948242</ele>
        <time>2021-09-12T07:16:09Z</time>
      </trkpt>
      <trkpt lat="48.3642" lon="-3.7062">
        <ele>90.199996948242</ele>
        <time>2021-09-12T07:16:10Z</time>
      </trkpt>
      <trkpt lat="48.36423" lon="-3.70627">
        <ele>90.199996948242</ele>
        <time>2021-09-12T07:16:11Z</time>
      </trkpt>
      <trkpt lat="48.36427" lon="-3.70634">
        <ele>90.199996948242</ele>
        <time>2021-09-12T07:16:12Z</time>
      </trkpt>
      <trkpt lat="48.36429" lon="-3.7064">
        <ele>90.400001525879</ele>
        <time>2021-09-12T07:16:13Z</time>
      </trkpt>
      <trkpt lat="48.36433" lon="-3.70649">
        <ele>90.400001525879</ele>
        <time>2021-09-12T07:16:14Z</time>
      </trkpt>
      <trkpt lat="48.36436" lon="-3.70656">
        <ele>90.599998474121</ele>
        <time>2021-09-12T07:16:15Z</time>
      </trkpt>
      <trkpt lat="48.36438" lon="-3.70664">
        <ele>90.599998474121</ele>
        <time>2021-09-12T07:16:16Z</time>
      </trkpt>
      <trkpt lat="48.36441" lon="-3.70672">
        <ele>90.599998474121</ele>
        <time>2021-09-12T07:16:17Z</time>
      </trkpt>
      <trkpt lat="48.36442" lon="-3.70678">
        <ele>90.599998474121</ele>
        <time>2021-09-12T07:16:18Z</time>
      </trkpt>
      <trkpt lat="48.36445" lon="-3.70688">
        <ele>90.800003051758</ele>
        <time>2021-09-12T07:16:19Z</time>
      </trkpt>
      <trkpt lat="48.36447" lon="-3.70696">
        <ele>90.800003051758</ele>
        <time>2021-09-12T07:16:20Z</time>
      </trkpt>
      <trkpt lat="48.36449" lon="-3.70703">
        <ele>90.800003051758</ele>
        <time>2021-09-12T07:16:21Z</time>
      </trkpt>
      <trkpt lat="48.3645" lon="-3.70713">
        <ele>90.599998474121</ele>
        <time>2021-09-12T07:16:22Z</time>
      </trkpt>
      <trkpt lat="48.36451" lon="-3.70721">
        <ele>90.800003051758</ele>
        <time>2021-09-12T07:16:23Z</time>
      </trkpt>
      <trkpt lat="48.36451" lon="-3.70729">
        <ele>90.800003051758</ele>
        <time>2021-09-12T07:16:24Z</time>
      </trkpt>
      <trkpt lat="48.36452" lon="-3.70737">
        <ele>90.800003051758</ele>
        <time>2021-09-12T07:16:25Z</time>
      </trkpt>
      <trkpt lat="48.36453" lon="-3.70742">
        <ele>90.800003051758</ele>
        <time>2021-09-12T07:16:26Z</time>
      </trkpt>
      <trkpt lat="48.36456" lon="-3.70748">
        <ele>90.800003051758</ele>
        <time>2021-09-12T07:16:27Z</time>
      </trkpt>
      <trkpt lat="48.36459" lon="-3.70751">
        <ele>90.800003051758</ele>
        <time>2021-09-12T07:16:28Z</time>
      </trkpt>
      <trkpt lat="48.36462" lon="-3.70752">
        <ele>91</ele>
        <time>2021-09-12T07:16:29Z</time>
      </trkpt>
      <trkpt lat="48.36465" lon="-3.70753">
        <ele>91.199996948242</ele>
        <time>2021-09-12T07:16:30Z</time>
      </trkpt>
      <trkpt lat="48.36467" lon="-3.70753">
        <ele>91.800003051758</ele>
        <time>2021-09-12T07:16:31Z</time>
      </trkpt>
      <trkpt lat="48.36471" lon="-3.70754">
        <ele>91.800003051758</ele>
        <time>2021-09-12T07:16:32Z</time>
      </trkpt>
      <trkpt lat="48.36475" lon="-3.70755">
        <ele>92</ele>
        <time>2021-09-12T07:16:33Z</time>
      </trkpt>
      <trkpt lat="48.36478" lon="-3.70756">
        <ele>92.199996948242</ele>
        <time>2021-09-12T07:16:34Z</time>
      </trkpt>
      <trkpt lat="48.36479" lon="-3.70756">
        <ele>92.199996948242</ele>
        <time>2021-09-12T07:16:35Z</time>
      </trkpt>
      <trkpt lat="48.36482" lon="-3.70757">
        <ele>92.400001525879</ele>
        <time>2021-09-12T07:16:36Z</time>
      </trkpt>
      <trkpt lat="48.36485" lon="-3.70758">
        <ele>93</ele>
        <time>2021-09-12T07:16:37Z</time>
      </trkpt>
      <trkpt lat="48.36488" lon="-3.70758">
        <ele>93</ele>
        <time>2021-09-12T07:16:38Z</time>
      </trkpt>
      <trkpt lat="48.36491" lon="-3.70759">
        <ele>93.400001525879</ele>
        <time>2021-09-12T07:16:39Z</time>
      </trkpt>
      <trkpt lat="48.36493" lon="-3.70759">
        <ele>93.400001525879</ele>
        <time>2021-09-12T07:16:40Z</time>
      </trkpt>
      <trkpt lat="48.36496" lon="-3.70759">
        <ele>93.800003051758</ele>
        <time>2021-09-12T07:16:41Z</time>
      </trkpt>
      <trkpt lat="48.36497" lon="-3.70759">
        <ele>94</ele>
        <time>2021-09-12T07:16:42Z</time>
      </trkpt>
      <trkpt lat="48.365" lon="-3.70759">
        <ele>94.599998474121</ele>
        <time>2021-09-12T07:16:43Z</time>
      </trkpt>
      <trkpt lat="48.36503" lon="-3.70759">
        <ele>94.599998474121</ele>
        <time>2021-09-12T07:16:44Z</time>
      </trkpt>
      <trkpt lat="48.36506" lon="-3.7076">
        <ele>95.199996948242</ele>
        <time>2021-09-12T07:16:45Z</time>
      </trkpt>
      <trkpt lat="48.36509" lon="-3.7076">
        <ele>95.400001525879</ele>
        <time>2021-09-12T07:16:46Z</time>
      </trkpt>
      <trkpt lat="48.36511" lon="-3.7076">
        <ele>96</ele>
        <time>2021-09-12T07:16:47Z</time>
      </trkpt>
      <trkpt lat="48.36514" lon="-3.7076">
        <ele>96.199996948242</ele>
        <time>2021-09-12T07:16:48Z</time>
      </trkpt>
      <trkpt lat="48.36515" lon="-3.7076">
        <ele>96.400001525879</ele>
        <time>2021-09-12T07:16:49Z</time>
      </trkpt>
      <trkpt lat="48.36518" lon="-3.70759">
        <ele>96.800003051758</ele>
        <time>2021-09-12T07:16:50Z</time>
      </trkpt>
      <trkpt lat="48.36521" lon="-3.70758">
        <ele>97</ele>
        <time>2021-09-12T07:16:51Z</time>
      </trkpt>
      <trkpt lat="48.36523" lon="-3.70758">
        <ele>97.400001525879</ele>
        <time>2021-09-12T07:16:52Z</time>
      </trkpt>
      <trkpt lat="48.36525" lon="-3.70757">
        <ele>97.800003051758</ele>
        <time>2021-09-12T07:16:53Z</time>
      </trkpt>
      <trkpt lat="48.36528" lon="-3.70757">
        <ele>98</ele>
        <time>2021-09-12T07:16:54Z</time>
      </trkpt>
      <trkpt lat="48.36531" lon="-3.70758">
        <ele>98.199996948242</ele>
        <time>2021-09-12T07:16:55Z</time>
      </trkpt>
      <trkpt lat="48.36534" lon="-3.70757">
        <ele>98.400001525879</ele>
        <time>2021-09-12T07:16:56Z</time>
      </trkpt>
      <trkpt lat="48.36537" lon="-3.70755">
        <ele>98.599998474121</ele>
        <time>2021-09-12T07:16:57Z</time>
      </trkpt>
      <trkpt lat="48.36539" lon="-3.70754">
        <ele>98.800003051758</ele>
        <time>2021-09-12T07:16:58Z</time>
      </trkpt>
      <trkpt lat="48.36542" lon="-3.70754">
        <ele>99.400001525879</ele>
        <time>2021-09-12T07:16:59Z</time>
      </trkpt>
      <trkpt lat="48.36545" lon="-3.70754">
        <ele>99.599998474121</ele>
        <time>2021-09-12T07:17:00Z</time>
      </trkpt>
      <trkpt lat="48.36548" lon="-3.70753">
        <ele>99.800003051758</ele>
        <time>2021-09-12T07:17:01Z</time>
      </trkpt>
      <trkpt lat="48.3655" lon="-3.70752">
        <ele>100</ele>
        <time>2021-09-12T07:17:02Z</time>
      </trkpt>
      <trkpt lat="48.36552" lon="-3.70752">
        <ele>100.19999694824</ele>
        <time>2021-09-12T07:17:03Z</time>
      </trkpt>
      <trkpt lat="48.36554" lon="-3.70751">
        <ele>100.40000152588</ele>
        <time>2021-09-12T07:17:04Z</time>
      </trkpt>
      <trkpt lat="48.36557" lon="-3.7075">
        <ele>100.80000305176</ele>
        <time>2021-09-12T07:17:05Z</time>
      </trkpt>
      <trkpt lat="48.36559" lon="-3.70749">
        <ele>101</ele>
        <time>2021-09-12T07:17:06Z</time>
      </trkpt>
      <trkpt lat="48.36561" lon="-3.70749">
        <ele>101.40000152588</ele>
        <time>2021-09-12T07:17:07Z</time>
      </trkpt>
      <trkpt lat="48.36564" lon="-3.70749">
        <ele>101.59999847412</ele>
        <time>2021-09-12T07:17:08Z</time>
      </trkpt>
      <trkpt lat="48.36566" lon="-3.70748">
        <ele>102</ele>
        <time>2021-09-12T07:17:09Z</time>
      </trkpt>
      <trkpt lat="48.36569" lon="-3.70748">
        <ele>102.19999694824</ele>
        <time>2021-09-12T07:17:10Z</time>
      </trkpt>
      <trkpt lat="48.36571" lon="-3.70748">
        <ele>102.19999694824</ele>
        <time>2021-09-12T07:17:11Z</time>
      </trkpt>
      <trkpt lat="48.36573" lon="-3.70747">
        <ele>102.80000305176</ele>
        <time>2021-09-12T07:17:12Z</time>
      </trkpt>
      <trkpt lat="48.36575" lon="-3.70746">
        <ele>103</ele>
        <time>2021-09-12T07:17:13Z</time>
      </trkpt>
      <trkpt lat="48.36577" lon="-3.70745">
        <ele>103</ele>
        <time>2021-09-12T07:17:14Z</time>
      </trkpt>
      <trkpt lat="48.3658" lon="-3.70744">
        <ele>103.19999694824</ele>
        <time>2021-09-12T07:17:15Z</time>
      </trkpt>
      <trkpt lat="48.36582" lon="-3.70743">
        <ele>103.40000152588</ele>
        <time>2021-09-12T07:17:16Z</time>
      </trkpt>
      <trkpt lat="48.36585" lon="-3.70742">
        <ele>103.59999847412</ele>
        <time>2021-09-12T07:17:17Z</time>
      </trkpt>
      <trkpt lat="48.36588" lon="-3.70741">
        <ele>103.59999847412</ele>
        <time>2021-09-12T07:17:18Z</time>
      </trkpt>
      <trkpt lat="48.3659" lon="-3.7074">
        <ele>103.59999847412</ele>
        <time>2021-09-12T07:17:19Z</time>
      </trkpt>
      <trkpt lat="48.36592" lon="-3.70739">
        <ele>103.80000305176</ele>
        <time>2021-09-12T07:17:20Z</time>
      </trkpt>
      <trkpt lat="48.36596" lon="-3.70737">
        <ele>104</ele>
        <time>2021-09-12T07:17:21Z</time>
      </trkpt>
      <trkpt lat="48.36599" lon="-3.70735">
        <ele>104.19999694824</ele>
        <time>2021-09-12T07:17:22Z</time>
      </trkpt>
      <trkpt lat="48.36602" lon="-3.70733">
        <ele>104.19999694824</ele>
        <time>2021-09-12T07:17:23Z</time>
      </trkpt>
      <trkpt lat="48.36605" lon="-3.70732">
        <ele>104.40000152588</ele>
        <time>2021-09-12T07:17:24Z</time>
      </trkpt>
      <trkpt lat="48.36608" lon="-3.70731">
        <ele>104.40000152588</ele>
        <time>2021-09-12T07:17:25Z</time>
      </trkpt>
      <trkpt lat="48.36611" lon="-3.70729">
        <ele>104.59999847412</ele>
        <time>2021-09-12T07:17:26Z</time>
      </trkpt>
      <trkpt lat="48.36613" lon="-3.70726">
        <ele>104.59999847412</ele>
        <time>2021-09-12T07:17:27Z</time>
      </trkpt>
      <trkpt lat="48.36616" lon="-3.70723">
        <ele>104.80000305176</ele>
        <time>2021-09-12T07:17:28Z</time>
      </trkpt>
      <trkpt lat="48.36619" lon="-3.7072">
        <ele>104.80000305176</ele>
        <time>2021-09-12T07:17:29Z</time>
      </trkpt>
      <trkpt lat="48.36621" lon="-3.70717">
        <ele>104.80000305176</ele>
        <time>2021-09-12T07:17:30Z</time>
      </trkpt>
      <trkpt lat="48.36624" lon="-3.70713">
        <ele>105</ele>
        <time>2021-09-12T07:17:31Z</time>
      </trkpt>
      <trkpt lat="48.36626" lon="-3.70709">
        <ele>105</ele>
        <time>2021-09-12T07:17:32Z</time>
      </trkpt>
      <trkpt lat="48.36628" lon="-3.70705">
        <ele>105.19999694824</ele>
        <time>2021-09-12T07:17:33Z</time>
      </trkpt>
      <trkpt lat="48.36629" lon="-3.70702">
        <ele>105.40000152588</ele>
        <time>2021-09-12T07:17:34Z</time>
      </trkpt>
      <trkpt lat="48.36632" lon="-3.70697">
        <ele>105.40000152588</ele>
        <time>2021-09-12T07:17:35Z</time>
      </trkpt>
      <trkpt lat="48.36634" lon="-3.70693">
        <ele>105.40000152588</ele>
        <time>2021-09-12T07:17:36Z</time>
      </trkpt>
      <trkpt lat="48.36636" lon="-3.70689">
        <ele>105.40000152588</ele>
        <time>2021-09-12T07:17:37Z</time>
      </trkpt>
      <trkpt lat="48.36638" lon="-3.70686">
        <ele>105.40000152588</ele>
        <time>2021-09-12T07:17:38Z</time>
      </trkpt>
      <trkpt lat="48.3664" lon="-3.70682">
        <ele>105.40000152588</ele>
        <time>2021-09-12T07:17:39Z</time>
      </trkpt>
      <trkpt lat="48.36644" lon="-3.70677">
        <ele>105.19999694824</ele>
        <time>2021-09-12T07:17:40Z</time>
      </trkpt>
      <trkpt lat="48.36648" lon="-3.70675">
        <ele>105.19999694824</ele>
        <time>2021-09-12T07:17:41Z</time>
      </trkpt>
      <trkpt lat="48.36653" lon="-3.70674">
        <ele>105.19999694824</ele>
        <time>2021-09-12T07:17:42Z</time>
      </trkpt>
      <trkpt lat="48.36657" lon="-3.70675">
        <ele>104.19999694824</ele>
        <time>2021-09-12T07:17:43Z</time>
      </trkpt>
      <trkpt lat="48.36662" lon="-3.70676">
        <ele>104.19999694824</ele>
        <time>2021-09-12T07:17:44Z</time>
      </trkpt>
      <trkpt lat="48.36666" lon="-3.70679">
        <ele>104.19999694824</ele>
        <time>2021-09-12T07:17:45Z</time>
      </trkpt>
      <trkpt lat="48.36669" lon="-3.70681">
        <ele>104.19999694824</ele>
        <time>2021-09-12T07:17:46Z</time>
      </trkpt>
      <trkpt lat="48.36672" lon="-3.70683">
        <ele>104.19999694824</ele>
        <time>2021-09-12T07:17:47Z</time>
      </trkpt>
      <trkpt lat="48.36674" lon="-3.70686">
        <ele>104.40000152588</ele>
        <time>2021-09-12T07:17:48Z</time>
      </trkpt>
      <trkpt lat="48.36676" lon="-3.70688">
        <ele>104.40000152588</ele>
        <time>2021-09-12T07:17:49Z</time>
      </trkpt>
      <trkpt lat="48.36677" lon="-3.7069">
        <ele>105.19999694824</ele>
        <time>2021-09-12T07:17:50Z</time>
      </trkpt>
      <trkpt lat="48.36679" lon="-3.70691">
        <ele>105.59999847412</ele>
        <time>2021-09-12T07:17:51Z</time>
      </trkpt>
      <trkpt lat="48.36681" lon="-3.70693">
        <ele>105.80000305176</ele>
        <time>2021-09-12T07:17:52Z</time>
      </trkpt>
      <trkpt lat="48.36682" lon="-3.70694">
        <ele>106</ele>
        <time>2021-09-12T07:17:53Z</time>
      </trkpt>
      <trkpt lat="48.36684" lon="-3.70695">
        <ele>106.40000152588</ele>
        <time>2021-09-12T07:17:54Z</time>
      </trkpt>
      <trkpt lat="48.36686" lon="-3.70697">
        <ele>106.40000152588</ele>
        <time>2021-09-12T07:17:55Z</time>
      </trkpt>
      <trkpt lat="48.36687" lon="-3.70698">
        <ele>106.40000152588</ele>
        <time>2021-09-12T07:17:56Z</time>
      </trkpt>
      <trkpt lat="48.36688" lon="-3.707">
        <ele>107</ele>
        <time>2021-09-12T07:17:57Z</time>
      </trkpt>
      <trkpt lat="48.3669" lon="-3.70701">
        <ele>107</ele>
        <time>2021-09-12T07:17:58Z</time>
      </trkpt>
      <trkpt lat="48.36692" lon="-3.70702">
        <ele>107</ele>
        <time>2021-09-12T07:17:59Z</time>
      </trkpt>
      <trkpt lat="48.36693" lon="-3.70703">
        <ele>107.59999847412</ele>
        <time>2021-09-12T07:18:00Z</time>
      </trkpt>
      <trkpt lat="48.36695" lon="-3.70705">
        <ele>107.80000305176</ele>
        <time>2021-09-12T07:18:01Z</time>
      </trkpt>
      <trkpt lat="48.36696" lon="-3.70706">
        <ele>108</ele>
        <time>2021-09-12T07:18:02Z</time>
      </trkpt>
      <trkpt lat="48.36698" lon="-3.70708">
        <ele>108</ele>
        <time>2021-09-12T07:18:03Z</time>
      </trkpt>
      <trkpt lat="48.36699" lon="-3.70709">
        <ele>108.40000152588</ele>
        <time>2021-09-12T07:18:04Z</time>
      </trkpt>
      <trkpt lat="48.36701" lon="-3.7071">
        <ele>108.59999847412</ele>
        <time>2021-09-12T07:18:05Z</time>
      </trkpt>
      <trkpt lat="48.36701" lon="-3.70712">
        <ele>109</ele>
        <time>2021-09-12T07:18:06Z</time>
      </trkpt>
      <trkpt lat="48.36702" lon="-3.70713">
        <ele>109.19999694824</ele>
        <time>2021-09-12T07:18:07Z</time>
      </trkpt>
      <trkpt lat="48.36704" lon="-3.70714">
        <ele>109.40000152588</ele>
        <time>2021-09-12T07:18:08Z</time>
      </trkpt>
      <trkpt lat="48.36706" lon="-3.70716">
        <ele>109.40000152588</ele>
        <time>2021-09-12T07:18:09Z</time>
      </trkpt>
      <trkpt lat="48.36708" lon="-3.70717">
        <ele>110</ele>
        <time>2021-09-12T07:18:10Z</time>
      </trkpt>
      <trkpt lat="48.36709" lon="-3.70717">
        <ele>110.40000152588</ele>
        <time>2021-09-12T07:18:11Z</time>
      </trkpt>
      <trkpt lat="48.3671" lon="-3.70718">
        <ele>110.40000152588</ele>
        <time>2021-09-12T07:18:12Z</time>
      </trkpt>
      <trkpt lat="48.36712" lon="-3.7072">
        <ele>111</ele>
        <time>2021-09-12T07:18:13Z</time>
      </trkpt>
      <trkpt lat="48.36713" lon="-3.70722">
        <ele>111.19999694824</ele>
        <time>2021-09-12T07:18:14Z</time>
      </trkpt>
      <trkpt lat="48.36715" lon="-3.70724">
        <ele>111.40000152588</ele>
        <time>2021-09-12T07:18:15Z</time>
      </trkpt>
      <trkpt lat="48.36715" lon="-3.70726">
        <ele>111.80000305176</ele>
        <time>2021-09-12T07:18:16Z</time>
      </trkpt>
      <trkpt lat="48.36716" lon="-3.70728">
        <ele>112.40000152588</ele>
        <time>2021-09-12T07:18:17Z</time>
      </trkpt>
      <trkpt lat="48.36716" lon="-3.70729">
        <ele>112.59999847412</ele>
        <time>2021-09-12T07:18:18Z</time>
      </trkpt>
      <trkpt lat="48.36717" lon="-3.70731">
        <ele>112.80000305176</ele>
        <time>2021-09-12T07:18:19Z</time>
      </trkpt>
      <trkpt lat="48.36718" lon="-3.70732">
        <ele>113</ele>
        <time>2021-09-12T07:18:20Z</time>
      </trkpt>
      <trkpt lat="48.3672" lon="-3.70734">
        <ele>113.19999694824</ele>
        <time>2021-09-12T07:18:21Z</time>
      </trkpt>
      <trkpt lat="48.36721" lon="-3.70736">
        <ele>113.59999847412</ele>
        <time>2021-09-12T07:18:22Z</time>
      </trkpt>
      <trkpt lat="48.36722" lon="-3.70737">
        <ele>114</ele>
        <time>2021-09-12T07:18:23Z</time>
      </trkpt>
      <trkpt lat="48.36724" lon="-3.70739">
        <ele>114.40000152588</ele>
        <time>2021-09-12T07:18:24Z</time>
      </trkpt>
      <trkpt lat="48.36726" lon="-3.7074">
        <ele>114.59999847412</ele>
        <time>2021-09-12T07:18:25Z</time>
      </trkpt>
      <trkpt lat="48.36727" lon="-3.70741">
        <ele>115.19999694824</ele>
        <time>2021-09-12T07:18:26Z</time>
      </trkpt>
      <trkpt lat="48.36729" lon="-3.70742">
        <ele>115.40000152588</ele>
        <time>2021-09-12T07:18:27Z</time>
      </trkpt>
      <trkpt lat="48.3673" lon="-3.70742">
        <ele>115.40000152588</ele>
        <time>2021-09-12T07:18:28Z</time>
      </trkpt>
      <trkpt lat="48.36732" lon="-3.70744">
        <ele>115.80000305176</ele>
        <time>2021-09-12T07:18:29Z</time>
      </trkpt>
      <trkpt lat="48.36733" lon="-3.70746">
        <ele>116</ele>
        <time>2021-09-12T07:18:30Z</time>
      </trkpt>
      <trkpt lat="48.36734" lon="-3.70748">
        <ele>116.40000152588</ele>
        <time>2021-09-12T07:18:31Z</time>
      </trkpt>
      <trkpt lat="48.36735" lon="-3.7075">
        <ele>116.59999847412</ele>
        <time>2021-09-12T07:18:32Z</time>
      </trkpt>
      <trkpt lat="48.36737" lon="-3.70751">
        <ele>117</ele>
        <time>2021-09-12T07:18:33Z</time>
      </trkpt>
      <trkpt lat="48.3674" lon="-3.70753">
        <ele>117.40000152588</ele>
        <time>2021-09-12T07:18:34Z</time>
      </trkpt>
      <trkpt lat="48.36741" lon="-3.70755">
        <ele>117.80000305176</ele>
        <time>2021-09-12T07:18:35Z</time>
      </trkpt>
      <trkpt lat="48.36742" lon="-3.70756">
        <ele>117.80000305176</ele>
        <time>2021-09-12T07:18:36Z</time>
      </trkpt>
      <trkpt lat="48.36743" lon="-3.70758">
        <ele>118</ele>
        <time>2021-09-12T07:18:37Z</time>
      </trkpt>
      <trkpt lat="48.36744" lon="-3.7076">
        <ele>118.40000152588</ele>
        <time>2021-09-12T07:18:38Z</time>
      </trkpt>
      <trkpt lat="48.36745" lon="-3.70761">
        <ele>118.80000305176</ele>
        <time>2021-09-12T07:18:39Z</time>
      </trkpt>
      <trkpt lat="48.36746" lon="-3.70762">
        <ele>118.80000305176</ele>
        <time>2021-09-12T07:18:40Z</time>
      </trkpt>
      <trkpt lat="48.36747" lon="-3.70763">
        <ele>119.19999694824</ele>
        <time>2021-09-12T07:18:41Z</time>
      </trkpt>
      <trkpt lat="48.36748" lon="-3.70765">
        <ele>119.19999694824</ele>
        <time>2021-09-12T07:18:42Z</time>
      </trkpt>
      <trkpt lat="48.36749" lon="-3.70767">
        <ele>119.80000305176</ele>
        <time>2021-09-12T07:18:43Z</time>
      </trkpt>
      <trkpt lat="48.3675" lon="-3.70768">
        <ele>119.80000305176</ele>
        <time>2021-09-12T07:18:44Z</time>
      </trkpt>
      <trkpt lat="48.36751" lon="-3.70769">
        <ele>120.19999694824</ele>
        <time>2021-09-12T07:18:45Z</time>
      </trkpt>
      <trkpt lat="48.36752" lon="-3.7077">
        <ele>120.59999847412</ele>
        <time>2021-09-12T07:18:46Z</time>
      </trkpt>
      <trkpt lat="48.36753" lon="-3.7077">
        <ele>120.59999847412</ele>
        <time>2021-09-12T07:18:47Z</time>
      </trkpt>
      <trkpt lat="48.36754" lon="-3.7077">
        <ele>121.19999694824</ele>
        <time>2021-09-12T07:18:48Z</time>
      </trkpt>
      <trkpt lat="48.36754" lon="-3.70769">
        <ele>121.40000152588</ele>
        <time>2021-09-12T07:18:49Z</time>
      </trkpt>
      <trkpt lat="48.36754" lon="-3.70768">
        <ele>121.40000152588</ele>
        <time>2021-09-12T07:18:50Z</time>
      </trkpt>
      <trkpt lat="48.36754" lon="-3.70768">
        <ele>121.80000305176</ele>
        <time>2021-09-12T07:18:51Z</time>
      </trkpt>
      <trkpt lat="48.36754" lon="-3.70767">
        <ele>122.19999694824</ele>
        <time>2021-09-12T07:18:52Z</time>
      </trkpt>
      <trkpt lat="48.36755" lon="-3.70766">
        <ele>122.19999694824</ele>
        <time>2021-09-12T07:18:53Z</time>
      </trkpt>
      <trkpt lat="48.36755" lon="-3.70763">
        <ele>122.19999694824</ele>
        <time>2021-09-12T07:18:54Z</time>
      </trkpt>
      <trkpt lat="48.36755" lon="-3.70762">
        <ele>122.59999847412</ele>
        <time>2021-09-12T07:18:55Z</time>
      </trkpt>
      <trkpt lat="48.36755" lon="-3.7076">
        <ele>122.80000305176</ele>
        <time>2021-09-12T07:18:56Z</time>
      </trkpt>
      <trkpt lat="48.36754" lon="-3.70757">
        <ele>123</ele>
        <time>2021-09-12T07:18:57Z</time>
      </trkpt>
      <trkpt lat="48.36754" lon="-3.70755">
        <ele>123.19999694824</ele>
        <time>2021-09-12T07:18:58Z</time>
      </trkpt>
      <trkpt lat="48.36755" lon="-3.70752">
        <ele>123.19999694824</ele>
        <time>2021-09-12T07:18:59Z</time>
      </trkpt>
      <trkpt lat="48.36756" lon="-3.70749">
        <ele>123.40000152588</ele>
        <time>2021-09-12T07:19:00Z</time>
      </trkpt>
      <trkpt lat="48.36757" lon="-3.70747">
        <ele>123.40000152588</ele>
        <time>2021-09-12T07:19:01Z</time>
      </trkpt>
      <trkpt lat="48.36757" lon="-3.70744">
        <ele>123.59999847412</ele>
        <time>2021-09-12T07:19:02Z</time>
      </trkpt>
      <trkpt lat="48.36757" lon="-3.70741">
        <ele>123.80000305176</ele>
        <time>2021-09-12T07:19:03Z</time>
      </trkpt>
      <trkpt lat="48.36757" lon="-3.70739">
        <ele>123.80000305176</ele>
        <time>2021-09-12T07:19:04Z</time>
      </trkpt>
      <trkpt lat="48.36757" lon="-3.70736">
        <ele>124.19999694824</ele>
        <time>2021-09-12T07:19:05Z</time>
      </trkpt>
      <trkpt lat="48.36757" lon="-3.70734">
        <ele>124.19999694824</ele>
        <time>2021-09-12T07:19:06Z</time>
      </trkpt>
      <trkpt lat="48.36757" lon="-3.70731">
        <ele>124.19999694824</ele>
        <time>2021-09-12T07:19:07Z</time>
      </trkpt>
      <trkpt lat="48.36757" lon="-3.70728">
        <ele>124.59999847412</ele>
        <time>2021-09-12T07:19:08Z</time>
      </trkpt>
      <trkpt lat="48.36756" lon="-3.70725">
        <ele>125</ele>
        <time>2021-09-12T07:19:09Z</time>
      </trkpt>
      <trkpt lat="48.36756" lon="-3.70722">
        <ele>125</ele>
        <time>2021-09-12T07:19:10Z</time>
      </trkpt>
      <trkpt lat="48.36756" lon="-3.70719">
        <ele>125</ele>
        <time>2021-09-12T07:19:11Z</time>
      </trkpt>
      <trkpt lat="48.36756" lon="-3.70715">
        <ele>125.40000152588</ele>
        <time>2021-09-12T07:19:12Z</time>
      </trkpt>
      <trkpt lat="48.36756" lon="-3.70712">
        <ele>125.40000152588</ele>
        <time>2021-09-12T07:19:13Z</time>
      </trkpt>
      <trkpt lat="48.36756" lon="-3.70709">
        <ele>125.40000152588</ele>
        <time>2021-09-12T07:19:14Z</time>
      </trkpt>
      <trkpt lat="48.36757" lon="-3.70706">
        <ele>125.80000305176</ele>
        <time>2021-09-12T07:19:15Z</time>
      </trkpt>
      <trkpt lat="48.36758" lon="-3.70701">
        <ele>126.19999694824</ele>
        <time>2021-09-12T07:19:16Z</time>
      </trkpt>
      <trkpt lat="48.36758" lon="-3.70696">
        <ele>126.19999694824</ele>
        <time>2021-09-12T07:19:17Z</time>
      </trkpt>
      <trkpt lat="48.36759" lon="-3.70691">
        <ele>126.19999694824</ele>
        <time>2021-09-12T07:19:18Z</time>
      </trkpt>
      <trkpt lat="48.36761" lon="-3.70687">
        <ele>126.19999694824</ele>
        <time>2021-09-12T07:19:19Z</time>
      </trkpt>
      <trkpt lat="48.36763" lon="-3.70683">
        <ele>126.40000152588</ele>
        <time>2021-09-12T07:19:20Z</time>
      </trkpt>
      <trkpt lat="48.36764" lon="-3.7068">
        <ele>126.40000152588</ele>
        <time>2021-09-12T07:19:21Z</time>
      </trkpt>
      <trkpt lat="48.36766" lon="-3.70676">
        <ele>126.59999847412</ele>
        <time>2021-09-12T07:19:22Z</time>
      </trkpt>
      <trkpt lat="48.36768" lon="-3.7067">
        <ele>126.59999847412</ele>
        <time>2021-09-12T07:19:23Z</time>
      </trkpt>
      <trkpt lat="48.3677" lon="-3.70668">
        <ele>126.59999847412</ele>
        <time>2021-09-12T07:19:24Z</time>
      </trkpt>
      <trkpt lat="48.36772" lon="-3.70666">
        <ele>126.59999847412</ele>
        <time>2021-09-12T07:19:25Z</time>
      </trkpt>
      <trkpt lat="48.36775" lon="-3.70663">
        <ele>126.59999847412</ele>
        <time>2021-09-12T07:19:26Z</time>
      </trkpt>
      <trkpt lat="48.36777" lon="-3.70662">
        <ele>126.80000305176</ele>
        <time>2021-09-12T07:19:27Z</time>
      </trkpt>
      <trkpt lat="48.36777" lon="-3.70661">
        <ele>126.80000305176</ele>
        <time>2021-09-12T07:19:28Z</time>
      </trkpt>
      <trkpt lat="48.36778" lon="-3.70661">
        <ele>126.80000305176</ele>
        <time>2021-09-12T07:19:29Z</time>
      </trkpt>
      <trkpt lat="48.36779" lon="-3.7066">
        <ele>126.80000305176</ele>
        <time>2021-09-12T07:19:30Z</time>
      </trkpt>
      <trkpt lat="48.3678" lon="-3.70658">
        <ele>127</ele>
        <time>2021-09-12T07:19:31Z</time>
      </trkpt>
      <trkpt lat="48.36782" lon="-3.70655">
        <ele>127</ele>
        <time>2021-09-12T07:19:32Z</time>
      </trkpt>
      <trkpt lat="48.36785" lon="-3.70653">
        <ele>127.19999694824</ele>
        <time>2021-09-12T07:19:33Z</time>
      </trkpt>
      <trkpt lat="48.36789" lon="-3.70652">
        <ele>127.40000152588</ele>
        <time>2021-09-12T07:19:34Z</time>
      </trkpt>
      <trkpt lat="48.36791" lon="-3.70652">
        <ele>127.59999847412</ele>
        <time>2021-09-12T07:19:35Z</time>
      </trkpt>
      <trkpt lat="48.36795" lon="-3.70651">
        <ele>127.59999847412</ele>
        <time>2021-09-12T07:19:36Z</time>
      </trkpt>
      <trkpt lat="48.36798" lon="-3.70652">
        <ele>127.59999847412</ele>
        <time>2021-09-12T07:19:37Z</time>
      </trkpt>
      <trkpt lat="48.368" lon="-3.70651">
        <ele>127.59999847412</ele>
        <time>2021-09-12T07:19:38Z</time>
      </trkpt>
      <trkpt lat="48.36802" lon="-3.70651">
        <ele>127.59999847412</ele>
        <time>2021-09-12T07:19:39Z</time>
      </trkpt>
      <trkpt lat="48.36803" lon="-3.70652">
        <ele>128</ele>
        <time>2021-09-12T07:19:40Z</time>
      </trkpt>
      <trkpt lat="48.36805" lon="-3.70652">
        <ele>128.19999694824</ele>
        <time>2021-09-12T07:19:41Z</time>
      </trkpt>
      <trkpt lat="48.36806" lon="-3.70651">
        <ele>128.60000610352</ele>
        <time>2021-09-12T07:19:42Z</time>
      </trkpt>
      <trkpt lat="48.36807" lon="-3.70651">
        <ele>128.80000305176</ele>
        <time>2021-09-12T07:19:43Z</time>
      </trkpt>
      <trkpt lat="48.36809" lon="-3.70651">
        <ele>128.80000305176</ele>
        <time>2021-09-12T07:19:44Z</time>
      </trkpt>
      <trkpt lat="48.36811" lon="-3.70651">
        <ele>128.80000305176</ele>
        <time>2021-09-12T07:19:45Z</time>
      </trkpt>
      <trkpt lat="48.36813" lon="-3.70651">
        <ele>129.39999389648</ele>
        <time>2021-09-12T07:19:46Z</time>
      </trkpt>
      <trkpt lat="48.36815" lon="-3.70653">
        <ele>129.80000305176</ele>
        <time>2021-09-12T07:19:47Z</time>
      </trkpt>
      <trkpt lat="48.36818" lon="-3.70654">
        <ele>130.19999694824</ele>
        <time>2021-09-12T07:19:48Z</time>
      </trkpt>
      <trkpt lat="48.3682" lon="-3.70656">
        <ele>130.39999389648</ele>
        <time>2021-09-12T07:19:49Z</time>
      </trkpt>
      <trkpt lat="48.36822" lon="-3.70657">
        <ele>130.80000305176</ele>
        <time>2021-09-12T07:19:50Z</time>
      </trkpt>
      <trkpt lat="48.36824" lon="-3.70659">
        <ele>131</ele>
        <time>2021-09-12T07:19:51Z</time>
      </trkpt>
      <trkpt lat="48.36825" lon="-3.7066">
        <ele>131.60000610352</ele>
        <time>2021-09-12T07:19:52Z</time>
      </trkpt>
      <trkpt lat="48.36827" lon="-3.70662">
        <ele>132</ele>
        <time>2021-09-12T07:19:53Z</time>
      </trkpt>
      <trkpt lat="48.36828" lon="-3.70663">
        <ele>132.19999694824</ele>
        <time>2021-09-12T07:19:54Z</time>
      </trkpt>
      <trkpt lat="48.3683" lon="-3.70664">
        <ele>132.39999389648</ele>
        <time>2021-09-12T07:19:55Z</time>
      </trkpt>
      <trkpt lat="48.36832" lon="-3.70665">
        <ele>132.39999389648</ele>
        <time>2021-09-12T07:19:56Z</time>
      </trkpt>
      <trkpt lat="48.36832" lon="-3.70667">
        <ele>133.19999694824</ele>
        <time>2021-09-12T07:19:57Z</time>
      </trkpt>
      <trkpt lat="48.36834" lon="-3.70669">
        <ele>133.39999389648</ele>
        <time>2021-09-12T07:19:58Z</time>
      </trkpt>
      <trkpt lat="48.36835" lon="-3.7067">
        <ele>133.60000610352</ele>
        <time>2021-09-12T07:19:59Z</time>
      </trkpt>
      <trkpt lat="48.36836" lon="-3.70672">
        <ele>133.60000610352</ele>
        <time>2021-09-12T07:20:00Z</time>
      </trkpt>
      <trkpt lat="48.36837" lon="-3.70673">
        <ele>134.19999694824</ele>
        <time>2021-09-12T07:20:01Z</time>
      </trkpt>
      <trkpt lat="48.36838" lon="-3.70674">
        <ele>134.39999389648</ele>
        <time>2021-09-12T07:20:02Z</time>
      </trkpt>
      <trkpt lat="48.36839" lon="-3.70676">
        <ele>134.39999389648</ele>
        <time>2021-09-12T07:20:03Z</time>
      </trkpt>
      <trkpt lat="48.36841" lon="-3.70678">
        <ele>135</ele>
        <time>2021-09-12T07:20:04Z</time>
      </trkpt>
      <trkpt lat="48.36843" lon="-3.70679">
        <ele>135.39999389648</ele>
        <time>2021-09-12T07:20:05Z</time>
      </trkpt>
      <trkpt lat="48.36845" lon="-3.7068">
        <ele>135.39999389648</ele>
        <time>2021-09-12T07:20:06Z</time>
      </trkpt>
      <trkpt lat="48.36846" lon="-3.70682">
        <ele>135.60000610352</ele>
        <time>2021-09-12T07:20:07Z</time>
      </trkpt>
      <trkpt lat="48.36847" lon="-3.70683">
        <ele>135.80000305176</ele>
        <time>2021-09-12T07:20:08Z</time>
      </trkpt>
      <trkpt lat="48.36848" lon="-3.70685">
        <ele>136</ele>
        <time>2021-09-12T07:20:09Z</time>
      </trkpt>
      <trkpt lat="48.3685" lon="-3.70686">
        <ele>136.39999389648</ele>
        <time>2021-09-12T07:20:10Z</time>
      </trkpt>
      <trkpt lat="48.36852" lon="-3.70687">
        <ele>136.60000610352</ele>
        <time>2021-09-12T07:20:11Z</time>
      </trkpt>
      <trkpt lat="48.36854" lon="-3.7069">
        <ele>137</ele>
        <time>2021-09-12T07:20:12Z</time>
      </trkpt>
      <trkpt lat="48.36854" lon="-3.70694">
        <ele>137</ele>
        <time>2021-09-12T07:20:13Z</time>
      </trkpt>
      <trkpt lat="48.36855" lon="-3.70697">
        <ele>137.19999694824</ele>
        <time>2021-09-12T07:20:14Z</time>
      </trkpt>
      <trkpt lat="48.36855" lon="-3.707">
        <ele>137.39999389648</ele>
        <time>2021-09-12T07:20:15Z</time>
      </trkpt>
      <trkpt lat="48.36856" lon="-3.70702">
        <ele>137.60000610352</ele>
        <time>2021-09-12T07:20:16Z</time>
      </trkpt>
      <trkpt lat="48.36857" lon="-3.70704">
        <ele>138</ele>
        <time>2021-09-12T07:20:17Z</time>
      </trkpt>
      <trkpt lat="48.36858" lon="-3.70706">
        <ele>138.19999694824</ele>
        <time>2021-09-12T07:20:18Z</time>
      </trkpt>
      <trkpt lat="48.36858" lon="-3.70708">
        <ele>138.60000610352</ele>
        <time>2021-09-12T07:20:19Z</time>
      </trkpt>
      <trkpt lat="48.36859" lon="-3.70709">
        <ele>138.80000305176</ele>
        <time>2021-09-12T07:20:20Z</time>
      </trkpt>
      <trkpt lat="48.36859" lon="-3.70712">
        <ele>139</ele>
        <time>2021-09-12T07:20:21Z</time>
      </trkpt>
      <trkpt lat="48.3686" lon="-3.70714">
        <ele>139.19999694824</ele>
        <time>2021-09-12T07:20:22Z</time>
      </trkpt>
      <trkpt lat="48.36861" lon="-3.70716">
        <ele>139.39999389648</ele>
        <time>2021-09-12T07:20:23Z</time>
      </trkpt>
      <trkpt lat="48.36861" lon="-3.70718">
        <ele>139.80000305176</ele>
        <time>2021-09-12T07:20:24Z</time>
      </trkpt>
      <trkpt lat="48.36862" lon="-3.70721">
        <ele>140</ele>
        <time>2021-09-12T07:20:25Z</time>
      </trkpt>
      <trkpt lat="48.36863" lon="-3.70723">
        <ele>140.39999389648</ele>
        <time>2021-09-12T07:20:26Z</time>
      </trkpt>
      <trkpt lat="48.36864" lon="-3.70725">
        <ele>140.60000610352</ele>
        <time>2021-09-12T07:20:27Z</time>
      </trkpt>
      <trkpt lat="48.36865" lon="-3.70727">
        <ele>140.80000305176</ele>
        <time>2021-09-12T07:20:28Z</time>
      </trkpt>
      <trkpt lat="48.36866" lon="-3.70729">
        <ele>141.19999694824</ele>
        <time>2021-09-12T07:20:29Z</time>
      </trkpt>
      <trkpt lat="48.36866" lon="-3.70731">
        <ele>141.39999389648</ele>
        <time>2021-09-12T07:20:30Z</time>
      </trkpt>
      <trkpt lat="48.36867" lon="-3.70733">
        <ele>141.60000610352</ele>
        <time>2021-09-12T07:20:31Z</time>
      </trkpt>
      <trkpt lat="48.36868" lon="-3.70735">
        <ele>142</ele>
        <time>2021-09-12T07:20:32Z</time>
      </trkpt>
      <trkpt lat="48.36869" lon="-3.70737">
        <ele>142</ele>
        <time>2021-09-12T07:20:33Z</time>
      </trkpt>
      <trkpt lat="48.3687" lon="-3.70739">
        <ele>142.60000610352</ele>
        <time>2021-09-12T07:20:34Z</time>
      </trkpt>
      <trkpt lat="48.36871" lon="-3.70741">
        <ele>142.60000610352</ele>
        <time>2021-09-12T07:20:35Z</time>
      </trkpt>
      <trkpt lat="48.36872" lon="-3.70743">
        <ele>142.60000610352</ele>
        <time>2021-09-12T07:20:36Z</time>
      </trkpt>
      <trkpt lat="48.36872" lon="-3.70745">
        <ele>143</ele>
        <time>2021-09-12T07:20:37Z</time>
      </trkpt>
      <trkpt lat="48.36873" lon="-3.70746">
        <ele>143.39999389648</ele>
        <time>2021-09-12T07:20:38Z</time>
      </trkpt>
      <trkpt lat="48.36874" lon="-3.70748">
        <ele>143.80000305176</ele>
        <time>2021-09-12T07:20:39Z</time>
      </trkpt>
      <trkpt lat="48.36874" lon="-3.7075">
        <ele>144</ele>
        <time>2021-09-12T07:20:40Z</time>
      </trkpt>
      <trkpt lat="48.36875" lon="-3.70752">
        <ele>144</ele>
        <time>2021-09-12T07:20:41Z</time>
      </trkpt>
      <trkpt lat="48.36875" lon="-3.70754">
        <ele>144.19999694824</ele>
        <time>2021-09-12T07:20:42Z</time>
      </trkpt>
      <trkpt lat="48.36876" lon="-3.70756">
        <ele>144.19999694824</ele>
        <time>2021-09-12T07:20:43Z</time>
      </trkpt>
      <trkpt lat="48.36877" lon="-3.70757">
        <ele>144.80000305176</ele>
        <time>2021-09-12T07:20:44Z</time>
      </trkpt>
      <trkpt lat="48.36878" lon="-3.70759">
        <ele>144.80000305176</ele>
        <time>2021-09-12T07:20:45Z</time>
      </trkpt>
      <trkpt lat="48.36878" lon="-3.70761">
        <ele>145.39999389648</ele>
        <time>2021-09-12T07:20:46Z</time>
      </trkpt>
      <trkpt lat="48.3688" lon="-3.70763">
        <ele>145.60000610352</ele>
        <time>2021-09-12T07:20:47Z</time>
      </trkpt>
      <trkpt lat="48.36881" lon="-3.70765">
        <ele>145.60000610352</ele>
        <time>2021-09-12T07:20:48Z</time>
      </trkpt>
      <trkpt lat="48.36882" lon="-3.70766">
        <ele>146</ele>
        <time>2021-09-12T07:20:49Z</time>
      </trkpt>
      <trkpt lat="48.36883" lon="-3.70768">
        <ele>146.19999694824</ele>
        <time>2021-09-12T07:20:50Z</time>
      </trkpt>
      <trkpt lat="48.36883" lon="-3.70769">
        <ele>146.19999694824</ele>
        <time>2021-09-12T07:20:51Z</time>
      </trkpt>
      <trkpt lat="48.36884" lon="-3.70771">
        <ele>146.80000305176</ele>
        <time>2021-09-12T07:20:52Z</time>
      </trkpt>
      <trkpt lat="48.36885" lon="-3.70773">
        <ele>147</ele>
        <time>2021-09-12T07:20:53Z</time>
      </trkpt>
      <trkpt lat="48.36886" lon="-3.70775">
        <ele>147.19999694824</ele>
        <time>2021-09-12T07:20:54Z</time>
      </trkpt>
      <trkpt lat="48.36887" lon="-3.70776">
        <ele>147.19999694824</ele>
        <time>2021-09-12T07:20:55Z</time>
      </trkpt>
      <trkpt lat="48.36888" lon="-3.70778">
        <ele>147.60000610352</ele>
        <time>2021-09-12T07:20:56Z</time>
      </trkpt>
      <trkpt lat="48.36889" lon="-3.70779">
        <ele>147.60000610352</ele>
        <time>2021-09-12T07:20:57Z</time>
      </trkpt>
      <trkpt lat="48.36891" lon="-3.70781">
        <ele>147.60000610352</ele>
        <time>2021-09-12T07:20:58Z</time>
      </trkpt>
      <trkpt lat="48.36892" lon="-3.70783">
        <ele>148</ele>
        <time>2021-09-12T07:20:59Z</time>
      </trkpt>
      <trkpt lat="48.36892" lon="-3.70786">
        <ele>148.19999694824</ele>
        <time>2021-09-12T07:21:00Z</time>
      </trkpt>
      <trkpt lat="48.36893" lon="-3.70789">
        <ele>148.60000610352</ele>
        <time>2021-09-12T07:21:01Z</time>
      </trkpt>
      <trkpt lat="48.36893" lon="-3.70791">
        <ele>148.80000305176</ele>
        <time>2021-09-12T07:21:02Z</time>
      </trkpt>
      <trkpt lat="48.36894" lon="-3.70793">
        <ele>149.19999694824</ele>
        <time>2021-09-12T07:21:03Z</time>
      </trkpt>
      <trkpt lat="48.36895" lon="-3.70796">
        <ele>149.39999389648</ele>
        <time>2021-09-12T07:21:04Z</time>
      </trkpt>
      <trkpt lat="48.36896" lon="-3.70798">
        <ele>149.39999389648</ele>
        <time>2021-09-12T07:21:05Z</time>
      </trkpt>
      <trkpt lat="48.36897" lon="-3.70801">
        <ele>149.60000610352</ele>
        <time>2021-09-12T07:21:06Z</time>
      </trkpt>
      <trkpt lat="48.36898" lon="-3.70803">
        <ele>149.80000305176</ele>
        <time>2021-09-12T07:21:07Z</time>
      </trkpt>
      <trkpt lat="48.36899" lon="-3.70805">
        <ele>150</ele>
        <time>2021-09-12T07:21:08Z</time>
      </trkpt>
      <trkpt lat="48.369" lon="-3.70808">
        <ele>150.19999694824</ele>
        <time>2021-09-12T07:21:09Z</time>
      </trkpt>
      <trkpt lat="48.36901" lon="-3.7081">
        <ele>150.39999389648</ele>
        <time>2021-09-12T07:21:10Z</time>
      </trkpt>
      <trkpt lat="48.36903" lon="-3.70812">
        <ele>150.60000610352</ele>
        <time>2021-09-12T07:21:11Z</time>
      </trkpt>
      <trkpt lat="48.36903" lon="-3.70814">
        <ele>151</ele>
        <time>2021-09-12T07:21:12Z</time>
      </trkpt>
      <trkpt lat="48.36905" lon="-3.70817">
        <ele>151</ele>
        <time>2021-09-12T07:21:13Z</time>
      </trkpt>
      <trkpt lat="48.36906" lon="-3.70819">
        <ele>151.19999694824</ele>
        <time>2021-09-12T07:21:14Z</time>
      </trkpt>
      <trkpt lat="48.36906" lon="-3.70822">
        <ele>151.19999694824</ele>
        <time>2021-09-12T07:21:15Z</time>
      </trkpt>
      <trkpt lat="48.36907" lon="-3.70824">
        <ele>151.19999694824</ele>
        <time>2021-09-12T07:21:16Z</time>
      </trkpt>
      <trkpt lat="48.36908" lon="-3.70827">
        <ele>151.60000610352</ele>
        <time>2021-09-12T07:21:17Z</time>
      </trkpt>
      <trkpt lat="48.36909" lon="-3.7083">
        <ele>151.60000610352</ele>
        <time>2021-09-12T07:21:18Z</time>
      </trkpt>
      <trkpt lat="48.3691" lon="-3.70833">
        <ele>151.60000610352</ele>
        <time>2021-09-12T07:21:19Z</time>
      </trkpt>
      <trkpt lat="48.36911" lon="-3.70836">
        <ele>151.80000305176</ele>
        <time>2021-09-12T07:21:20Z</time>
      </trkpt>
      <trkpt lat="48.36912" lon="-3.70838">
        <ele>151.80000305176</ele>
        <time>2021-09-12T07:21:21Z</time>
      </trkpt>
      <trkpt lat="48.36914" lon="-3.70841">
        <ele>152</ele>
        <time>2021-09-12T07:21:22Z</time>
      </trkpt>
      <trkpt lat="48.36916" lon="-3.70844">
        <ele>152</ele>
        <time>2021-09-12T07:21:23Z</time>
      </trkpt>
      <trkpt lat="48.36918" lon="-3.70847">
        <ele>152</ele>
        <time>2021-09-12T07:21:24Z</time>
      </trkpt>
      <trkpt lat="48.3692" lon="-3.70849">
        <ele>152.39999389648</ele>
        <time>2021-09-12T07:21:25Z</time>
      </trkpt>
      <trkpt lat="48.36923" lon="-3.70852">
        <ele>152.60000610352</ele>
        <time>2021-09-12T07:21:26Z</time>
      </trkpt>
      <trkpt lat="48.36925" lon="-3.70854">
        <ele>152.60000610352</ele>
        <time>2021-09-12T07:21:27Z</time>
      </trkpt>
      <trkpt lat="48.36927" lon="-3.70856">
        <ele>152.60000610352</ele>
        <time>2021-09-12T07:21:28Z</time>
      </trkpt>
      <trkpt lat="48.3693" lon="-3.70858">
        <ele>152.80000305176</ele>
        <time>2021-09-12T07:21:29Z</time>
      </trkpt>
      <trkpt lat="48.36932" lon="-3.7086">
        <ele>152.80000305176</ele>
        <time>2021-09-12T07:21:30Z</time>
      </trkpt>
      <trkpt lat="48.36933" lon="-3.70862">
        <ele>152.80000305176</ele>
        <time>2021-09-12T07:21:31Z</time>
      </trkpt>
      <trkpt lat="48.36935" lon="-3.70864">
        <ele>153</ele>
        <time>2021-09-12T07:21:32Z</time>
      </trkpt>
      <trkpt lat="48.36938" lon="-3.70865">
        <ele>153.19999694824</ele>
        <time>2021-09-12T07:21:33Z</time>
      </trkpt>
      <trkpt lat="48.36939" lon="-3.70867">
        <ele>153.39999389648</ele>
        <time>2021-09-12T07:21:34Z</time>
      </trkpt>
      <trkpt lat="48.3694" lon="-3.70868">
        <ele>153.39999389648</ele>
        <time>2021-09-12T07:21:35Z</time>
      </trkpt>
      <trkpt lat="48.36942" lon="-3.7087">
        <ele>153.80000305176</ele>
        <time>2021-09-12T07:21:36Z</time>
      </trkpt>
      <trkpt lat="48.36943" lon="-3.70871">
        <ele>153.80000305176</ele>
        <time>2021-09-12T07:21:37Z</time>
      </trkpt>
      <trkpt lat="48.36945" lon="-3.70873">
        <ele>154</ele>
        <time>2021-09-12T07:21:38Z</time>
      </trkpt>
      <trkpt lat="48.36947" lon="-3.70874">
        <ele>154</ele>
        <time>2021-09-12T07:21:39Z</time>
      </trkpt>
      <trkpt lat="48.36948" lon="-3.70875">
        <ele>154.39999389648</ele>
        <time>2021-09-12T07:21:40Z</time>
      </trkpt>
      <trkpt lat="48.36949" lon="-3.70876">
        <ele>154.39999389648</ele>
        <time>2021-09-12T07:21:41Z</time>
      </trkpt>
      <trkpt lat="48.36951" lon="-3.70877">
        <ele>154.60000610352</ele>
        <time>2021-09-12T07:21:42Z</time>
      </trkpt>
      <trkpt lat="48.36952" lon="-3.70879">
        <ele>154.80000305176</ele>
        <time>2021-09-12T07:21:43Z</time>
      </trkpt>
      <trkpt lat="48.36954" lon="-3.70881">
        <ele>155</ele>
        <time>2021-09-12T07:21:44Z</time>
      </trkpt>
      <trkpt lat="48.36955" lon="-3.70882">
        <ele>155</ele>
        <time>2021-09-12T07:21:45Z</time>
      </trkpt>
      <trkpt lat="48.36957" lon="-3.70883">
        <ele>155</ele>
        <time>2021-09-12T07:21:46Z</time>
      </trkpt>
      <trkpt lat="48.36959" lon="-3.70884">
        <ele>155.60000610352</ele>
        <time>2021-09-12T07:21:47Z</time>
      </trkpt>
      <trkpt lat="48.36961" lon="-3.70885">
        <ele>155.80000305176</ele>
        <time>2021-09-12T07:21:48Z</time>
      </trkpt>
      <trkpt lat="48.36963" lon="-3.70885">
        <ele>155.80000305176</ele>
        <time>2021-09-12T07:21:49Z</time>
      </trkpt>
      <trkpt lat="48.36965" lon="-3.70886">
        <ele>155.80000305176</ele>
        <time>2021-09-12T07:21:50Z</time>
      </trkpt>
      <trkpt lat="48.36966" lon="-3.70887">
        <ele>156</ele>
        <time>2021-09-12T07:21:51Z</time>
      </trkpt>
      <trkpt lat="48.36968" lon="-3.70889">
        <ele>156.19999694824</ele>
        <time>2021-09-12T07:21:52Z</time>
      </trkpt>
      <trkpt lat="48.3697" lon="-3.7089">
        <ele>156.19999694824</ele>
        <time>2021-09-12T07:21:53Z</time>
      </trkpt>
      <trkpt lat="48.36974" lon="-3.7089">
        <ele>156.39999389648</ele>
        <time>2021-09-12T07:21:54Z</time>
      </trkpt>
      <trkpt lat="48.36976" lon="-3.70891">
        <ele>156.80000305176</ele>
        <time>2021-09-12T07:21:55Z</time>
      </trkpt>
      <trkpt lat="48.36979" lon="-3.70893">
        <ele>156.80000305176</ele>
        <time>2021-09-12T07:21:56Z</time>
      </trkpt>
      <trkpt lat="48.36981" lon="-3.70894">
        <ele>156.80000305176</ele>
        <time>2021-09-12T07:21:57Z</time>
      </trkpt>
      <trkpt lat="48.36983" lon="-3.70894">
        <ele>157</ele>
        <time>2021-09-12T07:21:58Z</time>
      </trkpt>
      <trkpt lat="48.36986" lon="-3.70895">
        <ele>157</ele>
        <time>2021-09-12T07:21:59Z</time>
      </trkpt>
      <trkpt lat="48.36989" lon="-3.70895">
        <ele>157</ele>
        <time>2021-09-12T07:22:00Z</time>
      </trkpt>
      <trkpt lat="48.36992" lon="-3.70896">
        <ele>157.19999694824</ele>
        <time>2021-09-12T07:22:01Z</time>
      </trkpt>
      <trkpt lat="48.36994" lon="-3.70897">
        <ele>157.19999694824</ele>
        <time>2021-09-12T07:22:02Z</time>
      </trkpt>
      <trkpt lat="48.36997" lon="-3.70898">
        <ele>157.39999389648</ele>
        <time>2021-09-12T07:22:03Z</time>
      </trkpt>
      <trkpt lat="48.37001" lon="-3.70898">
        <ele>157.39999389648</ele>
        <time>2021-09-12T07:22:04Z</time>
      </trkpt>
      <trkpt lat="48.37004" lon="-3.70898">
        <ele>157.60000610352</ele>
        <time>2021-09-12T07:22:05Z</time>
      </trkpt>
      <trkpt lat="48.37007" lon="-3.70897">
        <ele>157.60000610352</ele>
        <time>2021-09-12T07:22:06Z</time>
      </trkpt>
      <trkpt lat="48.3701" lon="-3.70897">
        <ele>157.60000610352</ele>
        <time>2021-09-12T07:22:07Z</time>
      </trkpt>
      <trkpt lat="48.37014" lon="-3.70896">
        <ele>157.60000610352</ele>
        <time>2021-09-12T07:22:08Z</time>
      </trkpt>
      <trkpt lat="48.37017" lon="-3.70894">
        <ele>157.60000610352</ele>
        <time>2021-09-12T07:22:09Z</time>
      </trkpt>
      <trkpt lat="48.37021" lon="-3.70893">
        <ele>157.60000610352</ele>
        <time>2021-09-12T07:22:10Z</time>
      </trkpt>
      <trkpt lat="48.37024" lon="-3.70891">
        <ele>157.39999389648</ele>
        <time>2021-09-12T07:22:11Z</time>
      </trkpt>
      <trkpt lat="48.37028" lon="-3.70889">
        <ele>157.19999694824</ele>
        <time>2021-09-12T07:22:12Z</time>
      </trkpt>
      <trkpt lat="48.37033" lon="-3.70888">
        <ele>157.19999694824</ele>
        <time>2021-09-12T07:22:13Z</time>
      </trkpt>
      <trkpt lat="48.37037" lon="-3.70886">
        <ele>157.19999694824</ele>
        <time>2021-09-12T07:22:14Z</time>
      </trkpt>
      <trkpt lat="48.37043" lon="-3.70884">
        <ele>157.19999694824</ele>
        <time>2021-09-12T07:22:15Z</time>
      </trkpt>
      <trkpt lat="48.37047" lon="-3.70882">
        <ele>157.19999694824</ele>
        <time>2021-09-12T07:22:16Z</time>
      </trkpt>
      <trkpt lat="48.37051" lon="-3.7088">
        <ele>157</ele>
        <time>2021-09-12T07:22:17Z</time>
      </trkpt>
      <trkpt lat="48.37057" lon="-3.70878">
        <ele>157</ele>
        <time>2021-09-12T07:22:18Z</time>
      </trkpt>
      <trkpt lat="48.37062" lon="-3.70876">
        <ele>157</ele>
        <time>2021-09-12T07:22:19Z</time>
      </trkpt>
      <trkpt lat="48.37066" lon="-3.70874">
        <ele>156.80000305176</ele>
        <time>2021-09-12T07:22:20Z</time>
      </trkpt>
      <trkpt lat="48.37071" lon="-3.70872">
        <ele>156.60000610352</ele>
        <time>2021-09-12T07:22:21Z</time>
      </trkpt>
      <trkpt lat="48.37076" lon="-3.70869">
        <ele>156.60000610352</ele>
        <time>2021-09-12T07:22:22Z</time>
      </trkpt>
      <trkpt lat="48.37081" lon="-3.70867">
        <ele>156.60000610352</ele>
        <time>2021-09-12T07:22:23Z</time>
      </trkpt>
      <trkpt lat="48.37086" lon="-3.70865">
        <ele>156.60000610352</ele>
        <time>2021-09-12T07:22:24Z</time>
      </trkpt>
      <trkpt lat="48.37092" lon="-3.70863">
        <ele>156.39999389648</ele>
        <time>2021-09-12T07:22:25Z</time>
      </trkpt>
      <trkpt lat="48.37097" lon="-3.70861">
        <ele>156.39999389648</ele>
        <time>2021-09-12T07:22:26Z</time>
      </trkpt>
      <trkpt lat="48.37102" lon="-3.70858">
        <ele>156.60000610352</ele>
        <time>2021-09-12T07:22:27Z</time>
      </trkpt>
      <trkpt lat="48.37106" lon="-3.70856">
        <ele>157</ele>
        <time>2021-09-12T07:22:28Z</time>
      </trkpt>
      <trkpt lat="48.3711" lon="-3.70855">
        <ele>157</ele>
        <time>2021-09-12T07:22:29Z</time>
      </trkpt>
      <trkpt lat="48.37116" lon="-3.70853">
        <ele>157</ele>
        <time>2021-09-12T07:22:30Z</time>
      </trkpt>
      <trkpt lat="48.37121" lon="-3.70852">
        <ele>157</ele>
        <time>2021-09-12T07:22:31Z</time>
      </trkpt>
      <trkpt lat="48.37125" lon="-3.70851">
        <ele>157</ele>
        <time>2021-09-12T07:22:32Z</time>
      </trkpt>
      <trkpt lat="48.37128" lon="-3.7085">
        <ele>157.19999694824</ele>
        <time>2021-09-12T07:22:33Z</time>
      </trkpt>
      <trkpt lat="48.37131" lon="-3.70848">
        <ele>157.60000610352</ele>
        <time>2021-09-12T07:22:34Z</time>
      </trkpt>
      <trkpt lat="48.37133" lon="-3.70847">
        <ele>157.60000610352</ele>
        <time>2021-09-12T07:22:35Z</time>
      </trkpt>
      <trkpt lat="48.37136" lon="-3.70844">
        <ele>157.60000610352</ele>
        <time>2021-09-12T07:22:36Z</time>
      </trkpt>
      <trkpt lat="48.37139" lon="-3.70842">
        <ele>157.80000305176</ele>
        <time>2021-09-12T07:22:37Z</time>
      </trkpt>
      <trkpt lat="48.37141" lon="-3.7084">
        <ele>158.19999694824</ele>
        <time>2021-09-12T07:22:38Z</time>
      </trkpt>
      <trkpt lat="48.37145" lon="-3.70837">
        <ele>158.60000610352</ele>
        <time>2021-09-12T07:22:39Z</time>
      </trkpt>
      <trkpt lat="48.37147" lon="-3.70836">
        <ele>158.60000610352</ele>
        <time>2021-09-12T07:22:40Z</time>
      </trkpt>
      <trkpt lat="48.37148" lon="-3.70835">
        <ele>159</ele>
        <time>2021-09-12T07:22:41Z</time>
      </trkpt>
      <trkpt lat="48.3715" lon="-3.70833">
        <ele>159.19999694824</ele>
        <time>2021-09-12T07:22:42Z</time>
      </trkpt>
      <trkpt lat="48.37152" lon="-3.70831">
        <ele>159.80000305176</ele>
        <time>2021-09-12T07:22:43Z</time>
      </trkpt>
      <trkpt lat="48.37155" lon="-3.70828">
        <ele>159.80000305176</ele>
        <time>2021-09-12T07:22:44Z</time>
      </trkpt>
      <trkpt lat="48.37157" lon="-3.70826">
        <ele>160.39999389648</ele>
        <time>2021-09-12T07:22:45Z</time>
      </trkpt>
      <trkpt lat="48.3716" lon="-3.70824">
        <ele>160.60000610352</ele>
        <time>2021-09-12T07:22:46Z</time>
      </trkpt>
      <trkpt lat="48.37162" lon="-3.70822">
        <ele>160.60000610352</ele>
        <time>2021-09-12T07:22:47Z</time>
      </trkpt>
      <trkpt lat="48.37163" lon="-3.70821">
        <ele>160.80000305176</ele>
        <time>2021-09-12T07:22:48Z</time>
      </trkpt>
      <trkpt lat="48.37165" lon="-3.7082">
        <ele>161.39999389648</ele>
        <time>2021-09-12T07:22:49Z</time>
      </trkpt>
      <trkpt lat="48.37167" lon="-3.70818">
        <ele>161.39999389648</ele>
        <time>2021-09-12T07:22:50Z</time>
      </trkpt>
      <trkpt lat="48.37169" lon="-3.70817">
        <ele>161.80000305176</ele>
        <time>2021-09-12T07:22:51Z</time>
      </trkpt>
      <trkpt lat="48.37172" lon="-3.70816">
        <ele>162</ele>
        <time>2021-09-12T07:22:52Z</time>
      </trkpt>
      <trkpt lat="48.37175" lon="-3.70814">
        <ele>162.19999694824</ele>
        <time>2021-09-12T07:22:53Z</time>
      </trkpt>
      <trkpt lat="48.37177" lon="-3.70813">
        <ele>162.19999694824</ele>
        <time>2021-09-12T07:22:54Z</time>
      </trkpt>
      <trkpt lat="48.3718" lon="-3.70813">
        <ele>162.60000610352</ele>
        <time>2021-09-12T07:22:55Z</time>
      </trkpt>
      <trkpt lat="48.37183" lon="-3.70813">
        <ele>163.19999694824</ele>
        <time>2021-09-12T07:22:56Z</time>
      </trkpt>
      <trkpt lat="48.37186" lon="-3.70811">
        <ele>163.60000610352</ele>
        <time>2021-09-12T07:22:57Z</time>
      </trkpt>
      <trkpt lat="48.37188" lon="-3.7081">
        <ele>163.60000610352</ele>
        <time>2021-09-12T07:22:58Z</time>
      </trkpt>
      <trkpt lat="48.3719" lon="-3.70809">
        <ele>163.80000305176</ele>
        <time>2021-09-12T07:22:59Z</time>
      </trkpt>
      <trkpt lat="48.37193" lon="-3.70808">
        <ele>163.80000305176</ele>
        <time>2021-09-12T07:23:00Z</time>
      </trkpt>
      <trkpt lat="48.37195" lon="-3.70807">
        <ele>164.19999694824</ele>
        <time>2021-09-12T07:23:01Z</time>
      </trkpt>
      <trkpt lat="48.37198" lon="-3.70806">
        <ele>164.60000610352</ele>
        <time>2021-09-12T07:23:02Z</time>
      </trkpt>
      <trkpt lat="48.37201" lon="-3.70804">
        <ele>164.80000305176</ele>
        <time>2021-09-12T07:23:03Z</time>
      </trkpt>
      <trkpt lat="48.37202" lon="-3.70802">
        <ele>165</ele>
        <time>2021-09-12T07:23:04Z</time>
      </trkpt>
      <trkpt lat="48.37205" lon="-3.708">
        <ele>165.39999389648</ele>
        <time>2021-09-12T07:23:05Z</time>
      </trkpt>
      <trkpt lat="48.37208" lon="-3.70799">
        <ele>165.60000610352</ele>
        <time>2021-09-12T07:23:06Z</time>
      </trkpt>
      <trkpt lat="48.3721" lon="-3.70798">
        <ele>166</ele>
        <time>2021-09-12T07:23:07Z</time>
      </trkpt>
      <trkpt lat="48.37213" lon="-3.70798">
        <ele>166</ele>
        <time>2021-09-12T07:23:08Z</time>
      </trkpt>
      <trkpt lat="48.37215" lon="-3.70798">
        <ele>166.60000610352</ele>
        <time>2021-09-12T07:23:09Z</time>
      </trkpt>
      <trkpt lat="48.37217" lon="-3.70798">
        <ele>166.80000305176</ele>
        <time>2021-09-12T07:23:10Z</time>
      </trkpt>
      <trkpt lat="48.3722" lon="-3.70798">
        <ele>167.19999694824</ele>
        <time>2021-09-12T07:23:11Z</time>
      </trkpt>
      <trkpt lat="48.37222" lon="-3.70797">
        <ele>167.39999389648</ele>
        <time>2021-09-12T07:23:12Z</time>
      </trkpt>
      <trkpt lat="48.37225" lon="-3.70798">
        <ele>167.39999389648</ele>
        <time>2021-09-12T07:23:13Z</time>
      </trkpt>
      <trkpt lat="48.37228" lon="-3.70798">
        <ele>167.60000610352</ele>
        <time>2021-09-12T07:23:14Z</time>
      </trkpt>
      <trkpt lat="48.37231" lon="-3.70798">
        <ele>167.60000610352</ele>
        <time>2021-09-12T07:23:15Z</time>
      </trkpt>
      <trkpt lat="48.37234" lon="-3.70799">
        <ele>167.60000610352</ele>
        <time>2021-09-12T07:23:16Z</time>
      </trkpt>
      <trkpt lat="48.37237" lon="-3.708">
        <ele>167.60000610352</ele>
        <time>2021-09-12T07:23:17Z</time>
      </trkpt>
      <trkpt lat="48.37241" lon="-3.70801">
        <ele>167.19999694824</ele>
        <time>2021-09-12T07:23:18Z</time>
      </trkpt>
      <trkpt lat="48.37247" lon="-3.70801">
        <ele>167</ele>
        <time>2021-09-12T07:23:19Z</time>
      </trkpt>
      <trkpt lat="48.37251" lon="-3.70801">
        <ele>166.60000610352</ele>
        <time>2021-09-12T07:23:20Z</time>
      </trkpt>
      <trkpt lat="48.37256" lon="-3.70798">
        <ele>166.39999389648</ele>
        <time>2021-09-12T07:23:21Z</time>
      </trkpt>
      <trkpt lat="48.37258" lon="-3.70796">
        <ele>166.39999389648</ele>
        <time>2021-09-12T07:23:22Z</time>
      </trkpt>
      <trkpt lat="48.37259" lon="-3.70792">
        <ele>166.19999694824</ele>
        <time>2021-09-12T07:23:23Z</time>
      </trkpt>
      <trkpt lat="48.3726" lon="-3.70788">
        <ele>166.19999694824</ele>
        <time>2021-09-12T07:23:24Z</time>
      </trkpt>
      <trkpt lat="48.3726" lon="-3.70783">
        <ele>166.19999694824</ele>
        <time>2021-09-12T07:23:25Z</time>
      </trkpt>
      <trkpt lat="48.3726" lon="-3.70779">
        <ele>166.39999389648</ele>
        <time>2021-09-12T07:23:26Z</time>
      </trkpt>
      <trkpt lat="48.3726" lon="-3.70774">
        <ele>166.39999389648</ele>
        <time>2021-09-12T07:23:27Z</time>
      </trkpt>
      <trkpt lat="48.37261" lon="-3.70769">
        <ele>166.39999389648</ele>
        <time>2021-09-12T07:23:28Z</time>
      </trkpt>
      <trkpt lat="48.37263" lon="-3.70764">
        <ele>166.60000610352</ele>
        <time>2021-09-12T07:23:29Z</time>
      </trkpt>
      <trkpt lat="48.37264" lon="-3.7076">
        <ele>166.60000610352</ele>
        <time>2021-09-12T07:23:30Z</time>
      </trkpt>
      <trkpt lat="48.37265" lon="-3.70756">
        <ele>166.60000610352</ele>
        <time>2021-09-12T07:23:31Z</time>
      </trkpt>
      <trkpt lat="48.37264" lon="-3.70752">
        <ele>166.60000610352</ele>
        <time>2021-09-12T07:23:32Z</time>
      </trkpt>
      <trkpt lat="48.37265" lon="-3.70748">
        <ele>166.80000305176</ele>
        <time>2021-09-12T07:23:33Z</time>
      </trkpt>
      <trkpt lat="48.37268" lon="-3.70745">
        <ele>167</ele>
        <time>2021-09-12T07:23:34Z</time>
      </trkpt>
      <trkpt lat="48.37272" lon="-3.70743">
        <ele>167.19999694824</ele>
        <time>2021-09-12T07:23:35Z</time>
      </trkpt>
      <trkpt lat="48.37275" lon="-3.70742">
        <ele>167.19999694824</ele>
        <time>2021-09-12T07:23:36Z</time>
      </trkpt>
      <trkpt lat="48.37279" lon="-3.70741">
        <ele>167.39999389648</ele>
        <time>2021-09-12T07:23:37Z</time>
      </trkpt>
      <trkpt lat="48.37281" lon="-3.70741">
        <ele>167.39999389648</ele>
        <time>2021-09-12T07:23:38Z</time>
      </trkpt>
      <trkpt lat="48.37285" lon="-3.7074">
        <ele>167.39999389648</ele>
        <time>2021-09-12T07:23:39Z</time>
      </trkpt>
      <trkpt lat="48.37289" lon="-3.70741">
        <ele>167.60000610352</ele>
        <time>2021-09-12T07:23:40Z</time>
      </trkpt>
      <trkpt lat="48.37293" lon="-3.70741">
        <ele>167.60000610352</ele>
        <time>2021-09-12T07:23:41Z</time>
      </trkpt>
      <trkpt lat="48.37296" lon="-3.70742">
        <ele>167.60000610352</ele>
        <time>2021-09-12T07:23:42Z</time>
      </trkpt>
      <trkpt lat="48.373" lon="-3.70744">
        <ele>167.60000610352</ele>
        <time>2021-09-12T07:23:43Z</time>
      </trkpt>
      <trkpt lat="48.37304" lon="-3.70746">
        <ele>167.60000610352</ele>
        <time>2021-09-12T07:23:44Z</time>
      </trkpt>
      <trkpt lat="48.37309" lon="-3.7075">
        <ele>166.80000305176</ele>
        <time>2021-09-12T07:23:45Z</time>
      </trkpt>
      <trkpt lat="48.37314" lon="-3.70753">
        <ele>166.60000610352</ele>
        <time>2021-09-12T07:23:46Z</time>
      </trkpt>
      <trkpt lat="48.37318" lon="-3.70755">
        <ele>166.39999389648</ele>
        <time>2021-09-12T07:23:47Z</time>
      </trkpt>
      <trkpt lat="48.37323" lon="-3.70758">
        <ele>165.80000305176</ele>
        <time>2021-09-12T07:23:48Z</time>
      </trkpt>
      <trkpt lat="48.37327" lon="-3.70762">
        <ele>165.60000610352</ele>
        <time>2021-09-12T07:23:49Z</time>
      </trkpt>
      <trkpt lat="48.3733" lon="-3.70764">
        <ele>164.60000610352</ele>
        <time>2021-09-12T07:23:50Z</time>
      </trkpt>
      <trkpt lat="48.37336" lon="-3.70767">
        <ele>164.39999389648</ele>
        <time>2021-09-12T07:23:51Z</time>
      </trkpt>
      <trkpt lat="48.37341" lon="-3.70773">
        <ele>164.19999694824</ele>
        <time>2021-09-12T07:23:52Z</time>
      </trkpt>
      <trkpt lat="48.37345" lon="-3.70777">
        <ele>163.39999389648</ele>
        <time>2021-09-12T07:23:53Z</time>
      </trkpt>
      <trkpt lat="48.37346" lon="-3.7078">
        <ele>163.39999389648</ele>
        <time>2021-09-12T07:23:54Z</time>
      </trkpt>
      <trkpt lat="48.37349" lon="-3.70782">
        <ele>162</ele>
        <time>2021-09-12T07:23:55Z</time>
      </trkpt>
      <trkpt lat="48.37352" lon="-3.70784">
        <ele>161.60000610352</ele>
        <time>2021-09-12T07:23:56Z</time>
      </trkpt>
      <trkpt lat="48.37356" lon="-3.70784">
        <ele>161.39999389648</ele>
        <time>2021-09-12T07:23:57Z</time>
      </trkpt>
      <trkpt lat="48.3736" lon="-3.70781">
        <ele>161.39999389648</ele>
        <time>2021-09-12T07:23:58Z</time>
      </trkpt>
      <trkpt lat="48.37362" lon="-3.70778">
        <ele>161.39999389648</ele>
        <time>2021-09-12T07:23:59Z</time>
      </trkpt>
      <trkpt lat="48.37367" lon="-3.70772">
        <ele>161.39999389648</ele>
        <time>2021-09-12T07:24:00Z</time>
      </trkpt>
      <trkpt lat="48.37371" lon="-3.70769">
        <ele>161.39999389648</ele>
        <time>2021-09-12T07:24:01Z</time>
      </trkpt>
      <trkpt lat="48.37373" lon="-3.70767">
        <ele>161.80000305176</ele>
        <time>2021-09-12T07:24:02Z</time>
      </trkpt>
      <trkpt lat="48.37374" lon="-3.70765">
        <ele>161.80000305176</ele>
        <time>2021-09-12T07:24:03Z</time>
      </trkpt>
      <trkpt lat="48.37377" lon="-3.70762">
        <ele>162.39999389648</ele>
        <time>2021-09-12T07:24:04Z</time>
      </trkpt>
      <trkpt lat="48.37379" lon="-3.70758">
        <ele>162.60000610352</ele>
        <time>2021-09-12T07:24:05Z</time>
      </trkpt>
      <trkpt lat="48.37381" lon="-3.70756">
        <ele>162.80000305176</ele>
        <time>2021-09-12T07:24:06Z</time>
      </trkpt>
      <trkpt lat="48.37383" lon="-3.70755">
        <ele>163.19999694824</ele>
        <time>2021-09-12T07:24:07Z</time>
      </trkpt>
      <trkpt lat="48.37386" lon="-3.70752">
        <ele>163.39999389648</ele>
        <time>2021-09-12T07:24:08Z</time>
      </trkpt>
      <trkpt lat="48.37388" lon="-3.70749">
        <ele>163.39999389648</ele>
        <time>2021-09-12T07:24:09Z</time>
      </trkpt>
      <trkpt lat="48.37391" lon="-3.70745">
        <ele>163.60000610352</ele>
        <time>2021-09-12T07:24:10Z</time>
      </trkpt>
      <trkpt lat="48.37394" lon="-3.70742">
        <ele>163.60000610352</ele>
        <time>2021-09-12T07:24:11Z</time>
      </trkpt>
      <trkpt lat="48.37395" lon="-3.7074">
        <ele>164</ele>
        <time>2021-09-12T07:24:12Z</time>
      </trkpt>
      <trkpt lat="48.37397" lon="-3.70738">
        <ele>164</ele>
        <time>2021-09-12T07:24:13Z</time>
      </trkpt>
      <trkpt lat="48.37399" lon="-3.70735">
        <ele>164.39999389648</ele>
        <time>2021-09-12T07:24:14Z</time>
      </trkpt>
      <trkpt lat="48.37401" lon="-3.70732">
        <ele>164.39999389648</ele>
        <time>2021-09-12T07:24:15Z</time>
      </trkpt>
      <trkpt lat="48.37403" lon="-3.70728">
        <ele>164.60000610352</ele>
        <time>2021-09-12T07:24:16Z</time>
      </trkpt>
      <trkpt lat="48.37404" lon="-3.70726">
        <ele>164.60000610352</ele>
        <time>2021-09-12T07:24:17Z</time>
      </trkpt>
      <trkpt lat="48.37406" lon="-3.70723">
        <ele>164.80000305176</ele>
        <time>2021-09-12T07:24:18Z</time>
      </trkpt>
      <trkpt lat="48.37408" lon="-3.70721">
        <ele>164.80000305176</ele>
        <time>2021-09-12T07:24:19Z</time>
      </trkpt>
      <trkpt lat="48.37409" lon="-3.70718">
        <ele>165</ele>
        <time>2021-09-12T07:24:20Z</time>
      </trkpt>
      <trkpt lat="48.3741" lon="-3.70715">
        <ele>165</ele>
        <time>2021-09-12T07:24:21Z</time>
      </trkpt>
      <trkpt lat="48.37411" lon="-3.70713">
        <ele>165.19999694824</ele>
        <time>2021-09-12T07:24:22Z</time>
      </trkpt>
      <trkpt lat="48.37413" lon="-3.7071">
        <ele>165.39999389648</ele>
        <time>2021-09-12T07:24:23Z</time>
      </trkpt>
      <trkpt lat="48.37414" lon="-3.70708">
        <ele>165.39999389648</ele>
        <time>2021-09-12T07:24:24Z</time>
      </trkpt>
      <trkpt lat="48.37416" lon="-3.70706">
        <ele>165.60000610352</ele>
        <time>2021-09-12T07:24:25Z</time>
      </trkpt>
      <trkpt lat="48.37417" lon="-3.70703">
        <ele>165.80000305176</ele>
        <time>2021-09-12T07:24:26Z</time>
      </trkpt>
      <trkpt lat="48.37419" lon="-3.70701">
        <ele>165.80000305176</ele>
        <time>2021-09-12T07:24:27Z</time>
      </trkpt>
      <trkpt lat="48.3742" lon="-3.70698">
        <ele>165.80000305176</ele>
        <time>2021-09-12T07:24:28Z</time>
      </trkpt>
      <trkpt lat="48.37422" lon="-3.70695">
        <ele>165.80000305176</ele>
        <time>2021-09-12T07:24:29Z</time>
      </trkpt>
      <trkpt lat="48.37424" lon="-3.70692">
        <ele>165.80000305176</ele>
        <time>2021-09-12T07:24:30Z</time>
      </trkpt>
      <trkpt lat="48.37425" lon="-3.7069">
        <ele>165.80000305176</ele>
        <time>2021-09-12T07:24:31Z</time>
      </trkpt>
      <trkpt lat="48.37427" lon="-3.70687">
        <ele>165.80000305176</ele>
        <time>2021-09-12T07:24:32Z</time>
      </trkpt>
      <trkpt lat="48.37428" lon="-3.70685">
        <ele>165.80000305176</ele>
        <time>2021-09-12T07:24:33Z</time>
      </trkpt>
      <trkpt lat="48.37429" lon="-3.70684">
        <ele>165.80000305176</ele>
        <time>2021-09-12T07:24:34Z</time>
      </trkpt>
      <trkpt lat="48.37432" lon="-3.70684">
        <ele>165.80000305176</ele>
        <time>2021-09-12T07:24:35Z</time>
      </trkpt>
      <trkpt lat="48.37433" lon="-3.70682">
        <ele>165.80000305176</ele>
        <time>2021-09-12T07:24:36Z</time>
      </trkpt>
      <trkpt lat="48.37434" lon="-3.70679">
        <ele>165.80000305176</ele>
        <time>2021-09-12T07:24:37Z</time>
      </trkpt>
      <trkpt lat="48.37435" lon="-3.70675">
        <ele>165.80000305176</ele>
        <time>2021-09-12T07:24:38Z</time>
      </trkpt>
      <trkpt lat="48.37435" lon="-3.70672">
        <ele>165.80000305176</ele>
        <time>2021-09-12T07:24:39Z</time>
      </trkpt>
      <trkpt lat="48.37437" lon="-3.70669">
        <ele>165.80000305176</ele>
        <time>2021-09-12T07:24:40Z</time>
      </trkpt>
      <trkpt lat="48.37438" lon="-3.70665">
        <ele>166</ele>
        <time>2021-09-12T07:24:41Z</time>
      </trkpt>
      <trkpt lat="48.3744" lon="-3.70663">
        <ele>166</ele>
        <time>2021-09-12T07:24:42Z</time>
      </trkpt>
      <trkpt lat="48.37441" lon="-3.7066">
        <ele>166.19999694824</ele>
        <time>2021-09-12T07:24:43Z</time>
      </trkpt>
      <trkpt lat="48.37442" lon="-3.70657">
        <ele>166.19999694824</ele>
        <time>2021-09-12T07:24:44Z</time>
      </trkpt>
      <trkpt lat="48.37444" lon="-3.70653">
        <ele>166.19999694824</ele>
        <time>2021-09-12T07:24:45Z</time>
      </trkpt>
      <trkpt lat="48.37445" lon="-3.7065">
        <ele>166.19999694824</ele>
        <time>2021-09-12T07:24:46Z</time>
      </trkpt>
      <trkpt lat="48.37446" lon="-3.70646">
        <ele>166.19999694824</ele>
        <time>2021-09-12T07:24:47Z</time>
      </trkpt>
      <trkpt lat="48.37448" lon="-3.70642">
        <ele>166.19999694824</ele>
        <time>2021-09-12T07:24:48Z</time>
      </trkpt>
      <trkpt lat="48.3745" lon="-3.70639">
        <ele>166.19999694824</ele>
        <time>2021-09-12T07:24:49Z</time>
      </trkpt>
      <trkpt lat="48.37452" lon="-3.70637">
        <ele>166</ele>
        <time>2021-09-12T07:24:50Z</time>
      </trkpt>
      <trkpt lat="48.37453" lon="-3.70635">
        <ele>165.80000305176</ele>
        <time>2021-09-12T07:24:51Z</time>
      </trkpt>
      <trkpt lat="48.37454" lon="-3.70633">
        <ele>165.80000305176</ele>
        <time>2021-09-12T07:24:52Z</time>
      </trkpt>
      <trkpt lat="48.37455" lon="-3.70632">
        <ele>165.80000305176</ele>
        <time>2021-09-12T07:24:53Z</time>
      </trkpt>
      <trkpt lat="48.37456" lon="-3.7063">
        <ele>165.80000305176</ele>
        <time>2021-09-12T07:24:54Z</time>
      </trkpt>
      <trkpt lat="48.37457" lon="-3.70627">
        <ele>165.80000305176</ele>
        <time>2021-09-12T07:24:55Z</time>
      </trkpt>
      <trkpt lat="48.37458" lon="-3.70625">
        <ele>165.80000305176</ele>
        <time>2021-09-12T07:24:56Z</time>
      </trkpt>
      <trkpt lat="48.37459" lon="-3.70622">
        <ele>165.80000305176</ele>
        <time>2021-09-12T07:24:57Z</time>
      </trkpt>
      <trkpt lat="48.37461" lon="-3.70619">
        <ele>165.60000610352</ele>
        <time>2021-09-12T07:24:58Z</time>
      </trkpt>
      <trkpt lat="48.37462" lon="-3.70616">
        <ele>165.60000610352</ele>
        <time>2021-09-12T07:24:59Z</time>
      </trkpt>
      <trkpt lat="48.37465" lon="-3.70612">
        <ele>165.39999389648</ele>
        <time>2021-09-12T07:25:00Z</time>
      </trkpt>
      <trkpt lat="48.37466" lon="-3.70609">
        <ele>165.39999389648</ele>
        <time>2021-09-12T07:25:01Z</time>
      </trkpt>
      <trkpt lat="48.37468" lon="-3.70605">
        <ele>165.39999389648</ele>
        <time>2021-09-12T07:25:02Z</time>
      </trkpt>
      <trkpt lat="48.37469" lon="-3.70602">
        <ele>165.39999389648</ele>
        <time>2021-09-12T07:25:03Z</time>
      </trkpt>
      <trkpt lat="48.37471" lon="-3.70599">
        <ele>165.19999694824</ele>
        <time>2021-09-12T07:25:04Z</time>
      </trkpt>
      <trkpt lat="48.37473" lon="-3.70595">
        <ele>165</ele>
        <time>2021-09-12T07:25:05Z</time>
      </trkpt>
      <trkpt lat="48.37475" lon="-3.70591">
        <ele>165</ele>
        <time>2021-09-12T07:25:06Z</time>
      </trkpt>
      <trkpt lat="48.37476" lon="-3.70587">
        <ele>164.80000305176</ele>
        <time>2021-09-12T07:25:07Z</time>
      </trkpt>
      <trkpt lat="48.37479" lon="-3.70583">
        <ele>164.80000305176</ele>
        <time>2021-09-12T07:25:08Z</time>
      </trkpt>
      <trkpt lat="48.37481" lon="-3.70578">
        <ele>164.80000305176</ele>
        <time>2021-09-12T07:25:09Z</time>
      </trkpt>
      <trkpt lat="48.37483" lon="-3.70574">
        <ele>164.60000610352</ele>
        <time>2021-09-12T07:25:10Z</time>
      </trkpt>
      <trkpt lat="48.37484" lon="-3.70569">
        <ele>164.39999389648</ele>
        <time>2021-09-12T07:25:11Z</time>
      </trkpt>
      <trkpt lat="48.37487" lon="-3.70563">
        <ele>164.39999389648</ele>
        <time>2021-09-12T07:25:12Z</time>
      </trkpt>
      <trkpt lat="48.37488" lon="-3.70559">
        <ele>164.39999389648</ele>
        <time>2021-09-12T07:25:13Z</time>
      </trkpt>
      <trkpt lat="48.37488" lon="-3.70553">
        <ele>164.39999389648</ele>
        <time>2021-09-12T07:25:14Z</time>
      </trkpt>
      <trkpt lat="48.37488" lon="-3.70547">
        <ele>164.39999389648</ele>
        <time>2021-09-12T07:25:15Z</time>
      </trkpt>
      <trkpt lat="48.37489" lon="-3.70541">
        <ele>164.39999389648</ele>
        <time>2021-09-12T07:25:16Z</time>
      </trkpt>
      <trkpt lat="48.37489" lon="-3.70535">
        <ele>164.60000610352</ele>
        <time>2021-09-12T07:25:17Z</time>
      </trkpt>
      <trkpt lat="48.3749" lon="-3.70531">
        <ele>164.60000610352</ele>
        <time>2021-09-12T07:25:18Z</time>
      </trkpt>
      <trkpt lat="48.37492" lon="-3.70526">
        <ele>164.60000610352</ele>
        <time>2021-09-12T07:25:19Z</time>
      </trkpt>
      <trkpt lat="48.37494" lon="-3.70522">
        <ele>164.60000610352</ele>
        <time>2021-09-12T07:25:20Z</time>
      </trkpt>
      <trkpt lat="48.37495" lon="-3.70517">
        <ele>164.60000610352</ele>
        <time>2021-09-12T07:25:21Z</time>
      </trkpt>
      <trkpt lat="48.37496" lon="-3.70511">
        <ele>164.19999694824</ele>
        <time>2021-09-12T07:25:22Z</time>
      </trkpt>
      <trkpt lat="48.37498" lon="-3.70505">
        <ele>164</ele>
        <time>2021-09-12T07:25:23Z</time>
      </trkpt>
      <trkpt lat="48.375" lon="-3.705">
        <ele>163.39999389648</ele>
        <time>2021-09-12T07:25:24Z</time>
      </trkpt>
      <trkpt lat="48.37504" lon="-3.70498">
        <ele>163</ele>
        <time>2021-09-12T07:25:25Z</time>
      </trkpt>
      <trkpt lat="48.37507" lon="-3.70499">
        <ele>162.80000305176</ele>
        <time>2021-09-12T07:25:26Z</time>
      </trkpt>
      <trkpt lat="48.3751" lon="-3.705">
        <ele>162.19999694824</ele>
        <time>2021-09-12T07:25:27Z</time>
      </trkpt>
      <trkpt lat="48.37515" lon="-3.70504">
        <ele>162.19999694824</ele>
        <time>2021-09-12T07:25:28Z</time>
      </trkpt>
      <trkpt lat="48.3752" lon="-3.70509">
        <ele>161.80000305176</ele>
        <time>2021-09-12T07:25:29Z</time>
      </trkpt>
      <trkpt lat="48.37526" lon="-3.70515">
        <ele>160.80000305176</ele>
        <time>2021-09-12T07:25:30Z</time>
      </trkpt>
      <trkpt lat="48.37533" lon="-3.70522">
        <ele>160.19999694824</ele>
        <time>2021-09-12T07:25:31Z</time>
      </trkpt>
      <trkpt lat="48.3754" lon="-3.7053">
        <ele>159.19999694824</ele>
        <time>2021-09-12T07:25:32Z</time>
      </trkpt>
      <trkpt lat="48.37548" lon="-3.70538">
        <ele>158.80000305176</ele>
        <time>2021-09-12T07:25:33Z</time>
      </trkpt>
      <trkpt lat="48.37555" lon="-3.70547">
        <ele>158</ele>
        <time>2021-09-12T07:25:34Z</time>
      </trkpt>
      <trkpt lat="48.37563" lon="-3.70556">
        <ele>157.39999389648</ele>
        <time>2021-09-12T07:25:35Z</time>
      </trkpt>
      <trkpt lat="48.37569" lon="-3.70563">
        <ele>156.80000305176</ele>
        <time>2021-09-12T07:25:36Z</time>
      </trkpt>
      <trkpt lat="48.37577" lon="-3.70573">
        <ele>155.60000610352</ele>
        <time>2021-09-12T07:25:37Z</time>
      </trkpt>
      <trkpt lat="48.37586" lon="-3.70583">
        <ele>155.19999694824</ele>
        <time>2021-09-12T07:25:38Z</time>
      </trkpt>
      <trkpt lat="48.37593" lon="-3.70594">
        <ele>154.60000610352</ele>
        <time>2021-09-12T07:25:39Z</time>
      </trkpt>
      <trkpt lat="48.37599" lon="-3.70604">
        <ele>154</ele>
        <time>2021-09-12T07:25:40Z</time>
      </trkpt>
      <trkpt lat="48.37604" lon="-3.70614">
        <ele>153.19999694824</ele>
        <time>2021-09-12T07:25:41Z</time>
      </trkpt>
      <trkpt lat="48.3761" lon="-3.70625">
        <ele>152.80000305176</ele>
        <time>2021-09-12T07:25:42Z</time>
      </trkpt>
      <trkpt lat="48.37616" lon="-3.70634">
        <ele>152.39999389648</ele>
        <time>2021-09-12T07:25:43Z</time>
      </trkpt>
      <trkpt lat="48.37623" lon="-3.70645">
        <ele>152.19999694824</ele>
        <time>2021-09-12T07:25:44Z</time>
      </trkpt>
      <trkpt lat="48.37628" lon="-3.70652">
        <ele>151.80000305176</ele>
        <time>2021-09-12T07:25:45Z</time>
      </trkpt>
      <trkpt lat="48.37634" lon="-3.70661">
        <ele>151.80000305176</ele>
        <time>2021-09-12T07:25:46Z</time>
      </trkpt>
      <trkpt lat="48.37639" lon="-3.70669">
        <ele>151.60000610352</ele>
        <time>2021-09-12T07:25:47Z</time>
      </trkpt>
      <trkpt lat="48.37645" lon="-3.70678">
        <ele>151.60000610352</ele>
        <time>2021-09-12T07:25:48Z</time>
      </trkpt>
      <trkpt lat="48.3765" lon="-3.70686">
        <ele>151.60000610352</ele>
        <time>2021-09-12T07:25:49Z</time>
      </trkpt>
      <trkpt lat="48.37656" lon="-3.70693">
        <ele>151.39999389648</ele>
        <time>2021-09-12T07:25:50Z</time>
      </trkpt>
      <trkpt lat="48.3766" lon="-3.707">
        <ele>151.39999389648</ele>
        <time>2021-09-12T07:25:51Z</time>
      </trkpt>
      <trkpt lat="48.37666" lon="-3.70707">
        <ele>151.39999389648</ele>
        <time>2021-09-12T07:25:52Z</time>
      </trkpt>
      <trkpt lat="48.3767" lon="-3.70713">
        <ele>151.39999389648</ele>
        <time>2021-09-12T07:25:53Z</time>
      </trkpt>
      <trkpt lat="48.37675" lon="-3.70719">
        <ele>151.39999389648</ele>
        <time>2021-09-12T07:25:54Z</time>
      </trkpt>
      <trkpt lat="48.37679" lon="-3.70725">
        <ele>151.39999389648</ele>
        <time>2021-09-12T07:25:55Z</time>
      </trkpt>
      <trkpt lat="48.37683" lon="-3.7073">
        <ele>151.60000610352</ele>
        <time>2021-09-12T07:25:56Z</time>
      </trkpt>
      <trkpt lat="48.37686" lon="-3.70736">
        <ele>151.80000305176</ele>
        <time>2021-09-12T07:25:57Z</time>
      </trkpt>
      <trkpt lat="48.37688" lon="-3.70741">
        <ele>152</ele>
        <time>2021-09-12T07:25:58Z</time>
      </trkpt>
      <trkpt lat="48.37691" lon="-3.70746">
        <ele>152.19999694824</ele>
        <time>2021-09-12T07:25:59Z</time>
      </trkpt>
      <trkpt lat="48.37695" lon="-3.7075">
        <ele>152.19999694824</ele>
        <time>2021-09-12T07:26:00Z</time>
      </trkpt>
      <trkpt lat="48.37698" lon="-3.70752">
        <ele>152.39999389648</ele>
        <time>2021-09-12T07:26:01Z</time>
      </trkpt>
      <trkpt lat="48.37702" lon="-3.70753">
        <ele>152.39999389648</ele>
        <time>2021-09-12T07:26:02Z</time>
      </trkpt>
      <trkpt lat="48.37707" lon="-3.70753">
        <ele>152.60000610352</ele>
        <time>2021-09-12T07:26:03Z</time>
      </trkpt>
      <trkpt lat="48.37709" lon="-3.70752">
        <ele>152.60000610352</ele>
        <time>2021-09-12T07:26:04Z</time>
      </trkpt>
      <trkpt lat="48.37713" lon="-3.7075">
        <ele>152.80000305176</ele>
        <time>2021-09-12T07:26:05Z</time>
      </trkpt>
      <trkpt lat="48.37716" lon="-3.70748">
        <ele>152.80000305176</ele>
        <time>2021-09-12T07:26:06Z</time>
      </trkpt>
      <trkpt lat="48.3772" lon="-3.70748">
        <ele>152.80000305176</ele>
        <time>2021-09-12T07:26:07Z</time>
      </trkpt>
      <trkpt lat="48.37723" lon="-3.70748">
        <ele>153</ele>
        <time>2021-09-12T07:26:08Z</time>
      </trkpt>
      <trkpt lat="48.37725" lon="-3.7075">
        <ele>153</ele>
        <time>2021-09-12T07:26:09Z</time>
      </trkpt>
      <trkpt lat="48.37728" lon="-3.70751">
        <ele>153</ele>
        <time>2021-09-12T07:26:10Z</time>
      </trkpt>
      <trkpt lat="48.3773" lon="-3.70753">
        <ele>153.39999389648</ele>
        <time>2021-09-12T07:26:11Z</time>
      </trkpt>
      <trkpt lat="48.37731" lon="-3.70755">
        <ele>153.80000305176</ele>
        <time>2021-09-12T07:26:12Z</time>
      </trkpt>
      <trkpt lat="48.37733" lon="-3.70757">
        <ele>153.80000305176</ele>
        <time>2021-09-12T07:26:13Z</time>
      </trkpt>
      <trkpt lat="48.37735" lon="-3.70759">
        <ele>154.19999694824</ele>
        <time>2021-09-12T07:26:14Z</time>
      </trkpt>
      <trkpt lat="48.37736" lon="-3.70761">
        <ele>154.39999389648</ele>
        <time>2021-09-12T07:26:15Z</time>
      </trkpt>
      <trkpt lat="48.37737" lon="-3.70764">
        <ele>155</ele>
        <time>2021-09-12T07:26:16Z</time>
      </trkpt>
      <trkpt lat="48.37739" lon="-3.70766">
        <ele>155.39999389648</ele>
        <time>2021-09-12T07:26:17Z</time>
      </trkpt>
      <trkpt lat="48.3774" lon="-3.70768">
        <ele>155.60000610352</ele>
        <time>2021-09-12T07:26:18Z</time>
      </trkpt>
      <trkpt lat="48.37741" lon="-3.70769">
        <ele>156.19999694824</ele>
        <time>2021-09-12T07:26:19Z</time>
      </trkpt>
      <trkpt lat="48.37742" lon="-3.70769">
        <ele>156.19999694824</ele>
        <time>2021-09-12T07:26:20Z</time>
      </trkpt>
      <trkpt lat="48.37743" lon="-3.7077">
        <ele>156.60000610352</ele>
        <time>2021-09-12T07:26:21Z</time>
      </trkpt>
      <trkpt lat="48.37744" lon="-3.70771">
        <ele>156.80000305176</ele>
        <time>2021-09-12T07:26:22Z</time>
      </trkpt>
      <trkpt lat="48.37745" lon="-3.70773">
        <ele>157.19999694824</ele>
        <time>2021-09-12T07:26:23Z</time>
      </trkpt>
      <trkpt lat="48.37746" lon="-3.70774">
        <ele>158</ele>
        <time>2021-09-12T07:26:24Z</time>
      </trkpt>
      <trkpt lat="48.37746" lon="-3.70776">
        <ele>158.19999694824</ele>
        <time>2021-09-12T07:26:25Z</time>
      </trkpt>
      <trkpt lat="48.37747" lon="-3.70777">
        <ele>158.39999389648</ele>
        <time>2021-09-12T07:26:26Z</time>
      </trkpt>
      <trkpt lat="48.37748" lon="-3.70779">
        <ele>158.60000610352</ele>
        <time>2021-09-12T07:26:27Z</time>
      </trkpt>
      <trkpt lat="48.3775" lon="-3.70781">
        <ele>158.80000305176</ele>
        <time>2021-09-12T07:26:28Z</time>
      </trkpt>
      <trkpt lat="48.37751" lon="-3.70782">
        <ele>158.80000305176</ele>
        <time>2021-09-12T07:26:29Z</time>
      </trkpt>
      <trkpt lat="48.37752" lon="-3.70782">
        <ele>159.39999389648</ele>
        <time>2021-09-12T07:26:30Z</time>
      </trkpt>
      <trkpt lat="48.37753" lon="-3.70784">
        <ele>159.60000610352</ele>
        <time>2021-09-12T07:26:31Z</time>
      </trkpt>
      <trkpt lat="48.37754" lon="-3.70785">
        <ele>159.60000610352</ele>
        <time>2021-09-12T07:26:32Z</time>
      </trkpt>
      <trkpt lat="48.37755" lon="-3.70786">
        <ele>160</ele>
        <time>2021-09-12T07:26:33Z</time>
      </trkpt>
      <trkpt lat="48.37756" lon="-3.70787">
        <ele>160</ele>
        <time>2021-09-12T07:26:34Z</time>
      </trkpt>
      <trkpt lat="48.37757" lon="-3.70789">
        <ele>160</ele>
        <time>2021-09-12T07:26:35Z</time>
      </trkpt>
      <trkpt lat="48.37759" lon="-3.7079">
        <ele>160.19999694824</ele>
        <time>2021-09-12T07:26:36Z</time>
      </trkpt>
      <trkpt lat="48.3776" lon="-3.70792">
        <ele>160.39999389648</ele>
        <time>2021-09-12T07:26:37Z</time>
      </trkpt>
      <trkpt lat="48.37761" lon="-3.70794">
        <ele>160.80000305176</ele>
        <time>2021-09-12T07:26:38Z</time>
      </trkpt>
      <trkpt lat="48.37762" lon="-3.70796">
        <ele>160.80000305176</ele>
        <time>2021-09-12T07:26:39Z</time>
      </trkpt>
      <trkpt lat="48.37762" lon="-3.70798">
        <ele>161.19999694824</ele>
        <time>2021-09-12T07:26:40Z</time>
      </trkpt>
      <trkpt lat="48.37762" lon="-3.70798">
        <ele>161.19999694824</ele>
        <time>2021-09-12T07:26:41Z</time>
      </trkpt>
      <trkpt lat="48.37763" lon="-3.70799">
        <ele>161.39999389648</ele>
        <time>2021-09-12T07:26:42Z</time>
      </trkpt>
      <trkpt lat="48.37764" lon="-3.70799">
        <ele>161.80000305176</ele>
        <time>2021-09-12T07:26:43Z</time>
      </trkpt>
      <trkpt lat="48.37765" lon="-3.70801">
        <ele>161.80000305176</ele>
        <time>2021-09-12T07:26:44Z</time>
      </trkpt>
      <trkpt lat="48.37766" lon="-3.70802">
        <ele>162.19999694824</ele>
        <time>2021-09-12T07:26:45Z</time>
      </trkpt>
      <trkpt lat="48.37767" lon="-3.70803">
        <ele>162.39999389648</ele>
        <time>2021-09-12T07:26:46Z</time>
      </trkpt>
      <trkpt lat="48.37768" lon="-3.70805">
        <ele>162.39999389648</ele>
        <time>2021-09-12T07:26:47Z</time>
      </trkpt>
      <trkpt lat="48.37769" lon="-3.70807">
        <ele>162.80000305176</ele>
        <time>2021-09-12T07:26:48Z</time>
      </trkpt>
      <trkpt lat="48.3777" lon="-3.70809">
        <ele>163.19999694824</ele>
        <time>2021-09-12T07:26:49Z</time>
      </trkpt>
      <trkpt lat="48.37771" lon="-3.70811">
        <ele>163.19999694824</ele>
        <time>2021-09-12T07:26:50Z</time>
      </trkpt>
      <trkpt lat="48.37772" lon="-3.70812">
        <ele>163.39999389648</ele>
        <time>2021-09-12T07:26:51Z</time>
      </trkpt>
      <trkpt lat="48.37774" lon="-3.70813">
        <ele>163.60000610352</ele>
        <time>2021-09-12T07:26:52Z</time>
      </trkpt>
      <trkpt lat="48.37775" lon="-3.70814">
        <ele>163.60000610352</ele>
        <time>2021-09-12T07:26:53Z</time>
      </trkpt>
      <trkpt lat="48.37776" lon="-3.70815">
        <ele>163.80000305176</ele>
        <time>2021-09-12T07:26:54Z</time>
      </trkpt>
      <trkpt lat="48.37777" lon="-3.70817">
        <ele>164</ele>
        <time>2021-09-12T07:26:55Z</time>
      </trkpt>
      <trkpt lat="48.37778" lon="-3.70818">
        <ele>164.19999694824</ele>
        <time>2021-09-12T07:26:56Z</time>
      </trkpt>
      <trkpt lat="48.37779" lon="-3.7082">
        <ele>164.19999694824</ele>
        <time>2021-09-12T07:26:57Z</time>
      </trkpt>
      <trkpt lat="48.37781" lon="-3.70823">
        <ele>164.60000610352</ele>
        <time>2021-09-12T07:26:58Z</time>
      </trkpt>
      <trkpt lat="48.37782" lon="-3.70825">
        <ele>164.80000305176</ele>
        <time>2021-09-12T07:26:59Z</time>
      </trkpt>
      <trkpt lat="48.37784" lon="-3.70827">
        <ele>165</ele>
        <time>2021-09-12T07:27:00Z</time>
      </trkpt>
      <trkpt lat="48.37785" lon="-3.70829">
        <ele>165.19999694824</ele>
        <time>2021-09-12T07:27:01Z</time>
      </trkpt>
      <trkpt lat="48.37786" lon="-3.70831">
        <ele>165.60000610352</ele>
        <time>2021-09-12T07:27:02Z</time>
      </trkpt>
      <trkpt lat="48.37787" lon="-3.70832">
        <ele>165.60000610352</ele>
        <time>2021-09-12T07:27:03Z</time>
      </trkpt>
      <trkpt lat="48.37789" lon="-3.70834">
        <ele>165.80000305176</ele>
        <time>2021-09-12T07:27:04Z</time>
      </trkpt>
      <trkpt lat="48.37789" lon="-3.70834">
        <ele>166.19999694824</ele>
        <time>2021-09-12T07:27:05Z</time>
      </trkpt>
      <trkpt lat="48.3779" lon="-3.70834">
        <ele>166.19999694824</ele>
        <time>2021-09-12T07:27:06Z</time>
      </trkpt>
      <trkpt lat="48.37791" lon="-3.70836">
        <ele>166.19999694824</ele>
        <time>2021-09-12T07:27:07Z</time>
      </trkpt>
      <trkpt lat="48.37792" lon="-3.70837">
        <ele>166.39999389648</ele>
        <time>2021-09-12T07:27:08Z</time>
      </trkpt>
      <trkpt lat="48.37792" lon="-3.70837">
        <ele>166.60000610352</ele>
        <time>2021-09-12T07:27:09Z</time>
      </trkpt>
      <trkpt lat="48.37793" lon="-3.70839">
        <ele>166.80000305176</ele>
        <time>2021-09-12T07:27:10Z</time>
      </trkpt>
      <trkpt lat="48.37794" lon="-3.7084">
        <ele>167.19999694824</ele>
        <time>2021-09-12T07:27:11Z</time>
      </trkpt>
      <trkpt lat="48.37796" lon="-3.70842">
        <ele>167.19999694824</ele>
        <time>2021-09-12T07:27:12Z</time>
      </trkpt>
      <trkpt lat="48.37798" lon="-3.70843">
        <ele>167.39999389648</ele>
        <time>2021-09-12T07:27:13Z</time>
      </trkpt>
      <trkpt lat="48.37799" lon="-3.70844">
        <ele>167.39999389648</ele>
        <time>2021-09-12T07:27:14Z</time>
      </trkpt>
      <trkpt lat="48.378" lon="-3.70845">
        <ele>167.60000610352</ele>
        <time>2021-09-12T07:27:15Z</time>
      </trkpt>
      <trkpt lat="48.37801" lon="-3.70847">
        <ele>167.80000305176</ele>
        <time>2021-09-12T07:27:16Z</time>
      </trkpt>
      <trkpt lat="48.37801" lon="-3.70849">
        <ele>168</ele>
        <time>2021-09-12T07:27:17Z</time>
      </trkpt>
      <trkpt lat="48.37802" lon="-3.7085">
        <ele>168.19999694824</ele>
        <time>2021-09-12T07:27:18Z</time>
      </trkpt>
      <trkpt lat="48.37802" lon="-3.70852">
        <ele>168.39999389648</ele>
        <time>2021-09-12T07:27:19Z</time>
      </trkpt>
      <trkpt lat="48.37803" lon="-3.70854">
        <ele>168.60000610352</ele>
        <time>2021-09-12T07:27:20Z</time>
      </trkpt>
      <trkpt lat="48.37804" lon="-3.70856">
        <ele>169</ele>
        <time>2021-09-12T07:27:21Z</time>
      </trkpt>
      <trkpt lat="48.37805" lon="-3.70858">
        <ele>169.19999694824</ele>
        <time>2021-09-12T07:27:22Z</time>
      </trkpt>
      <trkpt lat="48.37807" lon="-3.70859">
        <ele>169.39999389648</ele>
        <time>2021-09-12T07:27:23Z</time>
      </trkpt>
      <trkpt lat="48.37809" lon="-3.70861">
        <ele>169.80000305176</ele>
        <time>2021-09-12T07:27:24Z</time>
      </trkpt>
      <trkpt lat="48.37811" lon="-3.70863">
        <ele>169.80000305176</ele>
        <time>2021-09-12T07:27:25Z</time>
      </trkpt>
      <trkpt lat="48.37812" lon="-3.70865">
        <ele>170.19999694824</ele>
        <time>2021-09-12T07:27:26Z</time>
      </trkpt>
      <trkpt lat="48.37813" lon="-3.70866">
        <ele>170.39999389648</ele>
        <time>2021-09-12T07:27:27Z</time>
      </trkpt>
      <trkpt lat="48.37814" lon="-3.70868">
        <ele>170.60000610352</ele>
        <time>2021-09-12T07:27:28Z</time>
      </trkpt>
      <trkpt lat="48.37816" lon="-3.70869">
        <ele>170.80000305176</ele>
        <time>2021-09-12T07:27:29Z</time>
      </trkpt>
      <trkpt lat="48.37816" lon="-3.7087">
        <ele>171</ele>
        <time>2021-09-12T07:27:30Z</time>
      </trkpt>
      <trkpt lat="48.37818" lon="-3.70872">
        <ele>171</ele>
        <time>2021-09-12T07:27:31Z</time>
      </trkpt>
      <trkpt lat="48.37818" lon="-3.70873">
        <ele>171.19999694824</ele>
        <time>2021-09-12T07:27:32Z</time>
      </trkpt>
      <trkpt lat="48.37819" lon="-3.70874">
        <ele>171.19999694824</ele>
        <time>2021-09-12T07:27:33Z</time>
      </trkpt>
      <trkpt lat="48.37819" lon="-3.70875">
        <ele>171.60000610352</ele>
        <time>2021-09-12T07:27:34Z</time>
      </trkpt>
      <trkpt lat="48.3782" lon="-3.70875">
        <ele>171.60000610352</ele>
        <time>2021-09-12T07:27:35Z</time>
      </trkpt>
      <trkpt lat="48.37821" lon="-3.70876">
        <ele>172</ele>
        <time>2021-09-12T07:27:36Z</time>
      </trkpt>
      <trkpt lat="48.37822" lon="-3.70877">
        <ele>172</ele>
        <time>2021-09-12T07:27:37Z</time>
      </trkpt>
      <trkpt lat="48.37824" lon="-3.70879">
        <ele>172.19999694824</ele>
        <time>2021-09-12T07:27:38Z</time>
      </trkpt>
      <trkpt lat="48.37825" lon="-3.70879">
        <ele>172.19999694824</ele>
        <time>2021-09-12T07:27:39Z</time>
      </trkpt>
      <trkpt lat="48.37826" lon="-3.7088">
        <ele>172.60000610352</ele>
        <time>2021-09-12T07:27:40Z</time>
      </trkpt>
      <trkpt lat="48.37827" lon="-3.70881">
        <ele>172.80000305176</ele>
        <time>2021-09-12T07:27:41Z</time>
      </trkpt>
      <trkpt lat="48.37828" lon="-3.70883">
        <ele>173</ele>
        <time>2021-09-12T07:27:42Z</time>
      </trkpt>
      <trkpt lat="48.3783" lon="-3.70884">
        <ele>173.19999694824</ele>
        <time>2021-09-12T07:27:43Z</time>
      </trkpt>
      <trkpt lat="48.37831" lon="-3.70886">
        <ele>173.39999389648</ele>
        <time>2021-09-12T07:27:44Z</time>
      </trkpt>
      <trkpt lat="48.37831" lon="-3.70887">
        <ele>173.60000610352</ele>
        <time>2021-09-12T07:27:45Z</time>
      </trkpt>
      <trkpt lat="48.37832" lon="-3.70889">
        <ele>173.60000610352</ele>
        <time>2021-09-12T07:27:46Z</time>
      </trkpt>
      <trkpt lat="48.37832" lon="-3.70892">
        <ele>173.80000305176</ele>
        <time>2021-09-12T07:27:47Z</time>
      </trkpt>
      <trkpt lat="48.37833" lon="-3.70893">
        <ele>174</ele>
        <time>2021-09-12T07:27:48Z</time>
      </trkpt>
      <trkpt lat="48.37835" lon="-3.70895">
        <ele>174.19999694824</ele>
        <time>2021-09-12T07:27:49Z</time>
      </trkpt>
      <trkpt lat="48.37835" lon="-3.70897">
        <ele>174.39999389648</ele>
        <time>2021-09-12T07:27:50Z</time>
      </trkpt>
      <trkpt lat="48.37836" lon="-3.70898">
        <ele>174.60000610352</ele>
        <time>2021-09-12T07:27:51Z</time>
      </trkpt>
      <trkpt lat="48.37838" lon="-3.70901">
        <ele>174.80000305176</ele>
        <time>2021-09-12T07:27:52Z</time>
      </trkpt>
      <trkpt lat="48.37839" lon="-3.70903">
        <ele>175.19999694824</ele>
        <time>2021-09-12T07:27:53Z</time>
      </trkpt>
      <trkpt lat="48.3784" lon="-3.70905">
        <ele>175.39999389648</ele>
        <time>2021-09-12T07:27:54Z</time>
      </trkpt>
      <trkpt lat="48.3784" lon="-3.70906">
        <ele>175.60000610352</ele>
        <time>2021-09-12T07:27:55Z</time>
      </trkpt>
      <trkpt lat="48.37842" lon="-3.70908">
        <ele>175.60000610352</ele>
        <time>2021-09-12T07:27:56Z</time>
      </trkpt>
      <trkpt lat="48.37843" lon="-3.70909">
        <ele>175.60000610352</ele>
        <time>2021-09-12T07:27:57Z</time>
      </trkpt>
      <trkpt lat="48.37845" lon="-3.70909">
        <ele>176</ele>
        <time>2021-09-12T07:27:58Z</time>
      </trkpt>
      <trkpt lat="48.37846" lon="-3.70908">
        <ele>176</ele>
        <time>2021-09-12T07:27:59Z</time>
      </trkpt>
      <trkpt lat="48.37846" lon="-3.70907">
        <ele>176</ele>
        <time>2021-09-12T07:28:00Z</time>
      </trkpt>
      <trkpt lat="48.37848" lon="-3.70904">
        <ele>176</ele>
        <time>2021-09-12T07:28:01Z</time>
      </trkpt>
      <trkpt lat="48.37849" lon="-3.70902">
        <ele>176</ele>
        <time>2021-09-12T07:28:02Z</time>
      </trkpt>
      <trkpt lat="48.3785" lon="-3.709">
        <ele>176</ele>
        <time>2021-09-12T07:28:03Z</time>
      </trkpt>
      <trkpt lat="48.3785" lon="-3.70896">
        <ele>176</ele>
        <time>2021-09-12T07:28:04Z</time>
      </trkpt>
      <trkpt lat="48.3785" lon="-3.70893">
        <ele>176</ele>
        <time>2021-09-12T07:28:05Z</time>
      </trkpt>
      <trkpt lat="48.37851" lon="-3.7089">
        <ele>175.80000305176</ele>
        <time>2021-09-12T07:28:06Z</time>
      </trkpt>
      <trkpt lat="48.37852" lon="-3.70887">
        <ele>175.80000305176</ele>
        <time>2021-09-12T07:28:07Z</time>
      </trkpt>
      <trkpt lat="48.37852" lon="-3.70884">
        <ele>175.80000305176</ele>
        <time>2021-09-12T07:28:08Z</time>
      </trkpt>
      <trkpt lat="48.37852" lon="-3.70881">
        <ele>175.80000305176</ele>
        <time>2021-09-12T07:28:09Z</time>
      </trkpt>
      <trkpt lat="48.37853" lon="-3.70878">
        <ele>175.39999389648</ele>
        <time>2021-09-12T07:28:10Z</time>
      </trkpt>
      <trkpt lat="48.37854" lon="-3.70874">
        <ele>175.39999389648</ele>
        <time>2021-09-12T07:28:11Z</time>
      </trkpt>
      <trkpt lat="48.37855" lon="-3.70871">
        <ele>175.19999694824</ele>
        <time>2021-09-12T07:28:12Z</time>
      </trkpt>
      <trkpt lat="48.37857" lon="-3.70867">
        <ele>175.19999694824</ele>
        <time>2021-09-12T07:28:13Z</time>
      </trkpt>
      <trkpt lat="48.37859" lon="-3.70864">
        <ele>175.19999694824</ele>
        <time>2021-09-12T07:28:14Z</time>
      </trkpt>
      <trkpt lat="48.3786" lon="-3.70859">
        <ele>175</ele>
        <time>2021-09-12T07:28:15Z</time>
      </trkpt>
      <trkpt lat="48.37862" lon="-3.70854">
        <ele>174.80000305176</ele>
        <time>2021-09-12T07:28:16Z</time>
      </trkpt>
      <trkpt lat="48.37864" lon="-3.70847">
        <ele>174.80000305176</ele>
        <time>2021-09-12T07:28:17Z</time>
      </trkpt>
      <trkpt lat="48.37866" lon="-3.70842">
        <ele>174</ele>
        <time>2021-09-12T07:28:18Z</time>
      </trkpt>
      <trkpt lat="48.3787" lon="-3.70835">
        <ele>173.80000305176</ele>
        <time>2021-09-12T07:28:19Z</time>
      </trkpt>
      <trkpt lat="48.37872" lon="-3.70827">
        <ele>173.60000610352</ele>
        <time>2021-09-12T07:28:20Z</time>
      </trkpt>
      <trkpt lat="48.37874" lon="-3.70821">
        <ele>173.19999694824</ele>
        <time>2021-09-12T07:28:21Z</time>
      </trkpt>
      <trkpt lat="48.37877" lon="-3.70815">
        <ele>173</ele>
        <time>2021-09-12T07:28:22Z</time>
      </trkpt>
      <trkpt lat="48.3788" lon="-3.70809">
        <ele>172.60000610352</ele>
        <time>2021-09-12T07:28:23Z</time>
      </trkpt>
      <trkpt lat="48.37883" lon="-3.70798">
        <ele>171.80000305176</ele>
        <time>2021-09-12T07:28:24Z</time>
      </trkpt>
      <trkpt lat="48.37886" lon="-3.70788">
        <ele>171.19999694824</ele>
        <time>2021-09-12T07:28:25Z</time>
      </trkpt>
      <trkpt lat="48.37889" lon="-3.70779">
        <ele>170.60000610352</ele>
        <time>2021-09-12T07:28:26Z</time>
      </trkpt>
      <trkpt lat="48.37891" lon="-3.7077">
        <ele>169.60000610352</ele>
        <time>2021-09-12T07:28:27Z</time>
      </trkpt>
      <trkpt lat="48.37892" lon="-3.70763">
        <ele>169.39999389648</ele>
        <time>2021-09-12T07:28:28Z</time>
      </trkpt>
      <trkpt lat="48.37896" lon="-3.70753">
        <ele>168.19999694824</ele>
        <time>2021-09-12T07:28:29Z</time>
      </trkpt>
      <trkpt lat="48.37899" lon="-3.70747">
        <ele>167.80000305176</ele>
        <time>2021-09-12T07:28:30Z</time>
      </trkpt>
      <trkpt lat="48.37905" lon="-3.70742">
        <ele>167.19999694824</ele>
        <time>2021-09-12T07:28:31Z</time>
      </trkpt>
      <trkpt lat="48.37913" lon="-3.70734">
        <ele>166.39999389648</ele>
        <time>2021-09-12T07:28:32Z</time>
      </trkpt>
      <trkpt lat="48.37916" lon="-3.70728">
        <ele>166.19999694824</ele>
        <time>2021-09-12T07:28:33Z</time>
      </trkpt>
      <trkpt lat="48.37919" lon="-3.7072">
        <ele>166.19999694824</ele>
        <time>2021-09-12T07:28:34Z</time>
      </trkpt>
      <trkpt lat="48.37921" lon="-3.70713">
        <ele>165.80000305176</ele>
        <time>2021-09-12T07:28:35Z</time>
      </trkpt>
      <trkpt lat="48.37923" lon="-3.70705">
        <ele>165.39999389648</ele>
        <time>2021-09-12T07:28:36Z</time>
      </trkpt>
      <trkpt lat="48.37927" lon="-3.70697">
        <ele>165.19999694824</ele>
        <time>2021-09-12T07:28:37Z</time>
      </trkpt>
      <trkpt lat="48.37931" lon="-3.70687">
        <ele>164.39999389648</ele>
        <time>2021-09-12T07:28:38Z</time>
      </trkpt>
      <trkpt lat="48.37933" lon="-3.70681">
        <ele>163</ele>
        <time>2021-09-12T07:28:39Z</time>
      </trkpt>
      <trkpt lat="48.37934" lon="-3.70678">
        <ele>162.39999389648</ele>
        <time>2021-09-12T07:28:40Z</time>
      </trkpt>
      <trkpt lat="48.37936" lon="-3.70676">
        <ele>162.19999694824</ele>
        <time>2021-09-12T07:28:41Z</time>
      </trkpt>
      <trkpt lat="48.37938" lon="-3.70677">
        <ele>161.80000305176</ele>
        <time>2021-09-12T07:28:42Z</time>
      </trkpt>
      <trkpt lat="48.37942" lon="-3.70678">
        <ele>161.80000305176</ele>
        <time>2021-09-12T07:28:43Z</time>
      </trkpt>
      <trkpt lat="48.37945" lon="-3.70679">
        <ele>161.80000305176</ele>
        <time>2021-09-12T07:28:44Z</time>
      </trkpt>
      <trkpt lat="48.37949" lon="-3.70681">
        <ele>161.80000305176</ele>
        <time>2021-09-12T07:28:45Z</time>
      </trkpt>
      <trkpt lat="48.37953" lon="-3.70682">
        <ele>161.80000305176</ele>
        <time>2021-09-12T07:28:46Z</time>
      </trkpt>
      <trkpt lat="48.37956" lon="-3.70684">
        <ele>161.60000610352</ele>
        <time>2021-09-12T07:28:47Z</time>
      </trkpt>
      <trkpt lat="48.37958" lon="-3.70686">
        <ele>161.60000610352</ele>
        <time>2021-09-12T07:28:48Z</time>
      </trkpt>
      <trkpt lat="48.37959" lon="-3.70687">
        <ele>161.19999694824</ele>
        <time>2021-09-12T07:28:49Z</time>
      </trkpt>
      <trkpt lat="48.37963" lon="-3.70688">
        <ele>160.80000305176</ele>
        <time>2021-09-12T07:28:50Z</time>
      </trkpt>
      <trkpt lat="48.37966" lon="-3.7069">
        <ele>159.80000305176</ele>
        <time>2021-09-12T07:28:51Z</time>
      </trkpt>
      <trkpt lat="48.3797" lon="-3.70692">
        <ele>159</ele>
        <time>2021-09-12T07:28:52Z</time>
      </trkpt>
      <trkpt lat="48.37972" lon="-3.70694">
        <ele>157.39999389648</ele>
        <time>2021-09-12T07:28:53Z</time>
      </trkpt>
      <trkpt lat="48.37977" lon="-3.70696">
        <ele>156</ele>
        <time>2021-09-12T07:28:54Z</time>
      </trkpt>
      <trkpt lat="48.37982" lon="-3.70696">
        <ele>154.39999389648</ele>
        <time>2021-09-12T07:28:55Z</time>
      </trkpt>
      <trkpt lat="48.37986" lon="-3.70695">
        <ele>152.19999694824</ele>
        <time>2021-09-12T07:28:56Z</time>
      </trkpt>
      <trkpt lat="48.37995" lon="-3.7069">
        <ele>151</ele>
        <time>2021-09-12T07:28:57Z</time>
      </trkpt>
      <trkpt lat="48.38" lon="-3.70686">
        <ele>148.80000305176</ele>
        <time>2021-09-12T07:28:58Z</time>
      </trkpt>
      <trkpt lat="48.38006" lon="-3.70678">
        <ele>147.60000610352</ele>
        <time>2021-09-12T07:28:59Z</time>
      </trkpt>
      <trkpt lat="48.38011" lon="-3.70672">
        <ele>147</ele>
        <time>2021-09-12T07:29:00Z</time>
      </trkpt>
      <trkpt lat="48.38016" lon="-3.70661">
        <ele>146.60000610352</ele>
        <time>2021-09-12T07:29:01Z</time>
      </trkpt>
      <trkpt lat="48.38021" lon="-3.70654">
        <ele>145.80000305176</ele>
        <time>2021-09-12T07:29:02Z</time>
      </trkpt>
      <trkpt lat="48.38026" lon="-3.70646">
        <ele>145.80000305176</ele>
        <time>2021-09-12T07:29:03Z</time>
      </trkpt>
      <trkpt lat="48.38031" lon="-3.70636">
        <ele>145.80000305176</ele>
        <time>2021-09-12T07:29:04Z</time>
      </trkpt>
      <trkpt lat="48.38034" lon="-3.70628">
        <ele>144.80000305176</ele>
        <time>2021-09-12T07:29:05Z</time>
      </trkpt>
      <trkpt lat="48.38036" lon="-3.70616">
        <ele>144.39999389648</ele>
        <time>2021-09-12T07:29:06Z</time>
      </trkpt>
      <trkpt lat="48.38036" lon="-3.70607">
        <ele>144.19999694824</ele>
        <time>2021-09-12T07:29:07Z</time>
      </trkpt>
      <trkpt lat="48.38035" lon="-3.706">
        <ele>144.19999694824</ele>
        <time>2021-09-12T07:29:08Z</time>
      </trkpt>
      <trkpt lat="48.38034" lon="-3.70595">
        <ele>144.19999694824</ele>
        <time>2021-09-12T07:29:09Z</time>
      </trkpt>
      <trkpt lat="48.38032" lon="-3.70589">
        <ele>144.19999694824</ele>
        <time>2021-09-12T07:29:10Z</time>
      </trkpt>
      <trkpt lat="48.3803" lon="-3.70584">
        <ele>144.19999694824</ele>
        <time>2021-09-12T07:29:11Z</time>
      </trkpt>
      <trkpt lat="48.38029" lon="-3.70577">
        <ele>144.19999694824</ele>
        <time>2021-09-12T07:29:12Z</time>
      </trkpt>
      <trkpt lat="48.3803" lon="-3.70567">
        <ele>144</ele>
        <time>2021-09-12T07:29:13Z</time>
      </trkpt>
      <trkpt lat="48.38031" lon="-3.70559">
        <ele>143.60000610352</ele>
        <time>2021-09-12T07:29:14Z</time>
      </trkpt>
      <trkpt lat="48.38032" lon="-3.70551">
        <ele>142.60000610352</ele>
        <time>2021-09-12T07:29:15Z</time>
      </trkpt>
      <trkpt lat="48.38035" lon="-3.7054">
        <ele>141.39999389648</ele>
        <time>2021-09-12T07:29:16Z</time>
      </trkpt>
      <trkpt lat="48.38037" lon="-3.70531">
        <ele>140.19999694824</ele>
        <time>2021-09-12T07:29:17Z</time>
      </trkpt>
      <trkpt lat="48.3804" lon="-3.70522">
        <ele>140.19999694824</ele>
        <time>2021-09-12T07:29:18Z</time>
      </trkpt>
      <trkpt lat="48.38044" lon="-3.70512">
        <ele>139</ele>
        <time>2021-09-12T07:29:19Z</time>
      </trkpt>
      <trkpt lat="48.38046" lon="-3.70503">
        <ele>138.80000305176</ele>
        <time>2021-09-12T07:29:20Z</time>
      </trkpt>
      <trkpt lat="48.38048" lon="-3.70493">
        <ele>138.80000305176</ele>
        <time>2021-09-12T07:29:21Z</time>
      </trkpt>
      <trkpt lat="48.38049" lon="-3.70484">
        <ele>138.19999694824</ele>
        <time>2021-09-12T07:29:22Z</time>
      </trkpt>
      <trkpt lat="48.38051" lon="-3.70478">
        <ele>138.19999694824</ele>
        <time>2021-09-12T07:29:23Z</time>
      </trkpt>
      <trkpt lat="48.38053" lon="-3.7047">
        <ele>138</ele>
        <time>2021-09-12T07:29:24Z</time>
      </trkpt>
      <trkpt lat="48.38058" lon="-3.70464">
        <ele>138</ele>
        <time>2021-09-12T07:29:25Z</time>
      </trkpt>
      <trkpt lat="48.38063" lon="-3.7046">
        <ele>137.60000610352</ele>
        <time>2021-09-12T07:29:26Z</time>
      </trkpt>
      <trkpt lat="48.38066" lon="-3.70455">
        <ele>137.60000610352</ele>
        <time>2021-09-12T07:29:27Z</time>
      </trkpt>
      <trkpt lat="48.38069" lon="-3.7045">
        <ele>137.60000610352</ele>
        <time>2021-09-12T07:29:28Z</time>
      </trkpt>
      <trkpt lat="48.38073" lon="-3.70443">
        <ele>137.19999694824</ele>
        <time>2021-09-12T07:29:29Z</time>
      </trkpt>
      <trkpt lat="48.38075" lon="-3.70438">
        <ele>137.19999694824</ele>
        <time>2021-09-12T07:29:30Z</time>
      </trkpt>
      <trkpt lat="48.38078" lon="-3.70434">
        <ele>136.80000305176</ele>
        <time>2021-09-12T07:29:31Z</time>
      </trkpt>
      <trkpt lat="48.38082" lon="-3.70429">
        <ele>136.60000610352</ele>
        <time>2021-09-12T07:29:32Z</time>
      </trkpt>
      <trkpt lat="48.38086" lon="-3.70424">
        <ele>136.19999694824</ele>
        <time>2021-09-12T07:29:33Z</time>
      </trkpt>
      <trkpt lat="48.38091" lon="-3.70419">
        <ele>135</ele>
        <time>2021-09-12T07:29:34Z</time>
      </trkpt>
      <trkpt lat="48.38101" lon="-3.70411">
        <ele>134.80000305176</ele>
        <time>2021-09-12T07:29:35Z</time>
      </trkpt>
      <trkpt lat="48.38107" lon="-3.70404">
        <ele>133.60000610352</ele>
        <time>2021-09-12T07:29:36Z</time>
      </trkpt>
      <trkpt lat="48.38112" lon="-3.70396">
        <ele>133.19999694824</ele>
        <time>2021-09-12T07:29:37Z</time>
      </trkpt>
      <trkpt lat="48.38118" lon="-3.70385">
        <ele>132.39999389648</ele>
        <time>2021-09-12T07:29:38Z</time>
      </trkpt>
      <trkpt lat="48.38121" lon="-3.70378">
        <ele>132.19999694824</ele>
        <time>2021-09-12T07:29:39Z</time>
      </trkpt>
      <trkpt lat="48.38124" lon="-3.70369">
        <ele>132.19999694824</ele>
        <time>2021-09-12T07:29:40Z</time>
      </trkpt>
      <trkpt lat="48.38129" lon="-3.7036">
        <ele>132</ele>
        <time>2021-09-12T07:29:41Z</time>
      </trkpt>
      <trkpt lat="48.38134" lon="-3.7035">
        <ele>132</ele>
        <time>2021-09-12T07:29:42Z</time>
      </trkpt>
      <trkpt lat="48.38136" lon="-3.70344">
        <ele>131.60000610352</ele>
        <time>2021-09-12T07:29:43Z</time>
      </trkpt>
      <trkpt lat="48.38139" lon="-3.70336">
        <ele>131.60000610352</ele>
        <time>2021-09-12T07:29:44Z</time>
      </trkpt>
      <trkpt lat="48.38143" lon="-3.70329">
        <ele>131.39999389648</ele>
        <time>2021-09-12T07:29:45Z</time>
      </trkpt>
      <trkpt lat="48.38145" lon="-3.70324">
        <ele>131.39999389648</ele>
        <time>2021-09-12T07:29:46Z</time>
      </trkpt>
      <trkpt lat="48.38147" lon="-3.70319">
        <ele>130.60000610352</ele>
        <time>2021-09-12T07:29:47Z</time>
      </trkpt>
      <trkpt lat="48.38148" lon="-3.70314">
        <ele>130.39999389648</ele>
        <time>2021-09-12T07:29:48Z</time>
      </trkpt>
      <trkpt lat="48.3815" lon="-3.70308">
        <ele>130</ele>
        <time>2021-09-12T07:29:49Z</time>
      </trkpt>
      <trkpt lat="48.38151" lon="-3.70302">
        <ele>129.60000610352</ele>
        <time>2021-09-12T07:29:50Z</time>
      </trkpt>
      <trkpt lat="48.38152" lon="-3.70295">
        <ele>129</ele>
        <time>2021-09-12T07:29:51Z</time>
      </trkpt>
      <trkpt lat="48.38155" lon="-3.70285">
        <ele>128.60000610352</ele>
        <time>2021-09-12T07:29:52Z</time>
      </trkpt>
      <trkpt lat="48.38157" lon="-3.70275">
        <ele>127.59999847412</ele>
        <time>2021-09-12T07:29:53Z</time>
      </trkpt>
      <trkpt lat="48.38159" lon="-3.70264">
        <ele>127</ele>
        <time>2021-09-12T07:29:54Z</time>
      </trkpt>
      <trkpt lat="48.38159" lon="-3.70255">
        <ele>126.40000152588</ele>
        <time>2021-09-12T07:29:55Z</time>
      </trkpt>
      <trkpt lat="48.38156" lon="-3.70242">
        <ele>125.59999847412</ele>
        <time>2021-09-12T07:29:56Z</time>
      </trkpt>
      <trkpt lat="48.38154" lon="-3.70232">
        <ele>125.40000152588</ele>
        <time>2021-09-12T07:29:57Z</time>
      </trkpt>
      <trkpt lat="48.38154" lon="-3.70221">
        <ele>125.40000152588</ele>
        <time>2021-09-12T07:29:58Z</time>
      </trkpt>
      <trkpt lat="48.38154" lon="-3.70213">
        <ele>125.19999694824</ele>
        <time>2021-09-12T07:29:59Z</time>
      </trkpt>
      <trkpt lat="48.38155" lon="-3.70203">
        <ele>124.80000305176</ele>
        <time>2021-09-12T07:30:00Z</time>
      </trkpt>
      <trkpt lat="48.38153" lon="-3.70192">
        <ele>124.59999847412</ele>
        <time>2021-09-12T07:30:01Z</time>
      </trkpt>
      <trkpt lat="48.3815" lon="-3.70184">
        <ele>124</ele>
        <time>2021-09-12T07:30:02Z</time>
      </trkpt>
      <trkpt lat="48.38147" lon="-3.70177">
        <ele>124</ele>
        <time>2021-09-12T07:30:03Z</time>
      </trkpt>
      <trkpt lat="48.38145" lon="-3.70172">
        <ele>124</ele>
        <time>2021-09-12T07:30:04Z</time>
      </trkpt>
      <trkpt lat="48.38144" lon="-3.70167">
        <ele>123.80000305176</ele>
        <time>2021-09-12T07:30:05Z</time>
      </trkpt>
      <trkpt lat="48.38143" lon="-3.70161">
        <ele>123.80000305176</ele>
        <time>2021-09-12T07:30:06Z</time>
      </trkpt>
      <trkpt lat="48.38141" lon="-3.70156">
        <ele>124</ele>
        <time>2021-09-12T07:30:07Z</time>
      </trkpt>
      <trkpt lat="48.38141" lon="-3.70153">
        <ele>124</ele>
        <time>2021-09-12T07:30:08Z</time>
      </trkpt>
      <trkpt lat="48.3814" lon="-3.70151">
        <ele>124</ele>
        <time>2021-09-12T07:30:09Z</time>
      </trkpt>
      <trkpt lat="48.38139" lon="-3.70149">
        <ele>124</ele>
        <time>2021-09-12T07:30:10Z</time>
      </trkpt>
      <trkpt lat="48.38138" lon="-3.70147">
        <ele>124</ele>
        <time>2021-09-12T07:30:11Z</time>
      </trkpt>
      <trkpt lat="48.38137" lon="-3.70144">
        <ele>124</ele>
        <time>2021-09-12T07:30:12Z</time>
      </trkpt>
      <trkpt lat="48.38137" lon="-3.70141">
        <ele>124</ele>
        <time>2021-09-12T07:30:13Z</time>
      </trkpt>
      <trkpt lat="48.38136" lon="-3.70137">
        <ele>124</ele>
        <time>2021-09-12T07:30:14Z</time>
      </trkpt>
      <trkpt lat="48.38136" lon="-3.70134">
        <ele>124</ele>
        <time>2021-09-12T07:30:15Z</time>
      </trkpt>
      <trkpt lat="48.38135" lon="-3.70129">
        <ele>123.80000305176</ele>
        <time>2021-09-12T07:30:16Z</time>
      </trkpt>
      <trkpt lat="48.38135" lon="-3.70126">
        <ele>123.80000305176</ele>
        <time>2021-09-12T07:30:17Z</time>
      </trkpt>
      <trkpt lat="48.38134" lon="-3.70121">
        <ele>123.59999847412</ele>
        <time>2021-09-12T07:30:18Z</time>
      </trkpt>
      <trkpt lat="48.38133" lon="-3.70116">
        <ele>123.59999847412</ele>
        <time>2021-09-12T07:30:19Z</time>
      </trkpt>
      <trkpt lat="48.38132" lon="-3.70111">
        <ele>123.40000152588</ele>
        <time>2021-09-12T07:30:20Z</time>
      </trkpt>
      <trkpt lat="48.3813" lon="-3.70105">
        <ele>123.19999694824</ele>
        <time>2021-09-12T07:30:21Z</time>
      </trkpt>
      <trkpt lat="48.3813" lon="-3.70099">
        <ele>123</ele>
        <time>2021-09-12T07:30:22Z</time>
      </trkpt>
      <trkpt lat="48.38131" lon="-3.70091">
        <ele>123</ele>
        <time>2021-09-12T07:30:23Z</time>
      </trkpt>
      <trkpt lat="48.38131" lon="-3.70084">
        <ele>122.59999847412</ele>
        <time>2021-09-12T07:30:24Z</time>
      </trkpt>
      <trkpt lat="48.38129" lon="-3.70076">
        <ele>122</ele>
        <time>2021-09-12T07:30:25Z</time>
      </trkpt>
      <trkpt lat="48.38126" lon="-3.70068">
        <ele>122</ele>
        <time>2021-09-12T07:30:26Z</time>
      </trkpt>
      <trkpt lat="48.38124" lon="-3.70064">
        <ele>122</ele>
        <time>2021-09-12T07:30:27Z</time>
      </trkpt>
      <trkpt lat="48.38122" lon="-3.7006">
        <ele>122</ele>
        <time>2021-09-12T07:30:28Z</time>
      </trkpt>
      <trkpt lat="48.3812" lon="-3.70057">
        <ele>122</ele>
        <time>2021-09-12T07:30:29Z</time>
      </trkpt>
      <trkpt lat="48.38119" lon="-3.70055">
        <ele>122</ele>
        <time>2021-09-12T07:30:30Z</time>
      </trkpt>
      <trkpt lat="48.38118" lon="-3.70051">
        <ele>122</ele>
        <time>2021-09-12T07:30:31Z</time>
      </trkpt>
      <trkpt lat="48.38119" lon="-3.70045">
        <ele>121.80000305176</ele>
        <time>2021-09-12T07:30:32Z</time>
      </trkpt>
      <trkpt lat="48.38119" lon="-3.70037">
        <ele>121.59999847412</ele>
        <time>2021-09-12T07:30:33Z</time>
      </trkpt>
      <trkpt lat="48.3812" lon="-3.70027">
        <ele>120.19999694824</ele>
        <time>2021-09-12T07:30:34Z</time>
      </trkpt>
      <trkpt lat="48.3812" lon="-3.70018">
        <ele>119</ele>
        <time>2021-09-12T07:30:35Z</time>
      </trkpt>
      <trkpt lat="48.3812" lon="-3.70011">
        <ele>117.59999847412</ele>
        <time>2021-09-12T07:30:36Z</time>
      </trkpt>
      <trkpt lat="48.3812" lon="-3.70003">
        <ele>117</ele>
        <time>2021-09-12T07:30:37Z</time>
      </trkpt>
      <trkpt lat="48.38118" lon="-3.69995">
        <ele>116.59999847412</ele>
        <time>2021-09-12T07:30:38Z</time>
      </trkpt>
      <trkpt lat="48.38119" lon="-3.69989">
        <ele>116.40000152588</ele>
        <time>2021-09-12T07:30:39Z</time>
      </trkpt>
      <trkpt lat="48.38121" lon="-3.69984">
        <ele>115.59999847412</ele>
        <time>2021-09-12T07:30:40Z</time>
      </trkpt>
      <trkpt lat="48.38124" lon="-3.6998">
        <ele>115.40000152588</ele>
        <time>2021-09-12T07:30:41Z</time>
      </trkpt>
      <trkpt lat="48.38127" lon="-3.69976">
        <ele>115.40000152588</ele>
        <time>2021-09-12T07:30:42Z</time>
      </trkpt>
      <trkpt lat="48.38128" lon="-3.69971">
        <ele>115.40000152588</ele>
        <time>2021-09-12T07:30:43Z</time>
      </trkpt>
      <trkpt lat="48.38129" lon="-3.69964">
        <ele>115.40000152588</ele>
        <time>2021-09-12T07:30:44Z</time>
      </trkpt>
      <trkpt lat="48.38129" lon="-3.69959">
        <ele>115.40000152588</ele>
        <time>2021-09-12T07:30:45Z</time>
      </trkpt>
      <trkpt lat="48.38128" lon="-3.69953">
        <ele>115.40000152588</ele>
        <time>2021-09-12T07:30:46Z</time>
      </trkpt>
      <trkpt lat="48.38126" lon="-3.69948">
        <ele>115.59999847412</ele>
        <time>2021-09-12T07:30:47Z</time>
      </trkpt>
      <trkpt lat="48.38125" lon="-3.69945">
        <ele>115.80000305176</ele>
        <time>2021-09-12T07:30:48Z</time>
      </trkpt>
      <trkpt lat="48.38125" lon="-3.69942">
        <ele>116.19999694824</ele>
        <time>2021-09-12T07:30:49Z</time>
      </trkpt>
      <trkpt lat="48.38127" lon="-3.6994">
        <ele>116.40000152588</ele>
        <time>2021-09-12T07:30:50Z</time>
      </trkpt>
      <trkpt lat="48.38128" lon="-3.69935">
        <ele>116.80000305176</ele>
        <time>2021-09-12T07:30:51Z</time>
      </trkpt>
      <trkpt lat="48.38131" lon="-3.69932">
        <ele>117</ele>
        <time>2021-09-12T07:30:52Z</time>
      </trkpt>
      <trkpt lat="48.38133" lon="-3.69931">
        <ele>117.59999847412</ele>
        <time>2021-09-12T07:30:53Z</time>
      </trkpt>
      <trkpt lat="48.38135" lon="-3.69929">
        <ele>117.59999847412</ele>
        <time>2021-09-12T07:30:54Z</time>
      </trkpt>
      <trkpt lat="48.38138" lon="-3.69928">
        <ele>118</ele>
        <time>2021-09-12T07:30:55Z</time>
      </trkpt>
      <trkpt lat="48.38141" lon="-3.69926">
        <ele>118</ele>
        <time>2021-09-12T07:30:56Z</time>
      </trkpt>
      <trkpt lat="48.38144" lon="-3.69925">
        <ele>118.19999694824</ele>
        <time>2021-09-12T07:30:57Z</time>
      </trkpt>
      <trkpt lat="48.38147" lon="-3.69923">
        <ele>118.19999694824</ele>
        <time>2021-09-12T07:30:58Z</time>
      </trkpt>
      <trkpt lat="48.3815" lon="-3.69921">
        <ele>118.19999694824</ele>
        <time>2021-09-12T07:30:59Z</time>
      </trkpt>
      <trkpt lat="48.38153" lon="-3.69918">
        <ele>118.19999694824</ele>
        <time>2021-09-12T07:31:00Z</time>
      </trkpt>
      <trkpt lat="48.38156" lon="-3.69914">
        <ele>118.40000152588</ele>
        <time>2021-09-12T07:31:01Z</time>
      </trkpt>
      <trkpt lat="48.3816" lon="-3.69912">
        <ele>118.59999847412</ele>
        <time>2021-09-12T07:31:02Z</time>
      </trkpt>
      <trkpt lat="48.38163" lon="-3.6991">
        <ele>118.59999847412</ele>
        <time>2021-09-12T07:31:03Z</time>
      </trkpt>
      <trkpt lat="48.38165" lon="-3.69907">
        <ele>118.80000305176</ele>
        <time>2021-09-12T07:31:04Z</time>
      </trkpt>
      <trkpt lat="48.38167" lon="-3.69905">
        <ele>119</ele>
        <time>2021-09-12T07:31:05Z</time>
      </trkpt>
      <trkpt lat="48.3817" lon="-3.69901">
        <ele>119</ele>
        <time>2021-09-12T07:31:06Z</time>
      </trkpt>
      <trkpt lat="48.38172" lon="-3.69898">
        <ele>119</ele>
        <time>2021-09-12T07:31:07Z</time>
      </trkpt>
      <trkpt lat="48.38173" lon="-3.69895">
        <ele>119.40000152588</ele>
        <time>2021-09-12T07:31:08Z</time>
      </trkpt>
      <trkpt lat="48.38175" lon="-3.69894">
        <ele>119.59999847412</ele>
        <time>2021-09-12T07:31:09Z</time>
      </trkpt>
      <trkpt lat="48.38176" lon="-3.69893">
        <ele>119.80000305176</ele>
        <time>2021-09-12T07:31:10Z</time>
      </trkpt>
      <trkpt lat="48.38179" lon="-3.69892">
        <ele>120</ele>
        <time>2021-09-12T07:31:11Z</time>
      </trkpt>
      <trkpt lat="48.38181" lon="-3.69892">
        <ele>120.19999694824</ele>
        <time>2021-09-12T07:31:12Z</time>
      </trkpt>
      <trkpt lat="48.38184" lon="-3.69892">
        <ele>120.40000152588</ele>
        <time>2021-09-12T07:31:13Z</time>
      </trkpt>
      <trkpt lat="48.38186" lon="-3.6989">
        <ele>120.59999847412</ele>
        <time>2021-09-12T07:31:14Z</time>
      </trkpt>
      <trkpt lat="48.38188" lon="-3.69889">
        <ele>120.80000305176</ele>
        <time>2021-09-12T07:31:15Z</time>
      </trkpt>
      <trkpt lat="48.3819" lon="-3.69887">
        <ele>121</ele>
        <time>2021-09-12T07:31:16Z</time>
      </trkpt>
      <trkpt lat="48.38192" lon="-3.69886">
        <ele>121</ele>
        <time>2021-09-12T07:31:17Z</time>
      </trkpt>
      <trkpt lat="48.38193" lon="-3.69886">
        <ele>121.19999694824</ele>
        <time>2021-09-12T07:31:18Z</time>
      </trkpt>
      <trkpt lat="48.38195" lon="-3.69885">
        <ele>121.59999847412</ele>
        <time>2021-09-12T07:31:19Z</time>
      </trkpt>
      <trkpt lat="48.38197" lon="-3.69884">
        <ele>121.80000305176</ele>
        <time>2021-09-12T07:31:20Z</time>
      </trkpt>
      <trkpt lat="48.38199" lon="-3.69884">
        <ele>122</ele>
        <time>2021-09-12T07:31:21Z</time>
      </trkpt>
      <trkpt lat="48.382" lon="-3.69883">
        <ele>122.59999847412</ele>
        <time>2021-09-12T07:31:22Z</time>
      </trkpt>
      <trkpt lat="48.38203" lon="-3.69883">
        <ele>123</ele>
        <time>2021-09-12T07:31:23Z</time>
      </trkpt>
      <trkpt lat="48.38205" lon="-3.69883">
        <ele>123</ele>
        <time>2021-09-12T07:31:24Z</time>
      </trkpt>
      <trkpt lat="48.38207" lon="-3.69883">
        <ele>123.40000152588</ele>
        <time>2021-09-12T07:31:25Z</time>
      </trkpt>
      <trkpt lat="48.38208" lon="-3.69882">
        <ele>123.40000152588</ele>
        <time>2021-09-12T07:31:26Z</time>
      </trkpt>
      <trkpt lat="48.3821" lon="-3.69882">
        <ele>123.80000305176</ele>
        <time>2021-09-12T07:31:27Z</time>
      </trkpt>
      <trkpt lat="48.38211" lon="-3.69882">
        <ele>124</ele>
        <time>2021-09-12T07:31:28Z</time>
      </trkpt>
      <trkpt lat="48.38212" lon="-3.69881">
        <ele>124.19999694824</ele>
        <time>2021-09-12T07:31:29Z</time>
      </trkpt>
      <trkpt lat="48.38214" lon="-3.69881">
        <ele>124.80000305176</ele>
        <time>2021-09-12T07:31:30Z</time>
      </trkpt>
      <trkpt lat="48.38215" lon="-3.69881">
        <ele>124.80000305176</ele>
        <time>2021-09-12T07:31:31Z</time>
      </trkpt>
      <trkpt lat="48.38216" lon="-3.69881">
        <ele>125</ele>
        <time>2021-09-12T07:31:32Z</time>
      </trkpt>
      <trkpt lat="48.38217" lon="-3.6988">
        <ele>125.19999694824</ele>
        <time>2021-09-12T07:31:33Z</time>
      </trkpt>
      <trkpt lat="48.38218" lon="-3.69879">
        <ele>125.40000152588</ele>
        <time>2021-09-12T07:31:34Z</time>
      </trkpt>
      <trkpt lat="48.3822" lon="-3.69879">
        <ele>125.40000152588</ele>
        <time>2021-09-12T07:31:35Z</time>
      </trkpt>
      <trkpt lat="48.38222" lon="-3.69878">
        <ele>125.80000305176</ele>
        <time>2021-09-12T07:31:36Z</time>
      </trkpt>
      <trkpt lat="48.38223" lon="-3.69878">
        <ele>126.19999694824</ele>
        <time>2021-09-12T07:31:37Z</time>
      </trkpt>
      <trkpt lat="48.38225" lon="-3.69878">
        <ele>126.40000152588</ele>
        <time>2021-09-12T07:31:38Z</time>
      </trkpt>
      <trkpt lat="48.38227" lon="-3.69878">
        <ele>126.59999847412</ele>
        <time>2021-09-12T07:31:39Z</time>
      </trkpt>
      <trkpt lat="48.38228" lon="-3.69877">
        <ele>126.80000305176</ele>
        <time>2021-09-12T07:31:40Z</time>
      </trkpt>
      <trkpt lat="48.3823" lon="-3.69876">
        <ele>127</ele>
        <time>2021-09-12T07:31:41Z</time>
      </trkpt>
      <trkpt lat="48.38231" lon="-3.69876">
        <ele>127.40000152588</ele>
        <time>2021-09-12T07:31:42Z</time>
      </trkpt>
      <trkpt lat="48.38232" lon="-3.69875">
        <ele>127.59999847412</ele>
        <time>2021-09-12T07:31:43Z</time>
      </trkpt>
      <trkpt lat="48.38234" lon="-3.69875">
        <ele>128</ele>
        <time>2021-09-12T07:31:44Z</time>
      </trkpt>
      <trkpt lat="48.38235" lon="-3.69875">
        <ele>128</ele>
        <time>2021-09-12T07:31:45Z</time>
      </trkpt>
      <trkpt lat="48.38236" lon="-3.69874">
        <ele>128.39999389648</ele>
        <time>2021-09-12T07:31:46Z</time>
      </trkpt>
      <trkpt lat="48.38238" lon="-3.69874">
        <ele>128.80000305176</ele>
        <time>2021-09-12T07:31:47Z</time>
      </trkpt>
      <trkpt lat="48.38239" lon="-3.69874">
        <ele>129.19999694824</ele>
        <time>2021-09-12T07:31:48Z</time>
      </trkpt>
      <trkpt lat="48.38241" lon="-3.69874">
        <ele>129.39999389648</ele>
        <time>2021-09-12T07:31:49Z</time>
      </trkpt>
      <trkpt lat="48.38242" lon="-3.69873">
        <ele>129.60000610352</ele>
        <time>2021-09-12T07:31:50Z</time>
      </trkpt>
      <trkpt lat="48.38243" lon="-3.69873">
        <ele>130</ele>
        <time>2021-09-12T07:31:51Z</time>
      </trkpt>
      <trkpt lat="48.38245" lon="-3.69873">
        <ele>130.19999694824</ele>
        <time>2021-09-12T07:31:52Z</time>
      </trkpt>
      <trkpt lat="48.38247" lon="-3.69872">
        <ele>130.19999694824</ele>
        <time>2021-09-12T07:31:53Z</time>
      </trkpt>
      <trkpt lat="48.38249" lon="-3.69873">
        <ele>130.60000610352</ele>
        <time>2021-09-12T07:31:54Z</time>
      </trkpt>
      <trkpt lat="48.3825" lon="-3.69873">
        <ele>131</ele>
        <time>2021-09-12T07:31:55Z</time>
      </trkpt>
      <trkpt lat="48.38252" lon="-3.69872">
        <ele>131</ele>
        <time>2021-09-12T07:31:56Z</time>
      </trkpt>
      <trkpt lat="48.38254" lon="-3.69872">
        <ele>131.39999389648</ele>
        <time>2021-09-12T07:31:57Z</time>
      </trkpt>
      <trkpt lat="48.38256" lon="-3.69871">
        <ele>131.80000305176</ele>
        <time>2021-09-12T07:31:58Z</time>
      </trkpt>
      <trkpt lat="48.38258" lon="-3.69871">
        <ele>132.19999694824</ele>
        <time>2021-09-12T07:31:59Z</time>
      </trkpt>
      <trkpt lat="48.38259" lon="-3.69871">
        <ele>132.19999694824</ele>
        <time>2021-09-12T07:32:00Z</time>
      </trkpt>
      <trkpt lat="48.38261" lon="-3.69871">
        <ele>132.80000305176</ele>
        <time>2021-09-12T07:32:01Z</time>
      </trkpt>
      <trkpt lat="48.38262" lon="-3.6987">
        <ele>132.80000305176</ele>
        <time>2021-09-12T07:32:02Z</time>
      </trkpt>
      <trkpt lat="48.38264" lon="-3.6987">
        <ele>133</ele>
        <time>2021-09-12T07:32:03Z</time>
      </trkpt>
      <trkpt lat="48.38264" lon="-3.6987">
        <ele>133.39999389648</ele>
        <time>2021-09-12T07:32:04Z</time>
      </trkpt>
      <trkpt lat="48.38264" lon="-3.6987">
        <ele>133.60000610352</ele>
        <time>2021-09-12T07:32:05Z</time>
      </trkpt>
      <trkpt lat="48.38264" lon="-3.6987">
        <ele>134.19999694824</ele>
        <time>2021-09-12T07:32:06Z</time>
      </trkpt>
      <trkpt lat="48.38265" lon="-3.6987">
        <ele>134.19999694824</ele>
        <time>2021-09-12T07:32:07Z</time>
      </trkpt>
      <trkpt lat="48.38267" lon="-3.6987">
        <ele>134.39999389648</ele>
        <time>2021-09-12T07:32:08Z</time>
      </trkpt>
      <trkpt lat="48.38269" lon="-3.69869">
        <ele>134.39999389648</ele>
        <time>2021-09-12T07:32:09Z</time>
      </trkpt>
      <trkpt lat="48.38271" lon="-3.69869">
        <ele>134.60000610352</ele>
        <time>2021-09-12T07:32:10Z</time>
      </trkpt>
      <trkpt lat="48.38273" lon="-3.69869">
        <ele>135</ele>
        <time>2021-09-12T07:32:11Z</time>
      </trkpt>
      <trkpt lat="48.38274" lon="-3.69868">
        <ele>135.19999694824</ele>
        <time>2021-09-12T07:32:12Z</time>
      </trkpt>
      <trkpt lat="48.38275" lon="-3.69867">
        <ele>135.80000305176</ele>
        <time>2021-09-12T07:32:13Z</time>
      </trkpt>
      <trkpt lat="48.38276" lon="-3.69866">
        <ele>136</ele>
        <time>2021-09-12T07:32:14Z</time>
      </trkpt>
      <trkpt lat="48.38277" lon="-3.69865">
        <ele>136.19999694824</ele>
        <time>2021-09-12T07:32:15Z</time>
      </trkpt>
      <trkpt lat="48.38278" lon="-3.69864">
        <ele>136.39999389648</ele>
        <time>2021-09-12T07:32:16Z</time>
      </trkpt>
      <trkpt lat="48.38278" lon="-3.69864">
        <ele>136.60000610352</ele>
        <time>2021-09-12T07:32:17Z</time>
      </trkpt>
      <trkpt lat="48.38279" lon="-3.69863">
        <ele>136.60000610352</ele>
        <time>2021-09-12T07:32:18Z</time>
      </trkpt>
      <trkpt lat="48.3828" lon="-3.69863">
        <ele>137.19999694824</ele>
        <time>2021-09-12T07:32:19Z</time>
      </trkpt>
      <trkpt lat="48.38281" lon="-3.69863">
        <ele>137.19999694824</ele>
        <time>2021-09-12T07:32:20Z</time>
      </trkpt>
      <trkpt lat="48.38282" lon="-3.69862">
        <ele>137.39999389648</ele>
        <time>2021-09-12T07:32:21Z</time>
      </trkpt>
      <trkpt lat="48.38284" lon="-3.69862">
        <ele>138</ele>
        <time>2021-09-12T07:32:22Z</time>
      </trkpt>
      <trkpt lat="48.38288" lon="-3.69861">
        <ele>138.19999694824</ele>
        <time>2021-09-12T07:32:23Z</time>
      </trkpt>
      <trkpt lat="48.38289" lon="-3.69861">
        <ele>138.39999389648</ele>
        <time>2021-09-12T07:32:24Z</time>
      </trkpt>
      <trkpt lat="48.38291" lon="-3.6986">
        <ele>138.60000610352</ele>
        <time>2021-09-12T07:32:25Z</time>
      </trkpt>
      <trkpt lat="48.38295" lon="-3.69859">
        <ele>138.80000305176</ele>
        <time>2021-09-12T07:32:26Z</time>
      </trkpt>
      <trkpt lat="48.38297" lon="-3.69858">
        <ele>139</ele>
        <time>2021-09-12T07:32:27Z</time>
      </trkpt>
      <trkpt lat="48.38299" lon="-3.69857">
        <ele>139</ele>
        <time>2021-09-12T07:32:28Z</time>
      </trkpt>
      <trkpt lat="48.38301" lon="-3.69856">
        <ele>139.39999389648</ele>
        <time>2021-09-12T07:32:29Z</time>
      </trkpt>
      <trkpt lat="48.38303" lon="-3.69856">
        <ele>139.60000610352</ele>
        <time>2021-09-12T07:32:30Z</time>
      </trkpt>
      <trkpt lat="48.38304" lon="-3.69855">
        <ele>139.60000610352</ele>
        <time>2021-09-12T07:32:31Z</time>
      </trkpt>
      <trkpt lat="48.38305" lon="-3.69855">
        <ele>140.19999694824</ele>
        <time>2021-09-12T07:32:32Z</time>
      </trkpt>
      <trkpt lat="48.38306" lon="-3.69854">
        <ele>140.19999694824</ele>
        <time>2021-09-12T07:32:33Z</time>
      </trkpt>
      <trkpt lat="48.38308" lon="-3.69854">
        <ele>140.60000610352</ele>
        <time>2021-09-12T07:32:34Z</time>
      </trkpt>
      <trkpt lat="48.3831" lon="-3.69854">
        <ele>140.80000305176</ele>
        <time>2021-09-12T07:32:35Z</time>
      </trkpt>
      <trkpt lat="48.38312" lon="-3.69854">
        <ele>141</ele>
        <time>2021-09-12T07:32:36Z</time>
      </trkpt>
      <trkpt lat="48.38314" lon="-3.69854">
        <ele>141</ele>
        <time>2021-09-12T07:32:37Z</time>
      </trkpt>
      <trkpt lat="48.38316" lon="-3.69854">
        <ele>141.39999389648</ele>
        <time>2021-09-12T07:32:38Z</time>
      </trkpt>
      <trkpt lat="48.38317" lon="-3.69853">
        <ele>141.80000305176</ele>
        <time>2021-09-12T07:32:39Z</time>
      </trkpt>
      <trkpt lat="48.38318" lon="-3.69852">
        <ele>141.80000305176</ele>
        <time>2021-09-12T07:32:40Z</time>
      </trkpt>
      <trkpt lat="48.3832" lon="-3.69851">
        <ele>142.19999694824</ele>
        <time>2021-09-12T07:32:41Z</time>
      </trkpt>
      <trkpt lat="48.38321" lon="-3.69849">
        <ele>142.39999389648</ele>
        <time>2021-09-12T07:32:42Z</time>
      </trkpt>
      <trkpt lat="48.38322" lon="-3.69848">
        <ele>142.80000305176</ele>
        <time>2021-09-12T07:32:43Z</time>
      </trkpt>
      <trkpt lat="48.38324" lon="-3.69846">
        <ele>142.80000305176</ele>
        <time>2021-09-12T07:32:44Z</time>
      </trkpt>
      <trkpt lat="48.38325" lon="-3.69844">
        <ele>143</ele>
        <time>2021-09-12T07:32:45Z</time>
      </trkpt>
      <trkpt lat="48.38326" lon="-3.69842">
        <ele>143.19999694824</ele>
        <time>2021-09-12T07:32:46Z</time>
      </trkpt>
      <trkpt lat="48.38327" lon="-3.6984">
        <ele>143.39999389648</ele>
        <time>2021-09-12T07:32:47Z</time>
      </trkpt>
      <trkpt lat="48.38328" lon="-3.69838">
        <ele>143.39999389648</ele>
        <time>2021-09-12T07:32:48Z</time>
      </trkpt>
      <trkpt lat="48.3833" lon="-3.69837">
        <ele>143.39999389648</ele>
        <time>2021-09-12T07:32:49Z</time>
      </trkpt>
      <trkpt lat="48.38331" lon="-3.69835">
        <ele>143.39999389648</ele>
        <time>2021-09-12T07:32:50Z</time>
      </trkpt>
      <trkpt lat="48.38331" lon="-3.69833">
        <ele>143.80000305176</ele>
        <time>2021-09-12T07:32:51Z</time>
      </trkpt>
      <trkpt lat="48.38332" lon="-3.69832">
        <ele>143.80000305176</ele>
        <time>2021-09-12T07:32:52Z</time>
      </trkpt>
      <trkpt lat="48.38333" lon="-3.6983">
        <ele>144</ele>
        <time>2021-09-12T07:32:53Z</time>
      </trkpt>
      <trkpt lat="48.38334" lon="-3.69828">
        <ele>144</ele>
        <time>2021-09-12T07:32:54Z</time>
      </trkpt>
      <trkpt lat="48.38336" lon="-3.69826">
        <ele>144.19999694824</ele>
        <time>2021-09-12T07:32:55Z</time>
      </trkpt>
      <trkpt lat="48.38338" lon="-3.69824">
        <ele>144.19999694824</ele>
        <time>2021-09-12T07:32:56Z</time>
      </trkpt>
      <trkpt lat="48.38339" lon="-3.69824">
        <ele>144.19999694824</ele>
        <time>2021-09-12T07:32:57Z</time>
      </trkpt>
      <trkpt lat="48.38341" lon="-3.69824">
        <ele>144.19999694824</ele>
        <time>2021-09-12T07:32:58Z</time>
      </trkpt>
      <trkpt lat="48.38342" lon="-3.69823">
        <ele>144.19999694824</ele>
        <time>2021-09-12T07:32:59Z</time>
      </trkpt>
      <trkpt lat="48.38343" lon="-3.69821">
        <ele>144.19999694824</ele>
        <time>2021-09-12T07:33:00Z</time>
      </trkpt>
      <trkpt lat="48.38345" lon="-3.69819">
        <ele>144.19999694824</ele>
        <time>2021-09-12T07:33:01Z</time>
      </trkpt>
      <trkpt lat="48.38345" lon="-3.69817">
        <ele>144.19999694824</ele>
        <time>2021-09-12T07:33:02Z</time>
      </trkpt>
      <trkpt lat="48.38346" lon="-3.69816">
        <ele>144.19999694824</ele>
        <time>2021-09-12T07:33:03Z</time>
      </trkpt>
      <trkpt lat="48.38346" lon="-3.69816">
        <ele>144</ele>
        <time>2021-09-12T07:33:04Z</time>
      </trkpt>
      <trkpt lat="48.38346" lon="-3.69816">
        <ele>144</ele>
        <time>2021-09-12T07:33:05Z</time>
      </trkpt>
      <trkpt lat="48.38352" lon="-3.69808">
        <ele>144.19999694824</ele>
        <time>2021-09-12T07:35:36Z</time>
      </trkpt>
      <trkpt lat="48.38354" lon="-3.69805">
        <ele>144.19999694824</ele>
        <time>2021-09-12T07:35:37Z</time>
      </trkpt>
      <trkpt lat="48.38356" lon="-3.698">
        <ele>144.19999694824</ele>
        <time>2021-09-12T07:35:38Z</time>
      </trkpt>
      <trkpt lat="48.38358" lon="-3.69795">
        <ele>144.19999694824</ele>
        <time>2021-09-12T07:35:39Z</time>
      </trkpt>
      <trkpt lat="48.3836" lon="-3.69789">
        <ele>144</ele>
        <time>2021-09-12T07:35:40Z</time>
      </trkpt>
      <trkpt lat="48.38362" lon="-3.69782">
        <ele>143.60000610352</ele>
        <time>2021-09-12T07:35:41Z</time>
      </trkpt>
      <trkpt lat="48.38363" lon="-3.69775">
        <ele>143.60000610352</ele>
        <time>2021-09-12T07:35:42Z</time>
      </trkpt>
      <trkpt lat="48.38365" lon="-3.69767">
        <ele>143.39999389648</ele>
        <time>2021-09-12T07:35:43Z</time>
      </trkpt>
      <trkpt lat="48.38366" lon="-3.69759">
        <ele>142.80000305176</ele>
        <time>2021-09-12T07:35:44Z</time>
      </trkpt>
      <trkpt lat="48.38367" lon="-3.69752">
        <ele>142.60000610352</ele>
        <time>2021-09-12T07:35:45Z</time>
      </trkpt>
      <trkpt lat="48.38368" lon="-3.69746">
        <ele>142.19999694824</ele>
        <time>2021-09-12T07:35:46Z</time>
      </trkpt>
      <trkpt lat="48.38368" lon="-3.69742">
        <ele>141.39999389648</ele>
        <time>2021-09-12T07:35:47Z</time>
      </trkpt>
      <trkpt lat="48.38367" lon="-3.6974">
        <ele>141.19999694824</ele>
        <time>2021-09-12T07:35:48Z</time>
      </trkpt>
      <trkpt lat="48.38367" lon="-3.69739">
        <ele>140.60000610352</ele>
        <time>2021-09-12T07:35:49Z</time>
      </trkpt>
      <trkpt lat="48.38367" lon="-3.69738">
        <ele>140.60000610352</ele>
        <time>2021-09-12T07:35:50Z</time>
      </trkpt>
      <trkpt lat="48.38367" lon="-3.69738">
        <ele>140.39999389648</ele>
        <time>2021-09-12T07:35:51Z</time>
      </trkpt>
      <trkpt lat="48.38367" lon="-3.69738">
        <ele>140.39999389648</ele>
        <time>2021-09-12T07:35:52Z</time>
      </trkpt>
      <trkpt lat="48.38369" lon="-3.69739">
        <ele>140.39999389648</ele>
        <time>2021-09-12T07:38:03Z</time>
      </trkpt>
      <trkpt lat="48.38371" lon="-3.6974">
        <ele>140.39999389648</ele>
        <time>2021-09-12T07:38:04Z</time>
      </trkpt>
      <trkpt lat="48.38373" lon="-3.69741">
        <ele>140.60000610352</ele>
        <time>2021-09-12T07:38:05Z</time>
      </trkpt>
      <trkpt lat="48.38375" lon="-3.69743">
        <ele>140.60000610352</ele>
        <time>2021-09-12T07:38:06Z</time>
      </trkpt>
      <trkpt lat="48.38377" lon="-3.69746">
        <ele>140.80000305176</ele>
        <time>2021-09-12T07:38:07Z</time>
      </trkpt>
      <trkpt lat="48.3838" lon="-3.69748">
        <ele>141.19999694824</ele>
        <time>2021-09-12T07:38:08Z</time>
      </trkpt>
      <trkpt lat="48.38381" lon="-3.69751">
        <ele>141.19999694824</ele>
        <time>2021-09-12T07:38:09Z</time>
      </trkpt>
      <trkpt lat="48.38384" lon="-3.69753">
        <ele>141.60000610352</ele>
        <time>2021-09-12T07:38:10Z</time>
      </trkpt>
      <trkpt lat="48.38386" lon="-3.69755">
        <ele>141.60000610352</ele>
        <time>2021-09-12T07:38:11Z</time>
      </trkpt>
      <trkpt lat="48.38387" lon="-3.69758">
        <ele>141.80000305176</ele>
        <time>2021-09-12T07:38:12Z</time>
      </trkpt>
      <trkpt lat="48.38389" lon="-3.69761">
        <ele>142.19999694824</ele>
        <time>2021-09-12T07:38:13Z</time>
      </trkpt>
      <trkpt lat="48.3839" lon="-3.69763">
        <ele>142.60000610352</ele>
        <time>2021-09-12T07:38:14Z</time>
      </trkpt>
      <trkpt lat="48.38391" lon="-3.69766">
        <ele>142.60000610352</ele>
        <time>2021-09-12T07:38:15Z</time>
      </trkpt>
      <trkpt lat="48.38393" lon="-3.69768">
        <ele>143</ele>
        <time>2021-09-12T07:38:16Z</time>
      </trkpt>
      <trkpt lat="48.38395" lon="-3.6977">
        <ele>143.19999694824</ele>
        <time>2021-09-12T07:38:17Z</time>
      </trkpt>
      <trkpt lat="48.38396" lon="-3.69773">
        <ele>143.39999389648</ele>
        <time>2021-09-12T07:38:18Z</time>
      </trkpt>
      <trkpt lat="48.38398" lon="-3.69775">
        <ele>143.80000305176</ele>
        <time>2021-09-12T07:38:19Z</time>
      </trkpt>
      <trkpt lat="48.38399" lon="-3.69778">
        <ele>144</ele>
        <time>2021-09-12T07:38:20Z</time>
      </trkpt>
      <trkpt lat="48.384" lon="-3.6978">
        <ele>144.19999694824</ele>
        <time>2021-09-12T07:38:21Z</time>
      </trkpt>
      <trkpt lat="48.38401" lon="-3.69783">
        <ele>144.39999389648</ele>
        <time>2021-09-12T07:38:22Z</time>
      </trkpt>
      <trkpt lat="48.38403" lon="-3.69786">
        <ele>144.80000305176</ele>
        <time>2021-09-12T07:38:23Z</time>
      </trkpt>
      <trkpt lat="48.38404" lon="-3.69788">
        <ele>144.80000305176</ele>
        <time>2021-09-12T07:38:24Z</time>
      </trkpt>
      <trkpt lat="48.38405" lon="-3.69791">
        <ele>145.19999694824</ele>
        <time>2021-09-12T07:38:25Z</time>
      </trkpt>
      <trkpt lat="48.38406" lon="-3.69793">
        <ele>145.60000610352</ele>
        <time>2021-09-12T07:38:26Z</time>
      </trkpt>
      <trkpt lat="48.38407" lon="-3.69796">
        <ele>145.80000305176</ele>
        <time>2021-09-12T07:38:27Z</time>
      </trkpt>
      <trkpt lat="48.38408" lon="-3.69799">
        <ele>146</ele>
        <time>2021-09-12T07:38:28Z</time>
      </trkpt>
      <trkpt lat="48.38409" lon="-3.69801">
        <ele>146.19999694824</ele>
        <time>2021-09-12T07:38:29Z</time>
      </trkpt>
      <trkpt lat="48.3841" lon="-3.69804">
        <ele>146.19999694824</ele>
        <time>2021-09-12T07:38:30Z</time>
      </trkpt>
      <trkpt lat="48.38411" lon="-3.69806">
        <ele>146.60000610352</ele>
        <time>2021-09-12T07:38:31Z</time>
      </trkpt>
      <trkpt lat="48.38413" lon="-3.69809">
        <ele>147</ele>
        <time>2021-09-12T07:38:32Z</time>
      </trkpt>
      <trkpt lat="48.38414" lon="-3.69811">
        <ele>147</ele>
        <time>2021-09-12T07:38:33Z</time>
      </trkpt>
      <trkpt lat="48.38415" lon="-3.69814">
        <ele>147.19999694824</ele>
        <time>2021-09-12T07:38:34Z</time>
      </trkpt>
      <trkpt lat="48.38417" lon="-3.69816">
        <ele>147.39999389648</ele>
        <time>2021-09-12T07:38:35Z</time>
      </trkpt>
      <trkpt lat="48.38418" lon="-3.69818">
        <ele>147.60000610352</ele>
        <time>2021-09-12T07:38:36Z</time>
      </trkpt>
      <trkpt lat="48.38419" lon="-3.6982">
        <ele>147.80000305176</ele>
        <time>2021-09-12T07:38:37Z</time>
      </trkpt>
      <trkpt lat="48.3842" lon="-3.69822">
        <ele>148.19999694824</ele>
        <time>2021-09-12T07:38:38Z</time>
      </trkpt>
      <trkpt lat="48.38421" lon="-3.69825">
        <ele>148.39999389648</ele>
        <time>2021-09-12T07:38:39Z</time>
      </trkpt>
      <trkpt lat="48.38422" lon="-3.69828">
        <ele>148.60000610352</ele>
        <time>2021-09-12T07:38:40Z</time>
      </trkpt>
      <trkpt lat="48.38422" lon="-3.69832">
        <ele>148.80000305176</ele>
        <time>2021-09-12T07:38:41Z</time>
      </trkpt>
      <trkpt lat="48.38422" lon="-3.69835">
        <ele>149</ele>
        <time>2021-09-12T07:38:42Z</time>
      </trkpt>
      <trkpt lat="48.38421" lon="-3.69838">
        <ele>149.19999694824</ele>
        <time>2021-09-12T07:38:43Z</time>
      </trkpt>
      <trkpt lat="48.38421" lon="-3.69841">
        <ele>149.39999389648</ele>
        <time>2021-09-12T07:38:44Z</time>
      </trkpt>
      <trkpt lat="48.3842" lon="-3.69843">
        <ele>149.60000610352</ele>
        <time>2021-09-12T07:38:45Z</time>
      </trkpt>
      <trkpt lat="48.38418" lon="-3.69846">
        <ele>149.80000305176</ele>
        <time>2021-09-12T07:38:46Z</time>
      </trkpt>
      <trkpt lat="48.38416" lon="-3.69848">
        <ele>150</ele>
        <time>2021-09-12T07:38:47Z</time>
      </trkpt>
      <trkpt lat="48.38414" lon="-3.69851">
        <ele>150</ele>
        <time>2021-09-12T07:38:48Z</time>
      </trkpt>
      <trkpt lat="48.38412" lon="-3.69853">
        <ele>150.19999694824</ele>
        <time>2021-09-12T07:38:49Z</time>
      </trkpt>
      <trkpt lat="48.38409" lon="-3.69856">
        <ele>150.19999694824</ele>
        <time>2021-09-12T07:38:50Z</time>
      </trkpt>
      <trkpt lat="48.38407" lon="-3.69858">
        <ele>150.19999694824</ele>
        <time>2021-09-12T07:38:51Z</time>
      </trkpt>
      <trkpt lat="48.38405" lon="-3.69861">
        <ele>150.19999694824</ele>
        <time>2021-09-12T07:38:52Z</time>
      </trkpt>
      <trkpt lat="48.38403" lon="-3.69864">
        <ele>150.60000610352</ele>
        <time>2021-09-12T07:38:53Z</time>
      </trkpt>
      <trkpt lat="48.384" lon="-3.69868">
        <ele>150.60000610352</ele>
        <time>2021-09-12T07:38:54Z</time>
      </trkpt>
      <trkpt lat="48.38397" lon="-3.69871">
        <ele>150.60000610352</ele>
        <time>2021-09-12T07:38:55Z</time>
      </trkpt>
      <trkpt lat="48.38394" lon="-3.69873">
        <ele>150.60000610352</ele>
        <time>2021-09-12T07:38:56Z</time>
      </trkpt>
      <trkpt lat="48.38391" lon="-3.69877">
        <ele>150.60000610352</ele>
        <time>2021-09-12T07:38:57Z</time>
      </trkpt>
      <trkpt lat="48.38388" lon="-3.69879">
        <ele>150.60000610352</ele>
        <time>2021-09-12T07:38:58Z</time>
      </trkpt>
      <trkpt lat="48.38386" lon="-3.69883">
        <ele>150.39999389648</ele>
        <time>2021-09-12T07:38:59Z</time>
      </trkpt>
      <trkpt lat="48.38383" lon="-3.69887">
        <ele>150.39999389648</ele>
        <time>2021-09-12T07:39:00Z</time>
      </trkpt>
      <trkpt lat="48.38382" lon="-3.69892">
        <ele>150.19999694824</ele>
        <time>2021-09-12T07:39:01Z</time>
      </trkpt>
      <trkpt lat="48.38381" lon="-3.69898">
        <ele>150.19999694824</ele>
        <time>2021-09-12T07:39:02Z</time>
      </trkpt>
      <trkpt lat="48.38381" lon="-3.69903">
        <ele>150.19999694824</ele>
        <time>2021-09-12T07:39:03Z</time>
      </trkpt>
      <trkpt lat="48.38381" lon="-3.69908">
        <ele>150.19999694824</ele>
        <time>2021-09-12T07:39:04Z</time>
      </trkpt>
      <trkpt lat="48.38382" lon="-3.69912">
        <ele>150.19999694824</ele>
        <time>2021-09-12T07:39:05Z</time>
      </trkpt>
      <trkpt lat="48.38384" lon="-3.69917">
        <ele>150.39999389648</ele>
        <time>2021-09-12T07:39:06Z</time>
      </trkpt>
      <trkpt lat="48.38385" lon="-3.69922">
        <ele>150.80000305176</ele>
        <time>2021-09-12T07:39:07Z</time>
      </trkpt>
      <trkpt lat="48.38387" lon="-3.69926">
        <ele>151</ele>
        <time>2021-09-12T07:39:08Z</time>
      </trkpt>
      <trkpt lat="48.38389" lon="-3.6993">
        <ele>151</ele>
        <time>2021-09-12T07:39:09Z</time>
      </trkpt>
      <trkpt lat="48.3839" lon="-3.69933">
        <ele>151.39999389648</ele>
        <time>2021-09-12T07:39:10Z</time>
      </trkpt>
      <trkpt lat="48.38391" lon="-3.69937">
        <ele>151.60000610352</ele>
        <time>2021-09-12T07:39:11Z</time>
      </trkpt>
      <trkpt lat="48.38392" lon="-3.69942">
        <ele>151.80000305176</ele>
        <time>2021-09-12T07:39:12Z</time>
      </trkpt>
      <trkpt lat="48.38393" lon="-3.69945">
        <ele>152</ele>
        <time>2021-09-12T07:39:13Z</time>
      </trkpt>
      <trkpt lat="48.38394" lon="-3.69949">
        <ele>152.19999694824</ele>
        <time>2021-09-12T07:39:14Z</time>
      </trkpt>
      <trkpt lat="48.38394" lon="-3.69954">
        <ele>152.60000610352</ele>
        <time>2021-09-12T07:39:15Z</time>
      </trkpt>
      <trkpt lat="48.38395" lon="-3.69958">
        <ele>152.60000610352</ele>
        <time>2021-09-12T07:39:16Z</time>
      </trkpt>
      <trkpt lat="48.38396" lon="-3.69962">
        <ele>153.19999694824</ele>
        <time>2021-09-12T07:39:17Z</time>
      </trkpt>
      <trkpt lat="48.38396" lon="-3.69966">
        <ele>153.19999694824</ele>
        <time>2021-09-12T07:39:18Z</time>
      </trkpt>
      <trkpt lat="48.38397" lon="-3.69969">
        <ele>153.60000610352</ele>
        <time>2021-09-12T07:39:19Z</time>
      </trkpt>
      <trkpt lat="48.38397" lon="-3.69974">
        <ele>153.60000610352</ele>
        <time>2021-09-12T07:39:20Z</time>
      </trkpt>
      <trkpt lat="48.38397" lon="-3.69977">
        <ele>154</ele>
        <time>2021-09-12T07:39:21Z</time>
      </trkpt>
      <trkpt lat="48.38397" lon="-3.69981">
        <ele>154.39999389648</ele>
        <time>2021-09-12T07:39:22Z</time>
      </trkpt>
      <trkpt lat="48.38397" lon="-3.69984">
        <ele>154.60000610352</ele>
        <time>2021-09-12T07:39:23Z</time>
      </trkpt>
      <trkpt lat="48.38397" lon="-3.69988">
        <ele>154.80000305176</ele>
        <time>2021-09-12T07:39:24Z</time>
      </trkpt>
      <trkpt lat="48.38398" lon="-3.69991">
        <ele>154.80000305176</ele>
        <time>2021-09-12T07:39:25Z</time>
      </trkpt>
      <trkpt lat="48.38397" lon="-3.69996">
        <ele>154.80000305176</ele>
        <time>2021-09-12T07:39:26Z</time>
      </trkpt>
      <trkpt lat="48.38396" lon="-3.7">
        <ele>155.19999694824</ele>
        <time>2021-09-12T07:39:27Z</time>
      </trkpt>
      <trkpt lat="48.38395" lon="-3.70005">
        <ele>155.39999389648</ele>
        <time>2021-09-12T07:39:28Z</time>
      </trkpt>
      <trkpt lat="48.38395" lon="-3.7001">
        <ele>155.39999389648</ele>
        <time>2021-09-12T07:39:29Z</time>
      </trkpt>
      <trkpt lat="48.38394" lon="-3.70014">
        <ele>155.60000610352</ele>
        <time>2021-09-12T07:39:30Z</time>
      </trkpt>
      <trkpt lat="48.38393" lon="-3.70019">
        <ele>155.80000305176</ele>
        <time>2021-09-12T07:39:31Z</time>
      </trkpt>
      <trkpt lat="48.38392" lon="-3.70024">
        <ele>155.80000305176</ele>
        <time>2021-09-12T07:39:32Z</time>
      </trkpt>
      <trkpt lat="48.3839" lon="-3.70029">
        <ele>156</ele>
        <time>2021-09-12T07:39:33Z</time>
      </trkpt>
      <trkpt lat="48.38389" lon="-3.70033">
        <ele>156</ele>
        <time>2021-09-12T07:39:34Z</time>
      </trkpt>
      <trkpt lat="48.38388" lon="-3.70038">
        <ele>156.19999694824</ele>
        <time>2021-09-12T07:39:35Z</time>
      </trkpt>
      <trkpt lat="48.38387" lon="-3.70043">
        <ele>156.39999389648</ele>
        <time>2021-09-12T07:39:36Z</time>
      </trkpt>
      <trkpt lat="48.38386" lon="-3.70047">
        <ele>156.60000610352</ele>
        <time>2021-09-12T07:39:37Z</time>
      </trkpt>
      <trkpt lat="48.38384" lon="-3.70053">
        <ele>156.60000610352</ele>
        <time>2021-09-12T07:39:38Z</time>
      </trkpt>
      <trkpt lat="48.38383" lon="-3.70058">
        <ele>156.80000305176</ele>
        <time>2021-09-12T07:39:39Z</time>
      </trkpt>
      <trkpt lat="48.38382" lon="-3.70062">
        <ele>157</ele>
        <time>2021-09-12T07:39:40Z</time>
      </trkpt>
      <trkpt lat="48.38381" lon="-3.70067">
        <ele>157.19999694824</ele>
        <time>2021-09-12T07:39:41Z</time>
      </trkpt>
      <trkpt lat="48.3838" lon="-3.70071">
        <ele>157.39999389648</ele>
        <time>2021-09-12T07:39:42Z</time>
      </trkpt>
      <trkpt lat="48.38379" lon="-3.70076">
        <ele>157.39999389648</ele>
        <time>2021-09-12T07:39:43Z</time>
      </trkpt>
      <trkpt lat="48.38378" lon="-3.70082">
        <ele>157.60000610352</ele>
        <time>2021-09-12T07:39:44Z</time>
      </trkpt>
      <trkpt lat="48.38377" lon="-3.70086">
        <ele>158</ele>
        <time>2021-09-12T07:39:45Z</time>
      </trkpt>
      <trkpt lat="48.38377" lon="-3.70091">
        <ele>158.19999694824</ele>
        <time>2021-09-12T07:39:46Z</time>
      </trkpt>
      <trkpt lat="48.38376" lon="-3.70096">
        <ele>158.39999389648</ele>
        <time>2021-09-12T07:39:47Z</time>
      </trkpt>
      <trkpt lat="48.38375" lon="-3.70101">
        <ele>158.60000610352</ele>
        <time>2021-09-12T07:39:48Z</time>
      </trkpt>
      <trkpt lat="48.38374" lon="-3.70105">
        <ele>158.80000305176</ele>
        <time>2021-09-12T07:39:49Z</time>
      </trkpt>
      <trkpt lat="48.38372" lon="-3.7011">
        <ele>159</ele>
        <time>2021-09-12T07:39:50Z</time>
      </trkpt>
      <trkpt lat="48.38371" lon="-3.70114">
        <ele>159.19999694824</ele>
        <time>2021-09-12T07:39:51Z</time>
      </trkpt>
      <trkpt lat="48.3837" lon="-3.70118">
        <ele>159.39999389648</ele>
        <time>2021-09-12T07:39:52Z</time>
      </trkpt>
      <trkpt lat="48.38369" lon="-3.70123">
        <ele>159.60000610352</ele>
        <time>2021-09-12T07:39:53Z</time>
      </trkpt>
      <trkpt lat="48.38368" lon="-3.70127">
        <ele>159.80000305176</ele>
        <time>2021-09-12T07:39:54Z</time>
      </trkpt>
      <trkpt lat="48.38366" lon="-3.70131">
        <ele>160</ele>
        <time>2021-09-12T07:39:55Z</time>
      </trkpt>
      <trkpt lat="48.38365" lon="-3.70136">
        <ele>160</ele>
        <time>2021-09-12T07:39:56Z</time>
      </trkpt>
      <trkpt lat="48.38364" lon="-3.7014">
        <ele>160.39999389648</ele>
        <time>2021-09-12T07:39:57Z</time>
      </trkpt>
      <trkpt lat="48.38363" lon="-3.70145">
        <ele>160.39999389648</ele>
        <time>2021-09-12T07:39:58Z</time>
      </trkpt>
      <trkpt lat="48.38362" lon="-3.70149">
        <ele>160.39999389648</ele>
        <time>2021-09-12T07:39:59Z</time>
      </trkpt>
      <trkpt lat="48.38361" lon="-3.70153">
        <ele>160.80000305176</ele>
        <time>2021-09-12T07:40:00Z</time>
      </trkpt>
      <trkpt lat="48.3836" lon="-3.70158">
        <ele>160.80000305176</ele>
        <time>2021-09-12T07:40:01Z</time>
      </trkpt>
      <trkpt lat="48.38359" lon="-3.70163">
        <ele>160.80000305176</ele>
        <time>2021-09-12T07:40:02Z</time>
      </trkpt>
      <trkpt lat="48.38357" lon="-3.70168">
        <ele>161</ele>
        <time>2021-09-12T07:40:03Z</time>
      </trkpt>
      <trkpt lat="48.38356" lon="-3.70173">
        <ele>161.39999389648</ele>
        <time>2021-09-12T07:40:04Z</time>
      </trkpt>
      <trkpt lat="48.38355" lon="-3.70178">
        <ele>161.60000610352</ele>
        <time>2021-09-12T07:40:05Z</time>
      </trkpt>
      <trkpt lat="48.38354" lon="-3.70183">
        <ele>161.60000610352</ele>
        <time>2021-09-12T07:40:06Z</time>
      </trkpt>
      <trkpt lat="48.38353" lon="-3.70187">
        <ele>161.80000305176</ele>
        <time>2021-09-12T07:40:07Z</time>
      </trkpt>
      <trkpt lat="48.38352" lon="-3.70193">
        <ele>161.80000305176</ele>
        <time>2021-09-12T07:40:08Z</time>
      </trkpt>
      <trkpt lat="48.38351" lon="-3.70197">
        <ele>161.80000305176</ele>
        <time>2021-09-12T07:40:09Z</time>
      </trkpt>
      <trkpt lat="48.3835" lon="-3.70202">
        <ele>161.80000305176</ele>
        <time>2021-09-12T07:40:10Z</time>
      </trkpt>
      <trkpt lat="48.38349" lon="-3.70208">
        <ele>162</ele>
        <time>2021-09-12T07:40:11Z</time>
      </trkpt>
      <trkpt lat="48.38348" lon="-3.70212">
        <ele>162.19999694824</ele>
        <time>2021-09-12T07:40:12Z</time>
      </trkpt>
      <trkpt lat="48.38347" lon="-3.70218">
        <ele>162.19999694824</ele>
        <time>2021-09-12T07:40:13Z</time>
      </trkpt>
      <trkpt lat="48.38345" lon="-3.70223">
        <ele>162.19999694824</ele>
        <time>2021-09-12T07:40:14Z</time>
      </trkpt>
      <trkpt lat="48.38344" lon="-3.70229">
        <ele>162.39999389648</ele>
        <time>2021-09-12T07:40:15Z</time>
      </trkpt>
      <trkpt lat="48.38343" lon="-3.70236">
        <ele>162.39999389648</ele>
        <time>2021-09-12T07:40:16Z</time>
      </trkpt>
      <trkpt lat="48.38342" lon="-3.70242">
        <ele>162.60000610352</ele>
        <time>2021-09-12T07:40:17Z</time>
      </trkpt>
      <trkpt lat="48.3834" lon="-3.70246">
        <ele>162.60000610352</ele>
        <time>2021-09-12T07:40:18Z</time>
      </trkpt>
      <trkpt lat="48.38339" lon="-3.70252">
        <ele>162.60000610352</ele>
        <time>2021-09-12T07:40:19Z</time>
      </trkpt>
      <trkpt lat="48.38337" lon="-3.70259">
        <ele>162.60000610352</ele>
        <time>2021-09-12T07:40:20Z</time>
      </trkpt>
      <trkpt lat="48.38335" lon="-3.70265">
        <ele>162.39999389648</ele>
        <time>2021-09-12T07:40:21Z</time>
      </trkpt>
      <trkpt lat="48.38334" lon="-3.7027">
        <ele>162.19999694824</ele>
        <time>2021-09-12T07:40:22Z</time>
      </trkpt>
      <trkpt lat="48.38333" lon="-3.70276">
        <ele>162.19999694824</ele>
        <time>2021-09-12T07:40:23Z</time>
      </trkpt>
      <trkpt lat="48.38331" lon="-3.70282">
        <ele>162.19999694824</ele>
        <time>2021-09-12T07:40:24Z</time>
      </trkpt>
      <trkpt lat="48.38329" lon="-3.70289">
        <ele>162.19999694824</ele>
        <time>2021-09-12T07:40:25Z</time>
      </trkpt>
      <trkpt lat="48.38328" lon="-3.70294">
        <ele>162</ele>
        <time>2021-09-12T07:40:26Z</time>
      </trkpt>
      <trkpt lat="48.38326" lon="-3.703">
        <ele>162</ele>
        <time>2021-09-12T07:40:27Z</time>
      </trkpt>
      <trkpt lat="48.38325" lon="-3.70307">
        <ele>162</ele>
        <time>2021-09-12T07:40:28Z</time>
      </trkpt>
      <trkpt lat="48.38323" lon="-3.70315">
        <ele>162</ele>
        <time>2021-09-12T07:40:29Z</time>
      </trkpt>
      <trkpt lat="48.38321" lon="-3.70324">
        <ele>162</ele>
        <time>2021-09-12T07:40:30Z</time>
      </trkpt>
      <trkpt lat="48.38319" lon="-3.70331">
        <ele>161.60000610352</ele>
        <time>2021-09-12T07:40:31Z</time>
      </trkpt>
      <trkpt lat="48.38317" lon="-3.70339">
        <ele>161.39999389648</ele>
        <time>2021-09-12T07:40:32Z</time>
      </trkpt>
      <trkpt lat="48.38316" lon="-3.70345">
        <ele>161.39999389648</ele>
        <time>2021-09-12T07:40:33Z</time>
      </trkpt>
      <trkpt lat="48.38313" lon="-3.70352">
        <ele>161.19999694824</ele>
        <time>2021-09-12T07:40:34Z</time>
      </trkpt>
      <trkpt lat="48.38311" lon="-3.70361">
        <ele>161.19999694824</ele>
        <time>2021-09-12T07:40:35Z</time>
      </trkpt>
      <trkpt lat="48.3831" lon="-3.70369">
        <ele>161</ele>
        <time>2021-09-12T07:40:36Z</time>
      </trkpt>
      <trkpt lat="48.38308" lon="-3.70376">
        <ele>161</ele>
        <time>2021-09-12T07:40:37Z</time>
      </trkpt>
      <trkpt lat="48.38306" lon="-3.70383">
        <ele>160.80000305176</ele>
        <time>2021-09-12T07:40:38Z</time>
      </trkpt>
      <trkpt lat="48.38304" lon="-3.7039">
        <ele>160.80000305176</ele>
        <time>2021-09-12T07:40:39Z</time>
      </trkpt>
      <trkpt lat="48.38302" lon="-3.70399">
        <ele>160.80000305176</ele>
        <time>2021-09-12T07:40:40Z</time>
      </trkpt>
      <trkpt lat="48.383" lon="-3.70407">
        <ele>160.80000305176</ele>
        <time>2021-09-12T07:40:41Z</time>
      </trkpt>
      <trkpt lat="48.38299" lon="-3.70414">
        <ele>160.80000305176</ele>
        <time>2021-09-12T07:40:42Z</time>
      </trkpt>
      <trkpt lat="48.38297" lon="-3.7042">
        <ele>160.60000610352</ele>
        <time>2021-09-12T07:40:43Z</time>
      </trkpt>
      <trkpt lat="48.38296" lon="-3.70426">
        <ele>160.60000610352</ele>
        <time>2021-09-12T07:40:44Z</time>
      </trkpt>
      <trkpt lat="48.38294" lon="-3.7043">
        <ele>160.39999389648</ele>
        <time>2021-09-12T07:40:45Z</time>
      </trkpt>
      <trkpt lat="48.3829" lon="-3.70431">
        <ele>160.39999389648</ele>
        <time>2021-09-12T07:40:46Z</time>
      </trkpt>
      <trkpt lat="48.38287" lon="-3.70431">
        <ele>160.19999694824</ele>
        <time>2021-09-12T07:40:47Z</time>
      </trkpt>
      <trkpt lat="48.38283" lon="-3.70431">
        <ele>160</ele>
        <time>2021-09-12T07:40:48Z</time>
      </trkpt>
      <trkpt lat="48.3828" lon="-3.70432">
        <ele>160</ele>
        <time>2021-09-12T07:40:49Z</time>
      </trkpt>
      <trkpt lat="48.38276" lon="-3.70435">
        <ele>160</ele>
        <time>2021-09-12T07:40:50Z</time>
      </trkpt>
      <trkpt lat="48.38274" lon="-3.70438">
        <ele>160</ele>
        <time>2021-09-12T07:40:51Z</time>
      </trkpt>
      <trkpt lat="48.38272" lon="-3.70439">
        <ele>160</ele>
        <time>2021-09-12T07:40:52Z</time>
      </trkpt>
      <trkpt lat="48.3827" lon="-3.7044">
        <ele>159.80000305176</ele>
        <time>2021-09-12T07:40:53Z</time>
      </trkpt>
      <trkpt lat="48.38267" lon="-3.7044">
        <ele>159.80000305176</ele>
        <time>2021-09-12T07:40:54Z</time>
      </trkpt>
      <trkpt lat="48.38265" lon="-3.70439">
        <ele>159.39999389648</ele>
        <time>2021-09-12T07:40:55Z</time>
      </trkpt>
      <trkpt lat="48.38264" lon="-3.70437">
        <ele>159</ele>
        <time>2021-09-12T07:40:56Z</time>
      </trkpt>
      <trkpt lat="48.38263" lon="-3.70436">
        <ele>159</ele>
        <time>2021-09-12T07:40:57Z</time>
      </trkpt>
      <trkpt lat="48.38261" lon="-3.70434">
        <ele>158.60000610352</ele>
        <time>2021-09-12T07:40:58Z</time>
      </trkpt>
      <trkpt lat="48.38259" lon="-3.70434">
        <ele>158.60000610352</ele>
        <time>2021-09-12T07:40:59Z</time>
      </trkpt>
      <trkpt lat="48.38258" lon="-3.70436">
        <ele>158.60000610352</ele>
        <time>2021-09-12T07:41:00Z</time>
      </trkpt>
      <trkpt lat="48.38257" lon="-3.70439">
        <ele>158.60000610352</ele>
        <time>2021-09-12T07:41:01Z</time>
      </trkpt>
      <trkpt lat="48.38258" lon="-3.70442">
        <ele>158.60000610352</ele>
        <time>2021-09-12T07:41:02Z</time>
      </trkpt>
      <trkpt lat="48.38259" lon="-3.70445">
        <ele>158.60000610352</ele>
        <time>2021-09-12T07:41:03Z</time>
      </trkpt>
      <trkpt lat="48.38259" lon="-3.70448">
        <ele>158.60000610352</ele>
        <time>2021-09-12T07:41:04Z</time>
      </trkpt>
      <trkpt lat="48.38259" lon="-3.7045">
        <ele>158.60000610352</ele>
        <time>2021-09-12T07:41:05Z</time>
      </trkpt>
      <trkpt lat="48.38259" lon="-3.70453">
        <ele>158.80000305176</ele>
        <time>2021-09-12T07:41:06Z</time>
      </trkpt>
      <trkpt lat="48.3826" lon="-3.70456">
        <ele>159</ele>
        <time>2021-09-12T07:41:07Z</time>
      </trkpt>
      <trkpt lat="48.3826" lon="-3.70458">
        <ele>159</ele>
        <time>2021-09-12T07:41:08Z</time>
      </trkpt>
      <trkpt lat="48.38259" lon="-3.7046">
        <ele>159.19999694824</ele>
        <time>2021-09-12T07:41:09Z</time>
      </trkpt>
      <trkpt lat="48.38259" lon="-3.70461">
        <ele>159.19999694824</ele>
        <time>2021-09-12T07:41:10Z</time>
      </trkpt>
      <trkpt lat="48.38258" lon="-3.70462">
        <ele>159.19999694824</ele>
        <time>2021-09-12T07:41:11Z</time>
      </trkpt>
      <trkpt lat="48.38256" lon="-3.70463">
        <ele>159.39999389648</ele>
        <time>2021-09-12T07:41:12Z</time>
      </trkpt>
      <trkpt lat="48.38253" lon="-3.70463">
        <ele>159.39999389648</ele>
        <time>2021-09-12T07:41:13Z</time>
      </trkpt>
      <trkpt lat="48.38251" lon="-3.70461">
        <ele>159.39999389648</ele>
        <time>2021-09-12T07:41:14Z</time>
      </trkpt>
      <trkpt lat="48.38247" lon="-3.70459">
        <ele>159.19999694824</ele>
        <time>2021-09-12T07:41:15Z</time>
      </trkpt>
      <trkpt lat="48.38242" lon="-3.7046">
        <ele>159</ele>
        <time>2021-09-12T07:41:16Z</time>
      </trkpt>
      <trkpt lat="48.38237" lon="-3.70464">
        <ele>159</ele>
        <time>2021-09-12T07:41:17Z</time>
      </trkpt>
      <trkpt lat="48.38235" lon="-3.70468">
        <ele>159</ele>
        <time>2021-09-12T07:41:18Z</time>
      </trkpt>
      <trkpt lat="48.38233" lon="-3.70473">
        <ele>159</ele>
        <time>2021-09-12T07:41:19Z</time>
      </trkpt>
      <trkpt lat="48.3823" lon="-3.70477">
        <ele>159.39999389648</ele>
        <time>2021-09-12T07:41:20Z</time>
      </trkpt>
      <trkpt lat="48.38229" lon="-3.70481">
        <ele>159.39999389648</ele>
        <time>2021-09-12T07:41:21Z</time>
      </trkpt>
      <trkpt lat="48.38229" lon="-3.70485">
        <ele>159.60000610352</ele>
        <time>2021-09-12T07:41:22Z</time>
      </trkpt>
      <trkpt lat="48.38228" lon="-3.70488">
        <ele>159.60000610352</ele>
        <time>2021-09-12T07:41:23Z</time>
      </trkpt>
      <trkpt lat="48.38228" lon="-3.70492">
        <ele>159.80000305176</ele>
        <time>2021-09-12T07:41:24Z</time>
      </trkpt>
      <trkpt lat="48.38228" lon="-3.70493">
        <ele>160.19999694824</ele>
        <time>2021-09-12T07:41:25Z</time>
      </trkpt>
      <trkpt lat="48.38228" lon="-3.70495">
        <ele>160.19999694824</ele>
        <time>2021-09-12T07:41:26Z</time>
      </trkpt>
      <trkpt lat="48.38229" lon="-3.70499">
        <ele>160.39999389648</ele>
        <time>2021-09-12T07:41:27Z</time>
      </trkpt>
      <trkpt lat="48.38229" lon="-3.70501">
        <ele>160.60000610352</ele>
        <time>2021-09-12T07:41:28Z</time>
      </trkpt>
      <trkpt lat="48.38228" lon="-3.70504">
        <ele>160.60000610352</ele>
        <time>2021-09-12T07:41:29Z</time>
      </trkpt>
      <trkpt lat="48.38227" lon="-3.70507">
        <ele>160.60000610352</ele>
        <time>2021-09-12T07:41:30Z</time>
      </trkpt>
      <trkpt lat="48.38226" lon="-3.70513">
        <ele>160.60000610352</ele>
        <time>2021-09-12T07:41:31Z</time>
      </trkpt>
      <trkpt lat="48.38224" lon="-3.70519">
        <ele>160.60000610352</ele>
        <time>2021-09-12T07:41:32Z</time>
      </trkpt>
      <trkpt lat="48.38223" lon="-3.70524">
        <ele>160.39999389648</ele>
        <time>2021-09-12T07:41:33Z</time>
      </trkpt>
      <trkpt lat="48.38222" lon="-3.70528">
        <ele>160.39999389648</ele>
        <time>2021-09-12T07:41:34Z</time>
      </trkpt>
      <trkpt lat="48.38222" lon="-3.70531">
        <ele>160.19999694824</ele>
        <time>2021-09-12T07:41:35Z</time>
      </trkpt>
      <trkpt lat="48.38218" lon="-3.70534">
        <ele>160.19999694824</ele>
        <time>2021-09-12T07:41:36Z</time>
      </trkpt>
      <trkpt lat="48.38216" lon="-3.7054">
        <ele>160.19999694824</ele>
        <time>2021-09-12T07:41:37Z</time>
      </trkpt>
      <trkpt lat="48.38214" lon="-3.70547">
        <ele>160.19999694824</ele>
        <time>2021-09-12T07:41:38Z</time>
      </trkpt>
      <trkpt lat="48.38214" lon="-3.70554">
        <ele>160.19999694824</ele>
        <time>2021-09-12T07:41:39Z</time>
      </trkpt>
      <trkpt lat="48.38214" lon="-3.7056">
        <ele>160.19999694824</ele>
        <time>2021-09-12T07:41:40Z</time>
      </trkpt>
      <trkpt lat="48.38214" lon="-3.70563">
        <ele>160.19999694824</ele>
        <time>2021-09-12T07:41:41Z</time>
      </trkpt>
      <trkpt lat="48.38216" lon="-3.70568">
        <ele>160.19999694824</ele>
        <time>2021-09-12T07:41:42Z</time>
      </trkpt>
      <trkpt lat="48.38216" lon="-3.70572">
        <ele>160.39999389648</ele>
        <time>2021-09-12T07:41:43Z</time>
      </trkpt>
      <trkpt lat="48.38216" lon="-3.70575">
        <ele>160.39999389648</ele>
        <time>2021-09-12T07:41:44Z</time>
      </trkpt>
      <trkpt lat="48.38215" lon="-3.70581">
        <ele>160.60000610352</ele>
        <time>2021-09-12T07:41:45Z</time>
      </trkpt>
      <trkpt lat="48.38214" lon="-3.70587">
        <ele>160.60000610352</ele>
        <time>2021-09-12T07:41:46Z</time>
      </trkpt>
      <trkpt lat="48.38212" lon="-3.7059">
        <ele>160.60000610352</ele>
        <time>2021-09-12T07:41:47Z</time>
      </trkpt>
      <trkpt lat="48.38209" lon="-3.70592">
        <ele>160.60000610352</ele>
        <time>2021-09-12T07:41:48Z</time>
      </trkpt>
      <trkpt lat="48.38206" lon="-3.70593">
        <ele>160.60000610352</ele>
        <time>2021-09-12T07:41:49Z</time>
      </trkpt>
      <trkpt lat="48.38205" lon="-3.70597">
        <ele>160.80000305176</ele>
        <time>2021-09-12T07:41:50Z</time>
      </trkpt>
      <trkpt lat="48.38203" lon="-3.70601">
        <ele>160.80000305176</ele>
        <time>2021-09-12T07:41:51Z</time>
      </trkpt>
      <trkpt lat="48.38203" lon="-3.70604">
        <ele>160.80000305176</ele>
        <time>2021-09-12T07:41:52Z</time>
      </trkpt>
      <trkpt lat="48.38203" lon="-3.70608">
        <ele>161</ele>
        <time>2021-09-12T07:41:53Z</time>
      </trkpt>
      <trkpt lat="48.38204" lon="-3.70613">
        <ele>161.39999389648</ele>
        <time>2021-09-12T07:41:54Z</time>
      </trkpt>
      <trkpt lat="48.38204" lon="-3.70616">
        <ele>161.39999389648</ele>
        <time>2021-09-12T07:41:55Z</time>
      </trkpt>
      <trkpt lat="48.38203" lon="-3.70619">
        <ele>161.60000610352</ele>
        <time>2021-09-12T07:41:56Z</time>
      </trkpt>
      <trkpt lat="48.38203" lon="-3.70623">
        <ele>161.60000610352</ele>
        <time>2021-09-12T07:41:57Z</time>
      </trkpt>
      <trkpt lat="48.38203" lon="-3.70626">
        <ele>161.60000610352</ele>
        <time>2021-09-12T07:41:58Z</time>
      </trkpt>
      <trkpt lat="48.38203" lon="-3.70629">
        <ele>162.19999694824</ele>
        <time>2021-09-12T07:41:59Z</time>
      </trkpt>
      <trkpt lat="48.38203" lon="-3.70632">
        <ele>162.19999694824</ele>
        <time>2021-09-12T07:42:00Z</time>
      </trkpt>
      <trkpt lat="48.38203" lon="-3.70634">
        <ele>162.19999694824</ele>
        <time>2021-09-12T07:42:01Z</time>
      </trkpt>
      <trkpt lat="48.38203" lon="-3.70637">
        <ele>162.80000305176</ele>
        <time>2021-09-12T07:42:02Z</time>
      </trkpt>
      <trkpt lat="48.38202" lon="-3.70641">
        <ele>162.80000305176</ele>
        <time>2021-09-12T07:42:03Z</time>
      </trkpt>
      <trkpt lat="48.38201" lon="-3.70644">
        <ele>163</ele>
        <time>2021-09-12T07:42:04Z</time>
      </trkpt>
      <trkpt lat="48.382" lon="-3.70647">
        <ele>163</ele>
        <time>2021-09-12T07:42:05Z</time>
      </trkpt>
      <trkpt lat="48.38198" lon="-3.7065">
        <ele>163.60000610352</ele>
        <time>2021-09-12T07:42:06Z</time>
      </trkpt>
      <trkpt lat="48.38198" lon="-3.70654">
        <ele>163.80000305176</ele>
        <time>2021-09-12T07:42:07Z</time>
      </trkpt>
      <trkpt lat="48.38197" lon="-3.70656">
        <ele>163.80000305176</ele>
        <time>2021-09-12T07:42:08Z</time>
      </trkpt>
      <trkpt lat="48.38196" lon="-3.7066">
        <ele>164</ele>
        <time>2021-09-12T07:42:09Z</time>
      </trkpt>
      <trkpt lat="48.38196" lon="-3.70662">
        <ele>164</ele>
        <time>2021-09-12T07:42:10Z</time>
      </trkpt>
      <trkpt lat="48.38196" lon="-3.70665">
        <ele>164.19999694824</ele>
        <time>2021-09-12T07:42:11Z</time>
      </trkpt>
      <trkpt lat="48.38196" lon="-3.70667">
        <ele>164.19999694824</ele>
        <time>2021-09-12T07:42:12Z</time>
      </trkpt>
      <trkpt lat="48.38196" lon="-3.70669">
        <ele>164.39999389648</ele>
        <time>2021-09-12T07:42:13Z</time>
      </trkpt>
      <trkpt lat="48.38196" lon="-3.70672">
        <ele>164.60000610352</ele>
        <time>2021-09-12T07:42:14Z</time>
      </trkpt>
      <trkpt lat="48.38195" lon="-3.70675">
        <ele>164.60000610352</ele>
        <time>2021-09-12T07:42:15Z</time>
      </trkpt>
      <trkpt lat="48.38195" lon="-3.70679">
        <ele>164.60000610352</ele>
        <time>2021-09-12T07:42:16Z</time>
      </trkpt>
      <trkpt lat="48.38194" lon="-3.70683">
        <ele>165</ele>
        <time>2021-09-12T07:42:17Z</time>
      </trkpt>
      <trkpt lat="48.38194" lon="-3.70685">
        <ele>165</ele>
        <time>2021-09-12T07:42:18Z</time>
      </trkpt>
      <trkpt lat="48.38194" lon="-3.70688">
        <ele>165</ele>
        <time>2021-09-12T07:42:19Z</time>
      </trkpt>
      <trkpt lat="48.38194" lon="-3.70691">
        <ele>165.19999694824</ele>
        <time>2021-09-12T07:42:20Z</time>
      </trkpt>
      <trkpt lat="48.38194" lon="-3.70694">
        <ele>165.19999694824</ele>
        <time>2021-09-12T07:42:21Z</time>
      </trkpt>
      <trkpt lat="48.38194" lon="-3.70697">
        <ele>165.60000610352</ele>
        <time>2021-09-12T07:42:22Z</time>
      </trkpt>
      <trkpt lat="48.38193" lon="-3.707">
        <ele>166</ele>
        <time>2021-09-12T07:42:23Z</time>
      </trkpt>
      <trkpt lat="48.38193" lon="-3.70704">
        <ele>166</ele>
        <time>2021-09-12T07:42:24Z</time>
      </trkpt>
      <trkpt lat="48.38194" lon="-3.70707">
        <ele>166</ele>
        <time>2021-09-12T07:42:25Z</time>
      </trkpt>
      <trkpt lat="48.38193" lon="-3.70711">
        <ele>166</ele>
        <time>2021-09-12T07:42:26Z</time>
      </trkpt>
      <trkpt lat="48.38192" lon="-3.70714">
        <ele>166.39999389648</ele>
        <time>2021-09-12T07:42:27Z</time>
      </trkpt>
      <trkpt lat="48.3819" lon="-3.70717">
        <ele>166.80000305176</ele>
        <time>2021-09-12T07:42:28Z</time>
      </trkpt>
      <trkpt lat="48.38188" lon="-3.70721">
        <ele>166.80000305176</ele>
        <time>2021-09-12T07:42:29Z</time>
      </trkpt>
      <trkpt lat="48.38188" lon="-3.70725">
        <ele>166.80000305176</ele>
        <time>2021-09-12T07:42:30Z</time>
      </trkpt>
      <trkpt lat="48.38188" lon="-3.70728">
        <ele>167</ele>
        <time>2021-09-12T07:42:31Z</time>
      </trkpt>
      <trkpt lat="48.3819" lon="-3.70731">
        <ele>167.39999389648</ele>
        <time>2021-09-12T07:42:32Z</time>
      </trkpt>
      <trkpt lat="48.3819" lon="-3.70734">
        <ele>167.39999389648</ele>
        <time>2021-09-12T07:42:33Z</time>
      </trkpt>
      <trkpt lat="48.38191" lon="-3.70738">
        <ele>167.60000610352</ele>
        <time>2021-09-12T07:42:34Z</time>
      </trkpt>
      <trkpt lat="48.38191" lon="-3.70739">
        <ele>167.80000305176</ele>
        <time>2021-09-12T07:42:35Z</time>
      </trkpt>
      <trkpt lat="48.38191" lon="-3.70742">
        <ele>167.80000305176</ele>
        <time>2021-09-12T07:42:36Z</time>
      </trkpt>
      <trkpt lat="48.3819" lon="-3.70744">
        <ele>168.19999694824</ele>
        <time>2021-09-12T07:42:37Z</time>
      </trkpt>
      <trkpt lat="48.3819" lon="-3.70747">
        <ele>168.60000610352</ele>
        <time>2021-09-12T07:42:38Z</time>
      </trkpt>
      <trkpt lat="48.3819" lon="-3.70749">
        <ele>168.80000305176</ele>
        <time>2021-09-12T07:42:39Z</time>
      </trkpt>
      <trkpt lat="48.38191" lon="-3.7075">
        <ele>168.80000305176</ele>
        <time>2021-09-12T07:42:40Z</time>
      </trkpt>
      <trkpt lat="48.38191" lon="-3.70752">
        <ele>168.80000305176</ele>
        <time>2021-09-12T07:42:41Z</time>
      </trkpt>
      <trkpt lat="48.38191" lon="-3.70754">
        <ele>169</ele>
        <time>2021-09-12T07:42:42Z</time>
      </trkpt>
      <trkpt lat="48.38191" lon="-3.70756">
        <ele>169.19999694824</ele>
        <time>2021-09-12T07:42:43Z</time>
      </trkpt>
      <trkpt lat="48.38191" lon="-3.70759">
        <ele>169.39999389648</ele>
        <time>2021-09-12T07:42:44Z</time>
      </trkpt>
      <trkpt lat="48.38192" lon="-3.70762">
        <ele>169.60000610352</ele>
        <time>2021-09-12T07:42:45Z</time>
      </trkpt>
      <trkpt lat="48.38192" lon="-3.70764">
        <ele>169.60000610352</ele>
        <time>2021-09-12T07:42:46Z</time>
      </trkpt>
      <trkpt lat="48.38191" lon="-3.70766">
        <ele>169.80000305176</ele>
        <time>2021-09-12T07:42:47Z</time>
      </trkpt>
      <trkpt lat="48.3819" lon="-3.70769">
        <ele>170</ele>
        <time>2021-09-12T07:42:48Z</time>
      </trkpt>
      <trkpt lat="48.38189" lon="-3.70771">
        <ele>170</ele>
        <time>2021-09-12T07:42:49Z</time>
      </trkpt>
      <trkpt lat="48.38188" lon="-3.70774">
        <ele>170.19999694824</ele>
        <time>2021-09-12T07:42:50Z</time>
      </trkpt>
      <trkpt lat="48.38186" lon="-3.70776">
        <ele>170.39999389648</ele>
        <time>2021-09-12T07:42:51Z</time>
      </trkpt>
      <trkpt lat="48.38184" lon="-3.70779">
        <ele>170.39999389648</ele>
        <time>2021-09-12T07:42:52Z</time>
      </trkpt>
      <trkpt lat="48.38183" lon="-3.70782">
        <ele>170.39999389648</ele>
        <time>2021-09-12T07:42:53Z</time>
      </trkpt>
      <trkpt lat="48.38183" lon="-3.70786">
        <ele>170.60000610352</ele>
        <time>2021-09-12T07:42:54Z</time>
      </trkpt>
      <trkpt lat="48.38183" lon="-3.70789">
        <ele>170.80000305176</ele>
        <time>2021-09-12T07:42:55Z</time>
      </trkpt>
      <trkpt lat="48.38182" lon="-3.70791">
        <ele>171.19999694824</ele>
        <time>2021-09-12T07:42:56Z</time>
      </trkpt>
      <trkpt lat="48.38183" lon="-3.70794">
        <ele>171.39999389648</ele>
        <time>2021-09-12T07:42:57Z</time>
      </trkpt>
      <trkpt lat="48.38184" lon="-3.70797">
        <ele>171.39999389648</ele>
        <time>2021-09-12T07:42:58Z</time>
      </trkpt>
      <trkpt lat="48.38184" lon="-3.708">
        <ele>171.39999389648</ele>
        <time>2021-09-12T07:42:59Z</time>
      </trkpt>
      <trkpt lat="48.38185" lon="-3.70805">
        <ele>171.60000610352</ele>
        <time>2021-09-12T07:43:00Z</time>
      </trkpt>
      <trkpt lat="48.38185" lon="-3.70807">
        <ele>171.60000610352</ele>
        <time>2021-09-12T07:43:01Z</time>
      </trkpt>
      <trkpt lat="48.38184" lon="-3.70811">
        <ele>171.60000610352</ele>
        <time>2021-09-12T07:43:02Z</time>
      </trkpt>
      <trkpt lat="48.38183" lon="-3.70815">
        <ele>171.60000610352</ele>
        <time>2021-09-12T07:43:03Z</time>
      </trkpt>
      <trkpt lat="48.38182" lon="-3.70818">
        <ele>171.80000305176</ele>
        <time>2021-09-12T07:43:04Z</time>
      </trkpt>
      <trkpt lat="48.38182" lon="-3.70822">
        <ele>172</ele>
        <time>2021-09-12T07:43:05Z</time>
      </trkpt>
      <trkpt lat="48.38182" lon="-3.70825">
        <ele>171.80000305176</ele>
        <time>2021-09-12T07:43:06Z</time>
      </trkpt>
      <trkpt lat="48.38181" lon="-3.70828">
        <ele>171.80000305176</ele>
        <time>2021-09-12T07:43:07Z</time>
      </trkpt>
      <trkpt lat="48.38181" lon="-3.70831">
        <ele>171.80000305176</ele>
        <time>2021-09-12T07:43:08Z</time>
      </trkpt>
      <trkpt lat="48.3818" lon="-3.70836">
        <ele>171.80000305176</ele>
        <time>2021-09-12T07:43:09Z</time>
      </trkpt>
      <trkpt lat="48.3818" lon="-3.7084">
        <ele>171.80000305176</ele>
        <time>2021-09-12T07:43:10Z</time>
      </trkpt>
      <trkpt lat="48.3818" lon="-3.70845">
        <ele>171.80000305176</ele>
        <time>2021-09-12T07:43:11Z</time>
      </trkpt>
      <trkpt lat="48.3818" lon="-3.70849">
        <ele>171.60000610352</ele>
        <time>2021-09-12T07:43:12Z</time>
      </trkpt>
      <trkpt lat="48.38179" lon="-3.70854">
        <ele>171.39999389648</ele>
        <time>2021-09-12T07:43:13Z</time>
      </trkpt>
      <trkpt lat="48.38177" lon="-3.70858">
        <ele>171.39999389648</ele>
        <time>2021-09-12T07:43:14Z</time>
      </trkpt>
      <trkpt lat="48.38176" lon="-3.70861">
        <ele>171.39999389648</ele>
        <time>2021-09-12T07:43:15Z</time>
      </trkpt>
      <trkpt lat="48.38174" lon="-3.70866">
        <ele>171.19999694824</ele>
        <time>2021-09-12T07:43:16Z</time>
      </trkpt>
      <trkpt lat="48.38173" lon="-3.7087">
        <ele>171.19999694824</ele>
        <time>2021-09-12T07:43:17Z</time>
      </trkpt>
      <trkpt lat="48.38172" lon="-3.70874">
        <ele>171</ele>
        <time>2021-09-12T07:43:18Z</time>
      </trkpt>
      <trkpt lat="48.3817" lon="-3.70879">
        <ele>171</ele>
        <time>2021-09-12T07:43:19Z</time>
      </trkpt>
      <trkpt lat="48.3817" lon="-3.70882">
        <ele>170.80000305176</ele>
        <time>2021-09-12T07:43:20Z</time>
      </trkpt>
      <trkpt lat="48.38168" lon="-3.70886">
        <ele>170.80000305176</ele>
        <time>2021-09-12T07:43:21Z</time>
      </trkpt>
      <trkpt lat="48.38167" lon="-3.7089">
        <ele>170.60000610352</ele>
        <time>2021-09-12T07:43:22Z</time>
      </trkpt>
      <trkpt lat="48.38165" lon="-3.70892">
        <ele>170.39999389648</ele>
        <time>2021-09-12T07:43:23Z</time>
      </trkpt>
      <trkpt lat="48.38163" lon="-3.70895">
        <ele>170.39999389648</ele>
        <time>2021-09-12T07:43:24Z</time>
      </trkpt>
      <trkpt lat="48.38162" lon="-3.70898">
        <ele>170.19999694824</ele>
        <time>2021-09-12T07:43:25Z</time>
      </trkpt>
      <trkpt lat="48.3816" lon="-3.70901">
        <ele>170</ele>
        <time>2021-09-12T07:43:26Z</time>
      </trkpt>
      <trkpt lat="48.38158" lon="-3.70905">
        <ele>170</ele>
        <time>2021-09-12T07:43:27Z</time>
      </trkpt>
      <trkpt lat="48.38158" lon="-3.70909">
        <ele>170</ele>
        <time>2021-09-12T07:43:28Z</time>
      </trkpt>
      <trkpt lat="48.38157" lon="-3.70911">
        <ele>170</ele>
        <time>2021-09-12T07:43:29Z</time>
      </trkpt>
      <trkpt lat="48.38157" lon="-3.70915">
        <ele>170.19999694824</ele>
        <time>2021-09-12T07:43:30Z</time>
      </trkpt>
      <trkpt lat="48.38157" lon="-3.70918">
        <ele>170.19999694824</ele>
        <time>2021-09-12T07:43:31Z</time>
      </trkpt>
      <trkpt lat="48.38158" lon="-3.70921">
        <ele>170.19999694824</ele>
        <time>2021-09-12T07:43:32Z</time>
      </trkpt>
      <trkpt lat="48.38159" lon="-3.70924">
        <ele>170.80000305176</ele>
        <time>2021-09-12T07:43:33Z</time>
      </trkpt>
      <trkpt lat="48.38159" lon="-3.70926">
        <ele>170.80000305176</ele>
        <time>2021-09-12T07:43:34Z</time>
      </trkpt>
      <trkpt lat="48.38158" lon="-3.70929">
        <ele>170.80000305176</ele>
        <time>2021-09-12T07:43:35Z</time>
      </trkpt>
      <trkpt lat="48.38158" lon="-3.70933">
        <ele>170.80000305176</ele>
        <time>2021-09-12T07:43:36Z</time>
      </trkpt>
      <trkpt lat="48.38158" lon="-3.70937">
        <ele>171</ele>
        <time>2021-09-12T07:43:37Z</time>
      </trkpt>
      <trkpt lat="48.38158" lon="-3.7094">
        <ele>171.19999694824</ele>
        <time>2021-09-12T07:43:38Z</time>
      </trkpt>
      <trkpt lat="48.38157" lon="-3.70944">
        <ele>171.19999694824</ele>
        <time>2021-09-12T07:43:39Z</time>
      </trkpt>
      <trkpt lat="48.38157" lon="-3.70947">
        <ele>171.19999694824</ele>
        <time>2021-09-12T07:43:40Z</time>
      </trkpt>
      <trkpt lat="48.38157" lon="-3.7095">
        <ele>171.39999389648</ele>
        <time>2021-09-12T07:43:41Z</time>
      </trkpt>
      <trkpt lat="48.38157" lon="-3.70952">
        <ele>171.39999389648</ele>
        <time>2021-09-12T07:43:42Z</time>
      </trkpt>
      <trkpt lat="48.38157" lon="-3.70955">
        <ele>171.39999389648</ele>
        <time>2021-09-12T07:43:43Z</time>
      </trkpt>
      <trkpt lat="48.38157" lon="-3.70958">
        <ele>171.39999389648</ele>
        <time>2021-09-12T07:43:44Z</time>
      </trkpt>
      <trkpt lat="48.38157" lon="-3.70962">
        <ele>171.39999389648</ele>
        <time>2021-09-12T07:43:45Z</time>
      </trkpt>
      <trkpt lat="48.38158" lon="-3.70966">
        <ele>171.60000610352</ele>
        <time>2021-09-12T07:43:46Z</time>
      </trkpt>
      <trkpt lat="48.38158" lon="-3.70969">
        <ele>171.80000305176</ele>
        <time>2021-09-12T07:43:47Z</time>
      </trkpt>
      <trkpt lat="48.38159" lon="-3.70974">
        <ele>171.80000305176</ele>
        <time>2021-09-12T07:43:48Z</time>
      </trkpt>
      <trkpt lat="48.38159" lon="-3.70977">
        <ele>171.80000305176</ele>
        <time>2021-09-12T07:43:49Z</time>
      </trkpt>
      <trkpt lat="48.3816" lon="-3.70982">
        <ele>172.19999694824</ele>
        <time>2021-09-12T07:43:50Z</time>
      </trkpt>
      <trkpt lat="48.38159" lon="-3.70987">
        <ele>172.19999694824</ele>
        <time>2021-09-12T07:43:51Z</time>
      </trkpt>
      <trkpt lat="48.38159" lon="-3.70992">
        <ele>172.19999694824</ele>
        <time>2021-09-12T07:43:52Z</time>
      </trkpt>
      <trkpt lat="48.38159" lon="-3.70996">
        <ele>172.39999389648</ele>
        <time>2021-09-12T07:43:53Z</time>
      </trkpt>
      <trkpt lat="48.38158" lon="-3.71002">
        <ele>172.60000610352</ele>
        <time>2021-09-12T07:43:54Z</time>
      </trkpt>
      <trkpt lat="48.38157" lon="-3.71007">
        <ele>172.60000610352</ele>
        <time>2021-09-12T07:43:55Z</time>
      </trkpt>
      <trkpt lat="48.38156" lon="-3.71014">
        <ele>172.60000610352</ele>
        <time>2021-09-12T07:43:56Z</time>
      </trkpt>
      <trkpt lat="48.38154" lon="-3.71019">
        <ele>172.80000305176</ele>
        <time>2021-09-12T07:43:57Z</time>
      </trkpt>
      <trkpt lat="48.38153" lon="-3.71023">
        <ele>172.80000305176</ele>
        <time>2021-09-12T07:43:58Z</time>
      </trkpt>
      <trkpt lat="48.38151" lon="-3.71028">
        <ele>172.80000305176</ele>
        <time>2021-09-12T07:43:59Z</time>
      </trkpt>
      <trkpt lat="48.3815" lon="-3.71032">
        <ele>172.80000305176</ele>
        <time>2021-09-12T07:44:00Z</time>
      </trkpt>
      <trkpt lat="48.38148" lon="-3.71036">
        <ele>172.80000305176</ele>
        <time>2021-09-12T07:44:01Z</time>
      </trkpt>
      <trkpt lat="48.38145" lon="-3.71037">
        <ele>172.80000305176</ele>
        <time>2021-09-12T07:44:02Z</time>
      </trkpt>
      <trkpt lat="48.38142" lon="-3.71037">
        <ele>172.80000305176</ele>
        <time>2021-09-12T07:44:03Z</time>
      </trkpt>
      <trkpt lat="48.38139" lon="-3.71036">
        <ele>172.39999389648</ele>
        <time>2021-09-12T07:44:04Z</time>
      </trkpt>
      <trkpt lat="48.38135" lon="-3.71032">
        <ele>172.19999694824</ele>
        <time>2021-09-12T07:44:05Z</time>
      </trkpt>
      <trkpt lat="48.38131" lon="-3.71029">
        <ele>172.19999694824</ele>
        <time>2021-09-12T07:44:06Z</time>
      </trkpt>
      <trkpt lat="48.38128" lon="-3.71026">
        <ele>172</ele>
        <time>2021-09-12T07:44:07Z</time>
      </trkpt>
      <trkpt lat="48.38126" lon="-3.71023">
        <ele>172</ele>
        <time>2021-09-12T07:44:08Z</time>
      </trkpt>
      <trkpt lat="48.38124" lon="-3.7102">
        <ele>172</ele>
        <time>2021-09-12T07:44:09Z</time>
      </trkpt>
      <trkpt lat="48.38122" lon="-3.71017">
        <ele>172</ele>
        <time>2021-09-12T07:44:10Z</time>
      </trkpt>
      <trkpt lat="48.3812" lon="-3.71015">
        <ele>172</ele>
        <time>2021-09-12T07:44:11Z</time>
      </trkpt>
      <trkpt lat="48.38118" lon="-3.71013">
        <ele>171.80000305176</ele>
        <time>2021-09-12T07:44:12Z</time>
      </trkpt>
      <trkpt lat="48.38116" lon="-3.71012">
        <ele>171.80000305176</ele>
        <time>2021-09-12T07:44:13Z</time>
      </trkpt>
      <trkpt lat="48.38113" lon="-3.71011">
        <ele>171.80000305176</ele>
        <time>2021-09-12T07:44:14Z</time>
      </trkpt>
      <trkpt lat="48.38109" lon="-3.71011">
        <ele>171.80000305176</ele>
        <time>2021-09-12T07:44:15Z</time>
      </trkpt>
      <trkpt lat="48.38107" lon="-3.71011">
        <ele>171.80000305176</ele>
        <time>2021-09-12T07:44:16Z</time>
      </trkpt>
      <trkpt lat="48.38104" lon="-3.71011">
        <ele>171.60000610352</ele>
        <time>2021-09-12T07:44:17Z</time>
      </trkpt>
      <trkpt lat="48.38101" lon="-3.71011">
        <ele>171.60000610352</ele>
        <time>2021-09-12T07:44:18Z</time>
      </trkpt>
      <trkpt lat="48.38098" lon="-3.71011">
        <ele>171.60000610352</ele>
        <time>2021-09-12T07:44:19Z</time>
      </trkpt>
      <trkpt lat="48.38095" lon="-3.71011">
        <ele>171.60000610352</ele>
        <time>2021-09-12T07:44:20Z</time>
      </trkpt>
      <trkpt lat="48.38092" lon="-3.71011">
        <ele>171.60000610352</ele>
        <time>2021-09-12T07:44:21Z</time>
      </trkpt>
      <trkpt lat="48.38089" lon="-3.71011">
        <ele>171.60000610352</ele>
        <time>2021-09-12T07:44:22Z</time>
      </trkpt>
      <trkpt lat="48.38087" lon="-3.71011">
        <ele>171.80000305176</ele>
        <time>2021-09-12T07:44:23Z</time>
      </trkpt>
      <trkpt lat="48.38084" lon="-3.71011">
        <ele>171.80000305176</ele>
        <time>2021-09-12T07:44:24Z</time>
      </trkpt>
      <trkpt lat="48.38082" lon="-3.71012">
        <ele>171.80000305176</ele>
        <time>2021-09-12T07:44:25Z</time>
      </trkpt>
      <trkpt lat="48.38079" lon="-3.71012">
        <ele>171.80000305176</ele>
        <time>2021-09-12T07:44:26Z</time>
      </trkpt>
      <trkpt lat="48.38077" lon="-3.71011">
        <ele>171.80000305176</ele>
        <time>2021-09-12T07:44:27Z</time>
      </trkpt>
      <trkpt lat="48.38076" lon="-3.7101">
        <ele>171.80000305176</ele>
        <time>2021-09-12T07:44:28Z</time>
      </trkpt>
      <trkpt lat="48.38074" lon="-3.71011">
        <ele>171.80000305176</ele>
        <time>2021-09-12T07:44:29Z</time>
      </trkpt>
      <trkpt lat="48.38072" lon="-3.7101">
        <ele>171.80000305176</ele>
        <time>2021-09-12T07:44:30Z</time>
      </trkpt>
      <trkpt lat="48.3807" lon="-3.71009">
        <ele>171.80000305176</ele>
        <time>2021-09-12T07:44:31Z</time>
      </trkpt>
      <trkpt lat="48.38068" lon="-3.71008">
        <ele>171.80000305176</ele>
        <time>2021-09-12T07:44:32Z</time>
      </trkpt>
      <trkpt lat="48.38062" lon="-3.71008">
        <ele>172</ele>
        <time>2021-09-12T07:44:33Z</time>
      </trkpt>
      <trkpt lat="48.38057" lon="-3.71007">
        <ele>172.19999694824</ele>
        <time>2021-09-12T07:44:34Z</time>
      </trkpt>
      <trkpt lat="48.38054" lon="-3.71006">
        <ele>172.39999389648</ele>
        <time>2021-09-12T07:44:35Z</time>
      </trkpt>
      <trkpt lat="48.38051" lon="-3.71006">
        <ele>172.39999389648</ele>
        <time>2021-09-12T07:44:36Z</time>
      </trkpt>
      <trkpt lat="48.38048" lon="-3.71005">
        <ele>172.39999389648</ele>
        <time>2021-09-12T07:44:37Z</time>
      </trkpt>
      <trkpt lat="48.38045" lon="-3.71006">
        <ele>172.60000610352</ele>
        <time>2021-09-12T07:44:38Z</time>
      </trkpt>
      <trkpt lat="48.38042" lon="-3.71007">
        <ele>172.60000610352</ele>
        <time>2021-09-12T07:44:39Z</time>
      </trkpt>
      <trkpt lat="48.38039" lon="-3.71006">
        <ele>172.60000610352</ele>
        <time>2021-09-12T07:44:40Z</time>
      </trkpt>
      <trkpt lat="48.38036" lon="-3.71007">
        <ele>172.60000610352</ele>
        <time>2021-09-12T07:44:41Z</time>
      </trkpt>
      <trkpt lat="48.38034" lon="-3.71008">
        <ele>172.80000305176</ele>
        <time>2021-09-12T07:44:42Z</time>
      </trkpt>
      <trkpt lat="48.3803" lon="-3.71009">
        <ele>172.80000305176</ele>
        <time>2021-09-12T07:44:43Z</time>
      </trkpt>
      <trkpt lat="48.38027" lon="-3.71009">
        <ele>173</ele>
        <time>2021-09-12T07:44:44Z</time>
      </trkpt>
      <trkpt lat="48.38023" lon="-3.71009">
        <ele>173</ele>
        <time>2021-09-12T07:44:45Z</time>
      </trkpt>
      <trkpt lat="48.38021" lon="-3.7101">
        <ele>173.19999694824</ele>
        <time>2021-09-12T07:44:46Z</time>
      </trkpt>
      <trkpt lat="48.38018" lon="-3.7101">
        <ele>173.39999389648</ele>
        <time>2021-09-12T07:44:47Z</time>
      </trkpt>
      <trkpt lat="48.38015" lon="-3.7101">
        <ele>173.39999389648</ele>
        <time>2021-09-12T07:44:48Z</time>
      </trkpt>
      <trkpt lat="48.38011" lon="-3.71011">
        <ele>173.60000610352</ele>
        <time>2021-09-12T07:44:49Z</time>
      </trkpt>
      <trkpt lat="48.38009" lon="-3.71011">
        <ele>173.80000305176</ele>
        <time>2021-09-12T07:44:50Z</time>
      </trkpt>
      <trkpt lat="48.38007" lon="-3.71011">
        <ele>174</ele>
        <time>2021-09-12T07:44:51Z</time>
      </trkpt>
      <trkpt lat="48.38005" lon="-3.71012">
        <ele>174.60000610352</ele>
        <time>2021-09-12T07:44:52Z</time>
      </trkpt>
      <trkpt lat="48.38002" lon="-3.71012">
        <ele>174.60000610352</ele>
        <time>2021-09-12T07:44:53Z</time>
      </trkpt>
      <trkpt lat="48.37999" lon="-3.71012">
        <ele>174.60000610352</ele>
        <time>2021-09-12T07:44:54Z</time>
      </trkpt>
      <trkpt lat="48.37997" lon="-3.71012">
        <ele>174.60000610352</ele>
        <time>2021-09-12T07:44:55Z</time>
      </trkpt>
      <trkpt lat="48.37995" lon="-3.71013">
        <ele>174.80000305176</ele>
        <time>2021-09-12T07:44:56Z</time>
      </trkpt>
      <trkpt lat="48.37991" lon="-3.71014">
        <ele>175</ele>
        <time>2021-09-12T07:44:57Z</time>
      </trkpt>
      <trkpt lat="48.37987" lon="-3.71014">
        <ele>175.39999389648</ele>
        <time>2021-09-12T07:44:58Z</time>
      </trkpt>
      <trkpt lat="48.37984" lon="-3.71015">
        <ele>175.39999389648</ele>
        <time>2021-09-12T07:44:59Z</time>
      </trkpt>
      <trkpt lat="48.37982" lon="-3.71015">
        <ele>175.39999389648</ele>
        <time>2021-09-12T07:45:00Z</time>
      </trkpt>
      <trkpt lat="48.37981" lon="-3.71015">
        <ele>175.39999389648</ele>
        <time>2021-09-12T07:45:01Z</time>
      </trkpt>
      <trkpt lat="48.37978" lon="-3.71016">
        <ele>175.60000610352</ele>
        <time>2021-09-12T07:45:02Z</time>
      </trkpt>
      <trkpt lat="48.37975" lon="-3.71017">
        <ele>175.80000305176</ele>
        <time>2021-09-12T07:45:03Z</time>
      </trkpt>
      <trkpt lat="48.37972" lon="-3.71018">
        <ele>175.80000305176</ele>
        <time>2021-09-12T07:45:04Z</time>
      </trkpt>
      <trkpt lat="48.37969" lon="-3.71018">
        <ele>176</ele>
        <time>2021-09-12T07:45:05Z</time>
      </trkpt>
      <trkpt lat="48.37965" lon="-3.71019">
        <ele>176</ele>
        <time>2021-09-12T07:45:06Z</time>
      </trkpt>
      <trkpt lat="48.37962" lon="-3.71019">
        <ele>176.19999694824</ele>
        <time>2021-09-12T07:45:07Z</time>
      </trkpt>
      <trkpt lat="48.37961" lon="-3.71019">
        <ele>176.39999389648</ele>
        <time>2021-09-12T07:45:08Z</time>
      </trkpt>
      <trkpt lat="48.37958" lon="-3.71019">
        <ele>176.60000610352</ele>
        <time>2021-09-12T07:45:09Z</time>
      </trkpt>
      <trkpt lat="48.37956" lon="-3.7102">
        <ele>176.60000610352</ele>
        <time>2021-09-12T07:45:10Z</time>
      </trkpt>
      <trkpt lat="48.37954" lon="-3.71021">
        <ele>176.80000305176</ele>
        <time>2021-09-12T07:45:11Z</time>
      </trkpt>
      <trkpt lat="48.37952" lon="-3.71023">
        <ele>176.80000305176</ele>
        <time>2021-09-12T07:45:12Z</time>
      </trkpt>
      <trkpt lat="48.37951" lon="-3.71023">
        <ele>176.80000305176</ele>
        <time>2021-09-12T07:45:13Z</time>
      </trkpt>
      <trkpt lat="48.3795" lon="-3.71023">
        <ele>177</ele>
        <time>2021-09-12T07:45:14Z</time>
      </trkpt>
      <trkpt lat="48.37949" lon="-3.71023">
        <ele>177</ele>
        <time>2021-09-12T07:45:15Z</time>
      </trkpt>
      <trkpt lat="48.37947" lon="-3.71022">
        <ele>177</ele>
        <time>2021-09-12T07:45:16Z</time>
      </trkpt>
      <trkpt lat="48.37945" lon="-3.71022">
        <ele>177</ele>
        <time>2021-09-12T07:45:17Z</time>
      </trkpt>
      <trkpt lat="48.37943" lon="-3.71021">
        <ele>177</ele>
        <time>2021-09-12T07:45:18Z</time>
      </trkpt>
      <trkpt lat="48.37943" lon="-3.71021">
        <ele>177</ele>
        <time>2021-09-12T07:45:19Z</time>
      </trkpt>
      <trkpt lat="48.37943" lon="-3.71022">
        <ele>177</ele>
        <time>2021-09-12T07:45:20Z</time>
      </trkpt>
      <trkpt lat="48.37945" lon="-3.71025">
        <ele>177</ele>
        <time>2021-09-12T07:45:21Z</time>
      </trkpt>
      <trkpt lat="48.37944" lon="-3.71027">
        <ele>177</ele>
        <time>2021-09-12T07:45:22Z</time>
      </trkpt>
      <trkpt lat="48.37943" lon="-3.71031">
        <ele>177</ele>
        <time>2021-09-12T07:45:23Z</time>
      </trkpt>
      <trkpt lat="48.37942" lon="-3.71034">
        <ele>177</ele>
        <time>2021-09-12T07:45:24Z</time>
      </trkpt>
      <trkpt lat="48.37942" lon="-3.71038">
        <ele>177.39999389648</ele>
        <time>2021-09-12T07:45:25Z</time>
      </trkpt>
      <trkpt lat="48.3794" lon="-3.71043">
        <ele>177.39999389648</ele>
        <time>2021-09-12T07:45:26Z</time>
      </trkpt>
      <trkpt lat="48.37941" lon="-3.71046">
        <ele>177.80000305176</ele>
        <time>2021-09-12T07:45:27Z</time>
      </trkpt>
      <trkpt lat="48.37938" lon="-3.71049">
        <ele>178.19999694824</ele>
        <time>2021-09-12T07:45:28Z</time>
      </trkpt>
      <trkpt lat="48.37936" lon="-3.71052">
        <ele>178.19999694824</ele>
        <time>2021-09-12T07:45:29Z</time>
      </trkpt>
      <trkpt lat="48.37935" lon="-3.71057">
        <ele>178.39999389648</ele>
        <time>2021-09-12T07:45:30Z</time>
      </trkpt>
      <trkpt lat="48.37932" lon="-3.71062">
        <ele>178.39999389648</ele>
        <time>2021-09-12T07:45:31Z</time>
      </trkpt>
      <trkpt lat="48.37931" lon="-3.71064">
        <ele>178.39999389648</ele>
        <time>2021-09-12T07:45:32Z</time>
      </trkpt>
      <trkpt lat="48.3793" lon="-3.71068">
        <ele>178.80000305176</ele>
        <time>2021-09-12T07:45:33Z</time>
      </trkpt>
      <trkpt lat="48.37928" lon="-3.71076">
        <ele>179</ele>
        <time>2021-09-12T07:45:34Z</time>
      </trkpt>
      <trkpt lat="48.37928" lon="-3.71083">
        <ele>179</ele>
        <time>2021-09-12T07:45:35Z</time>
      </trkpt>
      <trkpt lat="48.37926" lon="-3.71088">
        <ele>179</ele>
        <time>2021-09-12T07:45:36Z</time>
      </trkpt>
      <trkpt lat="48.37925" lon="-3.71092">
        <ele>179.19999694824</ele>
        <time>2021-09-12T07:45:37Z</time>
      </trkpt>
      <trkpt lat="48.37924" lon="-3.71095">
        <ele>179.19999694824</ele>
        <time>2021-09-12T07:45:38Z</time>
      </trkpt>
      <trkpt lat="48.37922" lon="-3.711">
        <ele>179.60000610352</ele>
        <time>2021-09-12T07:45:39Z</time>
      </trkpt>
      <trkpt lat="48.37921" lon="-3.71104">
        <ele>179.80000305176</ele>
        <time>2021-09-12T07:45:40Z</time>
      </trkpt>
      <trkpt lat="48.37919" lon="-3.71109">
        <ele>179.80000305176</ele>
        <time>2021-09-12T07:45:41Z</time>
      </trkpt>
      <trkpt lat="48.37917" lon="-3.71114">
        <ele>180.19999694824</ele>
        <time>2021-09-12T07:45:42Z</time>
      </trkpt>
      <trkpt lat="48.37915" lon="-3.71118">
        <ele>180.19999694824</ele>
        <time>2021-09-12T07:45:43Z</time>
      </trkpt>
      <trkpt lat="48.37914" lon="-3.71123">
        <ele>180.60000610352</ele>
        <time>2021-09-12T07:45:44Z</time>
      </trkpt>
      <trkpt lat="48.37911" lon="-3.71126">
        <ele>180.60000610352</ele>
        <time>2021-09-12T07:45:45Z</time>
      </trkpt>
      <trkpt lat="48.37908" lon="-3.7113">
        <ele>180.80000305176</ele>
        <time>2021-09-12T07:45:46Z</time>
      </trkpt>
      <trkpt lat="48.37906" lon="-3.71133">
        <ele>180.80000305176</ele>
        <time>2021-09-12T07:45:47Z</time>
      </trkpt>
      <trkpt lat="48.37904" lon="-3.71135">
        <ele>181</ele>
        <time>2021-09-12T07:45:48Z</time>
      </trkpt>
      <trkpt lat="48.37902" lon="-3.71139">
        <ele>181.19999694824</ele>
        <time>2021-09-12T07:45:49Z</time>
      </trkpt>
      <trkpt lat="48.37899" lon="-3.71144">
        <ele>181.19999694824</ele>
        <time>2021-09-12T07:45:50Z</time>
      </trkpt>
      <trkpt lat="48.37897" lon="-3.71151">
        <ele>181.39999389648</ele>
        <time>2021-09-12T07:45:51Z</time>
      </trkpt>
      <trkpt lat="48.37895" lon="-3.71155">
        <ele>181.39999389648</ele>
        <time>2021-09-12T07:45:52Z</time>
      </trkpt>
      <trkpt lat="48.37892" lon="-3.71159">
        <ele>181.39999389648</ele>
        <time>2021-09-12T07:45:53Z</time>
      </trkpt>
      <trkpt lat="48.37889" lon="-3.71162">
        <ele>181.60000610352</ele>
        <time>2021-09-12T07:45:54Z</time>
      </trkpt>
      <trkpt lat="48.37886" lon="-3.71166">
        <ele>181.60000610352</ele>
        <time>2021-09-12T07:45:55Z</time>
      </trkpt>
      <trkpt lat="48.37882" lon="-3.71172">
        <ele>181.80000305176</ele>
        <time>2021-09-12T07:45:56Z</time>
      </trkpt>
      <trkpt lat="48.37878" lon="-3.71176">
        <ele>182</ele>
        <time>2021-09-12T07:45:57Z</time>
      </trkpt>
      <trkpt lat="48.37876" lon="-3.71177">
        <ele>182</ele>
        <time>2021-09-12T07:45:58Z</time>
      </trkpt>
      <trkpt lat="48.37873" lon="-3.7118">
        <ele>182.19999694824</ele>
        <time>2021-09-12T07:45:59Z</time>
      </trkpt>
      <trkpt lat="48.37868" lon="-3.71183">
        <ele>182.19999694824</ele>
        <time>2021-09-12T07:46:00Z</time>
      </trkpt>
      <trkpt lat="48.37864" lon="-3.71185">
        <ele>182.60000610352</ele>
        <time>2021-09-12T07:46:01Z</time>
      </trkpt>
      <trkpt lat="48.3786" lon="-3.71185">
        <ele>182.80000305176</ele>
        <time>2021-09-12T07:46:02Z</time>
      </trkpt>
      <trkpt lat="48.37857" lon="-3.71186">
        <ele>182.80000305176</ele>
        <time>2021-09-12T07:46:03Z</time>
      </trkpt>
      <trkpt lat="48.37853" lon="-3.71187">
        <ele>183</ele>
        <time>2021-09-12T07:46:04Z</time>
      </trkpt>
      <trkpt lat="48.37848" lon="-3.71188">
        <ele>183.19999694824</ele>
        <time>2021-09-12T07:46:05Z</time>
      </trkpt>
      <trkpt lat="48.37845" lon="-3.71189">
        <ele>183.39999389648</ele>
        <time>2021-09-12T07:46:06Z</time>
      </trkpt>
      <trkpt lat="48.37841" lon="-3.7119">
        <ele>183.80000305176</ele>
        <time>2021-09-12T07:46:07Z</time>
      </trkpt>
      <trkpt lat="48.37837" lon="-3.71192">
        <ele>183.80000305176</ele>
        <time>2021-09-12T07:46:08Z</time>
      </trkpt>
      <trkpt lat="48.37833" lon="-3.71194">
        <ele>184</ele>
        <time>2021-09-12T07:46:09Z</time>
      </trkpt>
      <trkpt lat="48.37829" lon="-3.71196">
        <ele>184.19999694824</ele>
        <time>2021-09-12T07:46:10Z</time>
      </trkpt>
      <trkpt lat="48.37827" lon="-3.71197">
        <ele>184.39999389648</ele>
        <time>2021-09-12T07:46:11Z</time>
      </trkpt>
      <trkpt lat="48.37823" lon="-3.71199">
        <ele>184.39999389648</ele>
        <time>2021-09-12T07:46:12Z</time>
      </trkpt>
      <trkpt lat="48.3782" lon="-3.71201">
        <ele>184.60000610352</ele>
        <time>2021-09-12T07:46:13Z</time>
      </trkpt>
      <trkpt lat="48.37817" lon="-3.71204">
        <ele>184.60000610352</ele>
        <time>2021-09-12T07:46:14Z</time>
      </trkpt>
      <trkpt lat="48.37814" lon="-3.71207">
        <ele>184.60000610352</ele>
        <time>2021-09-12T07:46:15Z</time>
      </trkpt>
      <trkpt lat="48.37811" lon="-3.7121">
        <ele>184.80000305176</ele>
        <time>2021-09-12T07:46:16Z</time>
      </trkpt>
      <trkpt lat="48.37809" lon="-3.71212">
        <ele>184.80000305176</ele>
        <time>2021-09-12T07:46:17Z</time>
      </trkpt>
      <trkpt lat="48.37806" lon="-3.71214">
        <ele>185</ele>
        <time>2021-09-12T07:46:18Z</time>
      </trkpt>
      <trkpt lat="48.37802" lon="-3.71218">
        <ele>185</ele>
        <time>2021-09-12T07:46:19Z</time>
      </trkpt>
      <trkpt lat="48.37799" lon="-3.7122">
        <ele>185.39999389648</ele>
        <time>2021-09-12T07:46:20Z</time>
      </trkpt>
      <trkpt lat="48.37796" lon="-3.71223">
        <ele>185.60000610352</ele>
        <time>2021-09-12T07:46:21Z</time>
      </trkpt>
      <trkpt lat="48.37793" lon="-3.71226">
        <ele>185.60000610352</ele>
        <time>2021-09-12T07:46:22Z</time>
      </trkpt>
      <trkpt lat="48.3779" lon="-3.71229">
        <ele>185.60000610352</ele>
        <time>2021-09-12T07:46:23Z</time>
      </trkpt>
      <trkpt lat="48.37786" lon="-3.71232">
        <ele>185.60000610352</ele>
        <time>2021-09-12T07:46:24Z</time>
      </trkpt>
      <trkpt lat="48.37781" lon="-3.71234">
        <ele>186.19999694824</ele>
        <time>2021-09-12T07:46:25Z</time>
      </trkpt>
      <trkpt lat="48.37777" lon="-3.71236">
        <ele>186.19999694824</ele>
        <time>2021-09-12T07:46:26Z</time>
      </trkpt>
      <trkpt lat="48.37772" lon="-3.7124">
        <ele>186.39999389648</ele>
        <time>2021-09-12T07:46:27Z</time>
      </trkpt>
      <trkpt lat="48.37769" lon="-3.71245">
        <ele>186.39999389648</ele>
        <time>2021-09-12T07:46:28Z</time>
      </trkpt>
      <trkpt lat="48.37767" lon="-3.71248">
        <ele>186.60000610352</ele>
        <time>2021-09-12T07:46:29Z</time>
      </trkpt>
      <trkpt lat="48.37764" lon="-3.71252">
        <ele>186.80000305176</ele>
        <time>2021-09-12T07:46:30Z</time>
      </trkpt>
      <trkpt lat="48.37762" lon="-3.71256">
        <ele>186.80000305176</ele>
        <time>2021-09-12T07:46:31Z</time>
      </trkpt>
      <trkpt lat="48.37761" lon="-3.7126">
        <ele>187</ele>
        <time>2021-09-12T07:46:32Z</time>
      </trkpt>
      <trkpt lat="48.3776" lon="-3.71265">
        <ele>187</ele>
        <time>2021-09-12T07:46:33Z</time>
      </trkpt>
      <trkpt lat="48.37757" lon="-3.71271">
        <ele>187</ele>
        <time>2021-09-12T07:46:34Z</time>
      </trkpt>
      <trkpt lat="48.37755" lon="-3.71274">
        <ele>187</ele>
        <time>2021-09-12T07:46:35Z</time>
      </trkpt>
      <trkpt lat="48.3775" lon="-3.71278">
        <ele>187</ele>
        <time>2021-09-12T07:46:36Z</time>
      </trkpt>
      <trkpt lat="48.37746" lon="-3.71282">
        <ele>187</ele>
        <time>2021-09-12T07:46:37Z</time>
      </trkpt>
      <trkpt lat="48.37742" lon="-3.71285">
        <ele>186.80000305176</ele>
        <time>2021-09-12T07:46:38Z</time>
      </trkpt>
      <trkpt lat="48.37738" lon="-3.71288">
        <ele>186.60000610352</ele>
        <time>2021-09-12T07:46:39Z</time>
      </trkpt>
      <trkpt lat="48.37735" lon="-3.71292">
        <ele>186.39999389648</ele>
        <time>2021-09-12T07:46:40Z</time>
      </trkpt>
      <trkpt lat="48.37729" lon="-3.71295">
        <ele>185.80000305176</ele>
        <time>2021-09-12T07:46:41Z</time>
      </trkpt>
      <trkpt lat="48.37723" lon="-3.71301">
        <ele>185.39999389648</ele>
        <time>2021-09-12T07:46:42Z</time>
      </trkpt>
      <trkpt lat="48.37717" lon="-3.71307">
        <ele>184.39999389648</ele>
        <time>2021-09-12T07:46:43Z</time>
      </trkpt>
      <trkpt lat="48.37707" lon="-3.71315">
        <ele>183.80000305176</ele>
        <time>2021-09-12T07:46:44Z</time>
      </trkpt>
      <trkpt lat="48.37701" lon="-3.71323">
        <ele>182.39999389648</ele>
        <time>2021-09-12T07:46:45Z</time>
      </trkpt>
      <trkpt lat="48.37691" lon="-3.71335">
        <ele>181.39999389648</ele>
        <time>2021-09-12T07:46:46Z</time>
      </trkpt>
      <trkpt lat="48.37681" lon="-3.71342">
        <ele>180.60000610352</ele>
        <time>2021-09-12T07:46:47Z</time>
      </trkpt>
      <trkpt lat="48.3767" lon="-3.71349">
        <ele>179.39999389648</ele>
        <time>2021-09-12T07:46:48Z</time>
      </trkpt>
      <trkpt lat="48.37656" lon="-3.71354">
        <ele>179</ele>
        <time>2021-09-12T07:46:49Z</time>
      </trkpt>
      <trkpt lat="48.37647" lon="-3.71358">
        <ele>177.80000305176</ele>
        <time>2021-09-12T07:46:50Z</time>
      </trkpt>
      <trkpt lat="48.37638" lon="-3.71361">
        <ele>176.39999389648</ele>
        <time>2021-09-12T07:46:51Z</time>
      </trkpt>
      <trkpt lat="48.3763" lon="-3.71364">
        <ele>176</ele>
        <time>2021-09-12T07:46:52Z</time>
      </trkpt>
      <trkpt lat="48.3762" lon="-3.71367">
        <ele>175.19999694824</ele>
        <time>2021-09-12T07:46:53Z</time>
      </trkpt>
      <trkpt lat="48.3761" lon="-3.71371">
        <ele>174.19999694824</ele>
        <time>2021-09-12T07:46:54Z</time>
      </trkpt>
      <trkpt lat="48.37599" lon="-3.71373">
        <ele>172.80000305176</ele>
        <time>2021-09-12T07:46:55Z</time>
      </trkpt>
      <trkpt lat="48.3759" lon="-3.71377">
        <ele>172.39999389648</ele>
        <time>2021-09-12T07:46:56Z</time>
      </trkpt>
      <trkpt lat="48.37582" lon="-3.71383">
        <ele>171.80000305176</ele>
        <time>2021-09-12T07:46:57Z</time>
      </trkpt>
      <trkpt lat="48.37574" lon="-3.71391">
        <ele>170.60000610352</ele>
        <time>2021-09-12T07:46:58Z</time>
      </trkpt>
      <trkpt lat="48.37565" lon="-3.71399">
        <ele>170.19999694824</ele>
        <time>2021-09-12T07:46:59Z</time>
      </trkpt>
      <trkpt lat="48.37556" lon="-3.71408">
        <ele>169.80000305176</ele>
        <time>2021-09-12T07:47:00Z</time>
      </trkpt>
      <trkpt lat="48.37548" lon="-3.71415">
        <ele>168.39999389648</ele>
        <time>2021-09-12T07:47:01Z</time>
      </trkpt>
      <trkpt lat="48.3754" lon="-3.71422">
        <ele>167.60000610352</ele>
        <time>2021-09-12T07:47:02Z</time>
      </trkpt>
      <trkpt lat="48.37533" lon="-3.71429">
        <ele>165.39999389648</ele>
        <time>2021-09-12T07:47:03Z</time>
      </trkpt>
      <trkpt lat="48.37527" lon="-3.71435">
        <ele>165.19999694824</ele>
        <time>2021-09-12T07:47:04Z</time>
      </trkpt>
      <trkpt lat="48.37522" lon="-3.7144">
        <ele>163.39999389648</ele>
        <time>2021-09-12T07:47:05Z</time>
      </trkpt>
      <trkpt lat="48.3752" lon="-3.71443">
        <ele>162.19999694824</ele>
        <time>2021-09-12T07:47:06Z</time>
      </trkpt>
      <trkpt lat="48.37518" lon="-3.71448">
        <ele>161.80000305176</ele>
        <time>2021-09-12T07:47:07Z</time>
      </trkpt>
      <trkpt lat="48.37519" lon="-3.71453">
        <ele>161.19999694824</ele>
        <time>2021-09-12T07:47:08Z</time>
      </trkpt>
      <trkpt lat="48.3752" lon="-3.71459">
        <ele>160.39999389648</ele>
        <time>2021-09-12T07:47:09Z</time>
      </trkpt>
      <trkpt lat="48.37522" lon="-3.71468">
        <ele>159.80000305176</ele>
        <time>2021-09-12T07:47:10Z</time>
      </trkpt>
      <trkpt lat="48.37523" lon="-3.71474">
        <ele>158.60000610352</ele>
        <time>2021-09-12T07:47:11Z</time>
      </trkpt>
      <trkpt lat="48.37523" lon="-3.71481">
        <ele>157</ele>
        <time>2021-09-12T07:47:12Z</time>
      </trkpt>
      <trkpt lat="48.37525" lon="-3.71489">
        <ele>156</ele>
        <time>2021-09-12T07:47:13Z</time>
      </trkpt>
      <trkpt lat="48.37526" lon="-3.71493">
        <ele>154.39999389648</ele>
        <time>2021-09-12T07:47:14Z</time>
      </trkpt>
      <trkpt lat="48.37527" lon="-3.715">
        <ele>152.80000305176</ele>
        <time>2021-09-12T07:47:15Z</time>
      </trkpt>
      <trkpt lat="48.3753" lon="-3.71508">
        <ele>151.39999389648</ele>
        <time>2021-09-12T07:47:16Z</time>
      </trkpt>
      <trkpt lat="48.37531" lon="-3.71517">
        <ele>150</ele>
        <time>2021-09-12T07:47:17Z</time>
      </trkpt>
      <trkpt lat="48.37532" lon="-3.71527">
        <ele>147.80000305176</ele>
        <time>2021-09-12T07:47:18Z</time>
      </trkpt>
      <trkpt lat="48.37533" lon="-3.71536">
        <ele>145.60000610352</ele>
        <time>2021-09-12T07:47:19Z</time>
      </trkpt>
      <trkpt lat="48.37535" lon="-3.71546">
        <ele>142.80000305176</ele>
        <time>2021-09-12T07:47:20Z</time>
      </trkpt>
      <trkpt lat="48.37536" lon="-3.71554">
        <ele>140.60000610352</ele>
        <time>2021-09-12T07:47:21Z</time>
      </trkpt>
      <trkpt lat="48.37539" lon="-3.71566">
        <ele>138</ele>
        <time>2021-09-12T07:47:22Z</time>
      </trkpt>
      <trkpt lat="48.3754" lon="-3.71577">
        <ele>135.80000305176</ele>
        <time>2021-09-12T07:47:23Z</time>
      </trkpt>
      <trkpt lat="48.37543" lon="-3.71585">
        <ele>134</ele>
        <time>2021-09-12T07:47:24Z</time>
      </trkpt>
      <trkpt lat="48.37545" lon="-3.71589">
        <ele>131.80000305176</ele>
        <time>2021-09-12T07:47:25Z</time>
      </trkpt>
      <trkpt lat="48.37549" lon="-3.71593">
        <ele>129.80000305176</ele>
        <time>2021-09-12T07:47:26Z</time>
      </trkpt>
      <trkpt lat="48.37555" lon="-3.71595">
        <ele>128.60000610352</ele>
        <time>2021-09-12T07:47:27Z</time>
      </trkpt>
      <trkpt lat="48.3756" lon="-3.71595">
        <ele>127.80000305176</ele>
        <time>2021-09-12T07:47:28Z</time>
      </trkpt>
      <trkpt lat="48.37566" lon="-3.71594">
        <ele>127.80000305176</ele>
        <time>2021-09-12T07:47:29Z</time>
      </trkpt>
      <trkpt lat="48.37572" lon="-3.71593">
        <ele>127.59999847412</ele>
        <time>2021-09-12T07:47:30Z</time>
      </trkpt>
      <trkpt lat="48.37575" lon="-3.71593">
        <ele>127.59999847412</ele>
        <time>2021-09-12T07:47:31Z</time>
      </trkpt>
      <trkpt lat="48.3758" lon="-3.71593">
        <ele>127.59999847412</ele>
        <time>2021-09-12T07:47:32Z</time>
      </trkpt>
      <trkpt lat="48.37585" lon="-3.71593">
        <ele>127.59999847412</ele>
        <time>2021-09-12T07:47:33Z</time>
      </trkpt>
      <trkpt lat="48.3759" lon="-3.71594">
        <ele>127.40000152588</ele>
        <time>2021-09-12T07:47:34Z</time>
      </trkpt>
      <trkpt lat="48.37596" lon="-3.71594">
        <ele>127.40000152588</ele>
        <time>2021-09-12T07:47:35Z</time>
      </trkpt>
      <trkpt lat="48.37602" lon="-3.71594">
        <ele>127.19999694824</ele>
        <time>2021-09-12T07:47:36Z</time>
      </trkpt>
      <trkpt lat="48.37606" lon="-3.71594">
        <ele>127.19999694824</ele>
        <time>2021-09-12T07:47:37Z</time>
      </trkpt>
      <trkpt lat="48.37611" lon="-3.71594">
        <ele>127.19999694824</ele>
        <time>2021-09-12T07:47:38Z</time>
      </trkpt>
      <trkpt lat="48.37616" lon="-3.71594">
        <ele>127.19999694824</ele>
        <time>2021-09-12T07:47:39Z</time>
      </trkpt>
      <trkpt lat="48.3762" lon="-3.71593">
        <ele>127.19999694824</ele>
        <time>2021-09-12T07:47:40Z</time>
      </trkpt>
      <trkpt lat="48.37624" lon="-3.71593">
        <ele>127.40000152588</ele>
        <time>2021-09-12T07:47:41Z</time>
      </trkpt>
      <trkpt lat="48.37628" lon="-3.71593">
        <ele>127.59999847412</ele>
        <time>2021-09-12T07:47:42Z</time>
      </trkpt>
      <trkpt lat="48.37631" lon="-3.71593">
        <ele>127.80000305176</ele>
        <time>2021-09-12T07:47:43Z</time>
      </trkpt>
      <trkpt lat="48.37635" lon="-3.71593">
        <ele>127.80000305176</ele>
        <time>2021-09-12T07:47:44Z</time>
      </trkpt>
      <trkpt lat="48.37638" lon="-3.71592">
        <ele>127.80000305176</ele>
        <time>2021-09-12T07:47:45Z</time>
      </trkpt>
      <trkpt lat="48.37641" lon="-3.71592">
        <ele>128.60000610352</ele>
        <time>2021-09-12T07:47:46Z</time>
      </trkpt>
      <trkpt lat="48.37645" lon="-3.71592">
        <ele>128.80000305176</ele>
        <time>2021-09-12T07:47:47Z</time>
      </trkpt>
      <trkpt lat="48.37648" lon="-3.71591">
        <ele>128.80000305176</ele>
        <time>2021-09-12T07:47:48Z</time>
      </trkpt>
      <trkpt lat="48.37652" lon="-3.71591">
        <ele>129</ele>
        <time>2021-09-12T07:47:49Z</time>
      </trkpt>
      <trkpt lat="48.37654" lon="-3.71591">
        <ele>129.60000610352</ele>
        <time>2021-09-12T07:47:50Z</time>
      </trkpt>
      <trkpt lat="48.37657" lon="-3.7159">
        <ele>129.60000610352</ele>
        <time>2021-09-12T07:47:51Z</time>
      </trkpt>
      <trkpt lat="48.37659" lon="-3.7159">
        <ele>129.80000305176</ele>
        <time>2021-09-12T07:47:52Z</time>
      </trkpt>
      <trkpt lat="48.37661" lon="-3.71589">
        <ele>130</ele>
        <time>2021-09-12T07:47:53Z</time>
      </trkpt>
      <trkpt lat="48.37662" lon="-3.71586">
        <ele>130.39999389648</ele>
        <time>2021-09-12T07:47:54Z</time>
      </trkpt>
      <trkpt lat="48.37664" lon="-3.71584">
        <ele>130.60000610352</ele>
        <time>2021-09-12T07:47:55Z</time>
      </trkpt>
      <trkpt lat="48.37665" lon="-3.71581">
        <ele>130.80000305176</ele>
        <time>2021-09-12T07:47:56Z</time>
      </trkpt>
      <trkpt lat="48.37666" lon="-3.71578">
        <ele>131.60000610352</ele>
        <time>2021-09-12T07:47:57Z</time>
      </trkpt>
      <trkpt lat="48.37667" lon="-3.71577">
        <ele>132.39999389648</ele>
        <time>2021-09-12T07:47:58Z</time>
      </trkpt>
      <trkpt lat="48.37669" lon="-3.71576">
        <ele>132.80000305176</ele>
        <time>2021-09-12T07:47:59Z</time>
      </trkpt>
      <trkpt lat="48.3767" lon="-3.71576">
        <ele>133</ele>
        <time>2021-09-12T07:48:00Z</time>
      </trkpt>
      <trkpt lat="48.37672" lon="-3.71576">
        <ele>133.19999694824</ele>
        <time>2021-09-12T07:48:01Z</time>
      </trkpt>
      <trkpt lat="48.37673" lon="-3.71575">
        <ele>133.80000305176</ele>
        <time>2021-09-12T07:48:02Z</time>
      </trkpt>
      <trkpt lat="48.37675" lon="-3.71574">
        <ele>133.80000305176</ele>
        <time>2021-09-12T07:48:03Z</time>
      </trkpt>
      <trkpt lat="48.37678" lon="-3.71574">
        <ele>134</ele>
        <time>2021-09-12T07:48:04Z</time>
      </trkpt>
      <trkpt lat="48.3768" lon="-3.71573">
        <ele>134.39999389648</ele>
        <time>2021-09-12T07:48:05Z</time>
      </trkpt>
      <trkpt lat="48.37684" lon="-3.71574">
        <ele>134.39999389648</ele>
        <time>2021-09-12T07:48:06Z</time>
      </trkpt>
      <trkpt lat="48.37687" lon="-3.71574">
        <ele>134.39999389648</ele>
        <time>2021-09-12T07:48:07Z</time>
      </trkpt>
      <trkpt lat="48.37689" lon="-3.71574">
        <ele>134.60000610352</ele>
        <time>2021-09-12T07:48:08Z</time>
      </trkpt>
      <trkpt lat="48.3769" lon="-3.71573">
        <ele>135</ele>
        <time>2021-09-12T07:48:09Z</time>
      </trkpt>
      <trkpt lat="48.37693" lon="-3.71573">
        <ele>135.19999694824</ele>
        <time>2021-09-12T07:48:10Z</time>
      </trkpt>
      <trkpt lat="48.37695" lon="-3.71574">
        <ele>135.60000610352</ele>
        <time>2021-09-12T07:48:11Z</time>
      </trkpt>
      <trkpt lat="48.37699" lon="-3.71574">
        <ele>135.60000610352</ele>
        <time>2021-09-12T07:48:12Z</time>
      </trkpt>
      <trkpt lat="48.37702" lon="-3.71576">
        <ele>135.60000610352</ele>
        <time>2021-09-12T07:48:13Z</time>
      </trkpt>
      <trkpt lat="48.37706" lon="-3.71577">
        <ele>135.60000610352</ele>
        <time>2021-09-12T07:48:14Z</time>
      </trkpt>
      <trkpt lat="48.37708" lon="-3.71577">
        <ele>135.60000610352</ele>
        <time>2021-09-12T07:48:15Z</time>
      </trkpt>
      <trkpt lat="48.37712" lon="-3.71577">
        <ele>135.60000610352</ele>
        <time>2021-09-12T07:48:16Z</time>
      </trkpt>
      <trkpt lat="48.37716" lon="-3.71577">
        <ele>135.60000610352</ele>
        <time>2021-09-12T07:48:17Z</time>
      </trkpt>
      <trkpt lat="48.37719" lon="-3.71575">
        <ele>135.60000610352</ele>
        <time>2021-09-12T07:48:18Z</time>
      </trkpt>
      <trkpt lat="48.37721" lon="-3.71574">
        <ele>135.60000610352</ele>
        <time>2021-09-12T07:48:19Z</time>
      </trkpt>
      <trkpt lat="48.37723" lon="-3.71574">
        <ele>136</ele>
        <time>2021-09-12T07:48:20Z</time>
      </trkpt>
      <trkpt lat="48.37726" lon="-3.71574">
        <ele>136.19999694824</ele>
        <time>2021-09-12T07:48:21Z</time>
      </trkpt>
      <trkpt lat="48.37729" lon="-3.71574">
        <ele>136.19999694824</ele>
        <time>2021-09-12T07:48:22Z</time>
      </trkpt>
      <trkpt lat="48.37732" lon="-3.71574">
        <ele>136.39999389648</ele>
        <time>2021-09-12T07:48:23Z</time>
      </trkpt>
      <trkpt lat="48.37735" lon="-3.71573">
        <ele>136.39999389648</ele>
        <time>2021-09-12T07:48:24Z</time>
      </trkpt>
      <trkpt lat="48.37737" lon="-3.71573">
        <ele>136.39999389648</ele>
        <time>2021-09-12T07:48:25Z</time>
      </trkpt>
      <trkpt lat="48.37739" lon="-3.71573">
        <ele>136.39999389648</ele>
        <time>2021-09-12T07:48:26Z</time>
      </trkpt>
      <trkpt lat="48.37741" lon="-3.71573">
        <ele>136.39999389648</ele>
        <time>2021-09-12T07:48:27Z</time>
      </trkpt>
      <trkpt lat="48.37744" lon="-3.71572">
        <ele>136.60000610352</ele>
        <time>2021-09-12T07:48:28Z</time>
      </trkpt>
      <trkpt lat="48.37747" lon="-3.71571">
        <ele>136.80000305176</ele>
        <time>2021-09-12T07:48:29Z</time>
      </trkpt>
      <trkpt lat="48.3775" lon="-3.7157">
        <ele>136.80000305176</ele>
        <time>2021-09-12T07:48:30Z</time>
      </trkpt>
      <trkpt lat="48.37752" lon="-3.7157">
        <ele>137</ele>
        <time>2021-09-12T07:48:31Z</time>
      </trkpt>
      <trkpt lat="48.37756" lon="-3.71569">
        <ele>137</ele>
        <time>2021-09-12T07:48:32Z</time>
      </trkpt>
      <trkpt lat="48.37758" lon="-3.71569">
        <ele>137.19999694824</ele>
        <time>2021-09-12T07:48:33Z</time>
      </trkpt>
      <trkpt lat="48.37761" lon="-3.71569">
        <ele>137.39999389648</ele>
        <time>2021-09-12T07:48:34Z</time>
      </trkpt>
      <trkpt lat="48.37763" lon="-3.71568">
        <ele>137.39999389648</ele>
        <time>2021-09-12T07:48:35Z</time>
      </trkpt>
      <trkpt lat="48.37766" lon="-3.71568">
        <ele>137.39999389648</ele>
        <time>2021-09-12T07:48:36Z</time>
      </trkpt>
      <trkpt lat="48.37768" lon="-3.71568">
        <ele>137.39999389648</ele>
        <time>2021-09-12T07:48:37Z</time>
      </trkpt>
      <trkpt lat="48.3777" lon="-3.71568">
        <ele>137.60000610352</ele>
        <time>2021-09-12T07:48:38Z</time>
      </trkpt>
      <trkpt lat="48.37773" lon="-3.71567">
        <ele>137.60000610352</ele>
        <time>2021-09-12T07:48:39Z</time>
      </trkpt>
      <trkpt lat="48.37775" lon="-3.71565">
        <ele>137.80000305176</ele>
        <time>2021-09-12T07:48:40Z</time>
      </trkpt>
      <trkpt lat="48.37777" lon="-3.71564">
        <ele>138</ele>
        <time>2021-09-12T07:48:41Z</time>
      </trkpt>
      <trkpt lat="48.37779" lon="-3.71563">
        <ele>138.19999694824</ele>
        <time>2021-09-12T07:48:42Z</time>
      </trkpt>
      <trkpt lat="48.37781" lon="-3.71561">
        <ele>138.39999389648</ele>
        <time>2021-09-12T07:48:43Z</time>
      </trkpt>
      <trkpt lat="48.37783" lon="-3.7156">
        <ele>138.60000610352</ele>
        <time>2021-09-12T07:48:44Z</time>
      </trkpt>
      <trkpt lat="48.37786" lon="-3.71558">
        <ele>138.80000305176</ele>
        <time>2021-09-12T07:48:45Z</time>
      </trkpt>
      <trkpt lat="48.37788" lon="-3.71557">
        <ele>138.80000305176</ele>
        <time>2021-09-12T07:48:46Z</time>
      </trkpt>
      <trkpt lat="48.37791" lon="-3.71557">
        <ele>138.80000305176</ele>
        <time>2021-09-12T07:48:47Z</time>
      </trkpt>
      <trkpt lat="48.37794" lon="-3.71557">
        <ele>139</ele>
        <time>2021-09-12T07:48:48Z</time>
      </trkpt>
      <trkpt lat="48.37797" lon="-3.71557">
        <ele>139</ele>
        <time>2021-09-12T07:48:49Z</time>
      </trkpt>
      <trkpt lat="48.378" lon="-3.71557">
        <ele>139</ele>
        <time>2021-09-12T07:48:50Z</time>
      </trkpt>
      <trkpt lat="48.37803" lon="-3.71556">
        <ele>139</ele>
        <time>2021-09-12T07:48:51Z</time>
      </trkpt>
      <trkpt lat="48.37807" lon="-3.71556">
        <ele>139.19999694824</ele>
        <time>2021-09-12T07:48:52Z</time>
      </trkpt>
      <trkpt lat="48.37809" lon="-3.71556">
        <ele>139.19999694824</ele>
        <time>2021-09-12T07:48:53Z</time>
      </trkpt>
      <trkpt lat="48.37814" lon="-3.71556">
        <ele>139.19999694824</ele>
        <time>2021-09-12T07:48:54Z</time>
      </trkpt>
      <trkpt lat="48.37817" lon="-3.71556">
        <ele>139.19999694824</ele>
        <time>2021-09-12T07:48:55Z</time>
      </trkpt>
      <trkpt lat="48.37821" lon="-3.71556">
        <ele>139.19999694824</ele>
        <time>2021-09-12T07:48:56Z</time>
      </trkpt>
      <trkpt lat="48.37823" lon="-3.71556">
        <ele>139.39999389648</ele>
        <time>2021-09-12T07:48:57Z</time>
      </trkpt>
      <trkpt lat="48.37826" lon="-3.71557">
        <ele>139.39999389648</ele>
        <time>2021-09-12T07:48:58Z</time>
      </trkpt>
      <trkpt lat="48.37828" lon="-3.71557">
        <ele>139.60000610352</ele>
        <time>2021-09-12T07:48:59Z</time>
      </trkpt>
      <trkpt lat="48.37832" lon="-3.71557">
        <ele>139.60000610352</ele>
        <time>2021-09-12T07:49:00Z</time>
      </trkpt>
      <trkpt lat="48.37834" lon="-3.71557">
        <ele>139.60000610352</ele>
        <time>2021-09-12T07:49:01Z</time>
      </trkpt>
      <trkpt lat="48.37837" lon="-3.71556">
        <ele>139.80000305176</ele>
        <time>2021-09-12T07:49:02Z</time>
      </trkpt>
      <trkpt lat="48.37839" lon="-3.71556">
        <ele>139.80000305176</ele>
        <time>2021-09-12T07:49:03Z</time>
      </trkpt>
      <trkpt lat="48.37841" lon="-3.71555">
        <ele>139.80000305176</ele>
        <time>2021-09-12T07:49:04Z</time>
      </trkpt>
      <trkpt lat="48.37843" lon="-3.71555">
        <ele>139.80000305176</ele>
        <time>2021-09-12T07:49:05Z</time>
      </trkpt>
      <trkpt lat="48.37847" lon="-3.71556">
        <ele>139.80000305176</ele>
        <time>2021-09-12T07:49:06Z</time>
      </trkpt>
      <trkpt lat="48.37849" lon="-3.71556">
        <ele>139.80000305176</ele>
        <time>2021-09-12T07:49:07Z</time>
      </trkpt>
      <trkpt lat="48.37852" lon="-3.71556">
        <ele>139.80000305176</ele>
        <time>2021-09-12T07:49:08Z</time>
      </trkpt>
      <trkpt lat="48.37855" lon="-3.71556">
        <ele>139.80000305176</ele>
        <time>2021-09-12T07:49:09Z</time>
      </trkpt>
      <trkpt lat="48.37859" lon="-3.71556">
        <ele>139.60000610352</ele>
        <time>2021-09-12T07:49:10Z</time>
      </trkpt>
      <trkpt lat="48.37863" lon="-3.71557">
        <ele>139</ele>
        <time>2021-09-12T07:49:11Z</time>
      </trkpt>
      <trkpt lat="48.37868" lon="-3.71559">
        <ele>138.60000610352</ele>
        <time>2021-09-12T07:49:12Z</time>
      </trkpt>
      <trkpt lat="48.37872" lon="-3.71561">
        <ele>138.60000610352</ele>
        <time>2021-09-12T07:49:13Z</time>
      </trkpt>
      <trkpt lat="48.37876" lon="-3.71563">
        <ele>138.39999389648</ele>
        <time>2021-09-12T07:49:14Z</time>
      </trkpt>
      <trkpt lat="48.3788" lon="-3.71565">
        <ele>137.80000305176</ele>
        <time>2021-09-12T07:49:15Z</time>
      </trkpt>
      <trkpt lat="48.37883" lon="-3.71566">
        <ele>137.39999389648</ele>
        <time>2021-09-12T07:49:16Z</time>
      </trkpt>
      <trkpt lat="48.37885" lon="-3.71566">
        <ele>136.60000610352</ele>
        <time>2021-09-12T07:49:17Z</time>
      </trkpt>
      <trkpt lat="48.37887" lon="-3.71566">
        <ele>136.60000610352</ele>
        <time>2021-09-12T07:49:18Z</time>
      </trkpt>
      <trkpt lat="48.3789" lon="-3.71565">
        <ele>136</ele>
        <time>2021-09-12T07:49:19Z</time>
      </trkpt>
      <trkpt lat="48.37892" lon="-3.71563">
        <ele>136</ele>
        <time>2021-09-12T07:49:20Z</time>
      </trkpt>
      <trkpt lat="48.37895" lon="-3.71561">
        <ele>135</ele>
        <time>2021-09-12T07:49:21Z</time>
      </trkpt>
      <trkpt lat="48.37899" lon="-3.71559">
        <ele>134.19999694824</ele>
        <time>2021-09-12T07:49:22Z</time>
      </trkpt>
      <trkpt lat="48.37902" lon="-3.71557">
        <ele>133</ele>
        <time>2021-09-12T07:49:23Z</time>
      </trkpt>
      <trkpt lat="48.37904" lon="-3.71556">
        <ele>131.39999389648</ele>
        <time>2021-09-12T07:49:24Z</time>
      </trkpt>
      <trkpt lat="48.37906" lon="-3.71557">
        <ele>131.19999694824</ele>
        <time>2021-09-12T07:49:25Z</time>
      </trkpt>
      <trkpt lat="48.37907" lon="-3.71559">
        <ele>130.39999389648</ele>
        <time>2021-09-12T07:49:26Z</time>
      </trkpt>
      <trkpt lat="48.37907" lon="-3.71561">
        <ele>130.39999389648</ele>
        <time>2021-09-12T07:49:27Z</time>
      </trkpt>
      <trkpt lat="48.37907" lon="-3.71563">
        <ele>130.39999389648</ele>
        <time>2021-09-12T07:49:28Z</time>
      </trkpt>
      <trkpt lat="48.37906" lon="-3.71565">
        <ele>130.19999694824</ele>
        <time>2021-09-12T07:49:29Z</time>
      </trkpt>
      <trkpt lat="48.37905" lon="-3.71569">
        <ele>130.19999694824</ele>
        <time>2021-09-12T07:49:30Z</time>
      </trkpt>
      <trkpt lat="48.37902" lon="-3.71572">
        <ele>130</ele>
        <time>2021-09-12T07:49:31Z</time>
      </trkpt>
      <trkpt lat="48.379" lon="-3.71575">
        <ele>130</ele>
        <time>2021-09-12T07:49:32Z</time>
      </trkpt>
      <trkpt lat="48.37899" lon="-3.71579">
        <ele>129.80000305176</ele>
        <time>2021-09-12T07:49:33Z</time>
      </trkpt>
      <trkpt lat="48.37899" lon="-3.71583">
        <ele>129.60000610352</ele>
        <time>2021-09-12T07:49:34Z</time>
      </trkpt>
      <trkpt lat="48.37897" lon="-3.71585">
        <ele>129.60000610352</ele>
        <time>2021-09-12T07:49:35Z</time>
      </trkpt>
      <trkpt lat="48.37897" lon="-3.71588">
        <ele>129.39999389648</ele>
        <time>2021-09-12T07:49:36Z</time>
      </trkpt>
      <trkpt lat="48.37896" lon="-3.7159">
        <ele>129.19999694824</ele>
        <time>2021-09-12T07:49:37Z</time>
      </trkpt>
      <trkpt lat="48.37895" lon="-3.71592">
        <ele>129</ele>
        <time>2021-09-12T07:49:38Z</time>
      </trkpt>
      <trkpt lat="48.37895" lon="-3.71594">
        <ele>129</ele>
        <time>2021-09-12T07:49:39Z</time>
      </trkpt>
      <trkpt lat="48.37894" lon="-3.71596">
        <ele>128.80000305176</ele>
        <time>2021-09-12T07:49:40Z</time>
      </trkpt>
      <trkpt lat="48.37893" lon="-3.71596">
        <ele>128.60000610352</ele>
        <time>2021-09-12T07:49:41Z</time>
      </trkpt>
      <trkpt lat="48.37891" lon="-3.71596">
        <ele>128.60000610352</ele>
        <time>2021-09-12T07:49:42Z</time>
      </trkpt>
      <trkpt lat="48.3789" lon="-3.71596">
        <ele>128.39999389648</ele>
        <time>2021-09-12T07:49:43Z</time>
      </trkpt>
      <trkpt lat="48.37888" lon="-3.71595">
        <ele>128.39999389648</ele>
        <time>2021-09-12T07:49:44Z</time>
      </trkpt>
      <trkpt lat="48.37887" lon="-3.71595">
        <ele>128.39999389648</ele>
        <time>2021-09-12T07:49:45Z</time>
      </trkpt>
      <trkpt lat="48.37885" lon="-3.71595">
        <ele>128.39999389648</ele>
        <time>2021-09-12T07:49:46Z</time>
      </trkpt>
      <trkpt lat="48.37884" lon="-3.71596">
        <ele>128.39999389648</ele>
        <time>2021-09-12T07:49:47Z</time>
      </trkpt>
      <trkpt lat="48.37881" lon="-3.71598">
        <ele>128.39999389648</ele>
        <time>2021-09-12T07:49:48Z</time>
      </trkpt>
      <trkpt lat="48.37878" lon="-3.71599">
        <ele>128.39999389648</ele>
        <time>2021-09-12T07:49:49Z</time>
      </trkpt>
      <trkpt lat="48.37874" lon="-3.716">
        <ele>128.39999389648</ele>
        <time>2021-09-12T07:49:50Z</time>
      </trkpt>
      <trkpt lat="48.37869" lon="-3.71599">
        <ele>128.19999694824</ele>
        <time>2021-09-12T07:49:51Z</time>
      </trkpt>
      <trkpt lat="48.37865" lon="-3.71598">
        <ele>128.19999694824</ele>
        <time>2021-09-12T07:49:52Z</time>
      </trkpt>
      <trkpt lat="48.3786" lon="-3.71597">
        <ele>128</ele>
        <time>2021-09-12T07:49:53Z</time>
      </trkpt>
      <trkpt lat="48.37854" lon="-3.71596">
        <ele>127.80000305176</ele>
        <time>2021-09-12T07:49:54Z</time>
      </trkpt>
      <trkpt lat="48.3785" lon="-3.71596">
        <ele>127.59999847412</ele>
        <time>2021-09-12T07:49:55Z</time>
      </trkpt>
      <trkpt lat="48.37846" lon="-3.71596">
        <ele>127.40000152588</ele>
        <time>2021-09-12T07:49:56Z</time>
      </trkpt>
      <trkpt lat="48.37843" lon="-3.71596">
        <ele>127.40000152588</ele>
        <time>2021-09-12T07:49:57Z</time>
      </trkpt>
      <trkpt lat="48.37838" lon="-3.71596">
        <ele>127.40000152588</ele>
        <time>2021-09-12T07:49:58Z</time>
      </trkpt>
      <trkpt lat="48.37832" lon="-3.71597">
        <ele>127.19999694824</ele>
        <time>2021-09-12T07:49:59Z</time>
      </trkpt>
      <trkpt lat="48.37827" lon="-3.71598">
        <ele>127</ele>
        <time>2021-09-12T07:50:00Z</time>
      </trkpt>
      <trkpt lat="48.37822" lon="-3.71599">
        <ele>127</ele>
        <time>2021-09-12T07:50:01Z</time>
      </trkpt>
      <trkpt lat="48.37817" lon="-3.716">
        <ele>126.59999847412</ele>
        <time>2021-09-12T07:50:02Z</time>
      </trkpt>
      <trkpt lat="48.37811" lon="-3.71601">
        <ele>126.59999847412</ele>
        <time>2021-09-12T07:50:03Z</time>
      </trkpt>
      <trkpt lat="48.37805" lon="-3.71601">
        <ele>126.40000152588</ele>
        <time>2021-09-12T07:50:04Z</time>
      </trkpt>
      <trkpt lat="48.37798" lon="-3.71602">
        <ele>126.19999694824</ele>
        <time>2021-09-12T07:50:05Z</time>
      </trkpt>
      <trkpt lat="48.37792" lon="-3.71603">
        <ele>126</ele>
        <time>2021-09-12T07:50:06Z</time>
      </trkpt>
      <trkpt lat="48.37786" lon="-3.71605">
        <ele>125.59999847412</ele>
        <time>2021-09-12T07:50:07Z</time>
      </trkpt>
      <trkpt lat="48.37781" lon="-3.71606">
        <ele>125.59999847412</ele>
        <time>2021-09-12T07:50:08Z</time>
      </trkpt>
      <trkpt lat="48.37773" lon="-3.71608">
        <ele>125.40000152588</ele>
        <time>2021-09-12T07:50:09Z</time>
      </trkpt>
      <trkpt lat="48.37767" lon="-3.7161">
        <ele>125.40000152588</ele>
        <time>2021-09-12T07:50:10Z</time>
      </trkpt>
      <trkpt lat="48.37761" lon="-3.7161">
        <ele>125.19999694824</ele>
        <time>2021-09-12T07:50:11Z</time>
      </trkpt>
      <trkpt lat="48.37754" lon="-3.71611">
        <ele>125</ele>
        <time>2021-09-12T07:50:12Z</time>
      </trkpt>
      <trkpt lat="48.37748" lon="-3.71612">
        <ele>125</ele>
        <time>2021-09-12T07:50:13Z</time>
      </trkpt>
      <trkpt lat="48.37742" lon="-3.71614">
        <ele>124.80000305176</ele>
        <time>2021-09-12T07:50:14Z</time>
      </trkpt>
      <trkpt lat="48.37736" lon="-3.71615">
        <ele>124.80000305176</ele>
        <time>2021-09-12T07:50:15Z</time>
      </trkpt>
      <trkpt lat="48.37729" lon="-3.71616">
        <ele>124.59999847412</ele>
        <time>2021-09-12T07:50:16Z</time>
      </trkpt>
      <trkpt lat="48.37722" lon="-3.71617">
        <ele>124.40000152588</ele>
        <time>2021-09-12T07:50:17Z</time>
      </trkpt>
      <trkpt lat="48.37715" lon="-3.71617">
        <ele>124.40000152588</ele>
        <time>2021-09-12T07:50:18Z</time>
      </trkpt>
      <trkpt lat="48.37708" lon="-3.71617">
        <ele>124.40000152588</ele>
        <time>2021-09-12T07:50:19Z</time>
      </trkpt>
      <trkpt lat="48.377" lon="-3.71617">
        <ele>123.80000305176</ele>
        <time>2021-09-12T07:50:20Z</time>
      </trkpt>
      <trkpt lat="48.37693" lon="-3.71617">
        <ele>123.80000305176</ele>
        <time>2021-09-12T07:50:21Z</time>
      </trkpt>
      <trkpt lat="48.37685" lon="-3.71618">
        <ele>123.80000305176</ele>
        <time>2021-09-12T07:50:22Z</time>
      </trkpt>
      <trkpt lat="48.37678" lon="-3.71618">
        <ele>123.80000305176</ele>
        <time>2021-09-12T07:50:23Z</time>
      </trkpt>
      <trkpt lat="48.37672" lon="-3.71618">
        <ele>123.59999847412</ele>
        <time>2021-09-12T07:50:24Z</time>
      </trkpt>
      <trkpt lat="48.37666" lon="-3.71618">
        <ele>123.40000152588</ele>
        <time>2021-09-12T07:50:25Z</time>
      </trkpt>
      <trkpt lat="48.37658" lon="-3.71619">
        <ele>123.19999694824</ele>
        <time>2021-09-12T07:50:26Z</time>
      </trkpt>
      <trkpt lat="48.37652" lon="-3.7162">
        <ele>123</ele>
        <time>2021-09-12T07:50:27Z</time>
      </trkpt>
      <trkpt lat="48.37646" lon="-3.71621">
        <ele>123</ele>
        <time>2021-09-12T07:50:28Z</time>
      </trkpt>
      <trkpt lat="48.37637" lon="-3.71621">
        <ele>122.80000305176</ele>
        <time>2021-09-12T07:50:29Z</time>
      </trkpt>
      <trkpt lat="48.3763" lon="-3.71621">
        <ele>122.59999847412</ele>
        <time>2021-09-12T07:50:30Z</time>
      </trkpt>
      <trkpt lat="48.37623" lon="-3.71623">
        <ele>122.40000152588</ele>
        <time>2021-09-12T07:50:31Z</time>
      </trkpt>
      <trkpt lat="48.37616" lon="-3.71625">
        <ele>121.80000305176</ele>
        <time>2021-09-12T07:50:32Z</time>
      </trkpt>
      <trkpt lat="48.3761" lon="-3.71626">
        <ele>121.59999847412</ele>
        <time>2021-09-12T07:50:33Z</time>
      </trkpt>
      <trkpt lat="48.37604" lon="-3.71625">
        <ele>121.59999847412</ele>
        <time>2021-09-12T07:50:34Z</time>
      </trkpt>
      <trkpt lat="48.37598" lon="-3.71624">
        <ele>121.40000152588</ele>
        <time>2021-09-12T07:50:35Z</time>
      </trkpt>
      <trkpt lat="48.37591" lon="-3.71622">
        <ele>121.19999694824</ele>
        <time>2021-09-12T07:50:36Z</time>
      </trkpt>
      <trkpt lat="48.37585" lon="-3.71622">
        <ele>121.19999694824</ele>
        <time>2021-09-12T07:50:37Z</time>
      </trkpt>
      <trkpt lat="48.37579" lon="-3.71623">
        <ele>120.59999847412</ele>
        <time>2021-09-12T07:50:38Z</time>
      </trkpt>
      <trkpt lat="48.37574" lon="-3.71625">
        <ele>120.40000152588</ele>
        <time>2021-09-12T07:50:39Z</time>
      </trkpt>
      <trkpt lat="48.37572" lon="-3.71628">
        <ele>120.19999694824</ele>
        <time>2021-09-12T07:50:40Z</time>
      </trkpt>
      <trkpt lat="48.37572" lon="-3.71632">
        <ele>120.19999694824</ele>
        <time>2021-09-12T07:50:41Z</time>
      </trkpt>
      <trkpt lat="48.37574" lon="-3.71635">
        <ele>120</ele>
        <time>2021-09-12T07:50:42Z</time>
      </trkpt>
      <trkpt lat="48.37577" lon="-3.71637">
        <ele>119.80000305176</ele>
        <time>2021-09-12T07:50:43Z</time>
      </trkpt>
      <trkpt lat="48.37582" lon="-3.71639">
        <ele>119.40000152588</ele>
        <time>2021-09-12T07:50:44Z</time>
      </trkpt>
      <trkpt lat="48.37588" lon="-3.71641">
        <ele>118.80000305176</ele>
        <time>2021-09-12T07:50:45Z</time>
      </trkpt>
      <trkpt lat="48.37593" lon="-3.71643">
        <ele>118.40000152588</ele>
        <time>2021-09-12T07:50:46Z</time>
      </trkpt>
      <trkpt lat="48.37598" lon="-3.71645">
        <ele>118.19999694824</ele>
        <time>2021-09-12T07:50:47Z</time>
      </trkpt>
      <trkpt lat="48.37604" lon="-3.71646">
        <ele>117.59999847412</ele>
        <time>2021-09-12T07:50:48Z</time>
      </trkpt>
      <trkpt lat="48.3761" lon="-3.71648">
        <ele>117.40000152588</ele>
        <time>2021-09-12T07:50:49Z</time>
      </trkpt>
      <trkpt lat="48.37616" lon="-3.7165">
        <ele>116.80000305176</ele>
        <time>2021-09-12T07:50:50Z</time>
      </trkpt>
      <trkpt lat="48.37624" lon="-3.71652">
        <ele>115.80000305176</ele>
        <time>2021-09-12T07:50:51Z</time>
      </trkpt>
      <trkpt lat="48.37632" lon="-3.71657">
        <ele>115.19999694824</ele>
        <time>2021-09-12T07:50:52Z</time>
      </trkpt>
      <trkpt lat="48.37636" lon="-3.71665">
        <ele>115</ele>
        <time>2021-09-12T07:50:53Z</time>
      </trkpt>
      <trkpt lat="48.37638" lon="-3.71674">
        <ele>114.80000305176</ele>
        <time>2021-09-12T07:50:54Z</time>
      </trkpt>
      <trkpt lat="48.3764" lon="-3.71683">
        <ele>114.59999847412</ele>
        <time>2021-09-12T07:50:55Z</time>
      </trkpt>
      <trkpt lat="48.37641" lon="-3.71691">
        <ele>114.59999847412</ele>
        <time>2021-09-12T07:50:56Z</time>
      </trkpt>
      <trkpt lat="48.37641" lon="-3.71699">
        <ele>114.59999847412</ele>
        <time>2021-09-12T07:50:57Z</time>
      </trkpt>
      <trkpt lat="48.37641" lon="-3.71706">
        <ele>114.59999847412</ele>
        <time>2021-09-12T07:50:58Z</time>
      </trkpt>
      <trkpt lat="48.37641" lon="-3.71712">
        <ele>115</ele>
        <time>2021-09-12T07:50:59Z</time>
      </trkpt>
      <trkpt lat="48.37642" lon="-3.71718">
        <ele>115.19999694824</ele>
        <time>2021-09-12T07:51:00Z</time>
      </trkpt>
      <trkpt lat="48.37644" lon="-3.71723">
        <ele>115.59999847412</ele>
        <time>2021-09-12T07:51:01Z</time>
      </trkpt>
      <trkpt lat="48.37645" lon="-3.71728">
        <ele>115.59999847412</ele>
        <time>2021-09-12T07:51:02Z</time>
      </trkpt>
      <trkpt lat="48.37646" lon="-3.71733">
        <ele>116</ele>
        <time>2021-09-12T07:51:03Z</time>
      </trkpt>
      <trkpt lat="48.37646" lon="-3.71738">
        <ele>116</ele>
        <time>2021-09-12T07:51:04Z</time>
      </trkpt>
      <trkpt lat="48.37647" lon="-3.71745">
        <ele>116.40000152588</ele>
        <time>2021-09-12T07:51:05Z</time>
      </trkpt>
      <trkpt lat="48.37649" lon="-3.71751">
        <ele>116.59999847412</ele>
        <time>2021-09-12T07:51:06Z</time>
      </trkpt>
      <trkpt lat="48.37648" lon="-3.71758">
        <ele>117</ele>
        <time>2021-09-12T07:51:07Z</time>
      </trkpt>
      <trkpt lat="48.37646" lon="-3.71763">
        <ele>117.40000152588</ele>
        <time>2021-09-12T07:51:08Z</time>
      </trkpt>
      <trkpt lat="48.37644" lon="-3.71768">
        <ele>117.40000152588</ele>
        <time>2021-09-12T07:51:09Z</time>
      </trkpt>
      <trkpt lat="48.37644" lon="-3.71773">
        <ele>117.40000152588</ele>
        <time>2021-09-12T07:51:10Z</time>
      </trkpt>
      <trkpt lat="48.37643" lon="-3.71778">
        <ele>117.40000152588</ele>
        <time>2021-09-12T07:51:11Z</time>
      </trkpt>
      <trkpt lat="48.37644" lon="-3.71785">
        <ele>117.59999847412</ele>
        <time>2021-09-12T07:51:12Z</time>
      </trkpt>
      <trkpt lat="48.37645" lon="-3.7179">
        <ele>117.80000305176</ele>
        <time>2021-09-12T07:51:13Z</time>
      </trkpt>
      <trkpt lat="48.37644" lon="-3.71795">
        <ele>117.80000305176</ele>
        <time>2021-09-12T07:51:14Z</time>
      </trkpt>
      <trkpt lat="48.37644" lon="-3.718">
        <ele>117.80000305176</ele>
        <time>2021-09-12T07:51:15Z</time>
      </trkpt>
      <trkpt lat="48.37642" lon="-3.71804">
        <ele>118</ele>
        <time>2021-09-12T07:51:16Z</time>
      </trkpt>
      <trkpt lat="48.37641" lon="-3.71808">
        <ele>118</ele>
        <time>2021-09-12T07:51:17Z</time>
      </trkpt>
      <trkpt lat="48.3764" lon="-3.71812">
        <ele>118</ele>
        <time>2021-09-12T07:51:18Z</time>
      </trkpt>
      <trkpt lat="48.37638" lon="-3.71815">
        <ele>118</ele>
        <time>2021-09-12T07:51:19Z</time>
      </trkpt>
      <trkpt lat="48.37636" lon="-3.71819">
        <ele>118</ele>
        <time>2021-09-12T07:51:20Z</time>
      </trkpt>
      <trkpt lat="48.37633" lon="-3.71823">
        <ele>118</ele>
        <time>2021-09-12T07:51:21Z</time>
      </trkpt>
      <trkpt lat="48.37631" lon="-3.71827">
        <ele>118.40000152588</ele>
        <time>2021-09-12T07:51:22Z</time>
      </trkpt>
      <trkpt lat="48.3763" lon="-3.71831">
        <ele>118.59999847412</ele>
        <time>2021-09-12T07:51:23Z</time>
      </trkpt>
      <trkpt lat="48.3763" lon="-3.71834">
        <ele>118.80000305176</ele>
        <time>2021-09-12T07:51:24Z</time>
      </trkpt>
      <trkpt lat="48.37629" lon="-3.71838">
        <ele>118.80000305176</ele>
        <time>2021-09-12T07:51:25Z</time>
      </trkpt>
      <trkpt lat="48.3763" lon="-3.71843">
        <ele>118.80000305176</ele>
        <time>2021-09-12T07:51:26Z</time>
      </trkpt>
      <trkpt lat="48.37633" lon="-3.71847">
        <ele>119</ele>
        <time>2021-09-12T07:51:27Z</time>
      </trkpt>
      <trkpt lat="48.37634" lon="-3.7185">
        <ele>119.19999694824</ele>
        <time>2021-09-12T07:51:28Z</time>
      </trkpt>
      <trkpt lat="48.37636" lon="-3.71853">
        <ele>119.40000152588</ele>
        <time>2021-09-12T07:51:29Z</time>
      </trkpt>
      <trkpt lat="48.37637" lon="-3.71857">
        <ele>119.59999847412</ele>
        <time>2021-09-12T07:51:30Z</time>
      </trkpt>
      <trkpt lat="48.37638" lon="-3.7186">
        <ele>119.59999847412</ele>
        <time>2021-09-12T07:51:31Z</time>
      </trkpt>
      <trkpt lat="48.37639" lon="-3.71862">
        <ele>119.80000305176</ele>
        <time>2021-09-12T07:51:32Z</time>
      </trkpt>
      <trkpt lat="48.37639" lon="-3.71865">
        <ele>120.19999694824</ele>
        <time>2021-09-12T07:51:33Z</time>
      </trkpt>
      <trkpt lat="48.37641" lon="-3.71871">
        <ele>120.40000152588</ele>
        <time>2021-09-12T07:51:34Z</time>
      </trkpt>
      <trkpt lat="48.37641" lon="-3.71875">
        <ele>120.59999847412</ele>
        <time>2021-09-12T07:51:35Z</time>
      </trkpt>
      <trkpt lat="48.37642" lon="-3.71879">
        <ele>121</ele>
        <time>2021-09-12T07:51:36Z</time>
      </trkpt>
      <trkpt lat="48.37645" lon="-3.71882">
        <ele>121.19999694824</ele>
        <time>2021-09-12T07:51:37Z</time>
      </trkpt>
      <trkpt lat="48.37646" lon="-3.71885">
        <ele>121.19999694824</ele>
        <time>2021-09-12T07:51:38Z</time>
      </trkpt>
      <trkpt lat="48.37645" lon="-3.71886">
        <ele>121.40000152588</ele>
        <time>2021-09-12T07:51:39Z</time>
      </trkpt>
      <trkpt lat="48.37645" lon="-3.71889">
        <ele>121.40000152588</ele>
        <time>2021-09-12T07:51:40Z</time>
      </trkpt>
      <trkpt lat="48.37647" lon="-3.71892">
        <ele>121.40000152588</ele>
        <time>2021-09-12T07:51:41Z</time>
      </trkpt>
      <trkpt lat="48.37649" lon="-3.71897">
        <ele>121.59999847412</ele>
        <time>2021-09-12T07:51:42Z</time>
      </trkpt>
      <trkpt lat="48.3765" lon="-3.71902">
        <ele>121.80000305176</ele>
        <time>2021-09-12T07:51:43Z</time>
      </trkpt>
      <trkpt lat="48.37651" lon="-3.71907">
        <ele>122.19999694824</ele>
        <time>2021-09-12T07:51:44Z</time>
      </trkpt>
      <trkpt lat="48.37653" lon="-3.71911">
        <ele>122.19999694824</ele>
        <time>2021-09-12T07:51:45Z</time>
      </trkpt>
      <trkpt lat="48.37655" lon="-3.71915">
        <ele>122.40000152588</ele>
        <time>2021-09-12T07:51:46Z</time>
      </trkpt>
      <trkpt lat="48.37656" lon="-3.71918">
        <ele>122.40000152588</ele>
        <time>2021-09-12T07:51:47Z</time>
      </trkpt>
      <trkpt lat="48.37658" lon="-3.71921">
        <ele>122.80000305176</ele>
        <time>2021-09-12T07:51:48Z</time>
      </trkpt>
      <trkpt lat="48.37659" lon="-3.71925">
        <ele>122.80000305176</ele>
        <time>2021-09-12T07:51:49Z</time>
      </trkpt>
      <trkpt lat="48.37659" lon="-3.71928">
        <ele>123.19999694824</ele>
        <time>2021-09-12T07:51:50Z</time>
      </trkpt>
      <trkpt lat="48.37659" lon="-3.7193">
        <ele>123.19999694824</ele>
        <time>2021-09-12T07:51:51Z</time>
      </trkpt>
      <trkpt lat="48.37659" lon="-3.71933">
        <ele>123.59999847412</ele>
        <time>2021-09-12T07:51:52Z</time>
      </trkpt>
      <trkpt lat="48.37659" lon="-3.71935">
        <ele>124</ele>
        <time>2021-09-12T07:51:53Z</time>
      </trkpt>
      <trkpt lat="48.37661" lon="-3.71938">
        <ele>124.40000152588</ele>
        <time>2021-09-12T07:51:54Z</time>
      </trkpt>
      <trkpt lat="48.37661" lon="-3.71939">
        <ele>124.59999847412</ele>
        <time>2021-09-12T07:51:55Z</time>
      </trkpt>
      <trkpt lat="48.3766" lon="-3.7194">
        <ele>124.80000305176</ele>
        <time>2021-09-12T07:51:56Z</time>
      </trkpt>
      <trkpt lat="48.3766" lon="-3.71943">
        <ele>125</ele>
        <time>2021-09-12T07:51:57Z</time>
      </trkpt>
      <trkpt lat="48.37661" lon="-3.71947">
        <ele>125</ele>
        <time>2021-09-12T07:51:58Z</time>
      </trkpt>
      <trkpt lat="48.37662" lon="-3.71951">
        <ele>125.40000152588</ele>
        <time>2021-09-12T07:51:59Z</time>
      </trkpt>
      <trkpt lat="48.37664" lon="-3.71953">
        <ele>125.80000305176</ele>
        <time>2021-09-12T07:52:00Z</time>
      </trkpt>
      <trkpt lat="48.37665" lon="-3.71956">
        <ele>125.80000305176</ele>
        <time>2021-09-12T07:52:01Z</time>
      </trkpt>
      <trkpt lat="48.37667" lon="-3.71959">
        <ele>126.40000152588</ele>
        <time>2021-09-12T07:52:02Z</time>
      </trkpt>
      <trkpt lat="48.37669" lon="-3.71962">
        <ele>126.59999847412</ele>
        <time>2021-09-12T07:52:03Z</time>
      </trkpt>
      <trkpt lat="48.37669" lon="-3.71965">
        <ele>127</ele>
        <time>2021-09-12T07:52:04Z</time>
      </trkpt>
      <trkpt lat="48.37668" lon="-3.71968">
        <ele>127.19999694824</ele>
        <time>2021-09-12T07:52:05Z</time>
      </trkpt>
      <trkpt lat="48.37668" lon="-3.7197">
        <ele>127.59999847412</ele>
        <time>2021-09-12T07:52:06Z</time>
      </trkpt>
      <trkpt lat="48.37668" lon="-3.71972">
        <ele>128</ele>
        <time>2021-09-12T07:52:07Z</time>
      </trkpt>
      <trkpt lat="48.37669" lon="-3.71975">
        <ele>128.19999694824</ele>
        <time>2021-09-12T07:52:08Z</time>
      </trkpt>
      <trkpt lat="48.3767" lon="-3.71977">
        <ele>128.39999389648</ele>
        <time>2021-09-12T07:52:09Z</time>
      </trkpt>
      <trkpt lat="48.3767" lon="-3.71978">
        <ele>128.60000610352</ele>
        <time>2021-09-12T07:52:10Z</time>
      </trkpt>
      <trkpt lat="48.37671" lon="-3.7198">
        <ele>128.60000610352</ele>
        <time>2021-09-12T07:52:11Z</time>
      </trkpt>
      <trkpt lat="48.37671" lon="-3.71982">
        <ele>129.19999694824</ele>
        <time>2021-09-12T07:52:12Z</time>
      </trkpt>
      <trkpt lat="48.37673" lon="-3.71984">
        <ele>129.39999389648</ele>
        <time>2021-09-12T07:52:13Z</time>
      </trkpt>
      <trkpt lat="48.37674" lon="-3.71986">
        <ele>130.19999694824</ele>
        <time>2021-09-12T07:52:14Z</time>
      </trkpt>
      <trkpt lat="48.37675" lon="-3.71987">
        <ele>130.80000305176</ele>
        <time>2021-09-12T07:52:15Z</time>
      </trkpt>
      <trkpt lat="48.37675" lon="-3.71989">
        <ele>130.80000305176</ele>
        <time>2021-09-12T07:52:16Z</time>
      </trkpt>
      <trkpt lat="48.37676" lon="-3.71991">
        <ele>131</ele>
        <time>2021-09-12T07:52:17Z</time>
      </trkpt>
      <trkpt lat="48.37676" lon="-3.71994">
        <ele>131.39999389648</ele>
        <time>2021-09-12T07:52:18Z</time>
      </trkpt>
      <trkpt lat="48.37677" lon="-3.71996">
        <ele>131.80000305176</ele>
        <time>2021-09-12T07:52:19Z</time>
      </trkpt>
      <trkpt lat="48.37678" lon="-3.71998">
        <ele>131.80000305176</ele>
        <time>2021-09-12T07:52:20Z</time>
      </trkpt>
      <trkpt lat="48.37679" lon="-3.72001">
        <ele>131.80000305176</ele>
        <time>2021-09-12T07:52:21Z</time>
      </trkpt>
      <trkpt lat="48.37681" lon="-3.72004">
        <ele>132.19999694824</ele>
        <time>2021-09-12T07:52:22Z</time>
      </trkpt>
      <trkpt lat="48.37682" lon="-3.72006">
        <ele>132.60000610352</ele>
        <time>2021-09-12T07:52:23Z</time>
      </trkpt>
      <trkpt lat="48.37683" lon="-3.72009">
        <ele>132.60000610352</ele>
        <time>2021-09-12T07:52:24Z</time>
      </trkpt>
      <trkpt lat="48.37685" lon="-3.72011">
        <ele>132.60000610352</ele>
        <time>2021-09-12T07:52:25Z</time>
      </trkpt>
      <trkpt lat="48.37687" lon="-3.72013">
        <ele>132.60000610352</ele>
        <time>2021-09-12T07:52:26Z</time>
      </trkpt>
      <trkpt lat="48.3769" lon="-3.72016">
        <ele>132.80000305176</ele>
        <time>2021-09-12T07:52:27Z</time>
      </trkpt>
      <trkpt lat="48.37692" lon="-3.72018">
        <ele>133.19999694824</ele>
        <time>2021-09-12T07:52:28Z</time>
      </trkpt>
      <trkpt lat="48.37694" lon="-3.72019">
        <ele>133.19999694824</ele>
        <time>2021-09-12T07:52:29Z</time>
      </trkpt>
      <trkpt lat="48.37695" lon="-3.72021">
        <ele>133.19999694824</ele>
        <time>2021-09-12T07:52:30Z</time>
      </trkpt>
      <trkpt lat="48.37697" lon="-3.72022">
        <ele>133.60000610352</ele>
        <time>2021-09-12T07:52:31Z</time>
      </trkpt>
      <trkpt lat="48.37699" lon="-3.72024">
        <ele>133.60000610352</ele>
        <time>2021-09-12T07:52:32Z</time>
      </trkpt>
      <trkpt lat="48.37701" lon="-3.72026">
        <ele>133.80000305176</ele>
        <time>2021-09-12T07:52:33Z</time>
      </trkpt>
      <trkpt lat="48.37703" lon="-3.72028">
        <ele>133.80000305176</ele>
        <time>2021-09-12T07:52:34Z</time>
      </trkpt>
      <trkpt lat="48.37705" lon="-3.7203">
        <ele>134</ele>
        <time>2021-09-12T07:52:35Z</time>
      </trkpt>
      <trkpt lat="48.37707" lon="-3.72031">
        <ele>134.39999389648</ele>
        <time>2021-09-12T07:52:36Z</time>
      </trkpt>
      <trkpt lat="48.3771" lon="-3.72033">
        <ele>134.39999389648</ele>
        <time>2021-09-12T07:52:37Z</time>
      </trkpt>
      <trkpt lat="48.37712" lon="-3.72034">
        <ele>134.39999389648</ele>
        <time>2021-09-12T07:52:38Z</time>
      </trkpt>
      <trkpt lat="48.37714" lon="-3.72036">
        <ele>134.39999389648</ele>
        <time>2021-09-12T07:52:39Z</time>
      </trkpt>
      <trkpt lat="48.37717" lon="-3.72037">
        <ele>134.39999389648</ele>
        <time>2021-09-12T07:52:40Z</time>
      </trkpt>
      <trkpt lat="48.37719" lon="-3.72039">
        <ele>134.39999389648</ele>
        <time>2021-09-12T07:52:41Z</time>
      </trkpt>
      <trkpt lat="48.37722" lon="-3.7204">
        <ele>134.39999389648</ele>
        <time>2021-09-12T07:52:42Z</time>
      </trkpt>
      <trkpt lat="48.37725" lon="-3.72041">
        <ele>134.39999389648</ele>
        <time>2021-09-12T07:52:43Z</time>
      </trkpt>
      <trkpt lat="48.37728" lon="-3.72042">
        <ele>134.39999389648</ele>
        <time>2021-09-12T07:52:44Z</time>
      </trkpt>
      <trkpt lat="48.3773" lon="-3.72042">
        <ele>134.60000610352</ele>
        <time>2021-09-12T07:52:45Z</time>
      </trkpt>
      <trkpt lat="48.37733" lon="-3.72042">
        <ele>134.60000610352</ele>
        <time>2021-09-12T07:52:46Z</time>
      </trkpt>
      <trkpt lat="48.37736" lon="-3.72043">
        <ele>134.80000305176</ele>
        <time>2021-09-12T07:52:47Z</time>
      </trkpt>
      <trkpt lat="48.37739" lon="-3.72044">
        <ele>134.80000305176</ele>
        <time>2021-09-12T07:52:48Z</time>
      </trkpt>
      <trkpt lat="48.37742" lon="-3.72044">
        <ele>135</ele>
        <time>2021-09-12T07:52:49Z</time>
      </trkpt>
      <trkpt lat="48.37745" lon="-3.72045">
        <ele>135.39999389648</ele>
        <time>2021-09-12T07:52:50Z</time>
      </trkpt>
      <trkpt lat="48.37748" lon="-3.72045">
        <ele>135.39999389648</ele>
        <time>2021-09-12T07:52:51Z</time>
      </trkpt>
      <trkpt lat="48.37751" lon="-3.72045">
        <ele>135.39999389648</ele>
        <time>2021-09-12T07:52:52Z</time>
      </trkpt>
      <trkpt lat="48.37754" lon="-3.72045">
        <ele>135.39999389648</ele>
        <time>2021-09-12T07:52:53Z</time>
      </trkpt>
      <trkpt lat="48.37757" lon="-3.72046">
        <ele>135.39999389648</ele>
        <time>2021-09-12T07:52:54Z</time>
      </trkpt>
      <trkpt lat="48.3776" lon="-3.72046">
        <ele>135.60000610352</ele>
        <time>2021-09-12T07:52:55Z</time>
      </trkpt>
      <trkpt lat="48.37763" lon="-3.72047">
        <ele>136</ele>
        <time>2021-09-12T07:52:56Z</time>
      </trkpt>
      <trkpt lat="48.37766" lon="-3.72048">
        <ele>136.19999694824</ele>
        <time>2021-09-12T07:52:57Z</time>
      </trkpt>
      <trkpt lat="48.37768" lon="-3.72049">
        <ele>136.19999694824</ele>
        <time>2021-09-12T07:52:58Z</time>
      </trkpt>
      <trkpt lat="48.3777" lon="-3.7205">
        <ele>136.39999389648</ele>
        <time>2021-09-12T07:52:59Z</time>
      </trkpt>
      <trkpt lat="48.37773" lon="-3.7205">
        <ele>136.80000305176</ele>
        <time>2021-09-12T07:53:00Z</time>
      </trkpt>
      <trkpt lat="48.37776" lon="-3.72051">
        <ele>137</ele>
        <time>2021-09-12T07:53:01Z</time>
      </trkpt>
      <trkpt lat="48.37778" lon="-3.72052">
        <ele>137</ele>
        <time>2021-09-12T07:53:02Z</time>
      </trkpt>
      <trkpt lat="48.3778" lon="-3.72053">
        <ele>137.19999694824</ele>
        <time>2021-09-12T07:53:03Z</time>
      </trkpt>
      <trkpt lat="48.37782" lon="-3.72053">
        <ele>137.19999694824</ele>
        <time>2021-09-12T07:53:04Z</time>
      </trkpt>
      <trkpt lat="48.37784" lon="-3.72054">
        <ele>137.39999389648</ele>
        <time>2021-09-12T07:53:05Z</time>
      </trkpt>
      <trkpt lat="48.37787" lon="-3.72055">
        <ele>137.60000610352</ele>
        <time>2021-09-12T07:53:06Z</time>
      </trkpt>
      <trkpt lat="48.37789" lon="-3.72056">
        <ele>137.80000305176</ele>
        <time>2021-09-12T07:53:07Z</time>
      </trkpt>
      <trkpt lat="48.37791" lon="-3.72057">
        <ele>138</ele>
        <time>2021-09-12T07:53:08Z</time>
      </trkpt>
      <trkpt lat="48.37794" lon="-3.72059">
        <ele>138</ele>
        <time>2021-09-12T07:53:09Z</time>
      </trkpt>
      <trkpt lat="48.37796" lon="-3.7206">
        <ele>138</ele>
        <time>2021-09-12T07:53:10Z</time>
      </trkpt>
      <trkpt lat="48.37798" lon="-3.72062">
        <ele>138.19999694824</ele>
        <time>2021-09-12T07:53:11Z</time>
      </trkpt>
      <trkpt lat="48.378" lon="-3.72064">
        <ele>138.39999389648</ele>
        <time>2021-09-12T07:53:12Z</time>
      </trkpt>
      <trkpt lat="48.37803" lon="-3.72066">
        <ele>138.39999389648</ele>
        <time>2021-09-12T07:53:13Z</time>
      </trkpt>
      <trkpt lat="48.37804" lon="-3.72068">
        <ele>138.60000610352</ele>
        <time>2021-09-12T07:53:14Z</time>
      </trkpt>
      <trkpt lat="48.37805" lon="-3.72069">
        <ele>138.80000305176</ele>
        <time>2021-09-12T07:53:15Z</time>
      </trkpt>
      <trkpt lat="48.37807" lon="-3.72071">
        <ele>139</ele>
        <time>2021-09-12T07:53:16Z</time>
      </trkpt>
      <trkpt lat="48.37809" lon="-3.72074">
        <ele>139.19999694824</ele>
        <time>2021-09-12T07:53:17Z</time>
      </trkpt>
      <trkpt lat="48.37811" lon="-3.72076">
        <ele>139.39999389648</ele>
        <time>2021-09-12T07:53:18Z</time>
      </trkpt>
      <trkpt lat="48.37812" lon="-3.72079">
        <ele>139.60000610352</ele>
        <time>2021-09-12T07:53:19Z</time>
      </trkpt>
      <trkpt lat="48.37814" lon="-3.72082">
        <ele>139.60000610352</ele>
        <time>2021-09-12T07:53:20Z</time>
      </trkpt>
      <trkpt lat="48.37815" lon="-3.72084">
        <ele>139.80000305176</ele>
        <time>2021-09-12T07:53:21Z</time>
      </trkpt>
      <trkpt lat="48.37817" lon="-3.72087">
        <ele>140</ele>
        <time>2021-09-12T07:53:22Z</time>
      </trkpt>
      <trkpt lat="48.37818" lon="-3.7209">
        <ele>140.39999389648</ele>
        <time>2021-09-12T07:53:23Z</time>
      </trkpt>
      <trkpt lat="48.37819" lon="-3.72094">
        <ele>140.39999389648</ele>
        <time>2021-09-12T07:53:24Z</time>
      </trkpt>
      <trkpt lat="48.37821" lon="-3.72099">
        <ele>140.39999389648</ele>
        <time>2021-09-12T07:53:25Z</time>
      </trkpt>
      <trkpt lat="48.37824" lon="-3.72105">
        <ele>140.60000610352</ele>
        <time>2021-09-12T07:53:26Z</time>
      </trkpt>
      <trkpt lat="48.37826" lon="-3.72109">
        <ele>140.80000305176</ele>
        <time>2021-09-12T07:53:27Z</time>
      </trkpt>
      <trkpt lat="48.37828" lon="-3.72112">
        <ele>141</ele>
        <time>2021-09-12T07:53:28Z</time>
      </trkpt>
      <trkpt lat="48.3783" lon="-3.72116">
        <ele>141.19999694824</ele>
        <time>2021-09-12T07:53:29Z</time>
      </trkpt>
      <trkpt lat="48.37831" lon="-3.72119">
        <ele>141.60000610352</ele>
        <time>2021-09-12T07:53:30Z</time>
      </trkpt>
      <trkpt lat="48.37831" lon="-3.72121">
        <ele>141.60000610352</ele>
        <time>2021-09-12T07:53:31Z</time>
      </trkpt>
      <trkpt lat="48.37831" lon="-3.72123">
        <ele>141.80000305176</ele>
        <time>2021-09-12T07:53:32Z</time>
      </trkpt>
      <trkpt lat="48.37831" lon="-3.72125">
        <ele>142.19999694824</ele>
        <time>2021-09-12T07:53:33Z</time>
      </trkpt>
      <trkpt lat="48.37832" lon="-3.72128">
        <ele>142.39999389648</ele>
        <time>2021-09-12T07:53:34Z</time>
      </trkpt>
      <trkpt lat="48.37833" lon="-3.72131">
        <ele>143</ele>
        <time>2021-09-12T07:53:35Z</time>
      </trkpt>
      <trkpt lat="48.37834" lon="-3.72134">
        <ele>143</ele>
        <time>2021-09-12T07:53:36Z</time>
      </trkpt>
      <trkpt lat="48.37834" lon="-3.72137">
        <ele>143.19999694824</ele>
        <time>2021-09-12T07:53:37Z</time>
      </trkpt>
      <trkpt lat="48.37835" lon="-3.72141">
        <ele>143.39999389648</ele>
        <time>2021-09-12T07:53:38Z</time>
      </trkpt>
      <trkpt lat="48.37836" lon="-3.72144">
        <ele>143.60000610352</ele>
        <time>2021-09-12T07:53:39Z</time>
      </trkpt>
      <trkpt lat="48.37836" lon="-3.72148">
        <ele>143.60000610352</ele>
        <time>2021-09-12T07:53:40Z</time>
      </trkpt>
      <trkpt lat="48.37837" lon="-3.72151">
        <ele>144</ele>
        <time>2021-09-12T07:53:41Z</time>
      </trkpt>
      <trkpt lat="48.37837" lon="-3.72153">
        <ele>144.19999694824</ele>
        <time>2021-09-12T07:53:42Z</time>
      </trkpt>
      <trkpt lat="48.37838" lon="-3.72155">
        <ele>144.19999694824</ele>
        <time>2021-09-12T07:53:43Z</time>
      </trkpt>
      <trkpt lat="48.37838" lon="-3.72158">
        <ele>144.39999389648</ele>
        <time>2021-09-12T07:53:44Z</time>
      </trkpt>
      <trkpt lat="48.37838" lon="-3.72162">
        <ele>144.80000305176</ele>
        <time>2021-09-12T07:53:45Z</time>
      </trkpt>
      <trkpt lat="48.37839" lon="-3.72165">
        <ele>144.80000305176</ele>
        <time>2021-09-12T07:53:46Z</time>
      </trkpt>
      <trkpt lat="48.37839" lon="-3.72168">
        <ele>144.80000305176</ele>
        <time>2021-09-12T07:53:47Z</time>
      </trkpt>
      <trkpt lat="48.37839" lon="-3.72171">
        <ele>145</ele>
        <time>2021-09-12T07:53:48Z</time>
      </trkpt>
      <trkpt lat="48.37839" lon="-3.72175">
        <ele>145.39999389648</ele>
        <time>2021-09-12T07:53:49Z</time>
      </trkpt>
      <trkpt lat="48.37838" lon="-3.72179">
        <ele>145.60000610352</ele>
        <time>2021-09-12T07:53:50Z</time>
      </trkpt>
      <trkpt lat="48.3784" lon="-3.72183">
        <ele>145.60000610352</ele>
        <time>2021-09-12T07:53:51Z</time>
      </trkpt>
      <trkpt lat="48.3784" lon="-3.72187">
        <ele>145.80000305176</ele>
        <time>2021-09-12T07:53:52Z</time>
      </trkpt>
      <trkpt lat="48.3784" lon="-3.72191">
        <ele>145.80000305176</ele>
        <time>2021-09-12T07:53:53Z</time>
      </trkpt>
      <trkpt lat="48.3784" lon="-3.72192">
        <ele>146.19999694824</ele>
        <time>2021-09-12T07:53:54Z</time>
      </trkpt>
      <trkpt lat="48.37839" lon="-3.72195">
        <ele>146.39999389648</ele>
        <time>2021-09-12T07:53:55Z</time>
      </trkpt>
      <trkpt lat="48.37838" lon="-3.72198">
        <ele>146.60000610352</ele>
        <time>2021-09-12T07:53:56Z</time>
      </trkpt>
      <trkpt lat="48.37837" lon="-3.722">
        <ele>146.80000305176</ele>
        <time>2021-09-12T07:53:57Z</time>
      </trkpt>
      <trkpt lat="48.37836" lon="-3.72203">
        <ele>146.80000305176</ele>
        <time>2021-09-12T07:53:58Z</time>
      </trkpt>
      <trkpt lat="48.37835" lon="-3.72205">
        <ele>147.19999694824</ele>
        <time>2021-09-12T07:53:59Z</time>
      </trkpt>
      <trkpt lat="48.37835" lon="-3.72207">
        <ele>147.60000610352</ele>
        <time>2021-09-12T07:54:00Z</time>
      </trkpt>
      <trkpt lat="48.37833" lon="-3.72208">
        <ele>148</ele>
        <time>2021-09-12T07:54:01Z</time>
      </trkpt>
      <trkpt lat="48.37831" lon="-3.72209">
        <ele>148.39999389648</ele>
        <time>2021-09-12T07:54:02Z</time>
      </trkpt>
      <trkpt lat="48.37829" lon="-3.72208">
        <ele>148.60000610352</ele>
        <time>2021-09-12T07:54:03Z</time>
      </trkpt>
      <trkpt lat="48.37828" lon="-3.72209">
        <ele>148.80000305176</ele>
        <time>2021-09-12T07:54:04Z</time>
      </trkpt>
      <trkpt lat="48.37828" lon="-3.72209">
        <ele>148.80000305176</ele>
        <time>2021-09-12T07:54:05Z</time>
      </trkpt>
      <trkpt lat="48.37828" lon="-3.72209">
        <ele>149.39999389648</ele>
        <time>2021-09-12T07:54:06Z</time>
      </trkpt>
      <trkpt lat="48.37827" lon="-3.7221">
        <ele>149.60000610352</ele>
        <time>2021-09-12T07:54:07Z</time>
      </trkpt>
      <trkpt lat="48.37826" lon="-3.72211">
        <ele>149.80000305176</ele>
        <time>2021-09-12T07:54:08Z</time>
      </trkpt>
      <trkpt lat="48.37826" lon="-3.72212">
        <ele>150.19999694824</ele>
        <time>2021-09-12T07:54:09Z</time>
      </trkpt>
      <trkpt lat="48.37824" lon="-3.72213">
        <ele>150.39999389648</ele>
        <time>2021-09-12T07:54:10Z</time>
      </trkpt>
      <trkpt lat="48.37823" lon="-3.72214">
        <ele>150.39999389648</ele>
        <time>2021-09-12T07:54:11Z</time>
      </trkpt>
      <trkpt lat="48.37821" lon="-3.72215">
        <ele>150.80000305176</ele>
        <time>2021-09-12T07:54:12Z</time>
      </trkpt>
      <trkpt lat="48.37819" lon="-3.72215">
        <ele>151.19999694824</ele>
        <time>2021-09-12T07:54:13Z</time>
      </trkpt>
      <trkpt lat="48.37819" lon="-3.72215">
        <ele>151.80000305176</ele>
        <time>2021-09-12T07:54:14Z</time>
      </trkpt>
      <trkpt lat="48.37818" lon="-3.72215">
        <ele>152</ele>
        <time>2021-09-12T07:54:15Z</time>
      </trkpt>
      <trkpt lat="48.37817" lon="-3.72215">
        <ele>152.19999694824</ele>
        <time>2021-09-12T07:54:16Z</time>
      </trkpt>
      <trkpt lat="48.37816" lon="-3.72216">
        <ele>152.39999389648</ele>
        <time>2021-09-12T07:54:17Z</time>
      </trkpt>
      <trkpt lat="48.37814" lon="-3.72217">
        <ele>152.80000305176</ele>
        <time>2021-09-12T07:54:18Z</time>
      </trkpt>
      <trkpt lat="48.37813" lon="-3.72217">
        <ele>152.80000305176</ele>
        <time>2021-09-12T07:54:19Z</time>
      </trkpt>
      <trkpt lat="48.37811" lon="-3.72218">
        <ele>153</ele>
        <time>2021-09-12T07:54:20Z</time>
      </trkpt>
      <trkpt lat="48.3781" lon="-3.72219">
        <ele>153.19999694824</ele>
        <time>2021-09-12T07:54:21Z</time>
      </trkpt>
      <trkpt lat="48.37809" lon="-3.7222">
        <ele>153.60000610352</ele>
        <time>2021-09-12T07:54:22Z</time>
      </trkpt>
      <trkpt lat="48.37808" lon="-3.7222">
        <ele>154</ele>
        <time>2021-09-12T07:54:23Z</time>
      </trkpt>
      <trkpt lat="48.37808" lon="-3.7222">
        <ele>154</ele>
        <time>2021-09-12T07:54:24Z</time>
      </trkpt>
      <trkpt lat="48.37806" lon="-3.72221">
        <ele>154.39999389648</ele>
        <time>2021-09-12T07:54:25Z</time>
      </trkpt>
      <trkpt lat="48.37804" lon="-3.72221">
        <ele>154.60000610352</ele>
        <time>2021-09-12T07:54:26Z</time>
      </trkpt>
      <trkpt lat="48.37802" lon="-3.72221">
        <ele>155.19999694824</ele>
        <time>2021-09-12T07:54:27Z</time>
      </trkpt>
      <trkpt lat="48.37801" lon="-3.72221">
        <ele>155.19999694824</ele>
        <time>2021-09-12T07:54:28Z</time>
      </trkpt>
      <trkpt lat="48.37799" lon="-3.72222">
        <ele>155.80000305176</ele>
        <time>2021-09-12T07:54:29Z</time>
      </trkpt>
      <trkpt lat="48.37798" lon="-3.72222">
        <ele>156</ele>
        <time>2021-09-12T07:54:30Z</time>
      </trkpt>
      <trkpt lat="48.37797" lon="-3.72223">
        <ele>156.19999694824</ele>
        <time>2021-09-12T07:54:31Z</time>
      </trkpt>
      <trkpt lat="48.37795" lon="-3.72223">
        <ele>156.60000610352</ele>
        <time>2021-09-12T07:54:32Z</time>
      </trkpt>
      <trkpt lat="48.37794" lon="-3.72224">
        <ele>157</ele>
        <time>2021-09-12T07:54:33Z</time>
      </trkpt>
      <trkpt lat="48.37794" lon="-3.72225">
        <ele>157</ele>
        <time>2021-09-12T07:54:34Z</time>
      </trkpt>
      <trkpt lat="48.37793" lon="-3.72226">
        <ele>157.39999389648</ele>
        <time>2021-09-12T07:54:35Z</time>
      </trkpt>
      <trkpt lat="48.37792" lon="-3.72226">
        <ele>157.80000305176</ele>
        <time>2021-09-12T07:54:36Z</time>
      </trkpt>
      <trkpt lat="48.37791" lon="-3.72227">
        <ele>158</ele>
        <time>2021-09-12T07:54:37Z</time>
      </trkpt>
      <trkpt lat="48.37789" lon="-3.72229">
        <ele>158.19999694824</ele>
        <time>2021-09-12T07:54:38Z</time>
      </trkpt>
      <trkpt lat="48.37788" lon="-3.72231">
        <ele>158.39999389648</ele>
        <time>2021-09-12T07:54:39Z</time>
      </trkpt>
      <trkpt lat="48.37787" lon="-3.72232">
        <ele>158.80000305176</ele>
        <time>2021-09-12T07:54:40Z</time>
      </trkpt>
      <trkpt lat="48.37785" lon="-3.72233">
        <ele>159.19999694824</ele>
        <time>2021-09-12T07:54:41Z</time>
      </trkpt>
      <trkpt lat="48.37783" lon="-3.72234">
        <ele>159.39999389648</ele>
        <time>2021-09-12T07:54:42Z</time>
      </trkpt>
      <trkpt lat="48.37782" lon="-3.72234">
        <ele>159.60000610352</ele>
        <time>2021-09-12T07:54:43Z</time>
      </trkpt>
      <trkpt lat="48.3778" lon="-3.72234">
        <ele>160</ele>
        <time>2021-09-12T07:54:44Z</time>
      </trkpt>
      <trkpt lat="48.37779" lon="-3.72235">
        <ele>160</ele>
        <time>2021-09-12T07:54:45Z</time>
      </trkpt>
      <trkpt lat="48.37778" lon="-3.72236">
        <ele>160.39999389648</ele>
        <time>2021-09-12T07:54:46Z</time>
      </trkpt>
      <trkpt lat="48.37777" lon="-3.72236">
        <ele>161</ele>
        <time>2021-09-12T07:54:47Z</time>
      </trkpt>
      <trkpt lat="48.37777" lon="-3.72236">
        <ele>161</ele>
        <time>2021-09-12T07:54:48Z</time>
      </trkpt>
      <trkpt lat="48.37777" lon="-3.72237">
        <ele>161.19999694824</ele>
        <time>2021-09-12T07:54:49Z</time>
      </trkpt>
      <trkpt lat="48.37775" lon="-3.72236">
        <ele>161.60000610352</ele>
        <time>2021-09-12T07:54:50Z</time>
      </trkpt>
      <trkpt lat="48.37774" lon="-3.72237">
        <ele>161.80000305176</ele>
        <time>2021-09-12T07:54:51Z</time>
      </trkpt>
      <trkpt lat="48.37773" lon="-3.72238">
        <ele>162</ele>
        <time>2021-09-12T07:54:52Z</time>
      </trkpt>
      <trkpt lat="48.37772" lon="-3.72239">
        <ele>162.39999389648</ele>
        <time>2021-09-12T07:54:53Z</time>
      </trkpt>
      <trkpt lat="48.37771" lon="-3.72239">
        <ele>162.39999389648</ele>
        <time>2021-09-12T07:54:54Z</time>
      </trkpt>
      <trkpt lat="48.37769" lon="-3.72239">
        <ele>162.80000305176</ele>
        <time>2021-09-12T07:54:55Z</time>
      </trkpt>
      <trkpt lat="48.37769" lon="-3.72239">
        <ele>163.19999694824</ele>
        <time>2021-09-12T07:54:56Z</time>
      </trkpt>
      <trkpt lat="48.37767" lon="-3.7224">
        <ele>163.39999389648</ele>
        <time>2021-09-12T07:54:57Z</time>
      </trkpt>
      <trkpt lat="48.37765" lon="-3.7224">
        <ele>163.39999389648</ele>
        <time>2021-09-12T07:54:58Z</time>
      </trkpt>
      <trkpt lat="48.37762" lon="-3.7224">
        <ele>163.80000305176</ele>
        <time>2021-09-12T07:54:59Z</time>
      </trkpt>
      <trkpt lat="48.37759" lon="-3.7224">
        <ele>164.19999694824</ele>
        <time>2021-09-12T07:55:00Z</time>
      </trkpt>
      <trkpt lat="48.37759" lon="-3.72241">
        <ele>164.80000305176</ele>
        <time>2021-09-12T07:55:01Z</time>
      </trkpt>
      <trkpt lat="48.37759" lon="-3.72242">
        <ele>165</ele>
        <time>2021-09-12T07:55:02Z</time>
      </trkpt>
      <trkpt lat="48.37757" lon="-3.72242">
        <ele>165.19999694824</ele>
        <time>2021-09-12T07:55:03Z</time>
      </trkpt>
      <trkpt lat="48.37755" lon="-3.72242">
        <ele>165.60000610352</ele>
        <time>2021-09-12T07:55:04Z</time>
      </trkpt>
      <trkpt lat="48.37753" lon="-3.72241">
        <ele>166.19999694824</ele>
        <time>2021-09-12T07:55:05Z</time>
      </trkpt>
      <trkpt lat="48.3775" lon="-3.7224">
        <ele>166.19999694824</ele>
        <time>2021-09-12T07:55:06Z</time>
      </trkpt>
      <trkpt lat="48.37748" lon="-3.7224">
        <ele>166.39999389648</ele>
        <time>2021-09-12T07:55:07Z</time>
      </trkpt>
      <trkpt lat="48.37746" lon="-3.72241">
        <ele>166.80000305176</ele>
        <time>2021-09-12T07:55:08Z</time>
      </trkpt>
      <trkpt lat="48.37746" lon="-3.72243">
        <ele>167</ele>
        <time>2021-09-12T07:55:09Z</time>
      </trkpt>
      <trkpt lat="48.37745" lon="-3.72244">
        <ele>167.39999389648</ele>
        <time>2021-09-12T07:55:10Z</time>
      </trkpt>
      <trkpt lat="48.37744" lon="-3.72245">
        <ele>167.60000610352</ele>
        <time>2021-09-12T07:55:11Z</time>
      </trkpt>
      <trkpt lat="48.37743" lon="-3.72245">
        <ele>167.80000305176</ele>
        <time>2021-09-12T07:55:12Z</time>
      </trkpt>
      <trkpt lat="48.37742" lon="-3.72246">
        <ele>168.19999694824</ele>
        <time>2021-09-12T07:55:13Z</time>
      </trkpt>
      <trkpt lat="48.37741" lon="-3.72246">
        <ele>168.39999389648</ele>
        <time>2021-09-12T07:55:14Z</time>
      </trkpt>
      <trkpt lat="48.3774" lon="-3.72246">
        <ele>168.39999389648</ele>
        <time>2021-09-12T07:55:15Z</time>
      </trkpt>
      <trkpt lat="48.37739" lon="-3.72247">
        <ele>168.80000305176</ele>
        <time>2021-09-12T07:55:16Z</time>
      </trkpt>
      <trkpt lat="48.37737" lon="-3.72248">
        <ele>169</ele>
        <time>2021-09-12T07:55:17Z</time>
      </trkpt>
      <trkpt lat="48.37736" lon="-3.72249">
        <ele>169.19999694824</ele>
        <time>2021-09-12T07:55:18Z</time>
      </trkpt>
      <trkpt lat="48.37735" lon="-3.7225">
        <ele>169.39999389648</ele>
        <time>2021-09-12T07:55:19Z</time>
      </trkpt>
      <trkpt lat="48.37735" lon="-3.7225">
        <ele>169.60000610352</ele>
        <time>2021-09-12T07:55:20Z</time>
      </trkpt>
      <trkpt lat="48.37733" lon="-3.72251">
        <ele>169.80000305176</ele>
        <time>2021-09-12T07:55:21Z</time>
      </trkpt>
      <trkpt lat="48.37732" lon="-3.72251">
        <ele>170</ele>
        <time>2021-09-12T07:55:22Z</time>
      </trkpt>
      <trkpt lat="48.3773" lon="-3.72252">
        <ele>170.19999694824</ele>
        <time>2021-09-12T07:55:23Z</time>
      </trkpt>
      <trkpt lat="48.37729" lon="-3.72252">
        <ele>170.39999389648</ele>
        <time>2021-09-12T07:55:24Z</time>
      </trkpt>
      <trkpt lat="48.37727" lon="-3.72253">
        <ele>170.60000610352</ele>
        <time>2021-09-12T07:55:25Z</time>
      </trkpt>
      <trkpt lat="48.37726" lon="-3.72254">
        <ele>170.60000610352</ele>
        <time>2021-09-12T07:55:26Z</time>
      </trkpt>
      <trkpt lat="48.37724" lon="-3.72254">
        <ele>170.80000305176</ele>
        <time>2021-09-12T07:55:27Z</time>
      </trkpt>
      <trkpt lat="48.37723" lon="-3.72255">
        <ele>171</ele>
        <time>2021-09-12T07:55:28Z</time>
      </trkpt>
      <trkpt lat="48.3772" lon="-3.72256">
        <ele>171.19999694824</ele>
        <time>2021-09-12T07:55:29Z</time>
      </trkpt>
      <trkpt lat="48.37719" lon="-3.72256">
        <ele>171.19999694824</ele>
        <time>2021-09-12T07:55:30Z</time>
      </trkpt>
      <trkpt lat="48.37717" lon="-3.72257">
        <ele>171.39999389648</ele>
        <time>2021-09-12T07:55:31Z</time>
      </trkpt>
      <trkpt lat="48.37715" lon="-3.72257">
        <ele>171.60000610352</ele>
        <time>2021-09-12T07:55:32Z</time>
      </trkpt>
      <trkpt lat="48.37712" lon="-3.72257">
        <ele>171.60000610352</ele>
        <time>2021-09-12T07:55:33Z</time>
      </trkpt>
      <trkpt lat="48.3771" lon="-3.72257">
        <ele>171.80000305176</ele>
        <time>2021-09-12T07:55:34Z</time>
      </trkpt>
      <trkpt lat="48.37708" lon="-3.72258">
        <ele>172.19999694824</ele>
        <time>2021-09-12T07:55:35Z</time>
      </trkpt>
      <trkpt lat="48.37705" lon="-3.72258">
        <ele>172.19999694824</ele>
        <time>2021-09-12T07:55:36Z</time>
      </trkpt>
      <trkpt lat="48.37701" lon="-3.72259">
        <ele>172.39999389648</ele>
        <time>2021-09-12T07:55:37Z</time>
      </trkpt>
      <trkpt lat="48.37698" lon="-3.72259">
        <ele>172.39999389648</ele>
        <time>2021-09-12T07:55:38Z</time>
      </trkpt>
      <trkpt lat="48.37696" lon="-3.72259">
        <ele>172.39999389648</ele>
        <time>2021-09-12T07:55:39Z</time>
      </trkpt>
      <trkpt lat="48.37694" lon="-3.7226">
        <ele>172.60000610352</ele>
        <time>2021-09-12T07:55:40Z</time>
      </trkpt>
      <trkpt lat="48.37691" lon="-3.72262">
        <ele>172.80000305176</ele>
        <time>2021-09-12T07:55:41Z</time>
      </trkpt>
      <trkpt lat="48.37688" lon="-3.72263">
        <ele>173</ele>
        <time>2021-09-12T07:55:42Z</time>
      </trkpt>
      <trkpt lat="48.37685" lon="-3.72265">
        <ele>173</ele>
        <time>2021-09-12T07:55:43Z</time>
      </trkpt>
      <trkpt lat="48.37683" lon="-3.72266">
        <ele>173</ele>
        <time>2021-09-12T07:55:44Z</time>
      </trkpt>
      <trkpt lat="48.3768" lon="-3.72268">
        <ele>173</ele>
        <time>2021-09-12T07:55:45Z</time>
      </trkpt>
      <trkpt lat="48.37677" lon="-3.7227">
        <ele>173.19999694824</ele>
        <time>2021-09-12T07:55:46Z</time>
      </trkpt>
      <trkpt lat="48.37675" lon="-3.72272">
        <ele>173.39999389648</ele>
        <time>2021-09-12T07:55:47Z</time>
      </trkpt>
      <trkpt lat="48.37672" lon="-3.72274">
        <ele>173.60000610352</ele>
        <time>2021-09-12T07:55:48Z</time>
      </trkpt>
      <trkpt lat="48.3767" lon="-3.72276">
        <ele>173.60000610352</ele>
        <time>2021-09-12T07:55:49Z</time>
      </trkpt>
      <trkpt lat="48.37669" lon="-3.7228">
        <ele>173.60000610352</ele>
        <time>2021-09-12T07:55:50Z</time>
      </trkpt>
      <trkpt lat="48.37669" lon="-3.72284">
        <ele>174</ele>
        <time>2021-09-12T07:55:51Z</time>
      </trkpt>
      <trkpt lat="48.37671" lon="-3.72286">
        <ele>174.39999389648</ele>
        <time>2021-09-12T07:55:52Z</time>
      </trkpt>
      <trkpt lat="48.37673" lon="-3.72287">
        <ele>174.39999389648</ele>
        <time>2021-09-12T07:55:53Z</time>
      </trkpt>
      <trkpt lat="48.37676" lon="-3.72288">
        <ele>174.60000610352</ele>
        <time>2021-09-12T07:55:54Z</time>
      </trkpt>
      <trkpt lat="48.37678" lon="-3.72288">
        <ele>174.60000610352</ele>
        <time>2021-09-12T07:55:55Z</time>
      </trkpt>
      <trkpt lat="48.37681" lon="-3.72288">
        <ele>174.80000305176</ele>
        <time>2021-09-12T07:55:56Z</time>
      </trkpt>
      <trkpt lat="48.37685" lon="-3.72288">
        <ele>174.80000305176</ele>
        <time>2021-09-12T07:55:57Z</time>
      </trkpt>
      <trkpt lat="48.37688" lon="-3.72287">
        <ele>174.80000305176</ele>
        <time>2021-09-12T07:55:58Z</time>
      </trkpt>
      <trkpt lat="48.3769" lon="-3.72287">
        <ele>174.60000610352</ele>
        <time>2021-09-12T07:55:59Z</time>
      </trkpt>
      <trkpt lat="48.37694" lon="-3.72287">
        <ele>174.80000305176</ele>
        <time>2021-09-12T07:56:00Z</time>
      </trkpt>
      <trkpt lat="48.37698" lon="-3.72287">
        <ele>174.60000610352</ele>
        <time>2021-09-12T07:56:01Z</time>
      </trkpt>
      <trkpt lat="48.37702" lon="-3.72289">
        <ele>174.60000610352</ele>
        <time>2021-09-12T07:56:02Z</time>
      </trkpt>
      <trkpt lat="48.37706" lon="-3.7229">
        <ele>174.60000610352</ele>
        <time>2021-09-12T07:56:03Z</time>
      </trkpt>
      <trkpt lat="48.37709" lon="-3.7229">
        <ele>174.60000610352</ele>
        <time>2021-09-12T07:56:04Z</time>
      </trkpt>
      <trkpt lat="48.37712" lon="-3.72291">
        <ele>174.60000610352</ele>
        <time>2021-09-12T07:56:05Z</time>
      </trkpt>
      <trkpt lat="48.37716" lon="-3.72291">
        <ele>174.60000610352</ele>
        <time>2021-09-12T07:56:06Z</time>
      </trkpt>
      <trkpt lat="48.37719" lon="-3.72292">
        <ele>174.39999389648</ele>
        <time>2021-09-12T07:56:07Z</time>
      </trkpt>
      <trkpt lat="48.37723" lon="-3.72293">
        <ele>174.19999694824</ele>
        <time>2021-09-12T07:56:08Z</time>
      </trkpt>
      <trkpt lat="48.37728" lon="-3.72295">
        <ele>174.19999694824</ele>
        <time>2021-09-12T07:56:09Z</time>
      </trkpt>
      <trkpt lat="48.37732" lon="-3.72296">
        <ele>174.19999694824</ele>
        <time>2021-09-12T07:56:10Z</time>
      </trkpt>
      <trkpt lat="48.37736" lon="-3.72297">
        <ele>174</ele>
        <time>2021-09-12T07:56:11Z</time>
      </trkpt>
      <trkpt lat="48.3774" lon="-3.72298">
        <ele>174</ele>
        <time>2021-09-12T07:56:12Z</time>
      </trkpt>
      <trkpt lat="48.37745" lon="-3.72299">
        <ele>174</ele>
        <time>2021-09-12T07:56:13Z</time>
      </trkpt>
      <trkpt lat="48.37748" lon="-3.723">
        <ele>174</ele>
        <time>2021-09-12T07:56:14Z</time>
      </trkpt>
      <trkpt lat="48.37754" lon="-3.72302">
        <ele>174</ele>
        <time>2021-09-12T07:56:15Z</time>
      </trkpt>
      <trkpt lat="48.37759" lon="-3.72303">
        <ele>173.80000305176</ele>
        <time>2021-09-12T07:56:16Z</time>
      </trkpt>
      <trkpt lat="48.37764" lon="-3.72304">
        <ele>173.80000305176</ele>
        <time>2021-09-12T07:56:17Z</time>
      </trkpt>
      <trkpt lat="48.37768" lon="-3.72304">
        <ele>173.80000305176</ele>
        <time>2021-09-12T07:56:18Z</time>
      </trkpt>
      <trkpt lat="48.37772" lon="-3.72304">
        <ele>173.80000305176</ele>
        <time>2021-09-12T07:56:19Z</time>
      </trkpt>
      <trkpt lat="48.37777" lon="-3.72305">
        <ele>173.80000305176</ele>
        <time>2021-09-12T07:56:20Z</time>
      </trkpt>
      <trkpt lat="48.37784" lon="-3.72308">
        <ele>173.60000610352</ele>
        <time>2021-09-12T07:56:21Z</time>
      </trkpt>
      <trkpt lat="48.37788" lon="-3.72309">
        <ele>173.39999389648</ele>
        <time>2021-09-12T07:56:22Z</time>
      </trkpt>
      <trkpt lat="48.37794" lon="-3.7231">
        <ele>173.19999694824</ele>
        <time>2021-09-12T07:56:23Z</time>
      </trkpt>
      <trkpt lat="48.378" lon="-3.7231">
        <ele>173.19999694824</ele>
        <time>2021-09-12T07:56:24Z</time>
      </trkpt>
      <trkpt lat="48.37806" lon="-3.72311">
        <ele>172.80000305176</ele>
        <time>2021-09-12T07:56:25Z</time>
      </trkpt>
      <trkpt lat="48.37812" lon="-3.72311">
        <ele>172.39999389648</ele>
        <time>2021-09-12T07:56:26Z</time>
      </trkpt>
      <trkpt lat="48.37821" lon="-3.72313">
        <ele>172.19999694824</ele>
        <time>2021-09-12T07:56:27Z</time>
      </trkpt>
      <trkpt lat="48.37827" lon="-3.72317">
        <ele>171.60000610352</ele>
        <time>2021-09-12T07:56:28Z</time>
      </trkpt>
      <trkpt lat="48.37833" lon="-3.72321">
        <ele>171.39999389648</ele>
        <time>2021-09-12T07:56:29Z</time>
      </trkpt>
      <trkpt lat="48.37838" lon="-3.72323">
        <ele>171.19999694824</ele>
        <time>2021-09-12T07:56:30Z</time>
      </trkpt>
      <trkpt lat="48.37843" lon="-3.72325">
        <ele>171.19999694824</ele>
        <time>2021-09-12T07:56:31Z</time>
      </trkpt>
      <trkpt lat="48.37848" lon="-3.72329">
        <ele>171</ele>
        <time>2021-09-12T07:56:32Z</time>
      </trkpt>
      <trkpt lat="48.37852" lon="-3.72332">
        <ele>170.80000305176</ele>
        <time>2021-09-12T07:56:33Z</time>
      </trkpt>
      <trkpt lat="48.37859" lon="-3.72337">
        <ele>170.80000305176</ele>
        <time>2021-09-12T07:56:34Z</time>
      </trkpt>
      <trkpt lat="48.37863" lon="-3.7234">
        <ele>170.80000305176</ele>
        <time>2021-09-12T07:56:35Z</time>
      </trkpt>
      <trkpt lat="48.37869" lon="-3.72343">
        <ele>171</ele>
        <time>2021-09-12T07:56:36Z</time>
      </trkpt>
      <trkpt lat="48.37872" lon="-3.72345">
        <ele>171</ele>
        <time>2021-09-12T07:56:37Z</time>
      </trkpt>
      <trkpt lat="48.37875" lon="-3.72347">
        <ele>171.19999694824</ele>
        <time>2021-09-12T07:56:38Z</time>
      </trkpt>
      <trkpt lat="48.37879" lon="-3.7235">
        <ele>171.60000610352</ele>
        <time>2021-09-12T07:56:39Z</time>
      </trkpt>
      <trkpt lat="48.37883" lon="-3.72352">
        <ele>171.80000305176</ele>
        <time>2021-09-12T07:56:40Z</time>
      </trkpt>
      <trkpt lat="48.37888" lon="-3.72356">
        <ele>172.19999694824</ele>
        <time>2021-09-12T07:56:41Z</time>
      </trkpt>
      <trkpt lat="48.37892" lon="-3.72358">
        <ele>172.60000610352</ele>
        <time>2021-09-12T07:56:42Z</time>
      </trkpt>
      <trkpt lat="48.37894" lon="-3.72361">
        <ele>172.60000610352</ele>
        <time>2021-09-12T07:56:43Z</time>
      </trkpt>
      <trkpt lat="48.37897" lon="-3.72363">
        <ele>172.80000305176</ele>
        <time>2021-09-12T07:56:44Z</time>
      </trkpt>
      <trkpt lat="48.379" lon="-3.72367">
        <ele>173.19999694824</ele>
        <time>2021-09-12T07:56:45Z</time>
      </trkpt>
      <trkpt lat="48.37903" lon="-3.7237">
        <ele>173.19999694824</ele>
        <time>2021-09-12T07:56:46Z</time>
      </trkpt>
      <trkpt lat="48.37907" lon="-3.72375">
        <ele>173.60000610352</ele>
        <time>2021-09-12T07:56:47Z</time>
      </trkpt>
      <trkpt lat="48.37909" lon="-3.72378">
        <ele>173.80000305176</ele>
        <time>2021-09-12T07:56:48Z</time>
      </trkpt>
      <trkpt lat="48.37912" lon="-3.72381">
        <ele>173.80000305176</ele>
        <time>2021-09-12T07:56:49Z</time>
      </trkpt>
      <trkpt lat="48.37915" lon="-3.72384">
        <ele>174.19999694824</ele>
        <time>2021-09-12T07:56:50Z</time>
      </trkpt>
      <trkpt lat="48.37919" lon="-3.72389">
        <ele>174.39999389648</ele>
        <time>2021-09-12T07:56:51Z</time>
      </trkpt>
      <trkpt lat="48.37923" lon="-3.72393">
        <ele>174.60000610352</ele>
        <time>2021-09-12T07:56:52Z</time>
      </trkpt>
      <trkpt lat="48.37925" lon="-3.72396">
        <ele>174.80000305176</ele>
        <time>2021-09-12T07:56:53Z</time>
      </trkpt>
      <trkpt lat="48.37928" lon="-3.72401">
        <ele>174.80000305176</ele>
        <time>2021-09-12T07:56:54Z</time>
      </trkpt>
      <trkpt lat="48.37932" lon="-3.72405">
        <ele>175</ele>
        <time>2021-09-12T07:56:55Z</time>
      </trkpt>
      <trkpt lat="48.37935" lon="-3.72409">
        <ele>175.19999694824</ele>
        <time>2021-09-12T07:56:56Z</time>
      </trkpt>
      <trkpt lat="48.37939" lon="-3.72415">
        <ele>175.80000305176</ele>
        <time>2021-09-12T07:56:57Z</time>
      </trkpt>
      <trkpt lat="48.37941" lon="-3.72418">
        <ele>175.80000305176</ele>
        <time>2021-09-12T07:56:58Z</time>
      </trkpt>
      <trkpt lat="48.37945" lon="-3.72421">
        <ele>175.80000305176</ele>
        <time>2021-09-12T07:56:59Z</time>
      </trkpt>
      <trkpt lat="48.3795" lon="-3.72425">
        <ele>176</ele>
        <time>2021-09-12T07:57:00Z</time>
      </trkpt>
      <trkpt lat="48.37953" lon="-3.72428">
        <ele>176</ele>
        <time>2021-09-12T07:57:01Z</time>
      </trkpt>
      <trkpt lat="48.37955" lon="-3.72431">
        <ele>176</ele>
        <time>2021-09-12T07:57:02Z</time>
      </trkpt>
      <trkpt lat="48.37958" lon="-3.72434">
        <ele>176</ele>
        <time>2021-09-12T07:57:03Z</time>
      </trkpt>
      <trkpt lat="48.37961" lon="-3.72437">
        <ele>176</ele>
        <time>2021-09-12T07:57:04Z</time>
      </trkpt>
      <trkpt lat="48.37965" lon="-3.7244">
        <ele>176</ele>
        <time>2021-09-12T07:57:05Z</time>
      </trkpt>
      <trkpt lat="48.37969" lon="-3.72442">
        <ele>176</ele>
        <time>2021-09-12T07:57:06Z</time>
      </trkpt>
      <trkpt lat="48.37973" lon="-3.72445">
        <ele>175.80000305176</ele>
        <time>2021-09-12T07:57:07Z</time>
      </trkpt>
      <trkpt lat="48.37976" lon="-3.72447">
        <ele>175.80000305176</ele>
        <time>2021-09-12T07:57:08Z</time>
      </trkpt>
      <trkpt lat="48.37981" lon="-3.7245">
        <ele>175.80000305176</ele>
        <time>2021-09-12T07:57:09Z</time>
      </trkpt>
      <trkpt lat="48.37986" lon="-3.72454">
        <ele>175.80000305176</ele>
        <time>2021-09-12T07:57:10Z</time>
      </trkpt>
      <trkpt lat="48.3799" lon="-3.72457">
        <ele>175.80000305176</ele>
        <time>2021-09-12T07:57:11Z</time>
      </trkpt>
      <trkpt lat="48.37994" lon="-3.72461">
        <ele>175.80000305176</ele>
        <time>2021-09-12T07:57:12Z</time>
      </trkpt>
      <trkpt lat="48.37998" lon="-3.72464">
        <ele>176</ele>
        <time>2021-09-12T07:57:13Z</time>
      </trkpt>
      <trkpt lat="48.38002" lon="-3.72468">
        <ele>176</ele>
        <time>2021-09-12T07:57:14Z</time>
      </trkpt>
      <trkpt lat="48.38005" lon="-3.72472">
        <ele>176</ele>
        <time>2021-09-12T07:57:15Z</time>
      </trkpt>
      <trkpt lat="48.3801" lon="-3.72478">
        <ele>176</ele>
        <time>2021-09-12T07:57:16Z</time>
      </trkpt>
      <trkpt lat="48.38013" lon="-3.72483">
        <ele>176</ele>
        <time>2021-09-12T07:57:17Z</time>
      </trkpt>
      <trkpt lat="48.38017" lon="-3.72491">
        <ele>175.19999694824</ele>
        <time>2021-09-12T07:57:18Z</time>
      </trkpt>
      <trkpt lat="48.38021" lon="-3.72502">
        <ele>174.60000610352</ele>
        <time>2021-09-12T07:57:19Z</time>
      </trkpt>
      <trkpt lat="48.38023" lon="-3.72514">
        <ele>173.60000610352</ele>
        <time>2021-09-12T07:57:20Z</time>
      </trkpt>
      <trkpt lat="48.38026" lon="-3.72528">
        <ele>172.60000610352</ele>
        <time>2021-09-12T07:57:21Z</time>
      </trkpt>
      <trkpt lat="48.38029" lon="-3.7254">
        <ele>170.80000305176</ele>
        <time>2021-09-12T07:57:22Z</time>
      </trkpt>
      <trkpt lat="48.38032" lon="-3.72552">
        <ele>170.80000305176</ele>
        <time>2021-09-12T07:57:23Z</time>
      </trkpt>
      <trkpt lat="48.38036" lon="-3.72565">
        <ele>169</ele>
        <time>2021-09-12T07:57:24Z</time>
      </trkpt>
      <trkpt lat="48.3804" lon="-3.72577">
        <ele>168.80000305176</ele>
        <time>2021-09-12T07:57:25Z</time>
      </trkpt>
      <trkpt lat="48.38047" lon="-3.72589">
        <ele>168.39999389648</ele>
        <time>2021-09-12T07:57:26Z</time>
      </trkpt>
      <trkpt lat="48.38053" lon="-3.72595">
        <ele>168.19999694824</ele>
        <time>2021-09-12T07:57:27Z</time>
      </trkpt>
      <trkpt lat="48.38061" lon="-3.72602">
        <ele>168</ele>
        <time>2021-09-12T07:57:28Z</time>
      </trkpt>
      <trkpt lat="48.38071" lon="-3.72608">
        <ele>167.80000305176</ele>
        <time>2021-09-12T07:57:29Z</time>
      </trkpt>
      <trkpt lat="48.3808" lon="-3.72615">
        <ele>167.39999389648</ele>
        <time>2021-09-12T07:57:30Z</time>
      </trkpt>
      <trkpt lat="48.38089" lon="-3.72623">
        <ele>166.80000305176</ele>
        <time>2021-09-12T07:57:31Z</time>
      </trkpt>
      <trkpt lat="48.38097" lon="-3.72629">
        <ele>166.80000305176</ele>
        <time>2021-09-12T07:57:32Z</time>
      </trkpt>
      <trkpt lat="48.38104" lon="-3.72635">
        <ele>166.39999389648</ele>
        <time>2021-09-12T07:57:33Z</time>
      </trkpt>
      <trkpt lat="48.38112" lon="-3.7264">
        <ele>166.39999389648</ele>
        <time>2021-09-12T07:57:34Z</time>
      </trkpt>
      <trkpt lat="48.3812" lon="-3.72644">
        <ele>166.39999389648</ele>
        <time>2021-09-12T07:57:35Z</time>
      </trkpt>
      <trkpt lat="48.38125" lon="-3.72644">
        <ele>166.39999389648</ele>
        <time>2021-09-12T07:57:36Z</time>
      </trkpt>
      <trkpt lat="48.38131" lon="-3.72646">
        <ele>166.39999389648</ele>
        <time>2021-09-12T07:57:37Z</time>
      </trkpt>
      <trkpt lat="48.38135" lon="-3.72648">
        <ele>166.60000610352</ele>
        <time>2021-09-12T07:57:38Z</time>
      </trkpt>
      <trkpt lat="48.38141" lon="-3.7265">
        <ele>166.80000305176</ele>
        <time>2021-09-12T07:57:39Z</time>
      </trkpt>
      <trkpt lat="48.38146" lon="-3.72654">
        <ele>167</ele>
        <time>2021-09-12T07:57:40Z</time>
      </trkpt>
      <trkpt lat="48.3815" lon="-3.72656">
        <ele>167.19999694824</ele>
        <time>2021-09-12T07:57:41Z</time>
      </trkpt>
      <trkpt lat="48.38156" lon="-3.7266">
        <ele>167.39999389648</ele>
        <time>2021-09-12T07:57:42Z</time>
      </trkpt>
      <trkpt lat="48.38159" lon="-3.7266">
        <ele>167.39999389648</ele>
        <time>2021-09-12T07:57:43Z</time>
      </trkpt>
      <trkpt lat="48.38163" lon="-3.72661">
        <ele>167.39999389648</ele>
        <time>2021-09-12T07:57:44Z</time>
      </trkpt>
      <trkpt lat="48.3817" lon="-3.72664">
        <ele>168</ele>
        <time>2021-09-12T07:57:45Z</time>
      </trkpt>
      <trkpt lat="48.38177" lon="-3.72666">
        <ele>168</ele>
        <time>2021-09-12T07:57:46Z</time>
      </trkpt>
      <trkpt lat="48.38179" lon="-3.72667">
        <ele>168.39999389648</ele>
        <time>2021-09-12T07:57:47Z</time>
      </trkpt>
      <trkpt lat="48.38183" lon="-3.72668">
        <ele>168.80000305176</ele>
        <time>2021-09-12T07:57:48Z</time>
      </trkpt>
      <trkpt lat="48.38187" lon="-3.72669">
        <ele>168.80000305176</ele>
        <time>2021-09-12T07:57:49Z</time>
      </trkpt>
      <trkpt lat="48.3819" lon="-3.7267">
        <ele>168.80000305176</ele>
        <time>2021-09-12T07:57:50Z</time>
      </trkpt>
      <trkpt lat="48.38193" lon="-3.72672">
        <ele>169.19999694824</ele>
        <time>2021-09-12T07:57:51Z</time>
      </trkpt>
      <trkpt lat="48.38195" lon="-3.72673">
        <ele>169.19999694824</ele>
        <time>2021-09-12T07:57:52Z</time>
      </trkpt>
      <trkpt lat="48.38198" lon="-3.72675">
        <ele>169.39999389648</ele>
        <time>2021-09-12T07:57:53Z</time>
      </trkpt>
      <trkpt lat="48.38201" lon="-3.72676">
        <ele>169.39999389648</ele>
        <time>2021-09-12T07:57:54Z</time>
      </trkpt>
      <trkpt lat="48.38206" lon="-3.72678">
        <ele>169.60000610352</ele>
        <time>2021-09-12T07:57:55Z</time>
      </trkpt>
      <trkpt lat="48.38209" lon="-3.72679">
        <ele>169.60000610352</ele>
        <time>2021-09-12T07:57:56Z</time>
      </trkpt>
      <trkpt lat="48.38212" lon="-3.7268">
        <ele>169.80000305176</ele>
        <time>2021-09-12T07:57:57Z</time>
      </trkpt>
      <trkpt lat="48.38216" lon="-3.72682">
        <ele>169.80000305176</ele>
        <time>2021-09-12T07:57:58Z</time>
      </trkpt>
      <trkpt lat="48.3822" lon="-3.72683">
        <ele>169.80000305176</ele>
        <time>2021-09-12T07:57:59Z</time>
      </trkpt>
      <trkpt lat="48.38224" lon="-3.72684">
        <ele>170</ele>
        <time>2021-09-12T07:58:00Z</time>
      </trkpt>
      <trkpt lat="48.38227" lon="-3.72686">
        <ele>170.19999694824</ele>
        <time>2021-09-12T07:58:01Z</time>
      </trkpt>
      <trkpt lat="48.3823" lon="-3.72687">
        <ele>170.80000305176</ele>
        <time>2021-09-12T07:58:02Z</time>
      </trkpt>
      <trkpt lat="48.38233" lon="-3.72688">
        <ele>170.80000305176</ele>
        <time>2021-09-12T07:58:03Z</time>
      </trkpt>
      <trkpt lat="48.38238" lon="-3.7269">
        <ele>170.80000305176</ele>
        <time>2021-09-12T07:58:04Z</time>
      </trkpt>
      <trkpt lat="48.38242" lon="-3.72691">
        <ele>171.19999694824</ele>
        <time>2021-09-12T07:58:05Z</time>
      </trkpt>
      <trkpt lat="48.38245" lon="-3.72691">
        <ele>171.60000610352</ele>
        <time>2021-09-12T07:58:06Z</time>
      </trkpt>
      <trkpt lat="48.38247" lon="-3.72692">
        <ele>171.60000610352</ele>
        <time>2021-09-12T07:58:07Z</time>
      </trkpt>
      <trkpt lat="48.38251" lon="-3.72693">
        <ele>172.19999694824</ele>
        <time>2021-09-12T07:58:08Z</time>
      </trkpt>
      <trkpt lat="48.38254" lon="-3.72694">
        <ele>172.19999694824</ele>
        <time>2021-09-12T07:58:09Z</time>
      </trkpt>
      <trkpt lat="48.38258" lon="-3.72694">
        <ele>172.39999389648</ele>
        <time>2021-09-12T07:58:10Z</time>
      </trkpt>
      <trkpt lat="48.38261" lon="-3.72694">
        <ele>172.80000305176</ele>
        <time>2021-09-12T07:58:11Z</time>
      </trkpt>
      <trkpt lat="48.38263" lon="-3.72695">
        <ele>172.80000305176</ele>
        <time>2021-09-12T07:58:12Z</time>
      </trkpt>
      <trkpt lat="48.38265" lon="-3.72696">
        <ele>173.60000610352</ele>
        <time>2021-09-12T07:58:13Z</time>
      </trkpt>
      <trkpt lat="48.38268" lon="-3.72697">
        <ele>174</ele>
        <time>2021-09-12T07:58:14Z</time>
      </trkpt>
      <trkpt lat="48.38271" lon="-3.72699">
        <ele>174.19999694824</ele>
        <time>2021-09-12T07:58:15Z</time>
      </trkpt>
      <trkpt lat="48.38274" lon="-3.727">
        <ele>174.19999694824</ele>
        <time>2021-09-12T07:58:16Z</time>
      </trkpt>
      <trkpt lat="48.38276" lon="-3.72701">
        <ele>174.39999389648</ele>
        <time>2021-09-12T07:58:17Z</time>
      </trkpt>
      <trkpt lat="48.38278" lon="-3.72702">
        <ele>174.39999389648</ele>
        <time>2021-09-12T07:58:18Z</time>
      </trkpt>
      <trkpt lat="48.38281" lon="-3.72704">
        <ele>174.80000305176</ele>
        <time>2021-09-12T07:58:19Z</time>
      </trkpt>
      <trkpt lat="48.38284" lon="-3.72706">
        <ele>174.80000305176</ele>
        <time>2021-09-12T07:58:20Z</time>
      </trkpt>
      <trkpt lat="48.38286" lon="-3.72708">
        <ele>175.19999694824</ele>
        <time>2021-09-12T07:58:21Z</time>
      </trkpt>
      <trkpt lat="48.38287" lon="-3.72709">
        <ele>175.60000610352</ele>
        <time>2021-09-12T07:58:22Z</time>
      </trkpt>
      <trkpt lat="48.38288" lon="-3.7271">
        <ele>175.80000305176</ele>
        <time>2021-09-12T07:58:23Z</time>
      </trkpt>
      <trkpt lat="48.3829" lon="-3.72711">
        <ele>176</ele>
        <time>2021-09-12T07:58:24Z</time>
      </trkpt>
      <trkpt lat="48.38291" lon="-3.72712">
        <ele>176.19999694824</ele>
        <time>2021-09-12T07:58:25Z</time>
      </trkpt>
      <trkpt lat="48.38291" lon="-3.72713">
        <ele>176.19999694824</ele>
        <time>2021-09-12T07:58:26Z</time>
      </trkpt>
      <trkpt lat="48.38293" lon="-3.72715">
        <ele>176.60000610352</ele>
        <time>2021-09-12T07:58:27Z</time>
      </trkpt>
      <trkpt lat="48.38295" lon="-3.72716">
        <ele>176.60000610352</ele>
        <time>2021-09-12T07:58:28Z</time>
      </trkpt>
      <trkpt lat="48.38299" lon="-3.72718">
        <ele>176.80000305176</ele>
        <time>2021-09-12T07:58:29Z</time>
      </trkpt>
      <trkpt lat="48.38302" lon="-3.7272">
        <ele>176.80000305176</ele>
        <time>2021-09-12T07:58:30Z</time>
      </trkpt>
      <trkpt lat="48.38304" lon="-3.72722">
        <ele>177.39999389648</ele>
        <time>2021-09-12T07:58:31Z</time>
      </trkpt>
      <trkpt lat="48.38306" lon="-3.72724">
        <ele>177.60000610352</ele>
        <time>2021-09-12T07:58:32Z</time>
      </trkpt>
      <trkpt lat="48.38309" lon="-3.72728">
        <ele>177.60000610352</ele>
        <time>2021-09-12T07:58:33Z</time>
      </trkpt>
      <trkpt lat="48.38312" lon="-3.72731">
        <ele>178</ele>
        <time>2021-09-12T07:58:34Z</time>
      </trkpt>
      <trkpt lat="48.38313" lon="-3.72733">
        <ele>178.19999694824</ele>
        <time>2021-09-12T07:58:35Z</time>
      </trkpt>
      <trkpt lat="48.38316" lon="-3.72735">
        <ele>178.19999694824</ele>
        <time>2021-09-12T07:58:36Z</time>
      </trkpt>
      <trkpt lat="48.38318" lon="-3.72737">
        <ele>178.39999389648</ele>
        <time>2021-09-12T07:58:37Z</time>
      </trkpt>
      <trkpt lat="48.3832" lon="-3.7274">
        <ele>178.80000305176</ele>
        <time>2021-09-12T07:58:38Z</time>
      </trkpt>
      <trkpt lat="48.38322" lon="-3.72742">
        <ele>179</ele>
        <time>2021-09-12T07:58:39Z</time>
      </trkpt>
      <trkpt lat="48.38324" lon="-3.72744">
        <ele>179.39999389648</ele>
        <time>2021-09-12T07:58:40Z</time>
      </trkpt>
      <trkpt lat="48.38326" lon="-3.72746">
        <ele>179.39999389648</ele>
        <time>2021-09-12T07:58:41Z</time>
      </trkpt>
      <trkpt lat="48.38328" lon="-3.72747">
        <ele>179.39999389648</ele>
        <time>2021-09-12T07:58:42Z</time>
      </trkpt>
      <trkpt lat="48.3833" lon="-3.72749">
        <ele>179.80000305176</ele>
        <time>2021-09-12T07:58:43Z</time>
      </trkpt>
      <trkpt lat="48.38331" lon="-3.72751">
        <ele>179.80000305176</ele>
        <time>2021-09-12T07:58:44Z</time>
      </trkpt>
      <trkpt lat="48.38334" lon="-3.72753">
        <ele>180.19999694824</ele>
        <time>2021-09-12T07:58:45Z</time>
      </trkpt>
      <trkpt lat="48.38336" lon="-3.72755">
        <ele>180.39999389648</ele>
        <time>2021-09-12T07:58:46Z</time>
      </trkpt>
      <trkpt lat="48.38339" lon="-3.72757">
        <ele>180.39999389648</ele>
        <time>2021-09-12T07:58:47Z</time>
      </trkpt>
      <trkpt lat="48.38342" lon="-3.72758">
        <ele>180.60000610352</ele>
        <time>2021-09-12T07:58:48Z</time>
      </trkpt>
      <trkpt lat="48.38345" lon="-3.7276">
        <ele>181</ele>
        <time>2021-09-12T07:58:49Z</time>
      </trkpt>
      <trkpt lat="48.38347" lon="-3.72761">
        <ele>181</ele>
        <time>2021-09-12T07:58:50Z</time>
      </trkpt>
      <trkpt lat="48.38349" lon="-3.72762">
        <ele>181.19999694824</ele>
        <time>2021-09-12T07:58:51Z</time>
      </trkpt>
      <trkpt lat="48.38352" lon="-3.72765">
        <ele>181.39999389648</ele>
        <time>2021-09-12T07:58:52Z</time>
      </trkpt>
      <trkpt lat="48.38355" lon="-3.72767">
        <ele>181.39999389648</ele>
        <time>2021-09-12T07:58:53Z</time>
      </trkpt>
      <trkpt lat="48.38357" lon="-3.72768">
        <ele>181.80000305176</ele>
        <time>2021-09-12T07:58:54Z</time>
      </trkpt>
      <trkpt lat="48.38359" lon="-3.72769">
        <ele>182</ele>
        <time>2021-09-12T07:58:55Z</time>
      </trkpt>
      <trkpt lat="48.38361" lon="-3.72771">
        <ele>182</ele>
        <time>2021-09-12T07:58:56Z</time>
      </trkpt>
      <trkpt lat="48.38363" lon="-3.72772">
        <ele>182.19999694824</ele>
        <time>2021-09-12T07:58:57Z</time>
      </trkpt>
      <trkpt lat="48.38365" lon="-3.72772">
        <ele>182.39999389648</ele>
        <time>2021-09-12T07:58:58Z</time>
      </trkpt>
      <trkpt lat="48.38366" lon="-3.72773">
        <ele>182.80000305176</ele>
        <time>2021-09-12T07:58:59Z</time>
      </trkpt>
      <trkpt lat="48.38368" lon="-3.72775">
        <ele>182.80000305176</ele>
        <time>2021-09-12T07:59:00Z</time>
      </trkpt>
      <trkpt lat="48.3837" lon="-3.72777">
        <ele>182.80000305176</ele>
        <time>2021-09-12T07:59:01Z</time>
      </trkpt>
      <trkpt lat="48.38372" lon="-3.7278">
        <ele>183</ele>
        <time>2021-09-12T07:59:02Z</time>
      </trkpt>
      <trkpt lat="48.38374" lon="-3.72783">
        <ele>183</ele>
        <time>2021-09-12T07:59:03Z</time>
      </trkpt>
      <trkpt lat="48.38377" lon="-3.72785">
        <ele>183.39999389648</ele>
        <time>2021-09-12T07:59:04Z</time>
      </trkpt>
      <trkpt lat="48.38379" lon="-3.72787">
        <ele>183.39999389648</ele>
        <time>2021-09-12T07:59:05Z</time>
      </trkpt>
      <trkpt lat="48.38381" lon="-3.72788">
        <ele>183.39999389648</ele>
        <time>2021-09-12T07:59:06Z</time>
      </trkpt>
      <trkpt lat="48.38383" lon="-3.7279">
        <ele>183.39999389648</ele>
        <time>2021-09-12T07:59:07Z</time>
      </trkpt>
      <trkpt lat="48.38385" lon="-3.72792">
        <ele>183.39999389648</ele>
        <time>2021-09-12T07:59:08Z</time>
      </trkpt>
      <trkpt lat="48.38387" lon="-3.72795">
        <ele>183.60000610352</ele>
        <time>2021-09-12T07:59:09Z</time>
      </trkpt>
      <trkpt lat="48.3839" lon="-3.72798">
        <ele>183.60000610352</ele>
        <time>2021-09-12T07:59:10Z</time>
      </trkpt>
      <trkpt lat="48.38393" lon="-3.72802">
        <ele>183.60000610352</ele>
        <time>2021-09-12T07:59:11Z</time>
      </trkpt>
      <trkpt lat="48.38395" lon="-3.72806">
        <ele>183.60000610352</ele>
        <time>2021-09-12T07:59:12Z</time>
      </trkpt>
      <trkpt lat="48.38399" lon="-3.72811">
        <ele>183.80000305176</ele>
        <time>2021-09-12T07:59:13Z</time>
      </trkpt>
      <trkpt lat="48.38402" lon="-3.72816">
        <ele>183.80000305176</ele>
        <time>2021-09-12T07:59:14Z</time>
      </trkpt>
      <trkpt lat="48.38405" lon="-3.72821">
        <ele>184</ele>
        <time>2021-09-12T07:59:15Z</time>
      </trkpt>
      <trkpt lat="48.38408" lon="-3.72825">
        <ele>184.19999694824</ele>
        <time>2021-09-12T07:59:16Z</time>
      </trkpt>
      <trkpt lat="48.38411" lon="-3.72829">
        <ele>184.19999694824</ele>
        <time>2021-09-12T07:59:17Z</time>
      </trkpt>
      <trkpt lat="48.38414" lon="-3.72834">
        <ele>184.19999694824</ele>
        <time>2021-09-12T07:59:18Z</time>
      </trkpt>
      <trkpt lat="48.38417" lon="-3.72838">
        <ele>184.80000305176</ele>
        <time>2021-09-12T07:59:19Z</time>
      </trkpt>
      <trkpt lat="48.38419" lon="-3.72841">
        <ele>184.80000305176</ele>
        <time>2021-09-12T07:59:20Z</time>
      </trkpt>
      <trkpt lat="48.38422" lon="-3.72845">
        <ele>184.80000305176</ele>
        <time>2021-09-12T07:59:21Z</time>
      </trkpt>
      <trkpt lat="48.38425" lon="-3.7285">
        <ele>184.80000305176</ele>
        <time>2021-09-12T07:59:22Z</time>
      </trkpt>
      <trkpt lat="48.38428" lon="-3.72854">
        <ele>185.19999694824</ele>
        <time>2021-09-12T07:59:23Z</time>
      </trkpt>
      <trkpt lat="48.3843" lon="-3.72857">
        <ele>185.39999389648</ele>
        <time>2021-09-12T07:59:24Z</time>
      </trkpt>
      <trkpt lat="48.38432" lon="-3.72861">
        <ele>185.39999389648</ele>
        <time>2021-09-12T07:59:25Z</time>
      </trkpt>
      <trkpt lat="48.38434" lon="-3.72864">
        <ele>186</ele>
        <time>2021-09-12T07:59:26Z</time>
      </trkpt>
      <trkpt lat="48.38436" lon="-3.72866">
        <ele>186</ele>
        <time>2021-09-12T07:59:27Z</time>
      </trkpt>
      <trkpt lat="48.38438" lon="-3.72869">
        <ele>186.19999694824</ele>
        <time>2021-09-12T07:59:28Z</time>
      </trkpt>
      <trkpt lat="48.3844" lon="-3.72873">
        <ele>186.39999389648</ele>
        <time>2021-09-12T07:59:29Z</time>
      </trkpt>
      <trkpt lat="48.38441" lon="-3.72877">
        <ele>186.80000305176</ele>
        <time>2021-09-12T07:59:30Z</time>
      </trkpt>
      <trkpt lat="48.38443" lon="-3.7288">
        <ele>187</ele>
        <time>2021-09-12T07:59:31Z</time>
      </trkpt>
      <trkpt lat="48.38444" lon="-3.72884">
        <ele>187.19999694824</ele>
        <time>2021-09-12T07:59:32Z</time>
      </trkpt>
      <trkpt lat="48.38446" lon="-3.72887">
        <ele>187.39999389648</ele>
        <time>2021-09-12T07:59:33Z</time>
      </trkpt>
      <trkpt lat="48.38448" lon="-3.72891">
        <ele>187.80000305176</ele>
        <time>2021-09-12T07:59:34Z</time>
      </trkpt>
      <trkpt lat="48.38449" lon="-3.72895">
        <ele>187.80000305176</ele>
        <time>2021-09-12T07:59:35Z</time>
      </trkpt>
      <trkpt lat="48.3845" lon="-3.72899">
        <ele>188.39999389648</ele>
        <time>2021-09-12T07:59:36Z</time>
      </trkpt>
      <trkpt lat="48.3845" lon="-3.72903">
        <ele>188.39999389648</ele>
        <time>2021-09-12T07:59:37Z</time>
      </trkpt>
      <trkpt lat="48.38451" lon="-3.72906">
        <ele>188.39999389648</ele>
        <time>2021-09-12T07:59:38Z</time>
      </trkpt>
      <trkpt lat="48.38451" lon="-3.72909">
        <ele>188.60000610352</ele>
        <time>2021-09-12T07:59:39Z</time>
      </trkpt>
      <trkpt lat="48.38452" lon="-3.72913">
        <ele>188.80000305176</ele>
        <time>2021-09-12T07:59:40Z</time>
      </trkpt>
      <trkpt lat="48.38452" lon="-3.72915">
        <ele>189</ele>
        <time>2021-09-12T07:59:41Z</time>
      </trkpt>
      <trkpt lat="48.38452" lon="-3.72919">
        <ele>189.19999694824</ele>
        <time>2021-09-12T07:59:42Z</time>
      </trkpt>
      <trkpt lat="48.38452" lon="-3.72924">
        <ele>189.60000610352</ele>
        <time>2021-09-12T07:59:43Z</time>
      </trkpt>
      <trkpt lat="48.38451" lon="-3.72926">
        <ele>190</ele>
        <time>2021-09-12T07:59:44Z</time>
      </trkpt>
      <trkpt lat="48.3845" lon="-3.72928">
        <ele>190</ele>
        <time>2021-09-12T07:59:45Z</time>
      </trkpt>
      <trkpt lat="48.3845" lon="-3.7293">
        <ele>190</ele>
        <time>2021-09-12T07:59:46Z</time>
      </trkpt>
      <trkpt lat="48.38451" lon="-3.72933">
        <ele>190</ele>
        <time>2021-09-12T07:59:47Z</time>
      </trkpt>
      <trkpt lat="48.38455" lon="-3.72937">
        <ele>190.39999389648</ele>
        <time>2021-09-12T07:59:48Z</time>
      </trkpt>
      <trkpt lat="48.38456" lon="-3.7294">
        <ele>190.60000610352</ele>
        <time>2021-09-12T07:59:49Z</time>
      </trkpt>
      <trkpt lat="48.38456" lon="-3.72944">
        <ele>190.80000305176</ele>
        <time>2021-09-12T07:59:50Z</time>
      </trkpt>
      <trkpt lat="48.38457" lon="-3.72947">
        <ele>191</ele>
        <time>2021-09-12T07:59:51Z</time>
      </trkpt>
      <trkpt lat="48.38457" lon="-3.7295">
        <ele>191.39999389648</ele>
        <time>2021-09-12T07:59:52Z</time>
      </trkpt>
      <trkpt lat="48.38458" lon="-3.72952">
        <ele>191.39999389648</ele>
        <time>2021-09-12T07:59:53Z</time>
      </trkpt>
      <trkpt lat="48.38458" lon="-3.72955">
        <ele>191.60000610352</ele>
        <time>2021-09-12T07:59:54Z</time>
      </trkpt>
      <trkpt lat="48.38458" lon="-3.72958">
        <ele>192</ele>
        <time>2021-09-12T07:59:55Z</time>
      </trkpt>
      <trkpt lat="48.38458" lon="-3.72961">
        <ele>192</ele>
        <time>2021-09-12T07:59:56Z</time>
      </trkpt>
      <trkpt lat="48.38458" lon="-3.72964">
        <ele>192</ele>
        <time>2021-09-12T07:59:57Z</time>
      </trkpt>
      <trkpt lat="48.38458" lon="-3.72967">
        <ele>192.39999389648</ele>
        <time>2021-09-12T07:59:58Z</time>
      </trkpt>
      <trkpt lat="48.38458" lon="-3.7297">
        <ele>192.60000610352</ele>
        <time>2021-09-12T07:59:59Z</time>
      </trkpt>
      <trkpt lat="48.38458" lon="-3.72973">
        <ele>192.60000610352</ele>
        <time>2021-09-12T08:00:00Z</time>
      </trkpt>
      <trkpt lat="48.38458" lon="-3.72976">
        <ele>193</ele>
        <time>2021-09-12T08:00:01Z</time>
      </trkpt>
      <trkpt lat="48.38458" lon="-3.7298">
        <ele>193.19999694824</ele>
        <time>2021-09-12T08:00:02Z</time>
      </trkpt>
      <trkpt lat="48.38457" lon="-3.72982">
        <ele>193.60000610352</ele>
        <time>2021-09-12T08:00:03Z</time>
      </trkpt>
      <trkpt lat="48.38458" lon="-3.72986">
        <ele>193.60000610352</ele>
        <time>2021-09-12T08:00:04Z</time>
      </trkpt>
      <trkpt lat="48.38458" lon="-3.72988">
        <ele>193.80000305176</ele>
        <time>2021-09-12T08:00:05Z</time>
      </trkpt>
      <trkpt lat="48.38458" lon="-3.72991">
        <ele>194.19999694824</ele>
        <time>2021-09-12T08:00:06Z</time>
      </trkpt>
      <trkpt lat="48.38459" lon="-3.72994">
        <ele>194.39999389648</ele>
        <time>2021-09-12T08:00:07Z</time>
      </trkpt>
      <trkpt lat="48.38459" lon="-3.72997">
        <ele>194.39999389648</ele>
        <time>2021-09-12T08:00:08Z</time>
      </trkpt>
      <trkpt lat="48.3846" lon="-3.72999">
        <ele>194.80000305176</ele>
        <time>2021-09-12T08:00:09Z</time>
      </trkpt>
      <trkpt lat="48.3846" lon="-3.73001">
        <ele>195</ele>
        <time>2021-09-12T08:00:10Z</time>
      </trkpt>
      <trkpt lat="48.3846" lon="-3.73004">
        <ele>195.19999694824</ele>
        <time>2021-09-12T08:00:11Z</time>
      </trkpt>
      <trkpt lat="48.3846" lon="-3.73007">
        <ele>195.60000610352</ele>
        <time>2021-09-12T08:00:12Z</time>
      </trkpt>
      <trkpt lat="48.3846" lon="-3.7301">
        <ele>195.60000610352</ele>
        <time>2021-09-12T08:00:13Z</time>
      </trkpt>
      <trkpt lat="48.3846" lon="-3.73013">
        <ele>195.80000305176</ele>
        <time>2021-09-12T08:00:14Z</time>
      </trkpt>
      <trkpt lat="48.38461" lon="-3.73016">
        <ele>196.19999694824</ele>
        <time>2021-09-12T08:00:15Z</time>
      </trkpt>
      <trkpt lat="48.38461" lon="-3.73019">
        <ele>196.39999389648</ele>
        <time>2021-09-12T08:00:16Z</time>
      </trkpt>
      <trkpt lat="48.38461" lon="-3.73022">
        <ele>196.60000610352</ele>
        <time>2021-09-12T08:00:17Z</time>
      </trkpt>
      <trkpt lat="48.38461" lon="-3.73024">
        <ele>197</ele>
        <time>2021-09-12T08:00:18Z</time>
      </trkpt>
      <trkpt lat="48.38461" lon="-3.73027">
        <ele>197</ele>
        <time>2021-09-12T08:00:19Z</time>
      </trkpt>
      <trkpt lat="48.38461" lon="-3.73029">
        <ele>197.60000610352</ele>
        <time>2021-09-12T08:00:20Z</time>
      </trkpt>
      <trkpt lat="48.38462" lon="-3.73031">
        <ele>197.80000305176</ele>
        <time>2021-09-12T08:00:21Z</time>
      </trkpt>
      <trkpt lat="48.38464" lon="-3.73032">
        <ele>197.80000305176</ele>
        <time>2021-09-12T08:00:22Z</time>
      </trkpt>
      <trkpt lat="48.38467" lon="-3.73031">
        <ele>197.80000305176</ele>
        <time>2021-09-12T08:00:23Z</time>
      </trkpt>
      <trkpt lat="48.38469" lon="-3.7303">
        <ele>197.80000305176</ele>
        <time>2021-09-12T08:00:24Z</time>
      </trkpt>
      <trkpt lat="48.38471" lon="-3.73028">
        <ele>197.80000305176</ele>
        <time>2021-09-12T08:00:25Z</time>
      </trkpt>
      <trkpt lat="48.38474" lon="-3.73024">
        <ele>197.60000610352</ele>
        <time>2021-09-12T08:00:26Z</time>
      </trkpt>
      <trkpt lat="48.38476" lon="-3.7302">
        <ele>197.60000610352</ele>
        <time>2021-09-12T08:00:27Z</time>
      </trkpt>
      <trkpt lat="48.38478" lon="-3.73015">
        <ele>197.60000610352</ele>
        <time>2021-09-12T08:00:28Z</time>
      </trkpt>
      <trkpt lat="48.3848" lon="-3.7301">
        <ele>197.39999389648</ele>
        <time>2021-09-12T08:00:29Z</time>
      </trkpt>
      <trkpt lat="48.38482" lon="-3.73005">
        <ele>197.39999389648</ele>
        <time>2021-09-12T08:00:30Z</time>
      </trkpt>
      <trkpt lat="48.38484" lon="-3.72999">
        <ele>197.19999694824</ele>
        <time>2021-09-12T08:00:31Z</time>
      </trkpt>
      <trkpt lat="48.38485" lon="-3.72992">
        <ele>197</ele>
        <time>2021-09-12T08:00:32Z</time>
      </trkpt>
      <trkpt lat="48.38487" lon="-3.72986">
        <ele>196.80000305176</ele>
        <time>2021-09-12T08:00:33Z</time>
      </trkpt>
      <trkpt lat="48.38489" lon="-3.72981">
        <ele>196.60000610352</ele>
        <time>2021-09-12T08:00:34Z</time>
      </trkpt>
      <trkpt lat="48.38491" lon="-3.72974">
        <ele>196.39999389648</ele>
        <time>2021-09-12T08:00:35Z</time>
      </trkpt>
      <trkpt lat="48.38494" lon="-3.72967">
        <ele>196.39999389648</ele>
        <time>2021-09-12T08:00:36Z</time>
      </trkpt>
      <trkpt lat="48.38497" lon="-3.72962">
        <ele>196.39999389648</ele>
        <time>2021-09-12T08:00:37Z</time>
      </trkpt>
      <trkpt lat="48.38502" lon="-3.72958">
        <ele>196.39999389648</ele>
        <time>2021-09-12T08:00:38Z</time>
      </trkpt>
      <trkpt lat="48.38506" lon="-3.72954">
        <ele>196.39999389648</ele>
        <time>2021-09-12T08:00:39Z</time>
      </trkpt>
      <trkpt lat="48.3851" lon="-3.72952">
        <ele>196.39999389648</ele>
        <time>2021-09-12T08:00:40Z</time>
      </trkpt>
      <trkpt lat="48.38514" lon="-3.72951">
        <ele>196.60000610352</ele>
        <time>2021-09-12T08:00:41Z</time>
      </trkpt>
      <trkpt lat="48.38518" lon="-3.7295">
        <ele>197.19999694824</ele>
        <time>2021-09-12T08:00:42Z</time>
      </trkpt>
      <trkpt lat="48.38522" lon="-3.72949">
        <ele>197.19999694824</ele>
        <time>2021-09-12T08:00:43Z</time>
      </trkpt>
      <trkpt lat="48.38524" lon="-3.72948">
        <ele>197.19999694824</ele>
        <time>2021-09-12T08:00:44Z</time>
      </trkpt>
      <trkpt lat="48.38528" lon="-3.72947">
        <ele>197.60000610352</ele>
        <time>2021-09-12T08:00:45Z</time>
      </trkpt>
      <trkpt lat="48.38531" lon="-3.72945">
        <ele>197.60000610352</ele>
        <time>2021-09-12T08:00:46Z</time>
      </trkpt>
      <trkpt lat="48.38535" lon="-3.72944">
        <ele>198</ele>
        <time>2021-09-12T08:00:47Z</time>
      </trkpt>
      <trkpt lat="48.38538" lon="-3.72943">
        <ele>198.19999694824</ele>
        <time>2021-09-12T08:00:48Z</time>
      </trkpt>
      <trkpt lat="48.38541" lon="-3.72942">
        <ele>198.19999694824</ele>
        <time>2021-09-12T08:00:49Z</time>
      </trkpt>
      <trkpt lat="48.38544" lon="-3.72941">
        <ele>198.39999389648</ele>
        <time>2021-09-12T08:00:50Z</time>
      </trkpt>
      <trkpt lat="48.38548" lon="-3.72939">
        <ele>198.39999389648</ele>
        <time>2021-09-12T08:00:51Z</time>
      </trkpt>
      <trkpt lat="48.38552" lon="-3.72937">
        <ele>198.80000305176</ele>
        <time>2021-09-12T08:00:52Z</time>
      </trkpt>
      <trkpt lat="48.38556" lon="-3.72936">
        <ele>198.80000305176</ele>
        <time>2021-09-12T08:00:53Z</time>
      </trkpt>
      <trkpt lat="48.38559" lon="-3.72934">
        <ele>198.80000305176</ele>
        <time>2021-09-12T08:00:54Z</time>
      </trkpt>
      <trkpt lat="48.38562" lon="-3.72932">
        <ele>199.19999694824</ele>
        <time>2021-09-12T08:00:55Z</time>
      </trkpt>
      <trkpt lat="48.38565" lon="-3.72931">
        <ele>199.39999389648</ele>
        <time>2021-09-12T08:00:56Z</time>
      </trkpt>
      <trkpt lat="48.38569" lon="-3.72929">
        <ele>199.39999389648</ele>
        <time>2021-09-12T08:00:57Z</time>
      </trkpt>
      <trkpt lat="48.38572" lon="-3.72928">
        <ele>199.39999389648</ele>
        <time>2021-09-12T08:00:58Z</time>
      </trkpt>
      <trkpt lat="48.38576" lon="-3.72926">
        <ele>199.80000305176</ele>
        <time>2021-09-12T08:00:59Z</time>
      </trkpt>
      <trkpt lat="48.38579" lon="-3.72925">
        <ele>200</ele>
        <time>2021-09-12T08:01:00Z</time>
      </trkpt>
      <trkpt lat="48.38584" lon="-3.72923">
        <ele>200.19999694824</ele>
        <time>2021-09-12T08:01:01Z</time>
      </trkpt>
      <trkpt lat="48.38587" lon="-3.72921">
        <ele>200.39999389648</ele>
        <time>2021-09-12T08:01:02Z</time>
      </trkpt>
      <trkpt lat="48.3859" lon="-3.7292">
        <ele>200.39999389648</ele>
        <time>2021-09-12T08:01:03Z</time>
      </trkpt>
      <trkpt lat="48.38594" lon="-3.72918">
        <ele>200.39999389648</ele>
        <time>2021-09-12T08:01:04Z</time>
      </trkpt>
      <trkpt lat="48.38596" lon="-3.72917">
        <ele>200.60000610352</ele>
        <time>2021-09-12T08:01:05Z</time>
      </trkpt>
      <trkpt lat="48.38599" lon="-3.72915">
        <ele>201</ele>
        <time>2021-09-12T08:01:06Z</time>
      </trkpt>
      <trkpt lat="48.38602" lon="-3.72912">
        <ele>201</ele>
        <time>2021-09-12T08:01:07Z</time>
      </trkpt>
      <trkpt lat="48.38606" lon="-3.7291">
        <ele>201.39999389648</ele>
        <time>2021-09-12T08:01:08Z</time>
      </trkpt>
      <trkpt lat="48.38609" lon="-3.72908">
        <ele>201.39999389648</ele>
        <time>2021-09-12T08:01:09Z</time>
      </trkpt>
      <trkpt lat="48.38613" lon="-3.72904">
        <ele>201.60000610352</ele>
        <time>2021-09-12T08:01:10Z</time>
      </trkpt>
      <trkpt lat="48.38617" lon="-3.729">
        <ele>201.60000610352</ele>
        <time>2021-09-12T08:01:11Z</time>
      </trkpt>
      <trkpt lat="48.3862" lon="-3.72895">
        <ele>201.80000305176</ele>
        <time>2021-09-12T08:01:12Z</time>
      </trkpt>
      <trkpt lat="48.38623" lon="-3.72892">
        <ele>202</ele>
        <time>2021-09-12T08:01:13Z</time>
      </trkpt>
      <trkpt lat="48.38626" lon="-3.72887">
        <ele>202.19999694824</ele>
        <time>2021-09-12T08:01:14Z</time>
      </trkpt>
      <trkpt lat="48.3863" lon="-3.72882">
        <ele>202.19999694824</ele>
        <time>2021-09-12T08:01:15Z</time>
      </trkpt>
      <trkpt lat="48.38633" lon="-3.72878">
        <ele>202.39999389648</ele>
        <time>2021-09-12T08:01:16Z</time>
      </trkpt>
      <trkpt lat="48.38635" lon="-3.72873">
        <ele>202.60000610352</ele>
        <time>2021-09-12T08:01:17Z</time>
      </trkpt>
      <trkpt lat="48.38637" lon="-3.72869">
        <ele>202.60000610352</ele>
        <time>2021-09-12T08:01:18Z</time>
      </trkpt>
      <trkpt lat="48.38639" lon="-3.72864">
        <ele>202.80000305176</ele>
        <time>2021-09-12T08:01:19Z</time>
      </trkpt>
      <trkpt lat="48.38641" lon="-3.7286">
        <ele>203</ele>
        <time>2021-09-12T08:01:20Z</time>
      </trkpt>
      <trkpt lat="48.38644" lon="-3.72856">
        <ele>203</ele>
        <time>2021-09-12T08:01:21Z</time>
      </trkpt>
      <trkpt lat="48.38645" lon="-3.72852">
        <ele>203</ele>
        <time>2021-09-12T08:01:22Z</time>
      </trkpt>
      <trkpt lat="48.38647" lon="-3.72847">
        <ele>203.19999694824</ele>
        <time>2021-09-12T08:01:23Z</time>
      </trkpt>
      <trkpt lat="48.38651" lon="-3.72843">
        <ele>203.39999389648</ele>
        <time>2021-09-12T08:01:24Z</time>
      </trkpt>
      <trkpt lat="48.38654" lon="-3.72838">
        <ele>203.39999389648</ele>
        <time>2021-09-12T08:01:25Z</time>
      </trkpt>
      <trkpt lat="48.38658" lon="-3.72832">
        <ele>203.39999389648</ele>
        <time>2021-09-12T08:01:26Z</time>
      </trkpt>
      <trkpt lat="48.3866" lon="-3.72828">
        <ele>203.39999389648</ele>
        <time>2021-09-12T08:01:27Z</time>
      </trkpt>
      <trkpt lat="48.38662" lon="-3.72823">
        <ele>203.39999389648</ele>
        <time>2021-09-12T08:01:28Z</time>
      </trkpt>
      <trkpt lat="48.38666" lon="-3.72817">
        <ele>203.60000610352</ele>
        <time>2021-09-12T08:01:29Z</time>
      </trkpt>
      <trkpt lat="48.38667" lon="-3.72811">
        <ele>203.60000610352</ele>
        <time>2021-09-12T08:01:30Z</time>
      </trkpt>
      <trkpt lat="48.38668" lon="-3.72805">
        <ele>203.60000610352</ele>
        <time>2021-09-12T08:01:31Z</time>
      </trkpt>
      <trkpt lat="48.3867" lon="-3.72801">
        <ele>203.80000305176</ele>
        <time>2021-09-12T08:01:32Z</time>
      </trkpt>
      <trkpt lat="48.38671" lon="-3.72799">
        <ele>204</ele>
        <time>2021-09-12T08:01:33Z</time>
      </trkpt>
      <trkpt lat="48.38672" lon="-3.72796">
        <ele>204.19999694824</ele>
        <time>2021-09-12T08:01:34Z</time>
      </trkpt>
      <trkpt lat="48.38669" lon="-3.72791">
        <ele>204.19999694824</ele>
        <time>2021-09-12T08:01:35Z</time>
      </trkpt>
      <trkpt lat="48.38664" lon="-3.72784">
        <ele>204.19999694824</ele>
        <time>2021-09-12T08:01:36Z</time>
      </trkpt>
      <trkpt lat="48.38664" lon="-3.72776">
        <ele>204.19999694824</ele>
        <time>2021-09-12T08:01:37Z</time>
      </trkpt>
      <trkpt lat="48.38666" lon="-3.72769">
        <ele>204.19999694824</ele>
        <time>2021-09-12T08:01:38Z</time>
      </trkpt>
      <trkpt lat="48.38667" lon="-3.7276">
        <ele>204.19999694824</ele>
        <time>2021-09-12T08:01:39Z</time>
      </trkpt>
      <trkpt lat="48.38667" lon="-3.72751">
        <ele>204.19999694824</ele>
        <time>2021-09-12T08:01:40Z</time>
      </trkpt>
      <trkpt lat="48.38666" lon="-3.72743">
        <ele>204.19999694824</ele>
        <time>2021-09-12T08:01:41Z</time>
      </trkpt>
      <trkpt lat="48.38668" lon="-3.72734">
        <ele>204.19999694824</ele>
        <time>2021-09-12T08:01:42Z</time>
      </trkpt>
      <trkpt lat="48.3867" lon="-3.72727">
        <ele>204.19999694824</ele>
        <time>2021-09-12T08:01:43Z</time>
      </trkpt>
      <trkpt lat="48.38672" lon="-3.72721">
        <ele>204.19999694824</ele>
        <time>2021-09-12T08:01:44Z</time>
      </trkpt>
      <trkpt lat="48.38674" lon="-3.72716">
        <ele>204.19999694824</ele>
        <time>2021-09-12T08:01:45Z</time>
      </trkpt>
      <trkpt lat="48.38677" lon="-3.7271">
        <ele>204.19999694824</ele>
        <time>2021-09-12T08:01:46Z</time>
      </trkpt>
      <trkpt lat="48.38681" lon="-3.72704">
        <ele>204.19999694824</ele>
        <time>2021-09-12T08:01:47Z</time>
      </trkpt>
      <trkpt lat="48.38684" lon="-3.72698">
        <ele>204</ele>
        <time>2021-09-12T08:01:48Z</time>
      </trkpt>
      <trkpt lat="48.38688" lon="-3.72691">
        <ele>204</ele>
        <time>2021-09-12T08:01:49Z</time>
      </trkpt>
      <trkpt lat="48.38693" lon="-3.72684">
        <ele>204</ele>
        <time>2021-09-12T08:01:50Z</time>
      </trkpt>
      <trkpt lat="48.38696" lon="-3.72679">
        <ele>203.80000305176</ele>
        <time>2021-09-12T08:01:51Z</time>
      </trkpt>
      <trkpt lat="48.387" lon="-3.72674">
        <ele>203.60000610352</ele>
        <time>2021-09-12T08:01:52Z</time>
      </trkpt>
      <trkpt lat="48.38703" lon="-3.72671">
        <ele>203.60000610352</ele>
        <time>2021-09-12T08:01:53Z</time>
      </trkpt>
      <trkpt lat="48.38707" lon="-3.72669">
        <ele>203.39999389648</ele>
        <time>2021-09-12T08:01:54Z</time>
      </trkpt>
      <trkpt lat="48.3871" lon="-3.72668">
        <ele>203.39999389648</ele>
        <time>2021-09-12T08:01:55Z</time>
      </trkpt>
      <trkpt lat="48.38711" lon="-3.72669">
        <ele>203.39999389648</ele>
        <time>2021-09-12T08:01:56Z</time>
      </trkpt>
      <trkpt lat="48.38713" lon="-3.72672">
        <ele>203.39999389648</ele>
        <time>2021-09-12T08:01:57Z</time>
      </trkpt>
      <trkpt lat="48.38713" lon="-3.72674">
        <ele>203.39999389648</ele>
        <time>2021-09-12T08:01:58Z</time>
      </trkpt>
      <trkpt lat="48.3871" lon="-3.72675">
        <ele>203.60000610352</ele>
        <time>2021-09-12T08:01:59Z</time>
      </trkpt>
      <trkpt lat="48.38708" lon="-3.72674">
        <ele>203.80000305176</ele>
        <time>2021-09-12T08:02:00Z</time>
      </trkpt>
      <trkpt lat="48.38706" lon="-3.72675">
        <ele>203.80000305176</ele>
        <time>2021-09-12T08:02:01Z</time>
      </trkpt>
      <trkpt lat="48.38705" lon="-3.72677">
        <ele>203.80000305176</ele>
        <time>2021-09-12T08:02:02Z</time>
      </trkpt>
      <trkpt lat="48.38704" lon="-3.72679">
        <ele>204.19999694824</ele>
        <time>2021-09-12T08:02:03Z</time>
      </trkpt>
      <trkpt lat="48.38703" lon="-3.72681">
        <ele>204.19999694824</ele>
        <time>2021-09-12T08:02:04Z</time>
      </trkpt>
      <trkpt lat="48.38702" lon="-3.72683">
        <ele>204.19999694824</ele>
        <time>2021-09-12T08:02:05Z</time>
      </trkpt>
      <trkpt lat="48.387" lon="-3.72685">
        <ele>204.39999389648</ele>
        <time>2021-09-12T08:02:06Z</time>
      </trkpt>
      <trkpt lat="48.38699" lon="-3.72687">
        <ele>204.39999389648</ele>
        <time>2021-09-12T08:02:07Z</time>
      </trkpt>
      <trkpt lat="48.38699" lon="-3.72689">
        <ele>204.60000610352</ele>
        <time>2021-09-12T08:02:08Z</time>
      </trkpt>
      <trkpt lat="48.38699" lon="-3.7269">
        <ele>204.60000610352</ele>
        <time>2021-09-12T08:02:09Z</time>
      </trkpt>
      <trkpt lat="48.38698" lon="-3.72692">
        <ele>204.80000305176</ele>
        <time>2021-09-12T08:02:10Z</time>
      </trkpt>
      <trkpt lat="48.38697" lon="-3.72695">
        <ele>204.80000305176</ele>
        <time>2021-09-12T08:02:11Z</time>
      </trkpt>
      <trkpt lat="48.38698" lon="-3.72697">
        <ele>205</ele>
        <time>2021-09-12T08:02:12Z</time>
      </trkpt>
      <trkpt lat="48.38698" lon="-3.72699">
        <ele>205.39999389648</ele>
        <time>2021-09-12T08:02:13Z</time>
      </trkpt>
      <trkpt lat="48.38698" lon="-3.72701">
        <ele>205.60000610352</ele>
        <time>2021-09-12T08:02:14Z</time>
      </trkpt>
      <trkpt lat="48.38698" lon="-3.72703">
        <ele>206.19999694824</ele>
        <time>2021-09-12T08:02:15Z</time>
      </trkpt>
      <trkpt lat="48.38697" lon="-3.72704">
        <ele>206.60000610352</ele>
        <time>2021-09-12T08:02:16Z</time>
      </trkpt>
      <trkpt lat="48.38696" lon="-3.72706">
        <ele>206.80000305176</ele>
        <time>2021-09-12T08:02:17Z</time>
      </trkpt>
      <trkpt lat="48.38695" lon="-3.72708">
        <ele>206.80000305176</ele>
        <time>2021-09-12T08:02:18Z</time>
      </trkpt>
      <trkpt lat="48.38694" lon="-3.72712">
        <ele>206.80000305176</ele>
        <time>2021-09-12T08:02:19Z</time>
      </trkpt>
      <trkpt lat="48.38693" lon="-3.72717">
        <ele>206.80000305176</ele>
        <time>2021-09-12T08:02:20Z</time>
      </trkpt>
      <trkpt lat="48.38693" lon="-3.7272">
        <ele>207</ele>
        <time>2021-09-12T08:02:21Z</time>
      </trkpt>
      <trkpt lat="48.38694" lon="-3.72725">
        <ele>207.19999694824</ele>
        <time>2021-09-12T08:02:22Z</time>
      </trkpt>
      <trkpt lat="48.38693" lon="-3.72728">
        <ele>207.39999389648</ele>
        <time>2021-09-12T08:02:23Z</time>
      </trkpt>
      <trkpt lat="48.38693" lon="-3.72732">
        <ele>207.39999389648</ele>
        <time>2021-09-12T08:02:24Z</time>
      </trkpt>
      <trkpt lat="48.38693" lon="-3.72735">
        <ele>207.39999389648</ele>
        <time>2021-09-12T08:02:25Z</time>
      </trkpt>
      <trkpt lat="48.38694" lon="-3.7274">
        <ele>207.39999389648</ele>
        <time>2021-09-12T08:02:26Z</time>
      </trkpt>
      <trkpt lat="48.38695" lon="-3.72745">
        <ele>207.60000610352</ele>
        <time>2021-09-12T08:02:27Z</time>
      </trkpt>
      <trkpt lat="48.38696" lon="-3.7275">
        <ele>207.60000610352</ele>
        <time>2021-09-12T08:02:28Z</time>
      </trkpt>
      <trkpt lat="48.38696" lon="-3.72755">
        <ele>207.60000610352</ele>
        <time>2021-09-12T08:02:29Z</time>
      </trkpt>
      <trkpt lat="48.38697" lon="-3.7276">
        <ele>207.60000610352</ele>
        <time>2021-09-12T08:02:30Z</time>
      </trkpt>
      <trkpt lat="48.38697" lon="-3.72763">
        <ele>207.60000610352</ele>
        <time>2021-09-12T08:02:31Z</time>
      </trkpt>
      <trkpt lat="48.38697" lon="-3.72766">
        <ele>207.80000305176</ele>
        <time>2021-09-12T08:02:32Z</time>
      </trkpt>
      <trkpt lat="48.38696" lon="-3.7277">
        <ele>207.80000305176</ele>
        <time>2021-09-12T08:02:33Z</time>
      </trkpt>
      <trkpt lat="48.38695" lon="-3.72778">
        <ele>207.80000305176</ele>
        <time>2021-09-12T08:02:34Z</time>
      </trkpt>
      <trkpt lat="48.38694" lon="-3.72783">
        <ele>208.19999694824</ele>
        <time>2021-09-12T08:02:35Z</time>
      </trkpt>
      <trkpt lat="48.38693" lon="-3.72789">
        <ele>208.39999389648</ele>
        <time>2021-09-12T08:02:36Z</time>
      </trkpt>
      <trkpt lat="48.38693" lon="-3.72793">
        <ele>208.60000610352</ele>
        <time>2021-09-12T08:02:37Z</time>
      </trkpt>
      <trkpt lat="48.38693" lon="-3.72797">
        <ele>208.60000610352</ele>
        <time>2021-09-12T08:02:38Z</time>
      </trkpt>
      <trkpt lat="48.38691" lon="-3.72801">
        <ele>208.80000305176</ele>
        <time>2021-09-12T08:02:39Z</time>
      </trkpt>
      <trkpt lat="48.38685" lon="-3.72805">
        <ele>208.80000305176</ele>
        <time>2021-09-12T08:02:40Z</time>
      </trkpt>
      <trkpt lat="48.38678" lon="-3.7281">
        <ele>208.80000305176</ele>
        <time>2021-09-12T08:02:41Z</time>
      </trkpt>
      <trkpt lat="48.38674" lon="-3.72818">
        <ele>209</ele>
        <time>2021-09-12T08:02:42Z</time>
      </trkpt>
      <trkpt lat="48.38675" lon="-3.72823">
        <ele>209</ele>
        <time>2021-09-12T08:02:43Z</time>
      </trkpt>
      <trkpt lat="48.38675" lon="-3.72829">
        <ele>209.19999694824</ele>
        <time>2021-09-12T08:02:44Z</time>
      </trkpt>
      <trkpt lat="48.38676" lon="-3.72833">
        <ele>209.19999694824</ele>
        <time>2021-09-12T08:02:45Z</time>
      </trkpt>
      <trkpt lat="48.38677" lon="-3.72835">
        <ele>209.39999389648</ele>
        <time>2021-09-12T08:02:46Z</time>
      </trkpt>
      <trkpt lat="48.38678" lon="-3.72837">
        <ele>209.39999389648</ele>
        <time>2021-09-12T08:02:47Z</time>
      </trkpt>
      <trkpt lat="48.38678" lon="-3.72839">
        <ele>209.39999389648</ele>
        <time>2021-09-12T08:02:48Z</time>
      </trkpt>
      <trkpt lat="48.3868" lon="-3.72843">
        <ele>209.80000305176</ele>
        <time>2021-09-12T08:02:49Z</time>
      </trkpt>
      <trkpt lat="48.3868" lon="-3.72844">
        <ele>210</ele>
        <time>2021-09-12T08:02:50Z</time>
      </trkpt>
      <trkpt lat="48.3868" lon="-3.72844">
        <ele>210</ele>
        <time>2021-09-12T08:02:51Z</time>
      </trkpt>
      <trkpt lat="48.38677" lon="-3.72846">
        <ele>210</ele>
        <time>2021-09-12T08:02:52Z</time>
      </trkpt>
      <trkpt lat="48.38677" lon="-3.72848">
        <ele>210.19999694824</ele>
        <time>2021-09-12T08:02:53Z</time>
      </trkpt>
      <trkpt lat="48.38677" lon="-3.7285">
        <ele>210.60000610352</ele>
        <time>2021-09-12T08:02:54Z</time>
      </trkpt>
      <trkpt lat="48.38677" lon="-3.72852">
        <ele>210.60000610352</ele>
        <time>2021-09-12T08:02:55Z</time>
      </trkpt>
      <trkpt lat="48.38678" lon="-3.72853">
        <ele>210.80000305176</ele>
        <time>2021-09-12T08:02:56Z</time>
      </trkpt>
      <trkpt lat="48.38678" lon="-3.72855">
        <ele>211</ele>
        <time>2021-09-12T08:02:57Z</time>
      </trkpt>
      <trkpt lat="48.38678" lon="-3.72857">
        <ele>211.39999389648</ele>
        <time>2021-09-12T08:02:58Z</time>
      </trkpt>
      <trkpt lat="48.38678" lon="-3.7286">
        <ele>211.60000610352</ele>
        <time>2021-09-12T08:02:59Z</time>
      </trkpt>
      <trkpt lat="48.38677" lon="-3.72862">
        <ele>211.80000305176</ele>
        <time>2021-09-12T08:03:00Z</time>
      </trkpt>
      <trkpt lat="48.38676" lon="-3.72865">
        <ele>212</ele>
        <time>2021-09-12T08:03:01Z</time>
      </trkpt>
      <trkpt lat="48.38676" lon="-3.72867">
        <ele>212.39999389648</ele>
        <time>2021-09-12T08:03:02Z</time>
      </trkpt>
      <trkpt lat="48.38676" lon="-3.7287">
        <ele>212.39999389648</ele>
        <time>2021-09-12T08:03:03Z</time>
      </trkpt>
      <trkpt lat="48.38676" lon="-3.72876">
        <ele>212.80000305176</ele>
        <time>2021-09-12T08:03:04Z</time>
      </trkpt>
      <trkpt lat="48.38676" lon="-3.72879">
        <ele>212.80000305176</ele>
        <time>2021-09-12T08:03:05Z</time>
      </trkpt>
      <trkpt lat="48.38676" lon="-3.72881">
        <ele>212.80000305176</ele>
        <time>2021-09-12T08:03:06Z</time>
      </trkpt>
      <trkpt lat="48.38676" lon="-3.72883">
        <ele>213.19999694824</ele>
        <time>2021-09-12T08:03:07Z</time>
      </trkpt>
      <trkpt lat="48.38675" lon="-3.72886">
        <ele>213.60000610352</ele>
        <time>2021-09-12T08:03:08Z</time>
      </trkpt>
      <trkpt lat="48.38676" lon="-3.7289">
        <ele>213.60000610352</ele>
        <time>2021-09-12T08:03:09Z</time>
      </trkpt>
      <trkpt lat="48.38675" lon="-3.72895">
        <ele>213.80000305176</ele>
        <time>2021-09-12T08:03:10Z</time>
      </trkpt>
      <trkpt lat="48.38674" lon="-3.72898">
        <ele>213.80000305176</ele>
        <time>2021-09-12T08:03:11Z</time>
      </trkpt>
      <trkpt lat="48.38673" lon="-3.72901">
        <ele>214</ele>
        <time>2021-09-12T08:03:12Z</time>
      </trkpt>
      <trkpt lat="48.38673" lon="-3.72903">
        <ele>214.19999694824</ele>
        <time>2021-09-12T08:03:13Z</time>
      </trkpt>
      <trkpt lat="48.38672" lon="-3.72905">
        <ele>214.19999694824</ele>
        <time>2021-09-12T08:03:14Z</time>
      </trkpt>
      <trkpt lat="48.38671" lon="-3.72908">
        <ele>214.39999389648</ele>
        <time>2021-09-12T08:03:15Z</time>
      </trkpt>
      <trkpt lat="48.38669" lon="-3.72911">
        <ele>214.39999389648</ele>
        <time>2021-09-12T08:03:16Z</time>
      </trkpt>
      <trkpt lat="48.38667" lon="-3.72915">
        <ele>214.60000610352</ele>
        <time>2021-09-12T08:03:17Z</time>
      </trkpt>
      <trkpt lat="48.38664" lon="-3.72919">
        <ele>214.60000610352</ele>
        <time>2021-09-12T08:03:18Z</time>
      </trkpt>
      <trkpt lat="48.38663" lon="-3.72922">
        <ele>214.80000305176</ele>
        <time>2021-09-12T08:03:19Z</time>
      </trkpt>
      <trkpt lat="48.38662" lon="-3.72925">
        <ele>215</ele>
        <time>2021-09-12T08:03:20Z</time>
      </trkpt>
      <trkpt lat="48.38661" lon="-3.72927">
        <ele>215</ele>
        <time>2021-09-12T08:03:21Z</time>
      </trkpt>
      <trkpt lat="48.3866" lon="-3.72929">
        <ele>215</ele>
        <time>2021-09-12T08:03:22Z</time>
      </trkpt>
      <trkpt lat="48.38659" lon="-3.72932">
        <ele>215</ele>
        <time>2021-09-12T08:03:23Z</time>
      </trkpt>
      <trkpt lat="48.38658" lon="-3.72933">
        <ele>215.19999694824</ele>
        <time>2021-09-12T08:03:24Z</time>
      </trkpt>
      <trkpt lat="48.38655" lon="-3.72936">
        <ele>215.39999389648</ele>
        <time>2021-09-12T08:03:25Z</time>
      </trkpt>
      <trkpt lat="48.38652" lon="-3.72939">
        <ele>215.39999389648</ele>
        <time>2021-09-12T08:03:26Z</time>
      </trkpt>
      <trkpt lat="48.38648" lon="-3.72942">
        <ele>215.80000305176</ele>
        <time>2021-09-12T08:03:27Z</time>
      </trkpt>
      <trkpt lat="48.38645" lon="-3.72946">
        <ele>215.80000305176</ele>
        <time>2021-09-12T08:03:28Z</time>
      </trkpt>
      <trkpt lat="48.38643" lon="-3.72949">
        <ele>215.80000305176</ele>
        <time>2021-09-12T08:03:29Z</time>
      </trkpt>
      <trkpt lat="48.38642" lon="-3.72952">
        <ele>215.80000305176</ele>
        <time>2021-09-12T08:03:30Z</time>
      </trkpt>
      <trkpt lat="48.38642" lon="-3.72955">
        <ele>216</ele>
        <time>2021-09-12T08:03:31Z</time>
      </trkpt>
      <trkpt lat="48.38642" lon="-3.72958">
        <ele>216</ele>
        <time>2021-09-12T08:03:32Z</time>
      </trkpt>
      <trkpt lat="48.38642" lon="-3.72963">
        <ele>216.39999389648</ele>
        <time>2021-09-12T08:03:33Z</time>
      </trkpt>
      <trkpt lat="48.38641" lon="-3.72968">
        <ele>216.39999389648</ele>
        <time>2021-09-12T08:03:34Z</time>
      </trkpt>
      <trkpt lat="48.38639" lon="-3.72971">
        <ele>216.39999389648</ele>
        <time>2021-09-12T08:03:35Z</time>
      </trkpt>
      <trkpt lat="48.38635" lon="-3.72974">
        <ele>216.60000610352</ele>
        <time>2021-09-12T08:03:36Z</time>
      </trkpt>
      <trkpt lat="48.38634" lon="-3.72977">
        <ele>216.60000610352</ele>
        <time>2021-09-12T08:03:37Z</time>
      </trkpt>
      <trkpt lat="48.38632" lon="-3.72979">
        <ele>216.80000305176</ele>
        <time>2021-09-12T08:03:38Z</time>
      </trkpt>
      <trkpt lat="48.3863" lon="-3.7298">
        <ele>217</ele>
        <time>2021-09-12T08:03:39Z</time>
      </trkpt>
      <trkpt lat="48.3863" lon="-3.72982">
        <ele>217.19999694824</ele>
        <time>2021-09-12T08:03:40Z</time>
      </trkpt>
      <trkpt lat="48.3863" lon="-3.72984">
        <ele>217.19999694824</ele>
        <time>2021-09-12T08:03:41Z</time>
      </trkpt>
      <trkpt lat="48.3863" lon="-3.72987">
        <ele>217.39999389648</ele>
        <time>2021-09-12T08:03:42Z</time>
      </trkpt>
      <trkpt lat="48.3863" lon="-3.72989">
        <ele>217.60000610352</ele>
        <time>2021-09-12T08:03:43Z</time>
      </trkpt>
      <trkpt lat="48.3863" lon="-3.72992">
        <ele>218</ele>
        <time>2021-09-12T08:03:44Z</time>
      </trkpt>
      <trkpt lat="48.38629" lon="-3.72995">
        <ele>218.19999694824</ele>
        <time>2021-09-12T08:03:45Z</time>
      </trkpt>
      <trkpt lat="48.38628" lon="-3.72999">
        <ele>218.19999694824</ele>
        <time>2021-09-12T08:03:46Z</time>
      </trkpt>
      <trkpt lat="48.38628" lon="-3.73004">
        <ele>218.39999389648</ele>
        <time>2021-09-12T08:03:47Z</time>
      </trkpt>
      <trkpt lat="48.38627" lon="-3.73008">
        <ele>218.80000305176</ele>
        <time>2021-09-12T08:03:48Z</time>
      </trkpt>
      <trkpt lat="48.38627" lon="-3.73012">
        <ele>218.80000305176</ele>
        <time>2021-09-12T08:03:49Z</time>
      </trkpt>
      <trkpt lat="48.38628" lon="-3.73017">
        <ele>219</ele>
        <time>2021-09-12T08:03:50Z</time>
      </trkpt>
      <trkpt lat="48.38628" lon="-3.7302">
        <ele>219</ele>
        <time>2021-09-12T08:03:51Z</time>
      </trkpt>
      <trkpt lat="48.38627" lon="-3.73022">
        <ele>219</ele>
        <time>2021-09-12T08:03:52Z</time>
      </trkpt>
      <trkpt lat="48.38628" lon="-3.73025">
        <ele>219.60000610352</ele>
        <time>2021-09-12T08:03:53Z</time>
      </trkpt>
      <trkpt lat="48.38628" lon="-3.73027">
        <ele>219.80000305176</ele>
        <time>2021-09-12T08:03:54Z</time>
      </trkpt>
      <trkpt lat="48.38625" lon="-3.73031">
        <ele>220</ele>
        <time>2021-09-12T08:03:55Z</time>
      </trkpt>
      <trkpt lat="48.38624" lon="-3.73034">
        <ele>220</ele>
        <time>2021-09-12T08:03:56Z</time>
      </trkpt>
      <trkpt lat="48.38624" lon="-3.73036">
        <ele>220</ele>
        <time>2021-09-12T08:03:57Z</time>
      </trkpt>
      <trkpt lat="48.38624" lon="-3.73038">
        <ele>220.19999694824</ele>
        <time>2021-09-12T08:03:58Z</time>
      </trkpt>
      <trkpt lat="48.38624" lon="-3.73041">
        <ele>220.39999389648</ele>
        <time>2021-09-12T08:03:59Z</time>
      </trkpt>
      <trkpt lat="48.38624" lon="-3.73043">
        <ele>220.60000610352</ele>
        <time>2021-09-12T08:04:00Z</time>
      </trkpt>
      <trkpt lat="48.38624" lon="-3.73045">
        <ele>221</ele>
        <time>2021-09-12T08:04:01Z</time>
      </trkpt>
      <trkpt lat="48.38622" lon="-3.73047">
        <ele>221</ele>
        <time>2021-09-12T08:04:02Z</time>
      </trkpt>
      <trkpt lat="48.3862" lon="-3.73051">
        <ele>221</ele>
        <time>2021-09-12T08:04:03Z</time>
      </trkpt>
      <trkpt lat="48.38621" lon="-3.73053">
        <ele>221.19999694824</ele>
        <time>2021-09-12T08:04:04Z</time>
      </trkpt>
      <trkpt lat="48.38623" lon="-3.73055">
        <ele>221.39999389648</ele>
        <time>2021-09-12T08:04:05Z</time>
      </trkpt>
      <trkpt lat="48.38625" lon="-3.73054">
        <ele>221.60000610352</ele>
        <time>2021-09-12T08:04:06Z</time>
      </trkpt>
      <trkpt lat="48.38628" lon="-3.73054">
        <ele>221.80000305176</ele>
        <time>2021-09-12T08:04:07Z</time>
      </trkpt>
      <trkpt lat="48.3863" lon="-3.73053">
        <ele>221.80000305176</ele>
        <time>2021-09-12T08:04:08Z</time>
      </trkpt>
      <trkpt lat="48.38632" lon="-3.73052">
        <ele>222</ele>
        <time>2021-09-12T08:04:09Z</time>
      </trkpt>
      <trkpt lat="48.38634" lon="-3.73051">
        <ele>222</ele>
        <time>2021-09-12T08:04:10Z</time>
      </trkpt>
      <trkpt lat="48.38636" lon="-3.7305">
        <ele>222.60000610352</ele>
        <time>2021-09-12T08:04:11Z</time>
      </trkpt>
      <trkpt lat="48.38637" lon="-3.73048">
        <ele>222.80000305176</ele>
        <time>2021-09-12T08:04:12Z</time>
      </trkpt>
      <trkpt lat="48.38639" lon="-3.73046">
        <ele>222.80000305176</ele>
        <time>2021-09-12T08:04:13Z</time>
      </trkpt>
      <trkpt lat="48.38641" lon="-3.73045">
        <ele>223.19999694824</ele>
        <time>2021-09-12T08:04:14Z</time>
      </trkpt>
      <trkpt lat="48.38643" lon="-3.73043">
        <ele>223.19999694824</ele>
        <time>2021-09-12T08:04:15Z</time>
      </trkpt>
      <trkpt lat="48.38644" lon="-3.73041">
        <ele>223.19999694824</ele>
        <time>2021-09-12T08:04:16Z</time>
      </trkpt>
      <trkpt lat="48.38646" lon="-3.7304">
        <ele>223.39999389648</ele>
        <time>2021-09-12T08:04:17Z</time>
      </trkpt>
      <trkpt lat="48.38648" lon="-3.73038">
        <ele>223.60000610352</ele>
        <time>2021-09-12T08:04:18Z</time>
      </trkpt>
      <trkpt lat="48.38652" lon="-3.73037">
        <ele>223.60000610352</ele>
        <time>2021-09-12T08:04:19Z</time>
      </trkpt>
      <trkpt lat="48.38653" lon="-3.73035">
        <ele>223.60000610352</ele>
        <time>2021-09-12T08:04:20Z</time>
      </trkpt>
      <trkpt lat="48.38655" lon="-3.73033">
        <ele>223.80000305176</ele>
        <time>2021-09-12T08:04:21Z</time>
      </trkpt>
      <trkpt lat="48.38657" lon="-3.73031">
        <ele>224</ele>
        <time>2021-09-12T08:04:22Z</time>
      </trkpt>
      <trkpt lat="48.38659" lon="-3.73029">
        <ele>224</ele>
        <time>2021-09-12T08:04:23Z</time>
      </trkpt>
      <trkpt lat="48.38661" lon="-3.73027">
        <ele>224</ele>
        <time>2021-09-12T08:04:24Z</time>
      </trkpt>
      <trkpt lat="48.38664" lon="-3.73025">
        <ele>224.80000305176</ele>
        <time>2021-09-12T08:04:25Z</time>
      </trkpt>
      <trkpt lat="48.38666" lon="-3.73023">
        <ele>224.80000305176</ele>
        <time>2021-09-12T08:04:26Z</time>
      </trkpt>
      <trkpt lat="48.38669" lon="-3.73021">
        <ele>224.80000305176</ele>
        <time>2021-09-12T08:04:27Z</time>
      </trkpt>
      <trkpt lat="48.38671" lon="-3.73019">
        <ele>225</ele>
        <time>2021-09-12T08:04:28Z</time>
      </trkpt>
      <trkpt lat="48.38673" lon="-3.73017">
        <ele>225</ele>
        <time>2021-09-12T08:04:29Z</time>
      </trkpt>
      <trkpt lat="48.38676" lon="-3.73015">
        <ele>225</ele>
        <time>2021-09-12T08:04:30Z</time>
      </trkpt>
      <trkpt lat="48.38678" lon="-3.73013">
        <ele>225.19999694824</ele>
        <time>2021-09-12T08:04:31Z</time>
      </trkpt>
      <trkpt lat="48.38679" lon="-3.73011">
        <ele>225.39999389648</ele>
        <time>2021-09-12T08:04:32Z</time>
      </trkpt>
      <trkpt lat="48.38682" lon="-3.73009">
        <ele>225.60000610352</ele>
        <time>2021-09-12T08:04:33Z</time>
      </trkpt>
      <trkpt lat="48.38684" lon="-3.73009">
        <ele>225.80000305176</ele>
        <time>2021-09-12T08:04:34Z</time>
      </trkpt>
      <trkpt lat="48.38686" lon="-3.73008">
        <ele>225.80000305176</ele>
        <time>2021-09-12T08:04:35Z</time>
      </trkpt>
      <trkpt lat="48.38687" lon="-3.73007">
        <ele>225.80000305176</ele>
        <time>2021-09-12T08:04:36Z</time>
      </trkpt>
      <trkpt lat="48.38689" lon="-3.73004">
        <ele>226</ele>
        <time>2021-09-12T08:04:37Z</time>
      </trkpt>
      <trkpt lat="48.38691" lon="-3.73002">
        <ele>226.39999389648</ele>
        <time>2021-09-12T08:04:38Z</time>
      </trkpt>
      <trkpt lat="48.38693" lon="-3.73">
        <ele>226.39999389648</ele>
        <time>2021-09-12T08:04:39Z</time>
      </trkpt>
      <trkpt lat="48.38695" lon="-3.72998">
        <ele>226.60000610352</ele>
        <time>2021-09-12T08:04:40Z</time>
      </trkpt>
      <trkpt lat="48.38696" lon="-3.72996">
        <ele>226.80000305176</ele>
        <time>2021-09-12T08:04:41Z</time>
      </trkpt>
      <trkpt lat="48.38699" lon="-3.72994">
        <ele>226.80000305176</ele>
        <time>2021-09-12T08:04:42Z</time>
      </trkpt>
      <trkpt lat="48.387" lon="-3.72991">
        <ele>227.19999694824</ele>
        <time>2021-09-12T08:04:43Z</time>
      </trkpt>
      <trkpt lat="48.38702" lon="-3.7299">
        <ele>227.60000610352</ele>
        <time>2021-09-12T08:04:44Z</time>
      </trkpt>
      <trkpt lat="48.38704" lon="-3.72989">
        <ele>227.60000610352</ele>
        <time>2021-09-12T08:04:45Z</time>
      </trkpt>
      <trkpt lat="48.38705" lon="-3.72987">
        <ele>227.80000305176</ele>
        <time>2021-09-12T08:04:46Z</time>
      </trkpt>
      <trkpt lat="48.38708" lon="-3.72986">
        <ele>228</ele>
        <time>2021-09-12T08:04:47Z</time>
      </trkpt>
      <trkpt lat="48.38709" lon="-3.72984">
        <ele>228.39999389648</ele>
        <time>2021-09-12T08:04:48Z</time>
      </trkpt>
      <trkpt lat="48.38711" lon="-3.72982">
        <ele>228.60000610352</ele>
        <time>2021-09-12T08:04:49Z</time>
      </trkpt>
      <trkpt lat="48.38713" lon="-3.7298">
        <ele>229</ele>
        <time>2021-09-12T08:04:50Z</time>
      </trkpt>
      <trkpt lat="48.38715" lon="-3.72979">
        <ele>229</ele>
        <time>2021-09-12T08:04:51Z</time>
      </trkpt>
      <trkpt lat="48.38717" lon="-3.72976">
        <ele>229</ele>
        <time>2021-09-12T08:04:52Z</time>
      </trkpt>
      <trkpt lat="48.38719" lon="-3.72974">
        <ele>229.19999694824</ele>
        <time>2021-09-12T08:04:53Z</time>
      </trkpt>
      <trkpt lat="48.38721" lon="-3.72972">
        <ele>229.39999389648</ele>
        <time>2021-09-12T08:04:54Z</time>
      </trkpt>
      <trkpt lat="48.38724" lon="-3.7297">
        <ele>229.39999389648</ele>
        <time>2021-09-12T08:04:55Z</time>
      </trkpt>
      <trkpt lat="48.38726" lon="-3.72969">
        <ele>229.60000610352</ele>
        <time>2021-09-12T08:04:56Z</time>
      </trkpt>
      <trkpt lat="48.38728" lon="-3.72968">
        <ele>229.80000305176</ele>
        <time>2021-09-12T08:04:57Z</time>
      </trkpt>
      <trkpt lat="48.38731" lon="-3.72965">
        <ele>230.19999694824</ele>
        <time>2021-09-12T08:04:58Z</time>
      </trkpt>
      <trkpt lat="48.38734" lon="-3.72963">
        <ele>230.39999389648</ele>
        <time>2021-09-12T08:04:59Z</time>
      </trkpt>
      <trkpt lat="48.38738" lon="-3.7296">
        <ele>230.39999389648</ele>
        <time>2021-09-12T08:05:00Z</time>
      </trkpt>
      <trkpt lat="48.38741" lon="-3.72958">
        <ele>230.60000610352</ele>
        <time>2021-09-12T08:05:01Z</time>
      </trkpt>
      <trkpt lat="48.38744" lon="-3.72956">
        <ele>230.60000610352</ele>
        <time>2021-09-12T08:05:02Z</time>
      </trkpt>
      <trkpt lat="48.38746" lon="-3.72954">
        <ele>231</ele>
        <time>2021-09-12T08:05:03Z</time>
      </trkpt>
      <trkpt lat="48.38749" lon="-3.72953">
        <ele>231.19999694824</ele>
        <time>2021-09-12T08:05:04Z</time>
      </trkpt>
      <trkpt lat="48.38752" lon="-3.72953">
        <ele>231.19999694824</ele>
        <time>2021-09-12T08:05:05Z</time>
      </trkpt>
      <trkpt lat="48.38755" lon="-3.72953">
        <ele>231.39999389648</ele>
        <time>2021-09-12T08:05:06Z</time>
      </trkpt>
      <trkpt lat="48.38757" lon="-3.72953">
        <ele>231.39999389648</ele>
        <time>2021-09-12T08:05:07Z</time>
      </trkpt>
      <trkpt lat="48.38758" lon="-3.72952">
        <ele>231.39999389648</ele>
        <time>2021-09-12T08:05:08Z</time>
      </trkpt>
      <trkpt lat="48.3876" lon="-3.72951">
        <ele>232</ele>
        <time>2021-09-12T08:05:09Z</time>
      </trkpt>
      <trkpt lat="48.38762" lon="-3.72952">
        <ele>232.39999389648</ele>
        <time>2021-09-12T08:05:10Z</time>
      </trkpt>
      <trkpt lat="48.38764" lon="-3.72952">
        <ele>232.80000305176</ele>
        <time>2021-09-12T08:05:11Z</time>
      </trkpt>
      <trkpt lat="48.38766" lon="-3.72952">
        <ele>232.80000305176</ele>
        <time>2021-09-12T08:05:12Z</time>
      </trkpt>
      <trkpt lat="48.38767" lon="-3.72952">
        <ele>232.80000305176</ele>
        <time>2021-09-12T08:05:13Z</time>
      </trkpt>
      <trkpt lat="48.3877" lon="-3.72952">
        <ele>233.19999694824</ele>
        <time>2021-09-12T08:05:14Z</time>
      </trkpt>
      <trkpt lat="48.38772" lon="-3.72953">
        <ele>233.60000610352</ele>
        <time>2021-09-12T08:05:15Z</time>
      </trkpt>
      <trkpt lat="48.38774" lon="-3.72953">
        <ele>233.60000610352</ele>
        <time>2021-09-12T08:05:16Z</time>
      </trkpt>
      <trkpt lat="48.38776" lon="-3.72953">
        <ele>233.80000305176</ele>
        <time>2021-09-12T08:05:17Z</time>
      </trkpt>
      <trkpt lat="48.38777" lon="-3.72954">
        <ele>234</ele>
        <time>2021-09-12T08:05:18Z</time>
      </trkpt>
      <trkpt lat="48.38779" lon="-3.72954">
        <ele>234.39999389648</ele>
        <time>2021-09-12T08:05:19Z</time>
      </trkpt>
      <trkpt lat="48.3878" lon="-3.72954">
        <ele>234.80000305176</ele>
        <time>2021-09-12T08:05:20Z</time>
      </trkpt>
      <trkpt lat="48.38781" lon="-3.72955">
        <ele>234.80000305176</ele>
        <time>2021-09-12T08:05:21Z</time>
      </trkpt>
      <trkpt lat="48.38782" lon="-3.72956">
        <ele>235.19999694824</ele>
        <time>2021-09-12T08:05:22Z</time>
      </trkpt>
      <trkpt lat="48.38784" lon="-3.72957">
        <ele>235.60000610352</ele>
        <time>2021-09-12T08:05:23Z</time>
      </trkpt>
      <trkpt lat="48.38785" lon="-3.72958">
        <ele>235.80000305176</ele>
        <time>2021-09-12T08:05:24Z</time>
      </trkpt>
      <trkpt lat="48.38786" lon="-3.72958">
        <ele>236.19999694824</ele>
        <time>2021-09-12T08:05:25Z</time>
      </trkpt>
      <trkpt lat="48.38786" lon="-3.72959">
        <ele>236.39999389648</ele>
        <time>2021-09-12T08:05:26Z</time>
      </trkpt>
      <trkpt lat="48.38787" lon="-3.7296">
        <ele>236.39999389648</ele>
        <time>2021-09-12T08:05:27Z</time>
      </trkpt>
      <trkpt lat="48.38789" lon="-3.72961">
        <ele>236.39999389648</ele>
        <time>2021-09-12T08:05:28Z</time>
      </trkpt>
      <trkpt lat="48.38791" lon="-3.72963">
        <ele>237.19999694824</ele>
        <time>2021-09-12T08:05:29Z</time>
      </trkpt>
      <trkpt lat="48.38794" lon="-3.72964">
        <ele>237.19999694824</ele>
        <time>2021-09-12T08:05:30Z</time>
      </trkpt>
      <trkpt lat="48.38796" lon="-3.72966">
        <ele>237.19999694824</ele>
        <time>2021-09-12T08:05:31Z</time>
      </trkpt>
      <trkpt lat="48.38797" lon="-3.72967">
        <ele>237.60000610352</ele>
        <time>2021-09-12T08:05:32Z</time>
      </trkpt>
      <trkpt lat="48.38798" lon="-3.72968">
        <ele>237.60000610352</ele>
        <time>2021-09-12T08:05:33Z</time>
      </trkpt>
      <trkpt lat="48.388" lon="-3.72969">
        <ele>237.80000305176</ele>
        <time>2021-09-12T08:05:34Z</time>
      </trkpt>
      <trkpt lat="48.38801" lon="-3.72971">
        <ele>237.80000305176</ele>
        <time>2021-09-12T08:05:35Z</time>
      </trkpt>
      <trkpt lat="48.38802" lon="-3.72972">
        <ele>238.19999694824</ele>
        <time>2021-09-12T08:05:36Z</time>
      </trkpt>
      <trkpt lat="48.38804" lon="-3.72974">
        <ele>238.39999389648</ele>
        <time>2021-09-12T08:05:37Z</time>
      </trkpt>
      <trkpt lat="48.38806" lon="-3.72975">
        <ele>238.80000305176</ele>
        <time>2021-09-12T08:05:38Z</time>
      </trkpt>
      <trkpt lat="48.38807" lon="-3.72976">
        <ele>239.39999389648</ele>
        <time>2021-09-12T08:05:39Z</time>
      </trkpt>
      <trkpt lat="48.38808" lon="-3.72978">
        <ele>239.60000610352</ele>
        <time>2021-09-12T08:05:40Z</time>
      </trkpt>
      <trkpt lat="48.3881" lon="-3.7298">
        <ele>239.60000610352</ele>
        <time>2021-09-12T08:05:41Z</time>
      </trkpt>
      <trkpt lat="48.38812" lon="-3.72983">
        <ele>239.60000610352</ele>
        <time>2021-09-12T08:05:42Z</time>
      </trkpt>
      <trkpt lat="48.38814" lon="-3.72985">
        <ele>240</ele>
        <time>2021-09-12T08:05:43Z</time>
      </trkpt>
      <trkpt lat="48.38816" lon="-3.72987">
        <ele>240.19999694824</ele>
        <time>2021-09-12T08:05:44Z</time>
      </trkpt>
      <trkpt lat="48.38818" lon="-3.72989">
        <ele>240.39999389648</ele>
        <time>2021-09-12T08:05:45Z</time>
      </trkpt>
      <trkpt lat="48.3882" lon="-3.72991">
        <ele>240.60000610352</ele>
        <time>2021-09-12T08:05:46Z</time>
      </trkpt>
      <trkpt lat="48.38821" lon="-3.72994">
        <ele>240.80000305176</ele>
        <time>2021-09-12T08:05:47Z</time>
      </trkpt>
      <trkpt lat="48.38824" lon="-3.72995">
        <ele>241</ele>
        <time>2021-09-12T08:05:48Z</time>
      </trkpt>
      <trkpt lat="48.38826" lon="-3.72997">
        <ele>241</ele>
        <time>2021-09-12T08:05:49Z</time>
      </trkpt>
      <trkpt lat="48.38828" lon="-3.72999">
        <ele>241</ele>
        <time>2021-09-12T08:05:50Z</time>
      </trkpt>
      <trkpt lat="48.38831" lon="-3.73002">
        <ele>241</ele>
        <time>2021-09-12T08:05:51Z</time>
      </trkpt>
      <trkpt lat="48.38834" lon="-3.73004">
        <ele>241.60000610352</ele>
        <time>2021-09-12T08:05:52Z</time>
      </trkpt>
      <trkpt lat="48.38836" lon="-3.73005">
        <ele>241.80000305176</ele>
        <time>2021-09-12T08:05:53Z</time>
      </trkpt>
      <trkpt lat="48.38839" lon="-3.73007">
        <ele>241.80000305176</ele>
        <time>2021-09-12T08:05:54Z</time>
      </trkpt>
      <trkpt lat="48.38841" lon="-3.73009">
        <ele>242</ele>
        <time>2021-09-12T08:05:55Z</time>
      </trkpt>
      <trkpt lat="48.38845" lon="-3.73011">
        <ele>242.19999694824</ele>
        <time>2021-09-12T08:05:56Z</time>
      </trkpt>
      <trkpt lat="48.38846" lon="-3.73011">
        <ele>242.19999694824</ele>
        <time>2021-09-12T08:05:57Z</time>
      </trkpt>
      <trkpt lat="48.38848" lon="-3.73013">
        <ele>242.19999694824</ele>
        <time>2021-09-12T08:05:58Z</time>
      </trkpt>
      <trkpt lat="48.38849" lon="-3.73014">
        <ele>242.60000610352</ele>
        <time>2021-09-12T08:05:59Z</time>
      </trkpt>
      <trkpt lat="48.38851" lon="-3.73015">
        <ele>242.60000610352</ele>
        <time>2021-09-12T08:06:00Z</time>
      </trkpt>
      <trkpt lat="48.38853" lon="-3.73017">
        <ele>243</ele>
        <time>2021-09-12T08:06:01Z</time>
      </trkpt>
      <trkpt lat="48.38854" lon="-3.73019">
        <ele>243</ele>
        <time>2021-09-12T08:06:02Z</time>
      </trkpt>
      <trkpt lat="48.38856" lon="-3.73021">
        <ele>243.19999694824</ele>
        <time>2021-09-12T08:06:03Z</time>
      </trkpt>
      <trkpt lat="48.38858" lon="-3.73022">
        <ele>243.19999694824</ele>
        <time>2021-09-12T08:06:04Z</time>
      </trkpt>
      <trkpt lat="48.3886" lon="-3.73024">
        <ele>243.19999694824</ele>
        <time>2021-09-12T08:06:05Z</time>
      </trkpt>
      <trkpt lat="48.38862" lon="-3.73026">
        <ele>243.19999694824</ele>
        <time>2021-09-12T08:06:06Z</time>
      </trkpt>
      <trkpt lat="48.38863" lon="-3.73028">
        <ele>243.39999389648</ele>
        <time>2021-09-12T08:06:07Z</time>
      </trkpt>
      <trkpt lat="48.38865" lon="-3.73029">
        <ele>243.80000305176</ele>
        <time>2021-09-12T08:06:08Z</time>
      </trkpt>
      <trkpt lat="48.38866" lon="-3.73031">
        <ele>243.80000305176</ele>
        <time>2021-09-12T08:06:09Z</time>
      </trkpt>
      <trkpt lat="48.38868" lon="-3.73032">
        <ele>243.80000305176</ele>
        <time>2021-09-12T08:06:10Z</time>
      </trkpt>
      <trkpt lat="48.38869" lon="-3.73034">
        <ele>243.80000305176</ele>
        <time>2021-09-12T08:06:11Z</time>
      </trkpt>
      <trkpt lat="48.38871" lon="-3.73035">
        <ele>244</ele>
        <time>2021-09-12T08:06:12Z</time>
      </trkpt>
      <trkpt lat="48.38873" lon="-3.73037">
        <ele>244</ele>
        <time>2021-09-12T08:06:13Z</time>
      </trkpt>
      <trkpt lat="48.38874" lon="-3.73039">
        <ele>244.19999694824</ele>
        <time>2021-09-12T08:06:14Z</time>
      </trkpt>
      <trkpt lat="48.38876" lon="-3.73041">
        <ele>244.39999389648</ele>
        <time>2021-09-12T08:06:15Z</time>
      </trkpt>
      <trkpt lat="48.38878" lon="-3.73043">
        <ele>244.39999389648</ele>
        <time>2021-09-12T08:06:16Z</time>
      </trkpt>
      <trkpt lat="48.3888" lon="-3.73045">
        <ele>244.39999389648</ele>
        <time>2021-09-12T08:06:17Z</time>
      </trkpt>
      <trkpt lat="48.38882" lon="-3.73047">
        <ele>244.39999389648</ele>
        <time>2021-09-12T08:06:18Z</time>
      </trkpt>
      <trkpt lat="48.38884" lon="-3.7305">
        <ele>244.60000610352</ele>
        <time>2021-09-12T08:06:19Z</time>
      </trkpt>
      <trkpt lat="48.38886" lon="-3.73053">
        <ele>244.60000610352</ele>
        <time>2021-09-12T08:06:20Z</time>
      </trkpt>
      <trkpt lat="48.38888" lon="-3.73056">
        <ele>244.60000610352</ele>
        <time>2021-09-12T08:06:21Z</time>
      </trkpt>
      <trkpt lat="48.38889" lon="-3.7306">
        <ele>244.60000610352</ele>
        <time>2021-09-12T08:06:22Z</time>
      </trkpt>
      <trkpt lat="48.3889" lon="-3.73065">
        <ele>244.80000305176</ele>
        <time>2021-09-12T08:06:23Z</time>
      </trkpt>
      <trkpt lat="48.38891" lon="-3.7307">
        <ele>244.80000305176</ele>
        <time>2021-09-12T08:06:24Z</time>
      </trkpt>
      <trkpt lat="48.38893" lon="-3.73074">
        <ele>244.80000305176</ele>
        <time>2021-09-12T08:06:25Z</time>
      </trkpt>
      <trkpt lat="48.38894" lon="-3.73079">
        <ele>244.80000305176</ele>
        <time>2021-09-12T08:06:26Z</time>
      </trkpt>
      <trkpt lat="48.38896" lon="-3.73084">
        <ele>244.80000305176</ele>
        <time>2021-09-12T08:06:27Z</time>
      </trkpt>
      <trkpt lat="48.38899" lon="-3.73087">
        <ele>244.80000305176</ele>
        <time>2021-09-12T08:06:28Z</time>
      </trkpt>
      <trkpt lat="48.38901" lon="-3.73091">
        <ele>244.80000305176</ele>
        <time>2021-09-12T08:06:29Z</time>
      </trkpt>
      <trkpt lat="48.38903" lon="-3.73094">
        <ele>244.80000305176</ele>
        <time>2021-09-12T08:06:30Z</time>
      </trkpt>
      <trkpt lat="48.38905" lon="-3.73097">
        <ele>244.80000305176</ele>
        <time>2021-09-12T08:06:31Z</time>
      </trkpt>
      <trkpt lat="48.38908" lon="-3.73101">
        <ele>244.80000305176</ele>
        <time>2021-09-12T08:06:32Z</time>
      </trkpt>
      <trkpt lat="48.38911" lon="-3.73104">
        <ele>244.80000305176</ele>
        <time>2021-09-12T08:06:33Z</time>
      </trkpt>
      <trkpt lat="48.38914" lon="-3.73109">
        <ele>244.80000305176</ele>
        <time>2021-09-12T08:06:34Z</time>
      </trkpt>
      <trkpt lat="48.38916" lon="-3.73115">
        <ele>244.80000305176</ele>
        <time>2021-09-12T08:06:35Z</time>
      </trkpt>
      <trkpt lat="48.38916" lon="-3.73121">
        <ele>244.80000305176</ele>
        <time>2021-09-12T08:06:36Z</time>
      </trkpt>
      <trkpt lat="48.38915" lon="-3.73127">
        <ele>244.80000305176</ele>
        <time>2021-09-12T08:06:37Z</time>
      </trkpt>
      <trkpt lat="48.38915" lon="-3.73135">
        <ele>244.60000610352</ele>
        <time>2021-09-12T08:06:38Z</time>
      </trkpt>
      <trkpt lat="48.38915" lon="-3.73141">
        <ele>244.60000610352</ele>
        <time>2021-09-12T08:06:39Z</time>
      </trkpt>
      <trkpt lat="48.38916" lon="-3.73149">
        <ele>244.60000610352</ele>
        <time>2021-09-12T08:06:40Z</time>
      </trkpt>
      <trkpt lat="48.38917" lon="-3.73157">
        <ele>244.39999389648</ele>
        <time>2021-09-12T08:06:41Z</time>
      </trkpt>
      <trkpt lat="48.38917" lon="-3.73165">
        <ele>243.80000305176</ele>
        <time>2021-09-12T08:06:42Z</time>
      </trkpt>
      <trkpt lat="48.38918" lon="-3.73173">
        <ele>243.80000305176</ele>
        <time>2021-09-12T08:06:43Z</time>
      </trkpt>
      <trkpt lat="48.38919" lon="-3.73181">
        <ele>243.19999694824</ele>
        <time>2021-09-12T08:06:44Z</time>
      </trkpt>
      <trkpt lat="48.3892" lon="-3.7319">
        <ele>242.60000610352</ele>
        <time>2021-09-12T08:06:45Z</time>
      </trkpt>
      <trkpt lat="48.3892" lon="-3.73199">
        <ele>242.39999389648</ele>
        <time>2021-09-12T08:06:46Z</time>
      </trkpt>
      <trkpt lat="48.38921" lon="-3.73209">
        <ele>242.19999694824</ele>
        <time>2021-09-12T08:06:47Z</time>
      </trkpt>
      <trkpt lat="48.38921" lon="-3.7322">
        <ele>241</ele>
        <time>2021-09-12T08:06:48Z</time>
      </trkpt>
      <trkpt lat="48.38921" lon="-3.7323">
        <ele>240.39999389648</ele>
        <time>2021-09-12T08:06:49Z</time>
      </trkpt>
      <trkpt lat="48.38921" lon="-3.73241">
        <ele>240</ele>
        <time>2021-09-12T08:06:50Z</time>
      </trkpt>
      <trkpt lat="48.3892" lon="-3.73251">
        <ele>238.80000305176</ele>
        <time>2021-09-12T08:06:51Z</time>
      </trkpt>
      <trkpt lat="48.3892" lon="-3.73261">
        <ele>238.19999694824</ele>
        <time>2021-09-12T08:06:52Z</time>
      </trkpt>
      <trkpt lat="48.38919" lon="-3.73268">
        <ele>237</ele>
        <time>2021-09-12T08:06:53Z</time>
      </trkpt>
      <trkpt lat="48.38918" lon="-3.73272">
        <ele>236.60000610352</ele>
        <time>2021-09-12T08:06:54Z</time>
      </trkpt>
      <trkpt lat="48.38916" lon="-3.73274">
        <ele>236.60000610352</ele>
        <time>2021-09-12T08:06:55Z</time>
      </trkpt>
      <trkpt lat="48.38913" lon="-3.73273">
        <ele>236.39999389648</ele>
        <time>2021-09-12T08:06:56Z</time>
      </trkpt>
      <trkpt lat="48.38909" lon="-3.73271">
        <ele>236.19999694824</ele>
        <time>2021-09-12T08:06:57Z</time>
      </trkpt>
      <trkpt lat="48.38906" lon="-3.73268">
        <ele>236.19999694824</ele>
        <time>2021-09-12T08:06:58Z</time>
      </trkpt>
      <trkpt lat="48.38902" lon="-3.73266">
        <ele>236.19999694824</ele>
        <time>2021-09-12T08:06:59Z</time>
      </trkpt>
      <trkpt lat="48.38899" lon="-3.73264">
        <ele>236.19999694824</ele>
        <time>2021-09-12T08:07:00Z</time>
      </trkpt>
      <trkpt lat="48.38895" lon="-3.73262">
        <ele>236.39999389648</ele>
        <time>2021-09-12T08:07:01Z</time>
      </trkpt>
      <trkpt lat="48.38892" lon="-3.73261">
        <ele>236.39999389648</ele>
        <time>2021-09-12T08:07:02Z</time>
      </trkpt>
      <trkpt lat="48.38889" lon="-3.7326">
        <ele>237</ele>
        <time>2021-09-12T08:07:03Z</time>
      </trkpt>
      <trkpt lat="48.38886" lon="-3.73258">
        <ele>237.60000610352</ele>
        <time>2021-09-12T08:07:04Z</time>
      </trkpt>
      <trkpt lat="48.38883" lon="-3.73256">
        <ele>237.80000305176</ele>
        <time>2021-09-12T08:07:05Z</time>
      </trkpt>
      <trkpt lat="48.3888" lon="-3.73255">
        <ele>238</ele>
        <time>2021-09-12T08:07:06Z</time>
      </trkpt>
      <trkpt lat="48.38877" lon="-3.73254">
        <ele>238.39999389648</ele>
        <time>2021-09-12T08:07:07Z</time>
      </trkpt>
      <trkpt lat="48.38873" lon="-3.73253">
        <ele>238.39999389648</ele>
        <time>2021-09-12T08:07:08Z</time>
      </trkpt>
      <trkpt lat="48.38869" lon="-3.73252">
        <ele>238.60000610352</ele>
        <time>2021-09-12T08:07:09Z</time>
      </trkpt>
      <trkpt lat="48.38867" lon="-3.73252">
        <ele>238.60000610352</ele>
        <time>2021-09-12T08:07:10Z</time>
      </trkpt>
      <trkpt lat="48.38864" lon="-3.73251">
        <ele>238.80000305176</ele>
        <time>2021-09-12T08:07:11Z</time>
      </trkpt>
      <trkpt lat="48.38861" lon="-3.7325">
        <ele>239</ele>
        <time>2021-09-12T08:07:12Z</time>
      </trkpt>
      <trkpt lat="48.38859" lon="-3.7325">
        <ele>239</ele>
        <time>2021-09-12T08:07:13Z</time>
      </trkpt>
      <trkpt lat="48.38855" lon="-3.7325">
        <ele>239.19999694824</ele>
        <time>2021-09-12T08:07:14Z</time>
      </trkpt>
      <trkpt lat="48.38851" lon="-3.7325">
        <ele>239.19999694824</ele>
        <time>2021-09-12T08:07:15Z</time>
      </trkpt>
      <trkpt lat="48.38849" lon="-3.73251">
        <ele>239.39999389648</ele>
        <time>2021-09-12T08:07:16Z</time>
      </trkpt>
      <trkpt lat="48.38846" lon="-3.73251">
        <ele>239.39999389648</ele>
        <time>2021-09-12T08:07:17Z</time>
      </trkpt>
      <trkpt lat="48.38843" lon="-3.73252">
        <ele>239.39999389648</ele>
        <time>2021-09-12T08:07:18Z</time>
      </trkpt>
      <trkpt lat="48.38839" lon="-3.73253">
        <ele>239.39999389648</ele>
        <time>2021-09-12T08:07:19Z</time>
      </trkpt>
      <trkpt lat="48.38834" lon="-3.73253">
        <ele>239.39999389648</ele>
        <time>2021-09-12T08:07:20Z</time>
      </trkpt>
      <trkpt lat="48.3883" lon="-3.73254">
        <ele>239</ele>
        <time>2021-09-12T08:07:21Z</time>
      </trkpt>
      <trkpt lat="48.38825" lon="-3.73254">
        <ele>239</ele>
        <time>2021-09-12T08:07:22Z</time>
      </trkpt>
      <trkpt lat="48.3882" lon="-3.73257">
        <ele>239</ele>
        <time>2021-09-12T08:07:23Z</time>
      </trkpt>
      <trkpt lat="48.38817" lon="-3.73259">
        <ele>239</ele>
        <time>2021-09-12T08:07:24Z</time>
      </trkpt>
      <trkpt lat="48.38815" lon="-3.73262">
        <ele>238.80000305176</ele>
        <time>2021-09-12T08:07:25Z</time>
      </trkpt>
      <trkpt lat="48.38812" lon="-3.73263">
        <ele>238.60000610352</ele>
        <time>2021-09-12T08:07:26Z</time>
      </trkpt>
      <trkpt lat="48.38808" lon="-3.73265">
        <ele>238.60000610352</ele>
        <time>2021-09-12T08:07:27Z</time>
      </trkpt>
      <trkpt lat="48.38804" lon="-3.73267">
        <ele>238.39999389648</ele>
        <time>2021-09-12T08:07:28Z</time>
      </trkpt>
      <trkpt lat="48.388" lon="-3.73269">
        <ele>238.19999694824</ele>
        <time>2021-09-12T08:07:29Z</time>
      </trkpt>
      <trkpt lat="48.38798" lon="-3.73271">
        <ele>238.19999694824</ele>
        <time>2021-09-12T08:07:30Z</time>
      </trkpt>
      <trkpt lat="48.38795" lon="-3.73275">
        <ele>238.19999694824</ele>
        <time>2021-09-12T08:07:31Z</time>
      </trkpt>
      <trkpt lat="48.38792" lon="-3.7328">
        <ele>238</ele>
        <time>2021-09-12T08:07:32Z</time>
      </trkpt>
      <trkpt lat="48.38789" lon="-3.73285">
        <ele>237.80000305176</ele>
        <time>2021-09-12T08:07:33Z</time>
      </trkpt>
      <trkpt lat="48.38786" lon="-3.73291">
        <ele>237.80000305176</ele>
        <time>2021-09-12T08:07:34Z</time>
      </trkpt>
      <trkpt lat="48.38784" lon="-3.73297">
        <ele>237.60000610352</ele>
        <time>2021-09-12T08:07:35Z</time>
      </trkpt>
      <trkpt lat="48.38782" lon="-3.73303">
        <ele>237.39999389648</ele>
        <time>2021-09-12T08:07:36Z</time>
      </trkpt>
      <trkpt lat="48.38779" lon="-3.73309">
        <ele>237</ele>
        <time>2021-09-12T08:07:37Z</time>
      </trkpt>
      <trkpt lat="48.38777" lon="-3.73314">
        <ele>236.80000305176</ele>
        <time>2021-09-12T08:07:38Z</time>
      </trkpt>
      <trkpt lat="48.38774" lon="-3.73319">
        <ele>236.39999389648</ele>
        <time>2021-09-12T08:07:39Z</time>
      </trkpt>
      <trkpt lat="48.38769" lon="-3.73325">
        <ele>236.19999694824</ele>
        <time>2021-09-12T08:07:40Z</time>
      </trkpt>
      <trkpt lat="48.38765" lon="-3.73331">
        <ele>236</ele>
        <time>2021-09-12T08:07:41Z</time>
      </trkpt>
      <trkpt lat="48.38763" lon="-3.73338">
        <ele>235.80000305176</ele>
        <time>2021-09-12T08:07:42Z</time>
      </trkpt>
      <trkpt lat="48.3876" lon="-3.73346">
        <ele>235</ele>
        <time>2021-09-12T08:07:43Z</time>
      </trkpt>
      <trkpt lat="48.38757" lon="-3.73354">
        <ele>234.80000305176</ele>
        <time>2021-09-12T08:07:44Z</time>
      </trkpt>
      <trkpt lat="48.38754" lon="-3.73362">
        <ele>234.80000305176</ele>
        <time>2021-09-12T08:07:45Z</time>
      </trkpt>
      <trkpt lat="48.3875" lon="-3.7337">
        <ele>234.39999389648</ele>
        <time>2021-09-12T08:07:46Z</time>
      </trkpt>
      <trkpt lat="48.38748" lon="-3.73378">
        <ele>234.39999389648</ele>
        <time>2021-09-12T08:07:47Z</time>
      </trkpt>
      <trkpt lat="48.38746" lon="-3.73385">
        <ele>234</ele>
        <time>2021-09-12T08:07:48Z</time>
      </trkpt>
      <trkpt lat="48.38746" lon="-3.73393">
        <ele>234</ele>
        <time>2021-09-12T08:07:49Z</time>
      </trkpt>
      <trkpt lat="48.38746" lon="-3.73402">
        <ele>234</ele>
        <time>2021-09-12T08:07:50Z</time>
      </trkpt>
      <trkpt lat="48.38747" lon="-3.7341">
        <ele>234</ele>
        <time>2021-09-12T08:07:51Z</time>
      </trkpt>
      <trkpt lat="48.38748" lon="-3.73417">
        <ele>234</ele>
        <time>2021-09-12T08:07:52Z</time>
      </trkpt>
      <trkpt lat="48.38749" lon="-3.73423">
        <ele>234</ele>
        <time>2021-09-12T08:07:53Z</time>
      </trkpt>
      <trkpt lat="48.3875" lon="-3.7343">
        <ele>234</ele>
        <time>2021-09-12T08:07:54Z</time>
      </trkpt>
      <trkpt lat="48.38751" lon="-3.73436">
        <ele>234</ele>
        <time>2021-09-12T08:07:55Z</time>
      </trkpt>
      <trkpt lat="48.3875" lon="-3.73443">
        <ele>234</ele>
        <time>2021-09-12T08:07:56Z</time>
      </trkpt>
      <trkpt lat="48.38748" lon="-3.73448">
        <ele>234.19999694824</ele>
        <time>2021-09-12T08:07:57Z</time>
      </trkpt>
      <trkpt lat="48.38745" lon="-3.73453">
        <ele>234.19999694824</ele>
        <time>2021-09-12T08:07:58Z</time>
      </trkpt>
      <trkpt lat="48.38742" lon="-3.73458">
        <ele>234.19999694824</ele>
        <time>2021-09-12T08:07:59Z</time>
      </trkpt>
      <trkpt lat="48.3874" lon="-3.73464">
        <ele>234.19999694824</ele>
        <time>2021-09-12T08:08:00Z</time>
      </trkpt>
      <trkpt lat="48.38739" lon="-3.7347">
        <ele>234.19999694824</ele>
        <time>2021-09-12T08:08:01Z</time>
      </trkpt>
      <trkpt lat="48.38738" lon="-3.73476">
        <ele>234</ele>
        <time>2021-09-12T08:08:02Z</time>
      </trkpt>
      <trkpt lat="48.38738" lon="-3.73484">
        <ele>234</ele>
        <time>2021-09-12T08:08:03Z</time>
      </trkpt>
      <trkpt lat="48.38737" lon="-3.73492">
        <ele>234</ele>
        <time>2021-09-12T08:08:04Z</time>
      </trkpt>
      <trkpt lat="48.38737" lon="-3.73501">
        <ele>233.80000305176</ele>
        <time>2021-09-12T08:08:05Z</time>
      </trkpt>
      <trkpt lat="48.38737" lon="-3.73509">
        <ele>233.80000305176</ele>
        <time>2021-09-12T08:08:06Z</time>
      </trkpt>
      <trkpt lat="48.38737" lon="-3.73517">
        <ele>233.80000305176</ele>
        <time>2021-09-12T08:08:07Z</time>
      </trkpt>
      <trkpt lat="48.38738" lon="-3.73524">
        <ele>233.60000610352</ele>
        <time>2021-09-12T08:08:08Z</time>
      </trkpt>
      <trkpt lat="48.38738" lon="-3.73532">
        <ele>233.60000610352</ele>
        <time>2021-09-12T08:08:09Z</time>
      </trkpt>
      <trkpt lat="48.38737" lon="-3.73539">
        <ele>233.19999694824</ele>
        <time>2021-09-12T08:08:10Z</time>
      </trkpt>
      <trkpt lat="48.38735" lon="-3.73546">
        <ele>232.39999389648</ele>
        <time>2021-09-12T08:08:11Z</time>
      </trkpt>
      <trkpt lat="48.38734" lon="-3.73553">
        <ele>232.19999694824</ele>
        <time>2021-09-12T08:08:12Z</time>
      </trkpt>
      <trkpt lat="48.3873" lon="-3.7356">
        <ele>231.80000305176</ele>
        <time>2021-09-12T08:08:13Z</time>
      </trkpt>
      <trkpt lat="48.38726" lon="-3.73566">
        <ele>231.39999389648</ele>
        <time>2021-09-12T08:08:14Z</time>
      </trkpt>
      <trkpt lat="48.38721" lon="-3.7357">
        <ele>230.80000305176</ele>
        <time>2021-09-12T08:08:15Z</time>
      </trkpt>
      <trkpt lat="48.38716" lon="-3.73573">
        <ele>230</ele>
        <time>2021-09-12T08:08:16Z</time>
      </trkpt>
      <trkpt lat="48.38712" lon="-3.73576">
        <ele>229.19999694824</ele>
        <time>2021-09-12T08:08:17Z</time>
      </trkpt>
      <trkpt lat="48.38707" lon="-3.73577">
        <ele>229.19999694824</ele>
        <time>2021-09-12T08:08:18Z</time>
      </trkpt>
      <trkpt lat="48.38702" lon="-3.73577">
        <ele>229.19999694824</ele>
        <time>2021-09-12T08:08:19Z</time>
      </trkpt>
      <trkpt lat="48.38696" lon="-3.73575">
        <ele>228.80000305176</ele>
        <time>2021-09-12T08:08:20Z</time>
      </trkpt>
      <trkpt lat="48.3869" lon="-3.73573">
        <ele>228.80000305176</ele>
        <time>2021-09-12T08:08:21Z</time>
      </trkpt>
      <trkpt lat="48.38685" lon="-3.7357">
        <ele>228.60000610352</ele>
        <time>2021-09-12T08:08:22Z</time>
      </trkpt>
      <trkpt lat="48.38679" lon="-3.73566">
        <ele>228.19999694824</ele>
        <time>2021-09-12T08:08:23Z</time>
      </trkpt>
      <trkpt lat="48.38673" lon="-3.73563">
        <ele>227.60000610352</ele>
        <time>2021-09-12T08:08:24Z</time>
      </trkpt>
      <trkpt lat="48.38667" lon="-3.7356">
        <ele>227.39999389648</ele>
        <time>2021-09-12T08:08:25Z</time>
      </trkpt>
      <trkpt lat="48.38662" lon="-3.73558">
        <ele>226.80000305176</ele>
        <time>2021-09-12T08:08:26Z</time>
      </trkpt>
      <trkpt lat="48.38656" lon="-3.7356">
        <ele>226.60000610352</ele>
        <time>2021-09-12T08:08:27Z</time>
      </trkpt>
      <trkpt lat="48.3865" lon="-3.73565">
        <ele>226.19999694824</ele>
        <time>2021-09-12T08:08:28Z</time>
      </trkpt>
      <trkpt lat="48.38646" lon="-3.73574">
        <ele>225.60000610352</ele>
        <time>2021-09-12T08:08:29Z</time>
      </trkpt>
      <trkpt lat="48.38642" lon="-3.73584">
        <ele>225</ele>
        <time>2021-09-12T08:08:30Z</time>
      </trkpt>
      <trkpt lat="48.38639" lon="-3.73596">
        <ele>224.39999389648</ele>
        <time>2021-09-12T08:08:31Z</time>
      </trkpt>
      <trkpt lat="48.38637" lon="-3.73607">
        <ele>224</ele>
        <time>2021-09-12T08:08:32Z</time>
      </trkpt>
      <trkpt lat="48.38633" lon="-3.73619">
        <ele>223.39999389648</ele>
        <time>2021-09-12T08:08:33Z</time>
      </trkpt>
      <trkpt lat="48.3863" lon="-3.73631">
        <ele>223.19999694824</ele>
        <time>2021-09-12T08:08:34Z</time>
      </trkpt>
      <trkpt lat="48.38627" lon="-3.73643">
        <ele>223</ele>
        <time>2021-09-12T08:08:35Z</time>
      </trkpt>
      <trkpt lat="48.38624" lon="-3.73654">
        <ele>223</ele>
        <time>2021-09-12T08:08:36Z</time>
      </trkpt>
      <trkpt lat="48.38621" lon="-3.73667">
        <ele>221.80000305176</ele>
        <time>2021-09-12T08:08:37Z</time>
      </trkpt>
      <trkpt lat="48.38618" lon="-3.7368">
        <ele>221.60000610352</ele>
        <time>2021-09-12T08:08:38Z</time>
      </trkpt>
      <trkpt lat="48.38618" lon="-3.7368">
        <ele>221.39999389648</ele>
        <time>2021-09-12T08:08:39Z</time>
      </trkpt>
      <trkpt lat="48.38613" lon="-3.73708">
        <ele>220.60000610352</ele>
        <time>2021-09-12T08:08:40Z</time>
      </trkpt>
      <trkpt lat="48.38611" lon="-3.73723">
        <ele>220</ele>
        <time>2021-09-12T08:08:41Z</time>
      </trkpt>
      <trkpt lat="48.38608" lon="-3.73737">
        <ele>219.60000610352</ele>
        <time>2021-09-12T08:08:42Z</time>
      </trkpt>
      <trkpt lat="48.38606" lon="-3.73752">
        <ele>218.80000305176</ele>
        <time>2021-09-12T08:08:43Z</time>
      </trkpt>
      <trkpt lat="48.38604" lon="-3.73767">
        <ele>218.19999694824</ele>
        <time>2021-09-12T08:08:44Z</time>
      </trkpt>
      <trkpt lat="48.38601" lon="-3.73782">
        <ele>217.60000610352</ele>
        <time>2021-09-12T08:08:45Z</time>
      </trkpt>
      <trkpt lat="48.38599" lon="-3.73796">
        <ele>217.39999389648</ele>
        <time>2021-09-12T08:08:46Z</time>
      </trkpt>
      <trkpt lat="48.38596" lon="-3.73811">
        <ele>216.39999389648</ele>
        <time>2021-09-12T08:08:47Z</time>
      </trkpt>
      <trkpt lat="48.38593" lon="-3.73825">
        <ele>216</ele>
        <time>2021-09-12T08:08:48Z</time>
      </trkpt>
      <trkpt lat="48.38589" lon="-3.7384">
        <ele>215.39999389648</ele>
        <time>2021-09-12T08:08:49Z</time>
      </trkpt>
      <trkpt lat="48.38587" lon="-3.73855">
        <ele>215.39999389648</ele>
        <time>2021-09-12T08:08:50Z</time>
      </trkpt>
      <trkpt lat="48.38584" lon="-3.7387">
        <ele>214.19999694824</ele>
        <time>2021-09-12T08:08:51Z</time>
      </trkpt>
      <trkpt lat="48.38581" lon="-3.73885">
        <ele>213</ele>
        <time>2021-09-12T08:08:52Z</time>
      </trkpt>
      <trkpt lat="48.38578" lon="-3.739">
        <ele>212.39999389648</ele>
        <time>2021-09-12T08:08:53Z</time>
      </trkpt>
      <trkpt lat="48.38575" lon="-3.73916">
        <ele>211.80000305176</ele>
        <time>2021-09-12T08:08:54Z</time>
      </trkpt>
      <trkpt lat="48.38572" lon="-3.73931">
        <ele>210.19999694824</ele>
        <time>2021-09-12T08:08:55Z</time>
      </trkpt>
      <trkpt lat="48.38568" lon="-3.73947">
        <ele>209.80000305176</ele>
        <time>2021-09-12T08:08:56Z</time>
      </trkpt>
      <trkpt lat="48.38563" lon="-3.73963">
        <ele>209</ele>
        <time>2021-09-12T08:08:57Z</time>
      </trkpt>
      <trkpt lat="48.3856" lon="-3.73979">
        <ele>208.39999389648</ele>
        <time>2021-09-12T08:08:58Z</time>
      </trkpt>
      <trkpt lat="48.38556" lon="-3.73995">
        <ele>208.39999389648</ele>
        <time>2021-09-12T08:08:59Z</time>
      </trkpt>
      <trkpt lat="48.38552" lon="-3.7401">
        <ele>207.19999694824</ele>
        <time>2021-09-12T08:09:00Z</time>
      </trkpt>
      <trkpt lat="48.38547" lon="-3.74026">
        <ele>207</ele>
        <time>2021-09-12T08:09:01Z</time>
      </trkpt>
      <trkpt lat="48.38543" lon="-3.74041">
        <ele>205.60000610352</ele>
        <time>2021-09-12T08:09:02Z</time>
      </trkpt>
      <trkpt lat="48.3854" lon="-3.74055">
        <ele>205.39999389648</ele>
        <time>2021-09-12T08:09:03Z</time>
      </trkpt>
      <trkpt lat="48.38537" lon="-3.74069">
        <ele>205.19999694824</ele>
        <time>2021-09-12T08:09:04Z</time>
      </trkpt>
      <trkpt lat="48.38535" lon="-3.74084">
        <ele>204.60000610352</ele>
        <time>2021-09-12T08:09:05Z</time>
      </trkpt>
      <trkpt lat="48.38532" lon="-3.74098">
        <ele>204.39999389648</ele>
        <time>2021-09-12T08:09:06Z</time>
      </trkpt>
      <trkpt lat="48.3853" lon="-3.74112">
        <ele>204.39999389648</ele>
        <time>2021-09-12T08:09:07Z</time>
      </trkpt>
      <trkpt lat="48.38527" lon="-3.74126">
        <ele>204.19999694824</ele>
        <time>2021-09-12T08:09:08Z</time>
      </trkpt>
      <trkpt lat="48.38525" lon="-3.7414">
        <ele>204.19999694824</ele>
        <time>2021-09-12T08:09:09Z</time>
      </trkpt>
      <trkpt lat="48.38522" lon="-3.74152">
        <ele>204.19999694824</ele>
        <time>2021-09-12T08:09:10Z</time>
      </trkpt>
      <trkpt lat="48.3852" lon="-3.74165">
        <ele>204.19999694824</ele>
        <time>2021-09-12T08:09:11Z</time>
      </trkpt>
      <trkpt lat="48.38517" lon="-3.74177">
        <ele>203.80000305176</ele>
        <time>2021-09-12T08:09:12Z</time>
      </trkpt>
      <trkpt lat="48.38515" lon="-3.74189">
        <ele>203.60000610352</ele>
        <time>2021-09-12T08:09:13Z</time>
      </trkpt>
      <trkpt lat="48.38512" lon="-3.742">
        <ele>203.60000610352</ele>
        <time>2021-09-12T08:09:14Z</time>
      </trkpt>
      <trkpt lat="48.38512" lon="-3.742">
        <ele>203.60000610352</ele>
        <time>2021-09-12T08:09:15Z</time>
      </trkpt>
      <trkpt lat="48.38507" lon="-3.74221">
        <ele>203.60000610352</ele>
        <time>2021-09-12T08:09:16Z</time>
      </trkpt>
      <trkpt lat="48.38504" lon="-3.74231">
        <ele>203.60000610352</ele>
        <time>2021-09-12T08:09:17Z</time>
      </trkpt>
      <trkpt lat="48.38502" lon="-3.7424">
        <ele>203.80000305176</ele>
        <time>2021-09-12T08:09:18Z</time>
      </trkpt>
      <trkpt lat="48.38499" lon="-3.74249">
        <ele>203.80000305176</ele>
        <time>2021-09-12T08:09:19Z</time>
      </trkpt>
      <trkpt lat="48.38497" lon="-3.74257">
        <ele>203.80000305176</ele>
        <time>2021-09-12T08:09:20Z</time>
      </trkpt>
      <trkpt lat="48.38495" lon="-3.74264">
        <ele>204</ele>
        <time>2021-09-12T08:09:21Z</time>
      </trkpt>
      <trkpt lat="48.38493" lon="-3.74271">
        <ele>204</ele>
        <time>2021-09-12T08:09:22Z</time>
      </trkpt>
      <trkpt lat="48.38492" lon="-3.74277">
        <ele>204.19999694824</ele>
        <time>2021-09-12T08:09:23Z</time>
      </trkpt>
      <trkpt lat="48.3849" lon="-3.74282">
        <ele>204.60000610352</ele>
        <time>2021-09-12T08:09:24Z</time>
      </trkpt>
      <trkpt lat="48.38488" lon="-3.74287">
        <ele>204.80000305176</ele>
        <time>2021-09-12T08:09:25Z</time>
      </trkpt>
      <trkpt lat="48.38485" lon="-3.74293">
        <ele>204.80000305176</ele>
        <time>2021-09-12T08:09:26Z</time>
      </trkpt>
      <trkpt lat="48.38482" lon="-3.74299">
        <ele>205</ele>
        <time>2021-09-12T08:09:27Z</time>
      </trkpt>
      <trkpt lat="48.38479" lon="-3.74304">
        <ele>205</ele>
        <time>2021-09-12T08:09:28Z</time>
      </trkpt>
      <trkpt lat="48.38477" lon="-3.74309">
        <ele>205.19999694824</ele>
        <time>2021-09-12T08:09:29Z</time>
      </trkpt>
      <trkpt lat="48.38474" lon="-3.74314">
        <ele>205.19999694824</ele>
        <time>2021-09-12T08:09:30Z</time>
      </trkpt>
      <trkpt lat="48.38471" lon="-3.74318">
        <ele>205.19999694824</ele>
        <time>2021-09-12T08:09:31Z</time>
      </trkpt>
      <trkpt lat="48.38468" lon="-3.74322">
        <ele>205.39999389648</ele>
        <time>2021-09-12T08:09:32Z</time>
      </trkpt>
      <trkpt lat="48.38464" lon="-3.74327">
        <ele>205.39999389648</ele>
        <time>2021-09-12T08:09:33Z</time>
      </trkpt>
      <trkpt lat="48.38459" lon="-3.74332">
        <ele>205.39999389648</ele>
        <time>2021-09-12T08:09:34Z</time>
      </trkpt>
      <trkpt lat="48.38455" lon="-3.74335">
        <ele>205.39999389648</ele>
        <time>2021-09-12T08:09:35Z</time>
      </trkpt>
      <trkpt lat="48.3845" lon="-3.74338">
        <ele>205.39999389648</ele>
        <time>2021-09-12T08:09:36Z</time>
      </trkpt>
      <trkpt lat="48.38445" lon="-3.7434">
        <ele>205.39999389648</ele>
        <time>2021-09-12T08:09:37Z</time>
      </trkpt>
      <trkpt lat="48.3844" lon="-3.74342">
        <ele>205.39999389648</ele>
        <time>2021-09-12T08:09:38Z</time>
      </trkpt>
      <trkpt lat="48.38434" lon="-3.74343">
        <ele>205.60000610352</ele>
        <time>2021-09-12T08:09:39Z</time>
      </trkpt>
      <trkpt lat="48.38429" lon="-3.74343">
        <ele>205.39999389648</ele>
        <time>2021-09-12T08:09:40Z</time>
      </trkpt>
      <trkpt lat="48.38424" lon="-3.74344">
        <ele>205.39999389648</ele>
        <time>2021-09-12T08:09:41Z</time>
      </trkpt>
      <trkpt lat="48.38418" lon="-3.74344">
        <ele>205.39999389648</ele>
        <time>2021-09-12T08:09:42Z</time>
      </trkpt>
      <trkpt lat="48.38413" lon="-3.74344">
        <ele>205.39999389648</ele>
        <time>2021-09-12T08:09:43Z</time>
      </trkpt>
      <trkpt lat="48.38407" lon="-3.74344">
        <ele>205.39999389648</ele>
        <time>2021-09-12T08:09:44Z</time>
      </trkpt>
      <trkpt lat="48.38402" lon="-3.74344">
        <ele>205.39999389648</ele>
        <time>2021-09-12T08:09:45Z</time>
      </trkpt>
      <trkpt lat="48.38396" lon="-3.74343">
        <ele>205.39999389648</ele>
        <time>2021-09-12T08:09:46Z</time>
      </trkpt>
      <trkpt lat="48.3839" lon="-3.74341">
        <ele>205.39999389648</ele>
        <time>2021-09-12T08:09:47Z</time>
      </trkpt>
      <trkpt lat="48.38385" lon="-3.7434">
        <ele>205.39999389648</ele>
        <time>2021-09-12T08:09:48Z</time>
      </trkpt>
      <trkpt lat="48.38379" lon="-3.74338">
        <ele>205.39999389648</ele>
        <time>2021-09-12T08:09:49Z</time>
      </trkpt>
      <trkpt lat="48.38374" lon="-3.74336">
        <ele>205.19999694824</ele>
        <time>2021-09-12T08:09:50Z</time>
      </trkpt>
      <trkpt lat="48.38368" lon="-3.74334">
        <ele>205.19999694824</ele>
        <time>2021-09-12T08:09:51Z</time>
      </trkpt>
      <trkpt lat="48.38363" lon="-3.74331">
        <ele>205</ele>
        <time>2021-09-12T08:09:52Z</time>
      </trkpt>
      <trkpt lat="48.38358" lon="-3.74328">
        <ele>205</ele>
        <time>2021-09-12T08:09:53Z</time>
      </trkpt>
      <trkpt lat="48.38352" lon="-3.74325">
        <ele>205</ele>
        <time>2021-09-12T08:09:54Z</time>
      </trkpt>
      <trkpt lat="48.38347" lon="-3.74322">
        <ele>205</ele>
        <time>2021-09-12T08:09:55Z</time>
      </trkpt>
      <trkpt lat="48.38342" lon="-3.74319">
        <ele>205</ele>
        <time>2021-09-12T08:09:56Z</time>
      </trkpt>
      <trkpt lat="48.38337" lon="-3.74315">
        <ele>205</ele>
        <time>2021-09-12T08:09:57Z</time>
      </trkpt>
      <trkpt lat="48.38333" lon="-3.74312">
        <ele>205</ele>
        <time>2021-09-12T08:09:58Z</time>
      </trkpt>
      <trkpt lat="48.38328" lon="-3.74309">
        <ele>205</ele>
        <time>2021-09-12T08:09:59Z</time>
      </trkpt>
      <trkpt lat="48.38323" lon="-3.74307">
        <ele>205</ele>
        <time>2021-09-12T08:10:00Z</time>
      </trkpt>
      <trkpt lat="48.38318" lon="-3.74305">
        <ele>205</ele>
        <time>2021-09-12T08:10:01Z</time>
      </trkpt>
      <trkpt lat="48.38313" lon="-3.74305">
        <ele>205.19999694824</ele>
        <time>2021-09-12T08:10:02Z</time>
      </trkpt>
      <trkpt lat="48.38308" lon="-3.74306">
        <ele>205.19999694824</ele>
        <time>2021-09-12T08:10:03Z</time>
      </trkpt>
      <trkpt lat="48.38302" lon="-3.74306">
        <ele>205.19999694824</ele>
        <time>2021-09-12T08:10:04Z</time>
      </trkpt>
      <trkpt lat="48.38297" lon="-3.74307">
        <ele>205.19999694824</ele>
        <time>2021-09-12T08:10:05Z</time>
      </trkpt>
      <trkpt lat="48.38291" lon="-3.74308">
        <ele>205.19999694824</ele>
        <time>2021-09-12T08:10:06Z</time>
      </trkpt>
      <trkpt lat="48.38286" lon="-3.74309">
        <ele>205.19999694824</ele>
        <time>2021-09-12T08:10:07Z</time>
      </trkpt>
      <trkpt lat="48.3828" lon="-3.74308">
        <ele>205.19999694824</ele>
        <time>2021-09-12T08:10:08Z</time>
      </trkpt>
      <trkpt lat="48.38275" lon="-3.74307">
        <ele>205.19999694824</ele>
        <time>2021-09-12T08:10:09Z</time>
      </trkpt>
      <trkpt lat="48.3827" lon="-3.74306">
        <ele>205.19999694824</ele>
        <time>2021-09-12T08:10:10Z</time>
      </trkpt>
      <trkpt lat="48.38264" lon="-3.74304">
        <ele>205.19999694824</ele>
        <time>2021-09-12T08:10:11Z</time>
      </trkpt>
      <trkpt lat="48.38259" lon="-3.74302">
        <ele>205.19999694824</ele>
        <time>2021-09-12T08:10:12Z</time>
      </trkpt>
      <trkpt lat="48.38254" lon="-3.74299">
        <ele>205.19999694824</ele>
        <time>2021-09-12T08:10:13Z</time>
      </trkpt>
      <trkpt lat="48.38248" lon="-3.74296">
        <ele>205.19999694824</ele>
        <time>2021-09-12T08:10:14Z</time>
      </trkpt>
      <trkpt lat="48.38243" lon="-3.74293">
        <ele>205.19999694824</ele>
        <time>2021-09-12T08:10:15Z</time>
      </trkpt>
      <trkpt lat="48.38238" lon="-3.7429">
        <ele>205.19999694824</ele>
        <time>2021-09-12T08:10:16Z</time>
      </trkpt>
      <trkpt lat="48.38233" lon="-3.74286">
        <ele>205</ele>
        <time>2021-09-12T08:10:17Z</time>
      </trkpt>
      <trkpt lat="48.38229" lon="-3.74283">
        <ele>205</ele>
        <time>2021-09-12T08:10:18Z</time>
      </trkpt>
      <trkpt lat="48.38225" lon="-3.74278">
        <ele>205.19999694824</ele>
        <time>2021-09-12T08:10:19Z</time>
      </trkpt>
      <trkpt lat="48.38222" lon="-3.74273">
        <ele>205</ele>
        <time>2021-09-12T08:10:20Z</time>
      </trkpt>
      <trkpt lat="48.38219" lon="-3.74268">
        <ele>205</ele>
        <time>2021-09-12T08:10:21Z</time>
      </trkpt>
      <trkpt lat="48.38215" lon="-3.74262">
        <ele>205</ele>
        <time>2021-09-12T08:10:22Z</time>
      </trkpt>
      <trkpt lat="48.38212" lon="-3.74257">
        <ele>205</ele>
        <time>2021-09-12T08:10:23Z</time>
      </trkpt>
      <trkpt lat="48.38209" lon="-3.74253">
        <ele>204.39999389648</ele>
        <time>2021-09-12T08:10:24Z</time>
      </trkpt>
      <trkpt lat="48.38205" lon="-3.74248">
        <ele>204.39999389648</ele>
        <time>2021-09-12T08:10:25Z</time>
      </trkpt>
      <trkpt lat="48.38201" lon="-3.74244">
        <ele>202.80000305176</ele>
        <time>2021-09-12T08:10:26Z</time>
      </trkpt>
      <trkpt lat="48.38198" lon="-3.74241">
        <ele>202</ele>
        <time>2021-09-12T08:10:27Z</time>
      </trkpt>
      <trkpt lat="48.38195" lon="-3.74238">
        <ele>201.39999389648</ele>
        <time>2021-09-12T08:10:28Z</time>
      </trkpt>
      <trkpt lat="48.38194" lon="-3.74234">
        <ele>200.80000305176</ele>
        <time>2021-09-12T08:10:29Z</time>
      </trkpt>
      <trkpt lat="48.38192" lon="-3.74228">
        <ele>200.19999694824</ele>
        <time>2021-09-12T08:10:30Z</time>
      </trkpt>
      <trkpt lat="48.38192" lon="-3.74223">
        <ele>198.80000305176</ele>
        <time>2021-09-12T08:10:31Z</time>
      </trkpt>
      <trkpt lat="48.38191" lon="-3.74219">
        <ele>197.80000305176</ele>
        <time>2021-09-12T08:10:32Z</time>
      </trkpt>
      <trkpt lat="48.3819" lon="-3.74216">
        <ele>197</ele>
        <time>2021-09-12T08:10:33Z</time>
      </trkpt>
      <trkpt lat="48.38189" lon="-3.74213">
        <ele>196.19999694824</ele>
        <time>2021-09-12T08:10:34Z</time>
      </trkpt>
      <trkpt lat="48.38187" lon="-3.7421">
        <ele>195.39999389648</ele>
        <time>2021-09-12T08:10:35Z</time>
      </trkpt>
      <trkpt lat="48.38185" lon="-3.74207">
        <ele>194.19999694824</ele>
        <time>2021-09-12T08:10:36Z</time>
      </trkpt>
      <trkpt lat="48.38184" lon="-3.74204">
        <ele>193.60000610352</ele>
        <time>2021-09-12T08:10:37Z</time>
      </trkpt>
      <trkpt lat="48.38184" lon="-3.74203">
        <ele>192.60000610352</ele>
        <time>2021-09-12T08:10:38Z</time>
      </trkpt>
      <trkpt lat="48.38184" lon="-3.74203">
        <ele>192.60000610352</ele>
        <time>2021-09-12T08:10:39Z</time>
      </trkpt>
      <trkpt lat="48.38184" lon="-3.74203">
        <ele>192.39999389648</ele>
        <time>2021-09-12T08:10:40Z</time>
      </trkpt>
      <trkpt lat="48.38183" lon="-3.74202">
        <ele>192.39999389648</ele>
        <time>2021-09-12T08:10:41Z</time>
      </trkpt>
      <trkpt lat="48.38182" lon="-3.742">
        <ele>192.19999694824</ele>
        <time>2021-09-12T08:10:42Z</time>
      </trkpt>
      <trkpt lat="48.38181" lon="-3.74198">
        <ele>192.19999694824</ele>
        <time>2021-09-12T08:10:43Z</time>
      </trkpt>
      <trkpt lat="48.38181" lon="-3.74198">
        <ele>191.80000305176</ele>
        <time>2021-09-12T08:10:44Z</time>
      </trkpt>
      <trkpt lat="48.38181" lon="-3.74196">
        <ele>191.60000610352</ele>
        <time>2021-09-12T08:10:45Z</time>
      </trkpt>
      <trkpt lat="48.38181" lon="-3.74195">
        <ele>191.60000610352</ele>
        <time>2021-09-12T08:10:46Z</time>
      </trkpt>
      <trkpt lat="48.38181" lon="-3.74193">
        <ele>191.39999389648</ele>
        <time>2021-09-12T08:10:47Z</time>
      </trkpt>
      <trkpt lat="48.3818" lon="-3.7419">
        <ele>191.39999389648</ele>
        <time>2021-09-12T08:10:48Z</time>
      </trkpt>
      <trkpt lat="48.3818" lon="-3.74189">
        <ele>191.39999389648</ele>
        <time>2021-09-12T08:10:49Z</time>
      </trkpt>
      <trkpt lat="48.3818" lon="-3.74189">
        <ele>191.39999389648</ele>
        <time>2021-09-12T08:10:50Z</time>
      </trkpt>
      <trkpt lat="48.3818" lon="-3.74189">
        <ele>191.39999389648</ele>
        <time>2021-09-12T08:10:51Z</time>
      </trkpt>
      <trkpt lat="48.38179" lon="-3.74187">
        <ele>191.39999389648</ele>
        <time>2021-09-12T08:10:52Z</time>
      </trkpt>
      <trkpt lat="48.38175" lon="-3.74147">
        <ele>192.19999694824</ele>
        <time>2021-09-12T08:11:22Z</time>
      </trkpt>
      <trkpt lat="48.38175" lon="-3.74144">
        <ele>192.39999389648</ele>
        <time>2021-09-12T08:11:23Z</time>
      </trkpt>
      <trkpt lat="48.38176" lon="-3.74141">
        <ele>192.80000305176</ele>
        <time>2021-09-12T08:11:24Z</time>
      </trkpt>
      <trkpt lat="48.38176" lon="-3.74138">
        <ele>193</ele>
        <time>2021-09-12T08:11:25Z</time>
      </trkpt>
      <trkpt lat="48.38177" lon="-3.74136">
        <ele>193</ele>
        <time>2021-09-12T08:11:26Z</time>
      </trkpt>
      <trkpt lat="48.38178" lon="-3.74133">
        <ele>193.19999694824</ele>
        <time>2021-09-12T08:11:27Z</time>
      </trkpt>
      <trkpt lat="48.38179" lon="-3.7413">
        <ele>193.60000610352</ele>
        <time>2021-09-12T08:11:28Z</time>
      </trkpt>
      <trkpt lat="48.38179" lon="-3.74126">
        <ele>193.60000610352</ele>
        <time>2021-09-12T08:11:29Z</time>
      </trkpt>
      <trkpt lat="48.38179" lon="-3.74123">
        <ele>193.80000305176</ele>
        <time>2021-09-12T08:11:30Z</time>
      </trkpt>
      <trkpt lat="48.38179" lon="-3.74119">
        <ele>194</ele>
        <time>2021-09-12T08:11:31Z</time>
      </trkpt>
      <trkpt lat="48.38179" lon="-3.74116">
        <ele>194.60000610352</ele>
        <time>2021-09-12T08:11:32Z</time>
      </trkpt>
      <trkpt lat="48.38179" lon="-3.74116">
        <ele>194.60000610352</ele>
        <time>2021-09-12T08:11:33Z</time>
      </trkpt>
      <trkpt lat="48.38178" lon="-3.74112">
        <ele>195</ele>
        <time>2021-09-12T08:11:34Z</time>
      </trkpt>
      <trkpt lat="48.38177" lon="-3.74109">
        <ele>195.39999389648</ele>
        <time>2021-09-12T08:11:35Z</time>
      </trkpt>
      <trkpt lat="48.38176" lon="-3.74107">
        <ele>195.80000305176</ele>
        <time>2021-09-12T08:11:36Z</time>
      </trkpt>
      <trkpt lat="48.38174" lon="-3.74105">
        <ele>196.19999694824</ele>
        <time>2021-09-12T08:11:37Z</time>
      </trkpt>
      <trkpt lat="48.38173" lon="-3.74103">
        <ele>196.19999694824</ele>
        <time>2021-09-12T08:11:38Z</time>
      </trkpt>
      <trkpt lat="48.38171" lon="-3.74101">
        <ele>196.60000610352</ele>
        <time>2021-09-12T08:11:39Z</time>
      </trkpt>
      <trkpt lat="48.3817" lon="-3.74099">
        <ele>197</ele>
        <time>2021-09-12T08:11:40Z</time>
      </trkpt>
      <trkpt lat="48.38169" lon="-3.74097">
        <ele>197.19999694824</ele>
        <time>2021-09-12T08:11:41Z</time>
      </trkpt>
      <trkpt lat="48.38167" lon="-3.74095">
        <ele>197.60000610352</ele>
        <time>2021-09-12T08:11:42Z</time>
      </trkpt>
      <trkpt lat="48.38165" lon="-3.74092">
        <ele>197.80000305176</ele>
        <time>2021-09-12T08:11:43Z</time>
      </trkpt>
      <trkpt lat="48.38164" lon="-3.7409">
        <ele>198.19999694824</ele>
        <time>2021-09-12T08:11:44Z</time>
      </trkpt>
      <trkpt lat="48.38163" lon="-3.74089">
        <ele>198.60000610352</ele>
        <time>2021-09-12T08:11:45Z</time>
      </trkpt>
      <trkpt lat="48.38162" lon="-3.74088">
        <ele>198.80000305176</ele>
        <time>2021-09-12T08:11:46Z</time>
      </trkpt>
      <trkpt lat="48.3816" lon="-3.74086">
        <ele>199.39999389648</ele>
        <time>2021-09-12T08:11:47Z</time>
      </trkpt>
      <trkpt lat="48.38159" lon="-3.74084">
        <ele>199.60000610352</ele>
        <time>2021-09-12T08:11:48Z</time>
      </trkpt>
      <trkpt lat="48.38158" lon="-3.74082">
        <ele>200</ele>
        <time>2021-09-12T08:11:49Z</time>
      </trkpt>
      <trkpt lat="48.38157" lon="-3.74081">
        <ele>200.19999694824</ele>
        <time>2021-09-12T08:11:50Z</time>
      </trkpt>
      <trkpt lat="48.38156" lon="-3.74079">
        <ele>200.39999389648</ele>
        <time>2021-09-12T08:11:51Z</time>
      </trkpt>
      <trkpt lat="48.38155" lon="-3.74078">
        <ele>200.80000305176</ele>
        <time>2021-09-12T08:11:52Z</time>
      </trkpt>
      <trkpt lat="48.38154" lon="-3.74076">
        <ele>201</ele>
        <time>2021-09-12T08:11:53Z</time>
      </trkpt>
      <trkpt lat="48.38152" lon="-3.74074">
        <ele>201.39999389648</ele>
        <time>2021-09-12T08:11:54Z</time>
      </trkpt>
      <trkpt lat="48.3815" lon="-3.74073">
        <ele>201.39999389648</ele>
        <time>2021-09-12T08:11:55Z</time>
      </trkpt>
      <trkpt lat="48.38148" lon="-3.74071">
        <ele>201.60000610352</ele>
        <time>2021-09-12T08:11:56Z</time>
      </trkpt>
      <trkpt lat="48.38146" lon="-3.7407">
        <ele>201.60000610352</ele>
        <time>2021-09-12T08:11:57Z</time>
      </trkpt>
      <trkpt lat="48.38144" lon="-3.74068">
        <ele>201.60000610352</ele>
        <time>2021-09-12T08:11:58Z</time>
      </trkpt>
      <trkpt lat="48.38142" lon="-3.74065">
        <ele>201.60000610352</ele>
        <time>2021-09-12T08:11:59Z</time>
      </trkpt>
      <trkpt lat="48.3814" lon="-3.74063">
        <ele>201.60000610352</ele>
        <time>2021-09-12T08:12:00Z</time>
      </trkpt>
      <trkpt lat="48.38138" lon="-3.7406">
        <ele>201.60000610352</ele>
        <time>2021-09-12T08:12:01Z</time>
      </trkpt>
      <trkpt lat="48.38136" lon="-3.74056">
        <ele>201.60000610352</ele>
        <time>2021-09-12T08:12:02Z</time>
      </trkpt>
      <trkpt lat="48.38133" lon="-3.74052">
        <ele>201.60000610352</ele>
        <time>2021-09-12T08:12:03Z</time>
      </trkpt>
      <trkpt lat="48.38131" lon="-3.74049">
        <ele>201.60000610352</ele>
        <time>2021-09-12T08:12:04Z</time>
      </trkpt>
      <trkpt lat="48.38128" lon="-3.74045">
        <ele>201.60000610352</ele>
        <time>2021-09-12T08:12:05Z</time>
      </trkpt>
      <trkpt lat="48.38127" lon="-3.74041">
        <ele>201.60000610352</ele>
        <time>2021-09-12T08:12:06Z</time>
      </trkpt>
      <trkpt lat="48.38125" lon="-3.74037">
        <ele>201.39999389648</ele>
        <time>2021-09-12T08:12:07Z</time>
      </trkpt>
      <trkpt lat="48.38124" lon="-3.74032">
        <ele>201.19999694824</ele>
        <time>2021-09-12T08:12:08Z</time>
      </trkpt>
      <trkpt lat="48.38123" lon="-3.74026">
        <ele>200.39999389648</ele>
        <time>2021-09-12T08:12:09Z</time>
      </trkpt>
      <trkpt lat="48.38122" lon="-3.74018">
        <ele>200</ele>
        <time>2021-09-12T08:12:10Z</time>
      </trkpt>
      <trkpt lat="48.3812" lon="-3.7401">
        <ele>199.80000305176</ele>
        <time>2021-09-12T08:12:11Z</time>
      </trkpt>
      <trkpt lat="48.38118" lon="-3.74001">
        <ele>199.19999694824</ele>
        <time>2021-09-12T08:12:12Z</time>
      </trkpt>
      <trkpt lat="48.38115" lon="-3.73993">
        <ele>198.80000305176</ele>
        <time>2021-09-12T08:12:13Z</time>
      </trkpt>
      <trkpt lat="48.38111" lon="-3.73986">
        <ele>198.39999389648</ele>
        <time>2021-09-12T08:12:14Z</time>
      </trkpt>
      <trkpt lat="48.38107" lon="-3.73979">
        <ele>198.19999694824</ele>
        <time>2021-09-12T08:12:15Z</time>
      </trkpt>
      <trkpt lat="48.38104" lon="-3.73972">
        <ele>198</ele>
        <time>2021-09-12T08:12:16Z</time>
      </trkpt>
      <trkpt lat="48.381" lon="-3.73964">
        <ele>198</ele>
        <time>2021-09-12T08:12:17Z</time>
      </trkpt>
      <trkpt lat="48.38095" lon="-3.73958">
        <ele>198</ele>
        <time>2021-09-12T08:12:18Z</time>
      </trkpt>
      <trkpt lat="48.38092" lon="-3.73951">
        <ele>198</ele>
        <time>2021-09-12T08:12:19Z</time>
      </trkpt>
      <trkpt lat="48.38089" lon="-3.73945">
        <ele>198.19999694824</ele>
        <time>2021-09-12T08:12:20Z</time>
      </trkpt>
      <trkpt lat="48.38087" lon="-3.73939">
        <ele>198.39999389648</ele>
        <time>2021-09-12T08:12:21Z</time>
      </trkpt>
      <trkpt lat="48.38084" lon="-3.73933">
        <ele>198.60000610352</ele>
        <time>2021-09-12T08:12:22Z</time>
      </trkpt>
      <trkpt lat="48.38081" lon="-3.73927">
        <ele>198.60000610352</ele>
        <time>2021-09-12T08:12:23Z</time>
      </trkpt>
      <trkpt lat="48.38078" lon="-3.73922">
        <ele>198.60000610352</ele>
        <time>2021-09-12T08:12:24Z</time>
      </trkpt>
      <trkpt lat="48.38076" lon="-3.73916">
        <ele>199</ele>
        <time>2021-09-12T08:12:25Z</time>
      </trkpt>
      <trkpt lat="48.38073" lon="-3.7391">
        <ele>199</ele>
        <time>2021-09-12T08:12:26Z</time>
      </trkpt>
      <trkpt lat="48.3807" lon="-3.73904">
        <ele>199.19999694824</ele>
        <time>2021-09-12T08:12:27Z</time>
      </trkpt>
      <trkpt lat="48.38068" lon="-3.739">
        <ele>199.19999694824</ele>
        <time>2021-09-12T08:12:28Z</time>
      </trkpt>
      <trkpt lat="48.38066" lon="-3.73895">
        <ele>199.19999694824</ele>
        <time>2021-09-12T08:12:29Z</time>
      </trkpt>
      <trkpt lat="48.38064" lon="-3.7389">
        <ele>199.60000610352</ele>
        <time>2021-09-12T08:12:30Z</time>
      </trkpt>
      <trkpt lat="48.38063" lon="-3.73886">
        <ele>199.80000305176</ele>
        <time>2021-09-12T08:12:31Z</time>
      </trkpt>
      <trkpt lat="48.38061" lon="-3.73882">
        <ele>199.80000305176</ele>
        <time>2021-09-12T08:12:32Z</time>
      </trkpt>
      <trkpt lat="48.3806" lon="-3.73878">
        <ele>200</ele>
        <time>2021-09-12T08:12:33Z</time>
      </trkpt>
      <trkpt lat="48.38059" lon="-3.73874">
        <ele>200.19999694824</ele>
        <time>2021-09-12T08:12:34Z</time>
      </trkpt>
      <trkpt lat="48.38058" lon="-3.73871">
        <ele>200.60000610352</ele>
        <time>2021-09-12T08:12:35Z</time>
      </trkpt>
      <trkpt lat="48.38056" lon="-3.73868">
        <ele>200.80000305176</ele>
        <time>2021-09-12T08:12:36Z</time>
      </trkpt>
      <trkpt lat="48.38054" lon="-3.73866">
        <ele>201.19999694824</ele>
        <time>2021-09-12T08:12:37Z</time>
      </trkpt>
      <trkpt lat="48.38051" lon="-3.73863">
        <ele>201.39999389648</ele>
        <time>2021-09-12T08:12:38Z</time>
      </trkpt>
      <trkpt lat="48.3805" lon="-3.73858">
        <ele>201.80000305176</ele>
        <time>2021-09-12T08:12:39Z</time>
      </trkpt>
      <trkpt lat="48.38048" lon="-3.73855">
        <ele>202.19999694824</ele>
        <time>2021-09-12T08:12:40Z</time>
      </trkpt>
      <trkpt lat="48.38046" lon="-3.73852">
        <ele>202.39999389648</ele>
        <time>2021-09-12T08:12:41Z</time>
      </trkpt>
      <trkpt lat="48.38046" lon="-3.7385">
        <ele>202.60000610352</ele>
        <time>2021-09-12T08:12:42Z</time>
      </trkpt>
      <trkpt lat="48.38045" lon="-3.73848">
        <ele>202.80000305176</ele>
        <time>2021-09-12T08:12:43Z</time>
      </trkpt>
      <trkpt lat="48.38042" lon="-3.73844">
        <ele>203</ele>
        <time>2021-09-12T08:12:44Z</time>
      </trkpt>
      <trkpt lat="48.38039" lon="-3.73839">
        <ele>203.39999389648</ele>
        <time>2021-09-12T08:12:45Z</time>
      </trkpt>
      <trkpt lat="48.38037" lon="-3.73836">
        <ele>203.60000610352</ele>
        <time>2021-09-12T08:12:46Z</time>
      </trkpt>
      <trkpt lat="48.38035" lon="-3.73834">
        <ele>203.80000305176</ele>
        <time>2021-09-12T08:12:47Z</time>
      </trkpt>
      <trkpt lat="48.38034" lon="-3.73832">
        <ele>203.80000305176</ele>
        <time>2021-09-12T08:12:48Z</time>
      </trkpt>
      <trkpt lat="48.38033" lon="-3.7383">
        <ele>203.80000305176</ele>
        <time>2021-09-12T08:12:49Z</time>
      </trkpt>
      <trkpt lat="48.38032" lon="-3.73827">
        <ele>204.19999694824</ele>
        <time>2021-09-12T08:12:50Z</time>
      </trkpt>
      <trkpt lat="48.38031" lon="-3.73825">
        <ele>204.39999389648</ele>
        <time>2021-09-12T08:12:51Z</time>
      </trkpt>
      <trkpt lat="48.38028" lon="-3.73821">
        <ele>204.39999389648</ele>
        <time>2021-09-12T08:12:52Z</time>
      </trkpt>
      <trkpt lat="48.38026" lon="-3.73818">
        <ele>205</ele>
        <time>2021-09-12T08:12:53Z</time>
      </trkpt>
      <trkpt lat="48.38025" lon="-3.73815">
        <ele>205</ele>
        <time>2021-09-12T08:12:54Z</time>
      </trkpt>
      <trkpt lat="48.38022" lon="-3.73812">
        <ele>205.19999694824</ele>
        <time>2021-09-12T08:12:55Z</time>
      </trkpt>
      <trkpt lat="48.3802" lon="-3.73809">
        <ele>205.60000610352</ele>
        <time>2021-09-12T08:12:56Z</time>
      </trkpt>
      <trkpt lat="48.38018" lon="-3.73806">
        <ele>205.60000610352</ele>
        <time>2021-09-12T08:12:57Z</time>
      </trkpt>
      <trkpt lat="48.38017" lon="-3.73803">
        <ele>205.60000610352</ele>
        <time>2021-09-12T08:12:58Z</time>
      </trkpt>
      <trkpt lat="48.38015" lon="-3.73801">
        <ele>206</ele>
        <time>2021-09-12T08:12:59Z</time>
      </trkpt>
      <trkpt lat="48.38013" lon="-3.73799">
        <ele>206.39999389648</ele>
        <time>2021-09-12T08:13:00Z</time>
      </trkpt>
      <trkpt lat="48.38011" lon="-3.73797">
        <ele>206.80000305176</ele>
        <time>2021-09-12T08:13:01Z</time>
      </trkpt>
      <trkpt lat="48.38009" lon="-3.73794">
        <ele>207</ele>
        <time>2021-09-12T08:13:02Z</time>
      </trkpt>
      <trkpt lat="48.38007" lon="-3.73791">
        <ele>207</ele>
        <time>2021-09-12T08:13:03Z</time>
      </trkpt>
      <trkpt lat="48.38004" lon="-3.73787">
        <ele>207</ele>
        <time>2021-09-12T08:13:04Z</time>
      </trkpt>
      <trkpt lat="48.38001" lon="-3.73783">
        <ele>207</ele>
        <time>2021-09-12T08:13:05Z</time>
      </trkpt>
      <trkpt lat="48.37998" lon="-3.73779">
        <ele>206.80000305176</ele>
        <time>2021-09-12T08:13:06Z</time>
      </trkpt>
      <trkpt lat="48.37995" lon="-3.73775">
        <ele>206.80000305176</ele>
        <time>2021-09-12T08:13:07Z</time>
      </trkpt>
      <trkpt lat="48.37993" lon="-3.73772">
        <ele>206.60000610352</ele>
        <time>2021-09-12T08:13:08Z</time>
      </trkpt>
      <trkpt lat="48.3799" lon="-3.73768">
        <ele>206.60000610352</ele>
        <time>2021-09-12T08:13:09Z</time>
      </trkpt>
      <trkpt lat="48.37986" lon="-3.73763">
        <ele>206.60000610352</ele>
        <time>2021-09-12T08:13:10Z</time>
      </trkpt>
      <trkpt lat="48.37983" lon="-3.73758">
        <ele>206.60000610352</ele>
        <time>2021-09-12T08:13:11Z</time>
      </trkpt>
      <trkpt lat="48.37979" lon="-3.73752">
        <ele>206</ele>
        <time>2021-09-12T08:13:12Z</time>
      </trkpt>
      <trkpt lat="48.37975" lon="-3.73747">
        <ele>206</ele>
        <time>2021-09-12T08:13:13Z</time>
      </trkpt>
      <trkpt lat="48.37972" lon="-3.73741">
        <ele>206</ele>
        <time>2021-09-12T08:13:14Z</time>
      </trkpt>
      <trkpt lat="48.37968" lon="-3.73736">
        <ele>206</ele>
        <time>2021-09-12T08:13:15Z</time>
      </trkpt>
      <trkpt lat="48.37965" lon="-3.73731">
        <ele>206</ele>
        <time>2021-09-12T08:13:16Z</time>
      </trkpt>
      <trkpt lat="48.37962" lon="-3.73727">
        <ele>206</ele>
        <time>2021-09-12T08:13:17Z</time>
      </trkpt>
      <trkpt lat="48.37959" lon="-3.73722">
        <ele>206</ele>
        <time>2021-09-12T08:13:18Z</time>
      </trkpt>
      <trkpt lat="48.37957" lon="-3.73717">
        <ele>206.19999694824</ele>
        <time>2021-09-12T08:13:19Z</time>
      </trkpt>
      <trkpt lat="48.37954" lon="-3.73712">
        <ele>206.19999694824</ele>
        <time>2021-09-12T08:13:20Z</time>
      </trkpt>
      <trkpt lat="48.37951" lon="-3.73707">
        <ele>206.60000610352</ele>
        <time>2021-09-12T08:13:21Z</time>
      </trkpt>
      <trkpt lat="48.37948" lon="-3.73702">
        <ele>206.60000610352</ele>
        <time>2021-09-12T08:13:22Z</time>
      </trkpt>
      <trkpt lat="48.37946" lon="-3.73699">
        <ele>207.19999694824</ele>
        <time>2021-09-12T08:13:23Z</time>
      </trkpt>
      <trkpt lat="48.37944" lon="-3.73696">
        <ele>207.39999389648</ele>
        <time>2021-09-12T08:13:24Z</time>
      </trkpt>
      <trkpt lat="48.37943" lon="-3.73692">
        <ele>207.39999389648</ele>
        <time>2021-09-12T08:13:25Z</time>
      </trkpt>
      <trkpt lat="48.37941" lon="-3.73688">
        <ele>208</ele>
        <time>2021-09-12T08:13:26Z</time>
      </trkpt>
      <trkpt lat="48.37939" lon="-3.73684">
        <ele>208.39999389648</ele>
        <time>2021-09-12T08:13:27Z</time>
      </trkpt>
      <trkpt lat="48.37938" lon="-3.73682">
        <ele>208.39999389648</ele>
        <time>2021-09-12T08:13:28Z</time>
      </trkpt>
      <trkpt lat="48.37936" lon="-3.73678">
        <ele>209</ele>
        <time>2021-09-12T08:13:29Z</time>
      </trkpt>
      <trkpt lat="48.37933" lon="-3.73675">
        <ele>209.19999694824</ele>
        <time>2021-09-12T08:13:30Z</time>
      </trkpt>
      <trkpt lat="48.37931" lon="-3.73672">
        <ele>209.19999694824</ele>
        <time>2021-09-12T08:13:31Z</time>
      </trkpt>
      <trkpt lat="48.37929" lon="-3.73668">
        <ele>209.39999389648</ele>
        <time>2021-09-12T08:13:32Z</time>
      </trkpt>
      <trkpt lat="48.37925" lon="-3.73664">
        <ele>209.39999389648</ele>
        <time>2021-09-12T08:13:33Z</time>
      </trkpt>
      <trkpt lat="48.37923" lon="-3.73661">
        <ele>209.39999389648</ele>
        <time>2021-09-12T08:13:34Z</time>
      </trkpt>
      <trkpt lat="48.37919" lon="-3.73659">
        <ele>209.39999389648</ele>
        <time>2021-09-12T08:13:35Z</time>
      </trkpt>
      <trkpt lat="48.37916" lon="-3.73657">
        <ele>209.80000305176</ele>
        <time>2021-09-12T08:13:36Z</time>
      </trkpt>
      <trkpt lat="48.37914" lon="-3.73655">
        <ele>209.80000305176</ele>
        <time>2021-09-12T08:13:37Z</time>
      </trkpt>
      <trkpt lat="48.37912" lon="-3.73653">
        <ele>209.80000305176</ele>
        <time>2021-09-12T08:13:38Z</time>
      </trkpt>
      <trkpt lat="48.37911" lon="-3.73652">
        <ele>210</ele>
        <time>2021-09-12T08:13:39Z</time>
      </trkpt>
      <trkpt lat="48.37909" lon="-3.7365">
        <ele>210.39999389648</ele>
        <time>2021-09-12T08:13:40Z</time>
      </trkpt>
      <trkpt lat="48.37908" lon="-3.73649">
        <ele>210.39999389648</ele>
        <time>2021-09-12T08:13:41Z</time>
      </trkpt>
      <trkpt lat="48.37906" lon="-3.73647">
        <ele>210.39999389648</ele>
        <time>2021-09-12T08:13:42Z</time>
      </trkpt>
      <trkpt lat="48.37903" lon="-3.73645">
        <ele>210.39999389648</ele>
        <time>2021-09-12T08:13:43Z</time>
      </trkpt>
      <trkpt lat="48.37899" lon="-3.73642">
        <ele>210.80000305176</ele>
        <time>2021-09-12T08:13:44Z</time>
      </trkpt>
      <trkpt lat="48.37896" lon="-3.7364">
        <ele>211.19999694824</ele>
        <time>2021-09-12T08:13:45Z</time>
      </trkpt>
      <trkpt lat="48.37894" lon="-3.73639">
        <ele>211.19999694824</ele>
        <time>2021-09-12T08:13:46Z</time>
      </trkpt>
      <trkpt lat="48.37892" lon="-3.73638">
        <ele>211.39999389648</ele>
        <time>2021-09-12T08:13:47Z</time>
      </trkpt>
      <trkpt lat="48.3789" lon="-3.73637">
        <ele>211.39999389648</ele>
        <time>2021-09-12T08:13:48Z</time>
      </trkpt>
      <trkpt lat="48.37888" lon="-3.73635">
        <ele>211.60000610352</ele>
        <time>2021-09-12T08:13:49Z</time>
      </trkpt>
      <trkpt lat="48.37887" lon="-3.73634">
        <ele>211.80000305176</ele>
        <time>2021-09-12T08:13:50Z</time>
      </trkpt>
      <trkpt lat="48.37885" lon="-3.73633">
        <ele>212</ele>
        <time>2021-09-12T08:13:51Z</time>
      </trkpt>
      <trkpt lat="48.37881" lon="-3.7363">
        <ele>212</ele>
        <time>2021-09-12T08:13:52Z</time>
      </trkpt>
      <trkpt lat="48.37879" lon="-3.73627">
        <ele>212.19999694824</ele>
        <time>2021-09-12T08:13:53Z</time>
      </trkpt>
      <trkpt lat="48.37876" lon="-3.73625">
        <ele>212.39999389648</ele>
        <time>2021-09-12T08:13:54Z</time>
      </trkpt>
      <trkpt lat="48.37874" lon="-3.73622">
        <ele>212.39999389648</ele>
        <time>2021-09-12T08:13:55Z</time>
      </trkpt>
      <trkpt lat="48.37871" lon="-3.7362">
        <ele>212.39999389648</ele>
        <time>2021-09-12T08:13:56Z</time>
      </trkpt>
      <trkpt lat="48.37868" lon="-3.73617">
        <ele>212.39999389648</ele>
        <time>2021-09-12T08:13:57Z</time>
      </trkpt>
      <trkpt lat="48.37865" lon="-3.73613">
        <ele>212.39999389648</ele>
        <time>2021-09-12T08:13:58Z</time>
      </trkpt>
      <trkpt lat="48.37862" lon="-3.7361">
        <ele>212.39999389648</ele>
        <time>2021-09-12T08:13:59Z</time>
      </trkpt>
      <trkpt lat="48.37858" lon="-3.73606">
        <ele>212</ele>
        <time>2021-09-12T08:14:00Z</time>
      </trkpt>
      <trkpt lat="48.37854" lon="-3.73602">
        <ele>211.60000610352</ele>
        <time>2021-09-12T08:14:01Z</time>
      </trkpt>
      <trkpt lat="48.3785" lon="-3.73599">
        <ele>211.39999389648</ele>
        <time>2021-09-12T08:14:02Z</time>
      </trkpt>
      <trkpt lat="48.37845" lon="-3.73595">
        <ele>210.60000610352</ele>
        <time>2021-09-12T08:14:03Z</time>
      </trkpt>
      <trkpt lat="48.37839" lon="-3.7359">
        <ele>210.19999694824</ele>
        <time>2021-09-12T08:14:04Z</time>
      </trkpt>
      <trkpt lat="48.37833" lon="-3.73585">
        <ele>210</ele>
        <time>2021-09-12T08:14:05Z</time>
      </trkpt>
      <trkpt lat="48.37827" lon="-3.7358">
        <ele>209.80000305176</ele>
        <time>2021-09-12T08:14:06Z</time>
      </trkpt>
      <trkpt lat="48.37822" lon="-3.73576">
        <ele>209.39999389648</ele>
        <time>2021-09-12T08:14:07Z</time>
      </trkpt>
      <trkpt lat="48.37818" lon="-3.73573">
        <ele>209.19999694824</ele>
        <time>2021-09-12T08:14:08Z</time>
      </trkpt>
      <trkpt lat="48.37813" lon="-3.73569">
        <ele>209.19999694824</ele>
        <time>2021-09-12T08:14:09Z</time>
      </trkpt>
      <trkpt lat="48.37808" lon="-3.73563">
        <ele>209</ele>
        <time>2021-09-12T08:14:10Z</time>
      </trkpt>
      <trkpt lat="48.37802" lon="-3.73557">
        <ele>208.39999389648</ele>
        <time>2021-09-12T08:14:11Z</time>
      </trkpt>
      <trkpt lat="48.37796" lon="-3.73551">
        <ele>207.80000305176</ele>
        <time>2021-09-12T08:14:12Z</time>
      </trkpt>
      <trkpt lat="48.37792" lon="-3.73545">
        <ele>207.39999389648</ele>
        <time>2021-09-12T08:14:13Z</time>
      </trkpt>
      <trkpt lat="48.37788" lon="-3.7354">
        <ele>207.39999389648</ele>
        <time>2021-09-12T08:14:14Z</time>
      </trkpt>
      <trkpt lat="48.37781" lon="-3.73535">
        <ele>207.39999389648</ele>
        <time>2021-09-12T08:14:15Z</time>
      </trkpt>
      <trkpt lat="48.37775" lon="-3.73528">
        <ele>207</ele>
        <time>2021-09-12T08:14:16Z</time>
      </trkpt>
      <trkpt lat="48.3777" lon="-3.73523">
        <ele>207</ele>
        <time>2021-09-12T08:14:17Z</time>
      </trkpt>
      <trkpt lat="48.37765" lon="-3.73517">
        <ele>207</ele>
        <time>2021-09-12T08:14:18Z</time>
      </trkpt>
      <trkpt lat="48.37759" lon="-3.73511">
        <ele>206.80000305176</ele>
        <time>2021-09-12T08:14:19Z</time>
      </trkpt>
      <trkpt lat="48.37754" lon="-3.73508">
        <ele>206.80000305176</ele>
        <time>2021-09-12T08:14:20Z</time>
      </trkpt>
      <trkpt lat="48.37748" lon="-3.73507">
        <ele>206.80000305176</ele>
        <time>2021-09-12T08:14:21Z</time>
      </trkpt>
      <trkpt lat="48.37744" lon="-3.73509">
        <ele>206.60000610352</ele>
        <time>2021-09-12T08:14:22Z</time>
      </trkpt>
      <trkpt lat="48.37739" lon="-3.73512">
        <ele>206.80000305176</ele>
        <time>2021-09-12T08:14:23Z</time>
      </trkpt>
      <trkpt lat="48.37734" lon="-3.73515">
        <ele>206.60000610352</ele>
        <time>2021-09-12T08:14:24Z</time>
      </trkpt>
      <trkpt lat="48.37728" lon="-3.73519">
        <ele>206.60000610352</ele>
        <time>2021-09-12T08:14:25Z</time>
      </trkpt>
      <trkpt lat="48.37723" lon="-3.73524">
        <ele>206.60000610352</ele>
        <time>2021-09-12T08:14:26Z</time>
      </trkpt>
      <trkpt lat="48.37718" lon="-3.7353">
        <ele>206.39999389648</ele>
        <time>2021-09-12T08:14:27Z</time>
      </trkpt>
      <trkpt lat="48.37713" lon="-3.73536">
        <ele>206.39999389648</ele>
        <time>2021-09-12T08:14:28Z</time>
      </trkpt>
      <trkpt lat="48.37709" lon="-3.73544">
        <ele>206</ele>
        <time>2021-09-12T08:14:29Z</time>
      </trkpt>
      <trkpt lat="48.37704" lon="-3.73553">
        <ele>205.80000305176</ele>
        <time>2021-09-12T08:14:30Z</time>
      </trkpt>
      <trkpt lat="48.377" lon="-3.73562">
        <ele>205.60000610352</ele>
        <time>2021-09-12T08:14:31Z</time>
      </trkpt>
      <trkpt lat="48.37696" lon="-3.73573">
        <ele>205.39999389648</ele>
        <time>2021-09-12T08:14:32Z</time>
      </trkpt>
      <trkpt lat="48.37693" lon="-3.73584">
        <ele>205.19999694824</ele>
        <time>2021-09-12T08:14:33Z</time>
      </trkpt>
      <trkpt lat="48.3769" lon="-3.73595">
        <ele>205.19999694824</ele>
        <time>2021-09-12T08:14:34Z</time>
      </trkpt>
      <trkpt lat="48.37688" lon="-3.73605">
        <ele>205</ele>
        <time>2021-09-12T08:14:35Z</time>
      </trkpt>
      <trkpt lat="48.37685" lon="-3.73615">
        <ele>204.80000305176</ele>
        <time>2021-09-12T08:14:36Z</time>
      </trkpt>
      <trkpt lat="48.37682" lon="-3.73624">
        <ele>204.80000305176</ele>
        <time>2021-09-12T08:14:37Z</time>
      </trkpt>
      <trkpt lat="48.37679" lon="-3.73632">
        <ele>204.80000305176</ele>
        <time>2021-09-12T08:14:38Z</time>
      </trkpt>
      <trkpt lat="48.37677" lon="-3.73641">
        <ele>204.80000305176</ele>
        <time>2021-09-12T08:14:39Z</time>
      </trkpt>
      <trkpt lat="48.37675" lon="-3.73649">
        <ele>204.80000305176</ele>
        <time>2021-09-12T08:14:40Z</time>
      </trkpt>
      <trkpt lat="48.37673" lon="-3.73657">
        <ele>204.80000305176</ele>
        <time>2021-09-12T08:14:41Z</time>
      </trkpt>
      <trkpt lat="48.37672" lon="-3.73667">
        <ele>204.80000305176</ele>
        <time>2021-09-12T08:14:42Z</time>
      </trkpt>
      <trkpt lat="48.37671" lon="-3.73676">
        <ele>204.60000610352</ele>
        <time>2021-09-12T08:14:43Z</time>
      </trkpt>
      <trkpt lat="48.37671" lon="-3.73686">
        <ele>204.19999694824</ele>
        <time>2021-09-12T08:14:44Z</time>
      </trkpt>
      <trkpt lat="48.3767" lon="-3.73695">
        <ele>204</ele>
        <time>2021-09-12T08:14:45Z</time>
      </trkpt>
      <trkpt lat="48.37669" lon="-3.73704">
        <ele>203.80000305176</ele>
        <time>2021-09-12T08:14:46Z</time>
      </trkpt>
      <trkpt lat="48.37667" lon="-3.73711">
        <ele>203.80000305176</ele>
        <time>2021-09-12T08:14:47Z</time>
      </trkpt>
      <trkpt lat="48.37665" lon="-3.73718">
        <ele>203</ele>
        <time>2021-09-12T08:14:48Z</time>
      </trkpt>
      <trkpt lat="48.37663" lon="-3.73724">
        <ele>202.39999389648</ele>
        <time>2021-09-12T08:14:49Z</time>
      </trkpt>
      <trkpt lat="48.37662" lon="-3.73729">
        <ele>201.60000610352</ele>
        <time>2021-09-12T08:14:50Z</time>
      </trkpt>
      <trkpt lat="48.37661" lon="-3.73733">
        <ele>200.80000305176</ele>
        <time>2021-09-12T08:14:51Z</time>
      </trkpt>
      <trkpt lat="48.37661" lon="-3.73737">
        <ele>200.39999389648</ele>
        <time>2021-09-12T08:14:52Z</time>
      </trkpt>
      <trkpt lat="48.3766" lon="-3.7374">
        <ele>199.19999694824</ele>
        <time>2021-09-12T08:14:53Z</time>
      </trkpt>
      <trkpt lat="48.3766" lon="-3.73743">
        <ele>198.60000610352</ele>
        <time>2021-09-12T08:14:54Z</time>
      </trkpt>
      <trkpt lat="48.37661" lon="-3.73745">
        <ele>198.19999694824</ele>
        <time>2021-09-12T08:14:55Z</time>
      </trkpt>
      <trkpt lat="48.37661" lon="-3.73747">
        <ele>198</ele>
        <time>2021-09-12T08:14:56Z</time>
      </trkpt>
      <trkpt lat="48.37661" lon="-3.73749">
        <ele>197.39999389648</ele>
        <time>2021-09-12T08:14:57Z</time>
      </trkpt>
      <trkpt lat="48.37661" lon="-3.73751">
        <ele>197.19999694824</ele>
        <time>2021-09-12T08:14:58Z</time>
      </trkpt>
      <trkpt lat="48.37661" lon="-3.73753">
        <ele>196.80000305176</ele>
        <time>2021-09-12T08:14:59Z</time>
      </trkpt>
      <trkpt lat="48.3766" lon="-3.73754">
        <ele>196.39999389648</ele>
        <time>2021-09-12T08:15:00Z</time>
      </trkpt>
      <trkpt lat="48.37659" lon="-3.73756">
        <ele>196.39999389648</ele>
        <time>2021-09-12T08:15:01Z</time>
      </trkpt>
      <trkpt lat="48.37659" lon="-3.73757">
        <ele>196.39999389648</ele>
        <time>2021-09-12T08:15:02Z</time>
      </trkpt>
      <trkpt lat="48.37659" lon="-3.73757">
        <ele>196.39999389648</ele>
        <time>2021-09-12T08:15:03Z</time>
      </trkpt>
      <trkpt lat="48.37659" lon="-3.73757">
        <ele>196.39999389648</ele>
        <time>2021-09-12T08:15:04Z</time>
      </trkpt>
      <trkpt lat="48.37659" lon="-3.73757">
        <ele>196.19999694824</ele>
        <time>2021-09-12T08:15:05Z</time>
      </trkpt>
      <trkpt lat="48.37658" lon="-3.73768">
        <ele>195.60000610352</ele>
        <time>2021-09-12T08:15:29Z</time>
      </trkpt>
      <trkpt lat="48.37658" lon="-3.73771">
        <ele>195.19999694824</ele>
        <time>2021-09-12T08:15:30Z</time>
      </trkpt>
      <trkpt lat="48.37658" lon="-3.73775">
        <ele>194.60000610352</ele>
        <time>2021-09-12T08:15:31Z</time>
      </trkpt>
      <trkpt lat="48.37658" lon="-3.73778">
        <ele>194.60000610352</ele>
        <time>2021-09-12T08:15:32Z</time>
      </trkpt>
      <trkpt lat="48.37658" lon="-3.73781">
        <ele>194</ele>
        <time>2021-09-12T08:15:33Z</time>
      </trkpt>
      <trkpt lat="48.37659" lon="-3.73782">
        <ele>193.80000305176</ele>
        <time>2021-09-12T08:15:34Z</time>
      </trkpt>
      <trkpt lat="48.37659" lon="-3.73782">
        <ele>193.60000610352</ele>
        <time>2021-09-12T08:15:35Z</time>
      </trkpt>
      <trkpt lat="48.37659" lon="-3.73782">
        <ele>193.60000610352</ele>
        <time>2021-09-12T08:15:36Z</time>
      </trkpt>
      <trkpt lat="48.37659" lon="-3.73782">
        <ele>193.60000610352</ele>
        <time>2021-09-12T08:15:37Z</time>
      </trkpt>
      <trkpt lat="48.37658" lon="-3.73798">
        <ele>192.60000610352</ele>
        <time>2021-09-12T08:17:44Z</time>
      </trkpt>
      <trkpt lat="48.37658" lon="-3.73802">
        <ele>191.60000610352</ele>
        <time>2021-09-12T08:17:45Z</time>
      </trkpt>
      <trkpt lat="48.37658" lon="-3.73806">
        <ele>191.39999389648</ele>
        <time>2021-09-12T08:17:46Z</time>
      </trkpt>
      <trkpt lat="48.37657" lon="-3.73809">
        <ele>190.19999694824</ele>
        <time>2021-09-12T08:17:47Z</time>
      </trkpt>
      <trkpt lat="48.37657" lon="-3.73812">
        <ele>190</ele>
        <time>2021-09-12T08:17:48Z</time>
      </trkpt>
      <trkpt lat="48.37657" lon="-3.73815">
        <ele>189.60000610352</ele>
        <time>2021-09-12T08:17:49Z</time>
      </trkpt>
      <trkpt lat="48.37656" lon="-3.73819">
        <ele>189.19999694824</ele>
        <time>2021-09-12T08:17:50Z</time>
      </trkpt>
      <trkpt lat="48.37655" lon="-3.73821">
        <ele>188.80000305176</ele>
        <time>2021-09-12T08:17:51Z</time>
      </trkpt>
      <trkpt lat="48.37654" lon="-3.73825">
        <ele>188.39999389648</ele>
        <time>2021-09-12T08:17:52Z</time>
      </trkpt>
      <trkpt lat="48.37654" lon="-3.73828">
        <ele>187.60000610352</ele>
        <time>2021-09-12T08:17:53Z</time>
      </trkpt>
      <trkpt lat="48.37653" lon="-3.73831">
        <ele>187</ele>
        <time>2021-09-12T08:17:54Z</time>
      </trkpt>
      <trkpt lat="48.37653" lon="-3.73834">
        <ele>186.80000305176</ele>
        <time>2021-09-12T08:17:55Z</time>
      </trkpt>
      <trkpt lat="48.37652" lon="-3.73836">
        <ele>186.60000610352</ele>
        <time>2021-09-12T08:17:56Z</time>
      </trkpt>
      <trkpt lat="48.3765" lon="-3.7384">
        <ele>186</ele>
        <time>2021-09-12T08:17:57Z</time>
      </trkpt>
      <trkpt lat="48.37649" lon="-3.73844">
        <ele>185.80000305176</ele>
        <time>2021-09-12T08:17:58Z</time>
      </trkpt>
      <trkpt lat="48.37649" lon="-3.73846">
        <ele>185.39999389648</ele>
        <time>2021-09-12T08:17:59Z</time>
      </trkpt>
      <trkpt lat="48.37649" lon="-3.73848">
        <ele>185.19999694824</ele>
        <time>2021-09-12T08:18:00Z</time>
      </trkpt>
      <trkpt lat="48.3765" lon="-3.73851">
        <ele>185.19999694824</ele>
        <time>2021-09-12T08:18:01Z</time>
      </trkpt>
      <trkpt lat="48.37651" lon="-3.73853">
        <ele>185</ele>
        <time>2021-09-12T08:18:02Z</time>
      </trkpt>
      <trkpt lat="48.37651" lon="-3.73855">
        <ele>185</ele>
        <time>2021-09-12T08:18:03Z</time>
      </trkpt>
      <trkpt lat="48.37652" lon="-3.73858">
        <ele>184.39999389648</ele>
        <time>2021-09-12T08:18:04Z</time>
      </trkpt>
      <trkpt lat="48.37652" lon="-3.7386">
        <ele>184.19999694824</ele>
        <time>2021-09-12T08:18:05Z</time>
      </trkpt>
      <trkpt lat="48.37651" lon="-3.73863">
        <ele>183.80000305176</ele>
        <time>2021-09-12T08:18:06Z</time>
      </trkpt>
      <trkpt lat="48.3765" lon="-3.73866">
        <ele>183.60000610352</ele>
        <time>2021-09-12T08:18:07Z</time>
      </trkpt>
      <trkpt lat="48.3765" lon="-3.73866">
        <ele>183.60000610352</ele>
        <time>2021-09-12T08:18:08Z</time>
      </trkpt>
      <trkpt lat="48.3765" lon="-3.73866">
        <ele>183.39999389648</ele>
        <time>2021-09-12T08:18:09Z</time>
      </trkpt>
      <trkpt lat="48.3765" lon="-3.73866">
        <ele>183.39999389648</ele>
        <time>2021-09-12T08:18:10Z</time>
      </trkpt>
      <trkpt lat="48.37651" lon="-3.73878">
        <ele>182</ele>
        <time>2021-09-12T08:18:32Z</time>
      </trkpt>
      <trkpt lat="48.3765" lon="-3.73881">
        <ele>181.60000610352</ele>
        <time>2021-09-12T08:18:33Z</time>
      </trkpt>
      <trkpt lat="48.37651" lon="-3.73884">
        <ele>181</ele>
        <time>2021-09-12T08:18:34Z</time>
      </trkpt>
      <trkpt lat="48.37651" lon="-3.73886">
        <ele>180.39999389648</ele>
        <time>2021-09-12T08:18:35Z</time>
      </trkpt>
      <trkpt lat="48.37651" lon="-3.7389">
        <ele>180</ele>
        <time>2021-09-12T08:18:36Z</time>
      </trkpt>
      <trkpt lat="48.37649" lon="-3.73894">
        <ele>179.80000305176</ele>
        <time>2021-09-12T08:18:37Z</time>
      </trkpt>
      <trkpt lat="48.37648" lon="-3.73898">
        <ele>179.39999389648</ele>
        <time>2021-09-12T08:18:38Z</time>
      </trkpt>
      <trkpt lat="48.37647" lon="-3.73901">
        <ele>179.19999694824</ele>
        <time>2021-09-12T08:18:39Z</time>
      </trkpt>
      <trkpt lat="48.37646" lon="-3.73904">
        <ele>178.80000305176</ele>
        <time>2021-09-12T08:18:40Z</time>
      </trkpt>
      <trkpt lat="48.37646" lon="-3.73909">
        <ele>178.60000610352</ele>
        <time>2021-09-12T08:18:41Z</time>
      </trkpt>
      <trkpt lat="48.37646" lon="-3.73911">
        <ele>178.19999694824</ele>
        <time>2021-09-12T08:18:42Z</time>
      </trkpt>
      <trkpt lat="48.37646" lon="-3.73913">
        <ele>178</ele>
        <time>2021-09-12T08:18:43Z</time>
      </trkpt>
      <trkpt lat="48.37646" lon="-3.73916">
        <ele>177.60000610352</ele>
        <time>2021-09-12T08:18:44Z</time>
      </trkpt>
      <trkpt lat="48.37646" lon="-3.73919">
        <ele>177.39999389648</ele>
        <time>2021-09-12T08:18:45Z</time>
      </trkpt>
      <trkpt lat="48.37646" lon="-3.73924">
        <ele>177.19999694824</ele>
        <time>2021-09-12T08:18:46Z</time>
      </trkpt>
      <trkpt lat="48.37644" lon="-3.73928">
        <ele>176.80000305176</ele>
        <time>2021-09-12T08:18:47Z</time>
      </trkpt>
      <trkpt lat="48.37642" lon="-3.73932">
        <ele>176.60000610352</ele>
        <time>2021-09-12T08:18:48Z</time>
      </trkpt>
      <trkpt lat="48.37642" lon="-3.73935">
        <ele>176.39999389648</ele>
        <time>2021-09-12T08:18:49Z</time>
      </trkpt>
      <trkpt lat="48.37641" lon="-3.73939">
        <ele>176</ele>
        <time>2021-09-12T08:18:50Z</time>
      </trkpt>
      <trkpt lat="48.3764" lon="-3.73942">
        <ele>175.80000305176</ele>
        <time>2021-09-12T08:18:51Z</time>
      </trkpt>
      <trkpt lat="48.3764" lon="-3.73943">
        <ele>175.60000610352</ele>
        <time>2021-09-12T08:18:52Z</time>
      </trkpt>
      <trkpt lat="48.3764" lon="-3.73945">
        <ele>175.60000610352</ele>
        <time>2021-09-12T08:18:53Z</time>
      </trkpt>
      <trkpt lat="48.3764" lon="-3.73947">
        <ele>175.60000610352</ele>
        <time>2021-09-12T08:18:54Z</time>
      </trkpt>
      <trkpt lat="48.3764" lon="-3.73949">
        <ele>175.60000610352</ele>
        <time>2021-09-12T08:18:55Z</time>
      </trkpt>
      <trkpt lat="48.3764" lon="-3.73953">
        <ele>175.60000610352</ele>
        <time>2021-09-12T08:18:56Z</time>
      </trkpt>
      <trkpt lat="48.3764" lon="-3.73958">
        <ele>175.60000610352</ele>
        <time>2021-09-12T08:18:57Z</time>
      </trkpt>
      <trkpt lat="48.37638" lon="-3.73963">
        <ele>175.60000610352</ele>
        <time>2021-09-12T08:18:58Z</time>
      </trkpt>
      <trkpt lat="48.37635" lon="-3.73967">
        <ele>175.60000610352</ele>
        <time>2021-09-12T08:18:59Z</time>
      </trkpt>
      <trkpt lat="48.37633" lon="-3.73973">
        <ele>175.60000610352</ele>
        <time>2021-09-12T08:19:00Z</time>
      </trkpt>
      <trkpt lat="48.37632" lon="-3.73976">
        <ele>175.60000610352</ele>
        <time>2021-09-12T08:19:01Z</time>
      </trkpt>
      <trkpt lat="48.3763" lon="-3.73979">
        <ele>175.39999389648</ele>
        <time>2021-09-12T08:19:02Z</time>
      </trkpt>
      <trkpt lat="48.3763" lon="-3.73979">
        <ele>175.19999694824</ele>
        <time>2021-09-12T08:19:03Z</time>
      </trkpt>
      <trkpt lat="48.3763" lon="-3.73981">
        <ele>175</ele>
        <time>2021-09-12T08:19:04Z</time>
      </trkpt>
      <trkpt lat="48.37631" lon="-3.73982">
        <ele>174.80000305176</ele>
        <time>2021-09-12T08:19:05Z</time>
      </trkpt>
      <trkpt lat="48.37635" lon="-3.73985">
        <ele>174.39999389648</ele>
        <time>2021-09-12T08:19:06Z</time>
      </trkpt>
      <trkpt lat="48.37637" lon="-3.73988">
        <ele>173.39999389648</ele>
        <time>2021-09-12T08:19:07Z</time>
      </trkpt>
      <trkpt lat="48.37641" lon="-3.7399">
        <ele>173</ele>
        <time>2021-09-12T08:19:08Z</time>
      </trkpt>
      <trkpt lat="48.37641" lon="-3.73992">
        <ele>173</ele>
        <time>2021-09-12T08:19:09Z</time>
      </trkpt>
      <trkpt lat="48.37642" lon="-3.73992">
        <ele>172.80000305176</ele>
        <time>2021-09-12T08:19:10Z</time>
      </trkpt>
      <trkpt lat="48.37643" lon="-3.73993">
        <ele>172.80000305176</ele>
        <time>2021-09-12T08:19:11Z</time>
      </trkpt>
      <trkpt lat="48.37645" lon="-3.73993">
        <ele>172.80000305176</ele>
        <time>2021-09-12T08:19:12Z</time>
      </trkpt>
      <trkpt lat="48.37646" lon="-3.73993">
        <ele>172.60000610352</ele>
        <time>2021-09-12T08:19:13Z</time>
      </trkpt>
      <trkpt lat="48.37648" lon="-3.73994">
        <ele>172.39999389648</ele>
        <time>2021-09-12T08:19:14Z</time>
      </trkpt>
      <trkpt lat="48.3765" lon="-3.73994">
        <ele>172.39999389648</ele>
        <time>2021-09-12T08:19:15Z</time>
      </trkpt>
      <trkpt lat="48.37653" lon="-3.73994">
        <ele>172.39999389648</ele>
        <time>2021-09-12T08:19:16Z</time>
      </trkpt>
      <trkpt lat="48.37656" lon="-3.73994">
        <ele>172.39999389648</ele>
        <time>2021-09-12T08:19:17Z</time>
      </trkpt>
      <trkpt lat="48.37659" lon="-3.73996">
        <ele>172.39999389648</ele>
        <time>2021-09-12T08:19:18Z</time>
      </trkpt>
      <trkpt lat="48.37661" lon="-3.73997">
        <ele>172.39999389648</ele>
        <time>2021-09-12T08:19:19Z</time>
      </trkpt>
      <trkpt lat="48.37663" lon="-3.73998">
        <ele>172.39999389648</ele>
        <time>2021-09-12T08:19:20Z</time>
      </trkpt>
      <trkpt lat="48.37665" lon="-3.74002">
        <ele>172.19999694824</ele>
        <time>2021-09-12T08:19:21Z</time>
      </trkpt>
      <trkpt lat="48.37666" lon="-3.74006">
        <ele>172.19999694824</ele>
        <time>2021-09-12T08:19:22Z</time>
      </trkpt>
      <trkpt lat="48.37667" lon="-3.7401">
        <ele>172.19999694824</ele>
        <time>2021-09-12T08:19:23Z</time>
      </trkpt>
      <trkpt lat="48.37669" lon="-3.74013">
        <ele>172.19999694824</ele>
        <time>2021-09-12T08:19:24Z</time>
      </trkpt>
      <trkpt lat="48.37672" lon="-3.74017">
        <ele>172.19999694824</ele>
        <time>2021-09-12T08:19:25Z</time>
      </trkpt>
      <trkpt lat="48.37673" lon="-3.74023">
        <ele>172</ele>
        <time>2021-09-12T08:19:26Z</time>
      </trkpt>
      <trkpt lat="48.37675" lon="-3.74028">
        <ele>172</ele>
        <time>2021-09-12T08:19:27Z</time>
      </trkpt>
      <trkpt lat="48.37676" lon="-3.74034">
        <ele>172.19999694824</ele>
        <time>2021-09-12T08:19:28Z</time>
      </trkpt>
      <trkpt lat="48.37677" lon="-3.74039">
        <ele>172.19999694824</ele>
        <time>2021-09-12T08:19:29Z</time>
      </trkpt>
      <trkpt lat="48.37678" lon="-3.74045">
        <ele>172.19999694824</ele>
        <time>2021-09-12T08:19:30Z</time>
      </trkpt>
      <trkpt lat="48.37679" lon="-3.74049">
        <ele>172.19999694824</ele>
        <time>2021-09-12T08:19:31Z</time>
      </trkpt>
      <trkpt lat="48.37681" lon="-3.74053">
        <ele>172.80000305176</ele>
        <time>2021-09-12T08:19:32Z</time>
      </trkpt>
      <trkpt lat="48.37683" lon="-3.74056">
        <ele>172.80000305176</ele>
        <time>2021-09-12T08:19:33Z</time>
      </trkpt>
      <trkpt lat="48.37684" lon="-3.74057">
        <ele>172.80000305176</ele>
        <time>2021-09-12T08:19:34Z</time>
      </trkpt>
      <trkpt lat="48.37686" lon="-3.74059">
        <ele>173</ele>
        <time>2021-09-12T08:19:35Z</time>
      </trkpt>
      <trkpt lat="48.37688" lon="-3.7406">
        <ele>173.19999694824</ele>
        <time>2021-09-12T08:19:36Z</time>
      </trkpt>
      <trkpt lat="48.3769" lon="-3.74061">
        <ele>173.19999694824</ele>
        <time>2021-09-12T08:19:37Z</time>
      </trkpt>
      <trkpt lat="48.37692" lon="-3.74062">
        <ele>173.19999694824</ele>
        <time>2021-09-12T08:19:38Z</time>
      </trkpt>
      <trkpt lat="48.37695" lon="-3.74064">
        <ele>173.39999389648</ele>
        <time>2021-09-12T08:19:39Z</time>
      </trkpt>
      <trkpt lat="48.37697" lon="-3.74066">
        <ele>173.60000610352</ele>
        <time>2021-09-12T08:19:40Z</time>
      </trkpt>
      <trkpt lat="48.37701" lon="-3.74068">
        <ele>173.60000610352</ele>
        <time>2021-09-12T08:19:41Z</time>
      </trkpt>
      <trkpt lat="48.37704" lon="-3.74071">
        <ele>173.80000305176</ele>
        <time>2021-09-12T08:19:42Z</time>
      </trkpt>
      <trkpt lat="48.37707" lon="-3.7407">
        <ele>174</ele>
        <time>2021-09-12T08:19:43Z</time>
      </trkpt>
      <trkpt lat="48.37709" lon="-3.7407">
        <ele>174</ele>
        <time>2021-09-12T08:19:44Z</time>
      </trkpt>
      <trkpt lat="48.37711" lon="-3.74069">
        <ele>174.19999694824</ele>
        <time>2021-09-12T08:19:45Z</time>
      </trkpt>
      <trkpt lat="48.37712" lon="-3.7407">
        <ele>174.19999694824</ele>
        <time>2021-09-12T08:19:46Z</time>
      </trkpt>
      <trkpt lat="48.37714" lon="-3.7407">
        <ele>174.39999389648</ele>
        <time>2021-09-12T08:19:47Z</time>
      </trkpt>
      <trkpt lat="48.37717" lon="-3.74071">
        <ele>174.39999389648</ele>
        <time>2021-09-12T08:19:48Z</time>
      </trkpt>
      <trkpt lat="48.37718" lon="-3.74072">
        <ele>174.60000610352</ele>
        <time>2021-09-12T08:19:49Z</time>
      </trkpt>
      <trkpt lat="48.37721" lon="-3.74071">
        <ele>174.80000305176</ele>
        <time>2021-09-12T08:19:50Z</time>
      </trkpt>
      <trkpt lat="48.37725" lon="-3.7407">
        <ele>174.80000305176</ele>
        <time>2021-09-12T08:19:51Z</time>
      </trkpt>
      <trkpt lat="48.37726" lon="-3.7407">
        <ele>175</ele>
        <time>2021-09-12T08:19:52Z</time>
      </trkpt>
      <trkpt lat="48.37726" lon="-3.7407">
        <ele>175</ele>
        <time>2021-09-12T08:19:53Z</time>
      </trkpt>
      <trkpt lat="48.37726" lon="-3.7407">
        <ele>175</ele>
        <time>2021-09-12T08:19:54Z</time>
      </trkpt>
      <trkpt lat="48.37726" lon="-3.7407">
        <ele>175</ele>
        <time>2021-09-12T08:19:55Z</time>
      </trkpt>
      <trkpt lat="48.37744" lon="-3.74082">
        <ele>178.60000610352</ele>
        <time>2021-09-12T08:20:11Z</time>
      </trkpt>
      <trkpt lat="48.37745" lon="-3.74085">
        <ele>178.80000305176</ele>
        <time>2021-09-12T08:20:12Z</time>
      </trkpt>
      <trkpt lat="48.37746" lon="-3.74088">
        <ele>178.80000305176</ele>
        <time>2021-09-12T08:20:13Z</time>
      </trkpt>
      <trkpt lat="48.37747" lon="-3.7409">
        <ele>179.19999694824</ele>
        <time>2021-09-12T08:20:14Z</time>
      </trkpt>
      <trkpt lat="48.37748" lon="-3.74092">
        <ele>179.39999389648</ele>
        <time>2021-09-12T08:20:15Z</time>
      </trkpt>
      <trkpt lat="48.37749" lon="-3.74094">
        <ele>179.39999389648</ele>
        <time>2021-09-12T08:20:16Z</time>
      </trkpt>
      <trkpt lat="48.3775" lon="-3.74096">
        <ele>179.60000610352</ele>
        <time>2021-09-12T08:20:17Z</time>
      </trkpt>
      <trkpt lat="48.3775" lon="-3.74098">
        <ele>179.60000610352</ele>
        <time>2021-09-12T08:20:18Z</time>
      </trkpt>
      <trkpt lat="48.37751" lon="-3.741">
        <ele>180.19999694824</ele>
        <time>2021-09-12T08:20:19Z</time>
      </trkpt>
      <trkpt lat="48.37751" lon="-3.74102">
        <ele>180.19999694824</ele>
        <time>2021-09-12T08:20:20Z</time>
      </trkpt>
      <trkpt lat="48.37753" lon="-3.74105">
        <ele>180.60000610352</ele>
        <time>2021-09-12T08:20:21Z</time>
      </trkpt>
      <trkpt lat="48.37754" lon="-3.74108">
        <ele>180.60000610352</ele>
        <time>2021-09-12T08:20:22Z</time>
      </trkpt>
      <trkpt lat="48.37756" lon="-3.74111">
        <ele>181</ele>
        <time>2021-09-12T08:20:23Z</time>
      </trkpt>
      <trkpt lat="48.37757" lon="-3.74113">
        <ele>181</ele>
        <time>2021-09-12T08:20:24Z</time>
      </trkpt>
      <trkpt lat="48.37759" lon="-3.74116">
        <ele>181.39999389648</ele>
        <time>2021-09-12T08:20:25Z</time>
      </trkpt>
      <trkpt lat="48.3776" lon="-3.74118">
        <ele>181.39999389648</ele>
        <time>2021-09-12T08:20:26Z</time>
      </trkpt>
      <trkpt lat="48.3776" lon="-3.7412">
        <ele>182</ele>
        <time>2021-09-12T08:20:27Z</time>
      </trkpt>
      <trkpt lat="48.3776" lon="-3.74122">
        <ele>182</ele>
        <time>2021-09-12T08:20:28Z</time>
      </trkpt>
      <trkpt lat="48.37759" lon="-3.74124">
        <ele>182.60000610352</ele>
        <time>2021-09-12T08:20:29Z</time>
      </trkpt>
      <trkpt lat="48.37759" lon="-3.74125">
        <ele>182.60000610352</ele>
        <time>2021-09-12T08:20:30Z</time>
      </trkpt>
      <trkpt lat="48.37759" lon="-3.74127">
        <ele>182.80000305176</ele>
        <time>2021-09-12T08:20:31Z</time>
      </trkpt>
      <trkpt lat="48.37759" lon="-3.7413">
        <ele>183.19999694824</ele>
        <time>2021-09-12T08:20:32Z</time>
      </trkpt>
      <trkpt lat="48.37759" lon="-3.74134">
        <ele>183.60000610352</ele>
        <time>2021-09-12T08:20:33Z</time>
      </trkpt>
      <trkpt lat="48.37759" lon="-3.74137">
        <ele>183.60000610352</ele>
        <time>2021-09-12T08:20:34Z</time>
      </trkpt>
      <trkpt lat="48.37759" lon="-3.7414">
        <ele>184</ele>
        <time>2021-09-12T08:20:35Z</time>
      </trkpt>
      <trkpt lat="48.3776" lon="-3.74142">
        <ele>184.19999694824</ele>
        <time>2021-09-12T08:20:36Z</time>
      </trkpt>
      <trkpt lat="48.37761" lon="-3.74144">
        <ele>184.80000305176</ele>
        <time>2021-09-12T08:20:37Z</time>
      </trkpt>
      <trkpt lat="48.37761" lon="-3.74145">
        <ele>185</ele>
        <time>2021-09-12T08:20:38Z</time>
      </trkpt>
      <trkpt lat="48.3776" lon="-3.74146">
        <ele>185.19999694824</ele>
        <time>2021-09-12T08:20:39Z</time>
      </trkpt>
      <trkpt lat="48.37759" lon="-3.74148">
        <ele>185.60000610352</ele>
        <time>2021-09-12T08:20:40Z</time>
      </trkpt>
      <trkpt lat="48.37759" lon="-3.7415">
        <ele>186</ele>
        <time>2021-09-12T08:20:41Z</time>
      </trkpt>
      <trkpt lat="48.37759" lon="-3.74151">
        <ele>186</ele>
        <time>2021-09-12T08:20:42Z</time>
      </trkpt>
      <trkpt lat="48.3776" lon="-3.74153">
        <ele>186.60000610352</ele>
        <time>2021-09-12T08:20:43Z</time>
      </trkpt>
      <trkpt lat="48.37761" lon="-3.74155">
        <ele>186.80000305176</ele>
        <time>2021-09-12T08:20:44Z</time>
      </trkpt>
      <trkpt lat="48.37762" lon="-3.74158">
        <ele>187</ele>
        <time>2021-09-12T08:20:45Z</time>
      </trkpt>
      <trkpt lat="48.37762" lon="-3.7416">
        <ele>187.19999694824</ele>
        <time>2021-09-12T08:20:46Z</time>
      </trkpt>
      <trkpt lat="48.37763" lon="-3.74162">
        <ele>187.60000610352</ele>
        <time>2021-09-12T08:20:47Z</time>
      </trkpt>
      <trkpt lat="48.37763" lon="-3.74164">
        <ele>187.60000610352</ele>
        <time>2021-09-12T08:20:48Z</time>
      </trkpt>
      <trkpt lat="48.37763" lon="-3.74166">
        <ele>187.80000305176</ele>
        <time>2021-09-12T08:20:49Z</time>
      </trkpt>
      <trkpt lat="48.37762" lon="-3.74167">
        <ele>188.19999694824</ele>
        <time>2021-09-12T08:20:50Z</time>
      </trkpt>
      <trkpt lat="48.37762" lon="-3.74169">
        <ele>188.39999389648</ele>
        <time>2021-09-12T08:20:51Z</time>
      </trkpt>
      <trkpt lat="48.37762" lon="-3.74172">
        <ele>188.80000305176</ele>
        <time>2021-09-12T08:20:52Z</time>
      </trkpt>
      <trkpt lat="48.37762" lon="-3.74174">
        <ele>189</ele>
        <time>2021-09-12T08:20:53Z</time>
      </trkpt>
      <trkpt lat="48.37761" lon="-3.74176">
        <ele>189.19999694824</ele>
        <time>2021-09-12T08:20:54Z</time>
      </trkpt>
      <trkpt lat="48.37762" lon="-3.74178">
        <ele>189.39999389648</ele>
        <time>2021-09-12T08:20:55Z</time>
      </trkpt>
      <trkpt lat="48.37761" lon="-3.74179">
        <ele>189.60000610352</ele>
        <time>2021-09-12T08:20:56Z</time>
      </trkpt>
      <trkpt lat="48.37761" lon="-3.74183">
        <ele>189.60000610352</ele>
        <time>2021-09-12T08:20:57Z</time>
      </trkpt>
      <trkpt lat="48.3776" lon="-3.74187">
        <ele>190</ele>
        <time>2021-09-12T08:20:58Z</time>
      </trkpt>
      <trkpt lat="48.3776" lon="-3.74192">
        <ele>190.19999694824</ele>
        <time>2021-09-12T08:20:59Z</time>
      </trkpt>
      <trkpt lat="48.3776" lon="-3.74196">
        <ele>190.60000610352</ele>
        <time>2021-09-12T08:21:00Z</time>
      </trkpt>
      <trkpt lat="48.37761" lon="-3.742">
        <ele>190.60000610352</ele>
        <time>2021-09-12T08:21:01Z</time>
      </trkpt>
      <trkpt lat="48.37761" lon="-3.74204">
        <ele>190.80000305176</ele>
        <time>2021-09-12T08:21:02Z</time>
      </trkpt>
      <trkpt lat="48.37761" lon="-3.74208">
        <ele>190.80000305176</ele>
        <time>2021-09-12T08:21:03Z</time>
      </trkpt>
      <trkpt lat="48.37761" lon="-3.74213">
        <ele>190.80000305176</ele>
        <time>2021-09-12T08:21:04Z</time>
      </trkpt>
      <trkpt lat="48.37761" lon="-3.74216">
        <ele>190.80000305176</ele>
        <time>2021-09-12T08:21:05Z</time>
      </trkpt>
      <trkpt lat="48.37761" lon="-3.74221">
        <ele>190.60000610352</ele>
        <time>2021-09-12T08:21:06Z</time>
      </trkpt>
      <trkpt lat="48.3776" lon="-3.74226">
        <ele>190.39999389648</ele>
        <time>2021-09-12T08:21:07Z</time>
      </trkpt>
      <trkpt lat="48.37759" lon="-3.74232">
        <ele>190.39999389648</ele>
        <time>2021-09-12T08:21:08Z</time>
      </trkpt>
      <trkpt lat="48.3776" lon="-3.74239">
        <ele>190.39999389648</ele>
        <time>2021-09-12T08:21:09Z</time>
      </trkpt>
      <trkpt lat="48.37762" lon="-3.74244">
        <ele>190.39999389648</ele>
        <time>2021-09-12T08:21:10Z</time>
      </trkpt>
      <trkpt lat="48.37764" lon="-3.74251">
        <ele>190.39999389648</ele>
        <time>2021-09-12T08:21:11Z</time>
      </trkpt>
      <trkpt lat="48.37766" lon="-3.74257">
        <ele>190.39999389648</ele>
        <time>2021-09-12T08:21:12Z</time>
      </trkpt>
      <trkpt lat="48.37768" lon="-3.74262">
        <ele>190.39999389648</ele>
        <time>2021-09-12T08:21:13Z</time>
      </trkpt>
      <trkpt lat="48.37769" lon="-3.74269">
        <ele>190.60000610352</ele>
        <time>2021-09-12T08:21:14Z</time>
      </trkpt>
      <trkpt lat="48.3777" lon="-3.74276">
        <ele>190.80000305176</ele>
        <time>2021-09-12T08:21:15Z</time>
      </trkpt>
      <trkpt lat="48.37772" lon="-3.74284">
        <ele>190.80000305176</ele>
        <time>2021-09-12T08:21:16Z</time>
      </trkpt>
      <trkpt lat="48.37773" lon="-3.74292">
        <ele>190.80000305176</ele>
        <time>2021-09-12T08:21:17Z</time>
      </trkpt>
      <trkpt lat="48.37773" lon="-3.74298">
        <ele>190.80000305176</ele>
        <time>2021-09-12T08:21:18Z</time>
      </trkpt>
      <trkpt lat="48.37772" lon="-3.74302">
        <ele>191</ele>
        <time>2021-09-12T08:21:19Z</time>
      </trkpt>
      <trkpt lat="48.37773" lon="-3.74307">
        <ele>191.39999389648</ele>
        <time>2021-09-12T08:21:20Z</time>
      </trkpt>
      <trkpt lat="48.37774" lon="-3.74312">
        <ele>191.39999389648</ele>
        <time>2021-09-12T08:21:21Z</time>
      </trkpt>
      <trkpt lat="48.37773" lon="-3.74316">
        <ele>191.60000610352</ele>
        <time>2021-09-12T08:21:22Z</time>
      </trkpt>
      <trkpt lat="48.37772" lon="-3.74319">
        <ele>191.80000305176</ele>
        <time>2021-09-12T08:21:23Z</time>
      </trkpt>
      <trkpt lat="48.37773" lon="-3.74324">
        <ele>192</ele>
        <time>2021-09-12T08:21:24Z</time>
      </trkpt>
      <trkpt lat="48.37774" lon="-3.74331">
        <ele>192</ele>
        <time>2021-09-12T08:21:25Z</time>
      </trkpt>
      <trkpt lat="48.37776" lon="-3.74338">
        <ele>192</ele>
        <time>2021-09-12T08:21:26Z</time>
      </trkpt>
      <trkpt lat="48.37777" lon="-3.74341">
        <ele>192.19999694824</ele>
        <time>2021-09-12T08:21:27Z</time>
      </trkpt>
      <trkpt lat="48.37779" lon="-3.74345">
        <ele>192.19999694824</ele>
        <time>2021-09-12T08:21:28Z</time>
      </trkpt>
      <trkpt lat="48.37779" lon="-3.74348">
        <ele>192.39999389648</ele>
        <time>2021-09-12T08:21:29Z</time>
      </trkpt>
      <trkpt lat="48.37779" lon="-3.74352">
        <ele>192.60000610352</ele>
        <time>2021-09-12T08:21:30Z</time>
      </trkpt>
      <trkpt lat="48.37775" lon="-3.74356">
        <ele>192.80000305176</ele>
        <time>2021-09-12T08:21:31Z</time>
      </trkpt>
      <trkpt lat="48.37774" lon="-3.74362">
        <ele>193.39999389648</ele>
        <time>2021-09-12T08:21:32Z</time>
      </trkpt>
      <trkpt lat="48.37774" lon="-3.74366">
        <ele>193.60000610352</ele>
        <time>2021-09-12T08:21:33Z</time>
      </trkpt>
      <trkpt lat="48.37775" lon="-3.74369">
        <ele>193.60000610352</ele>
        <time>2021-09-12T08:21:34Z</time>
      </trkpt>
      <trkpt lat="48.37775" lon="-3.74372">
        <ele>193.60000610352</ele>
        <time>2021-09-12T08:21:35Z</time>
      </trkpt>
      <trkpt lat="48.37775" lon="-3.74375">
        <ele>194</ele>
        <time>2021-09-12T08:21:36Z</time>
      </trkpt>
      <trkpt lat="48.37776" lon="-3.74378">
        <ele>194.39999389648</ele>
        <time>2021-09-12T08:21:37Z</time>
      </trkpt>
      <trkpt lat="48.37777" lon="-3.7438">
        <ele>194.39999389648</ele>
        <time>2021-09-12T08:21:38Z</time>
      </trkpt>
      <trkpt lat="48.37777" lon="-3.74383">
        <ele>194.60000610352</ele>
        <time>2021-09-12T08:21:39Z</time>
      </trkpt>
      <trkpt lat="48.37778" lon="-3.74386">
        <ele>194.80000305176</ele>
        <time>2021-09-12T08:21:40Z</time>
      </trkpt>
      <trkpt lat="48.37779" lon="-3.74389">
        <ele>195.19999694824</ele>
        <time>2021-09-12T08:21:41Z</time>
      </trkpt>
      <trkpt lat="48.3778" lon="-3.74393">
        <ele>195.39999389648</ele>
        <time>2021-09-12T08:21:42Z</time>
      </trkpt>
      <trkpt lat="48.37781" lon="-3.74396">
        <ele>195.80000305176</ele>
        <time>2021-09-12T08:21:43Z</time>
      </trkpt>
      <trkpt lat="48.37781" lon="-3.74401">
        <ele>196</ele>
        <time>2021-09-12T08:21:44Z</time>
      </trkpt>
      <trkpt lat="48.37781" lon="-3.74404">
        <ele>196</ele>
        <time>2021-09-12T08:21:45Z</time>
      </trkpt>
      <trkpt lat="48.37781" lon="-3.74408">
        <ele>196</ele>
        <time>2021-09-12T08:21:46Z</time>
      </trkpt>
      <trkpt lat="48.37781" lon="-3.74412">
        <ele>196.19999694824</ele>
        <time>2021-09-12T08:21:47Z</time>
      </trkpt>
      <trkpt lat="48.37782" lon="-3.74416">
        <ele>196.19999694824</ele>
        <time>2021-09-12T08:21:48Z</time>
      </trkpt>
      <trkpt lat="48.37782" lon="-3.74421">
        <ele>196.19999694824</ele>
        <time>2021-09-12T08:21:49Z</time>
      </trkpt>
      <trkpt lat="48.37782" lon="-3.74425">
        <ele>196.19999694824</ele>
        <time>2021-09-12T08:21:50Z</time>
      </trkpt>
      <trkpt lat="48.37782" lon="-3.74429">
        <ele>196.19999694824</ele>
        <time>2021-09-12T08:21:51Z</time>
      </trkpt>
      <trkpt lat="48.37782" lon="-3.74433">
        <ele>196.19999694824</ele>
        <time>2021-09-12T08:21:52Z</time>
      </trkpt>
      <trkpt lat="48.37782" lon="-3.74437">
        <ele>196.19999694824</ele>
        <time>2021-09-12T08:21:53Z</time>
      </trkpt>
      <trkpt lat="48.37782" lon="-3.74441">
        <ele>196.39999389648</ele>
        <time>2021-09-12T08:21:54Z</time>
      </trkpt>
      <trkpt lat="48.37781" lon="-3.74446">
        <ele>196.39999389648</ele>
        <time>2021-09-12T08:21:55Z</time>
      </trkpt>
      <trkpt lat="48.37781" lon="-3.7445">
        <ele>196.39999389648</ele>
        <time>2021-09-12T08:21:56Z</time>
      </trkpt>
      <trkpt lat="48.37781" lon="-3.74453">
        <ele>196.39999389648</ele>
        <time>2021-09-12T08:21:57Z</time>
      </trkpt>
      <trkpt lat="48.37781" lon="-3.74457">
        <ele>196.19999694824</ele>
        <time>2021-09-12T08:21:58Z</time>
      </trkpt>
      <trkpt lat="48.37782" lon="-3.74464">
        <ele>196.19999694824</ele>
        <time>2021-09-12T08:21:59Z</time>
      </trkpt>
      <trkpt lat="48.37782" lon="-3.74468">
        <ele>196.19999694824</ele>
        <time>2021-09-12T08:22:00Z</time>
      </trkpt>
      <trkpt lat="48.37782" lon="-3.74473">
        <ele>196</ele>
        <time>2021-09-12T08:22:01Z</time>
      </trkpt>
      <trkpt lat="48.37782" lon="-3.74479">
        <ele>196</ele>
        <time>2021-09-12T08:22:02Z</time>
      </trkpt>
      <trkpt lat="48.37781" lon="-3.74485">
        <ele>195.80000305176</ele>
        <time>2021-09-12T08:22:03Z</time>
      </trkpt>
      <trkpt lat="48.3778" lon="-3.74492">
        <ele>195.60000610352</ele>
        <time>2021-09-12T08:22:04Z</time>
      </trkpt>
      <trkpt lat="48.37777" lon="-3.74497">
        <ele>195.60000610352</ele>
        <time>2021-09-12T08:22:05Z</time>
      </trkpt>
      <trkpt lat="48.37775" lon="-3.74503">
        <ele>195.60000610352</ele>
        <time>2021-09-12T08:22:06Z</time>
      </trkpt>
      <trkpt lat="48.37773" lon="-3.74507">
        <ele>195.60000610352</ele>
        <time>2021-09-12T08:22:07Z</time>
      </trkpt>
      <trkpt lat="48.37772" lon="-3.7451">
        <ele>195.60000610352</ele>
        <time>2021-09-12T08:22:08Z</time>
      </trkpt>
      <trkpt lat="48.37769" lon="-3.74513">
        <ele>195.60000610352</ele>
        <time>2021-09-12T08:22:09Z</time>
      </trkpt>
      <trkpt lat="48.37768" lon="-3.74516">
        <ele>195.80000305176</ele>
        <time>2021-09-12T08:22:10Z</time>
      </trkpt>
      <trkpt lat="48.37767" lon="-3.74519">
        <ele>195.80000305176</ele>
        <time>2021-09-12T08:22:11Z</time>
      </trkpt>
      <trkpt lat="48.37767" lon="-3.7452">
        <ele>195.80000305176</ele>
        <time>2021-09-12T08:22:12Z</time>
      </trkpt>
      <trkpt lat="48.37766" lon="-3.74524">
        <ele>195.80000305176</ele>
        <time>2021-09-12T08:22:13Z</time>
      </trkpt>
      <trkpt lat="48.37766" lon="-3.74527">
        <ele>195.80000305176</ele>
        <time>2021-09-12T08:22:14Z</time>
      </trkpt>
      <trkpt lat="48.37767" lon="-3.74532">
        <ele>195.80000305176</ele>
        <time>2021-09-12T08:22:15Z</time>
      </trkpt>
      <trkpt lat="48.37767" lon="-3.74537">
        <ele>195.80000305176</ele>
        <time>2021-09-12T08:22:16Z</time>
      </trkpt>
      <trkpt lat="48.37766" lon="-3.74542">
        <ele>195.80000305176</ele>
        <time>2021-09-12T08:22:17Z</time>
      </trkpt>
      <trkpt lat="48.37765" lon="-3.74547">
        <ele>195.80000305176</ele>
        <time>2021-09-12T08:22:18Z</time>
      </trkpt>
      <trkpt lat="48.37765" lon="-3.74553">
        <ele>195.80000305176</ele>
        <time>2021-09-12T08:22:19Z</time>
      </trkpt>
      <trkpt lat="48.37765" lon="-3.74559">
        <ele>195.60000610352</ele>
        <time>2021-09-12T08:22:20Z</time>
      </trkpt>
      <trkpt lat="48.37766" lon="-3.74565">
        <ele>195.60000610352</ele>
        <time>2021-09-12T08:22:21Z</time>
      </trkpt>
      <trkpt lat="48.37767" lon="-3.74571">
        <ele>195.60000610352</ele>
        <time>2021-09-12T08:22:22Z</time>
      </trkpt>
      <trkpt lat="48.37768" lon="-3.74577">
        <ele>195.60000610352</ele>
        <time>2021-09-12T08:22:23Z</time>
      </trkpt>
      <trkpt lat="48.37769" lon="-3.74583">
        <ele>195.60000610352</ele>
        <time>2021-09-12T08:22:24Z</time>
      </trkpt>
      <trkpt lat="48.3777" lon="-3.74589">
        <ele>195.60000610352</ele>
        <time>2021-09-12T08:22:25Z</time>
      </trkpt>
      <trkpt lat="48.37771" lon="-3.74594">
        <ele>195.60000610352</ele>
        <time>2021-09-12T08:22:26Z</time>
      </trkpt>
      <trkpt lat="48.37772" lon="-3.74599">
        <ele>196</ele>
        <time>2021-09-12T08:22:27Z</time>
      </trkpt>
      <trkpt lat="48.37774" lon="-3.74604">
        <ele>196</ele>
        <time>2021-09-12T08:22:28Z</time>
      </trkpt>
      <trkpt lat="48.37775" lon="-3.74609">
        <ele>196.19999694824</ele>
        <time>2021-09-12T08:22:29Z</time>
      </trkpt>
      <trkpt lat="48.37777" lon="-3.74614">
        <ele>196.80000305176</ele>
        <time>2021-09-12T08:22:30Z</time>
      </trkpt>
      <trkpt lat="48.37778" lon="-3.74618">
        <ele>196.80000305176</ele>
        <time>2021-09-12T08:22:31Z</time>
      </trkpt>
      <trkpt lat="48.3778" lon="-3.74622">
        <ele>196.80000305176</ele>
        <time>2021-09-12T08:22:32Z</time>
      </trkpt>
      <trkpt lat="48.37781" lon="-3.74625">
        <ele>197</ele>
        <time>2021-09-12T08:22:33Z</time>
      </trkpt>
      <trkpt lat="48.37782" lon="-3.74628">
        <ele>197.19999694824</ele>
        <time>2021-09-12T08:22:34Z</time>
      </trkpt>
      <trkpt lat="48.37784" lon="-3.74631">
        <ele>197.60000610352</ele>
        <time>2021-09-12T08:22:35Z</time>
      </trkpt>
      <trkpt lat="48.37786" lon="-3.74634">
        <ele>198.19999694824</ele>
        <time>2021-09-12T08:22:36Z</time>
      </trkpt>
      <trkpt lat="48.37787" lon="-3.74637">
        <ele>198.19999694824</ele>
        <time>2021-09-12T08:22:37Z</time>
      </trkpt>
      <trkpt lat="48.37789" lon="-3.74639">
        <ele>198.19999694824</ele>
        <time>2021-09-12T08:22:38Z</time>
      </trkpt>
      <trkpt lat="48.37791" lon="-3.74642">
        <ele>198.60000610352</ele>
        <time>2021-09-12T08:22:39Z</time>
      </trkpt>
      <trkpt lat="48.37793" lon="-3.74645">
        <ele>199.19999694824</ele>
        <time>2021-09-12T08:22:40Z</time>
      </trkpt>
      <trkpt lat="48.37794" lon="-3.74648">
        <ele>199.39999389648</ele>
        <time>2021-09-12T08:22:41Z</time>
      </trkpt>
      <trkpt lat="48.37796" lon="-3.7465">
        <ele>200</ele>
        <time>2021-09-12T08:22:42Z</time>
      </trkpt>
      <trkpt lat="48.37797" lon="-3.74653">
        <ele>200.19999694824</ele>
        <time>2021-09-12T08:22:43Z</time>
      </trkpt>
      <trkpt lat="48.37799" lon="-3.74656">
        <ele>200.39999389648</ele>
        <time>2021-09-12T08:22:44Z</time>
      </trkpt>
      <trkpt lat="48.37801" lon="-3.74659">
        <ele>200.80000305176</ele>
        <time>2021-09-12T08:22:45Z</time>
      </trkpt>
      <trkpt lat="48.37803" lon="-3.74662">
        <ele>200.80000305176</ele>
        <time>2021-09-12T08:22:46Z</time>
      </trkpt>
      <trkpt lat="48.37805" lon="-3.74666">
        <ele>201.19999694824</ele>
        <time>2021-09-12T08:22:47Z</time>
      </trkpt>
      <trkpt lat="48.37807" lon="-3.74669">
        <ele>201.39999389648</ele>
        <time>2021-09-12T08:22:48Z</time>
      </trkpt>
      <trkpt lat="48.37809" lon="-3.74672">
        <ele>201.80000305176</ele>
        <time>2021-09-12T08:22:49Z</time>
      </trkpt>
      <trkpt lat="48.37811" lon="-3.74676">
        <ele>202</ele>
        <time>2021-09-12T08:22:50Z</time>
      </trkpt>
      <trkpt lat="48.37814" lon="-3.7468">
        <ele>202</ele>
        <time>2021-09-12T08:22:51Z</time>
      </trkpt>
      <trkpt lat="48.37816" lon="-3.74683">
        <ele>202.19999694824</ele>
        <time>2021-09-12T08:22:52Z</time>
      </trkpt>
      <trkpt lat="48.37819" lon="-3.74687">
        <ele>202.60000610352</ele>
        <time>2021-09-12T08:22:53Z</time>
      </trkpt>
      <trkpt lat="48.37821" lon="-3.74691">
        <ele>202.60000610352</ele>
        <time>2021-09-12T08:22:54Z</time>
      </trkpt>
      <trkpt lat="48.37823" lon="-3.74695">
        <ele>202.80000305176</ele>
        <time>2021-09-12T08:22:55Z</time>
      </trkpt>
      <trkpt lat="48.37825" lon="-3.74699">
        <ele>202.80000305176</ele>
        <time>2021-09-12T08:22:56Z</time>
      </trkpt>
      <trkpt lat="48.37827" lon="-3.74704">
        <ele>203</ele>
        <time>2021-09-12T08:22:57Z</time>
      </trkpt>
      <trkpt lat="48.3783" lon="-3.74708">
        <ele>203.19999694824</ele>
        <time>2021-09-12T08:22:58Z</time>
      </trkpt>
      <trkpt lat="48.37833" lon="-3.74714">
        <ele>203.39999389648</ele>
        <time>2021-09-12T08:22:59Z</time>
      </trkpt>
      <trkpt lat="48.37835" lon="-3.74721">
        <ele>203.39999389648</ele>
        <time>2021-09-12T08:23:00Z</time>
      </trkpt>
      <trkpt lat="48.37837" lon="-3.74725">
        <ele>203.39999389648</ele>
        <time>2021-09-12T08:23:01Z</time>
      </trkpt>
      <trkpt lat="48.37839" lon="-3.74729">
        <ele>203.80000305176</ele>
        <time>2021-09-12T08:23:02Z</time>
      </trkpt>
      <trkpt lat="48.37841" lon="-3.74733">
        <ele>204</ele>
        <time>2021-09-12T08:23:03Z</time>
      </trkpt>
      <trkpt lat="48.37844" lon="-3.74737">
        <ele>204.19999694824</ele>
        <time>2021-09-12T08:23:04Z</time>
      </trkpt>
      <trkpt lat="48.37844" lon="-3.74741">
        <ele>204.60000610352</ele>
        <time>2021-09-12T08:23:05Z</time>
      </trkpt>
      <trkpt lat="48.37845" lon="-3.74745">
        <ele>204.60000610352</ele>
        <time>2021-09-12T08:23:06Z</time>
      </trkpt>
      <trkpt lat="48.37846" lon="-3.74748">
        <ele>204.80000305176</ele>
        <time>2021-09-12T08:23:07Z</time>
      </trkpt>
      <trkpt lat="48.37848" lon="-3.74752">
        <ele>204.80000305176</ele>
        <time>2021-09-12T08:23:08Z</time>
      </trkpt>
      <trkpt lat="48.3785" lon="-3.74756">
        <ele>205.19999694824</ele>
        <time>2021-09-12T08:23:09Z</time>
      </trkpt>
      <trkpt lat="48.37851" lon="-3.74761">
        <ele>205.60000610352</ele>
        <time>2021-09-12T08:23:10Z</time>
      </trkpt>
      <trkpt lat="48.37853" lon="-3.74765">
        <ele>205.60000610352</ele>
        <time>2021-09-12T08:23:11Z</time>
      </trkpt>
      <trkpt lat="48.37855" lon="-3.7477">
        <ele>206.19999694824</ele>
        <time>2021-09-12T08:23:12Z</time>
      </trkpt>
      <trkpt lat="48.37855" lon="-3.74774">
        <ele>206.19999694824</ele>
        <time>2021-09-12T08:23:13Z</time>
      </trkpt>
      <trkpt lat="48.37857" lon="-3.74778">
        <ele>206.39999389648</ele>
        <time>2021-09-12T08:23:14Z</time>
      </trkpt>
      <trkpt lat="48.37858" lon="-3.74783">
        <ele>206.60000610352</ele>
        <time>2021-09-12T08:23:15Z</time>
      </trkpt>
      <trkpt lat="48.37859" lon="-3.74787">
        <ele>206.80000305176</ele>
        <time>2021-09-12T08:23:16Z</time>
      </trkpt>
      <trkpt lat="48.37861" lon="-3.74791">
        <ele>206.80000305176</ele>
        <time>2021-09-12T08:23:17Z</time>
      </trkpt>
      <trkpt lat="48.37862" lon="-3.74796">
        <ele>206.80000305176</ele>
        <time>2021-09-12T08:23:18Z</time>
      </trkpt>
      <trkpt lat="48.37863" lon="-3.74802">
        <ele>207</ele>
        <time>2021-09-12T08:23:19Z</time>
      </trkpt>
      <trkpt lat="48.37864" lon="-3.74807">
        <ele>207</ele>
        <time>2021-09-12T08:23:20Z</time>
      </trkpt>
      <trkpt lat="48.37865" lon="-3.74812">
        <ele>207.19999694824</ele>
        <time>2021-09-12T08:23:21Z</time>
      </trkpt>
      <trkpt lat="48.37867" lon="-3.74817">
        <ele>207.39999389648</ele>
        <time>2021-09-12T08:23:22Z</time>
      </trkpt>
      <trkpt lat="48.37868" lon="-3.74822">
        <ele>207.60000610352</ele>
        <time>2021-09-12T08:23:23Z</time>
      </trkpt>
      <trkpt lat="48.37869" lon="-3.74826">
        <ele>207.80000305176</ele>
        <time>2021-09-12T08:23:24Z</time>
      </trkpt>
      <trkpt lat="48.3787" lon="-3.7483">
        <ele>208</ele>
        <time>2021-09-12T08:23:25Z</time>
      </trkpt>
      <trkpt lat="48.3787" lon="-3.74835">
        <ele>208</ele>
        <time>2021-09-12T08:23:26Z</time>
      </trkpt>
      <trkpt lat="48.37871" lon="-3.74839">
        <ele>208.39999389648</ele>
        <time>2021-09-12T08:23:27Z</time>
      </trkpt>
      <trkpt lat="48.3787" lon="-3.74844">
        <ele>208.39999389648</ele>
        <time>2021-09-12T08:23:28Z</time>
      </trkpt>
      <trkpt lat="48.3787" lon="-3.74849">
        <ele>208.60000610352</ele>
        <time>2021-09-12T08:23:29Z</time>
      </trkpt>
      <trkpt lat="48.37869" lon="-3.74854">
        <ele>208.80000305176</ele>
        <time>2021-09-12T08:23:30Z</time>
      </trkpt>
      <trkpt lat="48.37867" lon="-3.74859">
        <ele>209.19999694824</ele>
        <time>2021-09-12T08:23:31Z</time>
      </trkpt>
      <trkpt lat="48.37866" lon="-3.74863">
        <ele>209.19999694824</ele>
        <time>2021-09-12T08:23:32Z</time>
      </trkpt>
      <trkpt lat="48.37866" lon="-3.74868">
        <ele>209.19999694824</ele>
        <time>2021-09-12T08:23:33Z</time>
      </trkpt>
      <trkpt lat="48.37866" lon="-3.74873">
        <ele>209.39999389648</ele>
        <time>2021-09-12T08:23:34Z</time>
      </trkpt>
      <trkpt lat="48.37867" lon="-3.74878">
        <ele>209.39999389648</ele>
        <time>2021-09-12T08:23:35Z</time>
      </trkpt>
      <trkpt lat="48.37867" lon="-3.74884">
        <ele>209.39999389648</ele>
        <time>2021-09-12T08:23:36Z</time>
      </trkpt>
      <trkpt lat="48.37868" lon="-3.74889">
        <ele>209.39999389648</ele>
        <time>2021-09-12T08:23:37Z</time>
      </trkpt>
      <trkpt lat="48.37869" lon="-3.74895">
        <ele>209.39999389648</ele>
        <time>2021-09-12T08:23:38Z</time>
      </trkpt>
      <trkpt lat="48.37871" lon="-3.74899">
        <ele>209.39999389648</ele>
        <time>2021-09-12T08:23:39Z</time>
      </trkpt>
      <trkpt lat="48.37873" lon="-3.74903">
        <ele>209.39999389648</ele>
        <time>2021-09-12T08:23:40Z</time>
      </trkpt>
      <trkpt lat="48.37875" lon="-3.74906">
        <ele>209.60000610352</ele>
        <time>2021-09-12T08:23:41Z</time>
      </trkpt>
      <trkpt lat="48.37877" lon="-3.74909">
        <ele>209.80000305176</ele>
        <time>2021-09-12T08:23:42Z</time>
      </trkpt>
      <trkpt lat="48.3788" lon="-3.74912">
        <ele>210.19999694824</ele>
        <time>2021-09-12T08:23:43Z</time>
      </trkpt>
      <trkpt lat="48.37882" lon="-3.74914">
        <ele>210.19999694824</ele>
        <time>2021-09-12T08:23:44Z</time>
      </trkpt>
      <trkpt lat="48.37885" lon="-3.74916">
        <ele>210.80000305176</ele>
        <time>2021-09-12T08:23:45Z</time>
      </trkpt>
      <trkpt lat="48.37887" lon="-3.74918">
        <ele>210.80000305176</ele>
        <time>2021-09-12T08:23:46Z</time>
      </trkpt>
      <trkpt lat="48.37889" lon="-3.74919">
        <ele>211.39999389648</ele>
        <time>2021-09-12T08:23:47Z</time>
      </trkpt>
      <trkpt lat="48.37892" lon="-3.74921">
        <ele>211.39999389648</ele>
        <time>2021-09-12T08:23:48Z</time>
      </trkpt>
      <trkpt lat="48.37894" lon="-3.74923">
        <ele>211.60000610352</ele>
        <time>2021-09-12T08:23:49Z</time>
      </trkpt>
      <trkpt lat="48.37897" lon="-3.74925">
        <ele>211.80000305176</ele>
        <time>2021-09-12T08:23:50Z</time>
      </trkpt>
      <trkpt lat="48.37899" lon="-3.74927">
        <ele>211.80000305176</ele>
        <time>2021-09-12T08:23:51Z</time>
      </trkpt>
      <trkpt lat="48.37902" lon="-3.7493">
        <ele>212</ele>
        <time>2021-09-12T08:23:52Z</time>
      </trkpt>
      <trkpt lat="48.37905" lon="-3.74934">
        <ele>212.19999694824</ele>
        <time>2021-09-12T08:23:53Z</time>
      </trkpt>
      <trkpt lat="48.37907" lon="-3.74937">
        <ele>212.19999694824</ele>
        <time>2021-09-12T08:23:54Z</time>
      </trkpt>
      <trkpt lat="48.3791" lon="-3.7494">
        <ele>212.19999694824</ele>
        <time>2021-09-12T08:23:55Z</time>
      </trkpt>
      <trkpt lat="48.37913" lon="-3.74944">
        <ele>212.60000610352</ele>
        <time>2021-09-12T08:23:56Z</time>
      </trkpt>
      <trkpt lat="48.37915" lon="-3.74947">
        <ele>212.60000610352</ele>
        <time>2021-09-12T08:23:57Z</time>
      </trkpt>
      <trkpt lat="48.37918" lon="-3.7495">
        <ele>212.80000305176</ele>
        <time>2021-09-12T08:23:58Z</time>
      </trkpt>
      <trkpt lat="48.3792" lon="-3.74953">
        <ele>212.80000305176</ele>
        <time>2021-09-12T08:23:59Z</time>
      </trkpt>
      <trkpt lat="48.37922" lon="-3.74957">
        <ele>213</ele>
        <time>2021-09-12T08:24:00Z</time>
      </trkpt>
      <trkpt lat="48.37924" lon="-3.7496">
        <ele>213</ele>
        <time>2021-09-12T08:24:01Z</time>
      </trkpt>
      <trkpt lat="48.37926" lon="-3.74963">
        <ele>213</ele>
        <time>2021-09-12T08:24:02Z</time>
      </trkpt>
      <trkpt lat="48.37927" lon="-3.74966">
        <ele>213.19999694824</ele>
        <time>2021-09-12T08:24:03Z</time>
      </trkpt>
      <trkpt lat="48.37929" lon="-3.74969">
        <ele>213.19999694824</ele>
        <time>2021-09-12T08:24:04Z</time>
      </trkpt>
      <trkpt lat="48.3793" lon="-3.74973">
        <ele>213.60000610352</ele>
        <time>2021-09-12T08:24:05Z</time>
      </trkpt>
      <trkpt lat="48.37932" lon="-3.74976">
        <ele>213.60000610352</ele>
        <time>2021-09-12T08:24:06Z</time>
      </trkpt>
      <trkpt lat="48.37934" lon="-3.74979">
        <ele>213.80000305176</ele>
        <time>2021-09-12T08:24:07Z</time>
      </trkpt>
      <trkpt lat="48.37936" lon="-3.74982">
        <ele>214</ele>
        <time>2021-09-12T08:24:08Z</time>
      </trkpt>
      <trkpt lat="48.37938" lon="-3.74986">
        <ele>214.19999694824</ele>
        <time>2021-09-12T08:24:09Z</time>
      </trkpt>
      <trkpt lat="48.37941" lon="-3.7499">
        <ele>214.19999694824</ele>
        <time>2021-09-12T08:24:10Z</time>
      </trkpt>
      <trkpt lat="48.37943" lon="-3.74993">
        <ele>214.19999694824</ele>
        <time>2021-09-12T08:24:11Z</time>
      </trkpt>
      <trkpt lat="48.37946" lon="-3.74996">
        <ele>214.39999389648</ele>
        <time>2021-09-12T08:24:12Z</time>
      </trkpt>
      <trkpt lat="48.37948" lon="-3.75">
        <ele>214.60000610352</ele>
        <time>2021-09-12T08:24:13Z</time>
      </trkpt>
      <trkpt lat="48.37951" lon="-3.75004">
        <ele>214.80000305176</ele>
        <time>2021-09-12T08:24:14Z</time>
      </trkpt>
      <trkpt lat="48.37954" lon="-3.75008">
        <ele>215</ele>
        <time>2021-09-12T08:24:15Z</time>
      </trkpt>
      <trkpt lat="48.37957" lon="-3.75013">
        <ele>215</ele>
        <time>2021-09-12T08:24:16Z</time>
      </trkpt>
      <trkpt lat="48.3796" lon="-3.75017">
        <ele>215.19999694824</ele>
        <time>2021-09-12T08:24:17Z</time>
      </trkpt>
      <trkpt lat="48.37963" lon="-3.75021">
        <ele>215.19999694824</ele>
        <time>2021-09-12T08:24:18Z</time>
      </trkpt>
      <trkpt lat="48.37965" lon="-3.75025">
        <ele>215.19999694824</ele>
        <time>2021-09-12T08:24:19Z</time>
      </trkpt>
      <trkpt lat="48.37967" lon="-3.75029">
        <ele>215.39999389648</ele>
        <time>2021-09-12T08:24:20Z</time>
      </trkpt>
      <trkpt lat="48.3797" lon="-3.75033">
        <ele>215.60000610352</ele>
        <time>2021-09-12T08:24:21Z</time>
      </trkpt>
      <trkpt lat="48.37973" lon="-3.75038">
        <ele>215.60000610352</ele>
        <time>2021-09-12T08:24:22Z</time>
      </trkpt>
      <trkpt lat="48.37974" lon="-3.75042">
        <ele>215.60000610352</ele>
        <time>2021-09-12T08:24:23Z</time>
      </trkpt>
      <trkpt lat="48.37976" lon="-3.75045">
        <ele>216</ele>
        <time>2021-09-12T08:24:24Z</time>
      </trkpt>
      <trkpt lat="48.37978" lon="-3.75049">
        <ele>216.39999389648</ele>
        <time>2021-09-12T08:24:25Z</time>
      </trkpt>
      <trkpt lat="48.37979" lon="-3.75053">
        <ele>216.39999389648</ele>
        <time>2021-09-12T08:24:26Z</time>
      </trkpt>
      <trkpt lat="48.37981" lon="-3.75057">
        <ele>216.80000305176</ele>
        <time>2021-09-12T08:24:27Z</time>
      </trkpt>
      <trkpt lat="48.37983" lon="-3.75061">
        <ele>217</ele>
        <time>2021-09-12T08:24:28Z</time>
      </trkpt>
      <trkpt lat="48.37985" lon="-3.75064">
        <ele>217.19999694824</ele>
        <time>2021-09-12T08:24:29Z</time>
      </trkpt>
      <trkpt lat="48.37988" lon="-3.75068">
        <ele>217.39999389648</ele>
        <time>2021-09-12T08:24:30Z</time>
      </trkpt>
      <trkpt lat="48.3799" lon="-3.75072">
        <ele>217.80000305176</ele>
        <time>2021-09-12T08:24:31Z</time>
      </trkpt>
      <trkpt lat="48.37992" lon="-3.75077">
        <ele>217.80000305176</ele>
        <time>2021-09-12T08:24:32Z</time>
      </trkpt>
      <trkpt lat="48.37993" lon="-3.75081">
        <ele>218.19999694824</ele>
        <time>2021-09-12T08:24:33Z</time>
      </trkpt>
      <trkpt lat="48.37995" lon="-3.75083">
        <ele>218.39999389648</ele>
        <time>2021-09-12T08:24:34Z</time>
      </trkpt>
      <trkpt lat="48.37997" lon="-3.75086">
        <ele>218.60000610352</ele>
        <time>2021-09-12T08:24:35Z</time>
      </trkpt>
      <trkpt lat="48.37999" lon="-3.75088">
        <ele>219.19999694824</ele>
        <time>2021-09-12T08:24:36Z</time>
      </trkpt>
      <trkpt lat="48.38001" lon="-3.75092">
        <ele>219.39999389648</ele>
        <time>2021-09-12T08:24:37Z</time>
      </trkpt>
      <trkpt lat="48.38003" lon="-3.75096">
        <ele>219.39999389648</ele>
        <time>2021-09-12T08:24:38Z</time>
      </trkpt>
      <trkpt lat="48.38005" lon="-3.751">
        <ele>220</ele>
        <time>2021-09-12T08:24:39Z</time>
      </trkpt>
      <trkpt lat="48.38007" lon="-3.75103">
        <ele>220.19999694824</ele>
        <time>2021-09-12T08:24:40Z</time>
      </trkpt>
      <trkpt lat="48.38009" lon="-3.75106">
        <ele>220.19999694824</ele>
        <time>2021-09-12T08:24:41Z</time>
      </trkpt>
      <trkpt lat="48.38012" lon="-3.75109">
        <ele>220.60000610352</ele>
        <time>2021-09-12T08:24:42Z</time>
      </trkpt>
      <trkpt lat="48.38015" lon="-3.75114">
        <ele>220.60000610352</ele>
        <time>2021-09-12T08:24:43Z</time>
      </trkpt>
      <trkpt lat="48.38017" lon="-3.75118">
        <ele>220.60000610352</ele>
        <time>2021-09-12T08:24:44Z</time>
      </trkpt>
      <trkpt lat="48.38018" lon="-3.75122">
        <ele>220.80000305176</ele>
        <time>2021-09-12T08:24:45Z</time>
      </trkpt>
      <trkpt lat="48.38019" lon="-3.75126">
        <ele>220.80000305176</ele>
        <time>2021-09-12T08:24:46Z</time>
      </trkpt>
      <trkpt lat="48.3802" lon="-3.75131">
        <ele>220.80000305176</ele>
        <time>2021-09-12T08:24:47Z</time>
      </trkpt>
      <trkpt lat="48.38021" lon="-3.75136">
        <ele>220.80000305176</ele>
        <time>2021-09-12T08:24:48Z</time>
      </trkpt>
      <trkpt lat="48.38023" lon="-3.7514">
        <ele>220.80000305176</ele>
        <time>2021-09-12T08:24:49Z</time>
      </trkpt>
      <trkpt lat="48.38024" lon="-3.75144">
        <ele>220.80000305176</ele>
        <time>2021-09-12T08:24:50Z</time>
      </trkpt>
      <trkpt lat="48.38026" lon="-3.75149">
        <ele>220.80000305176</ele>
        <time>2021-09-12T08:24:51Z</time>
      </trkpt>
      <trkpt lat="48.38027" lon="-3.75155">
        <ele>220.39999389648</ele>
        <time>2021-09-12T08:24:52Z</time>
      </trkpt>
      <trkpt lat="48.38029" lon="-3.75162">
        <ele>220.19999694824</ele>
        <time>2021-09-12T08:24:53Z</time>
      </trkpt>
      <trkpt lat="48.3803" lon="-3.7517">
        <ele>219.60000610352</ele>
        <time>2021-09-12T08:24:54Z</time>
      </trkpt>
      <trkpt lat="48.38033" lon="-3.7518">
        <ele>218.60000610352</ele>
        <time>2021-09-12T08:24:55Z</time>
      </trkpt>
      <trkpt lat="48.38036" lon="-3.75191">
        <ele>217.80000305176</ele>
        <time>2021-09-12T08:24:56Z</time>
      </trkpt>
      <trkpt lat="48.38039" lon="-3.75201">
        <ele>217.39999389648</ele>
        <time>2021-09-12T08:24:57Z</time>
      </trkpt>
      <trkpt lat="48.38042" lon="-3.75212">
        <ele>216.60000610352</ele>
        <time>2021-09-12T08:24:58Z</time>
      </trkpt>
      <trkpt lat="48.38044" lon="-3.75225">
        <ele>216</ele>
        <time>2021-09-12T08:24:59Z</time>
      </trkpt>
      <trkpt lat="48.38045" lon="-3.75236">
        <ele>215.60000610352</ele>
        <time>2021-09-12T08:25:00Z</time>
      </trkpt>
      <trkpt lat="48.38046" lon="-3.7525">
        <ele>215.19999694824</ele>
        <time>2021-09-12T08:25:01Z</time>
      </trkpt>
      <trkpt lat="48.38045" lon="-3.75264">
        <ele>213.60000610352</ele>
        <time>2021-09-12T08:25:02Z</time>
      </trkpt>
      <trkpt lat="48.38045" lon="-3.75279">
        <ele>213.19999694824</ele>
        <time>2021-09-12T08:25:03Z</time>
      </trkpt>
      <trkpt lat="48.38046" lon="-3.75292">
        <ele>213.19999694824</ele>
        <time>2021-09-12T08:25:04Z</time>
      </trkpt>
      <trkpt lat="48.38049" lon="-3.75304">
        <ele>212.60000610352</ele>
        <time>2021-09-12T08:25:05Z</time>
      </trkpt>
      <trkpt lat="48.38052" lon="-3.75315">
        <ele>212.19999694824</ele>
        <time>2021-09-12T08:25:06Z</time>
      </trkpt>
      <trkpt lat="48.38057" lon="-3.75325">
        <ele>212</ele>
        <time>2021-09-12T08:25:07Z</time>
      </trkpt>
      <trkpt lat="48.38064" lon="-3.75334">
        <ele>211.19999694824</ele>
        <time>2021-09-12T08:25:08Z</time>
      </trkpt>
      <trkpt lat="48.3807" lon="-3.75343">
        <ele>210.39999389648</ele>
        <time>2021-09-12T08:25:09Z</time>
      </trkpt>
      <trkpt lat="48.38076" lon="-3.75352">
        <ele>210.19999694824</ele>
        <time>2021-09-12T08:25:10Z</time>
      </trkpt>
      <trkpt lat="48.38082" lon="-3.75361">
        <ele>210.19999694824</ele>
        <time>2021-09-12T08:25:11Z</time>
      </trkpt>
      <trkpt lat="48.38088" lon="-3.75368">
        <ele>210</ele>
        <time>2021-09-12T08:25:12Z</time>
      </trkpt>
      <trkpt lat="48.38093" lon="-3.75375">
        <ele>209.80000305176</ele>
        <time>2021-09-12T08:25:13Z</time>
      </trkpt>
      <trkpt lat="48.38097" lon="-3.75382">
        <ele>209.80000305176</ele>
        <time>2021-09-12T08:25:14Z</time>
      </trkpt>
      <trkpt lat="48.381" lon="-3.7539">
        <ele>209.80000305176</ele>
        <time>2021-09-12T08:25:15Z</time>
      </trkpt>
      <trkpt lat="48.381" lon="-3.75398">
        <ele>209.80000305176</ele>
        <time>2021-09-12T08:25:16Z</time>
      </trkpt>
      <trkpt lat="48.381" lon="-3.75404">
        <ele>209.80000305176</ele>
        <time>2021-09-12T08:25:17Z</time>
      </trkpt>
      <trkpt lat="48.381" lon="-3.75412">
        <ele>210</ele>
        <time>2021-09-12T08:25:18Z</time>
      </trkpt>
      <trkpt lat="48.38099" lon="-3.7542">
        <ele>209.80000305176</ele>
        <time>2021-09-12T08:25:19Z</time>
      </trkpt>
      <trkpt lat="48.38099" lon="-3.75425">
        <ele>210</ele>
        <time>2021-09-12T08:25:20Z</time>
      </trkpt>
      <trkpt lat="48.38098" lon="-3.7543">
        <ele>210</ele>
        <time>2021-09-12T08:25:21Z</time>
      </trkpt>
      <trkpt lat="48.38097" lon="-3.75436">
        <ele>210</ele>
        <time>2021-09-12T08:25:22Z</time>
      </trkpt>
      <trkpt lat="48.38097" lon="-3.75442">
        <ele>210.19999694824</ele>
        <time>2021-09-12T08:25:23Z</time>
      </trkpt>
      <trkpt lat="48.38096" lon="-3.75448">
        <ele>210.19999694824</ele>
        <time>2021-09-12T08:25:24Z</time>
      </trkpt>
      <trkpt lat="48.38096" lon="-3.75452">
        <ele>210.19999694824</ele>
        <time>2021-09-12T08:25:25Z</time>
      </trkpt>
      <trkpt lat="48.38095" lon="-3.75457">
        <ele>210.39999389648</ele>
        <time>2021-09-12T08:25:26Z</time>
      </trkpt>
      <trkpt lat="48.38096" lon="-3.75465">
        <ele>210.39999389648</ele>
        <time>2021-09-12T08:25:27Z</time>
      </trkpt>
      <trkpt lat="48.38096" lon="-3.75471">
        <ele>210.39999389648</ele>
        <time>2021-09-12T08:25:28Z</time>
      </trkpt>
      <trkpt lat="48.38099" lon="-3.75478">
        <ele>210.60000610352</ele>
        <time>2021-09-12T08:25:29Z</time>
      </trkpt>
      <trkpt lat="48.38101" lon="-3.75482">
        <ele>210.80000305176</ele>
        <time>2021-09-12T08:25:30Z</time>
      </trkpt>
      <trkpt lat="48.38104" lon="-3.75488">
        <ele>210.80000305176</ele>
        <time>2021-09-12T08:25:31Z</time>
      </trkpt>
      <trkpt lat="48.38107" lon="-3.75494">
        <ele>211</ele>
        <time>2021-09-12T08:25:32Z</time>
      </trkpt>
      <trkpt lat="48.3811" lon="-3.755">
        <ele>211.19999694824</ele>
        <time>2021-09-12T08:25:33Z</time>
      </trkpt>
      <trkpt lat="48.38112" lon="-3.75506">
        <ele>211.19999694824</ele>
        <time>2021-09-12T08:25:34Z</time>
      </trkpt>
      <trkpt lat="48.38115" lon="-3.75512">
        <ele>211.39999389648</ele>
        <time>2021-09-12T08:25:35Z</time>
      </trkpt>
      <trkpt lat="48.38117" lon="-3.75519">
        <ele>211.60000610352</ele>
        <time>2021-09-12T08:25:36Z</time>
      </trkpt>
      <trkpt lat="48.38119" lon="-3.75525">
        <ele>211.80000305176</ele>
        <time>2021-09-12T08:25:37Z</time>
      </trkpt>
      <trkpt lat="48.38121" lon="-3.75531">
        <ele>212</ele>
        <time>2021-09-12T08:25:38Z</time>
      </trkpt>
      <trkpt lat="48.38123" lon="-3.75536">
        <ele>212.19999694824</ele>
        <time>2021-09-12T08:25:39Z</time>
      </trkpt>
      <trkpt lat="48.38125" lon="-3.75542">
        <ele>212.39999389648</ele>
        <time>2021-09-12T08:25:40Z</time>
      </trkpt>
      <trkpt lat="48.38127" lon="-3.75548">
        <ele>212.39999389648</ele>
        <time>2021-09-12T08:25:41Z</time>
      </trkpt>
      <trkpt lat="48.38129" lon="-3.75553">
        <ele>212.60000610352</ele>
        <time>2021-09-12T08:25:42Z</time>
      </trkpt>
      <trkpt lat="48.3813" lon="-3.75558">
        <ele>212.60000610352</ele>
        <time>2021-09-12T08:25:43Z</time>
      </trkpt>
      <trkpt lat="48.38132" lon="-3.75563">
        <ele>212.80000305176</ele>
        <time>2021-09-12T08:25:44Z</time>
      </trkpt>
      <trkpt lat="48.38134" lon="-3.75568">
        <ele>213</ele>
        <time>2021-09-12T08:25:45Z</time>
      </trkpt>
      <trkpt lat="48.38135" lon="-3.75575">
        <ele>213.19999694824</ele>
        <time>2021-09-12T08:25:46Z</time>
      </trkpt>
      <trkpt lat="48.38138" lon="-3.75583">
        <ele>213.19999694824</ele>
        <time>2021-09-12T08:25:47Z</time>
      </trkpt>
      <trkpt lat="48.38142" lon="-3.75589">
        <ele>213.19999694824</ele>
        <time>2021-09-12T08:25:48Z</time>
      </trkpt>
      <trkpt lat="48.38143" lon="-3.75595">
        <ele>213.39999389648</ele>
        <time>2021-09-12T08:25:49Z</time>
      </trkpt>
      <trkpt lat="48.38144" lon="-3.75599">
        <ele>213.39999389648</ele>
        <time>2021-09-12T08:25:50Z</time>
      </trkpt>
      <trkpt lat="48.38145" lon="-3.75603">
        <ele>213.60000610352</ele>
        <time>2021-09-12T08:25:51Z</time>
      </trkpt>
      <trkpt lat="48.38147" lon="-3.75607">
        <ele>213.80000305176</ele>
        <time>2021-09-12T08:25:52Z</time>
      </trkpt>
      <trkpt lat="48.38148" lon="-3.75612">
        <ele>214.19999694824</ele>
        <time>2021-09-12T08:25:53Z</time>
      </trkpt>
      <trkpt lat="48.3815" lon="-3.75616">
        <ele>214.60000610352</ele>
        <time>2021-09-12T08:25:54Z</time>
      </trkpt>
      <trkpt lat="48.38152" lon="-3.75619">
        <ele>215</ele>
        <time>2021-09-12T08:25:55Z</time>
      </trkpt>
      <trkpt lat="48.38154" lon="-3.75624">
        <ele>215.39999389648</ele>
        <time>2021-09-12T08:25:56Z</time>
      </trkpt>
      <trkpt lat="48.38156" lon="-3.75629">
        <ele>215.39999389648</ele>
        <time>2021-09-12T08:25:57Z</time>
      </trkpt>
      <trkpt lat="48.38159" lon="-3.75635">
        <ele>215.60000610352</ele>
        <time>2021-09-12T08:25:58Z</time>
      </trkpt>
      <trkpt lat="48.38161" lon="-3.75641">
        <ele>215.80000305176</ele>
        <time>2021-09-12T08:25:59Z</time>
      </trkpt>
      <trkpt lat="48.38163" lon="-3.75647">
        <ele>215.80000305176</ele>
        <time>2021-09-12T08:26:00Z</time>
      </trkpt>
      <trkpt lat="48.38163" lon="-3.7565">
        <ele>216</ele>
        <time>2021-09-12T08:26:01Z</time>
      </trkpt>
      <trkpt lat="48.38163" lon="-3.75654">
        <ele>216.39999389648</ele>
        <time>2021-09-12T08:26:02Z</time>
      </trkpt>
      <trkpt lat="48.38165" lon="-3.75659">
        <ele>216.60000610352</ele>
        <time>2021-09-12T08:26:03Z</time>
      </trkpt>
      <trkpt lat="48.38166" lon="-3.75663">
        <ele>216.60000610352</ele>
        <time>2021-09-12T08:26:04Z</time>
      </trkpt>
      <trkpt lat="48.38168" lon="-3.75667">
        <ele>216.60000610352</ele>
        <time>2021-09-12T08:26:05Z</time>
      </trkpt>
      <trkpt lat="48.38169" lon="-3.75671">
        <ele>217</ele>
        <time>2021-09-12T08:26:06Z</time>
      </trkpt>
      <trkpt lat="48.38171" lon="-3.75675">
        <ele>217.19999694824</ele>
        <time>2021-09-12T08:26:07Z</time>
      </trkpt>
      <trkpt lat="48.38173" lon="-3.75679">
        <ele>217.19999694824</ele>
        <time>2021-09-12T08:26:08Z</time>
      </trkpt>
      <trkpt lat="48.38174" lon="-3.75684">
        <ele>217.60000610352</ele>
        <time>2021-09-12T08:26:09Z</time>
      </trkpt>
      <trkpt lat="48.38175" lon="-3.75688">
        <ele>217.60000610352</ele>
        <time>2021-09-12T08:26:10Z</time>
      </trkpt>
      <trkpt lat="48.38176" lon="-3.75692">
        <ele>217.80000305176</ele>
        <time>2021-09-12T08:26:11Z</time>
      </trkpt>
      <trkpt lat="48.38177" lon="-3.75696">
        <ele>217.80000305176</ele>
        <time>2021-09-12T08:26:12Z</time>
      </trkpt>
      <trkpt lat="48.38178" lon="-3.757">
        <ele>218</ele>
        <time>2021-09-12T08:26:13Z</time>
      </trkpt>
      <trkpt lat="48.38179" lon="-3.75703">
        <ele>218</ele>
        <time>2021-09-12T08:26:14Z</time>
      </trkpt>
      <trkpt lat="48.3818" lon="-3.75706">
        <ele>218.19999694824</ele>
        <time>2021-09-12T08:26:15Z</time>
      </trkpt>
      <trkpt lat="48.3818" lon="-3.75708">
        <ele>218.19999694824</ele>
        <time>2021-09-12T08:26:16Z</time>
      </trkpt>
      <trkpt lat="48.38181" lon="-3.75711">
        <ele>218.60000610352</ele>
        <time>2021-09-12T08:26:17Z</time>
      </trkpt>
      <trkpt lat="48.38182" lon="-3.75713">
        <ele>218.80000305176</ele>
        <time>2021-09-12T08:26:18Z</time>
      </trkpt>
      <trkpt lat="48.38182" lon="-3.75715">
        <ele>219.19999694824</ele>
        <time>2021-09-12T08:26:19Z</time>
      </trkpt>
      <trkpt lat="48.38183" lon="-3.75719">
        <ele>219.19999694824</ele>
        <time>2021-09-12T08:26:20Z</time>
      </trkpt>
      <trkpt lat="48.38183" lon="-3.75722">
        <ele>219.60000610352</ele>
        <time>2021-09-12T08:26:21Z</time>
      </trkpt>
      <trkpt lat="48.38183" lon="-3.75724">
        <ele>219.60000610352</ele>
        <time>2021-09-12T08:26:22Z</time>
      </trkpt>
      <trkpt lat="48.38183" lon="-3.75727">
        <ele>220.19999694824</ele>
        <time>2021-09-12T08:26:23Z</time>
      </trkpt>
      <trkpt lat="48.38184" lon="-3.7573">
        <ele>220.60000610352</ele>
        <time>2021-09-12T08:26:24Z</time>
      </trkpt>
      <trkpt lat="48.38184" lon="-3.75733">
        <ele>220.80000305176</ele>
        <time>2021-09-12T08:26:25Z</time>
      </trkpt>
      <trkpt lat="48.38184" lon="-3.75736">
        <ele>221</ele>
        <time>2021-09-12T08:26:26Z</time>
      </trkpt>
      <trkpt lat="48.38184" lon="-3.75739">
        <ele>221.60000610352</ele>
        <time>2021-09-12T08:26:27Z</time>
      </trkpt>
      <trkpt lat="48.38184" lon="-3.75742">
        <ele>221.80000305176</ele>
        <time>2021-09-12T08:26:28Z</time>
      </trkpt>
      <trkpt lat="48.38184" lon="-3.75745">
        <ele>222.39999389648</ele>
        <time>2021-09-12T08:26:29Z</time>
      </trkpt>
      <trkpt lat="48.38184" lon="-3.75749">
        <ele>222.39999389648</ele>
        <time>2021-09-12T08:26:30Z</time>
      </trkpt>
      <trkpt lat="48.38185" lon="-3.75752">
        <ele>222.60000610352</ele>
        <time>2021-09-12T08:26:31Z</time>
      </trkpt>
      <trkpt lat="48.38185" lon="-3.75755">
        <ele>222.80000305176</ele>
        <time>2021-09-12T08:26:32Z</time>
      </trkpt>
      <trkpt lat="48.38184" lon="-3.75757">
        <ele>223</ele>
        <time>2021-09-12T08:26:33Z</time>
      </trkpt>
      <trkpt lat="48.38184" lon="-3.75759">
        <ele>223.19999694824</ele>
        <time>2021-09-12T08:26:34Z</time>
      </trkpt>
      <trkpt lat="48.38184" lon="-3.75762">
        <ele>223.80000305176</ele>
        <time>2021-09-12T08:26:35Z</time>
      </trkpt>
      <trkpt lat="48.38184" lon="-3.75765">
        <ele>223.80000305176</ele>
        <time>2021-09-12T08:26:36Z</time>
      </trkpt>
      <trkpt lat="48.38185" lon="-3.75768">
        <ele>224.19999694824</ele>
        <time>2021-09-12T08:26:37Z</time>
      </trkpt>
      <trkpt lat="48.38185" lon="-3.75771">
        <ele>224.19999694824</ele>
        <time>2021-09-12T08:26:38Z</time>
      </trkpt>
      <trkpt lat="48.38185" lon="-3.75773">
        <ele>224.60000610352</ele>
        <time>2021-09-12T08:26:39Z</time>
      </trkpt>
      <trkpt lat="48.38185" lon="-3.75777">
        <ele>224.80000305176</ele>
        <time>2021-09-12T08:26:40Z</time>
      </trkpt>
      <trkpt lat="48.38185" lon="-3.7578">
        <ele>225.39999389648</ele>
        <time>2021-09-12T08:26:41Z</time>
      </trkpt>
      <trkpt lat="48.38184" lon="-3.75783">
        <ele>225.60000610352</ele>
        <time>2021-09-12T08:26:42Z</time>
      </trkpt>
      <trkpt lat="48.38184" lon="-3.75786">
        <ele>226</ele>
        <time>2021-09-12T08:26:43Z</time>
      </trkpt>
      <trkpt lat="48.38185" lon="-3.7579">
        <ele>226</ele>
        <time>2021-09-12T08:26:44Z</time>
      </trkpt>
      <trkpt lat="48.38185" lon="-3.75793">
        <ele>226.39999389648</ele>
        <time>2021-09-12T08:26:45Z</time>
      </trkpt>
      <trkpt lat="48.38185" lon="-3.75796">
        <ele>226.39999389648</ele>
        <time>2021-09-12T08:26:46Z</time>
      </trkpt>
      <trkpt lat="48.38185" lon="-3.75799">
        <ele>226.80000305176</ele>
        <time>2021-09-12T08:26:47Z</time>
      </trkpt>
      <trkpt lat="48.38185" lon="-3.75802">
        <ele>226.80000305176</ele>
        <time>2021-09-12T08:26:48Z</time>
      </trkpt>
      <trkpt lat="48.38185" lon="-3.75807">
        <ele>227</ele>
        <time>2021-09-12T08:26:49Z</time>
      </trkpt>
      <trkpt lat="48.38185" lon="-3.75811">
        <ele>227.39999389648</ele>
        <time>2021-09-12T08:26:50Z</time>
      </trkpt>
      <trkpt lat="48.38185" lon="-3.75815">
        <ele>227.39999389648</ele>
        <time>2021-09-12T08:26:51Z</time>
      </trkpt>
      <trkpt lat="48.38185" lon="-3.75818">
        <ele>227.60000610352</ele>
        <time>2021-09-12T08:26:52Z</time>
      </trkpt>
      <trkpt lat="48.38185" lon="-3.75822">
        <ele>227.80000305176</ele>
        <time>2021-09-12T08:26:53Z</time>
      </trkpt>
      <trkpt lat="48.38186" lon="-3.75825">
        <ele>228</ele>
        <time>2021-09-12T08:26:54Z</time>
      </trkpt>
      <trkpt lat="48.38185" lon="-3.75829">
        <ele>228.19999694824</ele>
        <time>2021-09-12T08:26:55Z</time>
      </trkpt>
      <trkpt lat="48.38184" lon="-3.75834">
        <ele>228.39999389648</ele>
        <time>2021-09-12T08:26:56Z</time>
      </trkpt>
      <trkpt lat="48.38184" lon="-3.75838">
        <ele>228.39999389648</ele>
        <time>2021-09-12T08:26:57Z</time>
      </trkpt>
      <trkpt lat="48.38185" lon="-3.75842">
        <ele>228.80000305176</ele>
        <time>2021-09-12T08:26:58Z</time>
      </trkpt>
      <trkpt lat="48.38185" lon="-3.75846">
        <ele>229</ele>
        <time>2021-09-12T08:26:59Z</time>
      </trkpt>
      <trkpt lat="48.38185" lon="-3.7585">
        <ele>229</ele>
        <time>2021-09-12T08:27:00Z</time>
      </trkpt>
      <trkpt lat="48.38184" lon="-3.75854">
        <ele>229.19999694824</ele>
        <time>2021-09-12T08:27:01Z</time>
      </trkpt>
      <trkpt lat="48.38185" lon="-3.75858">
        <ele>229.19999694824</ele>
        <time>2021-09-12T08:27:02Z</time>
      </trkpt>
      <trkpt lat="48.38185" lon="-3.75861">
        <ele>229.39999389648</ele>
        <time>2021-09-12T08:27:03Z</time>
      </trkpt>
      <trkpt lat="48.38185" lon="-3.75865">
        <ele>229.60000610352</ele>
        <time>2021-09-12T08:27:04Z</time>
      </trkpt>
      <trkpt lat="48.38186" lon="-3.75868">
        <ele>229.60000610352</ele>
        <time>2021-09-12T08:27:05Z</time>
      </trkpt>
      <trkpt lat="48.38186" lon="-3.75872">
        <ele>229.80000305176</ele>
        <time>2021-09-12T08:27:06Z</time>
      </trkpt>
      <trkpt lat="48.38187" lon="-3.75876">
        <ele>230.19999694824</ele>
        <time>2021-09-12T08:27:07Z</time>
      </trkpt>
      <trkpt lat="48.38187" lon="-3.7588">
        <ele>230.19999694824</ele>
        <time>2021-09-12T08:27:08Z</time>
      </trkpt>
      <trkpt lat="48.38188" lon="-3.75884">
        <ele>230.39999389648</ele>
        <time>2021-09-12T08:27:09Z</time>
      </trkpt>
      <trkpt lat="48.38188" lon="-3.75888">
        <ele>230.39999389648</ele>
        <time>2021-09-12T08:27:10Z</time>
      </trkpt>
      <trkpt lat="48.38188" lon="-3.75892">
        <ele>230.60000610352</ele>
        <time>2021-09-12T08:27:11Z</time>
      </trkpt>
      <trkpt lat="48.38188" lon="-3.75896">
        <ele>230.80000305176</ele>
        <time>2021-09-12T08:27:12Z</time>
      </trkpt>
      <trkpt lat="48.38188" lon="-3.75899">
        <ele>230.80000305176</ele>
        <time>2021-09-12T08:27:13Z</time>
      </trkpt>
      <trkpt lat="48.38187" lon="-3.75903">
        <ele>230.80000305176</ele>
        <time>2021-09-12T08:27:14Z</time>
      </trkpt>
      <trkpt lat="48.38186" lon="-3.75906">
        <ele>230.80000305176</ele>
        <time>2021-09-12T08:27:15Z</time>
      </trkpt>
      <trkpt lat="48.38185" lon="-3.75909">
        <ele>230.80000305176</ele>
        <time>2021-09-12T08:27:16Z</time>
      </trkpt>
      <trkpt lat="48.38183" lon="-3.75912">
        <ele>230.80000305176</ele>
        <time>2021-09-12T08:27:17Z</time>
      </trkpt>
      <trkpt lat="48.38181" lon="-3.75915">
        <ele>230.80000305176</ele>
        <time>2021-09-12T08:27:18Z</time>
      </trkpt>
      <trkpt lat="48.38179" lon="-3.75918">
        <ele>230.60000610352</ele>
        <time>2021-09-12T08:27:19Z</time>
      </trkpt>
      <trkpt lat="48.38177" lon="-3.7592">
        <ele>230.60000610352</ele>
        <time>2021-09-12T08:27:20Z</time>
      </trkpt>
      <trkpt lat="48.38174" lon="-3.75922">
        <ele>230.60000610352</ele>
        <time>2021-09-12T08:27:21Z</time>
      </trkpt>
      <trkpt lat="48.38171" lon="-3.75925">
        <ele>230.39999389648</ele>
        <time>2021-09-12T08:27:22Z</time>
      </trkpt>
      <trkpt lat="48.38167" lon="-3.75928">
        <ele>230.19999694824</ele>
        <time>2021-09-12T08:27:23Z</time>
      </trkpt>
      <trkpt lat="48.38164" lon="-3.75932">
        <ele>230.19999694824</ele>
        <time>2021-09-12T08:27:24Z</time>
      </trkpt>
      <trkpt lat="48.38161" lon="-3.75935">
        <ele>230.19999694824</ele>
        <time>2021-09-12T08:27:25Z</time>
      </trkpt>
      <trkpt lat="48.38157" lon="-3.75936">
        <ele>230.19999694824</ele>
        <time>2021-09-12T08:27:26Z</time>
      </trkpt>
      <trkpt lat="48.38154" lon="-3.75937">
        <ele>230.19999694824</ele>
        <time>2021-09-12T08:27:27Z</time>
      </trkpt>
      <trkpt lat="48.38151" lon="-3.75936">
        <ele>230.19999694824</ele>
        <time>2021-09-12T08:27:28Z</time>
      </trkpt>
      <trkpt lat="48.38148" lon="-3.75934">
        <ele>230.19999694824</ele>
        <time>2021-09-12T08:27:29Z</time>
      </trkpt>
      <trkpt lat="48.38143" lon="-3.75933">
        <ele>230.19999694824</ele>
        <time>2021-09-12T08:27:30Z</time>
      </trkpt>
      <trkpt lat="48.38138" lon="-3.75932">
        <ele>230</ele>
        <time>2021-09-12T08:27:31Z</time>
      </trkpt>
      <trkpt lat="48.38133" lon="-3.75929">
        <ele>229.60000610352</ele>
        <time>2021-09-12T08:27:32Z</time>
      </trkpt>
      <trkpt lat="48.38128" lon="-3.75926">
        <ele>229.39999389648</ele>
        <time>2021-09-12T08:27:33Z</time>
      </trkpt>
      <trkpt lat="48.38123" lon="-3.75925">
        <ele>228.60000610352</ele>
        <time>2021-09-12T08:27:34Z</time>
      </trkpt>
      <trkpt lat="48.38119" lon="-3.75922">
        <ele>228.60000610352</ele>
        <time>2021-09-12T08:27:35Z</time>
      </trkpt>
      <trkpt lat="48.38116" lon="-3.75919">
        <ele>228</ele>
        <time>2021-09-12T08:27:36Z</time>
      </trkpt>
      <trkpt lat="48.38111" lon="-3.75915">
        <ele>227.60000610352</ele>
        <time>2021-09-12T08:27:37Z</time>
      </trkpt>
      <trkpt lat="48.38104" lon="-3.75909">
        <ele>226.80000305176</ele>
        <time>2021-09-12T08:27:38Z</time>
      </trkpt>
      <trkpt lat="48.38097" lon="-3.75904">
        <ele>226.60000610352</ele>
        <time>2021-09-12T08:27:39Z</time>
      </trkpt>
      <trkpt lat="48.38091" lon="-3.759">
        <ele>225.80000305176</ele>
        <time>2021-09-12T08:27:40Z</time>
      </trkpt>
      <trkpt lat="48.38085" lon="-3.75895">
        <ele>225.80000305176</ele>
        <time>2021-09-12T08:27:41Z</time>
      </trkpt>
      <trkpt lat="48.38078" lon="-3.75889">
        <ele>225.19999694824</ele>
        <time>2021-09-12T08:27:42Z</time>
      </trkpt>
      <trkpt lat="48.38072" lon="-3.75882">
        <ele>224.60000610352</ele>
        <time>2021-09-12T08:27:43Z</time>
      </trkpt>
      <trkpt lat="48.38066" lon="-3.75875">
        <ele>224.60000610352</ele>
        <time>2021-09-12T08:27:44Z</time>
      </trkpt>
      <trkpt lat="48.38059" lon="-3.75868">
        <ele>223.19999694824</ele>
        <time>2021-09-12T08:27:45Z</time>
      </trkpt>
      <trkpt lat="48.38052" lon="-3.75859">
        <ele>222.60000610352</ele>
        <time>2021-09-12T08:27:46Z</time>
      </trkpt>
      <trkpt lat="48.38045" lon="-3.7585">
        <ele>221.80000305176</ele>
        <time>2021-09-12T08:27:47Z</time>
      </trkpt>
      <trkpt lat="48.38038" lon="-3.7584">
        <ele>220.60000610352</ele>
        <time>2021-09-12T08:27:48Z</time>
      </trkpt>
      <trkpt lat="48.38029" lon="-3.7583">
        <ele>220</ele>
        <time>2021-09-12T08:27:49Z</time>
      </trkpt>
      <trkpt lat="48.38022" lon="-3.7582">
        <ele>219.39999389648</ele>
        <time>2021-09-12T08:27:50Z</time>
      </trkpt>
      <trkpt lat="48.38015" lon="-3.75811">
        <ele>218</ele>
        <time>2021-09-12T08:27:51Z</time>
      </trkpt>
      <trkpt lat="48.38008" lon="-3.75802">
        <ele>218</ele>
        <time>2021-09-12T08:27:52Z</time>
      </trkpt>
      <trkpt lat="48.38001" lon="-3.75792">
        <ele>217.80000305176</ele>
        <time>2021-09-12T08:27:53Z</time>
      </trkpt>
      <trkpt lat="48.37994" lon="-3.75783">
        <ele>217.60000610352</ele>
        <time>2021-09-12T08:27:54Z</time>
      </trkpt>
      <trkpt lat="48.37988" lon="-3.75775">
        <ele>217.39999389648</ele>
        <time>2021-09-12T08:27:55Z</time>
      </trkpt>
      <trkpt lat="48.37982" lon="-3.75767">
        <ele>217.39999389648</ele>
        <time>2021-09-12T08:27:56Z</time>
      </trkpt>
      <trkpt lat="48.37976" lon="-3.7576">
        <ele>217.19999694824</ele>
        <time>2021-09-12T08:27:57Z</time>
      </trkpt>
      <trkpt lat="48.3797" lon="-3.75752">
        <ele>217</ele>
        <time>2021-09-12T08:27:58Z</time>
      </trkpt>
      <trkpt lat="48.37965" lon="-3.75746">
        <ele>216.80000305176</ele>
        <time>2021-09-12T08:27:59Z</time>
      </trkpt>
      <trkpt lat="48.3796" lon="-3.75741">
        <ele>216.60000610352</ele>
        <time>2021-09-12T08:28:00Z</time>
      </trkpt>
      <trkpt lat="48.37955" lon="-3.75736">
        <ele>216.19999694824</ele>
        <time>2021-09-12T08:28:01Z</time>
      </trkpt>
      <trkpt lat="48.3795" lon="-3.75731">
        <ele>216.19999694824</ele>
        <time>2021-09-12T08:28:02Z</time>
      </trkpt>
      <trkpt lat="48.37947" lon="-3.75728">
        <ele>216</ele>
        <time>2021-09-12T08:28:03Z</time>
      </trkpt>
      <trkpt lat="48.37945" lon="-3.75727">
        <ele>216</ele>
        <time>2021-09-12T08:28:04Z</time>
      </trkpt>
      <trkpt lat="48.37944" lon="-3.75729">
        <ele>216</ele>
        <time>2021-09-12T08:28:05Z</time>
      </trkpt>
      <trkpt lat="48.37943" lon="-3.75731">
        <ele>216</ele>
        <time>2021-09-12T08:28:06Z</time>
      </trkpt>
      <trkpt lat="48.37943" lon="-3.75735">
        <ele>215.80000305176</ele>
        <time>2021-09-12T08:28:07Z</time>
      </trkpt>
      <trkpt lat="48.37943" lon="-3.75739">
        <ele>214.80000305176</ele>
        <time>2021-09-12T08:28:08Z</time>
      </trkpt>
      <trkpt lat="48.37942" lon="-3.75743">
        <ele>214.39999389648</ele>
        <time>2021-09-12T08:28:09Z</time>
      </trkpt>
      <trkpt lat="48.3794" lon="-3.75748">
        <ele>213.60000610352</ele>
        <time>2021-09-12T08:28:10Z</time>
      </trkpt>
      <trkpt lat="48.37939" lon="-3.75752">
        <ele>213.60000610352</ele>
        <time>2021-09-12T08:28:11Z</time>
      </trkpt>
      <trkpt lat="48.37937" lon="-3.75755">
        <ele>213.39999389648</ele>
        <time>2021-09-12T08:28:12Z</time>
      </trkpt>
      <trkpt lat="48.37937" lon="-3.75758">
        <ele>213</ele>
        <time>2021-09-12T08:28:13Z</time>
      </trkpt>
      <trkpt lat="48.37937" lon="-3.75765">
        <ele>213</ele>
        <time>2021-09-12T08:28:14Z</time>
      </trkpt>
      <trkpt lat="48.37938" lon="-3.75774">
        <ele>212.80000305176</ele>
        <time>2021-09-12T08:28:15Z</time>
      </trkpt>
      <trkpt lat="48.37937" lon="-3.75783">
        <ele>211.60000610352</ele>
        <time>2021-09-12T08:28:16Z</time>
      </trkpt>
      <trkpt lat="48.37938" lon="-3.75791">
        <ele>211</ele>
        <time>2021-09-12T08:28:17Z</time>
      </trkpt>
      <trkpt lat="48.37937" lon="-3.75798">
        <ele>210.80000305176</ele>
        <time>2021-09-12T08:28:18Z</time>
      </trkpt>
      <trkpt lat="48.37937" lon="-3.75807">
        <ele>210.60000610352</ele>
        <time>2021-09-12T08:28:19Z</time>
      </trkpt>
      <trkpt lat="48.37937" lon="-3.75818">
        <ele>210</ele>
        <time>2021-09-12T08:28:20Z</time>
      </trkpt>
      <trkpt lat="48.37938" lon="-3.75829">
        <ele>209.39999389648</ele>
        <time>2021-09-12T08:28:21Z</time>
      </trkpt>
      <trkpt lat="48.3794" lon="-3.75837">
        <ele>209.39999389648</ele>
        <time>2021-09-12T08:28:22Z</time>
      </trkpt>
      <trkpt lat="48.37941" lon="-3.75845">
        <ele>209.19999694824</ele>
        <time>2021-09-12T08:28:23Z</time>
      </trkpt>
      <trkpt lat="48.37942" lon="-3.75853">
        <ele>208.80000305176</ele>
        <time>2021-09-12T08:28:24Z</time>
      </trkpt>
      <trkpt lat="48.37943" lon="-3.7586">
        <ele>208.39999389648</ele>
        <time>2021-09-12T08:28:25Z</time>
      </trkpt>
      <trkpt lat="48.37943" lon="-3.75866">
        <ele>208.19999694824</ele>
        <time>2021-09-12T08:28:26Z</time>
      </trkpt>
      <trkpt lat="48.37943" lon="-3.75872">
        <ele>208</ele>
        <time>2021-09-12T08:28:27Z</time>
      </trkpt>
      <trkpt lat="48.37942" lon="-3.75877">
        <ele>207.80000305176</ele>
        <time>2021-09-12T08:28:28Z</time>
      </trkpt>
      <trkpt lat="48.37941" lon="-3.75883">
        <ele>207.60000610352</ele>
        <time>2021-09-12T08:28:29Z</time>
      </trkpt>
      <trkpt lat="48.3794" lon="-3.7589">
        <ele>207.19999694824</ele>
        <time>2021-09-12T08:28:30Z</time>
      </trkpt>
      <trkpt lat="48.37939" lon="-3.75895">
        <ele>206.60000610352</ele>
        <time>2021-09-12T08:28:31Z</time>
      </trkpt>
      <trkpt lat="48.37939" lon="-3.759">
        <ele>206.60000610352</ele>
        <time>2021-09-12T08:28:32Z</time>
      </trkpt>
      <trkpt lat="48.37938" lon="-3.75905">
        <ele>206.60000610352</ele>
        <time>2021-09-12T08:28:33Z</time>
      </trkpt>
      <trkpt lat="48.37937" lon="-3.7591">
        <ele>206.19999694824</ele>
        <time>2021-09-12T08:28:34Z</time>
      </trkpt>
      <trkpt lat="48.37937" lon="-3.75915">
        <ele>205.80000305176</ele>
        <time>2021-09-12T08:28:35Z</time>
      </trkpt>
      <trkpt lat="48.37936" lon="-3.75921">
        <ele>205.39999389648</ele>
        <time>2021-09-12T08:28:36Z</time>
      </trkpt>
      <trkpt lat="48.37936" lon="-3.75926">
        <ele>205</ele>
        <time>2021-09-12T08:28:37Z</time>
      </trkpt>
      <trkpt lat="48.37935" lon="-3.75933">
        <ele>204.80000305176</ele>
        <time>2021-09-12T08:28:38Z</time>
      </trkpt>
      <trkpt lat="48.37935" lon="-3.75939">
        <ele>204.39999389648</ele>
        <time>2021-09-12T08:28:39Z</time>
      </trkpt>
      <trkpt lat="48.37934" lon="-3.75947">
        <ele>204</ele>
        <time>2021-09-12T08:28:40Z</time>
      </trkpt>
      <trkpt lat="48.37934" lon="-3.75955">
        <ele>203.60000610352</ele>
        <time>2021-09-12T08:28:41Z</time>
      </trkpt>
      <trkpt lat="48.37934" lon="-3.75962">
        <ele>203.39999389648</ele>
        <time>2021-09-12T08:28:42Z</time>
      </trkpt>
      <trkpt lat="48.37934" lon="-3.75967">
        <ele>203</ele>
        <time>2021-09-12T08:28:43Z</time>
      </trkpt>
      <trkpt lat="48.37934" lon="-3.75971">
        <ele>203</ele>
        <time>2021-09-12T08:28:44Z</time>
      </trkpt>
      <trkpt lat="48.37934" lon="-3.75975">
        <ele>202.80000305176</ele>
        <time>2021-09-12T08:28:45Z</time>
      </trkpt>
      <trkpt lat="48.37934" lon="-3.75979">
        <ele>202.60000610352</ele>
        <time>2021-09-12T08:28:46Z</time>
      </trkpt>
      <trkpt lat="48.37934" lon="-3.75985">
        <ele>202.60000610352</ele>
        <time>2021-09-12T08:28:47Z</time>
      </trkpt>
      <trkpt lat="48.37933" lon="-3.75991">
        <ele>202.39999389648</ele>
        <time>2021-09-12T08:28:48Z</time>
      </trkpt>
      <trkpt lat="48.37932" lon="-3.75996">
        <ele>201.80000305176</ele>
        <time>2021-09-12T08:28:49Z</time>
      </trkpt>
      <trkpt lat="48.37932" lon="-3.76002">
        <ele>201.39999389648</ele>
        <time>2021-09-12T08:28:50Z</time>
      </trkpt>
      <trkpt lat="48.37931" lon="-3.76008">
        <ele>201.39999389648</ele>
        <time>2021-09-12T08:28:51Z</time>
      </trkpt>
      <trkpt lat="48.3793" lon="-3.76014">
        <ele>201</ele>
        <time>2021-09-12T08:28:52Z</time>
      </trkpt>
      <trkpt lat="48.37929" lon="-3.76021">
        <ele>201</ele>
        <time>2021-09-12T08:28:53Z</time>
      </trkpt>
      <trkpt lat="48.37927" lon="-3.76027">
        <ele>200.80000305176</ele>
        <time>2021-09-12T08:28:54Z</time>
      </trkpt>
      <trkpt lat="48.37927" lon="-3.76033">
        <ele>200.60000610352</ele>
        <time>2021-09-12T08:28:55Z</time>
      </trkpt>
      <trkpt lat="48.37926" lon="-3.76038">
        <ele>200.60000610352</ele>
        <time>2021-09-12T08:28:56Z</time>
      </trkpt>
      <trkpt lat="48.37926" lon="-3.76045">
        <ele>200.60000610352</ele>
        <time>2021-09-12T08:28:57Z</time>
      </trkpt>
      <trkpt lat="48.37925" lon="-3.76052">
        <ele>200.39999389648</ele>
        <time>2021-09-12T08:28:58Z</time>
      </trkpt>
      <trkpt lat="48.37925" lon="-3.7606">
        <ele>200.39999389648</ele>
        <time>2021-09-12T08:28:59Z</time>
      </trkpt>
      <trkpt lat="48.37922" lon="-3.76066">
        <ele>199.60000610352</ele>
        <time>2021-09-12T08:29:00Z</time>
      </trkpt>
      <trkpt lat="48.37921" lon="-3.76071">
        <ele>199.60000610352</ele>
        <time>2021-09-12T08:29:01Z</time>
      </trkpt>
      <trkpt lat="48.3792" lon="-3.76077">
        <ele>199.39999389648</ele>
        <time>2021-09-12T08:29:02Z</time>
      </trkpt>
      <trkpt lat="48.37919" lon="-3.76081">
        <ele>199.39999389648</ele>
        <time>2021-09-12T08:29:03Z</time>
      </trkpt>
      <trkpt lat="48.37916" lon="-3.76087">
        <ele>199.39999389648</ele>
        <time>2021-09-12T08:29:04Z</time>
      </trkpt>
      <trkpt lat="48.37915" lon="-3.76093">
        <ele>199.39999389648</ele>
        <time>2021-09-12T08:29:05Z</time>
      </trkpt>
      <trkpt lat="48.37915" lon="-3.76097">
        <ele>199</ele>
        <time>2021-09-12T08:29:06Z</time>
      </trkpt>
      <trkpt lat="48.37914" lon="-3.76102">
        <ele>199</ele>
        <time>2021-09-12T08:29:07Z</time>
      </trkpt>
      <trkpt lat="48.37912" lon="-3.76106">
        <ele>198.80000305176</ele>
        <time>2021-09-12T08:29:08Z</time>
      </trkpt>
      <trkpt lat="48.3791" lon="-3.7611">
        <ele>198.39999389648</ele>
        <time>2021-09-12T08:29:09Z</time>
      </trkpt>
      <trkpt lat="48.37909" lon="-3.76115">
        <ele>198.39999389648</ele>
        <time>2021-09-12T08:29:10Z</time>
      </trkpt>
      <trkpt lat="48.37908" lon="-3.76121">
        <ele>198</ele>
        <time>2021-09-12T08:29:11Z</time>
      </trkpt>
      <trkpt lat="48.37907" lon="-3.76127">
        <ele>198</ele>
        <time>2021-09-12T08:29:12Z</time>
      </trkpt>
      <trkpt lat="48.37904" lon="-3.76133">
        <ele>197.80000305176</ele>
        <time>2021-09-12T08:29:13Z</time>
      </trkpt>
      <trkpt lat="48.37902" lon="-3.76139">
        <ele>197.60000610352</ele>
        <time>2021-09-12T08:29:14Z</time>
      </trkpt>
      <trkpt lat="48.37901" lon="-3.76143">
        <ele>197.19999694824</ele>
        <time>2021-09-12T08:29:15Z</time>
      </trkpt>
      <trkpt lat="48.37899" lon="-3.76146">
        <ele>197.19999694824</ele>
        <time>2021-09-12T08:29:16Z</time>
      </trkpt>
      <trkpt lat="48.37899" lon="-3.7615">
        <ele>197</ele>
        <time>2021-09-12T08:29:17Z</time>
      </trkpt>
      <trkpt lat="48.37898" lon="-3.76152">
        <ele>197</ele>
        <time>2021-09-12T08:29:18Z</time>
      </trkpt>
      <trkpt lat="48.37898" lon="-3.76155">
        <ele>196.80000305176</ele>
        <time>2021-09-12T08:29:19Z</time>
      </trkpt>
      <trkpt lat="48.37898" lon="-3.76158">
        <ele>196.80000305176</ele>
        <time>2021-09-12T08:29:20Z</time>
      </trkpt>
      <trkpt lat="48.37896" lon="-3.7616">
        <ele>196.60000610352</ele>
        <time>2021-09-12T08:29:21Z</time>
      </trkpt>
      <trkpt lat="48.37896" lon="-3.76163">
        <ele>196.60000610352</ele>
        <time>2021-09-12T08:29:22Z</time>
      </trkpt>
      <trkpt lat="48.37895" lon="-3.76168">
        <ele>196.39999389648</ele>
        <time>2021-09-12T08:29:23Z</time>
      </trkpt>
      <trkpt lat="48.37894" lon="-3.76173">
        <ele>196.39999389648</ele>
        <time>2021-09-12T08:29:24Z</time>
      </trkpt>
      <trkpt lat="48.37893" lon="-3.76178">
        <ele>196.19999694824</ele>
        <time>2021-09-12T08:29:25Z</time>
      </trkpt>
      <trkpt lat="48.37892" lon="-3.76185">
        <ele>196.19999694824</ele>
        <time>2021-09-12T08:29:26Z</time>
      </trkpt>
      <trkpt lat="48.37892" lon="-3.7619">
        <ele>196</ele>
        <time>2021-09-12T08:29:27Z</time>
      </trkpt>
      <trkpt lat="48.37891" lon="-3.76196">
        <ele>195.80000305176</ele>
        <time>2021-09-12T08:29:28Z</time>
      </trkpt>
      <trkpt lat="48.37891" lon="-3.76202">
        <ele>195.80000305176</ele>
        <time>2021-09-12T08:29:29Z</time>
      </trkpt>
      <trkpt lat="48.37891" lon="-3.76208">
        <ele>195.60000610352</ele>
        <time>2021-09-12T08:29:30Z</time>
      </trkpt>
      <trkpt lat="48.37891" lon="-3.76215">
        <ele>195.60000610352</ele>
        <time>2021-09-12T08:29:31Z</time>
      </trkpt>
      <trkpt lat="48.37892" lon="-3.76222">
        <ele>195.60000610352</ele>
        <time>2021-09-12T08:29:32Z</time>
      </trkpt>
      <trkpt lat="48.37892" lon="-3.76229">
        <ele>195.39999389648</ele>
        <time>2021-09-12T08:29:33Z</time>
      </trkpt>
      <trkpt lat="48.37893" lon="-3.76237">
        <ele>195.39999389648</ele>
        <time>2021-09-12T08:29:34Z</time>
      </trkpt>
      <trkpt lat="48.37892" lon="-3.76246">
        <ele>195.39999389648</ele>
        <time>2021-09-12T08:29:35Z</time>
      </trkpt>
      <trkpt lat="48.37892" lon="-3.76254">
        <ele>195.39999389648</ele>
        <time>2021-09-12T08:29:36Z</time>
      </trkpt>
      <trkpt lat="48.3789" lon="-3.76263">
        <ele>195</ele>
        <time>2021-09-12T08:29:37Z</time>
      </trkpt>
      <trkpt lat="48.37889" lon="-3.7627">
        <ele>195</ele>
        <time>2021-09-12T08:29:38Z</time>
      </trkpt>
      <trkpt lat="48.37889" lon="-3.76275">
        <ele>195</ele>
        <time>2021-09-12T08:29:39Z</time>
      </trkpt>
      <trkpt lat="48.37888" lon="-3.7628">
        <ele>194.39999389648</ele>
        <time>2021-09-12T08:29:40Z</time>
      </trkpt>
      <trkpt lat="48.37888" lon="-3.76285">
        <ele>194.19999694824</ele>
        <time>2021-09-12T08:29:41Z</time>
      </trkpt>
      <trkpt lat="48.37889" lon="-3.76289">
        <ele>194.19999694824</ele>
        <time>2021-09-12T08:29:42Z</time>
      </trkpt>
      <trkpt lat="48.37889" lon="-3.76294">
        <ele>194.19999694824</ele>
        <time>2021-09-12T08:29:43Z</time>
      </trkpt>
      <trkpt lat="48.3789" lon="-3.76298">
        <ele>194.19999694824</ele>
        <time>2021-09-12T08:29:44Z</time>
      </trkpt>
      <trkpt lat="48.37892" lon="-3.76302">
        <ele>194</ele>
        <time>2021-09-12T08:29:45Z</time>
      </trkpt>
      <trkpt lat="48.37894" lon="-3.76307">
        <ele>194</ele>
        <time>2021-09-12T08:29:46Z</time>
      </trkpt>
      <trkpt lat="48.37896" lon="-3.76313">
        <ele>194</ele>
        <time>2021-09-12T08:29:47Z</time>
      </trkpt>
      <trkpt lat="48.37899" lon="-3.76321">
        <ele>194</ele>
        <time>2021-09-12T08:29:48Z</time>
      </trkpt>
      <trkpt lat="48.37901" lon="-3.76329">
        <ele>194</ele>
        <time>2021-09-12T08:29:49Z</time>
      </trkpt>
      <trkpt lat="48.37903" lon="-3.76336">
        <ele>194</ele>
        <time>2021-09-12T08:29:50Z</time>
      </trkpt>
      <trkpt lat="48.37903" lon="-3.76342">
        <ele>194</ele>
        <time>2021-09-12T08:29:51Z</time>
      </trkpt>
      <trkpt lat="48.37905" lon="-3.76348">
        <ele>194</ele>
        <time>2021-09-12T08:29:52Z</time>
      </trkpt>
      <trkpt lat="48.37907" lon="-3.76353">
        <ele>194</ele>
        <time>2021-09-12T08:29:53Z</time>
      </trkpt>
      <trkpt lat="48.37908" lon="-3.76358">
        <ele>194</ele>
        <time>2021-09-12T08:29:54Z</time>
      </trkpt>
      <trkpt lat="48.37909" lon="-3.76364">
        <ele>194</ele>
        <time>2021-09-12T08:29:55Z</time>
      </trkpt>
      <trkpt lat="48.37909" lon="-3.7637">
        <ele>194</ele>
        <time>2021-09-12T08:29:56Z</time>
      </trkpt>
      <trkpt lat="48.37911" lon="-3.76376">
        <ele>194</ele>
        <time>2021-09-12T08:29:57Z</time>
      </trkpt>
      <trkpt lat="48.37911" lon="-3.76382">
        <ele>194.19999694824</ele>
        <time>2021-09-12T08:29:58Z</time>
      </trkpt>
      <trkpt lat="48.37911" lon="-3.76388">
        <ele>194.60000610352</ele>
        <time>2021-09-12T08:29:59Z</time>
      </trkpt>
      <trkpt lat="48.37912" lon="-3.76392">
        <ele>195.19999694824</ele>
        <time>2021-09-12T08:30:00Z</time>
      </trkpt>
      <trkpt lat="48.37911" lon="-3.76395">
        <ele>195.39999389648</ele>
        <time>2021-09-12T08:30:01Z</time>
      </trkpt>
      <trkpt lat="48.37911" lon="-3.76399">
        <ele>195.60000610352</ele>
        <time>2021-09-12T08:30:02Z</time>
      </trkpt>
      <trkpt lat="48.37912" lon="-3.76402">
        <ele>196.19999694824</ele>
        <time>2021-09-12T08:30:03Z</time>
      </trkpt>
      <trkpt lat="48.37912" lon="-3.76405">
        <ele>196.60000610352</ele>
        <time>2021-09-12T08:30:04Z</time>
      </trkpt>
      <trkpt lat="48.37912" lon="-3.76408">
        <ele>197</ele>
        <time>2021-09-12T08:30:05Z</time>
      </trkpt>
      <trkpt lat="48.37912" lon="-3.76411">
        <ele>197.60000610352</ele>
        <time>2021-09-12T08:30:06Z</time>
      </trkpt>
      <trkpt lat="48.37913" lon="-3.76414">
        <ele>198</ele>
        <time>2021-09-12T08:30:07Z</time>
      </trkpt>
      <trkpt lat="48.37913" lon="-3.76417">
        <ele>198</ele>
        <time>2021-09-12T08:30:08Z</time>
      </trkpt>
      <trkpt lat="48.37913" lon="-3.76421">
        <ele>198.39999389648</ele>
        <time>2021-09-12T08:30:09Z</time>
      </trkpt>
      <trkpt lat="48.37914" lon="-3.76424">
        <ele>198.60000610352</ele>
        <time>2021-09-12T08:30:10Z</time>
      </trkpt>
      <trkpt lat="48.37915" lon="-3.76428">
        <ele>199.39999389648</ele>
        <time>2021-09-12T08:30:11Z</time>
      </trkpt>
      <trkpt lat="48.37916" lon="-3.76431">
        <ele>199.39999389648</ele>
        <time>2021-09-12T08:30:12Z</time>
      </trkpt>
      <trkpt lat="48.37917" lon="-3.76434">
        <ele>199.39999389648</ele>
        <time>2021-09-12T08:30:13Z</time>
      </trkpt>
      <trkpt lat="48.37919" lon="-3.76437">
        <ele>200</ele>
        <time>2021-09-12T08:30:14Z</time>
      </trkpt>
      <trkpt lat="48.3792" lon="-3.7644">
        <ele>200.19999694824</ele>
        <time>2021-09-12T08:30:15Z</time>
      </trkpt>
      <trkpt lat="48.37922" lon="-3.76443">
        <ele>200.60000610352</ele>
        <time>2021-09-12T08:30:16Z</time>
      </trkpt>
      <trkpt lat="48.37923" lon="-3.76446">
        <ele>200.80000305176</ele>
        <time>2021-09-12T08:30:17Z</time>
      </trkpt>
      <trkpt lat="48.37924" lon="-3.76449">
        <ele>201</ele>
        <time>2021-09-12T08:30:18Z</time>
      </trkpt>
      <trkpt lat="48.37926" lon="-3.76452">
        <ele>201.19999694824</ele>
        <time>2021-09-12T08:30:19Z</time>
      </trkpt>
      <trkpt lat="48.37927" lon="-3.76455">
        <ele>201.19999694824</ele>
        <time>2021-09-12T08:30:20Z</time>
      </trkpt>
      <trkpt lat="48.37929" lon="-3.76458">
        <ele>201.60000610352</ele>
        <time>2021-09-12T08:30:21Z</time>
      </trkpt>
      <trkpt lat="48.37929" lon="-3.76458">
        <ele>201.60000610352</ele>
        <time>2021-09-12T08:30:22Z</time>
      </trkpt>
      <trkpt lat="48.37931" lon="-3.76465">
        <ele>201.60000610352</ele>
        <time>2021-09-12T08:30:23Z</time>
      </trkpt>
      <trkpt lat="48.37932" lon="-3.76469">
        <ele>201.60000610352</ele>
        <time>2021-09-12T08:30:24Z</time>
      </trkpt>
      <trkpt lat="48.37934" lon="-3.76473">
        <ele>202</ele>
        <time>2021-09-12T08:30:25Z</time>
      </trkpt>
      <trkpt lat="48.37935" lon="-3.76476">
        <ele>202.19999694824</ele>
        <time>2021-09-12T08:30:26Z</time>
      </trkpt>
      <trkpt lat="48.37935" lon="-3.76476">
        <ele>202.39999389648</ele>
        <time>2021-09-12T08:30:27Z</time>
      </trkpt>
      <trkpt lat="48.37937" lon="-3.76484">
        <ele>202.60000610352</ele>
        <time>2021-09-12T08:30:28Z</time>
      </trkpt>
      <trkpt lat="48.37938" lon="-3.76488">
        <ele>202.60000610352</ele>
        <time>2021-09-12T08:30:29Z</time>
      </trkpt>
      <trkpt lat="48.37939" lon="-3.76492">
        <ele>202.80000305176</ele>
        <time>2021-09-12T08:30:30Z</time>
      </trkpt>
      <trkpt lat="48.3794" lon="-3.76496">
        <ele>203</ele>
        <time>2021-09-12T08:30:31Z</time>
      </trkpt>
      <trkpt lat="48.37941" lon="-3.765">
        <ele>203.19999694824</ele>
        <time>2021-09-12T08:30:32Z</time>
      </trkpt>
      <trkpt lat="48.37942" lon="-3.76505">
        <ele>203.39999389648</ele>
        <time>2021-09-12T08:30:33Z</time>
      </trkpt>
      <trkpt lat="48.37943" lon="-3.76508">
        <ele>203.60000610352</ele>
        <time>2021-09-12T08:30:34Z</time>
      </trkpt>
      <trkpt lat="48.37944" lon="-3.76512">
        <ele>203.60000610352</ele>
        <time>2021-09-12T08:30:35Z</time>
      </trkpt>
      <trkpt lat="48.37945" lon="-3.76517">
        <ele>203.80000305176</ele>
        <time>2021-09-12T08:30:36Z</time>
      </trkpt>
      <trkpt lat="48.37946" lon="-3.76521">
        <ele>203.80000305176</ele>
        <time>2021-09-12T08:30:37Z</time>
      </trkpt>
      <trkpt lat="48.37947" lon="-3.76526">
        <ele>203.80000305176</ele>
        <time>2021-09-12T08:30:38Z</time>
      </trkpt>
      <trkpt lat="48.37948" lon="-3.7653">
        <ele>204.19999694824</ele>
        <time>2021-09-12T08:30:39Z</time>
      </trkpt>
      <trkpt lat="48.37949" lon="-3.76534">
        <ele>204.39999389648</ele>
        <time>2021-09-12T08:30:40Z</time>
      </trkpt>
      <trkpt lat="48.37949" lon="-3.76539">
        <ele>204.39999389648</ele>
        <time>2021-09-12T08:30:41Z</time>
      </trkpt>
      <trkpt lat="48.3795" lon="-3.76543">
        <ele>204.39999389648</ele>
        <time>2021-09-12T08:30:42Z</time>
      </trkpt>
      <trkpt lat="48.3795" lon="-3.76548">
        <ele>204.60000610352</ele>
        <time>2021-09-12T08:30:43Z</time>
      </trkpt>
      <trkpt lat="48.37951" lon="-3.76552">
        <ele>204.80000305176</ele>
        <time>2021-09-12T08:30:44Z</time>
      </trkpt>
      <trkpt lat="48.37952" lon="-3.76557">
        <ele>205</ele>
        <time>2021-09-12T08:30:45Z</time>
      </trkpt>
      <trkpt lat="48.37952" lon="-3.76562">
        <ele>205</ele>
        <time>2021-09-12T08:30:46Z</time>
      </trkpt>
      <trkpt lat="48.37953" lon="-3.76566">
        <ele>205.19999694824</ele>
        <time>2021-09-12T08:30:47Z</time>
      </trkpt>
      <trkpt lat="48.37954" lon="-3.7657">
        <ele>205.60000610352</ele>
        <time>2021-09-12T08:30:48Z</time>
      </trkpt>
      <trkpt lat="48.37955" lon="-3.76575">
        <ele>205.80000305176</ele>
        <time>2021-09-12T08:30:49Z</time>
      </trkpt>
      <trkpt lat="48.37955" lon="-3.7658">
        <ele>205.80000305176</ele>
        <time>2021-09-12T08:30:50Z</time>
      </trkpt>
      <trkpt lat="48.37955" lon="-3.76585">
        <ele>205.80000305176</ele>
        <time>2021-09-12T08:30:51Z</time>
      </trkpt>
      <trkpt lat="48.37956" lon="-3.7659">
        <ele>206</ele>
        <time>2021-09-12T08:30:52Z</time>
      </trkpt>
      <trkpt lat="48.37956" lon="-3.76595">
        <ele>206</ele>
        <time>2021-09-12T08:30:53Z</time>
      </trkpt>
      <trkpt lat="48.37956" lon="-3.76599">
        <ele>206.19999694824</ele>
        <time>2021-09-12T08:30:54Z</time>
      </trkpt>
      <trkpt lat="48.37957" lon="-3.76604">
        <ele>206.19999694824</ele>
        <time>2021-09-12T08:30:55Z</time>
      </trkpt>
      <trkpt lat="48.37957" lon="-3.76609">
        <ele>206.39999389648</ele>
        <time>2021-09-12T08:30:56Z</time>
      </trkpt>
      <trkpt lat="48.37957" lon="-3.76614">
        <ele>206.39999389648</ele>
        <time>2021-09-12T08:30:57Z</time>
      </trkpt>
      <trkpt lat="48.37957" lon="-3.76619">
        <ele>206.60000610352</ele>
        <time>2021-09-12T08:30:58Z</time>
      </trkpt>
      <trkpt lat="48.37958" lon="-3.76624">
        <ele>206.80000305176</ele>
        <time>2021-09-12T08:30:59Z</time>
      </trkpt>
      <trkpt lat="48.37959" lon="-3.76628">
        <ele>207</ele>
        <time>2021-09-12T08:31:00Z</time>
      </trkpt>
      <trkpt lat="48.37959" lon="-3.76632">
        <ele>207.19999694824</ele>
        <time>2021-09-12T08:31:01Z</time>
      </trkpt>
      <trkpt lat="48.3796" lon="-3.76637">
        <ele>207.19999694824</ele>
        <time>2021-09-12T08:31:02Z</time>
      </trkpt>
      <trkpt lat="48.37961" lon="-3.76641">
        <ele>207.39999389648</ele>
        <time>2021-09-12T08:31:03Z</time>
      </trkpt>
      <trkpt lat="48.37962" lon="-3.76645">
        <ele>207.60000610352</ele>
        <time>2021-09-12T08:31:04Z</time>
      </trkpt>
      <trkpt lat="48.37963" lon="-3.76649">
        <ele>207.60000610352</ele>
        <time>2021-09-12T08:31:05Z</time>
      </trkpt>
      <trkpt lat="48.37963" lon="-3.76654">
        <ele>207.80000305176</ele>
        <time>2021-09-12T08:31:06Z</time>
      </trkpt>
      <trkpt lat="48.37964" lon="-3.76657">
        <ele>208.19999694824</ele>
        <time>2021-09-12T08:31:07Z</time>
      </trkpt>
      <trkpt lat="48.37965" lon="-3.7666">
        <ele>208.19999694824</ele>
        <time>2021-09-12T08:31:08Z</time>
      </trkpt>
      <trkpt lat="48.37966" lon="-3.76664">
        <ele>208.19999694824</ele>
        <time>2021-09-12T08:31:09Z</time>
      </trkpt>
      <trkpt lat="48.37967" lon="-3.76667">
        <ele>208.60000610352</ele>
        <time>2021-09-12T08:31:10Z</time>
      </trkpt>
      <trkpt lat="48.37969" lon="-3.76671">
        <ele>208.60000610352</ele>
        <time>2021-09-12T08:31:11Z</time>
      </trkpt>
      <trkpt lat="48.3797" lon="-3.76675">
        <ele>208.60000610352</ele>
        <time>2021-09-12T08:31:12Z</time>
      </trkpt>
      <trkpt lat="48.3797" lon="-3.76678">
        <ele>209.19999694824</ele>
        <time>2021-09-12T08:31:13Z</time>
      </trkpt>
      <trkpt lat="48.37971" lon="-3.76682">
        <ele>209.19999694824</ele>
        <time>2021-09-12T08:31:14Z</time>
      </trkpt>
      <trkpt lat="48.37971" lon="-3.76685">
        <ele>209.39999389648</ele>
        <time>2021-09-12T08:31:15Z</time>
      </trkpt>
      <trkpt lat="48.37971" lon="-3.76688">
        <ele>209.80000305176</ele>
        <time>2021-09-12T08:31:16Z</time>
      </trkpt>
      <trkpt lat="48.37971" lon="-3.76691">
        <ele>210.39999389648</ele>
        <time>2021-09-12T08:31:17Z</time>
      </trkpt>
      <trkpt lat="48.37971" lon="-3.76694">
        <ele>210.39999389648</ele>
        <time>2021-09-12T08:31:18Z</time>
      </trkpt>
      <trkpt lat="48.3797" lon="-3.76696">
        <ele>210.80000305176</ele>
        <time>2021-09-12T08:31:19Z</time>
      </trkpt>
      <trkpt lat="48.37969" lon="-3.76699">
        <ele>210.80000305176</ele>
        <time>2021-09-12T08:31:20Z</time>
      </trkpt>
      <trkpt lat="48.37969" lon="-3.76702">
        <ele>211</ele>
        <time>2021-09-12T08:31:21Z</time>
      </trkpt>
      <trkpt lat="48.37969" lon="-3.76705">
        <ele>211.19999694824</ele>
        <time>2021-09-12T08:31:22Z</time>
      </trkpt>
      <trkpt lat="48.3797" lon="-3.76708">
        <ele>211.19999694824</ele>
        <time>2021-09-12T08:31:23Z</time>
      </trkpt>
      <trkpt lat="48.37971" lon="-3.76711">
        <ele>211.80000305176</ele>
        <time>2021-09-12T08:31:24Z</time>
      </trkpt>
      <trkpt lat="48.37972" lon="-3.76714">
        <ele>211.80000305176</ele>
        <time>2021-09-12T08:31:25Z</time>
      </trkpt>
      <trkpt lat="48.37973" lon="-3.76718">
        <ele>212</ele>
        <time>2021-09-12T08:31:26Z</time>
      </trkpt>
      <trkpt lat="48.37974" lon="-3.76722">
        <ele>212.39999389648</ele>
        <time>2021-09-12T08:31:27Z</time>
      </trkpt>
      <trkpt lat="48.37976" lon="-3.76725">
        <ele>212.60000610352</ele>
        <time>2021-09-12T08:31:28Z</time>
      </trkpt>
      <trkpt lat="48.37978" lon="-3.76729">
        <ele>212.80000305176</ele>
        <time>2021-09-12T08:31:29Z</time>
      </trkpt>
      <trkpt lat="48.3798" lon="-3.76732">
        <ele>212.80000305176</ele>
        <time>2021-09-12T08:31:30Z</time>
      </trkpt>
      <trkpt lat="48.37982" lon="-3.76734">
        <ele>213</ele>
        <time>2021-09-12T08:31:31Z</time>
      </trkpt>
      <trkpt lat="48.37983" lon="-3.76737">
        <ele>213.19999694824</ele>
        <time>2021-09-12T08:31:32Z</time>
      </trkpt>
      <trkpt lat="48.37985" lon="-3.76741">
        <ele>213.39999389648</ele>
        <time>2021-09-12T08:31:33Z</time>
      </trkpt>
      <trkpt lat="48.37986" lon="-3.76744">
        <ele>213.60000610352</ele>
        <time>2021-09-12T08:31:34Z</time>
      </trkpt>
      <trkpt lat="48.37987" lon="-3.76748">
        <ele>213.80000305176</ele>
        <time>2021-09-12T08:31:35Z</time>
      </trkpt>
      <trkpt lat="48.37989" lon="-3.76751">
        <ele>214.19999694824</ele>
        <time>2021-09-12T08:31:36Z</time>
      </trkpt>
      <trkpt lat="48.3799" lon="-3.76754">
        <ele>214.39999389648</ele>
        <time>2021-09-12T08:31:37Z</time>
      </trkpt>
      <trkpt lat="48.3799" lon="-3.76754">
        <ele>214.60000610352</ele>
        <time>2021-09-12T08:31:38Z</time>
      </trkpt>
      <trkpt lat="48.37993" lon="-3.76761">
        <ele>214.60000610352</ele>
        <time>2021-09-12T08:31:39Z</time>
      </trkpt>
      <trkpt lat="48.37994" lon="-3.76764">
        <ele>214.80000305176</ele>
        <time>2021-09-12T08:31:40Z</time>
      </trkpt>
      <trkpt lat="48.37996" lon="-3.76768">
        <ele>214.80000305176</ele>
        <time>2021-09-12T08:31:41Z</time>
      </trkpt>
      <trkpt lat="48.37997" lon="-3.76772">
        <ele>214.80000305176</ele>
        <time>2021-09-12T08:31:42Z</time>
      </trkpt>
      <trkpt lat="48.37999" lon="-3.76776">
        <ele>215</ele>
        <time>2021-09-12T08:31:43Z</time>
      </trkpt>
      <trkpt lat="48.38" lon="-3.7678">
        <ele>215.19999694824</ele>
        <time>2021-09-12T08:31:44Z</time>
      </trkpt>
      <trkpt lat="48.38001" lon="-3.76785">
        <ele>215.60000610352</ele>
        <time>2021-09-12T08:31:45Z</time>
      </trkpt>
      <trkpt lat="48.38003" lon="-3.7679">
        <ele>215.60000610352</ele>
        <time>2021-09-12T08:31:46Z</time>
      </trkpt>
      <trkpt lat="48.38003" lon="-3.7679">
        <ele>215.60000610352</ele>
        <time>2021-09-12T08:31:47Z</time>
      </trkpt>
      <trkpt lat="48.38005" lon="-3.768">
        <ele>215.80000305176</ele>
        <time>2021-09-12T08:31:48Z</time>
      </trkpt>
      <trkpt lat="48.38006" lon="-3.76806">
        <ele>215.60000610352</ele>
        <time>2021-09-12T08:31:49Z</time>
      </trkpt>
      <trkpt lat="48.38007" lon="-3.76811">
        <ele>215.80000305176</ele>
        <time>2021-09-12T08:31:50Z</time>
      </trkpt>
      <trkpt lat="48.38009" lon="-3.76816">
        <ele>215.80000305176</ele>
        <time>2021-09-12T08:31:51Z</time>
      </trkpt>
      <trkpt lat="48.3801" lon="-3.76821">
        <ele>215.80000305176</ele>
        <time>2021-09-12T08:31:52Z</time>
      </trkpt>
      <trkpt lat="48.38012" lon="-3.76827">
        <ele>215.60000610352</ele>
        <time>2021-09-12T08:31:53Z</time>
      </trkpt>
      <trkpt lat="48.38013" lon="-3.76833">
        <ele>215.39999389648</ele>
        <time>2021-09-12T08:31:54Z</time>
      </trkpt>
      <trkpt lat="48.38015" lon="-3.76839">
        <ele>215.19999694824</ele>
        <time>2021-09-12T08:31:55Z</time>
      </trkpt>
      <trkpt lat="48.38017" lon="-3.76846">
        <ele>215.19999694824</ele>
        <time>2021-09-12T08:31:56Z</time>
      </trkpt>
      <trkpt lat="48.38019" lon="-3.76852">
        <ele>215.19999694824</ele>
        <time>2021-09-12T08:31:57Z</time>
      </trkpt>
      <trkpt lat="48.38022" lon="-3.76859">
        <ele>215</ele>
        <time>2021-09-12T08:31:58Z</time>
      </trkpt>
      <trkpt lat="48.38023" lon="-3.76865">
        <ele>214.80000305176</ele>
        <time>2021-09-12T08:31:59Z</time>
      </trkpt>
      <trkpt lat="48.38025" lon="-3.76871">
        <ele>214.60000610352</ele>
        <time>2021-09-12T08:32:00Z</time>
      </trkpt>
      <trkpt lat="48.38027" lon="-3.76877">
        <ele>214.39999389648</ele>
        <time>2021-09-12T08:32:01Z</time>
      </trkpt>
      <trkpt lat="48.3803" lon="-3.76884">
        <ele>214.39999389648</ele>
        <time>2021-09-12T08:32:02Z</time>
      </trkpt>
      <trkpt lat="48.38033" lon="-3.76891">
        <ele>214.19999694824</ele>
        <time>2021-09-12T08:32:03Z</time>
      </trkpt>
      <trkpt lat="48.38035" lon="-3.76898">
        <ele>214.19999694824</ele>
        <time>2021-09-12T08:32:04Z</time>
      </trkpt>
      <trkpt lat="48.38038" lon="-3.76904">
        <ele>214.19999694824</ele>
        <time>2021-09-12T08:32:05Z</time>
      </trkpt>
      <trkpt lat="48.3804" lon="-3.7691">
        <ele>214.19999694824</ele>
        <time>2021-09-12T08:32:06Z</time>
      </trkpt>
      <trkpt lat="48.38042" lon="-3.76916">
        <ele>214.19999694824</ele>
        <time>2021-09-12T08:32:07Z</time>
      </trkpt>
      <trkpt lat="48.38045" lon="-3.76923">
        <ele>214.19999694824</ele>
        <time>2021-09-12T08:32:08Z</time>
      </trkpt>
      <trkpt lat="48.38049" lon="-3.76929">
        <ele>214.19999694824</ele>
        <time>2021-09-12T08:32:09Z</time>
      </trkpt>
      <trkpt lat="48.38052" lon="-3.76934">
        <ele>214.39999389648</ele>
        <time>2021-09-12T08:32:10Z</time>
      </trkpt>
      <trkpt lat="48.38055" lon="-3.7694">
        <ele>214.80000305176</ele>
        <time>2021-09-12T08:32:11Z</time>
      </trkpt>
      <trkpt lat="48.38059" lon="-3.76946">
        <ele>214.80000305176</ele>
        <time>2021-09-12T08:32:12Z</time>
      </trkpt>
      <trkpt lat="48.38062" lon="-3.76952">
        <ele>215</ele>
        <time>2021-09-12T08:32:13Z</time>
      </trkpt>
      <trkpt lat="48.38066" lon="-3.76958">
        <ele>215.19999694824</ele>
        <time>2021-09-12T08:32:14Z</time>
      </trkpt>
      <trkpt lat="48.38069" lon="-3.76964">
        <ele>215.19999694824</ele>
        <time>2021-09-12T08:32:15Z</time>
      </trkpt>
      <trkpt lat="48.38072" lon="-3.7697">
        <ele>215.19999694824</ele>
        <time>2021-09-12T08:32:16Z</time>
      </trkpt>
      <trkpt lat="48.38075" lon="-3.76977">
        <ele>215.60000610352</ele>
        <time>2021-09-12T08:32:17Z</time>
      </trkpt>
      <trkpt lat="48.38077" lon="-3.76984">
        <ele>215.60000610352</ele>
        <time>2021-09-12T08:32:18Z</time>
      </trkpt>
      <trkpt lat="48.38079" lon="-3.76991">
        <ele>215.60000610352</ele>
        <time>2021-09-12T08:32:19Z</time>
      </trkpt>
      <trkpt lat="48.38081" lon="-3.76997">
        <ele>215.80000305176</ele>
        <time>2021-09-12T08:32:20Z</time>
      </trkpt>
      <trkpt lat="48.38083" lon="-3.77004">
        <ele>215.60000610352</ele>
        <time>2021-09-12T08:32:21Z</time>
      </trkpt>
      <trkpt lat="48.38086" lon="-3.7701">
        <ele>215.60000610352</ele>
        <time>2021-09-12T08:32:22Z</time>
      </trkpt>
      <trkpt lat="48.38088" lon="-3.77015">
        <ele>215.80000305176</ele>
        <time>2021-09-12T08:32:23Z</time>
      </trkpt>
      <trkpt lat="48.38091" lon="-3.77021">
        <ele>215.60000610352</ele>
        <time>2021-09-12T08:32:24Z</time>
      </trkpt>
      <trkpt lat="48.38094" lon="-3.77028">
        <ele>215.80000305176</ele>
        <time>2021-09-12T08:32:25Z</time>
      </trkpt>
      <trkpt lat="48.38096" lon="-3.77033">
        <ele>215.80000305176</ele>
        <time>2021-09-12T08:32:26Z</time>
      </trkpt>
      <trkpt lat="48.38098" lon="-3.77039">
        <ele>215.80000305176</ele>
        <time>2021-09-12T08:32:27Z</time>
      </trkpt>
      <trkpt lat="48.38101" lon="-3.77045">
        <ele>216</ele>
        <time>2021-09-12T08:32:28Z</time>
      </trkpt>
      <trkpt lat="48.38103" lon="-3.7705">
        <ele>216</ele>
        <time>2021-09-12T08:32:29Z</time>
      </trkpt>
      <trkpt lat="48.38106" lon="-3.77056">
        <ele>216</ele>
        <time>2021-09-12T08:32:30Z</time>
      </trkpt>
      <trkpt lat="48.38108" lon="-3.77062">
        <ele>216.19999694824</ele>
        <time>2021-09-12T08:32:31Z</time>
      </trkpt>
      <trkpt lat="48.38111" lon="-3.77068">
        <ele>216.39999389648</ele>
        <time>2021-09-12T08:32:32Z</time>
      </trkpt>
      <trkpt lat="48.38113" lon="-3.77074">
        <ele>216.39999389648</ele>
        <time>2021-09-12T08:32:33Z</time>
      </trkpt>
      <trkpt lat="48.38116" lon="-3.7708">
        <ele>216.60000610352</ele>
        <time>2021-09-12T08:32:34Z</time>
      </trkpt>
      <trkpt lat="48.38118" lon="-3.77086">
        <ele>216.60000610352</ele>
        <time>2021-09-12T08:32:35Z</time>
      </trkpt>
      <trkpt lat="48.3812" lon="-3.77092">
        <ele>216.60000610352</ele>
        <time>2021-09-12T08:32:36Z</time>
      </trkpt>
      <trkpt lat="48.38123" lon="-3.77098">
        <ele>216.80000305176</ele>
        <time>2021-09-12T08:32:37Z</time>
      </trkpt>
      <trkpt lat="48.38125" lon="-3.77105">
        <ele>216.80000305176</ele>
        <time>2021-09-12T08:32:38Z</time>
      </trkpt>
      <trkpt lat="48.38125" lon="-3.77105">
        <ele>217.19999694824</ele>
        <time>2021-09-12T08:32:39Z</time>
      </trkpt>
      <trkpt lat="48.38128" lon="-3.77117">
        <ele>217.39999389648</ele>
        <time>2021-09-12T08:32:40Z</time>
      </trkpt>
      <trkpt lat="48.38131" lon="-3.77123">
        <ele>217.39999389648</ele>
        <time>2021-09-12T08:32:41Z</time>
      </trkpt>
      <trkpt lat="48.38133" lon="-3.7713">
        <ele>217.39999389648</ele>
        <time>2021-09-12T08:32:42Z</time>
      </trkpt>
      <trkpt lat="48.38135" lon="-3.77136">
        <ele>217.80000305176</ele>
        <time>2021-09-12T08:32:43Z</time>
      </trkpt>
      <trkpt lat="48.38137" lon="-3.77141">
        <ele>217.80000305176</ele>
        <time>2021-09-12T08:32:44Z</time>
      </trkpt>
      <trkpt lat="48.38139" lon="-3.77146">
        <ele>218</ele>
        <time>2021-09-12T08:32:45Z</time>
      </trkpt>
      <trkpt lat="48.38141" lon="-3.77152">
        <ele>218.19999694824</ele>
        <time>2021-09-12T08:32:46Z</time>
      </trkpt>
      <trkpt lat="48.38143" lon="-3.77157">
        <ele>218.19999694824</ele>
        <time>2021-09-12T08:32:47Z</time>
      </trkpt>
      <trkpt lat="48.38144" lon="-3.77162">
        <ele>218.39999389648</ele>
        <time>2021-09-12T08:32:48Z</time>
      </trkpt>
      <trkpt lat="48.38146" lon="-3.77167">
        <ele>218.60000610352</ele>
        <time>2021-09-12T08:32:49Z</time>
      </trkpt>
      <trkpt lat="48.38148" lon="-3.77172">
        <ele>218.60000610352</ele>
        <time>2021-09-12T08:32:50Z</time>
      </trkpt>
      <trkpt lat="48.3815" lon="-3.77176">
        <ele>218.80000305176</ele>
        <time>2021-09-12T08:32:51Z</time>
      </trkpt>
      <trkpt lat="48.38152" lon="-3.77181">
        <ele>219</ele>
        <time>2021-09-12T08:32:52Z</time>
      </trkpt>
      <trkpt lat="48.38154" lon="-3.77186">
        <ele>219.39999389648</ele>
        <time>2021-09-12T08:32:53Z</time>
      </trkpt>
      <trkpt lat="48.38157" lon="-3.7719">
        <ele>219.80000305176</ele>
        <time>2021-09-12T08:32:54Z</time>
      </trkpt>
      <trkpt lat="48.3816" lon="-3.77194">
        <ele>219.80000305176</ele>
        <time>2021-09-12T08:32:55Z</time>
      </trkpt>
      <trkpt lat="48.38162" lon="-3.77197">
        <ele>220.19999694824</ele>
        <time>2021-09-12T08:32:56Z</time>
      </trkpt>
      <trkpt lat="48.38165" lon="-3.772">
        <ele>220.19999694824</ele>
        <time>2021-09-12T08:32:57Z</time>
      </trkpt>
      <trkpt lat="48.38168" lon="-3.77204">
        <ele>220.39999389648</ele>
        <time>2021-09-12T08:32:58Z</time>
      </trkpt>
      <trkpt lat="48.3817" lon="-3.77207">
        <ele>220.60000610352</ele>
        <time>2021-09-12T08:32:59Z</time>
      </trkpt>
      <trkpt lat="48.38173" lon="-3.7721">
        <ele>221</ele>
        <time>2021-09-12T08:33:00Z</time>
      </trkpt>
      <trkpt lat="48.38176" lon="-3.77212">
        <ele>221.19999694824</ele>
        <time>2021-09-12T08:33:01Z</time>
      </trkpt>
      <trkpt lat="48.38178" lon="-3.77215">
        <ele>221.60000610352</ele>
        <time>2021-09-12T08:33:02Z</time>
      </trkpt>
      <trkpt lat="48.38181" lon="-3.77217">
        <ele>221.80000305176</ele>
        <time>2021-09-12T08:33:03Z</time>
      </trkpt>
      <trkpt lat="48.38183" lon="-3.77219">
        <ele>222.19999694824</ele>
        <time>2021-09-12T08:33:04Z</time>
      </trkpt>
      <trkpt lat="48.38185" lon="-3.7722">
        <ele>222.39999389648</ele>
        <time>2021-09-12T08:33:05Z</time>
      </trkpt>
      <trkpt lat="48.38188" lon="-3.77222">
        <ele>222.60000610352</ele>
        <time>2021-09-12T08:33:06Z</time>
      </trkpt>
      <trkpt lat="48.3819" lon="-3.77223">
        <ele>222.80000305176</ele>
        <time>2021-09-12T08:33:07Z</time>
      </trkpt>
      <trkpt lat="48.38191" lon="-3.77225">
        <ele>223</ele>
        <time>2021-09-12T08:33:08Z</time>
      </trkpt>
      <trkpt lat="48.38193" lon="-3.77227">
        <ele>223.39999389648</ele>
        <time>2021-09-12T08:33:09Z</time>
      </trkpt>
      <trkpt lat="48.38195" lon="-3.7723">
        <ele>223.39999389648</ele>
        <time>2021-09-12T08:33:10Z</time>
      </trkpt>
      <trkpt lat="48.38197" lon="-3.77232">
        <ele>223.80000305176</ele>
        <time>2021-09-12T08:33:11Z</time>
      </trkpt>
      <trkpt lat="48.382" lon="-3.77234">
        <ele>224</ele>
        <time>2021-09-12T08:33:12Z</time>
      </trkpt>
      <trkpt lat="48.38202" lon="-3.77237">
        <ele>224.19999694824</ele>
        <time>2021-09-12T08:33:13Z</time>
      </trkpt>
      <trkpt lat="48.38204" lon="-3.77239">
        <ele>224.60000610352</ele>
        <time>2021-09-12T08:33:14Z</time>
      </trkpt>
      <trkpt lat="48.38206" lon="-3.77241">
        <ele>224.80000305176</ele>
        <time>2021-09-12T08:33:15Z</time>
      </trkpt>
      <trkpt lat="48.38208" lon="-3.77242">
        <ele>225.19999694824</ele>
        <time>2021-09-12T08:33:16Z</time>
      </trkpt>
      <trkpt lat="48.3821" lon="-3.77245">
        <ele>225.60000610352</ele>
        <time>2021-09-12T08:33:17Z</time>
      </trkpt>
      <trkpt lat="48.38212" lon="-3.77247">
        <ele>225.80000305176</ele>
        <time>2021-09-12T08:33:18Z</time>
      </trkpt>
      <trkpt lat="48.38213" lon="-3.7725">
        <ele>226</ele>
        <time>2021-09-12T08:33:19Z</time>
      </trkpt>
      <trkpt lat="48.38215" lon="-3.77253">
        <ele>226.39999389648</ele>
        <time>2021-09-12T08:33:20Z</time>
      </trkpt>
      <trkpt lat="48.38216" lon="-3.77255">
        <ele>226.39999389648</ele>
        <time>2021-09-12T08:33:21Z</time>
      </trkpt>
      <trkpt lat="48.38218" lon="-3.77258">
        <ele>227</ele>
        <time>2021-09-12T08:33:22Z</time>
      </trkpt>
      <trkpt lat="48.38219" lon="-3.77261">
        <ele>227.39999389648</ele>
        <time>2021-09-12T08:33:23Z</time>
      </trkpt>
      <trkpt lat="48.38221" lon="-3.77263">
        <ele>227.39999389648</ele>
        <time>2021-09-12T08:33:24Z</time>
      </trkpt>
      <trkpt lat="48.38223" lon="-3.77266">
        <ele>227.60000610352</ele>
        <time>2021-09-12T08:33:25Z</time>
      </trkpt>
      <trkpt lat="48.38225" lon="-3.77269">
        <ele>227.80000305176</ele>
        <time>2021-09-12T08:33:26Z</time>
      </trkpt>
      <trkpt lat="48.38227" lon="-3.77272">
        <ele>228.19999694824</ele>
        <time>2021-09-12T08:33:27Z</time>
      </trkpt>
      <trkpt lat="48.3823" lon="-3.77275">
        <ele>228.39999389648</ele>
        <time>2021-09-12T08:33:28Z</time>
      </trkpt>
      <trkpt lat="48.38232" lon="-3.77278">
        <ele>228.60000610352</ele>
        <time>2021-09-12T08:33:29Z</time>
      </trkpt>
      <trkpt lat="48.38234" lon="-3.77281">
        <ele>228.80000305176</ele>
        <time>2021-09-12T08:33:30Z</time>
      </trkpt>
      <trkpt lat="48.38236" lon="-3.77284">
        <ele>229</ele>
        <time>2021-09-12T08:33:31Z</time>
      </trkpt>
      <trkpt lat="48.38238" lon="-3.77287">
        <ele>229.19999694824</ele>
        <time>2021-09-12T08:33:32Z</time>
      </trkpt>
      <trkpt lat="48.3824" lon="-3.7729">
        <ele>229.19999694824</ele>
        <time>2021-09-12T08:33:33Z</time>
      </trkpt>
      <trkpt lat="48.38242" lon="-3.77293">
        <ele>229.39999389648</ele>
        <time>2021-09-12T08:33:34Z</time>
      </trkpt>
      <trkpt lat="48.38245" lon="-3.77296">
        <ele>229.39999389648</ele>
        <time>2021-09-12T08:33:35Z</time>
      </trkpt>
      <trkpt lat="48.38247" lon="-3.77301">
        <ele>229.60000610352</ele>
        <time>2021-09-12T08:33:36Z</time>
      </trkpt>
      <trkpt lat="48.38249" lon="-3.77304">
        <ele>229.60000610352</ele>
        <time>2021-09-12T08:33:37Z</time>
      </trkpt>
      <trkpt lat="48.38251" lon="-3.77308">
        <ele>229.60000610352</ele>
        <time>2021-09-12T08:33:38Z</time>
      </trkpt>
      <trkpt lat="48.38253" lon="-3.77312">
        <ele>229.60000610352</ele>
        <time>2021-09-12T08:33:39Z</time>
      </trkpt>
      <trkpt lat="48.38255" lon="-3.77316">
        <ele>229.60000610352</ele>
        <time>2021-09-12T08:33:40Z</time>
      </trkpt>
      <trkpt lat="48.38257" lon="-3.7732">
        <ele>229.60000610352</ele>
        <time>2021-09-12T08:33:41Z</time>
      </trkpt>
      <trkpt lat="48.38259" lon="-3.77324">
        <ele>229.60000610352</ele>
        <time>2021-09-12T08:33:42Z</time>
      </trkpt>
      <trkpt lat="48.3826" lon="-3.77329">
        <ele>229.80000305176</ele>
        <time>2021-09-12T08:33:43Z</time>
      </trkpt>
      <trkpt lat="48.38261" lon="-3.77334">
        <ele>229.80000305176</ele>
        <time>2021-09-12T08:33:44Z</time>
      </trkpt>
      <trkpt lat="48.38262" lon="-3.77339">
        <ele>229.80000305176</ele>
        <time>2021-09-12T08:33:45Z</time>
      </trkpt>
      <trkpt lat="48.38262" lon="-3.77343">
        <ele>230</ele>
        <time>2021-09-12T08:33:46Z</time>
      </trkpt>
      <trkpt lat="48.38263" lon="-3.77348">
        <ele>230</ele>
        <time>2021-09-12T08:33:47Z</time>
      </trkpt>
      <trkpt lat="48.38265" lon="-3.77352">
        <ele>230.39999389648</ele>
        <time>2021-09-12T08:33:48Z</time>
      </trkpt>
      <trkpt lat="48.38266" lon="-3.77357">
        <ele>230.39999389648</ele>
        <time>2021-09-12T08:33:49Z</time>
      </trkpt>
      <trkpt lat="48.38267" lon="-3.77361">
        <ele>230.39999389648</ele>
        <time>2021-09-12T08:33:50Z</time>
      </trkpt>
      <trkpt lat="48.38268" lon="-3.77365">
        <ele>230.60000610352</ele>
        <time>2021-09-12T08:33:51Z</time>
      </trkpt>
      <trkpt lat="48.3827" lon="-3.7737">
        <ele>230.60000610352</ele>
        <time>2021-09-12T08:33:52Z</time>
      </trkpt>
      <trkpt lat="48.38272" lon="-3.77375">
        <ele>230.60000610352</ele>
        <time>2021-09-12T08:33:53Z</time>
      </trkpt>
      <trkpt lat="48.38273" lon="-3.77381">
        <ele>230.60000610352</ele>
        <time>2021-09-12T08:33:54Z</time>
      </trkpt>
      <trkpt lat="48.38276" lon="-3.77387">
        <ele>230.80000305176</ele>
        <time>2021-09-12T08:33:55Z</time>
      </trkpt>
      <trkpt lat="48.38278" lon="-3.77393">
        <ele>231</ele>
        <time>2021-09-12T08:33:56Z</time>
      </trkpt>
      <trkpt lat="48.3828" lon="-3.77398">
        <ele>231</ele>
        <time>2021-09-12T08:33:57Z</time>
      </trkpt>
      <trkpt lat="48.38282" lon="-3.77403">
        <ele>231.19999694824</ele>
        <time>2021-09-12T08:33:58Z</time>
      </trkpt>
      <trkpt lat="48.38283" lon="-3.77408">
        <ele>231.19999694824</ele>
        <time>2021-09-12T08:33:59Z</time>
      </trkpt>
      <trkpt lat="48.38285" lon="-3.77413">
        <ele>231.19999694824</ele>
        <time>2021-09-12T08:34:00Z</time>
      </trkpt>
      <trkpt lat="48.38288" lon="-3.77419">
        <ele>231.19999694824</ele>
        <time>2021-09-12T08:34:01Z</time>
      </trkpt>
      <trkpt lat="48.38289" lon="-3.77424">
        <ele>231.39999389648</ele>
        <time>2021-09-12T08:34:02Z</time>
      </trkpt>
      <trkpt lat="48.38289" lon="-3.77424">
        <ele>231.39999389648</ele>
        <time>2021-09-12T08:34:03Z</time>
      </trkpt>
      <trkpt lat="48.38293" lon="-3.77433">
        <ele>231.39999389648</ele>
        <time>2021-09-12T08:34:04Z</time>
      </trkpt>
      <trkpt lat="48.38295" lon="-3.77437">
        <ele>231.60000610352</ele>
        <time>2021-09-12T08:34:05Z</time>
      </trkpt>
      <trkpt lat="48.38296" lon="-3.77442">
        <ele>231.80000305176</ele>
        <time>2021-09-12T08:34:06Z</time>
      </trkpt>
      <trkpt lat="48.38298" lon="-3.77446">
        <ele>231.80000305176</ele>
        <time>2021-09-12T08:34:07Z</time>
      </trkpt>
      <trkpt lat="48.383" lon="-3.7745">
        <ele>232.19999694824</ele>
        <time>2021-09-12T08:34:08Z</time>
      </trkpt>
      <trkpt lat="48.38302" lon="-3.77455">
        <ele>232.19999694824</ele>
        <time>2021-09-12T08:34:09Z</time>
      </trkpt>
      <trkpt lat="48.38304" lon="-3.7746">
        <ele>232.39999389648</ele>
        <time>2021-09-12T08:34:10Z</time>
      </trkpt>
      <trkpt lat="48.38305" lon="-3.77464">
        <ele>232.60000610352</ele>
        <time>2021-09-12T08:34:11Z</time>
      </trkpt>
      <trkpt lat="48.38307" lon="-3.77469">
        <ele>232.60000610352</ele>
        <time>2021-09-12T08:34:12Z</time>
      </trkpt>
      <trkpt lat="48.38309" lon="-3.77474">
        <ele>232.80000305176</ele>
        <time>2021-09-12T08:34:13Z</time>
      </trkpt>
      <trkpt lat="48.38311" lon="-3.77478">
        <ele>232.80000305176</ele>
        <time>2021-09-12T08:34:14Z</time>
      </trkpt>
      <trkpt lat="48.38313" lon="-3.77482">
        <ele>233</ele>
        <time>2021-09-12T08:34:15Z</time>
      </trkpt>
      <trkpt lat="48.38314" lon="-3.77486">
        <ele>233</ele>
        <time>2021-09-12T08:34:16Z</time>
      </trkpt>
      <trkpt lat="48.38315" lon="-3.7749">
        <ele>233</ele>
        <time>2021-09-12T08:34:17Z</time>
      </trkpt>
      <trkpt lat="48.38316" lon="-3.77495">
        <ele>233.19999694824</ele>
        <time>2021-09-12T08:34:18Z</time>
      </trkpt>
      <trkpt lat="48.38318" lon="-3.775">
        <ele>233.39999389648</ele>
        <time>2021-09-12T08:34:19Z</time>
      </trkpt>
      <trkpt lat="48.3832" lon="-3.77506">
        <ele>233.39999389648</ele>
        <time>2021-09-12T08:34:20Z</time>
      </trkpt>
      <trkpt lat="48.38322" lon="-3.77511">
        <ele>233.39999389648</ele>
        <time>2021-09-12T08:34:21Z</time>
      </trkpt>
      <trkpt lat="48.38324" lon="-3.77517">
        <ele>233.60000610352</ele>
        <time>2021-09-12T08:34:22Z</time>
      </trkpt>
      <trkpt lat="48.38327" lon="-3.77521">
        <ele>233.60000610352</ele>
        <time>2021-09-12T08:34:23Z</time>
      </trkpt>
      <trkpt lat="48.38329" lon="-3.77527">
        <ele>233.60000610352</ele>
        <time>2021-09-12T08:34:24Z</time>
      </trkpt>
      <trkpt lat="48.38331" lon="-3.77532">
        <ele>233.80000305176</ele>
        <time>2021-09-12T08:34:25Z</time>
      </trkpt>
      <trkpt lat="48.38331" lon="-3.77537">
        <ele>233.80000305176</ele>
        <time>2021-09-12T08:34:26Z</time>
      </trkpt>
      <trkpt lat="48.38333" lon="-3.77543">
        <ele>233.80000305176</ele>
        <time>2021-09-12T08:34:27Z</time>
      </trkpt>
      <trkpt lat="48.38335" lon="-3.77548">
        <ele>233.80000305176</ele>
        <time>2021-09-12T08:34:28Z</time>
      </trkpt>
      <trkpt lat="48.38337" lon="-3.77553">
        <ele>233.80000305176</ele>
        <time>2021-09-12T08:34:29Z</time>
      </trkpt>
      <trkpt lat="48.38339" lon="-3.77558">
        <ele>234</ele>
        <time>2021-09-12T08:34:30Z</time>
      </trkpt>
      <trkpt lat="48.38341" lon="-3.77563">
        <ele>234.19999694824</ele>
        <time>2021-09-12T08:34:31Z</time>
      </trkpt>
      <trkpt lat="48.38342" lon="-3.77567">
        <ele>234.19999694824</ele>
        <time>2021-09-12T08:34:32Z</time>
      </trkpt>
      <trkpt lat="48.38344" lon="-3.77572">
        <ele>234.39999389648</ele>
        <time>2021-09-12T08:34:33Z</time>
      </trkpt>
      <trkpt lat="48.38345" lon="-3.77576">
        <ele>234.60000610352</ele>
        <time>2021-09-12T08:34:34Z</time>
      </trkpt>
      <trkpt lat="48.38347" lon="-3.7758">
        <ele>234.60000610352</ele>
        <time>2021-09-12T08:34:35Z</time>
      </trkpt>
      <trkpt lat="48.38348" lon="-3.77584">
        <ele>235</ele>
        <time>2021-09-12T08:34:36Z</time>
      </trkpt>
      <trkpt lat="48.38349" lon="-3.77588">
        <ele>235</ele>
        <time>2021-09-12T08:34:37Z</time>
      </trkpt>
      <trkpt lat="48.3835" lon="-3.77592">
        <ele>235</ele>
        <time>2021-09-12T08:34:38Z</time>
      </trkpt>
      <trkpt lat="48.38352" lon="-3.77596">
        <ele>235.19999694824</ele>
        <time>2021-09-12T08:34:39Z</time>
      </trkpt>
      <trkpt lat="48.38353" lon="-3.776">
        <ele>235.19999694824</ele>
        <time>2021-09-12T08:34:40Z</time>
      </trkpt>
      <trkpt lat="48.38355" lon="-3.77603">
        <ele>235.60000610352</ele>
        <time>2021-09-12T08:34:41Z</time>
      </trkpt>
      <trkpt lat="48.38356" lon="-3.77607">
        <ele>235.60000610352</ele>
        <time>2021-09-12T08:34:42Z</time>
      </trkpt>
      <trkpt lat="48.38357" lon="-3.77611">
        <ele>235.80000305176</ele>
        <time>2021-09-12T08:34:43Z</time>
      </trkpt>
      <trkpt lat="48.38358" lon="-3.77616">
        <ele>236.19999694824</ele>
        <time>2021-09-12T08:34:44Z</time>
      </trkpt>
      <trkpt lat="48.3836" lon="-3.77619">
        <ele>236.19999694824</ele>
        <time>2021-09-12T08:34:45Z</time>
      </trkpt>
      <trkpt lat="48.38361" lon="-3.77623">
        <ele>236.19999694824</ele>
        <time>2021-09-12T08:34:46Z</time>
      </trkpt>
      <trkpt lat="48.38363" lon="-3.77627">
        <ele>236.39999389648</ele>
        <time>2021-09-12T08:34:47Z</time>
      </trkpt>
      <trkpt lat="48.38364" lon="-3.77631">
        <ele>236.60000610352</ele>
        <time>2021-09-12T08:34:48Z</time>
      </trkpt>
      <trkpt lat="48.38365" lon="-3.77635">
        <ele>236.80000305176</ele>
        <time>2021-09-12T08:34:49Z</time>
      </trkpt>
      <trkpt lat="48.38367" lon="-3.77639">
        <ele>236.80000305176</ele>
        <time>2021-09-12T08:34:50Z</time>
      </trkpt>
      <trkpt lat="48.38368" lon="-3.77643">
        <ele>237.19999694824</ele>
        <time>2021-09-12T08:34:51Z</time>
      </trkpt>
      <trkpt lat="48.38369" lon="-3.77646">
        <ele>237.19999694824</ele>
        <time>2021-09-12T08:34:52Z</time>
      </trkpt>
      <trkpt lat="48.38371" lon="-3.7765">
        <ele>237.39999389648</ele>
        <time>2021-09-12T08:34:53Z</time>
      </trkpt>
      <trkpt lat="48.38372" lon="-3.77654">
        <ele>237.60000610352</ele>
        <time>2021-09-12T08:34:54Z</time>
      </trkpt>
      <trkpt lat="48.38374" lon="-3.77658">
        <ele>237.60000610352</ele>
        <time>2021-09-12T08:34:55Z</time>
      </trkpt>
      <trkpt lat="48.38376" lon="-3.77662">
        <ele>237.80000305176</ele>
        <time>2021-09-12T08:34:56Z</time>
      </trkpt>
      <trkpt lat="48.38377" lon="-3.77666">
        <ele>237.80000305176</ele>
        <time>2021-09-12T08:34:57Z</time>
      </trkpt>
      <trkpt lat="48.38379" lon="-3.7767">
        <ele>237.80000305176</ele>
        <time>2021-09-12T08:34:58Z</time>
      </trkpt>
      <trkpt lat="48.38381" lon="-3.77674">
        <ele>238.19999694824</ele>
        <time>2021-09-12T08:34:59Z</time>
      </trkpt>
      <trkpt lat="48.38383" lon="-3.77678">
        <ele>238.19999694824</ele>
        <time>2021-09-12T08:35:00Z</time>
      </trkpt>
      <trkpt lat="48.38384" lon="-3.77682">
        <ele>238.19999694824</ele>
        <time>2021-09-12T08:35:01Z</time>
      </trkpt>
      <trkpt lat="48.38387" lon="-3.77686">
        <ele>238.39999389648</ele>
        <time>2021-09-12T08:35:02Z</time>
      </trkpt>
      <trkpt lat="48.38389" lon="-3.7769">
        <ele>238.19999694824</ele>
        <time>2021-09-12T08:35:03Z</time>
      </trkpt>
      <trkpt lat="48.38391" lon="-3.77693">
        <ele>238.39999389648</ele>
        <time>2021-09-12T08:35:04Z</time>
      </trkpt>
      <trkpt lat="48.38394" lon="-3.77697">
        <ele>238.39999389648</ele>
        <time>2021-09-12T08:35:05Z</time>
      </trkpt>
      <trkpt lat="48.38396" lon="-3.777">
        <ele>238.39999389648</ele>
        <time>2021-09-12T08:35:06Z</time>
      </trkpt>
      <trkpt lat="48.38398" lon="-3.77704">
        <ele>238.19999694824</ele>
        <time>2021-09-12T08:35:07Z</time>
      </trkpt>
      <trkpt lat="48.38401" lon="-3.77708">
        <ele>238.39999389648</ele>
        <time>2021-09-12T08:35:08Z</time>
      </trkpt>
      <trkpt lat="48.38404" lon="-3.77711">
        <ele>238.19999694824</ele>
        <time>2021-09-12T08:35:09Z</time>
      </trkpt>
      <trkpt lat="48.38406" lon="-3.77715">
        <ele>238.19999694824</ele>
        <time>2021-09-12T08:35:10Z</time>
      </trkpt>
      <trkpt lat="48.38408" lon="-3.77719">
        <ele>238.19999694824</ele>
        <time>2021-09-12T08:35:11Z</time>
      </trkpt>
      <trkpt lat="48.3841" lon="-3.77722">
        <ele>238.19999694824</ele>
        <time>2021-09-12T08:35:12Z</time>
      </trkpt>
      <trkpt lat="48.38413" lon="-3.77727">
        <ele>238</ele>
        <time>2021-09-12T08:35:13Z</time>
      </trkpt>
      <trkpt lat="48.38416" lon="-3.77732">
        <ele>238</ele>
        <time>2021-09-12T08:35:14Z</time>
      </trkpt>
      <trkpt lat="48.38419" lon="-3.77737">
        <ele>238</ele>
        <time>2021-09-12T08:35:15Z</time>
      </trkpt>
      <trkpt lat="48.38421" lon="-3.77742">
        <ele>238</ele>
        <time>2021-09-12T08:35:16Z</time>
      </trkpt>
      <trkpt lat="48.38423" lon="-3.77747">
        <ele>238</ele>
        <time>2021-09-12T08:35:17Z</time>
      </trkpt>
      <trkpt lat="48.38425" lon="-3.77753">
        <ele>238.19999694824</ele>
        <time>2021-09-12T08:35:18Z</time>
      </trkpt>
      <trkpt lat="48.38425" lon="-3.77759">
        <ele>238.19999694824</ele>
        <time>2021-09-12T08:35:19Z</time>
      </trkpt>
      <trkpt lat="48.38425" lon="-3.77765">
        <ele>238.39999389648</ele>
        <time>2021-09-12T08:35:20Z</time>
      </trkpt>
      <trkpt lat="48.38423" lon="-3.77771">
        <ele>238.39999389648</ele>
        <time>2021-09-12T08:35:21Z</time>
      </trkpt>
      <trkpt lat="48.3842" lon="-3.77776">
        <ele>238.19999694824</ele>
        <time>2021-09-12T08:35:22Z</time>
      </trkpt>
      <trkpt lat="48.38417" lon="-3.77782">
        <ele>238.19999694824</ele>
        <time>2021-09-12T08:35:23Z</time>
      </trkpt>
      <trkpt lat="48.38414" lon="-3.77789">
        <ele>238.19999694824</ele>
        <time>2021-09-12T08:35:24Z</time>
      </trkpt>
      <trkpt lat="48.3841" lon="-3.77795">
        <ele>238.19999694824</ele>
        <time>2021-09-12T08:35:25Z</time>
      </trkpt>
      <trkpt lat="48.38406" lon="-3.77802">
        <ele>238.19999694824</ele>
        <time>2021-09-12T08:35:26Z</time>
      </trkpt>
      <trkpt lat="48.38403" lon="-3.7781">
        <ele>238.19999694824</ele>
        <time>2021-09-12T08:35:27Z</time>
      </trkpt>
      <trkpt lat="48.384" lon="-3.77818">
        <ele>238.19999694824</ele>
        <time>2021-09-12T08:35:28Z</time>
      </trkpt>
      <trkpt lat="48.38397" lon="-3.77825">
        <ele>238.19999694824</ele>
        <time>2021-09-12T08:35:29Z</time>
      </trkpt>
      <trkpt lat="48.38394" lon="-3.77832">
        <ele>238</ele>
        <time>2021-09-12T08:35:30Z</time>
      </trkpt>
      <trkpt lat="48.38391" lon="-3.7784">
        <ele>238</ele>
        <time>2021-09-12T08:35:31Z</time>
      </trkpt>
      <trkpt lat="48.38389" lon="-3.77847">
        <ele>237.80000305176</ele>
        <time>2021-09-12T08:35:32Z</time>
      </trkpt>
      <trkpt lat="48.38386" lon="-3.77855">
        <ele>237.80000305176</ele>
        <time>2021-09-12T08:35:33Z</time>
      </trkpt>
      <trkpt lat="48.38384" lon="-3.77862">
        <ele>237.80000305176</ele>
        <time>2021-09-12T08:35:34Z</time>
      </trkpt>
      <trkpt lat="48.38381" lon="-3.77869">
        <ele>237.60000610352</ele>
        <time>2021-09-12T08:35:35Z</time>
      </trkpt>
      <trkpt lat="48.38379" lon="-3.77877">
        <ele>237.39999389648</ele>
        <time>2021-09-12T08:35:36Z</time>
      </trkpt>
      <trkpt lat="48.38376" lon="-3.77885">
        <ele>237.39999389648</ele>
        <time>2021-09-12T08:35:37Z</time>
      </trkpt>
      <trkpt lat="48.38373" lon="-3.77892">
        <ele>237.19999694824</ele>
        <time>2021-09-12T08:35:38Z</time>
      </trkpt>
      <trkpt lat="48.3837" lon="-3.779">
        <ele>237.19999694824</ele>
        <time>2021-09-12T08:35:39Z</time>
      </trkpt>
      <trkpt lat="48.38367" lon="-3.77908">
        <ele>237.19999694824</ele>
        <time>2021-09-12T08:35:40Z</time>
      </trkpt>
      <trkpt lat="48.38364" lon="-3.77916">
        <ele>236.80000305176</ele>
        <time>2021-09-12T08:35:41Z</time>
      </trkpt>
      <trkpt lat="48.38361" lon="-3.77924">
        <ele>236.60000610352</ele>
        <time>2021-09-12T08:35:42Z</time>
      </trkpt>
      <trkpt lat="48.38359" lon="-3.77932">
        <ele>236.39999389648</ele>
        <time>2021-09-12T08:35:43Z</time>
      </trkpt>
      <trkpt lat="48.3836" lon="-3.77941">
        <ele>236.19999694824</ele>
        <time>2021-09-12T08:35:44Z</time>
      </trkpt>
      <trkpt lat="48.38362" lon="-3.7795">
        <ele>235.60000610352</ele>
        <time>2021-09-12T08:35:45Z</time>
      </trkpt>
      <trkpt lat="48.38366" lon="-3.77957">
        <ele>235.60000610352</ele>
        <time>2021-09-12T08:35:46Z</time>
      </trkpt>
      <trkpt lat="48.38372" lon="-3.77962">
        <ele>235.39999389648</ele>
        <time>2021-09-12T08:35:47Z</time>
      </trkpt>
      <trkpt lat="48.38378" lon="-3.77967">
        <ele>235.39999389648</ele>
        <time>2021-09-12T08:35:48Z</time>
      </trkpt>
      <trkpt lat="48.38384" lon="-3.77971">
        <ele>234.80000305176</ele>
        <time>2021-09-12T08:35:49Z</time>
      </trkpt>
      <trkpt lat="48.3839" lon="-3.77976">
        <ele>234</ele>
        <time>2021-09-12T08:35:50Z</time>
      </trkpt>
      <trkpt lat="48.38395" lon="-3.77981">
        <ele>234</ele>
        <time>2021-09-12T08:35:51Z</time>
      </trkpt>
      <trkpt lat="48.384" lon="-3.77985">
        <ele>233.80000305176</ele>
        <time>2021-09-12T08:35:52Z</time>
      </trkpt>
      <trkpt lat="48.384" lon="-3.77985">
        <ele>233.80000305176</ele>
        <time>2021-09-12T08:35:53Z</time>
      </trkpt>
      <trkpt lat="48.38412" lon="-3.77996">
        <ele>233.80000305176</ele>
        <time>2021-09-12T08:35:54Z</time>
      </trkpt>
      <trkpt lat="48.38417" lon="-3.78002">
        <ele>233.80000305176</ele>
        <time>2021-09-12T08:35:55Z</time>
      </trkpt>
      <trkpt lat="48.38421" lon="-3.78008">
        <ele>233.80000305176</ele>
        <time>2021-09-12T08:35:56Z</time>
      </trkpt>
      <trkpt lat="48.38426" lon="-3.78014">
        <ele>233.80000305176</ele>
        <time>2021-09-12T08:35:57Z</time>
      </trkpt>
      <trkpt lat="48.38431" lon="-3.7802">
        <ele>233.80000305176</ele>
        <time>2021-09-12T08:35:58Z</time>
      </trkpt>
      <trkpt lat="48.38435" lon="-3.78025">
        <ele>234</ele>
        <time>2021-09-12T08:35:59Z</time>
      </trkpt>
      <trkpt lat="48.3844" lon="-3.78031">
        <ele>234.19999694824</ele>
        <time>2021-09-12T08:36:00Z</time>
      </trkpt>
      <trkpt lat="48.38444" lon="-3.78037">
        <ele>234.19999694824</ele>
        <time>2021-09-12T08:36:01Z</time>
      </trkpt>
      <trkpt lat="48.38449" lon="-3.78043">
        <ele>234.80000305176</ele>
        <time>2021-09-12T08:36:02Z</time>
      </trkpt>
      <trkpt lat="48.38453" lon="-3.78049">
        <ele>234.80000305176</ele>
        <time>2021-09-12T08:36:03Z</time>
      </trkpt>
      <trkpt lat="48.38457" lon="-3.78055">
        <ele>235</ele>
        <time>2021-09-12T08:36:04Z</time>
      </trkpt>
      <trkpt lat="48.38461" lon="-3.78061">
        <ele>235.19999694824</ele>
        <time>2021-09-12T08:36:05Z</time>
      </trkpt>
      <trkpt lat="48.38465" lon="-3.78067">
        <ele>235.19999694824</ele>
        <time>2021-09-12T08:36:06Z</time>
      </trkpt>
      <trkpt lat="48.38469" lon="-3.78073">
        <ele>235.19999694824</ele>
        <time>2021-09-12T08:36:07Z</time>
      </trkpt>
      <trkpt lat="48.38473" lon="-3.78078">
        <ele>236</ele>
        <time>2021-09-12T08:36:08Z</time>
      </trkpt>
      <trkpt lat="48.38477" lon="-3.78084">
        <ele>236.19999694824</ele>
        <time>2021-09-12T08:36:09Z</time>
      </trkpt>
      <trkpt lat="48.3848" lon="-3.78089">
        <ele>236.39999389648</ele>
        <time>2021-09-12T08:36:10Z</time>
      </trkpt>
      <trkpt lat="48.38484" lon="-3.78094">
        <ele>236.60000610352</ele>
        <time>2021-09-12T08:36:11Z</time>
      </trkpt>
      <trkpt lat="48.38487" lon="-3.78099">
        <ele>237</ele>
        <time>2021-09-12T08:36:12Z</time>
      </trkpt>
      <trkpt lat="48.38491" lon="-3.78104">
        <ele>237</ele>
        <time>2021-09-12T08:36:13Z</time>
      </trkpt>
      <trkpt lat="48.38494" lon="-3.78108">
        <ele>237.19999694824</ele>
        <time>2021-09-12T08:36:14Z</time>
      </trkpt>
      <trkpt lat="48.38498" lon="-3.78114">
        <ele>237.19999694824</ele>
        <time>2021-09-12T08:36:15Z</time>
      </trkpt>
      <trkpt lat="48.38501" lon="-3.78118">
        <ele>237.60000610352</ele>
        <time>2021-09-12T08:36:16Z</time>
      </trkpt>
      <trkpt lat="48.38504" lon="-3.78123">
        <ele>238</ele>
        <time>2021-09-12T08:36:17Z</time>
      </trkpt>
      <trkpt lat="48.38507" lon="-3.78128">
        <ele>238.19999694824</ele>
        <time>2021-09-12T08:36:18Z</time>
      </trkpt>
      <trkpt lat="48.3851" lon="-3.78133">
        <ele>238.39999389648</ele>
        <time>2021-09-12T08:36:19Z</time>
      </trkpt>
      <trkpt lat="48.38513" lon="-3.78139">
        <ele>238.39999389648</ele>
        <time>2021-09-12T08:36:20Z</time>
      </trkpt>
      <trkpt lat="48.38515" lon="-3.78144">
        <ele>238.60000610352</ele>
        <time>2021-09-12T08:36:21Z</time>
      </trkpt>
      <trkpt lat="48.38517" lon="-3.7815">
        <ele>239</ele>
        <time>2021-09-12T08:36:22Z</time>
      </trkpt>
      <trkpt lat="48.38519" lon="-3.78156">
        <ele>239</ele>
        <time>2021-09-12T08:36:23Z</time>
      </trkpt>
      <trkpt lat="48.38521" lon="-3.78163">
        <ele>239.39999389648</ele>
        <time>2021-09-12T08:36:24Z</time>
      </trkpt>
      <trkpt lat="48.38523" lon="-3.78169">
        <ele>239.39999389648</ele>
        <time>2021-09-12T08:36:25Z</time>
      </trkpt>
      <trkpt lat="48.38524" lon="-3.78175">
        <ele>239.60000610352</ele>
        <time>2021-09-12T08:36:26Z</time>
      </trkpt>
      <trkpt lat="48.38525" lon="-3.78182">
        <ele>240</ele>
        <time>2021-09-12T08:36:27Z</time>
      </trkpt>
      <trkpt lat="48.38527" lon="-3.78189">
        <ele>240.19999694824</ele>
        <time>2021-09-12T08:36:28Z</time>
      </trkpt>
      <trkpt lat="48.38528" lon="-3.78195">
        <ele>240.39999389648</ele>
        <time>2021-09-12T08:36:29Z</time>
      </trkpt>
      <trkpt lat="48.3853" lon="-3.78202">
        <ele>240.39999389648</ele>
        <time>2021-09-12T08:36:30Z</time>
      </trkpt>
      <trkpt lat="48.38531" lon="-3.78208">
        <ele>240.60000610352</ele>
        <time>2021-09-12T08:36:31Z</time>
      </trkpt>
      <trkpt lat="48.38531" lon="-3.78208">
        <ele>241</ele>
        <time>2021-09-12T08:36:32Z</time>
      </trkpt>
      <trkpt lat="48.38534" lon="-3.78222">
        <ele>241</ele>
        <time>2021-09-12T08:36:33Z</time>
      </trkpt>
      <trkpt lat="48.38536" lon="-3.78229">
        <ele>241</ele>
        <time>2021-09-12T08:36:34Z</time>
      </trkpt>
      <trkpt lat="48.38538" lon="-3.78235">
        <ele>241.39999389648</ele>
        <time>2021-09-12T08:36:35Z</time>
      </trkpt>
      <trkpt lat="48.38539" lon="-3.78242">
        <ele>241.60000610352</ele>
        <time>2021-09-12T08:36:36Z</time>
      </trkpt>
      <trkpt lat="48.38541" lon="-3.78249">
        <ele>241.80000305176</ele>
        <time>2021-09-12T08:36:37Z</time>
      </trkpt>
      <trkpt lat="48.38543" lon="-3.78255">
        <ele>242.19999694824</ele>
        <time>2021-09-12T08:36:38Z</time>
      </trkpt>
      <trkpt lat="48.38545" lon="-3.78262">
        <ele>242.39999389648</ele>
        <time>2021-09-12T08:36:39Z</time>
      </trkpt>
      <trkpt lat="48.38547" lon="-3.78268">
        <ele>242.60000610352</ele>
        <time>2021-09-12T08:36:40Z</time>
      </trkpt>
      <trkpt lat="48.38549" lon="-3.78274">
        <ele>243</ele>
        <time>2021-09-12T08:36:41Z</time>
      </trkpt>
      <trkpt lat="48.38551" lon="-3.78281">
        <ele>243</ele>
        <time>2021-09-12T08:36:42Z</time>
      </trkpt>
      <trkpt lat="48.38552" lon="-3.78288">
        <ele>243</ele>
        <time>2021-09-12T08:36:43Z</time>
      </trkpt>
      <trkpt lat="48.38554" lon="-3.78294">
        <ele>243.60000610352</ele>
        <time>2021-09-12T08:36:44Z</time>
      </trkpt>
      <trkpt lat="48.38555" lon="-3.78301">
        <ele>243.60000610352</ele>
        <time>2021-09-12T08:36:45Z</time>
      </trkpt>
      <trkpt lat="48.38557" lon="-3.78307">
        <ele>244</ele>
        <time>2021-09-12T08:36:46Z</time>
      </trkpt>
      <trkpt lat="48.38559" lon="-3.78314">
        <ele>244.19999694824</ele>
        <time>2021-09-12T08:36:47Z</time>
      </trkpt>
      <trkpt lat="48.3856" lon="-3.7832">
        <ele>244.19999694824</ele>
        <time>2021-09-12T08:36:48Z</time>
      </trkpt>
      <trkpt lat="48.38562" lon="-3.78327">
        <ele>244.60000610352</ele>
        <time>2021-09-12T08:36:49Z</time>
      </trkpt>
      <trkpt lat="48.38563" lon="-3.78333">
        <ele>244.80000305176</ele>
        <time>2021-09-12T08:36:50Z</time>
      </trkpt>
      <trkpt lat="48.38565" lon="-3.7834">
        <ele>244.80000305176</ele>
        <time>2021-09-12T08:36:51Z</time>
      </trkpt>
      <trkpt lat="48.38566" lon="-3.78346">
        <ele>245.19999694824</ele>
        <time>2021-09-12T08:36:52Z</time>
      </trkpt>
      <trkpt lat="48.38568" lon="-3.78353">
        <ele>245.39999389648</ele>
        <time>2021-09-12T08:36:53Z</time>
      </trkpt>
      <trkpt lat="48.3857" lon="-3.78359">
        <ele>245.39999389648</ele>
        <time>2021-09-12T08:36:54Z</time>
      </trkpt>
      <trkpt lat="48.38572" lon="-3.78366">
        <ele>245.60000610352</ele>
        <time>2021-09-12T08:36:55Z</time>
      </trkpt>
      <trkpt lat="48.38574" lon="-3.78373">
        <ele>245.80000305176</ele>
        <time>2021-09-12T08:36:56Z</time>
      </trkpt>
      <trkpt lat="48.38575" lon="-3.7838">
        <ele>246</ele>
        <time>2021-09-12T08:36:57Z</time>
      </trkpt>
      <trkpt lat="48.38577" lon="-3.78386">
        <ele>246.19999694824</ele>
        <time>2021-09-12T08:36:58Z</time>
      </trkpt>
      <trkpt lat="48.38579" lon="-3.78393">
        <ele>246.39999389648</ele>
        <time>2021-09-12T08:36:59Z</time>
      </trkpt>
      <trkpt lat="48.38581" lon="-3.78399">
        <ele>246.80000305176</ele>
        <time>2021-09-12T08:37:00Z</time>
      </trkpt>
      <trkpt lat="48.38582" lon="-3.78406">
        <ele>246.80000305176</ele>
        <time>2021-09-12T08:37:01Z</time>
      </trkpt>
      <trkpt lat="48.38584" lon="-3.78413">
        <ele>247.19999694824</ele>
        <time>2021-09-12T08:37:02Z</time>
      </trkpt>
      <trkpt lat="48.38586" lon="-3.7842">
        <ele>247.19999694824</ele>
        <time>2021-09-12T08:37:03Z</time>
      </trkpt>
      <trkpt lat="48.38588" lon="-3.78426">
        <ele>247.39999389648</ele>
        <time>2021-09-12T08:37:04Z</time>
      </trkpt>
      <trkpt lat="48.3859" lon="-3.78433">
        <ele>247.60000610352</ele>
        <time>2021-09-12T08:37:05Z</time>
      </trkpt>
      <trkpt lat="48.38592" lon="-3.7844">
        <ele>248</ele>
        <time>2021-09-12T08:37:06Z</time>
      </trkpt>
      <trkpt lat="48.38594" lon="-3.78447">
        <ele>248</ele>
        <time>2021-09-12T08:37:07Z</time>
      </trkpt>
      <trkpt lat="48.38596" lon="-3.78454">
        <ele>248.19999694824</ele>
        <time>2021-09-12T08:37:08Z</time>
      </trkpt>
      <trkpt lat="48.38598" lon="-3.7846">
        <ele>248.39999389648</ele>
        <time>2021-09-12T08:37:09Z</time>
      </trkpt>
      <trkpt lat="48.386" lon="-3.78467">
        <ele>248.39999389648</ele>
        <time>2021-09-12T08:37:10Z</time>
      </trkpt>
      <trkpt lat="48.38602" lon="-3.78474">
        <ele>248.60000610352</ele>
        <time>2021-09-12T08:37:11Z</time>
      </trkpt>
      <trkpt lat="48.38605" lon="-3.7848">
        <ele>248.60000610352</ele>
        <time>2021-09-12T08:37:12Z</time>
      </trkpt>
      <trkpt lat="48.38607" lon="-3.78487">
        <ele>248.60000610352</ele>
        <time>2021-09-12T08:37:13Z</time>
      </trkpt>
      <trkpt lat="48.3861" lon="-3.78494">
        <ele>248.60000610352</ele>
        <time>2021-09-12T08:37:14Z</time>
      </trkpt>
      <trkpt lat="48.38613" lon="-3.78501">
        <ele>248.80000305176</ele>
        <time>2021-09-12T08:37:15Z</time>
      </trkpt>
      <trkpt lat="48.38616" lon="-3.78507">
        <ele>248.80000305176</ele>
        <time>2021-09-12T08:37:16Z</time>
      </trkpt>
      <trkpt lat="48.38619" lon="-3.78514">
        <ele>248.80000305176</ele>
        <time>2021-09-12T08:37:17Z</time>
      </trkpt>
      <trkpt lat="48.38622" lon="-3.7852">
        <ele>248.80000305176</ele>
        <time>2021-09-12T08:37:18Z</time>
      </trkpt>
      <trkpt lat="48.38625" lon="-3.78525">
        <ele>248.80000305176</ele>
        <time>2021-09-12T08:37:19Z</time>
      </trkpt>
      <trkpt lat="48.38628" lon="-3.78532">
        <ele>248.80000305176</ele>
        <time>2021-09-12T08:37:20Z</time>
      </trkpt>
      <trkpt lat="48.38631" lon="-3.78538">
        <ele>248.80000305176</ele>
        <time>2021-09-12T08:37:21Z</time>
      </trkpt>
      <trkpt lat="48.38634" lon="-3.78544">
        <ele>248.80000305176</ele>
        <time>2021-09-12T08:37:22Z</time>
      </trkpt>
      <trkpt lat="48.38638" lon="-3.78551">
        <ele>248.80000305176</ele>
        <time>2021-09-12T08:37:23Z</time>
      </trkpt>
      <trkpt lat="48.38642" lon="-3.78558">
        <ele>248.80000305176</ele>
        <time>2021-09-12T08:37:24Z</time>
      </trkpt>
      <trkpt lat="48.38646" lon="-3.78565">
        <ele>248.80000305176</ele>
        <time>2021-09-12T08:37:25Z</time>
      </trkpt>
      <trkpt lat="48.38649" lon="-3.78571">
        <ele>248.80000305176</ele>
        <time>2021-09-12T08:37:26Z</time>
      </trkpt>
      <trkpt lat="48.38653" lon="-3.78578">
        <ele>248.80000305176</ele>
        <time>2021-09-12T08:37:27Z</time>
      </trkpt>
      <trkpt lat="48.38657" lon="-3.78584">
        <ele>248.60000610352</ele>
        <time>2021-09-12T08:37:28Z</time>
      </trkpt>
      <trkpt lat="48.3866" lon="-3.78591">
        <ele>248.60000610352</ele>
        <time>2021-09-12T08:37:29Z</time>
      </trkpt>
      <trkpt lat="48.38664" lon="-3.78599">
        <ele>248.60000610352</ele>
        <time>2021-09-12T08:37:30Z</time>
      </trkpt>
      <trkpt lat="48.38668" lon="-3.78606">
        <ele>248.60000610352</ele>
        <time>2021-09-12T08:37:31Z</time>
      </trkpt>
      <trkpt lat="48.38673" lon="-3.78614">
        <ele>248.60000610352</ele>
        <time>2021-09-12T08:37:32Z</time>
      </trkpt>
      <trkpt lat="48.38676" lon="-3.78622">
        <ele>248.39999389648</ele>
        <time>2021-09-12T08:37:33Z</time>
      </trkpt>
      <trkpt lat="48.38681" lon="-3.78629">
        <ele>248.39999389648</ele>
        <time>2021-09-12T08:37:34Z</time>
      </trkpt>
      <trkpt lat="48.38685" lon="-3.78635">
        <ele>248.39999389648</ele>
        <time>2021-09-12T08:37:35Z</time>
      </trkpt>
      <trkpt lat="48.3869" lon="-3.78643">
        <ele>248.19999694824</ele>
        <time>2021-09-12T08:37:36Z</time>
      </trkpt>
      <trkpt lat="48.38695" lon="-3.7865">
        <ele>248.19999694824</ele>
        <time>2021-09-12T08:37:37Z</time>
      </trkpt>
      <trkpt lat="48.387" lon="-3.78657">
        <ele>248.19999694824</ele>
        <time>2021-09-12T08:37:38Z</time>
      </trkpt>
      <trkpt lat="48.38704" lon="-3.78664">
        <ele>247.80000305176</ele>
        <time>2021-09-12T08:37:39Z</time>
      </trkpt>
      <trkpt lat="48.38709" lon="-3.78671">
        <ele>247.80000305176</ele>
        <time>2021-09-12T08:37:40Z</time>
      </trkpt>
      <trkpt lat="48.38714" lon="-3.78679">
        <ele>247.80000305176</ele>
        <time>2021-09-12T08:37:41Z</time>
      </trkpt>
      <trkpt lat="48.3872" lon="-3.78685">
        <ele>247.39999389648</ele>
        <time>2021-09-12T08:37:42Z</time>
      </trkpt>
      <trkpt lat="48.38726" lon="-3.7869">
        <ele>247.39999389648</ele>
        <time>2021-09-12T08:37:43Z</time>
      </trkpt>
      <trkpt lat="48.38732" lon="-3.78696">
        <ele>247.39999389648</ele>
        <time>2021-09-12T08:37:44Z</time>
      </trkpt>
      <trkpt lat="48.38738" lon="-3.78701">
        <ele>247.19999694824</ele>
        <time>2021-09-12T08:37:45Z</time>
      </trkpt>
      <trkpt lat="48.38744" lon="-3.78706">
        <ele>247.19999694824</ele>
        <time>2021-09-12T08:37:46Z</time>
      </trkpt>
      <trkpt lat="48.3875" lon="-3.7871">
        <ele>247.19999694824</ele>
        <time>2021-09-12T08:37:47Z</time>
      </trkpt>
      <trkpt lat="48.38756" lon="-3.78715">
        <ele>247.19999694824</ele>
        <time>2021-09-12T08:37:48Z</time>
      </trkpt>
      <trkpt lat="48.38762" lon="-3.78719">
        <ele>247.19999694824</ele>
        <time>2021-09-12T08:37:49Z</time>
      </trkpt>
      <trkpt lat="48.38768" lon="-3.78723">
        <ele>247.19999694824</ele>
        <time>2021-09-12T08:37:50Z</time>
      </trkpt>
      <trkpt lat="48.38774" lon="-3.78726">
        <ele>247.19999694824</ele>
        <time>2021-09-12T08:37:51Z</time>
      </trkpt>
      <trkpt lat="48.3878" lon="-3.7873">
        <ele>247.19999694824</ele>
        <time>2021-09-12T08:37:52Z</time>
      </trkpt>
      <trkpt lat="48.38786" lon="-3.78734">
        <ele>247.19999694824</ele>
        <time>2021-09-12T08:37:53Z</time>
      </trkpt>
      <trkpt lat="48.38792" lon="-3.78737">
        <ele>247</ele>
        <time>2021-09-12T08:37:54Z</time>
      </trkpt>
      <trkpt lat="48.38799" lon="-3.78741">
        <ele>247</ele>
        <time>2021-09-12T08:37:55Z</time>
      </trkpt>
      <trkpt lat="48.38805" lon="-3.78744">
        <ele>246.80000305176</ele>
        <time>2021-09-12T08:37:56Z</time>
      </trkpt>
      <trkpt lat="48.38811" lon="-3.78747">
        <ele>246.80000305176</ele>
        <time>2021-09-12T08:37:57Z</time>
      </trkpt>
      <trkpt lat="48.38817" lon="-3.7875">
        <ele>246.80000305176</ele>
        <time>2021-09-12T08:37:58Z</time>
      </trkpt>
      <trkpt lat="48.38823" lon="-3.78753">
        <ele>246.80000305176</ele>
        <time>2021-09-12T08:37:59Z</time>
      </trkpt>
      <trkpt lat="48.38829" lon="-3.78757">
        <ele>246.80000305176</ele>
        <time>2021-09-12T08:38:00Z</time>
      </trkpt>
      <trkpt lat="48.38836" lon="-3.7876">
        <ele>246.80000305176</ele>
        <time>2021-09-12T08:38:01Z</time>
      </trkpt>
      <trkpt lat="48.38842" lon="-3.78763">
        <ele>246.80000305176</ele>
        <time>2021-09-12T08:38:02Z</time>
      </trkpt>
      <trkpt lat="48.38848" lon="-3.78767">
        <ele>246.80000305176</ele>
        <time>2021-09-12T08:38:03Z</time>
      </trkpt>
      <trkpt lat="48.38854" lon="-3.78771">
        <ele>246.80000305176</ele>
        <time>2021-09-12T08:38:04Z</time>
      </trkpt>
      <trkpt lat="48.38859" lon="-3.78776">
        <ele>246.80000305176</ele>
        <time>2021-09-12T08:38:05Z</time>
      </trkpt>
      <trkpt lat="48.38864" lon="-3.78781">
        <ele>247</ele>
        <time>2021-09-12T08:38:06Z</time>
      </trkpt>
      <trkpt lat="48.38869" lon="-3.78787">
        <ele>247</ele>
        <time>2021-09-12T08:38:07Z</time>
      </trkpt>
      <trkpt lat="48.38873" lon="-3.78792">
        <ele>247.19999694824</ele>
        <time>2021-09-12T08:38:08Z</time>
      </trkpt>
      <trkpt lat="48.38878" lon="-3.78798">
        <ele>247.19999694824</ele>
        <time>2021-09-12T08:38:09Z</time>
      </trkpt>
      <trkpt lat="48.38882" lon="-3.78803">
        <ele>247.39999389648</ele>
        <time>2021-09-12T08:38:10Z</time>
      </trkpt>
      <trkpt lat="48.38887" lon="-3.78809">
        <ele>247.39999389648</ele>
        <time>2021-09-12T08:38:11Z</time>
      </trkpt>
      <trkpt lat="48.38891" lon="-3.78815">
        <ele>247.39999389648</ele>
        <time>2021-09-12T08:38:12Z</time>
      </trkpt>
      <trkpt lat="48.38896" lon="-3.78821">
        <ele>247.60000610352</ele>
        <time>2021-09-12T08:38:13Z</time>
      </trkpt>
      <trkpt lat="48.389" lon="-3.78828">
        <ele>247.60000610352</ele>
        <time>2021-09-12T08:38:14Z</time>
      </trkpt>
      <trkpt lat="48.38904" lon="-3.78834">
        <ele>247.60000610352</ele>
        <time>2021-09-12T08:38:15Z</time>
      </trkpt>
      <trkpt lat="48.38908" lon="-3.7884">
        <ele>247.60000610352</ele>
        <time>2021-09-12T08:38:16Z</time>
      </trkpt>
      <trkpt lat="48.38913" lon="-3.78846">
        <ele>247.60000610352</ele>
        <time>2021-09-12T08:38:17Z</time>
      </trkpt>
      <trkpt lat="48.38917" lon="-3.78851">
        <ele>247.60000610352</ele>
        <time>2021-09-12T08:38:18Z</time>
      </trkpt>
      <trkpt lat="48.38921" lon="-3.78857">
        <ele>247.39999389648</ele>
        <time>2021-09-12T08:38:19Z</time>
      </trkpt>
      <trkpt lat="48.38924" lon="-3.78863">
        <ele>247.39999389648</ele>
        <time>2021-09-12T08:38:20Z</time>
      </trkpt>
      <trkpt lat="48.38925" lon="-3.78869">
        <ele>247.60000610352</ele>
        <time>2021-09-12T08:38:21Z</time>
      </trkpt>
      <trkpt lat="48.38925" lon="-3.78876">
        <ele>247.39999389648</ele>
        <time>2021-09-12T08:38:22Z</time>
      </trkpt>
      <trkpt lat="48.38924" lon="-3.78882">
        <ele>247.39999389648</ele>
        <time>2021-09-12T08:38:23Z</time>
      </trkpt>
      <trkpt lat="48.38922" lon="-3.78886">
        <ele>247.39999389648</ele>
        <time>2021-09-12T08:38:24Z</time>
      </trkpt>
      <trkpt lat="48.38919" lon="-3.78891">
        <ele>247.60000610352</ele>
        <time>2021-09-12T08:38:25Z</time>
      </trkpt>
      <trkpt lat="48.38916" lon="-3.78895">
        <ele>247.60000610352</ele>
        <time>2021-09-12T08:38:26Z</time>
      </trkpt>
      <trkpt lat="48.38913" lon="-3.78899">
        <ele>247.60000610352</ele>
        <time>2021-09-12T08:38:27Z</time>
      </trkpt>
      <trkpt lat="48.3891" lon="-3.78904">
        <ele>247.39999389648</ele>
        <time>2021-09-12T08:38:28Z</time>
      </trkpt>
      <trkpt lat="48.38907" lon="-3.78909">
        <ele>247.39999389648</ele>
        <time>2021-09-12T08:38:29Z</time>
      </trkpt>
      <trkpt lat="48.38903" lon="-3.78915">
        <ele>247.39999389648</ele>
        <time>2021-09-12T08:38:30Z</time>
      </trkpt>
      <trkpt lat="48.389" lon="-3.7892">
        <ele>247.39999389648</ele>
        <time>2021-09-12T08:38:31Z</time>
      </trkpt>
      <trkpt lat="48.38897" lon="-3.78925">
        <ele>247.19999694824</ele>
        <time>2021-09-12T08:38:32Z</time>
      </trkpt>
      <trkpt lat="48.38893" lon="-3.78931">
        <ele>247.19999694824</ele>
        <time>2021-09-12T08:38:33Z</time>
      </trkpt>
      <trkpt lat="48.38889" lon="-3.78935">
        <ele>247.19999694824</ele>
        <time>2021-09-12T08:38:34Z</time>
      </trkpt>
      <trkpt lat="48.38886" lon="-3.7894">
        <ele>247.19999694824</ele>
        <time>2021-09-12T08:38:35Z</time>
      </trkpt>
      <trkpt lat="48.38884" lon="-3.78945">
        <ele>247</ele>
        <time>2021-09-12T08:38:36Z</time>
      </trkpt>
      <trkpt lat="48.3888" lon="-3.7895">
        <ele>247</ele>
        <time>2021-09-12T08:38:37Z</time>
      </trkpt>
      <trkpt lat="48.38876" lon="-3.78956">
        <ele>247</ele>
        <time>2021-09-12T08:38:38Z</time>
      </trkpt>
      <trkpt lat="48.38871" lon="-3.78961">
        <ele>247</ele>
        <time>2021-09-12T08:38:39Z</time>
      </trkpt>
      <trkpt lat="48.38867" lon="-3.78966">
        <ele>247</ele>
        <time>2021-09-12T08:38:40Z</time>
      </trkpt>
      <trkpt lat="48.38863" lon="-3.78972">
        <ele>246.39999389648</ele>
        <time>2021-09-12T08:38:41Z</time>
      </trkpt>
      <trkpt lat="48.38861" lon="-3.78977">
        <ele>246.39999389648</ele>
        <time>2021-09-12T08:38:42Z</time>
      </trkpt>
      <trkpt lat="48.38857" lon="-3.78983">
        <ele>246.39999389648</ele>
        <time>2021-09-12T08:38:43Z</time>
      </trkpt>
      <trkpt lat="48.38853" lon="-3.7899">
        <ele>246</ele>
        <time>2021-09-12T08:38:44Z</time>
      </trkpt>
      <trkpt lat="48.38848" lon="-3.78996">
        <ele>246</ele>
        <time>2021-09-12T08:38:45Z</time>
      </trkpt>
      <trkpt lat="48.38842" lon="-3.79002">
        <ele>246</ele>
        <time>2021-09-12T08:38:46Z</time>
      </trkpt>
      <trkpt lat="48.38836" lon="-3.79009">
        <ele>245.80000305176</ele>
        <time>2021-09-12T08:38:47Z</time>
      </trkpt>
      <trkpt lat="48.38832" lon="-3.79016">
        <ele>245.39999389648</ele>
        <time>2021-09-12T08:38:48Z</time>
      </trkpt>
      <trkpt lat="48.38826" lon="-3.79024">
        <ele>245.19999694824</ele>
        <time>2021-09-12T08:38:49Z</time>
      </trkpt>
      <trkpt lat="48.3882" lon="-3.79032">
        <ele>245</ele>
        <time>2021-09-12T08:38:50Z</time>
      </trkpt>
      <trkpt lat="48.38813" lon="-3.7904">
        <ele>244.19999694824</ele>
        <time>2021-09-12T08:38:51Z</time>
      </trkpt>
      <trkpt lat="48.38808" lon="-3.79047">
        <ele>244.19999694824</ele>
        <time>2021-09-12T08:38:52Z</time>
      </trkpt>
      <trkpt lat="48.38804" lon="-3.79053">
        <ele>244.19999694824</ele>
        <time>2021-09-12T08:38:53Z</time>
      </trkpt>
      <trkpt lat="48.38799" lon="-3.7906">
        <ele>243.39999389648</ele>
        <time>2021-09-12T08:38:54Z</time>
      </trkpt>
      <trkpt lat="48.38794" lon="-3.79068">
        <ele>243.19999694824</ele>
        <time>2021-09-12T08:38:55Z</time>
      </trkpt>
      <trkpt lat="48.38788" lon="-3.79076">
        <ele>243</ele>
        <time>2021-09-12T08:38:56Z</time>
      </trkpt>
      <trkpt lat="48.38783" lon="-3.79083">
        <ele>242</ele>
        <time>2021-09-12T08:38:57Z</time>
      </trkpt>
      <trkpt lat="48.38776" lon="-3.79092">
        <ele>241.80000305176</ele>
        <time>2021-09-12T08:38:58Z</time>
      </trkpt>
      <trkpt lat="48.3877" lon="-3.79099">
        <ele>241.60000610352</ele>
        <time>2021-09-12T08:38:59Z</time>
      </trkpt>
      <trkpt lat="48.38763" lon="-3.79108">
        <ele>241</ele>
        <time>2021-09-12T08:39:00Z</time>
      </trkpt>
      <trkpt lat="48.38755" lon="-3.79118">
        <ele>240.19999694824</ele>
        <time>2021-09-12T08:39:01Z</time>
      </trkpt>
      <trkpt lat="48.38749" lon="-3.79125">
        <ele>240.19999694824</ele>
        <time>2021-09-12T08:39:02Z</time>
      </trkpt>
      <trkpt lat="48.38742" lon="-3.79133">
        <ele>240</ele>
        <time>2021-09-12T08:39:03Z</time>
      </trkpt>
      <trkpt lat="48.38735" lon="-3.7914">
        <ele>240</ele>
        <time>2021-09-12T08:39:04Z</time>
      </trkpt>
      <trkpt lat="48.38728" lon="-3.79146">
        <ele>238.80000305176</ele>
        <time>2021-09-12T08:39:05Z</time>
      </trkpt>
      <trkpt lat="48.3872" lon="-3.79152">
        <ele>238.80000305176</ele>
        <time>2021-09-12T08:39:06Z</time>
      </trkpt>
      <trkpt lat="48.38713" lon="-3.79156">
        <ele>238.60000610352</ele>
        <time>2021-09-12T08:39:07Z</time>
      </trkpt>
      <trkpt lat="48.38708" lon="-3.7916">
        <ele>238.60000610352</ele>
        <time>2021-09-12T08:39:08Z</time>
      </trkpt>
      <trkpt lat="48.38704" lon="-3.79165">
        <ele>238.60000610352</ele>
        <time>2021-09-12T08:39:09Z</time>
      </trkpt>
      <trkpt lat="48.38699" lon="-3.79168">
        <ele>238.39999389648</ele>
        <time>2021-09-12T08:39:10Z</time>
      </trkpt>
      <trkpt lat="48.38694" lon="-3.79171">
        <ele>238.39999389648</ele>
        <time>2021-09-12T08:39:11Z</time>
      </trkpt>
      <trkpt lat="48.3869" lon="-3.79176">
        <ele>238.39999389648</ele>
        <time>2021-09-12T08:39:12Z</time>
      </trkpt>
      <trkpt lat="48.38688" lon="-3.7918">
        <ele>238.60000610352</ele>
        <time>2021-09-12T08:39:13Z</time>
      </trkpt>
      <trkpt lat="48.38686" lon="-3.7918">
        <ele>239</ele>
        <time>2021-09-12T08:39:14Z</time>
      </trkpt>
      <trkpt lat="48.38683" lon="-3.79179">
        <ele>239</ele>
        <time>2021-09-12T08:39:15Z</time>
      </trkpt>
      <trkpt lat="48.38681" lon="-3.79177">
        <ele>239.19999694824</ele>
        <time>2021-09-12T08:39:16Z</time>
      </trkpt>
      <trkpt lat="48.38678" lon="-3.79175">
        <ele>239.39999389648</ele>
        <time>2021-09-12T08:39:17Z</time>
      </trkpt>
      <trkpt lat="48.38675" lon="-3.79174">
        <ele>239.39999389648</ele>
        <time>2021-09-12T08:39:18Z</time>
      </trkpt>
      <trkpt lat="48.38672" lon="-3.79173">
        <ele>239.39999389648</ele>
        <time>2021-09-12T08:39:19Z</time>
      </trkpt>
      <trkpt lat="48.38669" lon="-3.79172">
        <ele>239.39999389648</ele>
        <time>2021-09-12T08:39:20Z</time>
      </trkpt>
      <trkpt lat="48.38666" lon="-3.79171">
        <ele>239.80000305176</ele>
        <time>2021-09-12T08:39:21Z</time>
      </trkpt>
      <trkpt lat="48.38662" lon="-3.79171">
        <ele>239.80000305176</ele>
        <time>2021-09-12T08:39:22Z</time>
      </trkpt>
      <trkpt lat="48.38658" lon="-3.79169">
        <ele>240</ele>
        <time>2021-09-12T08:39:23Z</time>
      </trkpt>
      <trkpt lat="48.38654" lon="-3.79167">
        <ele>240.19999694824</ele>
        <time>2021-09-12T08:39:24Z</time>
      </trkpt>
      <trkpt lat="48.3865" lon="-3.79165">
        <ele>240.19999694824</ele>
        <time>2021-09-12T08:39:25Z</time>
      </trkpt>
      <trkpt lat="48.38646" lon="-3.79163">
        <ele>240.39999389648</ele>
        <time>2021-09-12T08:39:26Z</time>
      </trkpt>
      <trkpt lat="48.38643" lon="-3.79161">
        <ele>240.60000610352</ele>
        <time>2021-09-12T08:39:27Z</time>
      </trkpt>
      <trkpt lat="48.38641" lon="-3.79159">
        <ele>240.80000305176</ele>
        <time>2021-09-12T08:39:28Z</time>
      </trkpt>
      <trkpt lat="48.38638" lon="-3.79158">
        <ele>240.80000305176</ele>
        <time>2021-09-12T08:39:29Z</time>
      </trkpt>
      <trkpt lat="48.38634" lon="-3.79157">
        <ele>240.80000305176</ele>
        <time>2021-09-12T08:39:30Z</time>
      </trkpt>
      <trkpt lat="48.38629" lon="-3.79155">
        <ele>241</ele>
        <time>2021-09-12T08:39:31Z</time>
      </trkpt>
      <trkpt lat="48.38624" lon="-3.79153">
        <ele>241</ele>
        <time>2021-09-12T08:39:32Z</time>
      </trkpt>
      <trkpt lat="48.38621" lon="-3.79152">
        <ele>241</ele>
        <time>2021-09-12T08:39:33Z</time>
      </trkpt>
      <trkpt lat="48.38617" lon="-3.7915">
        <ele>241</ele>
        <time>2021-09-12T08:39:34Z</time>
      </trkpt>
      <trkpt lat="48.38613" lon="-3.79148">
        <ele>240.80000305176</ele>
        <time>2021-09-12T08:39:35Z</time>
      </trkpt>
      <trkpt lat="48.38609" lon="-3.79148">
        <ele>240.80000305176</ele>
        <time>2021-09-12T08:39:36Z</time>
      </trkpt>
      <trkpt lat="48.38605" lon="-3.79147">
        <ele>240.80000305176</ele>
        <time>2021-09-12T08:39:37Z</time>
      </trkpt>
      <trkpt lat="48.386" lon="-3.79147">
        <ele>240.60000610352</ele>
        <time>2021-09-12T08:39:38Z</time>
      </trkpt>
      <trkpt lat="48.38596" lon="-3.79146">
        <ele>240.39999389648</ele>
        <time>2021-09-12T08:39:39Z</time>
      </trkpt>
      <trkpt lat="48.38592" lon="-3.79145">
        <ele>240.19999694824</ele>
        <time>2021-09-12T08:39:40Z</time>
      </trkpt>
      <trkpt lat="48.38586" lon="-3.79144">
        <ele>240.19999694824</ele>
        <time>2021-09-12T08:39:41Z</time>
      </trkpt>
      <trkpt lat="48.38579" lon="-3.79144">
        <ele>240.19999694824</ele>
        <time>2021-09-12T08:39:42Z</time>
      </trkpt>
      <trkpt lat="48.38573" lon="-3.79143">
        <ele>240.19999694824</ele>
        <time>2021-09-12T08:39:43Z</time>
      </trkpt>
      <trkpt lat="48.38567" lon="-3.79142">
        <ele>240.19999694824</ele>
        <time>2021-09-12T08:39:44Z</time>
      </trkpt>
      <trkpt lat="48.38562" lon="-3.79141">
        <ele>239.80000305176</ele>
        <time>2021-09-12T08:39:45Z</time>
      </trkpt>
      <trkpt lat="48.38557" lon="-3.79141">
        <ele>239.39999389648</ele>
        <time>2021-09-12T08:39:46Z</time>
      </trkpt>
      <trkpt lat="48.38551" lon="-3.79141">
        <ele>239.39999389648</ele>
        <time>2021-09-12T08:39:47Z</time>
      </trkpt>
      <trkpt lat="48.38545" lon="-3.79141">
        <ele>239.39999389648</ele>
        <time>2021-09-12T08:39:48Z</time>
      </trkpt>
      <trkpt lat="48.38538" lon="-3.79141">
        <ele>239.19999694824</ele>
        <time>2021-09-12T08:39:49Z</time>
      </trkpt>
      <trkpt lat="48.38532" lon="-3.79139">
        <ele>239.19999694824</ele>
        <time>2021-09-12T08:39:50Z</time>
      </trkpt>
      <trkpt lat="48.38525" lon="-3.7914">
        <ele>239</ele>
        <time>2021-09-12T08:39:51Z</time>
      </trkpt>
      <trkpt lat="48.38519" lon="-3.7914">
        <ele>238.80000305176</ele>
        <time>2021-09-12T08:39:52Z</time>
      </trkpt>
      <trkpt lat="48.38513" lon="-3.79139">
        <ele>238.60000610352</ele>
        <time>2021-09-12T08:39:53Z</time>
      </trkpt>
      <trkpt lat="48.38506" lon="-3.79139">
        <ele>238.60000610352</ele>
        <time>2021-09-12T08:39:54Z</time>
      </trkpt>
      <trkpt lat="48.38499" lon="-3.7914">
        <ele>238.39999389648</ele>
        <time>2021-09-12T08:39:55Z</time>
      </trkpt>
      <trkpt lat="48.38494" lon="-3.79142">
        <ele>238.19999694824</ele>
        <time>2021-09-12T08:39:56Z</time>
      </trkpt>
      <trkpt lat="48.38491" lon="-3.79144">
        <ele>238</ele>
        <time>2021-09-12T08:39:57Z</time>
      </trkpt>
      <trkpt lat="48.38491" lon="-3.79146">
        <ele>238</ele>
        <time>2021-09-12T08:39:58Z</time>
      </trkpt>
      <trkpt lat="48.38491" lon="-3.79147">
        <ele>237.80000305176</ele>
        <time>2021-09-12T08:39:59Z</time>
      </trkpt>
      <trkpt lat="48.38491" lon="-3.79149">
        <ele>237.80000305176</ele>
        <time>2021-09-12T08:40:00Z</time>
      </trkpt>
      <trkpt lat="48.38492" lon="-3.79151">
        <ele>237.39999389648</ele>
        <time>2021-09-12T08:40:01Z</time>
      </trkpt>
      <trkpt lat="48.38491" lon="-3.79153">
        <ele>237.39999389648</ele>
        <time>2021-09-12T08:40:02Z</time>
      </trkpt>
      <trkpt lat="48.38489" lon="-3.79154">
        <ele>237.60000610352</ele>
        <time>2021-09-12T08:40:03Z</time>
      </trkpt>
      <trkpt lat="48.38487" lon="-3.79157">
        <ele>237.60000610352</ele>
        <time>2021-09-12T08:40:04Z</time>
      </trkpt>
      <trkpt lat="48.38486" lon="-3.7916">
        <ele>237.60000610352</ele>
        <time>2021-09-12T08:40:05Z</time>
      </trkpt>
      <trkpt lat="48.38486" lon="-3.79164">
        <ele>237.60000610352</ele>
        <time>2021-09-12T08:40:06Z</time>
      </trkpt>
      <trkpt lat="48.38486" lon="-3.79168">
        <ele>237.60000610352</ele>
        <time>2021-09-12T08:40:07Z</time>
      </trkpt>
      <trkpt lat="48.38485" lon="-3.79171">
        <ele>237.60000610352</ele>
        <time>2021-09-12T08:40:08Z</time>
      </trkpt>
      <trkpt lat="48.38485" lon="-3.79175">
        <ele>237.80000305176</ele>
        <time>2021-09-12T08:40:09Z</time>
      </trkpt>
      <trkpt lat="48.38484" lon="-3.7918">
        <ele>237.80000305176</ele>
        <time>2021-09-12T08:40:10Z</time>
      </trkpt>
      <trkpt lat="48.38484" lon="-3.79186">
        <ele>238</ele>
        <time>2021-09-12T08:40:11Z</time>
      </trkpt>
      <trkpt lat="48.38484" lon="-3.79191">
        <ele>238.39999389648</ele>
        <time>2021-09-12T08:40:12Z</time>
      </trkpt>
      <trkpt lat="48.38484" lon="-3.79196">
        <ele>238.39999389648</ele>
        <time>2021-09-12T08:40:13Z</time>
      </trkpt>
      <trkpt lat="48.38483" lon="-3.792">
        <ele>238.60000610352</ele>
        <time>2021-09-12T08:40:14Z</time>
      </trkpt>
      <trkpt lat="48.38483" lon="-3.79204">
        <ele>238.80000305176</ele>
        <time>2021-09-12T08:40:15Z</time>
      </trkpt>
      <trkpt lat="48.38481" lon="-3.79209">
        <ele>239.19999694824</ele>
        <time>2021-09-12T08:40:16Z</time>
      </trkpt>
      <trkpt lat="48.38479" lon="-3.79213">
        <ele>239.19999694824</ele>
        <time>2021-09-12T08:40:17Z</time>
      </trkpt>
      <trkpt lat="48.38477" lon="-3.79217">
        <ele>239.19999694824</ele>
        <time>2021-09-12T08:40:18Z</time>
      </trkpt>
      <trkpt lat="48.38474" lon="-3.79222">
        <ele>239.19999694824</ele>
        <time>2021-09-12T08:40:19Z</time>
      </trkpt>
      <trkpt lat="48.3847" lon="-3.79229">
        <ele>239.19999694824</ele>
        <time>2021-09-12T08:40:20Z</time>
      </trkpt>
      <trkpt lat="48.38464" lon="-3.79235">
        <ele>239.19999694824</ele>
        <time>2021-09-12T08:40:21Z</time>
      </trkpt>
      <trkpt lat="48.38459" lon="-3.7924">
        <ele>239.19999694824</ele>
        <time>2021-09-12T08:40:22Z</time>
      </trkpt>
      <trkpt lat="48.38453" lon="-3.79246">
        <ele>239.19999694824</ele>
        <time>2021-09-12T08:40:23Z</time>
      </trkpt>
      <trkpt lat="48.38448" lon="-3.79251">
        <ele>239</ele>
        <time>2021-09-12T08:40:24Z</time>
      </trkpt>
      <trkpt lat="48.38443" lon="-3.79255">
        <ele>238.80000305176</ele>
        <time>2021-09-12T08:40:25Z</time>
      </trkpt>
      <trkpt lat="48.38438" lon="-3.7926">
        <ele>238.60000610352</ele>
        <time>2021-09-12T08:40:26Z</time>
      </trkpt>
      <trkpt lat="48.38432" lon="-3.79262">
        <ele>238.19999694824</ele>
        <time>2021-09-12T08:40:27Z</time>
      </trkpt>
      <trkpt lat="48.38427" lon="-3.79262">
        <ele>238</ele>
        <time>2021-09-12T08:40:28Z</time>
      </trkpt>
      <trkpt lat="48.38422" lon="-3.79261">
        <ele>238</ele>
        <time>2021-09-12T08:40:29Z</time>
      </trkpt>
      <trkpt lat="48.38416" lon="-3.7926">
        <ele>237.80000305176</ele>
        <time>2021-09-12T08:40:30Z</time>
      </trkpt>
      <trkpt lat="48.38408" lon="-3.79259">
        <ele>237.80000305176</ele>
        <time>2021-09-12T08:40:31Z</time>
      </trkpt>
      <trkpt lat="48.38402" lon="-3.79256">
        <ele>237.60000610352</ele>
        <time>2021-09-12T08:40:32Z</time>
      </trkpt>
      <trkpt lat="48.38396" lon="-3.79253">
        <ele>236.80000305176</ele>
        <time>2021-09-12T08:40:33Z</time>
      </trkpt>
      <trkpt lat="48.3839" lon="-3.79249">
        <ele>236.60000610352</ele>
        <time>2021-09-12T08:40:34Z</time>
      </trkpt>
      <trkpt lat="48.38384" lon="-3.79245">
        <ele>236.19999694824</ele>
        <time>2021-09-12T08:40:35Z</time>
      </trkpt>
      <trkpt lat="48.38378" lon="-3.79241">
        <ele>235.80000305176</ele>
        <time>2021-09-12T08:40:36Z</time>
      </trkpt>
      <trkpt lat="48.38372" lon="-3.79238">
        <ele>235.60000610352</ele>
        <time>2021-09-12T08:40:37Z</time>
      </trkpt>
      <trkpt lat="48.38364" lon="-3.79237">
        <ele>235.19999694824</ele>
        <time>2021-09-12T08:40:38Z</time>
      </trkpt>
      <trkpt lat="48.38357" lon="-3.79238">
        <ele>235.19999694824</ele>
        <time>2021-09-12T08:40:39Z</time>
      </trkpt>
      <trkpt lat="48.38351" lon="-3.7924">
        <ele>235</ele>
        <time>2021-09-12T08:40:40Z</time>
      </trkpt>
      <trkpt lat="48.38345" lon="-3.79243">
        <ele>234.60000610352</ele>
        <time>2021-09-12T08:40:41Z</time>
      </trkpt>
      <trkpt lat="48.38339" lon="-3.79245">
        <ele>234.39999389648</ele>
        <time>2021-09-12T08:40:42Z</time>
      </trkpt>
      <trkpt lat="48.38331" lon="-3.79246">
        <ele>234.19999694824</ele>
        <time>2021-09-12T08:40:43Z</time>
      </trkpt>
      <trkpt lat="48.38324" lon="-3.79248">
        <ele>233.39999389648</ele>
        <time>2021-09-12T08:40:44Z</time>
      </trkpt>
      <trkpt lat="48.38317" lon="-3.7925">
        <ele>233.19999694824</ele>
        <time>2021-09-12T08:40:45Z</time>
      </trkpt>
      <trkpt lat="48.3831" lon="-3.79252">
        <ele>233.19999694824</ele>
        <time>2021-09-12T08:40:46Z</time>
      </trkpt>
      <trkpt lat="48.38304" lon="-3.79256">
        <ele>232.80000305176</ele>
        <time>2021-09-12T08:40:47Z</time>
      </trkpt>
      <trkpt lat="48.38298" lon="-3.79259">
        <ele>232.60000610352</ele>
        <time>2021-09-12T08:40:48Z</time>
      </trkpt>
      <trkpt lat="48.38292" lon="-3.79261">
        <ele>232.39999389648</ele>
        <time>2021-09-12T08:40:49Z</time>
      </trkpt>
      <trkpt lat="48.38286" lon="-3.79264">
        <ele>232.39999389648</ele>
        <time>2021-09-12T08:40:50Z</time>
      </trkpt>
      <trkpt lat="48.38281" lon="-3.79268">
        <ele>232.19999694824</ele>
        <time>2021-09-12T08:40:51Z</time>
      </trkpt>
      <trkpt lat="48.38274" lon="-3.79273">
        <ele>232</ele>
        <time>2021-09-12T08:40:52Z</time>
      </trkpt>
      <trkpt lat="48.38268" lon="-3.79277">
        <ele>232</ele>
        <time>2021-09-12T08:40:53Z</time>
      </trkpt>
      <trkpt lat="48.38261" lon="-3.79281">
        <ele>232</ele>
        <time>2021-09-12T08:40:54Z</time>
      </trkpt>
      <trkpt lat="48.38254" lon="-3.79285">
        <ele>232</ele>
        <time>2021-09-12T08:40:55Z</time>
      </trkpt>
      <trkpt lat="48.38246" lon="-3.79288">
        <ele>232</ele>
        <time>2021-09-12T08:40:56Z</time>
      </trkpt>
      <trkpt lat="48.38239" lon="-3.79291">
        <ele>232</ele>
        <time>2021-09-12T08:40:57Z</time>
      </trkpt>
      <trkpt lat="48.38232" lon="-3.79294">
        <ele>231.60000610352</ele>
        <time>2021-09-12T08:40:58Z</time>
      </trkpt>
      <trkpt lat="48.38225" lon="-3.79298">
        <ele>231.39999389648</ele>
        <time>2021-09-12T08:40:59Z</time>
      </trkpt>
      <trkpt lat="48.38219" lon="-3.79301">
        <ele>231</ele>
        <time>2021-09-12T08:41:00Z</time>
      </trkpt>
      <trkpt lat="48.38213" lon="-3.79305">
        <ele>231</ele>
        <time>2021-09-12T08:41:01Z</time>
      </trkpt>
      <trkpt lat="48.38207" lon="-3.79309">
        <ele>230.80000305176</ele>
        <time>2021-09-12T08:41:02Z</time>
      </trkpt>
      <trkpt lat="48.38201" lon="-3.79313">
        <ele>230.60000610352</ele>
        <time>2021-09-12T08:41:03Z</time>
      </trkpt>
      <trkpt lat="48.38194" lon="-3.79317">
        <ele>230</ele>
        <time>2021-09-12T08:41:04Z</time>
      </trkpt>
      <trkpt lat="48.38187" lon="-3.7932">
        <ele>228.80000305176</ele>
        <time>2021-09-12T08:41:05Z</time>
      </trkpt>
      <trkpt lat="48.38181" lon="-3.79322">
        <ele>228.60000610352</ele>
        <time>2021-09-12T08:41:06Z</time>
      </trkpt>
      <trkpt lat="48.38176" lon="-3.79329">
        <ele>228.39999389648</ele>
        <time>2021-09-12T08:41:07Z</time>
      </trkpt>
      <trkpt lat="48.38174" lon="-3.79336">
        <ele>228.39999389648</ele>
        <time>2021-09-12T08:41:08Z</time>
      </trkpt>
      <trkpt lat="48.38174" lon="-3.79344">
        <ele>227.80000305176</ele>
        <time>2021-09-12T08:41:09Z</time>
      </trkpt>
      <trkpt lat="48.38174" lon="-3.79353">
        <ele>227.80000305176</ele>
        <time>2021-09-12T08:41:10Z</time>
      </trkpt>
      <trkpt lat="48.38175" lon="-3.7936">
        <ele>227.60000610352</ele>
        <time>2021-09-12T08:41:11Z</time>
      </trkpt>
      <trkpt lat="48.38176" lon="-3.79365">
        <ele>227.60000610352</ele>
        <time>2021-09-12T08:41:12Z</time>
      </trkpt>
      <trkpt lat="48.3818" lon="-3.79367">
        <ele>227.39999389648</ele>
        <time>2021-09-12T08:41:13Z</time>
      </trkpt>
      <trkpt lat="48.38184" lon="-3.79368">
        <ele>227.39999389648</ele>
        <time>2021-09-12T08:41:14Z</time>
      </trkpt>
      <trkpt lat="48.3819" lon="-3.79368">
        <ele>226.39999389648</ele>
        <time>2021-09-12T08:41:15Z</time>
      </trkpt>
      <trkpt lat="48.38195" lon="-3.79369">
        <ele>226.19999694824</ele>
        <time>2021-09-12T08:41:16Z</time>
      </trkpt>
      <trkpt lat="48.382" lon="-3.79372">
        <ele>225.80000305176</ele>
        <time>2021-09-12T08:41:17Z</time>
      </trkpt>
      <trkpt lat="48.38207" lon="-3.79378">
        <ele>225</ele>
        <time>2021-09-12T08:41:18Z</time>
      </trkpt>
      <trkpt lat="48.38213" lon="-3.79385">
        <ele>224.39999389648</ele>
        <time>2021-09-12T08:41:19Z</time>
      </trkpt>
      <trkpt lat="48.38219" lon="-3.79393">
        <ele>224.39999389648</ele>
        <time>2021-09-12T08:41:20Z</time>
      </trkpt>
      <trkpt lat="48.38225" lon="-3.79402">
        <ele>223.39999389648</ele>
        <time>2021-09-12T08:41:21Z</time>
      </trkpt>
      <trkpt lat="48.38231" lon="-3.79411">
        <ele>223.19999694824</ele>
        <time>2021-09-12T08:41:22Z</time>
      </trkpt>
      <trkpt lat="48.38236" lon="-3.79419">
        <ele>222.80000305176</ele>
        <time>2021-09-12T08:41:23Z</time>
      </trkpt>
      <trkpt lat="48.38241" lon="-3.79426">
        <ele>222.60000610352</ele>
        <time>2021-09-12T08:41:24Z</time>
      </trkpt>
      <trkpt lat="48.38246" lon="-3.79434">
        <ele>222.19999694824</ele>
        <time>2021-09-12T08:41:25Z</time>
      </trkpt>
      <trkpt lat="48.3825" lon="-3.79442">
        <ele>222.19999694824</ele>
        <time>2021-09-12T08:41:26Z</time>
      </trkpt>
      <trkpt lat="48.38255" lon="-3.7945">
        <ele>222</ele>
        <time>2021-09-12T08:41:27Z</time>
      </trkpt>
      <trkpt lat="48.3826" lon="-3.79457">
        <ele>221.80000305176</ele>
        <time>2021-09-12T08:41:28Z</time>
      </trkpt>
      <trkpt lat="48.38264" lon="-3.79466">
        <ele>221.80000305176</ele>
        <time>2021-09-12T08:41:29Z</time>
      </trkpt>
      <trkpt lat="48.38268" lon="-3.79475">
        <ele>221.19999694824</ele>
        <time>2021-09-12T08:41:30Z</time>
      </trkpt>
      <trkpt lat="48.38274" lon="-3.79483">
        <ele>221</ele>
        <time>2021-09-12T08:41:31Z</time>
      </trkpt>
      <trkpt lat="48.38281" lon="-3.79492">
        <ele>220.80000305176</ele>
        <time>2021-09-12T08:41:32Z</time>
      </trkpt>
      <trkpt lat="48.38287" lon="-3.79502">
        <ele>220.19999694824</ele>
        <time>2021-09-12T08:41:33Z</time>
      </trkpt>
      <trkpt lat="48.3829" lon="-3.79512">
        <ele>220.19999694824</ele>
        <time>2021-09-12T08:41:34Z</time>
      </trkpt>
      <trkpt lat="48.38294" lon="-3.79523">
        <ele>220</ele>
        <time>2021-09-12T08:41:35Z</time>
      </trkpt>
      <trkpt lat="48.38299" lon="-3.79534">
        <ele>219.19999694824</ele>
        <time>2021-09-12T08:41:36Z</time>
      </trkpt>
      <trkpt lat="48.38303" lon="-3.79545">
        <ele>219</ele>
        <time>2021-09-12T08:41:37Z</time>
      </trkpt>
      <trkpt lat="48.38309" lon="-3.79556">
        <ele>218.39999389648</ele>
        <time>2021-09-12T08:41:38Z</time>
      </trkpt>
      <trkpt lat="48.38315" lon="-3.79565">
        <ele>218.19999694824</ele>
        <time>2021-09-12T08:41:39Z</time>
      </trkpt>
      <trkpt lat="48.3832" lon="-3.79572">
        <ele>217.80000305176</ele>
        <time>2021-09-12T08:41:40Z</time>
      </trkpt>
      <trkpt lat="48.38326" lon="-3.79579">
        <ele>217.19999694824</ele>
        <time>2021-09-12T08:41:41Z</time>
      </trkpt>
      <trkpt lat="48.38331" lon="-3.79588">
        <ele>217</ele>
        <time>2021-09-12T08:41:42Z</time>
      </trkpt>
      <trkpt lat="48.38337" lon="-3.79598">
        <ele>216.80000305176</ele>
        <time>2021-09-12T08:41:43Z</time>
      </trkpt>
      <trkpt lat="48.38342" lon="-3.79608">
        <ele>216.60000610352</ele>
        <time>2021-09-12T08:41:44Z</time>
      </trkpt>
      <trkpt lat="48.38347" lon="-3.79615">
        <ele>215.80000305176</ele>
        <time>2021-09-12T08:41:45Z</time>
      </trkpt>
      <trkpt lat="48.38352" lon="-3.79621">
        <ele>215.80000305176</ele>
        <time>2021-09-12T08:41:46Z</time>
      </trkpt>
      <trkpt lat="48.38358" lon="-3.79629">
        <ele>215.39999389648</ele>
        <time>2021-09-12T08:41:47Z</time>
      </trkpt>
      <trkpt lat="48.38362" lon="-3.79634">
        <ele>215.19999694824</ele>
        <time>2021-09-12T08:41:48Z</time>
      </trkpt>
      <trkpt lat="48.38368" lon="-3.79643">
        <ele>215.19999694824</ele>
        <time>2021-09-12T08:41:49Z</time>
      </trkpt>
      <trkpt lat="48.38371" lon="-3.79652">
        <ele>215</ele>
        <time>2021-09-12T08:41:50Z</time>
      </trkpt>
      <trkpt lat="48.38376" lon="-3.7966">
        <ele>214.60000610352</ele>
        <time>2021-09-12T08:41:51Z</time>
      </trkpt>
      <trkpt lat="48.38381" lon="-3.79667">
        <ele>214.39999389648</ele>
        <time>2021-09-12T08:41:52Z</time>
      </trkpt>
      <trkpt lat="48.38387" lon="-3.79675">
        <ele>214.39999389648</ele>
        <time>2021-09-12T08:41:53Z</time>
      </trkpt>
      <trkpt lat="48.38392" lon="-3.79683">
        <ele>214.19999694824</ele>
        <time>2021-09-12T08:41:54Z</time>
      </trkpt>
      <trkpt lat="48.38397" lon="-3.79691">
        <ele>214</ele>
        <time>2021-09-12T08:41:55Z</time>
      </trkpt>
      <trkpt lat="48.38401" lon="-3.79699">
        <ele>213.80000305176</ele>
        <time>2021-09-12T08:41:56Z</time>
      </trkpt>
      <trkpt lat="48.38405" lon="-3.79706">
        <ele>213.60000610352</ele>
        <time>2021-09-12T08:41:57Z</time>
      </trkpt>
      <trkpt lat="48.3841" lon="-3.79713">
        <ele>212.80000305176</ele>
        <time>2021-09-12T08:41:58Z</time>
      </trkpt>
      <trkpt lat="48.38414" lon="-3.79721">
        <ele>212.60000610352</ele>
        <time>2021-09-12T08:41:59Z</time>
      </trkpt>
      <trkpt lat="48.38418" lon="-3.79732">
        <ele>212.39999389648</ele>
        <time>2021-09-12T08:42:00Z</time>
      </trkpt>
      <trkpt lat="48.38421" lon="-3.7974">
        <ele>212.19999694824</ele>
        <time>2021-09-12T08:42:01Z</time>
      </trkpt>
      <trkpt lat="48.38425" lon="-3.79749">
        <ele>212</ele>
        <time>2021-09-12T08:42:02Z</time>
      </trkpt>
      <trkpt lat="48.38429" lon="-3.79758">
        <ele>211.39999389648</ele>
        <time>2021-09-12T08:42:03Z</time>
      </trkpt>
      <trkpt lat="48.38433" lon="-3.79766">
        <ele>210.80000305176</ele>
        <time>2021-09-12T08:42:04Z</time>
      </trkpt>
      <trkpt lat="48.38437" lon="-3.79776">
        <ele>210.39999389648</ele>
        <time>2021-09-12T08:42:05Z</time>
      </trkpt>
      <trkpt lat="48.3844" lon="-3.79786">
        <ele>210.39999389648</ele>
        <time>2021-09-12T08:42:06Z</time>
      </trkpt>
      <trkpt lat="48.38443" lon="-3.79796">
        <ele>209.60000610352</ele>
        <time>2021-09-12T08:42:07Z</time>
      </trkpt>
      <trkpt lat="48.38447" lon="-3.79806">
        <ele>209.19999694824</ele>
        <time>2021-09-12T08:42:08Z</time>
      </trkpt>
      <trkpt lat="48.3845" lon="-3.79816">
        <ele>208.80000305176</ele>
        <time>2021-09-12T08:42:09Z</time>
      </trkpt>
      <trkpt lat="48.38454" lon="-3.79827">
        <ele>208.80000305176</ele>
        <time>2021-09-12T08:42:10Z</time>
      </trkpt>
      <trkpt lat="48.38458" lon="-3.79838">
        <ele>208.39999389648</ele>
        <time>2021-09-12T08:42:11Z</time>
      </trkpt>
      <trkpt lat="48.38462" lon="-3.79846">
        <ele>207.39999389648</ele>
        <time>2021-09-12T08:42:12Z</time>
      </trkpt>
      <trkpt lat="48.38467" lon="-3.79857">
        <ele>207</ele>
        <time>2021-09-12T08:42:13Z</time>
      </trkpt>
      <trkpt lat="48.38471" lon="-3.79865">
        <ele>206.80000305176</ele>
        <time>2021-09-12T08:42:14Z</time>
      </trkpt>
      <trkpt lat="48.38476" lon="-3.79875">
        <ele>206</ele>
        <time>2021-09-12T08:42:15Z</time>
      </trkpt>
      <trkpt lat="48.3848" lon="-3.79884">
        <ele>205.80000305176</ele>
        <time>2021-09-12T08:42:16Z</time>
      </trkpt>
      <trkpt lat="48.38485" lon="-3.79894">
        <ele>205.39999389648</ele>
        <time>2021-09-12T08:42:17Z</time>
      </trkpt>
      <trkpt lat="48.38489" lon="-3.79905">
        <ele>204.19999694824</ele>
        <time>2021-09-12T08:42:18Z</time>
      </trkpt>
      <trkpt lat="48.38494" lon="-3.79916">
        <ele>204</ele>
        <time>2021-09-12T08:42:19Z</time>
      </trkpt>
      <trkpt lat="48.38499" lon="-3.79925">
        <ele>203</ele>
        <time>2021-09-12T08:42:20Z</time>
      </trkpt>
      <trkpt lat="48.38503" lon="-3.79934">
        <ele>202.60000610352</ele>
        <time>2021-09-12T08:42:21Z</time>
      </trkpt>
      <trkpt lat="48.38508" lon="-3.79946">
        <ele>202</ele>
        <time>2021-09-12T08:42:22Z</time>
      </trkpt>
      <trkpt lat="48.38509" lon="-3.79958">
        <ele>202</ele>
        <time>2021-09-12T08:42:23Z</time>
      </trkpt>
      <trkpt lat="48.38509" lon="-3.79966">
        <ele>201.80000305176</ele>
        <time>2021-09-12T08:42:24Z</time>
      </trkpt>
      <trkpt lat="48.38509" lon="-3.79973">
        <ele>201.19999694824</ele>
        <time>2021-09-12T08:42:25Z</time>
      </trkpt>
      <trkpt lat="48.38509" lon="-3.79978">
        <ele>200.80000305176</ele>
        <time>2021-09-12T08:42:26Z</time>
      </trkpt>
      <trkpt lat="48.3851" lon="-3.79983">
        <ele>200.80000305176</ele>
        <time>2021-09-12T08:42:27Z</time>
      </trkpt>
      <trkpt lat="48.3851" lon="-3.79986">
        <ele>200.80000305176</ele>
        <time>2021-09-12T08:42:28Z</time>
      </trkpt>
      <trkpt lat="48.3851" lon="-3.79989">
        <ele>200.80000305176</ele>
        <time>2021-09-12T08:42:29Z</time>
      </trkpt>
      <trkpt lat="48.38511" lon="-3.79992">
        <ele>200.80000305176</ele>
        <time>2021-09-12T08:42:30Z</time>
      </trkpt>
      <trkpt lat="48.38511" lon="-3.79995">
        <ele>200.80000305176</ele>
        <time>2021-09-12T08:42:31Z</time>
      </trkpt>
      <trkpt lat="48.38511" lon="-3.79997">
        <ele>200.60000610352</ele>
        <time>2021-09-12T08:42:32Z</time>
      </trkpt>
      <trkpt lat="48.38511" lon="-3.79998">
        <ele>200.60000610352</ele>
        <time>2021-09-12T08:42:33Z</time>
      </trkpt>
      <trkpt lat="48.38511" lon="-3.8">
        <ele>200.60000610352</ele>
        <time>2021-09-12T08:42:34Z</time>
      </trkpt>
      <trkpt lat="48.38512" lon="-3.80001">
        <ele>200.60000610352</ele>
        <time>2021-09-12T08:42:35Z</time>
      </trkpt>
      <trkpt lat="48.38513" lon="-3.80001">
        <ele>200.60000610352</ele>
        <time>2021-09-12T08:42:36Z</time>
      </trkpt>
      <trkpt lat="48.38513" lon="-3.80003">
        <ele>200.60000610352</ele>
        <time>2021-09-12T08:42:37Z</time>
      </trkpt>
      <trkpt lat="48.38514" lon="-3.80004">
        <ele>200.60000610352</ele>
        <time>2021-09-12T08:42:38Z</time>
      </trkpt>
      <trkpt lat="48.38514" lon="-3.80006">
        <ele>200.60000610352</ele>
        <time>2021-09-12T08:42:39Z</time>
      </trkpt>
      <trkpt lat="48.38515" lon="-3.80009">
        <ele>200.60000610352</ele>
        <time>2021-09-12T08:42:40Z</time>
      </trkpt>
      <trkpt lat="48.38516" lon="-3.80012">
        <ele>200.60000610352</ele>
        <time>2021-09-12T08:42:41Z</time>
      </trkpt>
      <trkpt lat="48.38517" lon="-3.80016">
        <ele>200.60000610352</ele>
        <time>2021-09-12T08:42:42Z</time>
      </trkpt>
      <trkpt lat="48.38519" lon="-3.80021">
        <ele>200.80000305176</ele>
        <time>2021-09-12T08:42:43Z</time>
      </trkpt>
      <trkpt lat="48.38519" lon="-3.80025">
        <ele>200.80000305176</ele>
        <time>2021-09-12T08:42:44Z</time>
      </trkpt>
      <trkpt lat="48.3852" lon="-3.8003">
        <ele>201</ele>
        <time>2021-09-12T08:42:45Z</time>
      </trkpt>
      <trkpt lat="48.38522" lon="-3.80036">
        <ele>201</ele>
        <time>2021-09-12T08:42:46Z</time>
      </trkpt>
      <trkpt lat="48.38523" lon="-3.80041">
        <ele>201</ele>
        <time>2021-09-12T08:42:47Z</time>
      </trkpt>
      <trkpt lat="48.38525" lon="-3.80048">
        <ele>201.19999694824</ele>
        <time>2021-09-12T08:42:48Z</time>
      </trkpt>
      <trkpt lat="48.38526" lon="-3.80052">
        <ele>201.19999694824</ele>
        <time>2021-09-12T08:42:49Z</time>
      </trkpt>
      <trkpt lat="48.38528" lon="-3.80057">
        <ele>201.19999694824</ele>
        <time>2021-09-12T08:42:50Z</time>
      </trkpt>
      <trkpt lat="48.3853" lon="-3.80062">
        <ele>201.19999694824</ele>
        <time>2021-09-12T08:42:51Z</time>
      </trkpt>
      <trkpt lat="48.38531" lon="-3.80068">
        <ele>201.39999389648</ele>
        <time>2021-09-12T08:42:52Z</time>
      </trkpt>
      <trkpt lat="48.38532" lon="-3.80074">
        <ele>201.19999694824</ele>
        <time>2021-09-12T08:42:53Z</time>
      </trkpt>
      <trkpt lat="48.38533" lon="-3.80082">
        <ele>201.39999389648</ele>
        <time>2021-09-12T08:42:54Z</time>
      </trkpt>
      <trkpt lat="48.38533" lon="-3.80088">
        <ele>201.39999389648</ele>
        <time>2021-09-12T08:42:55Z</time>
      </trkpt>
      <trkpt lat="48.38534" lon="-3.80094">
        <ele>201.39999389648</ele>
        <time>2021-09-12T08:42:56Z</time>
      </trkpt>
      <trkpt lat="48.38535" lon="-3.801">
        <ele>201.60000610352</ele>
        <time>2021-09-12T08:42:57Z</time>
      </trkpt>
      <trkpt lat="48.38535" lon="-3.80106">
        <ele>201.60000610352</ele>
        <time>2021-09-12T08:42:58Z</time>
      </trkpt>
      <trkpt lat="48.38535" lon="-3.80112">
        <ele>201.60000610352</ele>
        <time>2021-09-12T08:42:59Z</time>
      </trkpt>
      <trkpt lat="48.38536" lon="-3.80118">
        <ele>201.80000305176</ele>
        <time>2021-09-12T08:43:00Z</time>
      </trkpt>
      <trkpt lat="48.38537" lon="-3.80123">
        <ele>202</ele>
        <time>2021-09-12T08:43:01Z</time>
      </trkpt>
      <trkpt lat="48.38538" lon="-3.80129">
        <ele>202.19999694824</ele>
        <time>2021-09-12T08:43:02Z</time>
      </trkpt>
      <trkpt lat="48.38539" lon="-3.80134">
        <ele>202.19999694824</ele>
        <time>2021-09-12T08:43:03Z</time>
      </trkpt>
      <trkpt lat="48.38541" lon="-3.80141">
        <ele>202.60000610352</ele>
        <time>2021-09-12T08:43:04Z</time>
      </trkpt>
      <trkpt lat="48.38542" lon="-3.80146">
        <ele>202.80000305176</ele>
        <time>2021-09-12T08:43:05Z</time>
      </trkpt>
      <trkpt lat="48.38541" lon="-3.80153">
        <ele>203</ele>
        <time>2021-09-12T08:43:06Z</time>
      </trkpt>
      <trkpt lat="48.38542" lon="-3.80159">
        <ele>203.39999389648</ele>
        <time>2021-09-12T08:43:07Z</time>
      </trkpt>
      <trkpt lat="48.38543" lon="-3.80164">
        <ele>203.60000610352</ele>
        <time>2021-09-12T08:43:08Z</time>
      </trkpt>
      <trkpt lat="48.38543" lon="-3.8017">
        <ele>203.80000305176</ele>
        <time>2021-09-12T08:43:09Z</time>
      </trkpt>
      <trkpt lat="48.38543" lon="-3.80175">
        <ele>204</ele>
        <time>2021-09-12T08:43:10Z</time>
      </trkpt>
      <trkpt lat="48.38544" lon="-3.80181">
        <ele>204.19999694824</ele>
        <time>2021-09-12T08:43:11Z</time>
      </trkpt>
      <trkpt lat="48.38545" lon="-3.80186">
        <ele>204.19999694824</ele>
        <time>2021-09-12T08:43:12Z</time>
      </trkpt>
      <trkpt lat="48.38545" lon="-3.80192">
        <ele>204.39999389648</ele>
        <time>2021-09-12T08:43:13Z</time>
      </trkpt>
      <trkpt lat="48.38546" lon="-3.80197">
        <ele>204.39999389648</ele>
        <time>2021-09-12T08:43:14Z</time>
      </trkpt>
      <trkpt lat="48.38547" lon="-3.80203">
        <ele>204.39999389648</ele>
        <time>2021-09-12T08:43:15Z</time>
      </trkpt>
      <trkpt lat="48.38548" lon="-3.80207">
        <ele>205</ele>
        <time>2021-09-12T08:43:16Z</time>
      </trkpt>
      <trkpt lat="48.38549" lon="-3.80211">
        <ele>205.39999389648</ele>
        <time>2021-09-12T08:43:17Z</time>
      </trkpt>
      <trkpt lat="48.3855" lon="-3.80215">
        <ele>205.60000610352</ele>
        <time>2021-09-12T08:43:18Z</time>
      </trkpt>
      <trkpt lat="48.3855" lon="-3.80219">
        <ele>206</ele>
        <time>2021-09-12T08:43:19Z</time>
      </trkpt>
      <trkpt lat="48.38551" lon="-3.80223">
        <ele>206.19999694824</ele>
        <time>2021-09-12T08:43:20Z</time>
      </trkpt>
      <trkpt lat="48.38552" lon="-3.80226">
        <ele>206.60000610352</ele>
        <time>2021-09-12T08:43:21Z</time>
      </trkpt>
      <trkpt lat="48.38552" lon="-3.8023">
        <ele>206.60000610352</ele>
        <time>2021-09-12T08:43:22Z</time>
      </trkpt>
      <trkpt lat="48.38554" lon="-3.80233">
        <ele>207.19999694824</ele>
        <time>2021-09-12T08:43:23Z</time>
      </trkpt>
      <trkpt lat="48.38555" lon="-3.80237">
        <ele>207.39999389648</ele>
        <time>2021-09-12T08:43:24Z</time>
      </trkpt>
      <trkpt lat="48.38557" lon="-3.8024">
        <ele>207.39999389648</ele>
        <time>2021-09-12T08:43:25Z</time>
      </trkpt>
      <trkpt lat="48.38559" lon="-3.80242">
        <ele>207.80000305176</ele>
        <time>2021-09-12T08:43:26Z</time>
      </trkpt>
      <trkpt lat="48.38561" lon="-3.80245">
        <ele>207.80000305176</ele>
        <time>2021-09-12T08:43:27Z</time>
      </trkpt>
      <trkpt lat="48.38563" lon="-3.80248">
        <ele>208</ele>
        <time>2021-09-12T08:43:28Z</time>
      </trkpt>
      <trkpt lat="48.38565" lon="-3.80251">
        <ele>208.60000610352</ele>
        <time>2021-09-12T08:43:29Z</time>
      </trkpt>
      <trkpt lat="48.38567" lon="-3.80254">
        <ele>208.60000610352</ele>
        <time>2021-09-12T08:43:30Z</time>
      </trkpt>
      <trkpt lat="48.38568" lon="-3.80257">
        <ele>208.60000610352</ele>
        <time>2021-09-12T08:43:31Z</time>
      </trkpt>
      <trkpt lat="48.3857" lon="-3.8026">
        <ele>209</ele>
        <time>2021-09-12T08:43:32Z</time>
      </trkpt>
      <trkpt lat="48.38572" lon="-3.80262">
        <ele>209.19999694824</ele>
        <time>2021-09-12T08:43:33Z</time>
      </trkpt>
      <trkpt lat="48.38573" lon="-3.80264">
        <ele>209.80000305176</ele>
        <time>2021-09-12T08:43:34Z</time>
      </trkpt>
      <trkpt lat="48.38575" lon="-3.80268">
        <ele>210</ele>
        <time>2021-09-12T08:43:35Z</time>
      </trkpt>
      <trkpt lat="48.38577" lon="-3.8027">
        <ele>210.19999694824</ele>
        <time>2021-09-12T08:43:36Z</time>
      </trkpt>
      <trkpt lat="48.38579" lon="-3.80273">
        <ele>210.19999694824</ele>
        <time>2021-09-12T08:43:37Z</time>
      </trkpt>
      <trkpt lat="48.38581" lon="-3.80277">
        <ele>211</ele>
        <time>2021-09-12T08:43:38Z</time>
      </trkpt>
      <trkpt lat="48.38582" lon="-3.8028">
        <ele>211</ele>
        <time>2021-09-12T08:43:39Z</time>
      </trkpt>
      <trkpt lat="48.38584" lon="-3.80285">
        <ele>211.19999694824</ele>
        <time>2021-09-12T08:43:40Z</time>
      </trkpt>
      <trkpt lat="48.38586" lon="-3.80288">
        <ele>211.39999389648</ele>
        <time>2021-09-12T08:43:41Z</time>
      </trkpt>
      <trkpt lat="48.38587" lon="-3.80292">
        <ele>211.39999389648</ele>
        <time>2021-09-12T08:43:42Z</time>
      </trkpt>
      <trkpt lat="48.38589" lon="-3.80295">
        <ele>211.60000610352</ele>
        <time>2021-09-12T08:43:43Z</time>
      </trkpt>
      <trkpt lat="48.38591" lon="-3.80298">
        <ele>212</ele>
        <time>2021-09-12T08:43:44Z</time>
      </trkpt>
      <trkpt lat="48.38593" lon="-3.80302">
        <ele>212</ele>
        <time>2021-09-12T08:43:45Z</time>
      </trkpt>
      <trkpt lat="48.38594" lon="-3.80306">
        <ele>212.19999694824</ele>
        <time>2021-09-12T08:43:46Z</time>
      </trkpt>
      <trkpt lat="48.38596" lon="-3.8031">
        <ele>212.39999389648</ele>
        <time>2021-09-12T08:43:47Z</time>
      </trkpt>
      <trkpt lat="48.38598" lon="-3.80314">
        <ele>212.60000610352</ele>
        <time>2021-09-12T08:43:48Z</time>
      </trkpt>
      <trkpt lat="48.38599" lon="-3.80318">
        <ele>212.80000305176</ele>
        <time>2021-09-12T08:43:49Z</time>
      </trkpt>
      <trkpt lat="48.38601" lon="-3.80322">
        <ele>213.19999694824</ele>
        <time>2021-09-12T08:43:50Z</time>
      </trkpt>
      <trkpt lat="48.38602" lon="-3.80326">
        <ele>213.19999694824</ele>
        <time>2021-09-12T08:43:51Z</time>
      </trkpt>
      <trkpt lat="48.38604" lon="-3.8033">
        <ele>213.60000610352</ele>
        <time>2021-09-12T08:43:52Z</time>
      </trkpt>
      <trkpt lat="48.38604" lon="-3.80334">
        <ele>213.80000305176</ele>
        <time>2021-09-12T08:43:53Z</time>
      </trkpt>
      <trkpt lat="48.38605" lon="-3.80338">
        <ele>213.80000305176</ele>
        <time>2021-09-12T08:43:54Z</time>
      </trkpt>
      <trkpt lat="48.38606" lon="-3.80343">
        <ele>214.19999694824</ele>
        <time>2021-09-12T08:43:55Z</time>
      </trkpt>
      <trkpt lat="48.38607" lon="-3.80347">
        <ele>214.60000610352</ele>
        <time>2021-09-12T08:43:56Z</time>
      </trkpt>
      <trkpt lat="48.38608" lon="-3.80352">
        <ele>214.60000610352</ele>
        <time>2021-09-12T08:43:57Z</time>
      </trkpt>
      <trkpt lat="48.38609" lon="-3.80357">
        <ele>214.60000610352</ele>
        <time>2021-09-12T08:43:58Z</time>
      </trkpt>
      <trkpt lat="48.3861" lon="-3.80363">
        <ele>214.60000610352</ele>
        <time>2021-09-12T08:43:59Z</time>
      </trkpt>
      <trkpt lat="48.38612" lon="-3.8037">
        <ele>214.39999389648</ele>
        <time>2021-09-12T08:44:00Z</time>
      </trkpt>
      <trkpt lat="48.38613" lon="-3.80378">
        <ele>214.39999389648</ele>
        <time>2021-09-12T08:44:01Z</time>
      </trkpt>
      <trkpt lat="48.38615" lon="-3.80385">
        <ele>214.19999694824</ele>
        <time>2021-09-12T08:44:02Z</time>
      </trkpt>
      <trkpt lat="48.38616" lon="-3.80392">
        <ele>214.19999694824</ele>
        <time>2021-09-12T08:44:03Z</time>
      </trkpt>
      <trkpt lat="48.38615" lon="-3.80399">
        <ele>214.19999694824</ele>
        <time>2021-09-12T08:44:04Z</time>
      </trkpt>
      <trkpt lat="48.38614" lon="-3.80406">
        <ele>214.39999389648</ele>
        <time>2021-09-12T08:44:05Z</time>
      </trkpt>
      <trkpt lat="48.38613" lon="-3.80413">
        <ele>214.39999389648</ele>
        <time>2021-09-12T08:44:06Z</time>
      </trkpt>
      <trkpt lat="48.38613" lon="-3.80419">
        <ele>214.39999389648</ele>
        <time>2021-09-12T08:44:07Z</time>
      </trkpt>
      <trkpt lat="48.38614" lon="-3.80426">
        <ele>214.39999389648</ele>
        <time>2021-09-12T08:44:08Z</time>
      </trkpt>
      <trkpt lat="48.38614" lon="-3.80433">
        <ele>214.39999389648</ele>
        <time>2021-09-12T08:44:09Z</time>
      </trkpt>
      <trkpt lat="48.38614" lon="-3.8044">
        <ele>214.60000610352</ele>
        <time>2021-09-12T08:44:10Z</time>
      </trkpt>
      <trkpt lat="48.38613" lon="-3.80447">
        <ele>214.60000610352</ele>
        <time>2021-09-12T08:44:11Z</time>
      </trkpt>
      <trkpt lat="48.38611" lon="-3.80455">
        <ele>214.80000305176</ele>
        <time>2021-09-12T08:44:12Z</time>
      </trkpt>
      <trkpt lat="48.38611" lon="-3.80462">
        <ele>214.80000305176</ele>
        <time>2021-09-12T08:44:13Z</time>
      </trkpt>
      <trkpt lat="48.3861" lon="-3.80468">
        <ele>214.80000305176</ele>
        <time>2021-09-12T08:44:14Z</time>
      </trkpt>
      <trkpt lat="48.3861" lon="-3.80476">
        <ele>215.19999694824</ele>
        <time>2021-09-12T08:44:15Z</time>
      </trkpt>
      <trkpt lat="48.3861" lon="-3.80482">
        <ele>215.19999694824</ele>
        <time>2021-09-12T08:44:16Z</time>
      </trkpt>
      <trkpt lat="48.38611" lon="-3.80489">
        <ele>215.39999389648</ele>
        <time>2021-09-12T08:44:17Z</time>
      </trkpt>
      <trkpt lat="48.38612" lon="-3.80496">
        <ele>215.39999389648</ele>
        <time>2021-09-12T08:44:18Z</time>
      </trkpt>
      <trkpt lat="48.38613" lon="-3.80501">
        <ele>215.60000610352</ele>
        <time>2021-09-12T08:44:19Z</time>
      </trkpt>
      <trkpt lat="48.38614" lon="-3.80506">
        <ele>215.60000610352</ele>
        <time>2021-09-12T08:44:20Z</time>
      </trkpt>
      <trkpt lat="48.38612" lon="-3.80511">
        <ele>215.80000305176</ele>
        <time>2021-09-12T08:44:21Z</time>
      </trkpt>
      <trkpt lat="48.38612" lon="-3.80517">
        <ele>216</ele>
        <time>2021-09-12T08:44:22Z</time>
      </trkpt>
      <trkpt lat="48.38612" lon="-3.80523">
        <ele>216</ele>
        <time>2021-09-12T08:44:23Z</time>
      </trkpt>
      <trkpt lat="48.38614" lon="-3.80528">
        <ele>216.19999694824</ele>
        <time>2021-09-12T08:44:24Z</time>
      </trkpt>
      <trkpt lat="48.38615" lon="-3.80533">
        <ele>216.39999389648</ele>
        <time>2021-09-12T08:44:25Z</time>
      </trkpt>
      <trkpt lat="48.38615" lon="-3.80539">
        <ele>216.39999389648</ele>
        <time>2021-09-12T08:44:26Z</time>
      </trkpt>
      <trkpt lat="48.38616" lon="-3.80544">
        <ele>216.60000610352</ele>
        <time>2021-09-12T08:44:27Z</time>
      </trkpt>
      <trkpt lat="48.38617" lon="-3.80549">
        <ele>216.60000610352</ele>
        <time>2021-09-12T08:44:28Z</time>
      </trkpt>
      <trkpt lat="48.38618" lon="-3.80555">
        <ele>217</ele>
        <time>2021-09-12T08:44:29Z</time>
      </trkpt>
      <trkpt lat="48.38618" lon="-3.8056">
        <ele>217.39999389648</ele>
        <time>2021-09-12T08:44:30Z</time>
      </trkpt>
      <trkpt lat="48.38619" lon="-3.80565">
        <ele>217.39999389648</ele>
        <time>2021-09-12T08:44:31Z</time>
      </trkpt>
      <trkpt lat="48.38619" lon="-3.80569">
        <ele>218</ele>
        <time>2021-09-12T08:44:32Z</time>
      </trkpt>
      <trkpt lat="48.38619" lon="-3.80572">
        <ele>218</ele>
        <time>2021-09-12T08:44:33Z</time>
      </trkpt>
      <trkpt lat="48.38619" lon="-3.80575">
        <ele>218.19999694824</ele>
        <time>2021-09-12T08:44:34Z</time>
      </trkpt>
      <trkpt lat="48.38619" lon="-3.80579">
        <ele>218.60000610352</ele>
        <time>2021-09-12T08:44:35Z</time>
      </trkpt>
      <trkpt lat="48.38619" lon="-3.80583">
        <ele>218.60000610352</ele>
        <time>2021-09-12T08:44:36Z</time>
      </trkpt>
      <trkpt lat="48.3862" lon="-3.80587">
        <ele>218.60000610352</ele>
        <time>2021-09-12T08:44:37Z</time>
      </trkpt>
      <trkpt lat="48.38621" lon="-3.80592">
        <ele>219</ele>
        <time>2021-09-12T08:44:38Z</time>
      </trkpt>
      <trkpt lat="48.38621" lon="-3.80596">
        <ele>219.39999389648</ele>
        <time>2021-09-12T08:44:39Z</time>
      </trkpt>
      <trkpt lat="48.38621" lon="-3.80601">
        <ele>219.39999389648</ele>
        <time>2021-09-12T08:44:40Z</time>
      </trkpt>
      <trkpt lat="48.38621" lon="-3.80606">
        <ele>219.80000305176</ele>
        <time>2021-09-12T08:44:41Z</time>
      </trkpt>
      <trkpt lat="48.3862" lon="-3.80609">
        <ele>220</ele>
        <time>2021-09-12T08:44:42Z</time>
      </trkpt>
      <trkpt lat="48.3862" lon="-3.80613">
        <ele>220.39999389648</ele>
        <time>2021-09-12T08:44:43Z</time>
      </trkpt>
      <trkpt lat="48.3862" lon="-3.80618">
        <ele>220.39999389648</ele>
        <time>2021-09-12T08:44:44Z</time>
      </trkpt>
      <trkpt lat="48.38621" lon="-3.80622">
        <ele>220.60000610352</ele>
        <time>2021-09-12T08:44:45Z</time>
      </trkpt>
      <trkpt lat="48.38622" lon="-3.80627">
        <ele>220.60000610352</ele>
        <time>2021-09-12T08:44:46Z</time>
      </trkpt>
      <trkpt lat="48.38624" lon="-3.80633">
        <ele>220.80000305176</ele>
        <time>2021-09-12T08:44:47Z</time>
      </trkpt>
      <trkpt lat="48.38624" lon="-3.80639">
        <ele>220.80000305176</ele>
        <time>2021-09-12T08:44:48Z</time>
      </trkpt>
      <trkpt lat="48.38624" lon="-3.80645">
        <ele>221.19999694824</ele>
        <time>2021-09-12T08:44:49Z</time>
      </trkpt>
      <trkpt lat="48.38624" lon="-3.80651">
        <ele>221.39999389648</ele>
        <time>2021-09-12T08:44:50Z</time>
      </trkpt>
      <trkpt lat="48.38624" lon="-3.80656">
        <ele>221.39999389648</ele>
        <time>2021-09-12T08:44:51Z</time>
      </trkpt>
      <trkpt lat="48.38625" lon="-3.80661">
        <ele>221.39999389648</ele>
        <time>2021-09-12T08:44:52Z</time>
      </trkpt>
      <trkpt lat="48.38626" lon="-3.80667">
        <ele>221.39999389648</ele>
        <time>2021-09-12T08:44:53Z</time>
      </trkpt>
      <trkpt lat="48.38626" lon="-3.80672">
        <ele>221.60000610352</ele>
        <time>2021-09-12T08:44:54Z</time>
      </trkpt>
      <trkpt lat="48.38626" lon="-3.80678">
        <ele>222</ele>
        <time>2021-09-12T08:44:55Z</time>
      </trkpt>
      <trkpt lat="48.38627" lon="-3.80683">
        <ele>222.19999694824</ele>
        <time>2021-09-12T08:44:56Z</time>
      </trkpt>
      <trkpt lat="48.38628" lon="-3.8069">
        <ele>222.19999694824</ele>
        <time>2021-09-12T08:44:57Z</time>
      </trkpt>
      <trkpt lat="48.38629" lon="-3.80695">
        <ele>222.39999389648</ele>
        <time>2021-09-12T08:44:58Z</time>
      </trkpt>
      <trkpt lat="48.38629" lon="-3.807">
        <ele>222.39999389648</ele>
        <time>2021-09-12T08:44:59Z</time>
      </trkpt>
      <trkpt lat="48.3863" lon="-3.80704">
        <ele>222.60000610352</ele>
        <time>2021-09-12T08:45:00Z</time>
      </trkpt>
      <trkpt lat="48.38631" lon="-3.8071">
        <ele>223</ele>
        <time>2021-09-12T08:45:01Z</time>
      </trkpt>
      <trkpt lat="48.38631" lon="-3.80716">
        <ele>223</ele>
        <time>2021-09-12T08:45:02Z</time>
      </trkpt>
      <trkpt lat="48.38632" lon="-3.8072">
        <ele>223</ele>
        <time>2021-09-12T08:45:03Z</time>
      </trkpt>
      <trkpt lat="48.38633" lon="-3.80725">
        <ele>223.19999694824</ele>
        <time>2021-09-12T08:45:04Z</time>
      </trkpt>
      <trkpt lat="48.38635" lon="-3.80728">
        <ele>223.39999389648</ele>
        <time>2021-09-12T08:45:05Z</time>
      </trkpt>
      <trkpt lat="48.38636" lon="-3.80731">
        <ele>223.39999389648</ele>
        <time>2021-09-12T08:45:06Z</time>
      </trkpt>
      <trkpt lat="48.38637" lon="-3.80734">
        <ele>223.80000305176</ele>
        <time>2021-09-12T08:45:07Z</time>
      </trkpt>
      <trkpt lat="48.38638" lon="-3.80737">
        <ele>223.80000305176</ele>
        <time>2021-09-12T08:45:08Z</time>
      </trkpt>
      <trkpt lat="48.38639" lon="-3.80739">
        <ele>224</ele>
        <time>2021-09-12T08:45:09Z</time>
      </trkpt>
      <trkpt lat="48.3864" lon="-3.80742">
        <ele>224.19999694824</ele>
        <time>2021-09-12T08:45:10Z</time>
      </trkpt>
      <trkpt lat="48.38641" lon="-3.80745">
        <ele>224.60000610352</ele>
        <time>2021-09-12T08:45:11Z</time>
      </trkpt>
      <trkpt lat="48.38642" lon="-3.80749">
        <ele>224.80000305176</ele>
        <time>2021-09-12T08:45:12Z</time>
      </trkpt>
      <trkpt lat="48.38644" lon="-3.80752">
        <ele>225</ele>
        <time>2021-09-12T08:45:13Z</time>
      </trkpt>
      <trkpt lat="48.38645" lon="-3.80757">
        <ele>225</ele>
        <time>2021-09-12T08:45:14Z</time>
      </trkpt>
      <trkpt lat="48.38647" lon="-3.80761">
        <ele>225.19999694824</ele>
        <time>2021-09-12T08:45:15Z</time>
      </trkpt>
      <trkpt lat="48.38648" lon="-3.80765">
        <ele>225.19999694824</ele>
        <time>2021-09-12T08:45:16Z</time>
      </trkpt>
      <trkpt lat="48.38649" lon="-3.80768">
        <ele>225.19999694824</ele>
        <time>2021-09-12T08:45:17Z</time>
      </trkpt>
      <trkpt lat="48.38651" lon="-3.80772">
        <ele>225.39999389648</ele>
        <time>2021-09-12T08:45:18Z</time>
      </trkpt>
      <trkpt lat="48.38652" lon="-3.80776">
        <ele>225.60000610352</ele>
        <time>2021-09-12T08:45:19Z</time>
      </trkpt>
      <trkpt lat="48.38653" lon="-3.8078">
        <ele>225.60000610352</ele>
        <time>2021-09-12T08:45:20Z</time>
      </trkpt>
      <trkpt lat="48.38654" lon="-3.80785">
        <ele>226</ele>
        <time>2021-09-12T08:45:21Z</time>
      </trkpt>
      <trkpt lat="48.38655" lon="-3.80789">
        <ele>226.39999389648</ele>
        <time>2021-09-12T08:45:22Z</time>
      </trkpt>
      <trkpt lat="48.38656" lon="-3.80793">
        <ele>226.39999389648</ele>
        <time>2021-09-12T08:45:23Z</time>
      </trkpt>
      <trkpt lat="48.38657" lon="-3.80797">
        <ele>226.39999389648</ele>
        <time>2021-09-12T08:45:24Z</time>
      </trkpt>
      <trkpt lat="48.38658" lon="-3.80801">
        <ele>226.80000305176</ele>
        <time>2021-09-12T08:45:25Z</time>
      </trkpt>
      <trkpt lat="48.3866" lon="-3.80805">
        <ele>227</ele>
        <time>2021-09-12T08:45:26Z</time>
      </trkpt>
      <trkpt lat="48.38661" lon="-3.80808">
        <ele>227.39999389648</ele>
        <time>2021-09-12T08:45:27Z</time>
      </trkpt>
      <trkpt lat="48.38662" lon="-3.80812">
        <ele>227.39999389648</ele>
        <time>2021-09-12T08:45:28Z</time>
      </trkpt>
      <trkpt lat="48.38663" lon="-3.80815">
        <ele>227.60000610352</ele>
        <time>2021-09-12T08:45:29Z</time>
      </trkpt>
      <trkpt lat="48.38665" lon="-3.80819">
        <ele>228</ele>
        <time>2021-09-12T08:45:30Z</time>
      </trkpt>
      <trkpt lat="48.38666" lon="-3.80822">
        <ele>228</ele>
        <time>2021-09-12T08:45:31Z</time>
      </trkpt>
      <trkpt lat="48.38666" lon="-3.80824">
        <ele>228</ele>
        <time>2021-09-12T08:45:32Z</time>
      </trkpt>
      <trkpt lat="48.38667" lon="-3.80827">
        <ele>228</ele>
        <time>2021-09-12T08:45:33Z</time>
      </trkpt>
      <trkpt lat="48.38669" lon="-3.8083">
        <ele>228</ele>
        <time>2021-09-12T08:45:34Z</time>
      </trkpt>
      <trkpt lat="48.38669" lon="-3.80833">
        <ele>228.39999389648</ele>
        <time>2021-09-12T08:45:35Z</time>
      </trkpt>
      <trkpt lat="48.3867" lon="-3.80836">
        <ele>228.80000305176</ele>
        <time>2021-09-12T08:45:36Z</time>
      </trkpt>
      <trkpt lat="48.3867" lon="-3.8084">
        <ele>228.80000305176</ele>
        <time>2021-09-12T08:45:37Z</time>
      </trkpt>
      <trkpt lat="48.38672" lon="-3.80843">
        <ele>229</ele>
        <time>2021-09-12T08:45:38Z</time>
      </trkpt>
      <trkpt lat="48.38673" lon="-3.80846">
        <ele>229.39999389648</ele>
        <time>2021-09-12T08:45:39Z</time>
      </trkpt>
      <trkpt lat="48.38675" lon="-3.80848">
        <ele>229.60000610352</ele>
        <time>2021-09-12T08:45:40Z</time>
      </trkpt>
      <trkpt lat="48.38676" lon="-3.8085">
        <ele>229.80000305176</ele>
        <time>2021-09-12T08:45:41Z</time>
      </trkpt>
      <trkpt lat="48.38677" lon="-3.80854">
        <ele>229.80000305176</ele>
        <time>2021-09-12T08:45:42Z</time>
      </trkpt>
      <trkpt lat="48.38678" lon="-3.80857">
        <ele>230.39999389648</ele>
        <time>2021-09-12T08:45:43Z</time>
      </trkpt>
      <trkpt lat="48.38679" lon="-3.80861">
        <ele>230.39999389648</ele>
        <time>2021-09-12T08:45:44Z</time>
      </trkpt>
      <trkpt lat="48.38681" lon="-3.80865">
        <ele>230.80000305176</ele>
        <time>2021-09-12T08:45:45Z</time>
      </trkpt>
      <trkpt lat="48.38682" lon="-3.8087">
        <ele>231.19999694824</ele>
        <time>2021-09-12T08:45:46Z</time>
      </trkpt>
      <trkpt lat="48.38683" lon="-3.80876">
        <ele>231.39999389648</ele>
        <time>2021-09-12T08:45:47Z</time>
      </trkpt>
      <trkpt lat="48.38685" lon="-3.80881">
        <ele>231.60000610352</ele>
        <time>2021-09-12T08:45:48Z</time>
      </trkpt>
      <trkpt lat="48.38687" lon="-3.80884">
        <ele>231.80000305176</ele>
        <time>2021-09-12T08:45:49Z</time>
      </trkpt>
      <trkpt lat="48.38687" lon="-3.80888">
        <ele>232.19999694824</ele>
        <time>2021-09-12T08:45:50Z</time>
      </trkpt>
      <trkpt lat="48.38687" lon="-3.80892">
        <ele>232.19999694824</ele>
        <time>2021-09-12T08:45:51Z</time>
      </trkpt>
      <trkpt lat="48.38688" lon="-3.80895">
        <ele>232.39999389648</ele>
        <time>2021-09-12T08:45:52Z</time>
      </trkpt>
      <trkpt lat="48.3869" lon="-3.80899">
        <ele>232.39999389648</ele>
        <time>2021-09-12T08:45:53Z</time>
      </trkpt>
      <trkpt lat="48.38691" lon="-3.80902">
        <ele>232.60000610352</ele>
        <time>2021-09-12T08:45:54Z</time>
      </trkpt>
      <trkpt lat="48.38692" lon="-3.80905">
        <ele>232.80000305176</ele>
        <time>2021-09-12T08:45:55Z</time>
      </trkpt>
      <trkpt lat="48.38694" lon="-3.80909">
        <ele>233</ele>
        <time>2021-09-12T08:45:56Z</time>
      </trkpt>
      <trkpt lat="48.38695" lon="-3.80912">
        <ele>233</ele>
        <time>2021-09-12T08:45:57Z</time>
      </trkpt>
      <trkpt lat="48.38696" lon="-3.80915">
        <ele>233</ele>
        <time>2021-09-12T08:45:58Z</time>
      </trkpt>
      <trkpt lat="48.38698" lon="-3.80917">
        <ele>233.60000610352</ele>
        <time>2021-09-12T08:45:59Z</time>
      </trkpt>
      <trkpt lat="48.38699" lon="-3.8092">
        <ele>233.60000610352</ele>
        <time>2021-09-12T08:46:00Z</time>
      </trkpt>
      <trkpt lat="48.387" lon="-3.80922">
        <ele>234</ele>
        <time>2021-09-12T08:46:01Z</time>
      </trkpt>
      <trkpt lat="48.38701" lon="-3.80924">
        <ele>234</ele>
        <time>2021-09-12T08:46:02Z</time>
      </trkpt>
      <trkpt lat="48.38702" lon="-3.80926">
        <ele>234</ele>
        <time>2021-09-12T08:46:03Z</time>
      </trkpt>
      <trkpt lat="48.38703" lon="-3.80929">
        <ele>234.60000610352</ele>
        <time>2021-09-12T08:46:04Z</time>
      </trkpt>
      <trkpt lat="48.38704" lon="-3.80932">
        <ele>234.80000305176</ele>
        <time>2021-09-12T08:46:05Z</time>
      </trkpt>
      <trkpt lat="48.38705" lon="-3.80934">
        <ele>235</ele>
        <time>2021-09-12T08:46:06Z</time>
      </trkpt>
      <trkpt lat="48.38706" lon="-3.80936">
        <ele>235.39999389648</ele>
        <time>2021-09-12T08:46:07Z</time>
      </trkpt>
      <trkpt lat="48.38708" lon="-3.80939">
        <ele>235.60000610352</ele>
        <time>2021-09-12T08:46:08Z</time>
      </trkpt>
      <trkpt lat="48.38708" lon="-3.80942">
        <ele>235.60000610352</ele>
        <time>2021-09-12T08:46:09Z</time>
      </trkpt>
      <trkpt lat="48.38709" lon="-3.80944">
        <ele>235.80000305176</ele>
        <time>2021-09-12T08:46:10Z</time>
      </trkpt>
      <trkpt lat="48.3871" lon="-3.80947">
        <ele>236</ele>
        <time>2021-09-12T08:46:11Z</time>
      </trkpt>
      <trkpt lat="48.38711" lon="-3.8095">
        <ele>236.19999694824</ele>
        <time>2021-09-12T08:46:12Z</time>
      </trkpt>
      <trkpt lat="48.38712" lon="-3.80952">
        <ele>236.80000305176</ele>
        <time>2021-09-12T08:46:13Z</time>
      </trkpt>
      <trkpt lat="48.38713" lon="-3.80955">
        <ele>237</ele>
        <time>2021-09-12T08:46:14Z</time>
      </trkpt>
      <trkpt lat="48.38714" lon="-3.80957">
        <ele>237</ele>
        <time>2021-09-12T08:46:15Z</time>
      </trkpt>
      <trkpt lat="48.38714" lon="-3.8096">
        <ele>237.19999694824</ele>
        <time>2021-09-12T08:46:16Z</time>
      </trkpt>
      <trkpt lat="48.38715" lon="-3.80962">
        <ele>237.60000610352</ele>
        <time>2021-09-12T08:46:17Z</time>
      </trkpt>
      <trkpt lat="48.38716" lon="-3.80965">
        <ele>237.60000610352</ele>
        <time>2021-09-12T08:46:18Z</time>
      </trkpt>
      <trkpt lat="48.38717" lon="-3.80967">
        <ele>237.80000305176</ele>
        <time>2021-09-12T08:46:19Z</time>
      </trkpt>
      <trkpt lat="48.38717" lon="-3.80969">
        <ele>238</ele>
        <time>2021-09-12T08:46:20Z</time>
      </trkpt>
      <trkpt lat="48.38719" lon="-3.80971">
        <ele>238.19999694824</ele>
        <time>2021-09-12T08:46:21Z</time>
      </trkpt>
      <trkpt lat="48.3872" lon="-3.80973">
        <ele>238.19999694824</ele>
        <time>2021-09-12T08:46:22Z</time>
      </trkpt>
      <trkpt lat="48.38721" lon="-3.80976">
        <ele>238.60000610352</ele>
        <time>2021-09-12T08:46:23Z</time>
      </trkpt>
      <trkpt lat="48.38721" lon="-3.80978">
        <ele>238.80000305176</ele>
        <time>2021-09-12T08:46:24Z</time>
      </trkpt>
      <trkpt lat="48.38722" lon="-3.8098">
        <ele>239</ele>
        <time>2021-09-12T08:46:25Z</time>
      </trkpt>
      <trkpt lat="48.38723" lon="-3.80983">
        <ele>239.19999694824</ele>
        <time>2021-09-12T08:46:26Z</time>
      </trkpt>
      <trkpt lat="48.38724" lon="-3.80985">
        <ele>239.19999694824</ele>
        <time>2021-09-12T08:46:27Z</time>
      </trkpt>
      <trkpt lat="48.38724" lon="-3.80987">
        <ele>239.39999389648</ele>
        <time>2021-09-12T08:46:28Z</time>
      </trkpt>
      <trkpt lat="48.38725" lon="-3.80989">
        <ele>239.60000610352</ele>
        <time>2021-09-12T08:46:29Z</time>
      </trkpt>
      <trkpt lat="48.38726" lon="-3.80992">
        <ele>239.60000610352</ele>
        <time>2021-09-12T08:46:30Z</time>
      </trkpt>
      <trkpt lat="48.38728" lon="-3.80994">
        <ele>239.60000610352</ele>
        <time>2021-09-12T08:46:31Z</time>
      </trkpt>
      <trkpt lat="48.38729" lon="-3.80997">
        <ele>240</ele>
        <time>2021-09-12T08:46:32Z</time>
      </trkpt>
      <trkpt lat="48.38729" lon="-3.81">
        <ele>240</ele>
        <time>2021-09-12T08:46:33Z</time>
      </trkpt>
      <trkpt lat="48.3873" lon="-3.81003">
        <ele>240</ele>
        <time>2021-09-12T08:46:34Z</time>
      </trkpt>
      <trkpt lat="48.38731" lon="-3.81005">
        <ele>240.19999694824</ele>
        <time>2021-09-12T08:46:35Z</time>
      </trkpt>
      <trkpt lat="48.38732" lon="-3.81007">
        <ele>240.39999389648</ele>
        <time>2021-09-12T08:46:36Z</time>
      </trkpt>
      <trkpt lat="48.38733" lon="-3.8101">
        <ele>240.80000305176</ele>
        <time>2021-09-12T08:46:37Z</time>
      </trkpt>
      <trkpt lat="48.38734" lon="-3.81011">
        <ele>241</ele>
        <time>2021-09-12T08:46:38Z</time>
      </trkpt>
      <trkpt lat="48.38735" lon="-3.81013">
        <ele>241.19999694824</ele>
        <time>2021-09-12T08:46:39Z</time>
      </trkpt>
      <trkpt lat="48.38736" lon="-3.81015">
        <ele>241.19999694824</ele>
        <time>2021-09-12T08:46:40Z</time>
      </trkpt>
      <trkpt lat="48.38737" lon="-3.81017">
        <ele>241.19999694824</ele>
        <time>2021-09-12T08:46:41Z</time>
      </trkpt>
      <trkpt lat="48.38738" lon="-3.81019">
        <ele>241.60000610352</ele>
        <time>2021-09-12T08:46:42Z</time>
      </trkpt>
      <trkpt lat="48.38738" lon="-3.81022">
        <ele>241.80000305176</ele>
        <time>2021-09-12T08:46:43Z</time>
      </trkpt>
      <trkpt lat="48.38739" lon="-3.81024">
        <ele>242</ele>
        <time>2021-09-12T08:46:44Z</time>
      </trkpt>
      <trkpt lat="48.38739" lon="-3.81027">
        <ele>242</ele>
        <time>2021-09-12T08:46:45Z</time>
      </trkpt>
      <trkpt lat="48.3874" lon="-3.8103">
        <ele>242.19999694824</ele>
        <time>2021-09-12T08:46:46Z</time>
      </trkpt>
      <trkpt lat="48.38741" lon="-3.81032">
        <ele>242.39999389648</ele>
        <time>2021-09-12T08:46:47Z</time>
      </trkpt>
      <trkpt lat="48.38742" lon="-3.81034">
        <ele>242.60000610352</ele>
        <time>2021-09-12T08:46:48Z</time>
      </trkpt>
      <trkpt lat="48.38742" lon="-3.81036">
        <ele>242.60000610352</ele>
        <time>2021-09-12T08:46:49Z</time>
      </trkpt>
      <trkpt lat="48.38743" lon="-3.81038">
        <ele>242.80000305176</ele>
        <time>2021-09-12T08:46:50Z</time>
      </trkpt>
      <trkpt lat="48.38743" lon="-3.81041">
        <ele>243</ele>
        <time>2021-09-12T08:46:51Z</time>
      </trkpt>
      <trkpt lat="48.38742" lon="-3.81043">
        <ele>243</ele>
        <time>2021-09-12T08:46:52Z</time>
      </trkpt>
      <trkpt lat="48.38743" lon="-3.81047">
        <ele>243.39999389648</ele>
        <time>2021-09-12T08:46:53Z</time>
      </trkpt>
      <trkpt lat="48.38744" lon="-3.8105">
        <ele>243.60000610352</ele>
        <time>2021-09-12T08:46:54Z</time>
      </trkpt>
      <trkpt lat="48.38744" lon="-3.81054">
        <ele>243.60000610352</ele>
        <time>2021-09-12T08:46:55Z</time>
      </trkpt>
      <trkpt lat="48.38744" lon="-3.81057">
        <ele>244</ele>
        <time>2021-09-12T08:46:56Z</time>
      </trkpt>
      <trkpt lat="48.38746" lon="-3.8106">
        <ele>244</ele>
        <time>2021-09-12T08:46:57Z</time>
      </trkpt>
      <trkpt lat="48.38747" lon="-3.81063">
        <ele>244.39999389648</ele>
        <time>2021-09-12T08:46:58Z</time>
      </trkpt>
      <trkpt lat="48.38748" lon="-3.81066">
        <ele>244.39999389648</ele>
        <time>2021-09-12T08:46:59Z</time>
      </trkpt>
      <trkpt lat="48.38749" lon="-3.81069">
        <ele>244.80000305176</ele>
        <time>2021-09-12T08:47:00Z</time>
      </trkpt>
      <trkpt lat="48.3875" lon="-3.81072">
        <ele>244.80000305176</ele>
        <time>2021-09-12T08:47:01Z</time>
      </trkpt>
      <trkpt lat="48.38751" lon="-3.81075">
        <ele>245</ele>
        <time>2021-09-12T08:47:02Z</time>
      </trkpt>
      <trkpt lat="48.38752" lon="-3.81078">
        <ele>245.19999694824</ele>
        <time>2021-09-12T08:47:03Z</time>
      </trkpt>
      <trkpt lat="48.38752" lon="-3.8108">
        <ele>245.39999389648</ele>
        <time>2021-09-12T08:47:04Z</time>
      </trkpt>
      <trkpt lat="48.38753" lon="-3.81082">
        <ele>245.80000305176</ele>
        <time>2021-09-12T08:47:05Z</time>
      </trkpt>
      <trkpt lat="48.38753" lon="-3.81085">
        <ele>245.80000305176</ele>
        <time>2021-09-12T08:47:06Z</time>
      </trkpt>
      <trkpt lat="48.38754" lon="-3.81088">
        <ele>245.80000305176</ele>
        <time>2021-09-12T08:47:07Z</time>
      </trkpt>
      <trkpt lat="48.38754" lon="-3.81091">
        <ele>246.19999694824</ele>
        <time>2021-09-12T08:47:08Z</time>
      </trkpt>
      <trkpt lat="48.38754" lon="-3.81094">
        <ele>246.19999694824</ele>
        <time>2021-09-12T08:47:09Z</time>
      </trkpt>
      <trkpt lat="48.38755" lon="-3.81096">
        <ele>246.60000610352</ele>
        <time>2021-09-12T08:47:10Z</time>
      </trkpt>
      <trkpt lat="48.38756" lon="-3.81099">
        <ele>246.60000610352</ele>
        <time>2021-09-12T08:47:11Z</time>
      </trkpt>
      <trkpt lat="48.38756" lon="-3.81102">
        <ele>246.60000610352</ele>
        <time>2021-09-12T08:47:12Z</time>
      </trkpt>
      <trkpt lat="48.38757" lon="-3.81106">
        <ele>246.80000305176</ele>
        <time>2021-09-12T08:47:13Z</time>
      </trkpt>
      <trkpt lat="48.38758" lon="-3.81109">
        <ele>247</ele>
        <time>2021-09-12T08:47:14Z</time>
      </trkpt>
      <trkpt lat="48.38759" lon="-3.81112">
        <ele>247</ele>
        <time>2021-09-12T08:47:15Z</time>
      </trkpt>
      <trkpt lat="48.38759" lon="-3.81116">
        <ele>247.19999694824</ele>
        <time>2021-09-12T08:47:16Z</time>
      </trkpt>
      <trkpt lat="48.3876" lon="-3.81119">
        <ele>247.19999694824</ele>
        <time>2021-09-12T08:47:17Z</time>
      </trkpt>
      <trkpt lat="48.3876" lon="-3.81123">
        <ele>247.39999389648</ele>
        <time>2021-09-12T08:47:18Z</time>
      </trkpt>
      <trkpt lat="48.3876" lon="-3.81126">
        <ele>247.39999389648</ele>
        <time>2021-09-12T08:47:19Z</time>
      </trkpt>
      <trkpt lat="48.38761" lon="-3.81129">
        <ele>247.60000610352</ele>
        <time>2021-09-12T08:47:20Z</time>
      </trkpt>
      <trkpt lat="48.38761" lon="-3.81133">
        <ele>247.60000610352</ele>
        <time>2021-09-12T08:47:21Z</time>
      </trkpt>
      <trkpt lat="48.38762" lon="-3.81136">
        <ele>247.60000610352</ele>
        <time>2021-09-12T08:47:22Z</time>
      </trkpt>
      <trkpt lat="48.38762" lon="-3.8114">
        <ele>247.80000305176</ele>
        <time>2021-09-12T08:47:23Z</time>
      </trkpt>
      <trkpt lat="48.38762" lon="-3.81144">
        <ele>248</ele>
        <time>2021-09-12T08:47:24Z</time>
      </trkpt>
      <trkpt lat="48.38763" lon="-3.81147">
        <ele>248</ele>
        <time>2021-09-12T08:47:25Z</time>
      </trkpt>
      <trkpt lat="48.38763" lon="-3.81151">
        <ele>248.19999694824</ele>
        <time>2021-09-12T08:47:26Z</time>
      </trkpt>
      <trkpt lat="48.38763" lon="-3.81155">
        <ele>248.39999389648</ele>
        <time>2021-09-12T08:47:27Z</time>
      </trkpt>
      <trkpt lat="48.38764" lon="-3.81159">
        <ele>248.39999389648</ele>
        <time>2021-09-12T08:47:28Z</time>
      </trkpt>
      <trkpt lat="48.38763" lon="-3.81163">
        <ele>248.60000610352</ele>
        <time>2021-09-12T08:47:29Z</time>
      </trkpt>
      <trkpt lat="48.38763" lon="-3.81168">
        <ele>248.60000610352</ele>
        <time>2021-09-12T08:47:30Z</time>
      </trkpt>
      <trkpt lat="48.38763" lon="-3.81173">
        <ele>248.60000610352</ele>
        <time>2021-09-12T08:47:31Z</time>
      </trkpt>
      <trkpt lat="48.38764" lon="-3.81178">
        <ele>248.60000610352</ele>
        <time>2021-09-12T08:47:32Z</time>
      </trkpt>
      <trkpt lat="48.38764" lon="-3.81183">
        <ele>248.60000610352</ele>
        <time>2021-09-12T08:47:33Z</time>
      </trkpt>
      <trkpt lat="48.38764" lon="-3.81188">
        <ele>248.60000610352</ele>
        <time>2021-09-12T08:47:34Z</time>
      </trkpt>
      <trkpt lat="48.38765" lon="-3.81193">
        <ele>248.39999389648</ele>
        <time>2021-09-12T08:47:35Z</time>
      </trkpt>
      <trkpt lat="48.38766" lon="-3.81198">
        <ele>248.39999389648</ele>
        <time>2021-09-12T08:47:36Z</time>
      </trkpt>
      <trkpt lat="48.38766" lon="-3.81202">
        <ele>248.19999694824</ele>
        <time>2021-09-12T08:47:37Z</time>
      </trkpt>
      <trkpt lat="48.38766" lon="-3.81206">
        <ele>248.19999694824</ele>
        <time>2021-09-12T08:47:38Z</time>
      </trkpt>
      <trkpt lat="48.38766" lon="-3.8121">
        <ele>248.19999694824</ele>
        <time>2021-09-12T08:47:39Z</time>
      </trkpt>
      <trkpt lat="48.38767" lon="-3.81215">
        <ele>248.19999694824</ele>
        <time>2021-09-12T08:47:40Z</time>
      </trkpt>
      <trkpt lat="48.38767" lon="-3.81221">
        <ele>248.19999694824</ele>
        <time>2021-09-12T08:47:41Z</time>
      </trkpt>
      <trkpt lat="48.38768" lon="-3.81228">
        <ele>248</ele>
        <time>2021-09-12T08:47:42Z</time>
      </trkpt>
      <trkpt lat="48.38768" lon="-3.81234">
        <ele>247.60000610352</ele>
        <time>2021-09-12T08:47:43Z</time>
      </trkpt>
      <trkpt lat="48.38769" lon="-3.81241">
        <ele>247.60000610352</ele>
        <time>2021-09-12T08:47:44Z</time>
      </trkpt>
      <trkpt lat="48.38769" lon="-3.81249">
        <ele>247.39999389648</ele>
        <time>2021-09-12T08:47:45Z</time>
      </trkpt>
      <trkpt lat="48.3877" lon="-3.81256">
        <ele>247</ele>
        <time>2021-09-12T08:47:46Z</time>
      </trkpt>
      <trkpt lat="48.38772" lon="-3.81263">
        <ele>247</ele>
        <time>2021-09-12T08:47:47Z</time>
      </trkpt>
      <trkpt lat="48.38773" lon="-3.81271">
        <ele>247</ele>
        <time>2021-09-12T08:47:48Z</time>
      </trkpt>
      <trkpt lat="48.38774" lon="-3.8128">
        <ele>246.39999389648</ele>
        <time>2021-09-12T08:47:49Z</time>
      </trkpt>
      <trkpt lat="48.38776" lon="-3.81289">
        <ele>246</ele>
        <time>2021-09-12T08:47:50Z</time>
      </trkpt>
      <trkpt lat="48.38778" lon="-3.81299">
        <ele>245.60000610352</ele>
        <time>2021-09-12T08:47:51Z</time>
      </trkpt>
      <trkpt lat="48.3878" lon="-3.81308">
        <ele>245.39999389648</ele>
        <time>2021-09-12T08:47:52Z</time>
      </trkpt>
      <trkpt lat="48.38782" lon="-3.81317">
        <ele>245.39999389648</ele>
        <time>2021-09-12T08:47:53Z</time>
      </trkpt>
      <trkpt lat="48.38784" lon="-3.81326">
        <ele>245</ele>
        <time>2021-09-12T08:47:54Z</time>
      </trkpt>
      <trkpt lat="48.38786" lon="-3.81335">
        <ele>245</ele>
        <time>2021-09-12T08:47:55Z</time>
      </trkpt>
      <trkpt lat="48.38788" lon="-3.81344">
        <ele>245</ele>
        <time>2021-09-12T08:47:56Z</time>
      </trkpt>
      <trkpt lat="48.3879" lon="-3.81353">
        <ele>244.60000610352</ele>
        <time>2021-09-12T08:47:57Z</time>
      </trkpt>
      <trkpt lat="48.38792" lon="-3.81362">
        <ele>244.60000610352</ele>
        <time>2021-09-12T08:47:58Z</time>
      </trkpt>
      <trkpt lat="48.38794" lon="-3.81369">
        <ele>244.39999389648</ele>
        <time>2021-09-12T08:47:59Z</time>
      </trkpt>
      <trkpt lat="48.38795" lon="-3.81377">
        <ele>244.39999389648</ele>
        <time>2021-09-12T08:48:00Z</time>
      </trkpt>
      <trkpt lat="48.38797" lon="-3.81385">
        <ele>244.39999389648</ele>
        <time>2021-09-12T08:48:01Z</time>
      </trkpt>
      <trkpt lat="48.38799" lon="-3.81393">
        <ele>244.39999389648</ele>
        <time>2021-09-12T08:48:02Z</time>
      </trkpt>
      <trkpt lat="48.38802" lon="-3.81402">
        <ele>244.39999389648</ele>
        <time>2021-09-12T08:48:03Z</time>
      </trkpt>
      <trkpt lat="48.38804" lon="-3.8141">
        <ele>244.39999389648</ele>
        <time>2021-09-12T08:48:04Z</time>
      </trkpt>
      <trkpt lat="48.38805" lon="-3.81417">
        <ele>244.39999389648</ele>
        <time>2021-09-12T08:48:05Z</time>
      </trkpt>
      <trkpt lat="48.38807" lon="-3.81424">
        <ele>244.60000610352</ele>
        <time>2021-09-12T08:48:06Z</time>
      </trkpt>
      <trkpt lat="48.38808" lon="-3.8143">
        <ele>244.60000610352</ele>
        <time>2021-09-12T08:48:07Z</time>
      </trkpt>
      <trkpt lat="48.3881" lon="-3.81437">
        <ele>244.80000305176</ele>
        <time>2021-09-12T08:48:08Z</time>
      </trkpt>
      <trkpt lat="48.38812" lon="-3.81445">
        <ele>245</ele>
        <time>2021-09-12T08:48:09Z</time>
      </trkpt>
      <trkpt lat="48.38814" lon="-3.81453">
        <ele>245</ele>
        <time>2021-09-12T08:48:10Z</time>
      </trkpt>
      <trkpt lat="48.38816" lon="-3.81461">
        <ele>245</ele>
        <time>2021-09-12T08:48:11Z</time>
      </trkpt>
      <trkpt lat="48.38819" lon="-3.81467">
        <ele>245</ele>
        <time>2021-09-12T08:48:12Z</time>
      </trkpt>
      <trkpt lat="48.38821" lon="-3.81475">
        <ele>245.39999389648</ele>
        <time>2021-09-12T08:48:13Z</time>
      </trkpt>
      <trkpt lat="48.38823" lon="-3.8148">
        <ele>245.39999389648</ele>
        <time>2021-09-12T08:48:14Z</time>
      </trkpt>
      <trkpt lat="48.38825" lon="-3.81486">
        <ele>245.80000305176</ele>
        <time>2021-09-12T08:48:15Z</time>
      </trkpt>
      <trkpt lat="48.38827" lon="-3.81495">
        <ele>246.19999694824</ele>
        <time>2021-09-12T08:48:16Z</time>
      </trkpt>
      <trkpt lat="48.38828" lon="-3.81501">
        <ele>246.19999694824</ele>
        <time>2021-09-12T08:48:17Z</time>
      </trkpt>
      <trkpt lat="48.3883" lon="-3.81508">
        <ele>246.39999389648</ele>
        <time>2021-09-12T08:48:18Z</time>
      </trkpt>
      <trkpt lat="48.38832" lon="-3.81515">
        <ele>246.80000305176</ele>
        <time>2021-09-12T08:48:19Z</time>
      </trkpt>
      <trkpt lat="48.38834" lon="-3.81522">
        <ele>246.80000305176</ele>
        <time>2021-09-12T08:48:20Z</time>
      </trkpt>
      <trkpt lat="48.38836" lon="-3.81529">
        <ele>246.80000305176</ele>
        <time>2021-09-12T08:48:21Z</time>
      </trkpt>
      <trkpt lat="48.38838" lon="-3.81536">
        <ele>247</ele>
        <time>2021-09-12T08:48:22Z</time>
      </trkpt>
      <trkpt lat="48.3884" lon="-3.81543">
        <ele>247.19999694824</ele>
        <time>2021-09-12T08:48:23Z</time>
      </trkpt>
      <trkpt lat="48.38842" lon="-3.8155">
        <ele>247.19999694824</ele>
        <time>2021-09-12T08:48:24Z</time>
      </trkpt>
      <trkpt lat="48.38844" lon="-3.81558">
        <ele>247.19999694824</ele>
        <time>2021-09-12T08:48:25Z</time>
      </trkpt>
      <trkpt lat="48.38846" lon="-3.81565">
        <ele>247.19999694824</ele>
        <time>2021-09-12T08:48:26Z</time>
      </trkpt>
      <trkpt lat="48.38848" lon="-3.81572">
        <ele>247.19999694824</ele>
        <time>2021-09-12T08:48:27Z</time>
      </trkpt>
      <trkpt lat="48.3885" lon="-3.81579">
        <ele>247.19999694824</ele>
        <time>2021-09-12T08:48:28Z</time>
      </trkpt>
      <trkpt lat="48.38852" lon="-3.81586">
        <ele>247.19999694824</ele>
        <time>2021-09-12T08:48:29Z</time>
      </trkpt>
      <trkpt lat="48.38854" lon="-3.81593">
        <ele>247.39999389648</ele>
        <time>2021-09-12T08:48:30Z</time>
      </trkpt>
      <trkpt lat="48.38855" lon="-3.81601">
        <ele>247.39999389648</ele>
        <time>2021-09-12T08:48:31Z</time>
      </trkpt>
      <trkpt lat="48.38857" lon="-3.81608">
        <ele>247.60000610352</ele>
        <time>2021-09-12T08:48:32Z</time>
      </trkpt>
      <trkpt lat="48.38859" lon="-3.81615">
        <ele>247.60000610352</ele>
        <time>2021-09-12T08:48:33Z</time>
      </trkpt>
      <trkpt lat="48.3886" lon="-3.81622">
        <ele>247.60000610352</ele>
        <time>2021-09-12T08:48:34Z</time>
      </trkpt>
      <trkpt lat="48.38862" lon="-3.81629">
        <ele>247.80000305176</ele>
        <time>2021-09-12T08:48:35Z</time>
      </trkpt>
      <trkpt lat="48.38863" lon="-3.81636">
        <ele>247.80000305176</ele>
        <time>2021-09-12T08:48:36Z</time>
      </trkpt>
      <trkpt lat="48.38865" lon="-3.81643">
        <ele>247.80000305176</ele>
        <time>2021-09-12T08:48:37Z</time>
      </trkpt>
      <trkpt lat="48.38866" lon="-3.8165">
        <ele>247.80000305176</ele>
        <time>2021-09-12T08:48:38Z</time>
      </trkpt>
      <trkpt lat="48.38868" lon="-3.81658">
        <ele>247.80000305176</ele>
        <time>2021-09-12T08:48:39Z</time>
      </trkpt>
      <trkpt lat="48.38869" lon="-3.81666">
        <ele>247.80000305176</ele>
        <time>2021-09-12T08:48:40Z</time>
      </trkpt>
      <trkpt lat="48.38871" lon="-3.81673">
        <ele>247.39999389648</ele>
        <time>2021-09-12T08:48:41Z</time>
      </trkpt>
      <trkpt lat="48.38873" lon="-3.8168">
        <ele>247.39999389648</ele>
        <time>2021-09-12T08:48:42Z</time>
      </trkpt>
      <trkpt lat="48.38874" lon="-3.81688">
        <ele>247.39999389648</ele>
        <time>2021-09-12T08:48:43Z</time>
      </trkpt>
      <trkpt lat="48.38876" lon="-3.81695">
        <ele>247.39999389648</ele>
        <time>2021-09-12T08:48:44Z</time>
      </trkpt>
      <trkpt lat="48.38878" lon="-3.81703">
        <ele>247.19999694824</ele>
        <time>2021-09-12T08:48:45Z</time>
      </trkpt>
      <trkpt lat="48.3888" lon="-3.81711">
        <ele>247</ele>
        <time>2021-09-12T08:48:46Z</time>
      </trkpt>
      <trkpt lat="48.38882" lon="-3.81719">
        <ele>246.80000305176</ele>
        <time>2021-09-12T08:48:47Z</time>
      </trkpt>
      <trkpt lat="48.38884" lon="-3.81727">
        <ele>246.60000610352</ele>
        <time>2021-09-12T08:48:48Z</time>
      </trkpt>
      <trkpt lat="48.38887" lon="-3.81734">
        <ele>246.19999694824</ele>
        <time>2021-09-12T08:48:49Z</time>
      </trkpt>
      <trkpt lat="48.38888" lon="-3.81741">
        <ele>246.19999694824</ele>
        <time>2021-09-12T08:48:50Z</time>
      </trkpt>
      <trkpt lat="48.38888" lon="-3.81747">
        <ele>246.19999694824</ele>
        <time>2021-09-12T08:48:51Z</time>
      </trkpt>
      <trkpt lat="48.38886" lon="-3.81751">
        <ele>246.19999694824</ele>
        <time>2021-09-12T08:48:52Z</time>
      </trkpt>
      <trkpt lat="48.38883" lon="-3.81754">
        <ele>246.19999694824</ele>
        <time>2021-09-12T08:48:53Z</time>
      </trkpt>
      <trkpt lat="48.3888" lon="-3.81755">
        <ele>246.19999694824</ele>
        <time>2021-09-12T08:48:54Z</time>
      </trkpt>
      <trkpt lat="48.38875" lon="-3.81756">
        <ele>246.19999694824</ele>
        <time>2021-09-12T08:48:55Z</time>
      </trkpt>
      <trkpt lat="48.38871" lon="-3.81757">
        <ele>246.39999389648</ele>
        <time>2021-09-12T08:48:56Z</time>
      </trkpt>
      <trkpt lat="48.38868" lon="-3.81758">
        <ele>246.39999389648</ele>
        <time>2021-09-12T08:48:57Z</time>
      </trkpt>
      <trkpt lat="48.38864" lon="-3.81759">
        <ele>246.60000610352</ele>
        <time>2021-09-12T08:48:58Z</time>
      </trkpt>
      <trkpt lat="48.38861" lon="-3.8176">
        <ele>246.80000305176</ele>
        <time>2021-09-12T08:48:59Z</time>
      </trkpt>
      <trkpt lat="48.38858" lon="-3.81761">
        <ele>247.39999389648</ele>
        <time>2021-09-12T08:49:00Z</time>
      </trkpt>
      <trkpt lat="48.38854" lon="-3.81763">
        <ele>247.60000610352</ele>
        <time>2021-09-12T08:49:01Z</time>
      </trkpt>
      <trkpt lat="48.3885" lon="-3.81764">
        <ele>247.60000610352</ele>
        <time>2021-09-12T08:49:02Z</time>
      </trkpt>
      <trkpt lat="48.38846" lon="-3.81766">
        <ele>248.39999389648</ele>
        <time>2021-09-12T08:49:03Z</time>
      </trkpt>
      <trkpt lat="48.38841" lon="-3.81767">
        <ele>248.60000610352</ele>
        <time>2021-09-12T08:49:04Z</time>
      </trkpt>
      <trkpt lat="48.38838" lon="-3.81768">
        <ele>248.60000610352</ele>
        <time>2021-09-12T08:49:05Z</time>
      </trkpt>
      <trkpt lat="48.38834" lon="-3.81769">
        <ele>248.60000610352</ele>
        <time>2021-09-12T08:49:06Z</time>
      </trkpt>
      <trkpt lat="48.38829" lon="-3.8177">
        <ele>249</ele>
        <time>2021-09-12T08:49:07Z</time>
      </trkpt>
      <trkpt lat="48.38825" lon="-3.81772">
        <ele>249.19999694824</ele>
        <time>2021-09-12T08:49:08Z</time>
      </trkpt>
      <trkpt lat="48.3882" lon="-3.81773">
        <ele>249.39999389648</ele>
        <time>2021-09-12T08:49:09Z</time>
      </trkpt>
      <trkpt lat="48.38816" lon="-3.81776">
        <ele>249.60000610352</ele>
        <time>2021-09-12T08:49:10Z</time>
      </trkpt>
      <trkpt lat="48.38811" lon="-3.81778">
        <ele>249.60000610352</ele>
        <time>2021-09-12T08:49:11Z</time>
      </trkpt>
      <trkpt lat="48.38806" lon="-3.81781">
        <ele>249.60000610352</ele>
        <time>2021-09-12T08:49:12Z</time>
      </trkpt>
      <trkpt lat="48.38801" lon="-3.81783">
        <ele>249.80000305176</ele>
        <time>2021-09-12T08:49:13Z</time>
      </trkpt>
      <trkpt lat="48.38795" lon="-3.81785">
        <ele>249.80000305176</ele>
        <time>2021-09-12T08:49:14Z</time>
      </trkpt>
      <trkpt lat="48.3879" lon="-3.81787">
        <ele>249.80000305176</ele>
        <time>2021-09-12T08:49:15Z</time>
      </trkpt>
      <trkpt lat="48.38785" lon="-3.81789">
        <ele>249.60000610352</ele>
        <time>2021-09-12T08:49:16Z</time>
      </trkpt>
      <trkpt lat="48.3878" lon="-3.81791">
        <ele>249.60000610352</ele>
        <time>2021-09-12T08:49:17Z</time>
      </trkpt>
      <trkpt lat="48.38775" lon="-3.81794">
        <ele>249.39999389648</ele>
        <time>2021-09-12T08:49:18Z</time>
      </trkpt>
      <trkpt lat="48.38769" lon="-3.81797">
        <ele>249.39999389648</ele>
        <time>2021-09-12T08:49:19Z</time>
      </trkpt>
      <trkpt lat="48.38763" lon="-3.81798">
        <ele>249.39999389648</ele>
        <time>2021-09-12T08:49:20Z</time>
      </trkpt>
      <trkpt lat="48.38758" lon="-3.81801">
        <ele>249.39999389648</ele>
        <time>2021-09-12T08:49:21Z</time>
      </trkpt>
      <trkpt lat="48.38753" lon="-3.81803">
        <ele>249.39999389648</ele>
        <time>2021-09-12T08:49:22Z</time>
      </trkpt>
      <trkpt lat="48.38749" lon="-3.81806">
        <ele>249.19999694824</ele>
        <time>2021-09-12T08:49:23Z</time>
      </trkpt>
      <trkpt lat="48.38744" lon="-3.81808">
        <ele>249.19999694824</ele>
        <time>2021-09-12T08:49:24Z</time>
      </trkpt>
      <trkpt lat="48.3874" lon="-3.8181">
        <ele>249.19999694824</ele>
        <time>2021-09-12T08:49:25Z</time>
      </trkpt>
      <trkpt lat="48.38736" lon="-3.81812">
        <ele>248.80000305176</ele>
        <time>2021-09-12T08:49:26Z</time>
      </trkpt>
      <trkpt lat="48.38731" lon="-3.81814">
        <ele>248.80000305176</ele>
        <time>2021-09-12T08:49:27Z</time>
      </trkpt>
      <trkpt lat="48.38726" lon="-3.81815">
        <ele>248.39999389648</ele>
        <time>2021-09-12T08:49:28Z</time>
      </trkpt>
      <trkpt lat="48.3872" lon="-3.81816">
        <ele>247.80000305176</ele>
        <time>2021-09-12T08:49:29Z</time>
      </trkpt>
      <trkpt lat="48.38715" lon="-3.81816">
        <ele>247.80000305176</ele>
        <time>2021-09-12T08:49:30Z</time>
      </trkpt>
      <trkpt lat="48.3871" lon="-3.81817">
        <ele>247.39999389648</ele>
        <time>2021-09-12T08:49:31Z</time>
      </trkpt>
      <trkpt lat="48.38704" lon="-3.81817">
        <ele>247.19999694824</ele>
        <time>2021-09-12T08:49:32Z</time>
      </trkpt>
      <trkpt lat="48.38698" lon="-3.81818">
        <ele>246.60000610352</ele>
        <time>2021-09-12T08:49:33Z</time>
      </trkpt>
      <trkpt lat="48.38692" lon="-3.81818">
        <ele>246</ele>
        <time>2021-09-12T08:49:34Z</time>
      </trkpt>
      <trkpt lat="48.38686" lon="-3.81817">
        <ele>245.60000610352</ele>
        <time>2021-09-12T08:49:35Z</time>
      </trkpt>
      <trkpt lat="48.38681" lon="-3.81816">
        <ele>245.39999389648</ele>
        <time>2021-09-12T08:49:36Z</time>
      </trkpt>
      <trkpt lat="48.38676" lon="-3.81815">
        <ele>244.80000305176</ele>
        <time>2021-09-12T08:49:37Z</time>
      </trkpt>
      <trkpt lat="48.38671" lon="-3.81814">
        <ele>244.19999694824</ele>
        <time>2021-09-12T08:49:38Z</time>
      </trkpt>
      <trkpt lat="48.38667" lon="-3.81812">
        <ele>243.80000305176</ele>
        <time>2021-09-12T08:49:39Z</time>
      </trkpt>
      <trkpt lat="48.38662" lon="-3.81811">
        <ele>243.80000305176</ele>
        <time>2021-09-12T08:49:40Z</time>
      </trkpt>
      <trkpt lat="48.38658" lon="-3.81809">
        <ele>243.19999694824</ele>
        <time>2021-09-12T08:49:41Z</time>
      </trkpt>
      <trkpt lat="48.38653" lon="-3.81807">
        <ele>242.80000305176</ele>
        <time>2021-09-12T08:49:42Z</time>
      </trkpt>
      <trkpt lat="48.38648" lon="-3.81805">
        <ele>242.60000610352</ele>
        <time>2021-09-12T08:49:43Z</time>
      </trkpt>
      <trkpt lat="48.38642" lon="-3.81803">
        <ele>242.19999694824</ele>
        <time>2021-09-12T08:49:44Z</time>
      </trkpt>
      <trkpt lat="48.38637" lon="-3.818">
        <ele>242</ele>
        <time>2021-09-12T08:49:45Z</time>
      </trkpt>
      <trkpt lat="48.38631" lon="-3.81797">
        <ele>241.60000610352</ele>
        <time>2021-09-12T08:49:46Z</time>
      </trkpt>
      <trkpt lat="48.38625" lon="-3.81793">
        <ele>241.19999694824</ele>
        <time>2021-09-12T08:49:47Z</time>
      </trkpt>
      <trkpt lat="48.3862" lon="-3.8179">
        <ele>240.80000305176</ele>
        <time>2021-09-12T08:49:48Z</time>
      </trkpt>
      <trkpt lat="48.38614" lon="-3.81787">
        <ele>240.39999389648</ele>
        <time>2021-09-12T08:49:49Z</time>
      </trkpt>
      <trkpt lat="48.38608" lon="-3.81783">
        <ele>238.80000305176</ele>
        <time>2021-09-12T08:49:50Z</time>
      </trkpt>
      <trkpt lat="48.38602" lon="-3.81777">
        <ele>236.60000610352</ele>
        <time>2021-09-12T08:49:51Z</time>
      </trkpt>
      <trkpt lat="48.38597" lon="-3.81773">
        <ele>235.60000610352</ele>
        <time>2021-09-12T08:49:52Z</time>
      </trkpt>
      <trkpt lat="48.38591" lon="-3.8177">
        <ele>234.19999694824</ele>
        <time>2021-09-12T08:49:53Z</time>
      </trkpt>
      <trkpt lat="48.38585" lon="-3.81769">
        <ele>232.80000305176</ele>
        <time>2021-09-12T08:49:54Z</time>
      </trkpt>
      <trkpt lat="48.3858" lon="-3.8177">
        <ele>232</ele>
        <time>2021-09-12T08:49:55Z</time>
      </trkpt>
      <trkpt lat="48.38574" lon="-3.81772">
        <ele>230.80000305176</ele>
        <time>2021-09-12T08:49:56Z</time>
      </trkpt>
      <trkpt lat="48.38568" lon="-3.81776">
        <ele>229.60000610352</ele>
        <time>2021-09-12T08:49:57Z</time>
      </trkpt>
      <trkpt lat="48.38562" lon="-3.81781">
        <ele>229.19999694824</ele>
        <time>2021-09-12T08:49:58Z</time>
      </trkpt>
      <trkpt lat="48.38557" lon="-3.81787">
        <ele>227.39999389648</ele>
        <time>2021-09-12T08:49:59Z</time>
      </trkpt>
      <trkpt lat="48.38551" lon="-3.81795">
        <ele>226.60000610352</ele>
        <time>2021-09-12T08:50:00Z</time>
      </trkpt>
      <trkpt lat="48.38547" lon="-3.81805">
        <ele>225.39999389648</ele>
        <time>2021-09-12T08:50:01Z</time>
      </trkpt>
      <trkpt lat="48.38546" lon="-3.81814">
        <ele>224.80000305176</ele>
        <time>2021-09-12T08:50:02Z</time>
      </trkpt>
      <trkpt lat="48.38546" lon="-3.81824">
        <ele>224.39999389648</ele>
        <time>2021-09-12T08:50:03Z</time>
      </trkpt>
      <trkpt lat="48.38547" lon="-3.81832">
        <ele>223.39999389648</ele>
        <time>2021-09-12T08:50:04Z</time>
      </trkpt>
      <trkpt lat="48.38546" lon="-3.81841">
        <ele>223.19999694824</ele>
        <time>2021-09-12T08:50:05Z</time>
      </trkpt>
      <trkpt lat="48.38544" lon="-3.81847">
        <ele>222.39999389648</ele>
        <time>2021-09-12T08:50:06Z</time>
      </trkpt>
      <trkpt lat="48.38543" lon="-3.8185">
        <ele>222.19999694824</ele>
        <time>2021-09-12T08:50:07Z</time>
      </trkpt>
      <trkpt lat="48.3854" lon="-3.81852">
        <ele>221.19999694824</ele>
        <time>2021-09-12T08:50:08Z</time>
      </trkpt>
      <trkpt lat="48.38537" lon="-3.81854">
        <ele>221</ele>
        <time>2021-09-12T08:50:09Z</time>
      </trkpt>
      <trkpt lat="48.38536" lon="-3.81854">
        <ele>221</ele>
        <time>2021-09-12T08:50:10Z</time>
      </trkpt>
      <trkpt lat="48.38534" lon="-3.81854">
        <ele>221</ele>
        <time>2021-09-12T08:50:11Z</time>
      </trkpt>
      <trkpt lat="48.38531" lon="-3.81853">
        <ele>221</ele>
        <time>2021-09-12T08:50:12Z</time>
      </trkpt>
      <trkpt lat="48.38529" lon="-3.81855">
        <ele>221</ele>
        <time>2021-09-12T08:50:13Z</time>
      </trkpt>
      <trkpt lat="48.38525" lon="-3.81858">
        <ele>221</ele>
        <time>2021-09-12T08:50:14Z</time>
      </trkpt>
      <trkpt lat="48.38523" lon="-3.81862">
        <ele>221.19999694824</ele>
        <time>2021-09-12T08:50:15Z</time>
      </trkpt>
      <trkpt lat="48.3852" lon="-3.81866">
        <ele>221.19999694824</ele>
        <time>2021-09-12T08:50:16Z</time>
      </trkpt>
      <trkpt lat="48.38518" lon="-3.81871">
        <ele>221.60000610352</ele>
        <time>2021-09-12T08:50:17Z</time>
      </trkpt>
      <trkpt lat="48.38516" lon="-3.81875">
        <ele>221.80000305176</ele>
        <time>2021-09-12T08:50:18Z</time>
      </trkpt>
      <trkpt lat="48.38514" lon="-3.8188">
        <ele>221.80000305176</ele>
        <time>2021-09-12T08:50:19Z</time>
      </trkpt>
      <trkpt lat="48.38513" lon="-3.81883">
        <ele>222</ele>
        <time>2021-09-12T08:50:20Z</time>
      </trkpt>
      <trkpt lat="48.38512" lon="-3.81887">
        <ele>222.19999694824</ele>
        <time>2021-09-12T08:50:21Z</time>
      </trkpt>
      <trkpt lat="48.38511" lon="-3.81889">
        <ele>222.60000610352</ele>
        <time>2021-09-12T08:50:22Z</time>
      </trkpt>
      <trkpt lat="48.38511" lon="-3.81892">
        <ele>222.80000305176</ele>
        <time>2021-09-12T08:50:23Z</time>
      </trkpt>
      <trkpt lat="48.3851" lon="-3.81895">
        <ele>223.19999694824</ele>
        <time>2021-09-12T08:50:24Z</time>
      </trkpt>
      <trkpt lat="48.3851" lon="-3.81899">
        <ele>223.39999389648</ele>
        <time>2021-09-12T08:50:25Z</time>
      </trkpt>
      <trkpt lat="48.38509" lon="-3.81902">
        <ele>224</ele>
        <time>2021-09-12T08:50:26Z</time>
      </trkpt>
      <trkpt lat="48.38508" lon="-3.81905">
        <ele>224.19999694824</ele>
        <time>2021-09-12T08:50:27Z</time>
      </trkpt>
      <trkpt lat="48.38508" lon="-3.81907">
        <ele>224.39999389648</ele>
        <time>2021-09-12T08:50:28Z</time>
      </trkpt>
      <trkpt lat="48.38508" lon="-3.8191">
        <ele>224.80000305176</ele>
        <time>2021-09-12T08:50:29Z</time>
      </trkpt>
      <trkpt lat="48.38506" lon="-3.81914">
        <ele>225.19999694824</ele>
        <time>2021-09-12T08:50:30Z</time>
      </trkpt>
      <trkpt lat="48.38505" lon="-3.81918">
        <ele>225.39999389648</ele>
        <time>2021-09-12T08:50:31Z</time>
      </trkpt>
      <trkpt lat="48.38505" lon="-3.81922">
        <ele>225.60000610352</ele>
        <time>2021-09-12T08:50:32Z</time>
      </trkpt>
      <trkpt lat="48.38505" lon="-3.81926">
        <ele>225.80000305176</ele>
        <time>2021-09-12T08:50:33Z</time>
      </trkpt>
      <trkpt lat="48.38504" lon="-3.8193">
        <ele>226</ele>
        <time>2021-09-12T08:50:34Z</time>
      </trkpt>
      <trkpt lat="48.38505" lon="-3.81934">
        <ele>226.19999694824</ele>
        <time>2021-09-12T08:50:35Z</time>
      </trkpt>
      <trkpt lat="48.38504" lon="-3.81938">
        <ele>226.60000610352</ele>
        <time>2021-09-12T08:50:36Z</time>
      </trkpt>
      <trkpt lat="48.38504" lon="-3.81942">
        <ele>226.60000610352</ele>
        <time>2021-09-12T08:50:37Z</time>
      </trkpt>
      <trkpt lat="48.38504" lon="-3.81946">
        <ele>226.80000305176</ele>
        <time>2021-09-12T08:50:38Z</time>
      </trkpt>
      <trkpt lat="48.38503" lon="-3.81951">
        <ele>227.19999694824</ele>
        <time>2021-09-12T08:50:39Z</time>
      </trkpt>
      <trkpt lat="48.38503" lon="-3.81955">
        <ele>227.19999694824</ele>
        <time>2021-09-12T08:50:40Z</time>
      </trkpt>
      <trkpt lat="48.38504" lon="-3.81958">
        <ele>227.60000610352</ele>
        <time>2021-09-12T08:50:41Z</time>
      </trkpt>
      <trkpt lat="48.38504" lon="-3.81961">
        <ele>227.80000305176</ele>
        <time>2021-09-12T08:50:42Z</time>
      </trkpt>
      <trkpt lat="48.38504" lon="-3.81965">
        <ele>228</ele>
        <time>2021-09-12T08:50:43Z</time>
      </trkpt>
      <trkpt lat="48.38505" lon="-3.81968">
        <ele>228.80000305176</ele>
        <time>2021-09-12T08:50:44Z</time>
      </trkpt>
      <trkpt lat="48.38505" lon="-3.81972">
        <ele>228.80000305176</ele>
        <time>2021-09-12T08:50:45Z</time>
      </trkpt>
      <trkpt lat="48.38505" lon="-3.81975">
        <ele>229.19999694824</ele>
        <time>2021-09-12T08:50:46Z</time>
      </trkpt>
      <trkpt lat="48.38505" lon="-3.81978">
        <ele>229.39999389648</ele>
        <time>2021-09-12T08:50:47Z</time>
      </trkpt>
      <trkpt lat="48.38503" lon="-3.81983">
        <ele>229.80000305176</ele>
        <time>2021-09-12T08:50:48Z</time>
      </trkpt>
      <trkpt lat="48.38501" lon="-3.81987">
        <ele>230</ele>
        <time>2021-09-12T08:50:49Z</time>
      </trkpt>
      <trkpt lat="48.38501" lon="-3.81989">
        <ele>230</ele>
        <time>2021-09-12T08:50:50Z</time>
      </trkpt>
      <trkpt lat="48.38501" lon="-3.81992">
        <ele>230.60000610352</ele>
        <time>2021-09-12T08:50:51Z</time>
      </trkpt>
      <trkpt lat="48.38501" lon="-3.81995">
        <ele>230.80000305176</ele>
        <time>2021-09-12T08:50:52Z</time>
      </trkpt>
      <trkpt lat="48.38501" lon="-3.81998">
        <ele>231</ele>
        <time>2021-09-12T08:50:53Z</time>
      </trkpt>
      <trkpt lat="48.38501" lon="-3.82">
        <ele>231</ele>
        <time>2021-09-12T08:50:54Z</time>
      </trkpt>
      <trkpt lat="48.38501" lon="-3.82003">
        <ele>231.39999389648</ele>
        <time>2021-09-12T08:50:55Z</time>
      </trkpt>
      <trkpt lat="48.38501" lon="-3.82005">
        <ele>231.60000610352</ele>
        <time>2021-09-12T08:50:56Z</time>
      </trkpt>
      <trkpt lat="48.38501" lon="-3.82007">
        <ele>232</ele>
        <time>2021-09-12T08:50:57Z</time>
      </trkpt>
      <trkpt lat="48.38502" lon="-3.82009">
        <ele>232.19999694824</ele>
        <time>2021-09-12T08:50:58Z</time>
      </trkpt>
      <trkpt lat="48.38502" lon="-3.8201">
        <ele>232.19999694824</ele>
        <time>2021-09-12T08:50:59Z</time>
      </trkpt>
      <trkpt lat="48.38502" lon="-3.82012">
        <ele>232.19999694824</ele>
        <time>2021-09-12T08:51:00Z</time>
      </trkpt>
      <trkpt lat="48.38501" lon="-3.82014">
        <ele>232.60000610352</ele>
        <time>2021-09-12T08:51:01Z</time>
      </trkpt>
      <trkpt lat="48.38501" lon="-3.82016">
        <ele>232.60000610352</ele>
        <time>2021-09-12T08:51:02Z</time>
      </trkpt>
      <trkpt lat="48.38502" lon="-3.82018">
        <ele>233</ele>
        <time>2021-09-12T08:51:03Z</time>
      </trkpt>
      <trkpt lat="48.38502" lon="-3.82021">
        <ele>233.39999389648</ele>
        <time>2021-09-12T08:51:04Z</time>
      </trkpt>
      <trkpt lat="48.38503" lon="-3.82023">
        <ele>233.60000610352</ele>
        <time>2021-09-12T08:51:05Z</time>
      </trkpt>
      <trkpt lat="48.38504" lon="-3.82026">
        <ele>233.80000305176</ele>
        <time>2021-09-12T08:51:06Z</time>
      </trkpt>
      <trkpt lat="48.38504" lon="-3.82028">
        <ele>234</ele>
        <time>2021-09-12T08:51:07Z</time>
      </trkpt>
      <trkpt lat="48.38504" lon="-3.8203">
        <ele>234.39999389648</ele>
        <time>2021-09-12T08:51:08Z</time>
      </trkpt>
      <trkpt lat="48.38504" lon="-3.82032">
        <ele>234.80000305176</ele>
        <time>2021-09-12T08:51:09Z</time>
      </trkpt>
      <trkpt lat="48.38503" lon="-3.82035">
        <ele>235</ele>
        <time>2021-09-12T08:51:10Z</time>
      </trkpt>
      <trkpt lat="48.38503" lon="-3.82037">
        <ele>235.19999694824</ele>
        <time>2021-09-12T08:51:11Z</time>
      </trkpt>
      <trkpt lat="48.38502" lon="-3.82039">
        <ele>235.39999389648</ele>
        <time>2021-09-12T08:51:12Z</time>
      </trkpt>
      <trkpt lat="48.38502" lon="-3.82041">
        <ele>235.80000305176</ele>
        <time>2021-09-12T08:51:13Z</time>
      </trkpt>
      <trkpt lat="48.385" lon="-3.82044">
        <ele>236.19999694824</ele>
        <time>2021-09-12T08:51:14Z</time>
      </trkpt>
      <trkpt lat="48.385" lon="-3.82046">
        <ele>236.60000610352</ele>
        <time>2021-09-12T08:51:15Z</time>
      </trkpt>
      <trkpt lat="48.38499" lon="-3.82049">
        <ele>236.60000610352</ele>
        <time>2021-09-12T08:51:16Z</time>
      </trkpt>
      <trkpt lat="48.38497" lon="-3.82051">
        <ele>237</ele>
        <time>2021-09-12T08:51:17Z</time>
      </trkpt>
      <trkpt lat="48.38496" lon="-3.82053">
        <ele>237.39999389648</ele>
        <time>2021-09-12T08:51:18Z</time>
      </trkpt>
      <trkpt lat="48.38495" lon="-3.82055">
        <ele>237.60000610352</ele>
        <time>2021-09-12T08:51:19Z</time>
      </trkpt>
      <trkpt lat="48.38493" lon="-3.82058">
        <ele>238</ele>
        <time>2021-09-12T08:51:20Z</time>
      </trkpt>
      <trkpt lat="48.38491" lon="-3.8206">
        <ele>238.19999694824</ele>
        <time>2021-09-12T08:51:21Z</time>
      </trkpt>
      <trkpt lat="48.38489" lon="-3.82063">
        <ele>238.39999389648</ele>
        <time>2021-09-12T08:51:22Z</time>
      </trkpt>
      <trkpt lat="48.38488" lon="-3.82065">
        <ele>238.60000610352</ele>
        <time>2021-09-12T08:51:23Z</time>
      </trkpt>
      <trkpt lat="48.38485" lon="-3.82068">
        <ele>238.80000305176</ele>
        <time>2021-09-12T08:51:24Z</time>
      </trkpt>
      <trkpt lat="48.38484" lon="-3.8207">
        <ele>238.80000305176</ele>
        <time>2021-09-12T08:51:25Z</time>
      </trkpt>
      <trkpt lat="48.38482" lon="-3.82073">
        <ele>239</ele>
        <time>2021-09-12T08:51:26Z</time>
      </trkpt>
      <trkpt lat="48.3848" lon="-3.82075">
        <ele>239.19999694824</ele>
        <time>2021-09-12T08:51:27Z</time>
      </trkpt>
      <trkpt lat="48.38478" lon="-3.82078">
        <ele>239.39999389648</ele>
        <time>2021-09-12T08:51:28Z</time>
      </trkpt>
      <trkpt lat="48.38477" lon="-3.82081">
        <ele>239.39999389648</ele>
        <time>2021-09-12T08:51:29Z</time>
      </trkpt>
      <trkpt lat="48.38475" lon="-3.82084">
        <ele>239.39999389648</ele>
        <time>2021-09-12T08:51:30Z</time>
      </trkpt>
      <trkpt lat="48.38473" lon="-3.82087">
        <ele>239.60000610352</ele>
        <time>2021-09-12T08:51:31Z</time>
      </trkpt>
      <trkpt lat="48.38472" lon="-3.8209">
        <ele>239.60000610352</ele>
        <time>2021-09-12T08:51:32Z</time>
      </trkpt>
      <trkpt lat="48.38469" lon="-3.82093">
        <ele>239.60000610352</ele>
        <time>2021-09-12T08:51:33Z</time>
      </trkpt>
      <trkpt lat="48.38467" lon="-3.82096">
        <ele>239.60000610352</ele>
        <time>2021-09-12T08:51:34Z</time>
      </trkpt>
      <trkpt lat="48.38465" lon="-3.821">
        <ele>239.60000610352</ele>
        <time>2021-09-12T08:51:35Z</time>
      </trkpt>
      <trkpt lat="48.38462" lon="-3.82103">
        <ele>239.60000610352</ele>
        <time>2021-09-12T08:51:36Z</time>
      </trkpt>
      <trkpt lat="48.38459" lon="-3.82107">
        <ele>239.60000610352</ele>
        <time>2021-09-12T08:51:37Z</time>
      </trkpt>
      <trkpt lat="48.38456" lon="-3.82111">
        <ele>239.60000610352</ele>
        <time>2021-09-12T08:51:38Z</time>
      </trkpt>
      <trkpt lat="48.38452" lon="-3.82114">
        <ele>239.60000610352</ele>
        <time>2021-09-12T08:51:39Z</time>
      </trkpt>
      <trkpt lat="48.38448" lon="-3.82118">
        <ele>239.60000610352</ele>
        <time>2021-09-12T08:51:40Z</time>
      </trkpt>
      <trkpt lat="48.38445" lon="-3.82122">
        <ele>239.39999389648</ele>
        <time>2021-09-12T08:51:41Z</time>
      </trkpt>
      <trkpt lat="48.38441" lon="-3.82126">
        <ele>239.39999389648</ele>
        <time>2021-09-12T08:51:42Z</time>
      </trkpt>
      <trkpt lat="48.38438" lon="-3.8213">
        <ele>239.39999389648</ele>
        <time>2021-09-12T08:51:43Z</time>
      </trkpt>
      <trkpt lat="48.38435" lon="-3.82134">
        <ele>239.39999389648</ele>
        <time>2021-09-12T08:51:44Z</time>
      </trkpt>
      <trkpt lat="48.38431" lon="-3.82139">
        <ele>239.39999389648</ele>
        <time>2021-09-12T08:51:45Z</time>
      </trkpt>
      <trkpt lat="48.38427" lon="-3.82143">
        <ele>239.19999694824</ele>
        <time>2021-09-12T08:51:46Z</time>
      </trkpt>
      <trkpt lat="48.38424" lon="-3.82147">
        <ele>239.19999694824</ele>
        <time>2021-09-12T08:51:47Z</time>
      </trkpt>
      <trkpt lat="48.3842" lon="-3.82152">
        <ele>239.19999694824</ele>
        <time>2021-09-12T08:51:48Z</time>
      </trkpt>
      <trkpt lat="48.38416" lon="-3.82156">
        <ele>239.19999694824</ele>
        <time>2021-09-12T08:51:49Z</time>
      </trkpt>
      <trkpt lat="48.38412" lon="-3.82161">
        <ele>239</ele>
        <time>2021-09-12T08:51:50Z</time>
      </trkpt>
      <trkpt lat="48.38409" lon="-3.82164">
        <ele>239</ele>
        <time>2021-09-12T08:51:51Z</time>
      </trkpt>
      <trkpt lat="48.38405" lon="-3.82168">
        <ele>239</ele>
        <time>2021-09-12T08:51:52Z</time>
      </trkpt>
      <trkpt lat="48.384" lon="-3.82172">
        <ele>239</ele>
        <time>2021-09-12T08:51:53Z</time>
      </trkpt>
      <trkpt lat="48.38397" lon="-3.82176">
        <ele>239</ele>
        <time>2021-09-12T08:51:54Z</time>
      </trkpt>
      <trkpt lat="48.38393" lon="-3.8218">
        <ele>239</ele>
        <time>2021-09-12T08:51:55Z</time>
      </trkpt>
      <trkpt lat="48.38389" lon="-3.82183">
        <ele>239</ele>
        <time>2021-09-12T08:51:56Z</time>
      </trkpt>
      <trkpt lat="48.38385" lon="-3.82187">
        <ele>239</ele>
        <time>2021-09-12T08:51:57Z</time>
      </trkpt>
      <trkpt lat="48.3838" lon="-3.8219">
        <ele>238.80000305176</ele>
        <time>2021-09-12T08:51:58Z</time>
      </trkpt>
      <trkpt lat="48.38376" lon="-3.82194">
        <ele>238.80000305176</ele>
        <time>2021-09-12T08:51:59Z</time>
      </trkpt>
      <trkpt lat="48.38372" lon="-3.82197">
        <ele>238.80000305176</ele>
        <time>2021-09-12T08:52:00Z</time>
      </trkpt>
      <trkpt lat="48.38367" lon="-3.82201">
        <ele>238.60000610352</ele>
        <time>2021-09-12T08:52:01Z</time>
      </trkpt>
      <trkpt lat="48.38362" lon="-3.82205">
        <ele>238.39999389648</ele>
        <time>2021-09-12T08:52:02Z</time>
      </trkpt>
      <trkpt lat="48.38357" lon="-3.82209">
        <ele>238.39999389648</ele>
        <time>2021-09-12T08:52:03Z</time>
      </trkpt>
      <trkpt lat="48.38352" lon="-3.82213">
        <ele>238.19999694824</ele>
        <time>2021-09-12T08:52:04Z</time>
      </trkpt>
      <trkpt lat="48.38347" lon="-3.82217">
        <ele>238.19999694824</ele>
        <time>2021-09-12T08:52:05Z</time>
      </trkpt>
      <trkpt lat="48.38341" lon="-3.8222">
        <ele>238.19999694824</ele>
        <time>2021-09-12T08:52:06Z</time>
      </trkpt>
      <trkpt lat="48.38337" lon="-3.82223">
        <ele>238</ele>
        <time>2021-09-12T08:52:07Z</time>
      </trkpt>
      <trkpt lat="48.38332" lon="-3.82226">
        <ele>237.60000610352</ele>
        <time>2021-09-12T08:52:08Z</time>
      </trkpt>
      <trkpt lat="48.38326" lon="-3.8223">
        <ele>237.60000610352</ele>
        <time>2021-09-12T08:52:09Z</time>
      </trkpt>
      <trkpt lat="48.38321" lon="-3.82235">
        <ele>237.60000610352</ele>
        <time>2021-09-12T08:52:10Z</time>
      </trkpt>
      <trkpt lat="48.38315" lon="-3.82239">
        <ele>237.60000610352</ele>
        <time>2021-09-12T08:52:11Z</time>
      </trkpt>
      <trkpt lat="48.3831" lon="-3.82243">
        <ele>237.60000610352</ele>
        <time>2021-09-12T08:52:12Z</time>
      </trkpt>
      <trkpt lat="48.38304" lon="-3.82247">
        <ele>237.60000610352</ele>
        <time>2021-09-12T08:52:13Z</time>
      </trkpt>
      <trkpt lat="48.38298" lon="-3.82252">
        <ele>237.39999389648</ele>
        <time>2021-09-12T08:52:14Z</time>
      </trkpt>
      <trkpt lat="48.38292" lon="-3.82256">
        <ele>237.19999694824</ele>
        <time>2021-09-12T08:52:15Z</time>
      </trkpt>
      <trkpt lat="48.38286" lon="-3.82261">
        <ele>237</ele>
        <time>2021-09-12T08:52:16Z</time>
      </trkpt>
      <trkpt lat="48.3828" lon="-3.82266">
        <ele>237</ele>
        <time>2021-09-12T08:52:17Z</time>
      </trkpt>
      <trkpt lat="48.38275" lon="-3.82271">
        <ele>237</ele>
        <time>2021-09-12T08:52:18Z</time>
      </trkpt>
      <trkpt lat="48.38269" lon="-3.82277">
        <ele>236.80000305176</ele>
        <time>2021-09-12T08:52:19Z</time>
      </trkpt>
      <trkpt lat="48.38265" lon="-3.82281">
        <ele>236.80000305176</ele>
        <time>2021-09-12T08:52:20Z</time>
      </trkpt>
      <trkpt lat="48.38259" lon="-3.82287">
        <ele>237</ele>
        <time>2021-09-12T08:52:21Z</time>
      </trkpt>
      <trkpt lat="48.38254" lon="-3.82292">
        <ele>236.80000305176</ele>
        <time>2021-09-12T08:52:22Z</time>
      </trkpt>
      <trkpt lat="48.38249" lon="-3.82297">
        <ele>237</ele>
        <time>2021-09-12T08:52:23Z</time>
      </trkpt>
      <trkpt lat="48.38244" lon="-3.82302">
        <ele>237</ele>
        <time>2021-09-12T08:52:24Z</time>
      </trkpt>
      <trkpt lat="48.38239" lon="-3.82308">
        <ele>237</ele>
        <time>2021-09-12T08:52:25Z</time>
      </trkpt>
      <trkpt lat="48.38234" lon="-3.82314">
        <ele>237.39999389648</ele>
        <time>2021-09-12T08:52:26Z</time>
      </trkpt>
      <trkpt lat="48.38229" lon="-3.8232">
        <ele>237.39999389648</ele>
        <time>2021-09-12T08:52:27Z</time>
      </trkpt>
      <trkpt lat="48.38224" lon="-3.82326">
        <ele>237.39999389648</ele>
        <time>2021-09-12T08:52:28Z</time>
      </trkpt>
      <trkpt lat="48.38219" lon="-3.82332">
        <ele>237.60000610352</ele>
        <time>2021-09-12T08:52:29Z</time>
      </trkpt>
      <trkpt lat="48.38215" lon="-3.82339">
        <ele>237.60000610352</ele>
        <time>2021-09-12T08:52:30Z</time>
      </trkpt>
      <trkpt lat="48.3821" lon="-3.82345">
        <ele>237.60000610352</ele>
        <time>2021-09-12T08:52:31Z</time>
      </trkpt>
      <trkpt lat="48.38205" lon="-3.82351">
        <ele>237.60000610352</ele>
        <time>2021-09-12T08:52:32Z</time>
      </trkpt>
      <trkpt lat="48.382" lon="-3.82356">
        <ele>237.60000610352</ele>
        <time>2021-09-12T08:52:33Z</time>
      </trkpt>
      <trkpt lat="48.38195" lon="-3.82362">
        <ele>237.19999694824</ele>
        <time>2021-09-12T08:52:34Z</time>
      </trkpt>
      <trkpt lat="48.3819" lon="-3.82367">
        <ele>237</ele>
        <time>2021-09-12T08:52:35Z</time>
      </trkpt>
      <trkpt lat="48.38184" lon="-3.82372">
        <ele>237</ele>
        <time>2021-09-12T08:52:36Z</time>
      </trkpt>
      <trkpt lat="48.38179" lon="-3.82376">
        <ele>236.80000305176</ele>
        <time>2021-09-12T08:52:37Z</time>
      </trkpt>
      <trkpt lat="48.38173" lon="-3.82381">
        <ele>236.80000305176</ele>
        <time>2021-09-12T08:52:38Z</time>
      </trkpt>
      <trkpt lat="48.38167" lon="-3.82385">
        <ele>236.60000610352</ele>
        <time>2021-09-12T08:52:39Z</time>
      </trkpt>
      <trkpt lat="48.38161" lon="-3.82389">
        <ele>236.19999694824</ele>
        <time>2021-09-12T08:52:40Z</time>
      </trkpt>
      <trkpt lat="48.38154" lon="-3.82392">
        <ele>235.80000305176</ele>
        <time>2021-09-12T08:52:41Z</time>
      </trkpt>
      <trkpt lat="48.38147" lon="-3.82393">
        <ele>235.60000610352</ele>
        <time>2021-09-12T08:52:42Z</time>
      </trkpt>
      <trkpt lat="48.38141" lon="-3.82393">
        <ele>235.60000610352</ele>
        <time>2021-09-12T08:52:43Z</time>
      </trkpt>
      <trkpt lat="48.38134" lon="-3.82393">
        <ele>235.60000610352</ele>
        <time>2021-09-12T08:52:44Z</time>
      </trkpt>
      <trkpt lat="48.38128" lon="-3.82393">
        <ele>235.39999389648</ele>
        <time>2021-09-12T08:52:45Z</time>
      </trkpt>
      <trkpt lat="48.38122" lon="-3.82393">
        <ele>235.39999389648</ele>
        <time>2021-09-12T08:52:46Z</time>
      </trkpt>
      <trkpt lat="48.38116" lon="-3.82393">
        <ele>235.39999389648</ele>
        <time>2021-09-12T08:52:47Z</time>
      </trkpt>
      <trkpt lat="48.3811" lon="-3.82393">
        <ele>235.39999389648</ele>
        <time>2021-09-12T08:52:48Z</time>
      </trkpt>
      <trkpt lat="48.38105" lon="-3.82394">
        <ele>235.39999389648</ele>
        <time>2021-09-12T08:52:49Z</time>
      </trkpt>
      <trkpt lat="48.381" lon="-3.82395">
        <ele>235.60000610352</ele>
        <time>2021-09-12T08:52:50Z</time>
      </trkpt>
      <trkpt lat="48.38096" lon="-3.82396">
        <ele>235.80000305176</ele>
        <time>2021-09-12T08:52:51Z</time>
      </trkpt>
      <trkpt lat="48.38094" lon="-3.82397">
        <ele>235.80000305176</ele>
        <time>2021-09-12T08:52:52Z</time>
      </trkpt>
      <trkpt lat="48.38092" lon="-3.82397">
        <ele>235.80000305176</ele>
        <time>2021-09-12T08:52:53Z</time>
      </trkpt>
      <trkpt lat="48.3809" lon="-3.82398">
        <ele>236.39999389648</ele>
        <time>2021-09-12T08:52:54Z</time>
      </trkpt>
      <trkpt lat="48.38088" lon="-3.82398">
        <ele>236.39999389648</ele>
        <time>2021-09-12T08:52:55Z</time>
      </trkpt>
      <trkpt lat="48.38086" lon="-3.82399">
        <ele>236.60000610352</ele>
        <time>2021-09-12T08:52:56Z</time>
      </trkpt>
      <trkpt lat="48.38084" lon="-3.82399">
        <ele>236.60000610352</ele>
        <time>2021-09-12T08:52:57Z</time>
      </trkpt>
      <trkpt lat="48.38082" lon="-3.824">
        <ele>236.60000610352</ele>
        <time>2021-09-12T08:52:58Z</time>
      </trkpt>
      <trkpt lat="48.3808" lon="-3.824">
        <ele>237</ele>
        <time>2021-09-12T08:52:59Z</time>
      </trkpt>
      <trkpt lat="48.38078" lon="-3.82401">
        <ele>237.19999694824</ele>
        <time>2021-09-12T08:53:00Z</time>
      </trkpt>
      <trkpt lat="48.38076" lon="-3.82403">
        <ele>237.19999694824</ele>
        <time>2021-09-12T08:53:01Z</time>
      </trkpt>
      <trkpt lat="48.38074" lon="-3.82404">
        <ele>237.19999694824</ele>
        <time>2021-09-12T08:53:02Z</time>
      </trkpt>
      <trkpt lat="48.38071" lon="-3.82404">
        <ele>237.39999389648</ele>
        <time>2021-09-12T08:53:03Z</time>
      </trkpt>
      <trkpt lat="48.38069" lon="-3.82405">
        <ele>237.39999389648</ele>
        <time>2021-09-12T08:53:04Z</time>
      </trkpt>
      <trkpt lat="48.38067" lon="-3.82405">
        <ele>237.60000610352</ele>
        <time>2021-09-12T08:53:05Z</time>
      </trkpt>
      <trkpt lat="48.38066" lon="-3.82405">
        <ele>237.60000610352</ele>
        <time>2021-09-12T08:53:06Z</time>
      </trkpt>
      <trkpt lat="48.38065" lon="-3.82406">
        <ele>237.60000610352</ele>
        <time>2021-09-12T08:53:07Z</time>
      </trkpt>
      <trkpt lat="48.38064" lon="-3.82406">
        <ele>237.60000610352</ele>
        <time>2021-09-12T08:53:08Z</time>
      </trkpt>
      <trkpt lat="48.38064" lon="-3.82406">
        <ele>237.60000610352</ele>
        <time>2021-09-12T08:53:09Z</time>
      </trkpt>
      <trkpt lat="48.38064" lon="-3.82406">
        <ele>237.60000610352</ele>
        <time>2021-09-12T08:53:10Z</time>
      </trkpt>
      <trkpt lat="48.38056" lon="-3.82413">
        <ele>238</ele>
        <time>2021-09-12T08:57:55Z</time>
      </trkpt>
      <trkpt lat="48.38054" lon="-3.82414">
        <ele>238.19999694824</ele>
        <time>2021-09-12T08:57:56Z</time>
      </trkpt>
      <trkpt lat="48.38053" lon="-3.82415">
        <ele>238.60000610352</ele>
        <time>2021-09-12T08:57:57Z</time>
      </trkpt>
      <trkpt lat="48.38051" lon="-3.82417">
        <ele>238.80000305176</ele>
        <time>2021-09-12T08:57:58Z</time>
      </trkpt>
      <trkpt lat="48.3805" lon="-3.82418">
        <ele>238.80000305176</ele>
        <time>2021-09-12T08:57:59Z</time>
      </trkpt>
      <trkpt lat="48.38049" lon="-3.82419">
        <ele>239.39999389648</ele>
        <time>2021-09-12T08:58:00Z</time>
      </trkpt>
      <trkpt lat="48.38047" lon="-3.82419">
        <ele>239.60000610352</ele>
        <time>2021-09-12T08:58:01Z</time>
      </trkpt>
      <trkpt lat="48.38046" lon="-3.8242">
        <ele>239.60000610352</ele>
        <time>2021-09-12T08:58:02Z</time>
      </trkpt>
      <trkpt lat="48.38044" lon="-3.82421">
        <ele>239.80000305176</ele>
        <time>2021-09-12T08:58:03Z</time>
      </trkpt>
      <trkpt lat="48.38042" lon="-3.82422">
        <ele>240</ele>
        <time>2021-09-12T08:58:04Z</time>
      </trkpt>
      <trkpt lat="48.3804" lon="-3.82423">
        <ele>240.19999694824</ele>
        <time>2021-09-12T08:58:05Z</time>
      </trkpt>
      <trkpt lat="48.38038" lon="-3.82425">
        <ele>240.39999389648</ele>
        <time>2021-09-12T08:58:06Z</time>
      </trkpt>
      <trkpt lat="48.38037" lon="-3.82426">
        <ele>240.80000305176</ele>
        <time>2021-09-12T08:58:07Z</time>
      </trkpt>
      <trkpt lat="48.38035" lon="-3.82427">
        <ele>241</ele>
        <time>2021-09-12T08:58:08Z</time>
      </trkpt>
      <trkpt lat="48.38034" lon="-3.82429">
        <ele>241.19999694824</ele>
        <time>2021-09-12T08:58:09Z</time>
      </trkpt>
      <trkpt lat="48.38032" lon="-3.82431">
        <ele>241.39999389648</ele>
        <time>2021-09-12T08:58:10Z</time>
      </trkpt>
      <trkpt lat="48.38031" lon="-3.82433">
        <ele>241.80000305176</ele>
        <time>2021-09-12T08:58:11Z</time>
      </trkpt>
      <trkpt lat="48.3803" lon="-3.82435">
        <ele>242.19999694824</ele>
        <time>2021-09-12T08:58:12Z</time>
      </trkpt>
      <trkpt lat="48.38028" lon="-3.82437">
        <ele>242.39999389648</ele>
        <time>2021-09-12T08:58:13Z</time>
      </trkpt>
      <trkpt lat="48.38027" lon="-3.82439">
        <ele>242.60000610352</ele>
        <time>2021-09-12T08:58:14Z</time>
      </trkpt>
      <trkpt lat="48.38026" lon="-3.82441">
        <ele>242.80000305176</ele>
        <time>2021-09-12T08:58:15Z</time>
      </trkpt>
      <trkpt lat="48.38025" lon="-3.82443">
        <ele>242.80000305176</ele>
        <time>2021-09-12T08:58:16Z</time>
      </trkpt>
      <trkpt lat="48.38023" lon="-3.82446">
        <ele>243.19999694824</ele>
        <time>2021-09-12T08:58:17Z</time>
      </trkpt>
      <trkpt lat="48.38022" lon="-3.82448">
        <ele>243.60000610352</ele>
        <time>2021-09-12T08:58:18Z</time>
      </trkpt>
      <trkpt lat="48.38021" lon="-3.8245">
        <ele>243.80000305176</ele>
        <time>2021-09-12T08:58:19Z</time>
      </trkpt>
      <trkpt lat="48.38021" lon="-3.82453">
        <ele>244</ele>
        <time>2021-09-12T08:58:20Z</time>
      </trkpt>
      <trkpt lat="48.38021" lon="-3.82455">
        <ele>244.19999694824</ele>
        <time>2021-09-12T08:58:21Z</time>
      </trkpt>
      <trkpt lat="48.3802" lon="-3.82457">
        <ele>244.80000305176</ele>
        <time>2021-09-12T08:58:22Z</time>
      </trkpt>
      <trkpt lat="48.38019" lon="-3.8246">
        <ele>244.80000305176</ele>
        <time>2021-09-12T08:58:23Z</time>
      </trkpt>
      <trkpt lat="48.38018" lon="-3.82462">
        <ele>245</ele>
        <time>2021-09-12T08:58:24Z</time>
      </trkpt>
      <trkpt lat="48.38017" lon="-3.82465">
        <ele>245.19999694824</ele>
        <time>2021-09-12T08:58:25Z</time>
      </trkpt>
      <trkpt lat="48.38016" lon="-3.82468">
        <ele>245.39999389648</ele>
        <time>2021-09-12T08:58:26Z</time>
      </trkpt>
      <trkpt lat="48.38015" lon="-3.82471">
        <ele>245.60000610352</ele>
        <time>2021-09-12T08:58:27Z</time>
      </trkpt>
      <trkpt lat="48.38015" lon="-3.82474">
        <ele>245.80000305176</ele>
        <time>2021-09-12T08:58:28Z</time>
      </trkpt>
      <trkpt lat="48.38014" lon="-3.82478">
        <ele>246</ele>
        <time>2021-09-12T08:58:29Z</time>
      </trkpt>
      <trkpt lat="48.38013" lon="-3.82481">
        <ele>246.39999389648</ele>
        <time>2021-09-12T08:58:30Z</time>
      </trkpt>
      <trkpt lat="48.38012" lon="-3.82485">
        <ele>246.39999389648</ele>
        <time>2021-09-12T08:58:31Z</time>
      </trkpt>
      <trkpt lat="48.38012" lon="-3.82489">
        <ele>246.39999389648</ele>
        <time>2021-09-12T08:58:32Z</time>
      </trkpt>
      <trkpt lat="48.38011" lon="-3.82493">
        <ele>246.60000610352</ele>
        <time>2021-09-12T08:58:33Z</time>
      </trkpt>
      <trkpt lat="48.38011" lon="-3.82497">
        <ele>246.60000610352</ele>
        <time>2021-09-12T08:58:34Z</time>
      </trkpt>
      <trkpt lat="48.38012" lon="-3.82502">
        <ele>246.80000305176</ele>
        <time>2021-09-12T08:58:35Z</time>
      </trkpt>
      <trkpt lat="48.38012" lon="-3.82506">
        <ele>246.80000305176</ele>
        <time>2021-09-12T08:58:36Z</time>
      </trkpt>
      <trkpt lat="48.38012" lon="-3.82511">
        <ele>246.80000305176</ele>
        <time>2021-09-12T08:58:37Z</time>
      </trkpt>
      <trkpt lat="48.38012" lon="-3.82517">
        <ele>246.80000305176</ele>
        <time>2021-09-12T08:58:38Z</time>
      </trkpt>
      <trkpt lat="48.38012" lon="-3.82522">
        <ele>246.80000305176</ele>
        <time>2021-09-12T08:58:39Z</time>
      </trkpt>
      <trkpt lat="48.38011" lon="-3.82528">
        <ele>246.80000305176</ele>
        <time>2021-09-12T08:58:40Z</time>
      </trkpt>
      <trkpt lat="48.3801" lon="-3.82533">
        <ele>246.80000305176</ele>
        <time>2021-09-12T08:58:41Z</time>
      </trkpt>
      <trkpt lat="48.38009" lon="-3.82538">
        <ele>246.80000305176</ele>
        <time>2021-09-12T08:58:42Z</time>
      </trkpt>
      <trkpt lat="48.38007" lon="-3.82543">
        <ele>247</ele>
        <time>2021-09-12T08:58:43Z</time>
      </trkpt>
      <trkpt lat="48.38006" lon="-3.82549">
        <ele>247</ele>
        <time>2021-09-12T08:58:44Z</time>
      </trkpt>
      <trkpt lat="48.38004" lon="-3.82554">
        <ele>247.19999694824</ele>
        <time>2021-09-12T08:58:45Z</time>
      </trkpt>
      <trkpt lat="48.38003" lon="-3.82559">
        <ele>247.39999389648</ele>
        <time>2021-09-12T08:58:46Z</time>
      </trkpt>
      <trkpt lat="48.38002" lon="-3.82564">
        <ele>247.39999389648</ele>
        <time>2021-09-12T08:58:47Z</time>
      </trkpt>
      <trkpt lat="48.38" lon="-3.82569">
        <ele>247.60000610352</ele>
        <time>2021-09-12T08:58:48Z</time>
      </trkpt>
      <trkpt lat="48.37998" lon="-3.82574">
        <ele>247.80000305176</ele>
        <time>2021-09-12T08:58:49Z</time>
      </trkpt>
      <trkpt lat="48.37997" lon="-3.82579">
        <ele>248</ele>
        <time>2021-09-12T08:58:50Z</time>
      </trkpt>
      <trkpt lat="48.37995" lon="-3.82584">
        <ele>248</ele>
        <time>2021-09-12T08:58:51Z</time>
      </trkpt>
      <trkpt lat="48.37994" lon="-3.82589">
        <ele>248</ele>
        <time>2021-09-12T08:58:52Z</time>
      </trkpt>
      <trkpt lat="48.37993" lon="-3.82594">
        <ele>248</ele>
        <time>2021-09-12T08:58:53Z</time>
      </trkpt>
      <trkpt lat="48.37992" lon="-3.826">
        <ele>248.19999694824</ele>
        <time>2021-09-12T08:58:54Z</time>
      </trkpt>
      <trkpt lat="48.37991" lon="-3.82605">
        <ele>248.19999694824</ele>
        <time>2021-09-12T08:58:55Z</time>
      </trkpt>
      <trkpt lat="48.3799" lon="-3.8261">
        <ele>248.19999694824</ele>
        <time>2021-09-12T08:58:56Z</time>
      </trkpt>
      <trkpt lat="48.37988" lon="-3.82615">
        <ele>248.19999694824</ele>
        <time>2021-09-12T08:58:57Z</time>
      </trkpt>
      <trkpt lat="48.37986" lon="-3.8262">
        <ele>248.19999694824</ele>
        <time>2021-09-12T08:58:58Z</time>
      </trkpt>
      <trkpt lat="48.37982" lon="-3.82625">
        <ele>248</ele>
        <time>2021-09-12T08:58:59Z</time>
      </trkpt>
      <trkpt lat="48.37979" lon="-3.82629">
        <ele>248</ele>
        <time>2021-09-12T08:59:00Z</time>
      </trkpt>
      <trkpt lat="48.37975" lon="-3.82633">
        <ele>247.80000305176</ele>
        <time>2021-09-12T08:59:01Z</time>
      </trkpt>
      <trkpt lat="48.37971" lon="-3.82637">
        <ele>247.80000305176</ele>
        <time>2021-09-12T08:59:02Z</time>
      </trkpt>
      <trkpt lat="48.37966" lon="-3.82642">
        <ele>247.60000610352</ele>
        <time>2021-09-12T08:59:03Z</time>
      </trkpt>
      <trkpt lat="48.37961" lon="-3.82646">
        <ele>247</ele>
        <time>2021-09-12T08:59:04Z</time>
      </trkpt>
      <trkpt lat="48.37957" lon="-3.8265">
        <ele>246.60000610352</ele>
        <time>2021-09-12T08:59:05Z</time>
      </trkpt>
      <trkpt lat="48.37952" lon="-3.82655">
        <ele>246.60000610352</ele>
        <time>2021-09-12T08:59:06Z</time>
      </trkpt>
      <trkpt lat="48.37947" lon="-3.8266">
        <ele>246.19999694824</ele>
        <time>2021-09-12T08:59:07Z</time>
      </trkpt>
      <trkpt lat="48.37941" lon="-3.82665">
        <ele>246.19999694824</ele>
        <time>2021-09-12T08:59:08Z</time>
      </trkpt>
      <trkpt lat="48.37937" lon="-3.82671">
        <ele>246</ele>
        <time>2021-09-12T08:59:09Z</time>
      </trkpt>
      <trkpt lat="48.37932" lon="-3.82677">
        <ele>245.19999694824</ele>
        <time>2021-09-12T08:59:10Z</time>
      </trkpt>
      <trkpt lat="48.37927" lon="-3.82683">
        <ele>245</ele>
        <time>2021-09-12T08:59:11Z</time>
      </trkpt>
      <trkpt lat="48.37922" lon="-3.82689">
        <ele>244.60000610352</ele>
        <time>2021-09-12T08:59:12Z</time>
      </trkpt>
      <trkpt lat="48.37918" lon="-3.82695">
        <ele>244.39999389648</ele>
        <time>2021-09-12T08:59:13Z</time>
      </trkpt>
      <trkpt lat="48.37914" lon="-3.82701">
        <ele>244.19999694824</ele>
        <time>2021-09-12T08:59:14Z</time>
      </trkpt>
      <trkpt lat="48.37911" lon="-3.82706">
        <ele>243.80000305176</ele>
        <time>2021-09-12T08:59:15Z</time>
      </trkpt>
      <trkpt lat="48.3791" lon="-3.82712">
        <ele>243.60000610352</ele>
        <time>2021-09-12T08:59:16Z</time>
      </trkpt>
      <trkpt lat="48.37912" lon="-3.82717">
        <ele>243.60000610352</ele>
        <time>2021-09-12T08:59:17Z</time>
      </trkpt>
      <trkpt lat="48.37914" lon="-3.82723">
        <ele>243.39999389648</ele>
        <time>2021-09-12T08:59:18Z</time>
      </trkpt>
      <trkpt lat="48.37917" lon="-3.82728">
        <ele>243.39999389648</ele>
        <time>2021-09-12T08:59:19Z</time>
      </trkpt>
      <trkpt lat="48.37921" lon="-3.82734">
        <ele>243</ele>
        <time>2021-09-12T08:59:20Z</time>
      </trkpt>
      <trkpt lat="48.37924" lon="-3.8274">
        <ele>242.80000305176</ele>
        <time>2021-09-12T08:59:21Z</time>
      </trkpt>
      <trkpt lat="48.37927" lon="-3.82745">
        <ele>242.80000305176</ele>
        <time>2021-09-12T08:59:22Z</time>
      </trkpt>
      <trkpt lat="48.37931" lon="-3.8275">
        <ele>242.80000305176</ele>
        <time>2021-09-12T08:59:23Z</time>
      </trkpt>
      <trkpt lat="48.37935" lon="-3.82756">
        <ele>242.60000610352</ele>
        <time>2021-09-12T08:59:24Z</time>
      </trkpt>
      <trkpt lat="48.37938" lon="-3.82762">
        <ele>242.39999389648</ele>
        <time>2021-09-12T08:59:25Z</time>
      </trkpt>
      <trkpt lat="48.37942" lon="-3.82767">
        <ele>242.39999389648</ele>
        <time>2021-09-12T08:59:26Z</time>
      </trkpt>
      <trkpt lat="48.37945" lon="-3.82772">
        <ele>242.39999389648</ele>
        <time>2021-09-12T08:59:27Z</time>
      </trkpt>
      <trkpt lat="48.37948" lon="-3.82778">
        <ele>242.39999389648</ele>
        <time>2021-09-12T08:59:28Z</time>
      </trkpt>
      <trkpt lat="48.3795" lon="-3.82784">
        <ele>242</ele>
        <time>2021-09-12T08:59:29Z</time>
      </trkpt>
      <trkpt lat="48.37953" lon="-3.82789">
        <ele>242</ele>
        <time>2021-09-12T08:59:30Z</time>
      </trkpt>
      <trkpt lat="48.37955" lon="-3.82795">
        <ele>241.80000305176</ele>
        <time>2021-09-12T08:59:31Z</time>
      </trkpt>
      <trkpt lat="48.37957" lon="-3.82802">
        <ele>241.80000305176</ele>
        <time>2021-09-12T08:59:32Z</time>
      </trkpt>
      <trkpt lat="48.37958" lon="-3.82809">
        <ele>241.80000305176</ele>
        <time>2021-09-12T08:59:33Z</time>
      </trkpt>
      <trkpt lat="48.37959" lon="-3.82817">
        <ele>241.80000305176</ele>
        <time>2021-09-12T08:59:34Z</time>
      </trkpt>
      <trkpt lat="48.3796" lon="-3.82826">
        <ele>241.60000610352</ele>
        <time>2021-09-12T08:59:35Z</time>
      </trkpt>
      <trkpt lat="48.37961" lon="-3.82835">
        <ele>241.60000610352</ele>
        <time>2021-09-12T08:59:36Z</time>
      </trkpt>
      <trkpt lat="48.37961" lon="-3.82843">
        <ele>241.60000610352</ele>
        <time>2021-09-12T08:59:37Z</time>
      </trkpt>
      <trkpt lat="48.37963" lon="-3.82851">
        <ele>241.39999389648</ele>
        <time>2021-09-12T08:59:38Z</time>
      </trkpt>
      <trkpt lat="48.37964" lon="-3.82859">
        <ele>241.39999389648</ele>
        <time>2021-09-12T08:59:39Z</time>
      </trkpt>
      <trkpt lat="48.37966" lon="-3.82867">
        <ele>241.39999389648</ele>
        <time>2021-09-12T08:59:40Z</time>
      </trkpt>
      <trkpt lat="48.37967" lon="-3.82874">
        <ele>241.39999389648</ele>
        <time>2021-09-12T08:59:41Z</time>
      </trkpt>
      <trkpt lat="48.37969" lon="-3.82881">
        <ele>241.39999389648</ele>
        <time>2021-09-12T08:59:42Z</time>
      </trkpt>
      <trkpt lat="48.3797" lon="-3.82888">
        <ele>241.19999694824</ele>
        <time>2021-09-12T08:59:43Z</time>
      </trkpt>
      <trkpt lat="48.37972" lon="-3.82896">
        <ele>241.19999694824</ele>
        <time>2021-09-12T08:59:44Z</time>
      </trkpt>
      <trkpt lat="48.37973" lon="-3.82903">
        <ele>241.19999694824</ele>
        <time>2021-09-12T08:59:45Z</time>
      </trkpt>
      <trkpt lat="48.37974" lon="-3.82913">
        <ele>241.19999694824</ele>
        <time>2021-09-12T08:59:46Z</time>
      </trkpt>
      <trkpt lat="48.37975" lon="-3.82922">
        <ele>241.19999694824</ele>
        <time>2021-09-12T08:59:47Z</time>
      </trkpt>
      <trkpt lat="48.37976" lon="-3.82929">
        <ele>241.19999694824</ele>
        <time>2021-09-12T08:59:48Z</time>
      </trkpt>
      <trkpt lat="48.37977" lon="-3.82937">
        <ele>241.19999694824</ele>
        <time>2021-09-12T08:59:49Z</time>
      </trkpt>
      <trkpt lat="48.37978" lon="-3.82944">
        <ele>240.80000305176</ele>
        <time>2021-09-12T08:59:50Z</time>
      </trkpt>
      <trkpt lat="48.3798" lon="-3.8295">
        <ele>240.39999389648</ele>
        <time>2021-09-12T08:59:51Z</time>
      </trkpt>
      <trkpt lat="48.37982" lon="-3.82957">
        <ele>240.39999389648</ele>
        <time>2021-09-12T08:59:52Z</time>
      </trkpt>
      <trkpt lat="48.37984" lon="-3.82963">
        <ele>240.19999694824</ele>
        <time>2021-09-12T08:59:53Z</time>
      </trkpt>
      <trkpt lat="48.37985" lon="-3.8297">
        <ele>240.19999694824</ele>
        <time>2021-09-12T08:59:54Z</time>
      </trkpt>
      <trkpt lat="48.37986" lon="-3.82977">
        <ele>240.19999694824</ele>
        <time>2021-09-12T08:59:55Z</time>
      </trkpt>
      <trkpt lat="48.37985" lon="-3.82985">
        <ele>240.19999694824</ele>
        <time>2021-09-12T08:59:56Z</time>
      </trkpt>
      <trkpt lat="48.37985" lon="-3.82991">
        <ele>240</ele>
        <time>2021-09-12T08:59:57Z</time>
      </trkpt>
      <trkpt lat="48.37986" lon="-3.82998">
        <ele>240</ele>
        <time>2021-09-12T08:59:58Z</time>
      </trkpt>
      <trkpt lat="48.37987" lon="-3.83004">
        <ele>240</ele>
        <time>2021-09-12T08:59:59Z</time>
      </trkpt>
      <trkpt lat="48.37986" lon="-3.8301">
        <ele>240</ele>
        <time>2021-09-12T09:00:00Z</time>
      </trkpt>
      <trkpt lat="48.37986" lon="-3.83018">
        <ele>240</ele>
        <time>2021-09-12T09:00:01Z</time>
      </trkpt>
      <trkpt lat="48.37986" lon="-3.83025">
        <ele>240.19999694824</ele>
        <time>2021-09-12T09:00:02Z</time>
      </trkpt>
      <trkpt lat="48.37987" lon="-3.83033">
        <ele>240.19999694824</ele>
        <time>2021-09-12T09:00:03Z</time>
      </trkpt>
      <trkpt lat="48.37988" lon="-3.8304">
        <ele>240.19999694824</ele>
        <time>2021-09-12T09:00:04Z</time>
      </trkpt>
      <trkpt lat="48.37988" lon="-3.83047">
        <ele>240.19999694824</ele>
        <time>2021-09-12T09:00:05Z</time>
      </trkpt>
      <trkpt lat="48.3799" lon="-3.83053">
        <ele>240.39999389648</ele>
        <time>2021-09-12T09:00:06Z</time>
      </trkpt>
      <trkpt lat="48.37992" lon="-3.83059">
        <ele>240.39999389648</ele>
        <time>2021-09-12T09:00:07Z</time>
      </trkpt>
      <trkpt lat="48.37991" lon="-3.83065">
        <ele>240.39999389648</ele>
        <time>2021-09-12T09:00:08Z</time>
      </trkpt>
      <trkpt lat="48.37993" lon="-3.83071">
        <ele>240.39999389648</ele>
        <time>2021-09-12T09:00:09Z</time>
      </trkpt>
      <trkpt lat="48.37994" lon="-3.83076">
        <ele>240.39999389648</ele>
        <time>2021-09-12T09:00:10Z</time>
      </trkpt>
      <trkpt lat="48.37994" lon="-3.83082">
        <ele>240.39999389648</ele>
        <time>2021-09-12T09:00:11Z</time>
      </trkpt>
      <trkpt lat="48.37994" lon="-3.83087">
        <ele>240.60000610352</ele>
        <time>2021-09-12T09:00:12Z</time>
      </trkpt>
      <trkpt lat="48.37994" lon="-3.83093">
        <ele>240.60000610352</ele>
        <time>2021-09-12T09:00:13Z</time>
      </trkpt>
      <trkpt lat="48.37994" lon="-3.83097">
        <ele>241</ele>
        <time>2021-09-12T09:00:14Z</time>
      </trkpt>
      <trkpt lat="48.37995" lon="-3.83102">
        <ele>241</ele>
        <time>2021-09-12T09:00:15Z</time>
      </trkpt>
      <trkpt lat="48.37996" lon="-3.83108">
        <ele>241</ele>
        <time>2021-09-12T09:00:16Z</time>
      </trkpt>
      <trkpt lat="48.37996" lon="-3.83114">
        <ele>241.19999694824</ele>
        <time>2021-09-12T09:00:17Z</time>
      </trkpt>
      <trkpt lat="48.37997" lon="-3.83119">
        <ele>241.19999694824</ele>
        <time>2021-09-12T09:00:18Z</time>
      </trkpt>
      <trkpt lat="48.37997" lon="-3.83124">
        <ele>241.19999694824</ele>
        <time>2021-09-12T09:00:19Z</time>
      </trkpt>
      <trkpt lat="48.37999" lon="-3.83129">
        <ele>241.39999389648</ele>
        <time>2021-09-12T09:00:20Z</time>
      </trkpt>
      <trkpt lat="48.37999" lon="-3.83134">
        <ele>241.60000610352</ele>
        <time>2021-09-12T09:00:21Z</time>
      </trkpt>
      <trkpt lat="48.37999" lon="-3.83138">
        <ele>241.80000305176</ele>
        <time>2021-09-12T09:00:22Z</time>
      </trkpt>
      <trkpt lat="48.38" lon="-3.83142">
        <ele>241.80000305176</ele>
        <time>2021-09-12T09:00:23Z</time>
      </trkpt>
      <trkpt lat="48.38001" lon="-3.83146">
        <ele>241.80000305176</ele>
        <time>2021-09-12T09:00:24Z</time>
      </trkpt>
      <trkpt lat="48.38002" lon="-3.83149">
        <ele>242</ele>
        <time>2021-09-12T09:00:25Z</time>
      </trkpt>
      <trkpt lat="48.38002" lon="-3.83154">
        <ele>242</ele>
        <time>2021-09-12T09:00:26Z</time>
      </trkpt>
      <trkpt lat="48.38003" lon="-3.83159">
        <ele>242.60000610352</ele>
        <time>2021-09-12T09:00:27Z</time>
      </trkpt>
      <trkpt lat="48.38003" lon="-3.83164">
        <ele>242.60000610352</ele>
        <time>2021-09-12T09:00:28Z</time>
      </trkpt>
      <trkpt lat="48.38003" lon="-3.8317">
        <ele>242.80000305176</ele>
        <time>2021-09-12T09:00:29Z</time>
      </trkpt>
      <trkpt lat="48.38003" lon="-3.83176">
        <ele>242.80000305176</ele>
        <time>2021-09-12T09:00:30Z</time>
      </trkpt>
      <trkpt lat="48.38003" lon="-3.83181">
        <ele>242.80000305176</ele>
        <time>2021-09-12T09:00:31Z</time>
      </trkpt>
      <trkpt lat="48.38003" lon="-3.83186">
        <ele>243</ele>
        <time>2021-09-12T09:00:32Z</time>
      </trkpt>
      <trkpt lat="48.38003" lon="-3.83191">
        <ele>243</ele>
        <time>2021-09-12T09:00:33Z</time>
      </trkpt>
      <trkpt lat="48.38002" lon="-3.83198">
        <ele>243.19999694824</ele>
        <time>2021-09-12T09:00:34Z</time>
      </trkpt>
      <trkpt lat="48.38002" lon="-3.83203">
        <ele>243.19999694824</ele>
        <time>2021-09-12T09:00:35Z</time>
      </trkpt>
      <trkpt lat="48.38001" lon="-3.83209">
        <ele>243.39999389648</ele>
        <time>2021-09-12T09:00:36Z</time>
      </trkpt>
      <trkpt lat="48.37998" lon="-3.83214">
        <ele>243.80000305176</ele>
        <time>2021-09-12T09:00:37Z</time>
      </trkpt>
      <trkpt lat="48.37997" lon="-3.83219">
        <ele>243.80000305176</ele>
        <time>2021-09-12T09:00:38Z</time>
      </trkpt>
      <trkpt lat="48.37997" lon="-3.83225">
        <ele>244</ele>
        <time>2021-09-12T09:00:39Z</time>
      </trkpt>
      <trkpt lat="48.37997" lon="-3.8323">
        <ele>244.19999694824</ele>
        <time>2021-09-12T09:00:40Z</time>
      </trkpt>
      <trkpt lat="48.37997" lon="-3.83234">
        <ele>244.39999389648</ele>
        <time>2021-09-12T09:00:41Z</time>
      </trkpt>
      <trkpt lat="48.37997" lon="-3.83237">
        <ele>244.60000610352</ele>
        <time>2021-09-12T09:00:42Z</time>
      </trkpt>
      <trkpt lat="48.37997" lon="-3.8324">
        <ele>244.80000305176</ele>
        <time>2021-09-12T09:00:43Z</time>
      </trkpt>
      <trkpt lat="48.37997" lon="-3.83245">
        <ele>245.39999389648</ele>
        <time>2021-09-12T09:00:44Z</time>
      </trkpt>
      <trkpt lat="48.37996" lon="-3.83251">
        <ele>245.39999389648</ele>
        <time>2021-09-12T09:00:45Z</time>
      </trkpt>
      <trkpt lat="48.37995" lon="-3.83257">
        <ele>245.39999389648</ele>
        <time>2021-09-12T09:00:46Z</time>
      </trkpt>
      <trkpt lat="48.37995" lon="-3.83262">
        <ele>245.60000610352</ele>
        <time>2021-09-12T09:00:47Z</time>
      </trkpt>
      <trkpt lat="48.37994" lon="-3.83268">
        <ele>246</ele>
        <time>2021-09-12T09:00:48Z</time>
      </trkpt>
      <trkpt lat="48.37993" lon="-3.83276">
        <ele>246</ele>
        <time>2021-09-12T09:00:49Z</time>
      </trkpt>
      <trkpt lat="48.37992" lon="-3.83284">
        <ele>246.19999694824</ele>
        <time>2021-09-12T09:00:50Z</time>
      </trkpt>
      <trkpt lat="48.37991" lon="-3.8329">
        <ele>246.19999694824</ele>
        <time>2021-09-12T09:00:51Z</time>
      </trkpt>
      <trkpt lat="48.37988" lon="-3.83296">
        <ele>246.39999389648</ele>
        <time>2021-09-12T09:00:52Z</time>
      </trkpt>
      <trkpt lat="48.37988" lon="-3.83302">
        <ele>246.60000610352</ele>
        <time>2021-09-12T09:00:53Z</time>
      </trkpt>
      <trkpt lat="48.37987" lon="-3.83307">
        <ele>246.60000610352</ele>
        <time>2021-09-12T09:00:54Z</time>
      </trkpt>
      <trkpt lat="48.37986" lon="-3.83313">
        <ele>246.60000610352</ele>
        <time>2021-09-12T09:00:55Z</time>
      </trkpt>
      <trkpt lat="48.37986" lon="-3.83319">
        <ele>246.60000610352</ele>
        <time>2021-09-12T09:00:56Z</time>
      </trkpt>
      <trkpt lat="48.37984" lon="-3.83327">
        <ele>246.60000610352</ele>
        <time>2021-09-12T09:00:57Z</time>
      </trkpt>
      <trkpt lat="48.37983" lon="-3.83333">
        <ele>246.60000610352</ele>
        <time>2021-09-12T09:00:58Z</time>
      </trkpt>
      <trkpt lat="48.37982" lon="-3.83339">
        <ele>246.80000305176</ele>
        <time>2021-09-12T09:00:59Z</time>
      </trkpt>
      <trkpt lat="48.37981" lon="-3.83345">
        <ele>246.80000305176</ele>
        <time>2021-09-12T09:01:00Z</time>
      </trkpt>
      <trkpt lat="48.3798" lon="-3.8335">
        <ele>246.80000305176</ele>
        <time>2021-09-12T09:01:01Z</time>
      </trkpt>
      <trkpt lat="48.37979" lon="-3.83354">
        <ele>247</ele>
        <time>2021-09-12T09:01:02Z</time>
      </trkpt>
      <trkpt lat="48.37978" lon="-3.83358">
        <ele>247.19999694824</ele>
        <time>2021-09-12T09:01:03Z</time>
      </trkpt>
      <trkpt lat="48.37978" lon="-3.83363">
        <ele>247.39999389648</ele>
        <time>2021-09-12T09:01:04Z</time>
      </trkpt>
      <trkpt lat="48.37979" lon="-3.83369">
        <ele>247.60000610352</ele>
        <time>2021-09-12T09:01:05Z</time>
      </trkpt>
      <trkpt lat="48.37979" lon="-3.83375">
        <ele>247.60000610352</ele>
        <time>2021-09-12T09:01:06Z</time>
      </trkpt>
      <trkpt lat="48.37978" lon="-3.83379">
        <ele>247.60000610352</ele>
        <time>2021-09-12T09:01:07Z</time>
      </trkpt>
      <trkpt lat="48.37977" lon="-3.83382">
        <ele>247.80000305176</ele>
        <time>2021-09-12T09:01:08Z</time>
      </trkpt>
      <trkpt lat="48.37976" lon="-3.83386">
        <ele>248.39999389648</ele>
        <time>2021-09-12T09:01:09Z</time>
      </trkpt>
      <trkpt lat="48.37976" lon="-3.83389">
        <ele>248.39999389648</ele>
        <time>2021-09-12T09:01:10Z</time>
      </trkpt>
      <trkpt lat="48.37976" lon="-3.83392">
        <ele>248.39999389648</ele>
        <time>2021-09-12T09:01:11Z</time>
      </trkpt>
      <trkpt lat="48.37976" lon="-3.83397">
        <ele>248.60000610352</ele>
        <time>2021-09-12T09:01:12Z</time>
      </trkpt>
      <trkpt lat="48.37975" lon="-3.83401">
        <ele>248.80000305176</ele>
        <time>2021-09-12T09:01:13Z</time>
      </trkpt>
      <trkpt lat="48.37974" lon="-3.83407">
        <ele>249</ele>
        <time>2021-09-12T09:01:14Z</time>
      </trkpt>
      <trkpt lat="48.37973" lon="-3.83412">
        <ele>249.19999694824</ele>
        <time>2021-09-12T09:01:15Z</time>
      </trkpt>
      <trkpt lat="48.37972" lon="-3.83417">
        <ele>249.39999389648</ele>
        <time>2021-09-12T09:01:16Z</time>
      </trkpt>
      <trkpt lat="48.37971" lon="-3.83422">
        <ele>249.39999389648</ele>
        <time>2021-09-12T09:01:17Z</time>
      </trkpt>
      <trkpt lat="48.3797" lon="-3.83427">
        <ele>249.39999389648</ele>
        <time>2021-09-12T09:01:18Z</time>
      </trkpt>
      <trkpt lat="48.37969" lon="-3.83434">
        <ele>249.39999389648</ele>
        <time>2021-09-12T09:01:19Z</time>
      </trkpt>
      <trkpt lat="48.37968" lon="-3.8344">
        <ele>249.39999389648</ele>
        <time>2021-09-12T09:01:20Z</time>
      </trkpt>
      <trkpt lat="48.37968" lon="-3.83446">
        <ele>249.39999389648</ele>
        <time>2021-09-12T09:01:21Z</time>
      </trkpt>
      <trkpt lat="48.37968" lon="-3.83451">
        <ele>249.39999389648</ele>
        <time>2021-09-12T09:01:22Z</time>
      </trkpt>
      <trkpt lat="48.37968" lon="-3.83456">
        <ele>249.19999694824</ele>
        <time>2021-09-12T09:01:23Z</time>
      </trkpt>
      <trkpt lat="48.37967" lon="-3.83465">
        <ele>248.80000305176</ele>
        <time>2021-09-12T09:01:24Z</time>
      </trkpt>
      <trkpt lat="48.37967" lon="-3.83472">
        <ele>248.39999389648</ele>
        <time>2021-09-12T09:01:25Z</time>
      </trkpt>
      <trkpt lat="48.37967" lon="-3.83479">
        <ele>248.39999389648</ele>
        <time>2021-09-12T09:01:26Z</time>
      </trkpt>
      <trkpt lat="48.37966" lon="-3.83486">
        <ele>248.39999389648</ele>
        <time>2021-09-12T09:01:27Z</time>
      </trkpt>
      <trkpt lat="48.37967" lon="-3.83491">
        <ele>248</ele>
        <time>2021-09-12T09:01:28Z</time>
      </trkpt>
      <trkpt lat="48.37967" lon="-3.83501">
        <ele>248</ele>
        <time>2021-09-12T09:01:29Z</time>
      </trkpt>
      <trkpt lat="48.37967" lon="-3.83508">
        <ele>247.80000305176</ele>
        <time>2021-09-12T09:01:30Z</time>
      </trkpt>
      <trkpt lat="48.37967" lon="-3.83515">
        <ele>247.39999389648</ele>
        <time>2021-09-12T09:01:31Z</time>
      </trkpt>
      <trkpt lat="48.37965" lon="-3.83524">
        <ele>247.39999389648</ele>
        <time>2021-09-12T09:01:32Z</time>
      </trkpt>
      <trkpt lat="48.37963" lon="-3.83534">
        <ele>247.19999694824</ele>
        <time>2021-09-12T09:01:33Z</time>
      </trkpt>
      <trkpt lat="48.37961" lon="-3.83543">
        <ele>247</ele>
        <time>2021-09-12T09:01:34Z</time>
      </trkpt>
      <trkpt lat="48.37958" lon="-3.83552">
        <ele>247</ele>
        <time>2021-09-12T09:01:35Z</time>
      </trkpt>
      <trkpt lat="48.37955" lon="-3.83559">
        <ele>246.80000305176</ele>
        <time>2021-09-12T09:01:36Z</time>
      </trkpt>
      <trkpt lat="48.37952" lon="-3.83569">
        <ele>246.60000610352</ele>
        <time>2021-09-12T09:01:37Z</time>
      </trkpt>
      <trkpt lat="48.37947" lon="-3.83581">
        <ele>246.19999694824</ele>
        <time>2021-09-12T09:01:38Z</time>
      </trkpt>
      <trkpt lat="48.37944" lon="-3.83592">
        <ele>246</ele>
        <time>2021-09-12T09:01:39Z</time>
      </trkpt>
      <trkpt lat="48.37942" lon="-3.83601">
        <ele>245.60000610352</ele>
        <time>2021-09-12T09:01:40Z</time>
      </trkpt>
      <trkpt lat="48.3794" lon="-3.83608">
        <ele>245.39999389648</ele>
        <time>2021-09-12T09:01:41Z</time>
      </trkpt>
      <trkpt lat="48.37938" lon="-3.83617">
        <ele>245.19999694824</ele>
        <time>2021-09-12T09:01:42Z</time>
      </trkpt>
      <trkpt lat="48.37934" lon="-3.8363">
        <ele>245</ele>
        <time>2021-09-12T09:01:43Z</time>
      </trkpt>
      <trkpt lat="48.37934" lon="-3.83639">
        <ele>244.60000610352</ele>
        <time>2021-09-12T09:01:44Z</time>
      </trkpt>
      <trkpt lat="48.37934" lon="-3.8365">
        <ele>244.39999389648</ele>
        <time>2021-09-12T09:01:45Z</time>
      </trkpt>
      <trkpt lat="48.37934" lon="-3.83658">
        <ele>244.19999694824</ele>
        <time>2021-09-12T09:01:46Z</time>
      </trkpt>
      <trkpt lat="48.37933" lon="-3.83668">
        <ele>244</ele>
        <time>2021-09-12T09:01:47Z</time>
      </trkpt>
      <trkpt lat="48.37932" lon="-3.83677">
        <ele>243.80000305176</ele>
        <time>2021-09-12T09:01:48Z</time>
      </trkpt>
      <trkpt lat="48.37934" lon="-3.83681">
        <ele>243.80000305176</ele>
        <time>2021-09-12T09:01:49Z</time>
      </trkpt>
      <trkpt lat="48.37936" lon="-3.83682">
        <ele>243.39999389648</ele>
        <time>2021-09-12T09:01:50Z</time>
      </trkpt>
      <trkpt lat="48.37939" lon="-3.83682">
        <ele>243.39999389648</ele>
        <time>2021-09-12T09:01:51Z</time>
      </trkpt>
      <trkpt lat="48.37942" lon="-3.83681">
        <ele>243.39999389648</ele>
        <time>2021-09-12T09:01:52Z</time>
      </trkpt>
      <trkpt lat="48.37946" lon="-3.83679">
        <ele>243.19999694824</ele>
        <time>2021-09-12T09:01:53Z</time>
      </trkpt>
      <trkpt lat="48.37951" lon="-3.83676">
        <ele>243.19999694824</ele>
        <time>2021-09-12T09:01:54Z</time>
      </trkpt>
      <trkpt lat="48.37955" lon="-3.83673">
        <ele>243.19999694824</ele>
        <time>2021-09-12T09:01:55Z</time>
      </trkpt>
      <trkpt lat="48.37959" lon="-3.83671">
        <ele>243.19999694824</ele>
        <time>2021-09-12T09:01:56Z</time>
      </trkpt>
      <trkpt lat="48.37963" lon="-3.83668">
        <ele>243.39999389648</ele>
        <time>2021-09-12T09:01:57Z</time>
      </trkpt>
      <trkpt lat="48.37968" lon="-3.83665">
        <ele>243.80000305176</ele>
        <time>2021-09-12T09:01:58Z</time>
      </trkpt>
      <trkpt lat="48.37972" lon="-3.83663">
        <ele>244</ele>
        <time>2021-09-12T09:01:59Z</time>
      </trkpt>
      <trkpt lat="48.37976" lon="-3.83661">
        <ele>244</ele>
        <time>2021-09-12T09:02:00Z</time>
      </trkpt>
      <trkpt lat="48.37979" lon="-3.83659">
        <ele>244.19999694824</ele>
        <time>2021-09-12T09:02:01Z</time>
      </trkpt>
      <trkpt lat="48.37983" lon="-3.83657">
        <ele>244.60000610352</ele>
        <time>2021-09-12T09:02:02Z</time>
      </trkpt>
      <trkpt lat="48.37988" lon="-3.83655">
        <ele>244.60000610352</ele>
        <time>2021-09-12T09:02:03Z</time>
      </trkpt>
      <trkpt lat="48.37992" lon="-3.83654">
        <ele>244.80000305176</ele>
        <time>2021-09-12T09:02:04Z</time>
      </trkpt>
      <trkpt lat="48.37994" lon="-3.83653">
        <ele>245.19999694824</ele>
        <time>2021-09-12T09:02:05Z</time>
      </trkpt>
      <trkpt lat="48.37998" lon="-3.83651">
        <ele>245.19999694824</ele>
        <time>2021-09-12T09:02:06Z</time>
      </trkpt>
      <trkpt lat="48.38001" lon="-3.8365">
        <ele>245.60000610352</ele>
        <time>2021-09-12T09:02:07Z</time>
      </trkpt>
      <trkpt lat="48.38004" lon="-3.83649">
        <ele>246</ele>
        <time>2021-09-12T09:02:08Z</time>
      </trkpt>
      <trkpt lat="48.38008" lon="-3.83647">
        <ele>246.39999389648</ele>
        <time>2021-09-12T09:02:09Z</time>
      </trkpt>
      <trkpt lat="48.38012" lon="-3.83647">
        <ele>246.39999389648</ele>
        <time>2021-09-12T09:02:10Z</time>
      </trkpt>
      <trkpt lat="48.38016" lon="-3.83646">
        <ele>246.39999389648</ele>
        <time>2021-09-12T09:02:11Z</time>
      </trkpt>
      <trkpt lat="48.38021" lon="-3.83645">
        <ele>246.39999389648</ele>
        <time>2021-09-12T09:02:12Z</time>
      </trkpt>
      <trkpt lat="48.38025" lon="-3.83645">
        <ele>246.39999389648</ele>
        <time>2021-09-12T09:02:13Z</time>
      </trkpt>
      <trkpt lat="48.38029" lon="-3.83645">
        <ele>246.39999389648</ele>
        <time>2021-09-12T09:02:14Z</time>
      </trkpt>
      <trkpt lat="48.38033" lon="-3.83645">
        <ele>246.19999694824</ele>
        <time>2021-09-12T09:02:15Z</time>
      </trkpt>
      <trkpt lat="48.38038" lon="-3.83646">
        <ele>246</ele>
        <time>2021-09-12T09:02:16Z</time>
      </trkpt>
      <trkpt lat="48.38042" lon="-3.83646">
        <ele>246</ele>
        <time>2021-09-12T09:02:17Z</time>
      </trkpt>
      <trkpt lat="48.38048" lon="-3.83646">
        <ele>245.60000610352</ele>
        <time>2021-09-12T09:02:18Z</time>
      </trkpt>
      <trkpt lat="48.38054" lon="-3.83647">
        <ele>245.19999694824</ele>
        <time>2021-09-12T09:02:19Z</time>
      </trkpt>
      <trkpt lat="48.38058" lon="-3.83646">
        <ele>244.60000610352</ele>
        <time>2021-09-12T09:02:20Z</time>
      </trkpt>
      <trkpt lat="48.38064" lon="-3.83646">
        <ele>244.60000610352</ele>
        <time>2021-09-12T09:02:21Z</time>
      </trkpt>
      <trkpt lat="48.38071" lon="-3.83646">
        <ele>244.39999389648</ele>
        <time>2021-09-12T09:02:22Z</time>
      </trkpt>
      <trkpt lat="48.38078" lon="-3.83646">
        <ele>243.80000305176</ele>
        <time>2021-09-12T09:02:23Z</time>
      </trkpt>
      <trkpt lat="48.38086" lon="-3.83647">
        <ele>243.60000610352</ele>
        <time>2021-09-12T09:02:24Z</time>
      </trkpt>
      <trkpt lat="48.38092" lon="-3.83649">
        <ele>242.80000305176</ele>
        <time>2021-09-12T09:02:25Z</time>
      </trkpt>
      <trkpt lat="48.38099" lon="-3.8365">
        <ele>242.39999389648</ele>
        <time>2021-09-12T09:02:26Z</time>
      </trkpt>
      <trkpt lat="48.38107" lon="-3.83653">
        <ele>242</ele>
        <time>2021-09-12T09:02:27Z</time>
      </trkpt>
      <trkpt lat="48.38113" lon="-3.83654">
        <ele>241.19999694824</ele>
        <time>2021-09-12T09:02:28Z</time>
      </trkpt>
      <trkpt lat="48.38121" lon="-3.83655">
        <ele>241.19999694824</ele>
        <time>2021-09-12T09:02:29Z</time>
      </trkpt>
      <trkpt lat="48.38127" lon="-3.83656">
        <ele>240.39999389648</ele>
        <time>2021-09-12T09:02:30Z</time>
      </trkpt>
      <trkpt lat="48.38135" lon="-3.83656">
        <ele>239.60000610352</ele>
        <time>2021-09-12T09:02:31Z</time>
      </trkpt>
      <trkpt lat="48.38144" lon="-3.83656">
        <ele>238.39999389648</ele>
        <time>2021-09-12T09:02:32Z</time>
      </trkpt>
      <trkpt lat="48.38153" lon="-3.83657">
        <ele>238.19999694824</ele>
        <time>2021-09-12T09:02:33Z</time>
      </trkpt>
      <trkpt lat="48.3816" lon="-3.83658">
        <ele>238</ele>
        <time>2021-09-12T09:02:34Z</time>
      </trkpt>
      <trkpt lat="48.38169" lon="-3.8366">
        <ele>236.80000305176</ele>
        <time>2021-09-12T09:02:35Z</time>
      </trkpt>
      <trkpt lat="48.38179" lon="-3.83661">
        <ele>236.60000610352</ele>
        <time>2021-09-12T09:02:36Z</time>
      </trkpt>
      <trkpt lat="48.38186" lon="-3.83662">
        <ele>235.60000610352</ele>
        <time>2021-09-12T09:02:37Z</time>
      </trkpt>
      <trkpt lat="48.38192" lon="-3.83662">
        <ele>235.19999694824</ele>
        <time>2021-09-12T09:02:38Z</time>
      </trkpt>
      <trkpt lat="48.38196" lon="-3.83663">
        <ele>234.60000610352</ele>
        <time>2021-09-12T09:02:39Z</time>
      </trkpt>
      <trkpt lat="48.38201" lon="-3.83664">
        <ele>234</ele>
        <time>2021-09-12T09:02:40Z</time>
      </trkpt>
      <trkpt lat="48.38204" lon="-3.83665">
        <ele>233.60000610352</ele>
        <time>2021-09-12T09:02:41Z</time>
      </trkpt>
      <trkpt lat="48.38207" lon="-3.83664">
        <ele>233.60000610352</ele>
        <time>2021-09-12T09:02:42Z</time>
      </trkpt>
      <trkpt lat="48.38209" lon="-3.83663">
        <ele>233.60000610352</ele>
        <time>2021-09-12T09:02:43Z</time>
      </trkpt>
      <trkpt lat="48.38212" lon="-3.83663">
        <ele>233.60000610352</ele>
        <time>2021-09-12T09:02:44Z</time>
      </trkpt>
      <trkpt lat="48.38215" lon="-3.83662">
        <ele>233.60000610352</ele>
        <time>2021-09-12T09:02:45Z</time>
      </trkpt>
      <trkpt lat="48.38219" lon="-3.83661">
        <ele>233.60000610352</ele>
        <time>2021-09-12T09:02:46Z</time>
      </trkpt>
      <trkpt lat="48.38222" lon="-3.83661">
        <ele>234</ele>
        <time>2021-09-12T09:02:47Z</time>
      </trkpt>
      <trkpt lat="48.38225" lon="-3.83659">
        <ele>234</ele>
        <time>2021-09-12T09:02:48Z</time>
      </trkpt>
      <trkpt lat="48.38229" lon="-3.83659">
        <ele>234.19999694824</ele>
        <time>2021-09-12T09:02:49Z</time>
      </trkpt>
      <trkpt lat="48.38232" lon="-3.83658">
        <ele>234.39999389648</ele>
        <time>2021-09-12T09:02:50Z</time>
      </trkpt>
      <trkpt lat="48.38236" lon="-3.83656">
        <ele>234.39999389648</ele>
        <time>2021-09-12T09:02:51Z</time>
      </trkpt>
      <trkpt lat="48.3824" lon="-3.83654">
        <ele>234.60000610352</ele>
        <time>2021-09-12T09:02:52Z</time>
      </trkpt>
      <trkpt lat="48.38243" lon="-3.83654">
        <ele>234.80000305176</ele>
        <time>2021-09-12T09:02:53Z</time>
      </trkpt>
      <trkpt lat="48.38246" lon="-3.83652">
        <ele>234.80000305176</ele>
        <time>2021-09-12T09:02:54Z</time>
      </trkpt>
      <trkpt lat="48.3825" lon="-3.83647">
        <ele>235</ele>
        <time>2021-09-12T09:02:55Z</time>
      </trkpt>
      <trkpt lat="48.38253" lon="-3.83642">
        <ele>235</ele>
        <time>2021-09-12T09:02:56Z</time>
      </trkpt>
      <trkpt lat="48.38256" lon="-3.83637">
        <ele>235.19999694824</ele>
        <time>2021-09-12T09:02:57Z</time>
      </trkpt>
      <trkpt lat="48.38258" lon="-3.83634">
        <ele>235.19999694824</ele>
        <time>2021-09-12T09:02:58Z</time>
      </trkpt>
      <trkpt lat="48.38261" lon="-3.8363">
        <ele>235.19999694824</ele>
        <time>2021-09-12T09:02:59Z</time>
      </trkpt>
      <trkpt lat="48.38264" lon="-3.83626">
        <ele>235.39999389648</ele>
        <time>2021-09-12T09:03:00Z</time>
      </trkpt>
      <trkpt lat="48.38267" lon="-3.83621">
        <ele>235.60000610352</ele>
        <time>2021-09-12T09:03:01Z</time>
      </trkpt>
      <trkpt lat="48.38269" lon="-3.83618">
        <ele>235.60000610352</ele>
        <time>2021-09-12T09:03:02Z</time>
      </trkpt>
      <trkpt lat="48.38274" lon="-3.83614">
        <ele>235.60000610352</ele>
        <time>2021-09-12T09:03:03Z</time>
      </trkpt>
      <trkpt lat="48.38277" lon="-3.83611">
        <ele>235.80000305176</ele>
        <time>2021-09-12T09:03:04Z</time>
      </trkpt>
      <trkpt lat="48.38278" lon="-3.83608">
        <ele>236.19999694824</ele>
        <time>2021-09-12T09:03:05Z</time>
      </trkpt>
      <trkpt lat="48.38281" lon="-3.83605">
        <ele>236.19999694824</ele>
        <time>2021-09-12T09:03:06Z</time>
      </trkpt>
      <trkpt lat="48.38284" lon="-3.83601">
        <ele>236.19999694824</ele>
        <time>2021-09-12T09:03:07Z</time>
      </trkpt>
      <trkpt lat="48.38286" lon="-3.83598">
        <ele>236.19999694824</ele>
        <time>2021-09-12T09:03:08Z</time>
      </trkpt>
      <trkpt lat="48.38289" lon="-3.83596">
        <ele>236.19999694824</ele>
        <time>2021-09-12T09:03:09Z</time>
      </trkpt>
      <trkpt lat="48.38292" lon="-3.83592">
        <ele>236.19999694824</ele>
        <time>2021-09-12T09:03:10Z</time>
      </trkpt>
      <trkpt lat="48.38295" lon="-3.8359">
        <ele>236.60000610352</ele>
        <time>2021-09-12T09:03:11Z</time>
      </trkpt>
      <trkpt lat="48.38298" lon="-3.83587">
        <ele>236.60000610352</ele>
        <time>2021-09-12T09:03:12Z</time>
      </trkpt>
      <trkpt lat="48.38301" lon="-3.83584">
        <ele>236.60000610352</ele>
        <time>2021-09-12T09:03:13Z</time>
      </trkpt>
      <trkpt lat="48.38303" lon="-3.83581">
        <ele>236.60000610352</ele>
        <time>2021-09-12T09:03:14Z</time>
      </trkpt>
      <trkpt lat="48.38306" lon="-3.83578">
        <ele>236.80000305176</ele>
        <time>2021-09-12T09:03:15Z</time>
      </trkpt>
      <trkpt lat="48.38309" lon="-3.83576">
        <ele>236.80000305176</ele>
        <time>2021-09-12T09:03:16Z</time>
      </trkpt>
      <trkpt lat="48.38311" lon="-3.83574">
        <ele>236.80000305176</ele>
        <time>2021-09-12T09:03:17Z</time>
      </trkpt>
      <trkpt lat="48.38313" lon="-3.83572">
        <ele>236.80000305176</ele>
        <time>2021-09-12T09:03:18Z</time>
      </trkpt>
      <trkpt lat="48.38315" lon="-3.8357">
        <ele>236.80000305176</ele>
        <time>2021-09-12T09:03:19Z</time>
      </trkpt>
      <trkpt lat="48.38317" lon="-3.83569">
        <ele>236.80000305176</ele>
        <time>2021-09-12T09:03:20Z</time>
      </trkpt>
      <trkpt lat="48.38319" lon="-3.83568">
        <ele>237</ele>
        <time>2021-09-12T09:03:21Z</time>
      </trkpt>
      <trkpt lat="48.3832" lon="-3.83567">
        <ele>236.80000305176</ele>
        <time>2021-09-12T09:03:22Z</time>
      </trkpt>
      <trkpt lat="48.38322" lon="-3.83566">
        <ele>237</ele>
        <time>2021-09-12T09:03:23Z</time>
      </trkpt>
      <trkpt lat="48.38324" lon="-3.83563">
        <ele>237</ele>
        <time>2021-09-12T09:03:24Z</time>
      </trkpt>
      <trkpt lat="48.38326" lon="-3.8356">
        <ele>237</ele>
        <time>2021-09-12T09:03:25Z</time>
      </trkpt>
      <trkpt lat="48.38329" lon="-3.83556">
        <ele>237</ele>
        <time>2021-09-12T09:03:26Z</time>
      </trkpt>
      <trkpt lat="48.38331" lon="-3.83553">
        <ele>237</ele>
        <time>2021-09-12T09:03:27Z</time>
      </trkpt>
      <trkpt lat="48.38332" lon="-3.83551">
        <ele>237.19999694824</ele>
        <time>2021-09-12T09:03:28Z</time>
      </trkpt>
      <trkpt lat="48.38334" lon="-3.83549">
        <ele>237.19999694824</ele>
        <time>2021-09-12T09:03:29Z</time>
      </trkpt>
      <trkpt lat="48.38336" lon="-3.83546">
        <ele>237.19999694824</ele>
        <time>2021-09-12T09:03:30Z</time>
      </trkpt>
      <trkpt lat="48.38338" lon="-3.83542">
        <ele>237.19999694824</ele>
        <time>2021-09-12T09:03:31Z</time>
      </trkpt>
      <trkpt lat="48.38341" lon="-3.83539">
        <ele>237.19999694824</ele>
        <time>2021-09-12T09:03:32Z</time>
      </trkpt>
      <trkpt lat="48.38343" lon="-3.83535">
        <ele>237.60000610352</ele>
        <time>2021-09-12T09:03:33Z</time>
      </trkpt>
      <trkpt lat="48.38345" lon="-3.83531">
        <ele>237.60000610352</ele>
        <time>2021-09-12T09:03:34Z</time>
      </trkpt>
      <trkpt lat="48.38347" lon="-3.83528">
        <ele>237.80000305176</ele>
        <time>2021-09-12T09:03:35Z</time>
      </trkpt>
      <trkpt lat="48.38349" lon="-3.83527">
        <ele>238</ele>
        <time>2021-09-12T09:03:36Z</time>
      </trkpt>
      <trkpt lat="48.38351" lon="-3.83526">
        <ele>238</ele>
        <time>2021-09-12T09:03:37Z</time>
      </trkpt>
      <trkpt lat="48.38352" lon="-3.83524">
        <ele>238</ele>
        <time>2021-09-12T09:03:38Z</time>
      </trkpt>
      <trkpt lat="48.38354" lon="-3.83521">
        <ele>238.19999694824</ele>
        <time>2021-09-12T09:03:39Z</time>
      </trkpt>
      <trkpt lat="48.38357" lon="-3.83517">
        <ele>238.19999694824</ele>
        <time>2021-09-12T09:03:40Z</time>
      </trkpt>
      <trkpt lat="48.3836" lon="-3.83513">
        <ele>238.39999389648</ele>
        <time>2021-09-12T09:03:41Z</time>
      </trkpt>
      <trkpt lat="48.38362" lon="-3.83509">
        <ele>238.60000610352</ele>
        <time>2021-09-12T09:03:42Z</time>
      </trkpt>
      <trkpt lat="48.38365" lon="-3.83506">
        <ele>238.80000305176</ele>
        <time>2021-09-12T09:03:43Z</time>
      </trkpt>
      <trkpt lat="48.38368" lon="-3.83502">
        <ele>238.80000305176</ele>
        <time>2021-09-12T09:03:44Z</time>
      </trkpt>
      <trkpt lat="48.3837" lon="-3.835">
        <ele>238.80000305176</ele>
        <time>2021-09-12T09:03:45Z</time>
      </trkpt>
      <trkpt lat="48.38368" lon="-3.83496">
        <ele>238.80000305176</ele>
        <time>2021-09-12T09:03:46Z</time>
      </trkpt>
      <trkpt lat="48.3837" lon="-3.83495">
        <ele>239</ele>
        <time>2021-09-12T09:03:47Z</time>
      </trkpt>
      <trkpt lat="48.38372" lon="-3.83493">
        <ele>239</ele>
        <time>2021-09-12T09:03:48Z</time>
      </trkpt>
      <trkpt lat="48.38372" lon="-3.83489">
        <ele>239.19999694824</ele>
        <time>2021-09-12T09:03:49Z</time>
      </trkpt>
      <trkpt lat="48.38375" lon="-3.83482">
        <ele>239.39999389648</ele>
        <time>2021-09-12T09:03:50Z</time>
      </trkpt>
      <trkpt lat="48.38377" lon="-3.83479">
        <ele>239.80000305176</ele>
        <time>2021-09-12T09:03:51Z</time>
      </trkpt>
      <trkpt lat="48.38379" lon="-3.83478">
        <ele>240.39999389648</ele>
        <time>2021-09-12T09:03:52Z</time>
      </trkpt>
      <trkpt lat="48.38381" lon="-3.83478">
        <ele>240.80000305176</ele>
        <time>2021-09-12T09:03:53Z</time>
      </trkpt>
      <trkpt lat="48.38383" lon="-3.83477">
        <ele>240.80000305176</ele>
        <time>2021-09-12T09:03:54Z</time>
      </trkpt>
      <trkpt lat="48.38385" lon="-3.83476">
        <ele>241</ele>
        <time>2021-09-12T09:03:55Z</time>
      </trkpt>
      <trkpt lat="48.38388" lon="-3.83473">
        <ele>241.19999694824</ele>
        <time>2021-09-12T09:03:56Z</time>
      </trkpt>
      <trkpt lat="48.3839" lon="-3.83472">
        <ele>241.60000610352</ele>
        <time>2021-09-12T09:03:57Z</time>
      </trkpt>
      <trkpt lat="48.38393" lon="-3.83469">
        <ele>241.60000610352</ele>
        <time>2021-09-12T09:03:58Z</time>
      </trkpt>
      <trkpt lat="48.38396" lon="-3.83468">
        <ele>241.60000610352</ele>
        <time>2021-09-12T09:03:59Z</time>
      </trkpt>
      <trkpt lat="48.38398" lon="-3.83466">
        <ele>241.80000305176</ele>
        <time>2021-09-12T09:04:00Z</time>
      </trkpt>
      <trkpt lat="48.38401" lon="-3.83465">
        <ele>242</ele>
        <time>2021-09-12T09:04:01Z</time>
      </trkpt>
      <trkpt lat="48.38404" lon="-3.83463">
        <ele>242.19999694824</ele>
        <time>2021-09-12T09:04:02Z</time>
      </trkpt>
      <trkpt lat="48.38407" lon="-3.83462">
        <ele>242.39999389648</ele>
        <time>2021-09-12T09:04:03Z</time>
      </trkpt>
      <trkpt lat="48.38409" lon="-3.83461">
        <ele>242.39999389648</ele>
        <time>2021-09-12T09:04:04Z</time>
      </trkpt>
      <trkpt lat="48.38411" lon="-3.83461">
        <ele>242.39999389648</ele>
        <time>2021-09-12T09:04:05Z</time>
      </trkpt>
      <trkpt lat="48.38412" lon="-3.8346">
        <ele>242.80000305176</ele>
        <time>2021-09-12T09:04:06Z</time>
      </trkpt>
      <trkpt lat="48.38414" lon="-3.83459">
        <ele>243.19999694824</ele>
        <time>2021-09-12T09:04:07Z</time>
      </trkpt>
      <trkpt lat="48.38417" lon="-3.83457">
        <ele>243.19999694824</ele>
        <time>2021-09-12T09:04:08Z</time>
      </trkpt>
      <trkpt lat="48.3842" lon="-3.83456">
        <ele>243.39999389648</ele>
        <time>2021-09-12T09:04:09Z</time>
      </trkpt>
      <trkpt lat="48.38423" lon="-3.83455">
        <ele>243.39999389648</ele>
        <time>2021-09-12T09:04:10Z</time>
      </trkpt>
      <trkpt lat="48.38426" lon="-3.83455">
        <ele>243.39999389648</ele>
        <time>2021-09-12T09:04:11Z</time>
      </trkpt>
      <trkpt lat="48.3843" lon="-3.83455">
        <ele>243.60000610352</ele>
        <time>2021-09-12T09:04:12Z</time>
      </trkpt>
      <trkpt lat="48.38432" lon="-3.83455">
        <ele>243.60000610352</ele>
        <time>2021-09-12T09:04:13Z</time>
      </trkpt>
      <trkpt lat="48.38433" lon="-3.83455">
        <ele>243.80000305176</ele>
        <time>2021-09-12T09:04:14Z</time>
      </trkpt>
      <trkpt lat="48.38435" lon="-3.83456">
        <ele>243.80000305176</ele>
        <time>2021-09-12T09:04:15Z</time>
      </trkpt>
      <trkpt lat="48.38437" lon="-3.83455">
        <ele>243.80000305176</ele>
        <time>2021-09-12T09:04:16Z</time>
      </trkpt>
      <trkpt lat="48.38441" lon="-3.83452">
        <ele>243.80000305176</ele>
        <time>2021-09-12T09:04:17Z</time>
      </trkpt>
      <trkpt lat="48.38444" lon="-3.83451">
        <ele>244</ele>
        <time>2021-09-12T09:04:18Z</time>
      </trkpt>
      <trkpt lat="48.38447" lon="-3.83449">
        <ele>244</ele>
        <time>2021-09-12T09:04:19Z</time>
      </trkpt>
      <trkpt lat="48.38449" lon="-3.83448">
        <ele>244.19999694824</ele>
        <time>2021-09-12T09:04:20Z</time>
      </trkpt>
      <trkpt lat="48.38452" lon="-3.83448">
        <ele>244.19999694824</ele>
        <time>2021-09-12T09:04:21Z</time>
      </trkpt>
      <trkpt lat="48.38454" lon="-3.83448">
        <ele>244.39999389648</ele>
        <time>2021-09-12T09:04:22Z</time>
      </trkpt>
      <trkpt lat="48.38456" lon="-3.83447">
        <ele>244.39999389648</ele>
        <time>2021-09-12T09:04:23Z</time>
      </trkpt>
      <trkpt lat="48.38459" lon="-3.83447">
        <ele>244.39999389648</ele>
        <time>2021-09-12T09:04:24Z</time>
      </trkpt>
      <trkpt lat="48.3846" lon="-3.83447">
        <ele>244.60000610352</ele>
        <time>2021-09-12T09:04:25Z</time>
      </trkpt>
      <trkpt lat="48.38463" lon="-3.83447">
        <ele>245</ele>
        <time>2021-09-12T09:04:26Z</time>
      </trkpt>
      <trkpt lat="48.38466" lon="-3.83446">
        <ele>245.39999389648</ele>
        <time>2021-09-12T09:04:27Z</time>
      </trkpt>
      <trkpt lat="48.38469" lon="-3.83444">
        <ele>245.60000610352</ele>
        <time>2021-09-12T09:04:28Z</time>
      </trkpt>
      <trkpt lat="48.38472" lon="-3.83444">
        <ele>245.80000305176</ele>
        <time>2021-09-12T09:04:29Z</time>
      </trkpt>
      <trkpt lat="48.38474" lon="-3.83444">
        <ele>245.80000305176</ele>
        <time>2021-09-12T09:04:30Z</time>
      </trkpt>
      <trkpt lat="48.38476" lon="-3.83444">
        <ele>245.80000305176</ele>
        <time>2021-09-12T09:04:31Z</time>
      </trkpt>
      <trkpt lat="48.38478" lon="-3.83443">
        <ele>246.19999694824</ele>
        <time>2021-09-12T09:04:32Z</time>
      </trkpt>
      <trkpt lat="48.3848" lon="-3.83443">
        <ele>246.19999694824</ele>
        <time>2021-09-12T09:04:33Z</time>
      </trkpt>
      <trkpt lat="48.38482" lon="-3.83442">
        <ele>246.60000610352</ele>
        <time>2021-09-12T09:04:34Z</time>
      </trkpt>
      <trkpt lat="48.38484" lon="-3.83442">
        <ele>246.60000610352</ele>
        <time>2021-09-12T09:04:35Z</time>
      </trkpt>
      <trkpt lat="48.38486" lon="-3.83441">
        <ele>247</ele>
        <time>2021-09-12T09:04:36Z</time>
      </trkpt>
      <trkpt lat="48.38488" lon="-3.83438">
        <ele>247.39999389648</ele>
        <time>2021-09-12T09:04:37Z</time>
      </trkpt>
      <trkpt lat="48.38491" lon="-3.83436">
        <ele>247.39999389648</ele>
        <time>2021-09-12T09:04:38Z</time>
      </trkpt>
      <trkpt lat="48.38494" lon="-3.83433">
        <ele>247.60000610352</ele>
        <time>2021-09-12T09:04:39Z</time>
      </trkpt>
      <trkpt lat="48.38496" lon="-3.83432">
        <ele>247.80000305176</ele>
        <time>2021-09-12T09:04:40Z</time>
      </trkpt>
      <trkpt lat="48.385" lon="-3.83432">
        <ele>247.80000305176</ele>
        <time>2021-09-12T09:04:41Z</time>
      </trkpt>
      <trkpt lat="48.38502" lon="-3.83431">
        <ele>248</ele>
        <time>2021-09-12T09:04:42Z</time>
      </trkpt>
      <trkpt lat="48.38505" lon="-3.8343">
        <ele>248</ele>
        <time>2021-09-12T09:04:43Z</time>
      </trkpt>
      <trkpt lat="48.38507" lon="-3.83429">
        <ele>248.19999694824</ele>
        <time>2021-09-12T09:04:44Z</time>
      </trkpt>
      <trkpt lat="48.38509" lon="-3.83428">
        <ele>248.39999389648</ele>
        <time>2021-09-12T09:04:45Z</time>
      </trkpt>
      <trkpt lat="48.38512" lon="-3.83426">
        <ele>248.60000610352</ele>
        <time>2021-09-12T09:04:46Z</time>
      </trkpt>
      <trkpt lat="48.38514" lon="-3.83424">
        <ele>248.80000305176</ele>
        <time>2021-09-12T09:04:47Z</time>
      </trkpt>
      <trkpt lat="48.38516" lon="-3.83422">
        <ele>249</ele>
        <time>2021-09-12T09:04:48Z</time>
      </trkpt>
      <trkpt lat="48.3852" lon="-3.83418">
        <ele>249</ele>
        <time>2021-09-12T09:04:49Z</time>
      </trkpt>
      <trkpt lat="48.38522" lon="-3.83416">
        <ele>249.19999694824</ele>
        <time>2021-09-12T09:04:50Z</time>
      </trkpt>
      <trkpt lat="48.38525" lon="-3.83413">
        <ele>249.39999389648</ele>
        <time>2021-09-12T09:04:51Z</time>
      </trkpt>
      <trkpt lat="48.38528" lon="-3.83411">
        <ele>249.60000610352</ele>
        <time>2021-09-12T09:04:52Z</time>
      </trkpt>
      <trkpt lat="48.3853" lon="-3.8341">
        <ele>249.60000610352</ele>
        <time>2021-09-12T09:04:53Z</time>
      </trkpt>
      <trkpt lat="48.38531" lon="-3.83409">
        <ele>249.60000610352</ele>
        <time>2021-09-12T09:04:54Z</time>
      </trkpt>
      <trkpt lat="48.38532" lon="-3.83409">
        <ele>250</ele>
        <time>2021-09-12T09:04:55Z</time>
      </trkpt>
      <trkpt lat="48.38534" lon="-3.83406">
        <ele>250.19999694824</ele>
        <time>2021-09-12T09:04:56Z</time>
      </trkpt>
      <trkpt lat="48.38537" lon="-3.83406">
        <ele>250.39999389648</ele>
        <time>2021-09-12T09:04:57Z</time>
      </trkpt>
      <trkpt lat="48.38539" lon="-3.83405">
        <ele>250.39999389648</ele>
        <time>2021-09-12T09:04:58Z</time>
      </trkpt>
      <trkpt lat="48.38541" lon="-3.83404">
        <ele>250.39999389648</ele>
        <time>2021-09-12T09:04:59Z</time>
      </trkpt>
      <trkpt lat="48.38544" lon="-3.83402">
        <ele>250.80000305176</ele>
        <time>2021-09-12T09:05:00Z</time>
      </trkpt>
      <trkpt lat="48.38546" lon="-3.83398">
        <ele>251</ele>
        <time>2021-09-12T09:05:01Z</time>
      </trkpt>
      <trkpt lat="48.38547" lon="-3.83396">
        <ele>251.19999694824</ele>
        <time>2021-09-12T09:05:02Z</time>
      </trkpt>
      <trkpt lat="48.38549" lon="-3.83394">
        <ele>251.19999694824</ele>
        <time>2021-09-12T09:05:03Z</time>
      </trkpt>
      <trkpt lat="48.38551" lon="-3.83393">
        <ele>251.19999694824</ele>
        <time>2021-09-12T09:05:04Z</time>
      </trkpt>
      <trkpt lat="48.38553" lon="-3.83391">
        <ele>251.19999694824</ele>
        <time>2021-09-12T09:05:05Z</time>
      </trkpt>
      <trkpt lat="48.38556" lon="-3.83389">
        <ele>251.19999694824</ele>
        <time>2021-09-12T09:05:06Z</time>
      </trkpt>
      <trkpt lat="48.38559" lon="-3.83387">
        <ele>251.19999694824</ele>
        <time>2021-09-12T09:05:07Z</time>
      </trkpt>
      <trkpt lat="48.38561" lon="-3.83385">
        <ele>251.19999694824</ele>
        <time>2021-09-12T09:05:08Z</time>
      </trkpt>
      <trkpt lat="48.38565" lon="-3.83383">
        <ele>251.19999694824</ele>
        <time>2021-09-12T09:05:09Z</time>
      </trkpt>
      <trkpt lat="48.38568" lon="-3.83379">
        <ele>251.19999694824</ele>
        <time>2021-09-12T09:05:10Z</time>
      </trkpt>
      <trkpt lat="48.3857" lon="-3.83378">
        <ele>251.39999389648</ele>
        <time>2021-09-12T09:05:11Z</time>
      </trkpt>
      <trkpt lat="48.38571" lon="-3.83376">
        <ele>251.39999389648</ele>
        <time>2021-09-12T09:05:12Z</time>
      </trkpt>
      <trkpt lat="48.38573" lon="-3.83376">
        <ele>251.39999389648</ele>
        <time>2021-09-12T09:05:13Z</time>
      </trkpt>
      <trkpt lat="48.38575" lon="-3.83375">
        <ele>251.60000610352</ele>
        <time>2021-09-12T09:05:14Z</time>
      </trkpt>
      <trkpt lat="48.38578" lon="-3.83373">
        <ele>251.80000305176</ele>
        <time>2021-09-12T09:05:15Z</time>
      </trkpt>
      <trkpt lat="48.38581" lon="-3.8337">
        <ele>251.80000305176</ele>
        <time>2021-09-12T09:05:16Z</time>
      </trkpt>
      <trkpt lat="48.38584" lon="-3.83368">
        <ele>251.80000305176</ele>
        <time>2021-09-12T09:05:17Z</time>
      </trkpt>
      <trkpt lat="48.38587" lon="-3.83366">
        <ele>252.19999694824</ele>
        <time>2021-09-12T09:05:18Z</time>
      </trkpt>
      <trkpt lat="48.38591" lon="-3.83363">
        <ele>252.39999389648</ele>
        <time>2021-09-12T09:05:19Z</time>
      </trkpt>
      <trkpt lat="48.38594" lon="-3.83361">
        <ele>252.39999389648</ele>
        <time>2021-09-12T09:05:20Z</time>
      </trkpt>
      <trkpt lat="48.38598" lon="-3.83359">
        <ele>252.60000610352</ele>
        <time>2021-09-12T09:05:21Z</time>
      </trkpt>
      <trkpt lat="48.38601" lon="-3.83359">
        <ele>253</ele>
        <time>2021-09-12T09:05:22Z</time>
      </trkpt>
      <trkpt lat="48.38604" lon="-3.83359">
        <ele>253</ele>
        <time>2021-09-12T09:05:23Z</time>
      </trkpt>
      <trkpt lat="48.38608" lon="-3.8336">
        <ele>253.19999694824</ele>
        <time>2021-09-12T09:05:24Z</time>
      </trkpt>
      <trkpt lat="48.38611" lon="-3.8336">
        <ele>253.19999694824</ele>
        <time>2021-09-12T09:05:25Z</time>
      </trkpt>
      <trkpt lat="48.38615" lon="-3.83362">
        <ele>253.19999694824</ele>
        <time>2021-09-12T09:05:26Z</time>
      </trkpt>
      <trkpt lat="48.38619" lon="-3.83363">
        <ele>253.39999389648</ele>
        <time>2021-09-12T09:05:27Z</time>
      </trkpt>
      <trkpt lat="48.38623" lon="-3.83364">
        <ele>253.39999389648</ele>
        <time>2021-09-12T09:05:28Z</time>
      </trkpt>
      <trkpt lat="48.38627" lon="-3.83365">
        <ele>253.80000305176</ele>
        <time>2021-09-12T09:05:29Z</time>
      </trkpt>
      <trkpt lat="48.38631" lon="-3.83366">
        <ele>253.80000305176</ele>
        <time>2021-09-12T09:05:30Z</time>
      </trkpt>
      <trkpt lat="48.38635" lon="-3.83367">
        <ele>254.19999694824</ele>
        <time>2021-09-12T09:05:31Z</time>
      </trkpt>
      <trkpt lat="48.38639" lon="-3.83369">
        <ele>254.39999389648</ele>
        <time>2021-09-12T09:05:32Z</time>
      </trkpt>
      <trkpt lat="48.38641" lon="-3.83371">
        <ele>254.60000610352</ele>
        <time>2021-09-12T09:05:33Z</time>
      </trkpt>
      <trkpt lat="48.38645" lon="-3.83371">
        <ele>254.80000305176</ele>
        <time>2021-09-12T09:05:34Z</time>
      </trkpt>
      <trkpt lat="48.38649" lon="-3.83372">
        <ele>255.19999694824</ele>
        <time>2021-09-12T09:05:35Z</time>
      </trkpt>
      <trkpt lat="48.38653" lon="-3.83374">
        <ele>255.19999694824</ele>
        <time>2021-09-12T09:05:36Z</time>
      </trkpt>
      <trkpt lat="48.38657" lon="-3.83375">
        <ele>255.39999389648</ele>
        <time>2021-09-12T09:05:37Z</time>
      </trkpt>
      <trkpt lat="48.3866" lon="-3.83375">
        <ele>255.39999389648</ele>
        <time>2021-09-12T09:05:38Z</time>
      </trkpt>
      <trkpt lat="48.38664" lon="-3.83375">
        <ele>255.60000610352</ele>
        <time>2021-09-12T09:05:39Z</time>
      </trkpt>
      <trkpt lat="48.38668" lon="-3.83373">
        <ele>255.60000610352</ele>
        <time>2021-09-12T09:05:40Z</time>
      </trkpt>
      <trkpt lat="48.38672" lon="-3.8337">
        <ele>255.60000610352</ele>
        <time>2021-09-12T09:05:41Z</time>
      </trkpt>
      <trkpt lat="48.38675" lon="-3.83367">
        <ele>255.80000305176</ele>
        <time>2021-09-12T09:05:42Z</time>
      </trkpt>
      <trkpt lat="48.38678" lon="-3.83365">
        <ele>255.80000305176</ele>
        <time>2021-09-12T09:05:43Z</time>
      </trkpt>
      <trkpt lat="48.38682" lon="-3.83362">
        <ele>255.80000305176</ele>
        <time>2021-09-12T09:05:44Z</time>
      </trkpt>
      <trkpt lat="48.38686" lon="-3.83359">
        <ele>255.80000305176</ele>
        <time>2021-09-12T09:05:45Z</time>
      </trkpt>
      <trkpt lat="48.38689" lon="-3.83357">
        <ele>255.80000305176</ele>
        <time>2021-09-12T09:05:46Z</time>
      </trkpt>
      <trkpt lat="48.38693" lon="-3.83354">
        <ele>255.80000305176</ele>
        <time>2021-09-12T09:05:47Z</time>
      </trkpt>
      <trkpt lat="48.38697" lon="-3.83351">
        <ele>255.80000305176</ele>
        <time>2021-09-12T09:05:48Z</time>
      </trkpt>
      <trkpt lat="48.38701" lon="-3.83348">
        <ele>255.80000305176</ele>
        <time>2021-09-12T09:05:49Z</time>
      </trkpt>
      <trkpt lat="48.38706" lon="-3.83346">
        <ele>255.80000305176</ele>
        <time>2021-09-12T09:05:50Z</time>
      </trkpt>
      <trkpt lat="48.3871" lon="-3.83343">
        <ele>255.80000305176</ele>
        <time>2021-09-12T09:05:51Z</time>
      </trkpt>
      <trkpt lat="48.38714" lon="-3.83341">
        <ele>255.80000305176</ele>
        <time>2021-09-12T09:05:52Z</time>
      </trkpt>
      <trkpt lat="48.38718" lon="-3.83338">
        <ele>256</ele>
        <time>2021-09-12T09:05:53Z</time>
      </trkpt>
      <trkpt lat="48.38722" lon="-3.83336">
        <ele>256</ele>
        <time>2021-09-12T09:05:54Z</time>
      </trkpt>
      <trkpt lat="48.38726" lon="-3.83333">
        <ele>256.20001220703</ele>
        <time>2021-09-12T09:05:55Z</time>
      </trkpt>
      <trkpt lat="48.38732" lon="-3.83328">
        <ele>256.20001220703</ele>
        <time>2021-09-12T09:05:56Z</time>
      </trkpt>
      <trkpt lat="48.38736" lon="-3.83325">
        <ele>256.20001220703</ele>
        <time>2021-09-12T09:05:57Z</time>
      </trkpt>
      <trkpt lat="48.3874" lon="-3.83321">
        <ele>256.39999389648</ele>
        <time>2021-09-12T09:05:58Z</time>
      </trkpt>
      <trkpt lat="48.38744" lon="-3.83318">
        <ele>256.39999389648</ele>
        <time>2021-09-12T09:05:59Z</time>
      </trkpt>
      <trkpt lat="48.38748" lon="-3.83313">
        <ele>256.60000610352</ele>
        <time>2021-09-12T09:06:00Z</time>
      </trkpt>
      <trkpt lat="48.38752" lon="-3.8331">
        <ele>256.60000610352</ele>
        <time>2021-09-12T09:06:01Z</time>
      </trkpt>
      <trkpt lat="48.38757" lon="-3.83306">
        <ele>256.79998779297</ele>
        <time>2021-09-12T09:06:02Z</time>
      </trkpt>
      <trkpt lat="48.3876" lon="-3.83302">
        <ele>256.79998779297</ele>
        <time>2021-09-12T09:06:03Z</time>
      </trkpt>
      <trkpt lat="48.38764" lon="-3.83298">
        <ele>256.79998779297</ele>
        <time>2021-09-12T09:06:04Z</time>
      </trkpt>
      <trkpt lat="48.38768" lon="-3.83293">
        <ele>257</ele>
        <time>2021-09-12T09:06:05Z</time>
      </trkpt>
      <trkpt lat="48.38772" lon="-3.83288">
        <ele>257.20001220703</ele>
        <time>2021-09-12T09:06:06Z</time>
      </trkpt>
      <trkpt lat="48.38775" lon="-3.83284">
        <ele>257.20001220703</ele>
        <time>2021-09-12T09:06:07Z</time>
      </trkpt>
      <trkpt lat="48.38779" lon="-3.8328">
        <ele>257.20001220703</ele>
        <time>2021-09-12T09:06:08Z</time>
      </trkpt>
      <trkpt lat="48.38783" lon="-3.83275">
        <ele>257.20001220703</ele>
        <time>2021-09-12T09:06:09Z</time>
      </trkpt>
      <trkpt lat="48.38788" lon="-3.8327">
        <ele>257.20001220703</ele>
        <time>2021-09-12T09:06:10Z</time>
      </trkpt>
      <trkpt lat="48.38791" lon="-3.83267">
        <ele>257.39999389648</ele>
        <time>2021-09-12T09:06:11Z</time>
      </trkpt>
      <trkpt lat="48.38795" lon="-3.83264">
        <ele>257.39999389648</ele>
        <time>2021-09-12T09:06:12Z</time>
      </trkpt>
      <trkpt lat="48.38799" lon="-3.8326">
        <ele>257.39999389648</ele>
        <time>2021-09-12T09:06:13Z</time>
      </trkpt>
      <trkpt lat="48.38803" lon="-3.83256">
        <ele>257.39999389648</ele>
        <time>2021-09-12T09:06:14Z</time>
      </trkpt>
      <trkpt lat="48.38807" lon="-3.83253">
        <ele>257.39999389648</ele>
        <time>2021-09-12T09:06:15Z</time>
      </trkpt>
      <trkpt lat="48.38811" lon="-3.83249">
        <ele>257.39999389648</ele>
        <time>2021-09-12T09:06:16Z</time>
      </trkpt>
      <trkpt lat="48.38815" lon="-3.83246">
        <ele>257.60000610352</ele>
        <time>2021-09-12T09:06:17Z</time>
      </trkpt>
      <trkpt lat="48.38819" lon="-3.83244">
        <ele>257.79998779297</ele>
        <time>2021-09-12T09:06:18Z</time>
      </trkpt>
      <trkpt lat="48.38824" lon="-3.83241">
        <ele>257.79998779297</ele>
        <time>2021-09-12T09:06:19Z</time>
      </trkpt>
      <trkpt lat="48.38828" lon="-3.83239">
        <ele>257.79998779297</ele>
        <time>2021-09-12T09:06:20Z</time>
      </trkpt>
      <trkpt lat="48.38833" lon="-3.83236">
        <ele>258</ele>
        <time>2021-09-12T09:06:21Z</time>
      </trkpt>
      <trkpt lat="48.38836" lon="-3.83235">
        <ele>258</ele>
        <time>2021-09-12T09:06:22Z</time>
      </trkpt>
      <trkpt lat="48.3884" lon="-3.83233">
        <ele>258.20001220703</ele>
        <time>2021-09-12T09:06:23Z</time>
      </trkpt>
      <trkpt lat="48.38845" lon="-3.83229">
        <ele>258.20001220703</ele>
        <time>2021-09-12T09:06:24Z</time>
      </trkpt>
      <trkpt lat="48.38849" lon="-3.83226">
        <ele>258.39999389648</ele>
        <time>2021-09-12T09:06:25Z</time>
      </trkpt>
      <trkpt lat="48.38853" lon="-3.83222">
        <ele>258.39999389648</ele>
        <time>2021-09-12T09:06:26Z</time>
      </trkpt>
      <trkpt lat="48.38856" lon="-3.8322">
        <ele>258.60000610352</ele>
        <time>2021-09-12T09:06:27Z</time>
      </trkpt>
      <trkpt lat="48.3886" lon="-3.83216">
        <ele>258.79998779297</ele>
        <time>2021-09-12T09:06:28Z</time>
      </trkpt>
      <trkpt lat="48.38864" lon="-3.83211">
        <ele>258.79998779297</ele>
        <time>2021-09-12T09:06:29Z</time>
      </trkpt>
      <trkpt lat="48.38867" lon="-3.83206">
        <ele>259</ele>
        <time>2021-09-12T09:06:30Z</time>
      </trkpt>
      <trkpt lat="48.3887" lon="-3.83203">
        <ele>259</ele>
        <time>2021-09-12T09:06:31Z</time>
      </trkpt>
      <trkpt lat="48.38873" lon="-3.83198">
        <ele>259.20001220703</ele>
        <time>2021-09-12T09:06:32Z</time>
      </trkpt>
      <trkpt lat="48.38877" lon="-3.83193">
        <ele>259.39999389648</ele>
        <time>2021-09-12T09:06:33Z</time>
      </trkpt>
      <trkpt lat="48.3888" lon="-3.83189">
        <ele>259.79998779297</ele>
        <time>2021-09-12T09:06:34Z</time>
      </trkpt>
      <trkpt lat="48.38883" lon="-3.83184">
        <ele>259.79998779297</ele>
        <time>2021-09-12T09:06:35Z</time>
      </trkpt>
      <trkpt lat="48.38886" lon="-3.8318">
        <ele>259.79998779297</ele>
        <time>2021-09-12T09:06:36Z</time>
      </trkpt>
      <trkpt lat="48.38889" lon="-3.83176">
        <ele>260.20001220703</ele>
        <time>2021-09-12T09:06:37Z</time>
      </trkpt>
      <trkpt lat="48.38891" lon="-3.83173">
        <ele>260.60000610352</ele>
        <time>2021-09-12T09:06:38Z</time>
      </trkpt>
      <trkpt lat="48.38894" lon="-3.83169">
        <ele>260.60000610352</ele>
        <time>2021-09-12T09:06:39Z</time>
      </trkpt>
      <trkpt lat="48.38896" lon="-3.83166">
        <ele>260.79998779297</ele>
        <time>2021-09-12T09:06:40Z</time>
      </trkpt>
      <trkpt lat="48.38899" lon="-3.83163">
        <ele>261</ele>
        <time>2021-09-12T09:06:41Z</time>
      </trkpt>
      <trkpt lat="48.38901" lon="-3.8316">
        <ele>261.39999389648</ele>
        <time>2021-09-12T09:06:42Z</time>
      </trkpt>
      <trkpt lat="48.38904" lon="-3.83158">
        <ele>262</ele>
        <time>2021-09-12T09:06:43Z</time>
      </trkpt>
      <trkpt lat="48.38906" lon="-3.83156">
        <ele>262</ele>
        <time>2021-09-12T09:06:44Z</time>
      </trkpt>
      <trkpt lat="48.38909" lon="-3.83154">
        <ele>262.39999389648</ele>
        <time>2021-09-12T09:06:45Z</time>
      </trkpt>
      <trkpt lat="48.38912" lon="-3.83153">
        <ele>262.39999389648</ele>
        <time>2021-09-12T09:06:46Z</time>
      </trkpt>
      <trkpt lat="48.38916" lon="-3.83152">
        <ele>262.60000610352</ele>
        <time>2021-09-12T09:06:47Z</time>
      </trkpt>
      <trkpt lat="48.38921" lon="-3.83152">
        <ele>262.60000610352</ele>
        <time>2021-09-12T09:06:48Z</time>
      </trkpt>
      <trkpt lat="48.38925" lon="-3.83153">
        <ele>262.60000610352</ele>
        <time>2021-09-12T09:06:49Z</time>
      </trkpt>
      <trkpt lat="48.38929" lon="-3.83154">
        <ele>262.79998779297</ele>
        <time>2021-09-12T09:06:50Z</time>
      </trkpt>
      <trkpt lat="48.38934" lon="-3.83154">
        <ele>262.79998779297</ele>
        <time>2021-09-12T09:06:51Z</time>
      </trkpt>
      <trkpt lat="48.38938" lon="-3.83155">
        <ele>263</ele>
        <time>2021-09-12T09:06:52Z</time>
      </trkpt>
      <trkpt lat="48.38944" lon="-3.83155">
        <ele>263</ele>
        <time>2021-09-12T09:06:53Z</time>
      </trkpt>
      <trkpt lat="48.38948" lon="-3.83156">
        <ele>263</ele>
        <time>2021-09-12T09:06:54Z</time>
      </trkpt>
      <trkpt lat="48.38953" lon="-3.83157">
        <ele>263</ele>
        <time>2021-09-12T09:06:55Z</time>
      </trkpt>
      <trkpt lat="48.38957" lon="-3.83158">
        <ele>263</ele>
        <time>2021-09-12T09:06:56Z</time>
      </trkpt>
      <trkpt lat="48.38961" lon="-3.8316">
        <ele>263.20001220703</ele>
        <time>2021-09-12T09:06:57Z</time>
      </trkpt>
      <trkpt lat="48.38967" lon="-3.83162">
        <ele>263.20001220703</ele>
        <time>2021-09-12T09:06:58Z</time>
      </trkpt>
      <trkpt lat="48.38971" lon="-3.83165">
        <ele>263.20001220703</ele>
        <time>2021-09-12T09:06:59Z</time>
      </trkpt>
      <trkpt lat="48.38976" lon="-3.83168">
        <ele>263.20001220703</ele>
        <time>2021-09-12T09:07:00Z</time>
      </trkpt>
      <trkpt lat="48.3898" lon="-3.83171">
        <ele>263.39999389648</ele>
        <time>2021-09-12T09:07:01Z</time>
      </trkpt>
      <trkpt lat="48.38984" lon="-3.83173">
        <ele>263.60000610352</ele>
        <time>2021-09-12T09:07:02Z</time>
      </trkpt>
      <trkpt lat="48.38989" lon="-3.83176">
        <ele>263.60000610352</ele>
        <time>2021-09-12T09:07:03Z</time>
      </trkpt>
      <trkpt lat="48.38994" lon="-3.8318">
        <ele>263.79998779297</ele>
        <time>2021-09-12T09:07:04Z</time>
      </trkpt>
      <trkpt lat="48.38998" lon="-3.83183">
        <ele>263.79998779297</ele>
        <time>2021-09-12T09:07:05Z</time>
      </trkpt>
      <trkpt lat="48.39003" lon="-3.83186">
        <ele>263.79998779297</ele>
        <time>2021-09-12T09:07:06Z</time>
      </trkpt>
      <trkpt lat="48.39007" lon="-3.83188">
        <ele>264</ele>
        <time>2021-09-12T09:07:07Z</time>
      </trkpt>
      <trkpt lat="48.39013" lon="-3.83191">
        <ele>264.20001220703</ele>
        <time>2021-09-12T09:07:08Z</time>
      </trkpt>
      <trkpt lat="48.39017" lon="-3.83194">
        <ele>264.20001220703</ele>
        <time>2021-09-12T09:07:09Z</time>
      </trkpt>
      <trkpt lat="48.39022" lon="-3.83197">
        <ele>264.20001220703</ele>
        <time>2021-09-12T09:07:10Z</time>
      </trkpt>
      <trkpt lat="48.39025" lon="-3.832">
        <ele>264.20001220703</ele>
        <time>2021-09-12T09:07:11Z</time>
      </trkpt>
      <trkpt lat="48.3903" lon="-3.83203">
        <ele>264.20001220703</ele>
        <time>2021-09-12T09:07:12Z</time>
      </trkpt>
      <trkpt lat="48.39036" lon="-3.83205">
        <ele>264.39999389648</ele>
        <time>2021-09-12T09:07:13Z</time>
      </trkpt>
      <trkpt lat="48.39041" lon="-3.83207">
        <ele>264.39999389648</ele>
        <time>2021-09-12T09:07:14Z</time>
      </trkpt>
      <trkpt lat="48.39046" lon="-3.83209">
        <ele>264.39999389648</ele>
        <time>2021-09-12T09:07:15Z</time>
      </trkpt>
      <trkpt lat="48.3905" lon="-3.8321">
        <ele>264.39999389648</ele>
        <time>2021-09-12T09:07:16Z</time>
      </trkpt>
      <trkpt lat="48.39055" lon="-3.83211">
        <ele>264.60000610352</ele>
        <time>2021-09-12T09:07:17Z</time>
      </trkpt>
      <trkpt lat="48.3906" lon="-3.83211">
        <ele>264.79998779297</ele>
        <time>2021-09-12T09:07:18Z</time>
      </trkpt>
      <trkpt lat="48.39065" lon="-3.83211">
        <ele>264.79998779297</ele>
        <time>2021-09-12T09:07:19Z</time>
      </trkpt>
      <trkpt lat="48.3907" lon="-3.8321">
        <ele>264.79998779297</ele>
        <time>2021-09-12T09:07:20Z</time>
      </trkpt>
      <trkpt lat="48.39075" lon="-3.8321">
        <ele>265</ele>
        <time>2021-09-12T09:07:21Z</time>
      </trkpt>
      <trkpt lat="48.3908" lon="-3.8321">
        <ele>265.20001220703</ele>
        <time>2021-09-12T09:07:22Z</time>
      </trkpt>
      <trkpt lat="48.39086" lon="-3.83209">
        <ele>265.20001220703</ele>
        <time>2021-09-12T09:07:23Z</time>
      </trkpt>
      <trkpt lat="48.39091" lon="-3.83209">
        <ele>265.39999389648</ele>
        <time>2021-09-12T09:07:24Z</time>
      </trkpt>
      <trkpt lat="48.39096" lon="-3.83208">
        <ele>265.60000610352</ele>
        <time>2021-09-12T09:07:25Z</time>
      </trkpt>
      <trkpt lat="48.391" lon="-3.83208">
        <ele>265.60000610352</ele>
        <time>2021-09-12T09:07:26Z</time>
      </trkpt>
      <trkpt lat="48.39105" lon="-3.83207">
        <ele>265.79998779297</ele>
        <time>2021-09-12T09:07:27Z</time>
      </trkpt>
      <trkpt lat="48.39111" lon="-3.83207">
        <ele>265.79998779297</ele>
        <time>2021-09-12T09:07:28Z</time>
      </trkpt>
      <trkpt lat="48.39116" lon="-3.83207">
        <ele>266</ele>
        <time>2021-09-12T09:07:29Z</time>
      </trkpt>
      <trkpt lat="48.39121" lon="-3.83206">
        <ele>266</ele>
        <time>2021-09-12T09:07:30Z</time>
      </trkpt>
      <trkpt lat="48.39126" lon="-3.83205">
        <ele>266</ele>
        <time>2021-09-12T09:07:31Z</time>
      </trkpt>
      <trkpt lat="48.3913" lon="-3.83205">
        <ele>266.20001220703</ele>
        <time>2021-09-12T09:07:32Z</time>
      </trkpt>
      <trkpt lat="48.39136" lon="-3.83204">
        <ele>266.39999389648</ele>
        <time>2021-09-12T09:07:33Z</time>
      </trkpt>
      <trkpt lat="48.39142" lon="-3.83204">
        <ele>266.60000610352</ele>
        <time>2021-09-12T09:07:34Z</time>
      </trkpt>
      <trkpt lat="48.39147" lon="-3.83203">
        <ele>266.79998779297</ele>
        <time>2021-09-12T09:07:35Z</time>
      </trkpt>
      <trkpt lat="48.39152" lon="-3.83203">
        <ele>266.79998779297</ele>
        <time>2021-09-12T09:07:36Z</time>
      </trkpt>
      <trkpt lat="48.39157" lon="-3.83202">
        <ele>267</ele>
        <time>2021-09-12T09:07:37Z</time>
      </trkpt>
      <trkpt lat="48.39163" lon="-3.83202">
        <ele>267</ele>
        <time>2021-09-12T09:07:38Z</time>
      </trkpt>
      <trkpt lat="48.39168" lon="-3.83202">
        <ele>267.39999389648</ele>
        <time>2021-09-12T09:07:39Z</time>
      </trkpt>
      <trkpt lat="48.39172" lon="-3.83202">
        <ele>267.39999389648</ele>
        <time>2021-09-12T09:07:40Z</time>
      </trkpt>
      <trkpt lat="48.39177" lon="-3.83201">
        <ele>267.39999389648</ele>
        <time>2021-09-12T09:07:41Z</time>
      </trkpt>
      <trkpt lat="48.39184" lon="-3.832">
        <ele>267.60000610352</ele>
        <time>2021-09-12T09:07:42Z</time>
      </trkpt>
      <trkpt lat="48.3919" lon="-3.83199">
        <ele>267.60000610352</ele>
        <time>2021-09-12T09:07:43Z</time>
      </trkpt>
      <trkpt lat="48.39195" lon="-3.83199">
        <ele>267.60000610352</ele>
        <time>2021-09-12T09:07:44Z</time>
      </trkpt>
      <trkpt lat="48.392" lon="-3.83198">
        <ele>267.79998779297</ele>
        <time>2021-09-12T09:07:45Z</time>
      </trkpt>
      <trkpt lat="48.39205" lon="-3.83198">
        <ele>267.79998779297</ele>
        <time>2021-09-12T09:07:46Z</time>
      </trkpt>
      <trkpt lat="48.39211" lon="-3.83198">
        <ele>267.79998779297</ele>
        <time>2021-09-12T09:07:47Z</time>
      </trkpt>
      <trkpt lat="48.39217" lon="-3.83197">
        <ele>268</ele>
        <time>2021-09-12T09:07:48Z</time>
      </trkpt>
      <trkpt lat="48.39222" lon="-3.83197">
        <ele>268</ele>
        <time>2021-09-12T09:07:49Z</time>
      </trkpt>
      <trkpt lat="48.39226" lon="-3.83197">
        <ele>268</ele>
        <time>2021-09-12T09:07:50Z</time>
      </trkpt>
      <trkpt lat="48.39232" lon="-3.83197">
        <ele>268</ele>
        <time>2021-09-12T09:07:51Z</time>
      </trkpt>
      <trkpt lat="48.39238" lon="-3.83196">
        <ele>268</ele>
        <time>2021-09-12T09:07:52Z</time>
      </trkpt>
      <trkpt lat="48.39245" lon="-3.83196">
        <ele>268</ele>
        <time>2021-09-12T09:07:53Z</time>
      </trkpt>
      <trkpt lat="48.3925" lon="-3.83195">
        <ele>268</ele>
        <time>2021-09-12T09:07:54Z</time>
      </trkpt>
      <trkpt lat="48.39256" lon="-3.83194">
        <ele>268</ele>
        <time>2021-09-12T09:07:55Z</time>
      </trkpt>
      <trkpt lat="48.39262" lon="-3.83194">
        <ele>268</ele>
        <time>2021-09-12T09:07:56Z</time>
      </trkpt>
      <trkpt lat="48.39269" lon="-3.83193">
        <ele>268</ele>
        <time>2021-09-12T09:07:57Z</time>
      </trkpt>
      <trkpt lat="48.39276" lon="-3.83192">
        <ele>267.79998779297</ele>
        <time>2021-09-12T09:07:58Z</time>
      </trkpt>
      <trkpt lat="48.39282" lon="-3.83191">
        <ele>267.60000610352</ele>
        <time>2021-09-12T09:07:59Z</time>
      </trkpt>
      <trkpt lat="48.39288" lon="-3.83191">
        <ele>267.60000610352</ele>
        <time>2021-09-12T09:08:00Z</time>
      </trkpt>
      <trkpt lat="48.39295" lon="-3.8319">
        <ele>267.39999389648</ele>
        <time>2021-09-12T09:08:01Z</time>
      </trkpt>
      <trkpt lat="48.39303" lon="-3.8319">
        <ele>267.39999389648</ele>
        <time>2021-09-12T09:08:02Z</time>
      </trkpt>
      <trkpt lat="48.39312" lon="-3.83189">
        <ele>267</ele>
        <time>2021-09-12T09:08:03Z</time>
      </trkpt>
      <trkpt lat="48.39318" lon="-3.83188">
        <ele>267</ele>
        <time>2021-09-12T09:08:04Z</time>
      </trkpt>
      <trkpt lat="48.39325" lon="-3.83188">
        <ele>266.60000610352</ele>
        <time>2021-09-12T09:08:05Z</time>
      </trkpt>
      <trkpt lat="48.39333" lon="-3.83187">
        <ele>266.60000610352</ele>
        <time>2021-09-12T09:08:06Z</time>
      </trkpt>
      <trkpt lat="48.3934" lon="-3.83187">
        <ele>266.60000610352</ele>
        <time>2021-09-12T09:08:07Z</time>
      </trkpt>
      <trkpt lat="48.39349" lon="-3.83186">
        <ele>266.20001220703</ele>
        <time>2021-09-12T09:08:08Z</time>
      </trkpt>
      <trkpt lat="48.39354" lon="-3.83186">
        <ele>266.20001220703</ele>
        <time>2021-09-12T09:08:09Z</time>
      </trkpt>
      <trkpt lat="48.39361" lon="-3.83187">
        <ele>266</ele>
        <time>2021-09-12T09:08:10Z</time>
      </trkpt>
      <trkpt lat="48.39369" lon="-3.83188">
        <ele>266</ele>
        <time>2021-09-12T09:08:11Z</time>
      </trkpt>
      <trkpt lat="48.39376" lon="-3.83189">
        <ele>265.79998779297</ele>
        <time>2021-09-12T09:08:12Z</time>
      </trkpt>
      <trkpt lat="48.39383" lon="-3.83188">
        <ele>265.79998779297</ele>
        <time>2021-09-12T09:08:13Z</time>
      </trkpt>
      <trkpt lat="48.3939" lon="-3.83187">
        <ele>265.60000610352</ele>
        <time>2021-09-12T09:08:14Z</time>
      </trkpt>
      <trkpt lat="48.39397" lon="-3.83186">
        <ele>265.20001220703</ele>
        <time>2021-09-12T09:08:15Z</time>
      </trkpt>
      <trkpt lat="48.39406" lon="-3.83183">
        <ele>264.20001220703</ele>
        <time>2021-09-12T09:08:16Z</time>
      </trkpt>
      <trkpt lat="48.39413" lon="-3.83179">
        <ele>263.60000610352</ele>
        <time>2021-09-12T09:08:17Z</time>
      </trkpt>
      <trkpt lat="48.3942" lon="-3.83175">
        <ele>263</ele>
        <time>2021-09-12T09:08:18Z</time>
      </trkpt>
      <trkpt lat="48.39426" lon="-3.83173">
        <ele>262.20001220703</ele>
        <time>2021-09-12T09:08:19Z</time>
      </trkpt>
      <trkpt lat="48.39432" lon="-3.83171">
        <ele>262.20001220703</ele>
        <time>2021-09-12T09:08:20Z</time>
      </trkpt>
      <trkpt lat="48.3944" lon="-3.83167">
        <ele>262</ele>
        <time>2021-09-12T09:08:21Z</time>
      </trkpt>
      <trkpt lat="48.39447" lon="-3.83163">
        <ele>262</ele>
        <time>2021-09-12T09:08:22Z</time>
      </trkpt>
      <trkpt lat="48.39453" lon="-3.83158">
        <ele>261.39999389648</ele>
        <time>2021-09-12T09:08:23Z</time>
      </trkpt>
      <trkpt lat="48.39458" lon="-3.83155">
        <ele>260.60000610352</ele>
        <time>2021-09-12T09:08:24Z</time>
      </trkpt>
      <trkpt lat="48.39463" lon="-3.8315">
        <ele>260.60000610352</ele>
        <time>2021-09-12T09:08:25Z</time>
      </trkpt>
      <trkpt lat="48.39471" lon="-3.83145">
        <ele>260.60000610352</ele>
        <time>2021-09-12T09:08:26Z</time>
      </trkpt>
      <trkpt lat="48.39477" lon="-3.83141">
        <ele>259.79998779297</ele>
        <time>2021-09-12T09:08:27Z</time>
      </trkpt>
      <trkpt lat="48.39483" lon="-3.83136">
        <ele>259.39999389648</ele>
        <time>2021-09-12T09:08:28Z</time>
      </trkpt>
      <trkpt lat="48.39488" lon="-3.83132">
        <ele>258.20001220703</ele>
        <time>2021-09-12T09:08:29Z</time>
      </trkpt>
      <trkpt lat="48.39494" lon="-3.83128">
        <ele>258</ele>
        <time>2021-09-12T09:08:30Z</time>
      </trkpt>
      <trkpt lat="48.39502" lon="-3.83123">
        <ele>257</ele>
        <time>2021-09-12T09:08:31Z</time>
      </trkpt>
      <trkpt lat="48.39508" lon="-3.8312">
        <ele>256.20001220703</ele>
        <time>2021-09-12T09:08:32Z</time>
      </trkpt>
      <trkpt lat="48.39515" lon="-3.83118">
        <ele>256.20001220703</ele>
        <time>2021-09-12T09:08:33Z</time>
      </trkpt>
      <trkpt lat="48.39522" lon="-3.83115">
        <ele>256.20001220703</ele>
        <time>2021-09-12T09:08:34Z</time>
      </trkpt>
      <trkpt lat="48.39527" lon="-3.83114">
        <ele>254.80000305176</ele>
        <time>2021-09-12T09:08:35Z</time>
      </trkpt>
      <trkpt lat="48.39531" lon="-3.83112">
        <ele>254.39999389648</ele>
        <time>2021-09-12T09:08:36Z</time>
      </trkpt>
      <trkpt lat="48.39534" lon="-3.83112">
        <ele>254.19999694824</ele>
        <time>2021-09-12T09:08:37Z</time>
      </trkpt>
      <trkpt lat="48.39539" lon="-3.8311">
        <ele>253</ele>
        <time>2021-09-12T09:08:38Z</time>
      </trkpt>
      <trkpt lat="48.39543" lon="-3.83109">
        <ele>252.60000610352</ele>
        <time>2021-09-12T09:08:39Z</time>
      </trkpt>
      <trkpt lat="48.39547" lon="-3.83107">
        <ele>252.60000610352</ele>
        <time>2021-09-12T09:08:40Z</time>
      </trkpt>
      <trkpt lat="48.39552" lon="-3.83106">
        <ele>252.60000610352</ele>
        <time>2021-09-12T09:08:41Z</time>
      </trkpt>
      <trkpt lat="48.39556" lon="-3.83105">
        <ele>252.19999694824</ele>
        <time>2021-09-12T09:08:42Z</time>
      </trkpt>
      <trkpt lat="48.39559" lon="-3.83105">
        <ele>252.19999694824</ele>
        <time>2021-09-12T09:08:43Z</time>
      </trkpt>
      <trkpt lat="48.39564" lon="-3.83105">
        <ele>252.19999694824</ele>
        <time>2021-09-12T09:08:44Z</time>
      </trkpt>
      <trkpt lat="48.39569" lon="-3.83105">
        <ele>251.39999389648</ele>
        <time>2021-09-12T09:08:45Z</time>
      </trkpt>
      <trkpt lat="48.39576" lon="-3.83106">
        <ele>250.80000305176</ele>
        <time>2021-09-12T09:08:46Z</time>
      </trkpt>
      <trkpt lat="48.39583" lon="-3.83107">
        <ele>250.60000610352</ele>
        <time>2021-09-12T09:08:47Z</time>
      </trkpt>
      <trkpt lat="48.39589" lon="-3.83108">
        <ele>249.80000305176</ele>
        <time>2021-09-12T09:08:48Z</time>
      </trkpt>
      <trkpt lat="48.39596" lon="-3.83109">
        <ele>249.60000610352</ele>
        <time>2021-09-12T09:08:49Z</time>
      </trkpt>
      <trkpt lat="48.39604" lon="-3.83106">
        <ele>249.39999389648</ele>
        <time>2021-09-12T09:08:50Z</time>
      </trkpt>
      <trkpt lat="48.39611" lon="-3.83105">
        <ele>249.39999389648</ele>
        <time>2021-09-12T09:08:51Z</time>
      </trkpt>
      <trkpt lat="48.39617" lon="-3.83105">
        <ele>249</ele>
        <time>2021-09-12T09:08:52Z</time>
      </trkpt>
      <trkpt lat="48.39621" lon="-3.83106">
        <ele>249</ele>
        <time>2021-09-12T09:08:53Z</time>
      </trkpt>
      <trkpt lat="48.39627" lon="-3.83107">
        <ele>248.80000305176</ele>
        <time>2021-09-12T09:08:54Z</time>
      </trkpt>
      <trkpt lat="48.39631" lon="-3.83108">
        <ele>248.80000305176</ele>
        <time>2021-09-12T09:08:55Z</time>
      </trkpt>
      <trkpt lat="48.39634" lon="-3.83109">
        <ele>248.60000610352</ele>
        <time>2021-09-12T09:08:56Z</time>
      </trkpt>
      <trkpt lat="48.39637" lon="-3.83109">
        <ele>248.39999389648</ele>
        <time>2021-09-12T09:08:57Z</time>
      </trkpt>
      <trkpt lat="48.39639" lon="-3.83109">
        <ele>248.19999694824</ele>
        <time>2021-09-12T09:08:58Z</time>
      </trkpt>
      <trkpt lat="48.39641" lon="-3.8311">
        <ele>248.19999694824</ele>
        <time>2021-09-12T09:08:59Z</time>
      </trkpt>
      <trkpt lat="48.39642" lon="-3.8311">
        <ele>248.19999694824</ele>
        <time>2021-09-12T09:09:00Z</time>
      </trkpt>
      <trkpt lat="48.39644" lon="-3.83109">
        <ele>248.19999694824</ele>
        <time>2021-09-12T09:09:01Z</time>
      </trkpt>
      <trkpt lat="48.39646" lon="-3.83109">
        <ele>248</ele>
        <time>2021-09-12T09:09:02Z</time>
      </trkpt>
      <trkpt lat="48.39648" lon="-3.83108">
        <ele>248</ele>
        <time>2021-09-12T09:09:03Z</time>
      </trkpt>
      <trkpt lat="48.39651" lon="-3.83108">
        <ele>247.80000305176</ele>
        <time>2021-09-12T09:09:04Z</time>
      </trkpt>
      <trkpt lat="48.39653" lon="-3.83107">
        <ele>247.80000305176</ele>
        <time>2021-09-12T09:09:05Z</time>
      </trkpt>
      <trkpt lat="48.39654" lon="-3.83106">
        <ele>247.80000305176</ele>
        <time>2021-09-12T09:09:06Z</time>
      </trkpt>
      <trkpt lat="48.39657" lon="-3.83106">
        <ele>247.60000610352</ele>
        <time>2021-09-12T09:09:07Z</time>
      </trkpt>
      <trkpt lat="48.39659" lon="-3.83104">
        <ele>247.39999389648</ele>
        <time>2021-09-12T09:09:08Z</time>
      </trkpt>
      <trkpt lat="48.39661" lon="-3.83103">
        <ele>247.39999389648</ele>
        <time>2021-09-12T09:09:09Z</time>
      </trkpt>
      <trkpt lat="48.39663" lon="-3.83102">
        <ele>247.39999389648</ele>
        <time>2021-09-12T09:09:10Z</time>
      </trkpt>
      <trkpt lat="48.39666" lon="-3.83102">
        <ele>247.39999389648</ele>
        <time>2021-09-12T09:09:11Z</time>
      </trkpt>
      <trkpt lat="48.3967" lon="-3.83102">
        <ele>247.39999389648</ele>
        <time>2021-09-12T09:09:12Z</time>
      </trkpt>
      <trkpt lat="48.39672" lon="-3.83102">
        <ele>247.19999694824</ele>
        <time>2021-09-12T09:09:13Z</time>
      </trkpt>
      <trkpt lat="48.39675" lon="-3.831">
        <ele>246.60000610352</ele>
        <time>2021-09-12T09:09:14Z</time>
      </trkpt>
      <trkpt lat="48.39679" lon="-3.83098">
        <ele>246.39999389648</ele>
        <time>2021-09-12T09:09:15Z</time>
      </trkpt>
      <trkpt lat="48.39683" lon="-3.83096">
        <ele>246.39999389648</ele>
        <time>2021-09-12T09:09:16Z</time>
      </trkpt>
      <trkpt lat="48.39687" lon="-3.83095">
        <ele>246.19999694824</ele>
        <time>2021-09-12T09:09:17Z</time>
      </trkpt>
      <trkpt lat="48.39691" lon="-3.83095">
        <ele>246</ele>
        <time>2021-09-12T09:09:18Z</time>
      </trkpt>
      <trkpt lat="48.39695" lon="-3.83094">
        <ele>245.80000305176</ele>
        <time>2021-09-12T09:09:19Z</time>
      </trkpt>
      <trkpt lat="48.39699" lon="-3.83093">
        <ele>245.60000610352</ele>
        <time>2021-09-12T09:09:20Z</time>
      </trkpt>
      <trkpt lat="48.39704" lon="-3.83092">
        <ele>245</ele>
        <time>2021-09-12T09:09:21Z</time>
      </trkpt>
      <trkpt lat="48.39708" lon="-3.83091">
        <ele>244.80000305176</ele>
        <time>2021-09-12T09:09:22Z</time>
      </trkpt>
      <trkpt lat="48.39712" lon="-3.83089">
        <ele>244.39999389648</ele>
        <time>2021-09-12T09:09:23Z</time>
      </trkpt>
      <trkpt lat="48.39717" lon="-3.8309">
        <ele>243.60000610352</ele>
        <time>2021-09-12T09:09:24Z</time>
      </trkpt>
      <trkpt lat="48.39722" lon="-3.83091">
        <ele>243.39999389648</ele>
        <time>2021-09-12T09:09:25Z</time>
      </trkpt>
      <trkpt lat="48.39725" lon="-3.83094">
        <ele>243.39999389648</ele>
        <time>2021-09-12T09:09:26Z</time>
      </trkpt>
      <trkpt lat="48.3973" lon="-3.83097">
        <ele>243</ele>
        <time>2021-09-12T09:09:27Z</time>
      </trkpt>
      <trkpt lat="48.39735" lon="-3.83101">
        <ele>242.39999389648</ele>
        <time>2021-09-12T09:09:28Z</time>
      </trkpt>
      <trkpt lat="48.39743" lon="-3.83105">
        <ele>242.19999694824</ele>
        <time>2021-09-12T09:09:29Z</time>
      </trkpt>
      <trkpt lat="48.39749" lon="-3.83107">
        <ele>241.80000305176</ele>
        <time>2021-09-12T09:09:30Z</time>
      </trkpt>
      <trkpt lat="48.39755" lon="-3.83109">
        <ele>241.60000610352</ele>
        <time>2021-09-12T09:09:31Z</time>
      </trkpt>
      <trkpt lat="48.39758" lon="-3.83109">
        <ele>241.39999389648</ele>
        <time>2021-09-12T09:09:32Z</time>
      </trkpt>
      <trkpt lat="48.39761" lon="-3.83111">
        <ele>241.39999389648</ele>
        <time>2021-09-12T09:09:33Z</time>
      </trkpt>
      <trkpt lat="48.39765" lon="-3.83112">
        <ele>241</ele>
        <time>2021-09-12T09:09:34Z</time>
      </trkpt>
      <trkpt lat="48.39769" lon="-3.83115">
        <ele>241</ele>
        <time>2021-09-12T09:09:35Z</time>
      </trkpt>
      <trkpt lat="48.39774" lon="-3.83115">
        <ele>240.80000305176</ele>
        <time>2021-09-12T09:09:36Z</time>
      </trkpt>
      <trkpt lat="48.39779" lon="-3.83115">
        <ele>240.60000610352</ele>
        <time>2021-09-12T09:09:37Z</time>
      </trkpt>
      <trkpt lat="48.39783" lon="-3.83114">
        <ele>240.39999389648</ele>
        <time>2021-09-12T09:09:38Z</time>
      </trkpt>
      <trkpt lat="48.39786" lon="-3.83113">
        <ele>240</ele>
        <time>2021-09-12T09:09:39Z</time>
      </trkpt>
      <trkpt lat="48.3979" lon="-3.83113">
        <ele>240</ele>
        <time>2021-09-12T09:09:40Z</time>
      </trkpt>
      <trkpt lat="48.39796" lon="-3.83111">
        <ele>239.80000305176</ele>
        <time>2021-09-12T09:09:41Z</time>
      </trkpt>
      <trkpt lat="48.398" lon="-3.83109">
        <ele>239.80000305176</ele>
        <time>2021-09-12T09:09:42Z</time>
      </trkpt>
      <trkpt lat="48.39805" lon="-3.83107">
        <ele>239.80000305176</ele>
        <time>2021-09-12T09:09:43Z</time>
      </trkpt>
      <trkpt lat="48.39809" lon="-3.83106">
        <ele>239.60000610352</ele>
        <time>2021-09-12T09:09:44Z</time>
      </trkpt>
      <trkpt lat="48.39814" lon="-3.83104">
        <ele>239.60000610352</ele>
        <time>2021-09-12T09:09:45Z</time>
      </trkpt>
      <trkpt lat="48.39819" lon="-3.83097">
        <ele>239.39999389648</ele>
        <time>2021-09-12T09:09:46Z</time>
      </trkpt>
      <trkpt lat="48.39823" lon="-3.83091">
        <ele>239.39999389648</ele>
        <time>2021-09-12T09:09:47Z</time>
      </trkpt>
      <trkpt lat="48.39828" lon="-3.83086">
        <ele>239.39999389648</ele>
        <time>2021-09-12T09:09:48Z</time>
      </trkpt>
      <trkpt lat="48.39832" lon="-3.83081">
        <ele>239.39999389648</ele>
        <time>2021-09-12T09:09:49Z</time>
      </trkpt>
      <trkpt lat="48.39836" lon="-3.83075">
        <ele>239.39999389648</ele>
        <time>2021-09-12T09:09:50Z</time>
      </trkpt>
      <trkpt lat="48.3984" lon="-3.8307">
        <ele>239.19999694824</ele>
        <time>2021-09-12T09:09:51Z</time>
      </trkpt>
      <trkpt lat="48.39844" lon="-3.83064">
        <ele>239</ele>
        <time>2021-09-12T09:09:52Z</time>
      </trkpt>
      <trkpt lat="48.39848" lon="-3.83059">
        <ele>238.80000305176</ele>
        <time>2021-09-12T09:09:53Z</time>
      </trkpt>
      <trkpt lat="48.39852" lon="-3.83054">
        <ele>238.80000305176</ele>
        <time>2021-09-12T09:09:54Z</time>
      </trkpt>
      <trkpt lat="48.39856" lon="-3.8305">
        <ele>238.60000610352</ele>
        <time>2021-09-12T09:09:55Z</time>
      </trkpt>
      <trkpt lat="48.3986" lon="-3.83044">
        <ele>238.60000610352</ele>
        <time>2021-09-12T09:09:56Z</time>
      </trkpt>
      <trkpt lat="48.39862" lon="-3.83038">
        <ele>238.60000610352</ele>
        <time>2021-09-12T09:09:57Z</time>
      </trkpt>
      <trkpt lat="48.39866" lon="-3.8303">
        <ele>238.39999389648</ele>
        <time>2021-09-12T09:09:58Z</time>
      </trkpt>
      <trkpt lat="48.3987" lon="-3.83022">
        <ele>238.39999389648</ele>
        <time>2021-09-12T09:09:59Z</time>
      </trkpt>
      <trkpt lat="48.39873" lon="-3.83017">
        <ele>238.39999389648</ele>
        <time>2021-09-12T09:10:00Z</time>
      </trkpt>
      <trkpt lat="48.39876" lon="-3.83013">
        <ele>238.19999694824</ele>
        <time>2021-09-12T09:10:01Z</time>
      </trkpt>
      <trkpt lat="48.39879" lon="-3.83009">
        <ele>238</ele>
        <time>2021-09-12T09:10:02Z</time>
      </trkpt>
      <trkpt lat="48.39882" lon="-3.83005">
        <ele>238</ele>
        <time>2021-09-12T09:10:03Z</time>
      </trkpt>
      <trkpt lat="48.39886" lon="-3.83002">
        <ele>238</ele>
        <time>2021-09-12T09:10:04Z</time>
      </trkpt>
      <trkpt lat="48.39889" lon="-3.82999">
        <ele>237.60000610352</ele>
        <time>2021-09-12T09:10:05Z</time>
      </trkpt>
      <trkpt lat="48.39893" lon="-3.82996">
        <ele>237.19999694824</ele>
        <time>2021-09-12T09:10:06Z</time>
      </trkpt>
      <trkpt lat="48.39897" lon="-3.82993">
        <ele>236.80000305176</ele>
        <time>2021-09-12T09:10:07Z</time>
      </trkpt>
      <trkpt lat="48.399" lon="-3.8299">
        <ele>236.60000610352</ele>
        <time>2021-09-12T09:10:08Z</time>
      </trkpt>
      <trkpt lat="48.39904" lon="-3.82985">
        <ele>236</ele>
        <time>2021-09-12T09:10:09Z</time>
      </trkpt>
      <trkpt lat="48.39908" lon="-3.82982">
        <ele>235.39999389648</ele>
        <time>2021-09-12T09:10:10Z</time>
      </trkpt>
      <trkpt lat="48.39914" lon="-3.82979">
        <ele>234.39999389648</ele>
        <time>2021-09-12T09:10:11Z</time>
      </trkpt>
      <trkpt lat="48.39921" lon="-3.82976">
        <ele>234</ele>
        <time>2021-09-12T09:10:12Z</time>
      </trkpt>
      <trkpt lat="48.39927" lon="-3.82974">
        <ele>233.60000610352</ele>
        <time>2021-09-12T09:10:13Z</time>
      </trkpt>
      <trkpt lat="48.39932" lon="-3.82971">
        <ele>232.60000610352</ele>
        <time>2021-09-12T09:10:14Z</time>
      </trkpt>
      <trkpt lat="48.39937" lon="-3.82968">
        <ele>232.60000610352</ele>
        <time>2021-09-12T09:10:15Z</time>
      </trkpt>
      <trkpt lat="48.39942" lon="-3.82965">
        <ele>232.60000610352</ele>
        <time>2021-09-12T09:10:16Z</time>
      </trkpt>
      <trkpt lat="48.39949" lon="-3.82961">
        <ele>232.19999694824</ele>
        <time>2021-09-12T09:10:17Z</time>
      </trkpt>
      <trkpt lat="48.39955" lon="-3.8296">
        <ele>232</ele>
        <time>2021-09-12T09:10:18Z</time>
      </trkpt>
      <trkpt lat="48.39961" lon="-3.82959">
        <ele>232</ele>
        <time>2021-09-12T09:10:19Z</time>
      </trkpt>
      <trkpt lat="48.39968" lon="-3.82958">
        <ele>231.19999694824</ele>
        <time>2021-09-12T09:10:20Z</time>
      </trkpt>
      <trkpt lat="48.39975" lon="-3.82957">
        <ele>231</ele>
        <time>2021-09-12T09:10:21Z</time>
      </trkpt>
      <trkpt lat="48.39983" lon="-3.82959">
        <ele>230.19999694824</ele>
        <time>2021-09-12T09:10:22Z</time>
      </trkpt>
      <trkpt lat="48.3999" lon="-3.8296">
        <ele>230</ele>
        <time>2021-09-12T09:10:23Z</time>
      </trkpt>
      <trkpt lat="48.39996" lon="-3.82961">
        <ele>229.80000305176</ele>
        <time>2021-09-12T09:10:24Z</time>
      </trkpt>
      <trkpt lat="48.40002" lon="-3.82961">
        <ele>229.80000305176</ele>
        <time>2021-09-12T09:10:25Z</time>
      </trkpt>
      <trkpt lat="48.4001" lon="-3.82961">
        <ele>229.80000305176</ele>
        <time>2021-09-12T09:10:26Z</time>
      </trkpt>
      <trkpt lat="48.40015" lon="-3.82961">
        <ele>229.39999389648</ele>
        <time>2021-09-12T09:10:27Z</time>
      </trkpt>
      <trkpt lat="48.40019" lon="-3.82961">
        <ele>229.19999694824</ele>
        <time>2021-09-12T09:10:28Z</time>
      </trkpt>
      <trkpt lat="48.40023" lon="-3.82962">
        <ele>229</ele>
        <time>2021-09-12T09:10:29Z</time>
      </trkpt>
      <trkpt lat="48.40029" lon="-3.82963">
        <ele>229</ele>
        <time>2021-09-12T09:10:30Z</time>
      </trkpt>
      <trkpt lat="48.40035" lon="-3.82966">
        <ele>229</ele>
        <time>2021-09-12T09:10:31Z</time>
      </trkpt>
      <trkpt lat="48.40041" lon="-3.82969">
        <ele>228.60000610352</ele>
        <time>2021-09-12T09:10:32Z</time>
      </trkpt>
      <trkpt lat="48.40047" lon="-3.82972">
        <ele>228.19999694824</ele>
        <time>2021-09-12T09:10:33Z</time>
      </trkpt>
      <trkpt lat="48.40053" lon="-3.82975">
        <ele>228.19999694824</ele>
        <time>2021-09-12T09:10:34Z</time>
      </trkpt>
      <trkpt lat="48.4006" lon="-3.82978">
        <ele>228</ele>
        <time>2021-09-12T09:10:35Z</time>
      </trkpt>
      <trkpt lat="48.40067" lon="-3.82981">
        <ele>227.39999389648</ele>
        <time>2021-09-12T09:10:36Z</time>
      </trkpt>
      <trkpt lat="48.40073" lon="-3.82982">
        <ele>227</ele>
        <time>2021-09-12T09:10:37Z</time>
      </trkpt>
      <trkpt lat="48.40078" lon="-3.82983">
        <ele>226.60000610352</ele>
        <time>2021-09-12T09:10:38Z</time>
      </trkpt>
      <trkpt lat="48.40082" lon="-3.82984">
        <ele>226</ele>
        <time>2021-09-12T09:10:39Z</time>
      </trkpt>
      <trkpt lat="48.40088" lon="-3.82986">
        <ele>225.80000305176</ele>
        <time>2021-09-12T09:10:40Z</time>
      </trkpt>
      <trkpt lat="48.40092" lon="-3.82987">
        <ele>225.80000305176</ele>
        <time>2021-09-12T09:10:41Z</time>
      </trkpt>
      <trkpt lat="48.40096" lon="-3.82988">
        <ele>225.60000610352</ele>
        <time>2021-09-12T09:10:42Z</time>
      </trkpt>
      <trkpt lat="48.40099" lon="-3.82988">
        <ele>225.60000610352</ele>
        <time>2021-09-12T09:10:43Z</time>
      </trkpt>
      <trkpt lat="48.40102" lon="-3.82989">
        <ele>225.39999389648</ele>
        <time>2021-09-12T09:10:44Z</time>
      </trkpt>
      <trkpt lat="48.40104" lon="-3.82989">
        <ele>225.39999389648</ele>
        <time>2021-09-12T09:10:45Z</time>
      </trkpt>
      <trkpt lat="48.40106" lon="-3.82989">
        <ele>225.39999389648</ele>
        <time>2021-09-12T09:10:46Z</time>
      </trkpt>
      <trkpt lat="48.40108" lon="-3.8299">
        <ele>225.39999389648</ele>
        <time>2021-09-12T09:10:47Z</time>
      </trkpt>
      <trkpt lat="48.4011" lon="-3.82991">
        <ele>225.39999389648</ele>
        <time>2021-09-12T09:10:48Z</time>
      </trkpt>
      <trkpt lat="48.40112" lon="-3.82992">
        <ele>225.39999389648</ele>
        <time>2021-09-12T09:10:49Z</time>
      </trkpt>
      <trkpt lat="48.40113" lon="-3.82992">
        <ele>225.39999389648</ele>
        <time>2021-09-12T09:10:50Z</time>
      </trkpt>
      <trkpt lat="48.40114" lon="-3.82992">
        <ele>225.39999389648</ele>
        <time>2021-09-12T09:10:51Z</time>
      </trkpt>
      <trkpt lat="48.40115" lon="-3.82992">
        <ele>225.39999389648</ele>
        <time>2021-09-12T09:10:52Z</time>
      </trkpt>
      <trkpt lat="48.40117" lon="-3.82992">
        <ele>225.19999694824</ele>
        <time>2021-09-12T09:10:53Z</time>
      </trkpt>
      <trkpt lat="48.40118" lon="-3.82991">
        <ele>225.19999694824</ele>
        <time>2021-09-12T09:10:54Z</time>
      </trkpt>
      <trkpt lat="48.4012" lon="-3.8299">
        <ele>225.19999694824</ele>
        <time>2021-09-12T09:10:55Z</time>
      </trkpt>
      <trkpt lat="48.40121" lon="-3.82991">
        <ele>225.19999694824</ele>
        <time>2021-09-12T09:10:56Z</time>
      </trkpt>
      <trkpt lat="48.40123" lon="-3.82991">
        <ele>225.19999694824</ele>
        <time>2021-09-12T09:10:57Z</time>
      </trkpt>
      <trkpt lat="48.40125" lon="-3.8299">
        <ele>225.19999694824</ele>
        <time>2021-09-12T09:10:58Z</time>
      </trkpt>
      <trkpt lat="48.40125" lon="-3.8299">
        <ele>225.19999694824</ele>
        <time>2021-09-12T09:10:59Z</time>
      </trkpt>
      <trkpt lat="48.40125" lon="-3.8299">
        <ele>225.19999694824</ele>
        <time>2021-09-12T09:11:00Z</time>
      </trkpt>
      <trkpt lat="48.40125" lon="-3.8299">
        <ele>225.19999694824</ele>
        <time>2021-09-12T09:11:01Z</time>
      </trkpt>
      <trkpt lat="48.40126" lon="-3.8299">
        <ele>225.19999694824</ele>
        <time>2021-09-12T09:11:02Z</time>
      </trkpt>
      <trkpt lat="48.40127" lon="-3.82991">
        <ele>225.19999694824</ele>
        <time>2021-09-12T09:11:03Z</time>
      </trkpt>
      <trkpt lat="48.40129" lon="-3.82992">
        <ele>225.19999694824</ele>
        <time>2021-09-12T09:11:04Z</time>
      </trkpt>
      <trkpt lat="48.40129" lon="-3.82992">
        <ele>225.19999694824</ele>
        <time>2021-09-12T09:11:05Z</time>
      </trkpt>
      <trkpt lat="48.40129" lon="-3.82992">
        <ele>225.19999694824</ele>
        <time>2021-09-12T09:11:06Z</time>
      </trkpt>
      <trkpt lat="48.40131" lon="-3.82991">
        <ele>225.39999389648</ele>
        <time>2021-09-12T09:11:07Z</time>
      </trkpt>
      <trkpt lat="48.40131" lon="-3.82991">
        <ele>225.39999389648</ele>
        <time>2021-09-12T09:11:08Z</time>
      </trkpt>
      <trkpt lat="48.40132" lon="-3.82991">
        <ele>225.39999389648</ele>
        <time>2021-09-12T09:11:09Z</time>
      </trkpt>
      <trkpt lat="48.40133" lon="-3.82991">
        <ele>225.39999389648</ele>
        <time>2021-09-12T09:11:10Z</time>
      </trkpt>
      <trkpt lat="48.40134" lon="-3.82992">
        <ele>225.39999389648</ele>
        <time>2021-09-12T09:11:11Z</time>
      </trkpt>
      <trkpt lat="48.40136" lon="-3.82993">
        <ele>225.19999694824</ele>
        <time>2021-09-12T09:11:12Z</time>
      </trkpt>
      <trkpt lat="48.40138" lon="-3.82993">
        <ele>225</ele>
        <time>2021-09-12T09:11:13Z</time>
      </trkpt>
      <trkpt lat="48.4014" lon="-3.82993">
        <ele>225</ele>
        <time>2021-09-12T09:11:14Z</time>
      </trkpt>
      <trkpt lat="48.40142" lon="-3.82993">
        <ele>225</ele>
        <time>2021-09-12T09:11:15Z</time>
      </trkpt>
      <trkpt lat="48.40145" lon="-3.82989">
        <ele>225</ele>
        <time>2021-09-12T09:11:16Z</time>
      </trkpt>
      <trkpt lat="48.40147" lon="-3.82988">
        <ele>225</ele>
        <time>2021-09-12T09:11:17Z</time>
      </trkpt>
      <trkpt lat="48.40149" lon="-3.82987">
        <ele>225</ele>
        <time>2021-09-12T09:11:18Z</time>
      </trkpt>
      <trkpt lat="48.4015" lon="-3.82986">
        <ele>225.19999694824</ele>
        <time>2021-09-12T09:11:19Z</time>
      </trkpt>
      <trkpt lat="48.40152" lon="-3.82984">
        <ele>225.19999694824</ele>
        <time>2021-09-12T09:11:20Z</time>
      </trkpt>
      <trkpt lat="48.40154" lon="-3.82984">
        <ele>225.19999694824</ele>
        <time>2021-09-12T09:11:21Z</time>
      </trkpt>
      <trkpt lat="48.40155" lon="-3.82984">
        <ele>225.19999694824</ele>
        <time>2021-09-12T09:11:22Z</time>
      </trkpt>
      <trkpt lat="48.40158" lon="-3.82984">
        <ele>225.39999389648</ele>
        <time>2021-09-12T09:11:23Z</time>
      </trkpt>
      <trkpt lat="48.4016" lon="-3.82982">
        <ele>225.39999389648</ele>
        <time>2021-09-12T09:11:24Z</time>
      </trkpt>
      <trkpt lat="48.40164" lon="-3.82978">
        <ele>225.60000610352</ele>
        <time>2021-09-12T09:11:25Z</time>
      </trkpt>
      <trkpt lat="48.40167" lon="-3.82976">
        <ele>225.60000610352</ele>
        <time>2021-09-12T09:11:26Z</time>
      </trkpt>
      <trkpt lat="48.4017" lon="-3.82974">
        <ele>225.60000610352</ele>
        <time>2021-09-12T09:11:27Z</time>
      </trkpt>
      <trkpt lat="48.40173" lon="-3.82975">
        <ele>225.60000610352</ele>
        <time>2021-09-12T09:11:28Z</time>
      </trkpt>
      <trkpt lat="48.40176" lon="-3.82976">
        <ele>225.60000610352</ele>
        <time>2021-09-12T09:11:29Z</time>
      </trkpt>
      <trkpt lat="48.40179" lon="-3.82978">
        <ele>225.80000305176</ele>
        <time>2021-09-12T09:11:30Z</time>
      </trkpt>
      <trkpt lat="48.40182" lon="-3.82979">
        <ele>226</ele>
        <time>2021-09-12T09:11:31Z</time>
      </trkpt>
      <trkpt lat="48.40185" lon="-3.82981">
        <ele>226</ele>
        <time>2021-09-12T09:11:32Z</time>
      </trkpt>
      <trkpt lat="48.40187" lon="-3.82983">
        <ele>226.19999694824</ele>
        <time>2021-09-12T09:11:33Z</time>
      </trkpt>
      <trkpt lat="48.4019" lon="-3.82986">
        <ele>226.39999389648</ele>
        <time>2021-09-12T09:11:34Z</time>
      </trkpt>
      <trkpt lat="48.40193" lon="-3.82991">
        <ele>226.39999389648</ele>
        <time>2021-09-12T09:11:35Z</time>
      </trkpt>
      <trkpt lat="48.40196" lon="-3.82995">
        <ele>226.39999389648</ele>
        <time>2021-09-12T09:11:36Z</time>
      </trkpt>
      <trkpt lat="48.40198" lon="-3.82999">
        <ele>226.60000610352</ele>
        <time>2021-09-12T09:11:37Z</time>
      </trkpt>
      <trkpt lat="48.40201" lon="-3.83002">
        <ele>226.60000610352</ele>
        <time>2021-09-12T09:11:38Z</time>
      </trkpt>
      <trkpt lat="48.40203" lon="-3.83006">
        <ele>226.60000610352</ele>
        <time>2021-09-12T09:11:39Z</time>
      </trkpt>
      <trkpt lat="48.40205" lon="-3.83008">
        <ele>226.60000610352</ele>
        <time>2021-09-12T09:11:40Z</time>
      </trkpt>
      <trkpt lat="48.40208" lon="-3.83012">
        <ele>226.80000305176</ele>
        <time>2021-09-12T09:11:41Z</time>
      </trkpt>
      <trkpt lat="48.40211" lon="-3.83016">
        <ele>226.80000305176</ele>
        <time>2021-09-12T09:11:42Z</time>
      </trkpt>
      <trkpt lat="48.40213" lon="-3.8302">
        <ele>227</ele>
        <time>2021-09-12T09:11:43Z</time>
      </trkpt>
      <trkpt lat="48.40216" lon="-3.83023">
        <ele>227</ele>
        <time>2021-09-12T09:11:44Z</time>
      </trkpt>
      <trkpt lat="48.40219" lon="-3.83026">
        <ele>227.19999694824</ele>
        <time>2021-09-12T09:11:45Z</time>
      </trkpt>
      <trkpt lat="48.40221" lon="-3.83029">
        <ele>227.19999694824</ele>
        <time>2021-09-12T09:11:46Z</time>
      </trkpt>
      <trkpt lat="48.40224" lon="-3.83032">
        <ele>227.39999389648</ele>
        <time>2021-09-12T09:11:47Z</time>
      </trkpt>
      <trkpt lat="48.40228" lon="-3.83036">
        <ele>227.39999389648</ele>
        <time>2021-09-12T09:11:48Z</time>
      </trkpt>
      <trkpt lat="48.4023" lon="-3.8304">
        <ele>227.60000610352</ele>
        <time>2021-09-12T09:11:49Z</time>
      </trkpt>
      <trkpt lat="48.40233" lon="-3.83043">
        <ele>227.60000610352</ele>
        <time>2021-09-12T09:11:50Z</time>
      </trkpt>
      <trkpt lat="48.40235" lon="-3.83047">
        <ele>227.60000610352</ele>
        <time>2021-09-12T09:11:51Z</time>
      </trkpt>
      <trkpt lat="48.40237" lon="-3.8305">
        <ele>227.80000305176</ele>
        <time>2021-09-12T09:11:52Z</time>
      </trkpt>
      <trkpt lat="48.40239" lon="-3.83055">
        <ele>228</ele>
        <time>2021-09-12T09:11:53Z</time>
      </trkpt>
      <trkpt lat="48.40242" lon="-3.83059">
        <ele>228</ele>
        <time>2021-09-12T09:11:54Z</time>
      </trkpt>
      <trkpt lat="48.40244" lon="-3.83064">
        <ele>228.19999694824</ele>
        <time>2021-09-12T09:11:55Z</time>
      </trkpt>
      <trkpt lat="48.40246" lon="-3.83067">
        <ele>228.19999694824</ele>
        <time>2021-09-12T09:11:56Z</time>
      </trkpt>
      <trkpt lat="48.40248" lon="-3.83071">
        <ele>228.39999389648</ele>
        <time>2021-09-12T09:11:57Z</time>
      </trkpt>
      <trkpt lat="48.40251" lon="-3.83075">
        <ele>228.60000610352</ele>
        <time>2021-09-12T09:11:58Z</time>
      </trkpt>
      <trkpt lat="48.40253" lon="-3.83079">
        <ele>228.60000610352</ele>
        <time>2021-09-12T09:11:59Z</time>
      </trkpt>
      <trkpt lat="48.40254" lon="-3.83082">
        <ele>228.60000610352</ele>
        <time>2021-09-12T09:12:00Z</time>
      </trkpt>
      <trkpt lat="48.40255" lon="-3.83086">
        <ele>228.60000610352</ele>
        <time>2021-09-12T09:12:01Z</time>
      </trkpt>
      <trkpt lat="48.40256" lon="-3.83089">
        <ele>229</ele>
        <time>2021-09-12T09:12:02Z</time>
      </trkpt>
      <trkpt lat="48.40259" lon="-3.83093">
        <ele>229</ele>
        <time>2021-09-12T09:12:03Z</time>
      </trkpt>
      <trkpt lat="48.40262" lon="-3.83096">
        <ele>229.19999694824</ele>
        <time>2021-09-12T09:12:04Z</time>
      </trkpt>
      <trkpt lat="48.40265" lon="-3.83099">
        <ele>229.19999694824</ele>
        <time>2021-09-12T09:12:05Z</time>
      </trkpt>
      <trkpt lat="48.40267" lon="-3.83102">
        <ele>229.39999389648</ele>
        <time>2021-09-12T09:12:06Z</time>
      </trkpt>
      <trkpt lat="48.40269" lon="-3.83105">
        <ele>229.39999389648</ele>
        <time>2021-09-12T09:12:07Z</time>
      </trkpt>
      <trkpt lat="48.40271" lon="-3.83107">
        <ele>229.80000305176</ele>
        <time>2021-09-12T09:12:08Z</time>
      </trkpt>
      <trkpt lat="48.40273" lon="-3.83109">
        <ele>230</ele>
        <time>2021-09-12T09:12:09Z</time>
      </trkpt>
      <trkpt lat="48.40274" lon="-3.83112">
        <ele>230.19999694824</ele>
        <time>2021-09-12T09:12:10Z</time>
      </trkpt>
      <trkpt lat="48.40275" lon="-3.83115">
        <ele>230.39999389648</ele>
        <time>2021-09-12T09:12:11Z</time>
      </trkpt>
      <trkpt lat="48.40277" lon="-3.83117">
        <ele>230.39999389648</ele>
        <time>2021-09-12T09:12:12Z</time>
      </trkpt>
      <trkpt lat="48.40278" lon="-3.8312">
        <ele>230.80000305176</ele>
        <time>2021-09-12T09:12:13Z</time>
      </trkpt>
      <trkpt lat="48.4028" lon="-3.83123">
        <ele>230.80000305176</ele>
        <time>2021-09-12T09:12:14Z</time>
      </trkpt>
      <trkpt lat="48.40282" lon="-3.83126">
        <ele>231.19999694824</ele>
        <time>2021-09-12T09:12:15Z</time>
      </trkpt>
      <trkpt lat="48.40284" lon="-3.83129">
        <ele>231.39999389648</ele>
        <time>2021-09-12T09:12:16Z</time>
      </trkpt>
      <trkpt lat="48.40285" lon="-3.83132">
        <ele>231.39999389648</ele>
        <time>2021-09-12T09:12:17Z</time>
      </trkpt>
      <trkpt lat="48.40287" lon="-3.83134">
        <ele>231.80000305176</ele>
        <time>2021-09-12T09:12:18Z</time>
      </trkpt>
      <trkpt lat="48.40288" lon="-3.83137">
        <ele>231.80000305176</ele>
        <time>2021-09-12T09:12:19Z</time>
      </trkpt>
      <trkpt lat="48.4029" lon="-3.83139">
        <ele>231.80000305176</ele>
        <time>2021-09-12T09:12:20Z</time>
      </trkpt>
      <trkpt lat="48.40293" lon="-3.83142">
        <ele>231.80000305176</ele>
        <time>2021-09-12T09:12:21Z</time>
      </trkpt>
      <trkpt lat="48.40295" lon="-3.83145">
        <ele>232</ele>
        <time>2021-09-12T09:12:22Z</time>
      </trkpt>
      <trkpt lat="48.40297" lon="-3.83147">
        <ele>232.39999389648</ele>
        <time>2021-09-12T09:12:23Z</time>
      </trkpt>
      <trkpt lat="48.40298" lon="-3.83149">
        <ele>232.80000305176</ele>
        <time>2021-09-12T09:12:24Z</time>
      </trkpt>
      <trkpt lat="48.40299" lon="-3.83152">
        <ele>232.80000305176</ele>
        <time>2021-09-12T09:12:25Z</time>
      </trkpt>
      <trkpt lat="48.40301" lon="-3.83155">
        <ele>232.80000305176</ele>
        <time>2021-09-12T09:12:26Z</time>
      </trkpt>
      <trkpt lat="48.40304" lon="-3.83157">
        <ele>233</ele>
        <time>2021-09-12T09:12:27Z</time>
      </trkpt>
      <trkpt lat="48.40306" lon="-3.83161">
        <ele>233.19999694824</ele>
        <time>2021-09-12T09:12:28Z</time>
      </trkpt>
      <trkpt lat="48.40308" lon="-3.83165">
        <ele>233.19999694824</ele>
        <time>2021-09-12T09:12:29Z</time>
      </trkpt>
      <trkpt lat="48.40311" lon="-3.83169">
        <ele>233.39999389648</ele>
        <time>2021-09-12T09:12:30Z</time>
      </trkpt>
      <trkpt lat="48.40313" lon="-3.83173">
        <ele>233.39999389648</ele>
        <time>2021-09-12T09:12:31Z</time>
      </trkpt>
      <trkpt lat="48.40316" lon="-3.83176">
        <ele>233.60000610352</ele>
        <time>2021-09-12T09:12:32Z</time>
      </trkpt>
      <trkpt lat="48.40317" lon="-3.83179">
        <ele>233.60000610352</ele>
        <time>2021-09-12T09:12:33Z</time>
      </trkpt>
      <trkpt lat="48.40319" lon="-3.83182">
        <ele>233.80000305176</ele>
        <time>2021-09-12T09:12:34Z</time>
      </trkpt>
      <trkpt lat="48.40321" lon="-3.83185">
        <ele>234</ele>
        <time>2021-09-12T09:12:35Z</time>
      </trkpt>
      <trkpt lat="48.40323" lon="-3.83187">
        <ele>234.39999389648</ele>
        <time>2021-09-12T09:12:36Z</time>
      </trkpt>
      <trkpt lat="48.40325" lon="-3.83191">
        <ele>234.39999389648</ele>
        <time>2021-09-12T09:12:37Z</time>
      </trkpt>
      <trkpt lat="48.40326" lon="-3.83195">
        <ele>234.39999389648</ele>
        <time>2021-09-12T09:12:38Z</time>
      </trkpt>
      <trkpt lat="48.40328" lon="-3.83196">
        <ele>234.60000610352</ele>
        <time>2021-09-12T09:12:39Z</time>
      </trkpt>
      <trkpt lat="48.4033" lon="-3.83198">
        <ele>234.60000610352</ele>
        <time>2021-09-12T09:12:40Z</time>
      </trkpt>
      <trkpt lat="48.40332" lon="-3.83201">
        <ele>235</ele>
        <time>2021-09-12T09:12:41Z</time>
      </trkpt>
      <trkpt lat="48.40334" lon="-3.83203">
        <ele>235</ele>
        <time>2021-09-12T09:12:42Z</time>
      </trkpt>
      <trkpt lat="48.40335" lon="-3.83205">
        <ele>235.19999694824</ele>
        <time>2021-09-12T09:12:43Z</time>
      </trkpt>
      <trkpt lat="48.40336" lon="-3.83206">
        <ele>235.39999389648</ele>
        <time>2021-09-12T09:12:44Z</time>
      </trkpt>
      <trkpt lat="48.40338" lon="-3.83209">
        <ele>235.39999389648</ele>
        <time>2021-09-12T09:12:45Z</time>
      </trkpt>
      <trkpt lat="48.40341" lon="-3.83213">
        <ele>235.60000610352</ele>
        <time>2021-09-12T09:12:46Z</time>
      </trkpt>
      <trkpt lat="48.40343" lon="-3.83217">
        <ele>235.80000305176</ele>
        <time>2021-09-12T09:12:47Z</time>
      </trkpt>
      <trkpt lat="48.40345" lon="-3.83219">
        <ele>235.80000305176</ele>
        <time>2021-09-12T09:12:48Z</time>
      </trkpt>
      <trkpt lat="48.40346" lon="-3.8322">
        <ele>235.80000305176</ele>
        <time>2021-09-12T09:12:49Z</time>
      </trkpt>
      <trkpt lat="48.40348" lon="-3.83221">
        <ele>236.19999694824</ele>
        <time>2021-09-12T09:12:50Z</time>
      </trkpt>
      <trkpt lat="48.40349" lon="-3.83223">
        <ele>236.19999694824</ele>
        <time>2021-09-12T09:12:51Z</time>
      </trkpt>
      <trkpt lat="48.40351" lon="-3.83224">
        <ele>236.39999389648</ele>
        <time>2021-09-12T09:12:52Z</time>
      </trkpt>
      <trkpt lat="48.40353" lon="-3.83227">
        <ele>236.39999389648</ele>
        <time>2021-09-12T09:12:53Z</time>
      </trkpt>
      <trkpt lat="48.40355" lon="-3.83229">
        <ele>236.39999389648</ele>
        <time>2021-09-12T09:12:54Z</time>
      </trkpt>
      <trkpt lat="48.40356" lon="-3.8323">
        <ele>236.39999389648</ele>
        <time>2021-09-12T09:12:55Z</time>
      </trkpt>
      <trkpt lat="48.40358" lon="-3.83233">
        <ele>236.60000610352</ele>
        <time>2021-09-12T09:12:56Z</time>
      </trkpt>
      <trkpt lat="48.4036" lon="-3.83235">
        <ele>236.60000610352</ele>
        <time>2021-09-12T09:12:57Z</time>
      </trkpt>
      <trkpt lat="48.40362" lon="-3.83236">
        <ele>237</ele>
        <time>2021-09-12T09:12:58Z</time>
      </trkpt>
      <trkpt lat="48.40364" lon="-3.83237">
        <ele>237</ele>
        <time>2021-09-12T09:12:59Z</time>
      </trkpt>
      <trkpt lat="48.40366" lon="-3.83237">
        <ele>237.19999694824</ele>
        <time>2021-09-12T09:13:00Z</time>
      </trkpt>
      <trkpt lat="48.40368" lon="-3.83238">
        <ele>237.19999694824</ele>
        <time>2021-09-12T09:13:01Z</time>
      </trkpt>
      <trkpt lat="48.4037" lon="-3.83239">
        <ele>237.39999389648</ele>
        <time>2021-09-12T09:13:02Z</time>
      </trkpt>
      <trkpt lat="48.40372" lon="-3.83241">
        <ele>238</ele>
        <time>2021-09-12T09:13:03Z</time>
      </trkpt>
      <trkpt lat="48.40373" lon="-3.83242">
        <ele>238.19999694824</ele>
        <time>2021-09-12T09:13:04Z</time>
      </trkpt>
      <trkpt lat="48.40375" lon="-3.83244">
        <ele>238.39999389648</ele>
        <time>2021-09-12T09:13:05Z</time>
      </trkpt>
      <trkpt lat="48.40377" lon="-3.83245">
        <ele>238.60000610352</ele>
        <time>2021-09-12T09:13:06Z</time>
      </trkpt>
      <trkpt lat="48.40379" lon="-3.83246">
        <ele>239.19999694824</ele>
        <time>2021-09-12T09:13:07Z</time>
      </trkpt>
      <trkpt lat="48.40381" lon="-3.83247">
        <ele>239.39999389648</ele>
        <time>2021-09-12T09:13:08Z</time>
      </trkpt>
      <trkpt lat="48.40382" lon="-3.83248">
        <ele>239.39999389648</ele>
        <time>2021-09-12T09:13:09Z</time>
      </trkpt>
      <trkpt lat="48.40384" lon="-3.8325">
        <ele>239.60000610352</ele>
        <time>2021-09-12T09:13:10Z</time>
      </trkpt>
      <trkpt lat="48.40387" lon="-3.83252">
        <ele>239.60000610352</ele>
        <time>2021-09-12T09:13:11Z</time>
      </trkpt>
      <trkpt lat="48.40389" lon="-3.83254">
        <ele>239.60000610352</ele>
        <time>2021-09-12T09:13:12Z</time>
      </trkpt>
      <trkpt lat="48.40392" lon="-3.83255">
        <ele>240</ele>
        <time>2021-09-12T09:13:13Z</time>
      </trkpt>
      <trkpt lat="48.40394" lon="-3.83257">
        <ele>240</ele>
        <time>2021-09-12T09:13:14Z</time>
      </trkpt>
      <trkpt lat="48.40397" lon="-3.83258">
        <ele>240</ele>
        <time>2021-09-12T09:13:15Z</time>
      </trkpt>
      <trkpt lat="48.404" lon="-3.8326">
        <ele>240.19999694824</ele>
        <time>2021-09-12T09:13:16Z</time>
      </trkpt>
      <trkpt lat="48.40403" lon="-3.83262">
        <ele>240.19999694824</ele>
        <time>2021-09-12T09:13:17Z</time>
      </trkpt>
      <trkpt lat="48.40405" lon="-3.83263">
        <ele>240.60000610352</ele>
        <time>2021-09-12T09:13:18Z</time>
      </trkpt>
      <trkpt lat="48.40407" lon="-3.83263">
        <ele>240.60000610352</ele>
        <time>2021-09-12T09:13:19Z</time>
      </trkpt>
      <trkpt lat="48.40409" lon="-3.83264">
        <ele>240.80000305176</ele>
        <time>2021-09-12T09:13:20Z</time>
      </trkpt>
      <trkpt lat="48.40412" lon="-3.83264">
        <ele>241</ele>
        <time>2021-09-12T09:13:21Z</time>
      </trkpt>
      <trkpt lat="48.40414" lon="-3.83265">
        <ele>241.19999694824</ele>
        <time>2021-09-12T09:13:22Z</time>
      </trkpt>
      <trkpt lat="48.40415" lon="-3.83266">
        <ele>241.39999389648</ele>
        <time>2021-09-12T09:13:23Z</time>
      </trkpt>
      <trkpt lat="48.40417" lon="-3.83267">
        <ele>241.39999389648</ele>
        <time>2021-09-12T09:13:24Z</time>
      </trkpt>
      <trkpt lat="48.40419" lon="-3.83268">
        <ele>241.60000610352</ele>
        <time>2021-09-12T09:13:25Z</time>
      </trkpt>
      <trkpt lat="48.40421" lon="-3.83268">
        <ele>241.80000305176</ele>
        <time>2021-09-12T09:13:26Z</time>
      </trkpt>
      <trkpt lat="48.40423" lon="-3.83268">
        <ele>242</ele>
        <time>2021-09-12T09:13:27Z</time>
      </trkpt>
      <trkpt lat="48.40424" lon="-3.83268">
        <ele>242.39999389648</ele>
        <time>2021-09-12T09:13:28Z</time>
      </trkpt>
      <trkpt lat="48.40427" lon="-3.83269">
        <ele>242.39999389648</ele>
        <time>2021-09-12T09:13:29Z</time>
      </trkpt>
      <trkpt lat="48.40429" lon="-3.83267">
        <ele>242.60000610352</ele>
        <time>2021-09-12T09:13:30Z</time>
      </trkpt>
      <trkpt lat="48.4043" lon="-3.83268">
        <ele>243</ele>
        <time>2021-09-12T09:13:31Z</time>
      </trkpt>
      <trkpt lat="48.40432" lon="-3.83269">
        <ele>243.19999694824</ele>
        <time>2021-09-12T09:13:32Z</time>
      </trkpt>
      <trkpt lat="48.40433" lon="-3.83268">
        <ele>243.19999694824</ele>
        <time>2021-09-12T09:13:33Z</time>
      </trkpt>
      <trkpt lat="48.40435" lon="-3.83268">
        <ele>243.39999389648</ele>
        <time>2021-09-12T09:13:34Z</time>
      </trkpt>
      <trkpt lat="48.40436" lon="-3.83268">
        <ele>243.60000610352</ele>
        <time>2021-09-12T09:13:35Z</time>
      </trkpt>
      <trkpt lat="48.40438" lon="-3.83268">
        <ele>244</ele>
        <time>2021-09-12T09:13:36Z</time>
      </trkpt>
      <trkpt lat="48.40441" lon="-3.8327">
        <ele>244.39999389648</ele>
        <time>2021-09-12T09:13:37Z</time>
      </trkpt>
      <trkpt lat="48.40443" lon="-3.83272">
        <ele>244.80000305176</ele>
        <time>2021-09-12T09:13:38Z</time>
      </trkpt>
      <trkpt lat="48.40445" lon="-3.83272">
        <ele>245.19999694824</ele>
        <time>2021-09-12T09:13:39Z</time>
      </trkpt>
      <trkpt lat="48.40447" lon="-3.83272">
        <ele>245.60000610352</ele>
        <time>2021-09-12T09:13:40Z</time>
      </trkpt>
      <trkpt lat="48.40449" lon="-3.83273">
        <ele>245.80000305176</ele>
        <time>2021-09-12T09:13:41Z</time>
      </trkpt>
      <trkpt lat="48.40451" lon="-3.83274">
        <ele>246</ele>
        <time>2021-09-12T09:13:42Z</time>
      </trkpt>
      <trkpt lat="48.40453" lon="-3.83275">
        <ele>246.19999694824</ele>
        <time>2021-09-12T09:13:43Z</time>
      </trkpt>
      <trkpt lat="48.40454" lon="-3.83275">
        <ele>246.39999389648</ele>
        <time>2021-09-12T09:13:44Z</time>
      </trkpt>
      <trkpt lat="48.40457" lon="-3.83274">
        <ele>246.39999389648</ele>
        <time>2021-09-12T09:13:45Z</time>
      </trkpt>
      <trkpt lat="48.40458" lon="-3.83273">
        <ele>246.39999389648</ele>
        <time>2021-09-12T09:13:46Z</time>
      </trkpt>
      <trkpt lat="48.4046" lon="-3.83272">
        <ele>246.39999389648</ele>
        <time>2021-09-12T09:13:47Z</time>
      </trkpt>
      <trkpt lat="48.40461" lon="-3.8327">
        <ele>246.60000610352</ele>
        <time>2021-09-12T09:13:48Z</time>
      </trkpt>
      <trkpt lat="48.40462" lon="-3.83268">
        <ele>246.80000305176</ele>
        <time>2021-09-12T09:13:49Z</time>
      </trkpt>
      <trkpt lat="48.40465" lon="-3.83266">
        <ele>247</ele>
        <time>2021-09-12T09:13:50Z</time>
      </trkpt>
      <trkpt lat="48.40467" lon="-3.83264">
        <ele>247</ele>
        <time>2021-09-12T09:13:51Z</time>
      </trkpt>
      <trkpt lat="48.40469" lon="-3.83262">
        <ele>247.39999389648</ele>
        <time>2021-09-12T09:13:52Z</time>
      </trkpt>
      <trkpt lat="48.40471" lon="-3.83262">
        <ele>247.80000305176</ele>
        <time>2021-09-12T09:13:53Z</time>
      </trkpt>
      <trkpt lat="48.40473" lon="-3.8326">
        <ele>247.80000305176</ele>
        <time>2021-09-12T09:13:54Z</time>
      </trkpt>
      <trkpt lat="48.40476" lon="-3.83258">
        <ele>248</ele>
        <time>2021-09-12T09:13:55Z</time>
      </trkpt>
      <trkpt lat="48.40478" lon="-3.83256">
        <ele>248.19999694824</ele>
        <time>2021-09-12T09:13:56Z</time>
      </trkpt>
      <trkpt lat="48.40481" lon="-3.83255">
        <ele>248.60000610352</ele>
        <time>2021-09-12T09:13:57Z</time>
      </trkpt>
      <trkpt lat="48.40483" lon="-3.83254">
        <ele>248.60000610352</ele>
        <time>2021-09-12T09:13:58Z</time>
      </trkpt>
      <trkpt lat="48.40485" lon="-3.83254">
        <ele>248.80000305176</ele>
        <time>2021-09-12T09:13:59Z</time>
      </trkpt>
      <trkpt lat="48.40487" lon="-3.83253">
        <ele>248.80000305176</ele>
        <time>2021-09-12T09:14:00Z</time>
      </trkpt>
      <trkpt lat="48.4049" lon="-3.83253">
        <ele>249</ele>
        <time>2021-09-12T09:14:01Z</time>
      </trkpt>
      <trkpt lat="48.40492" lon="-3.83252">
        <ele>249.60000610352</ele>
        <time>2021-09-12T09:14:02Z</time>
      </trkpt>
      <trkpt lat="48.40494" lon="-3.83252">
        <ele>249.80000305176</ele>
        <time>2021-09-12T09:14:03Z</time>
      </trkpt>
      <trkpt lat="48.40497" lon="-3.83251">
        <ele>250</ele>
        <time>2021-09-12T09:14:04Z</time>
      </trkpt>
      <trkpt lat="48.40499" lon="-3.83251">
        <ele>250</ele>
        <time>2021-09-12T09:14:05Z</time>
      </trkpt>
      <trkpt lat="48.40502" lon="-3.8325">
        <ele>250.19999694824</ele>
        <time>2021-09-12T09:14:06Z</time>
      </trkpt>
      <trkpt lat="48.40504" lon="-3.8325">
        <ele>250.60000610352</ele>
        <time>2021-09-12T09:14:07Z</time>
      </trkpt>
      <trkpt lat="48.40507" lon="-3.8325">
        <ele>250.60000610352</ele>
        <time>2021-09-12T09:14:08Z</time>
      </trkpt>
      <trkpt lat="48.40511" lon="-3.83248">
        <ele>250.80000305176</ele>
        <time>2021-09-12T09:14:09Z</time>
      </trkpt>
      <trkpt lat="48.40515" lon="-3.83248">
        <ele>251</ele>
        <time>2021-09-12T09:14:10Z</time>
      </trkpt>
      <trkpt lat="48.40518" lon="-3.83248">
        <ele>251</ele>
        <time>2021-09-12T09:14:11Z</time>
      </trkpt>
      <trkpt lat="48.40521" lon="-3.83248">
        <ele>251</ele>
        <time>2021-09-12T09:14:12Z</time>
      </trkpt>
      <trkpt lat="48.40524" lon="-3.83248">
        <ele>250.80000305176</ele>
        <time>2021-09-12T09:14:13Z</time>
      </trkpt>
      <trkpt lat="48.40527" lon="-3.83248">
        <ele>250.80000305176</ele>
        <time>2021-09-12T09:14:14Z</time>
      </trkpt>
      <trkpt lat="48.40531" lon="-3.83248">
        <ele>250.80000305176</ele>
        <time>2021-09-12T09:14:15Z</time>
      </trkpt>
      <trkpt lat="48.40535" lon="-3.8325">
        <ele>250.80000305176</ele>
        <time>2021-09-12T09:14:16Z</time>
      </trkpt>
      <trkpt lat="48.40539" lon="-3.83251">
        <ele>250.60000610352</ele>
        <time>2021-09-12T09:14:17Z</time>
      </trkpt>
      <trkpt lat="48.40545" lon="-3.83251">
        <ele>250.19999694824</ele>
        <time>2021-09-12T09:14:18Z</time>
      </trkpt>
      <trkpt lat="48.40552" lon="-3.83251">
        <ele>249.80000305176</ele>
        <time>2021-09-12T09:14:19Z</time>
      </trkpt>
      <trkpt lat="48.40558" lon="-3.83249">
        <ele>249</ele>
        <time>2021-09-12T09:14:20Z</time>
      </trkpt>
      <trkpt lat="48.40565" lon="-3.83246">
        <ele>248.80000305176</ele>
        <time>2021-09-12T09:14:21Z</time>
      </trkpt>
      <trkpt lat="48.40571" lon="-3.83243">
        <ele>248.60000610352</ele>
        <time>2021-09-12T09:14:22Z</time>
      </trkpt>
      <trkpt lat="48.40577" lon="-3.8324">
        <ele>248.60000610352</ele>
        <time>2021-09-12T09:14:23Z</time>
      </trkpt>
      <trkpt lat="48.40583" lon="-3.83239">
        <ele>247.80000305176</ele>
        <time>2021-09-12T09:14:24Z</time>
      </trkpt>
      <trkpt lat="48.40589" lon="-3.83238">
        <ele>247.80000305176</ele>
        <time>2021-09-12T09:14:25Z</time>
      </trkpt>
      <trkpt lat="48.40595" lon="-3.83239">
        <ele>247.60000610352</ele>
        <time>2021-09-12T09:14:26Z</time>
      </trkpt>
      <trkpt lat="48.406" lon="-3.83238">
        <ele>247.19999694824</ele>
        <time>2021-09-12T09:14:27Z</time>
      </trkpt>
      <trkpt lat="48.40606" lon="-3.83239">
        <ele>247</ele>
        <time>2021-09-12T09:14:28Z</time>
      </trkpt>
      <trkpt lat="48.40613" lon="-3.83236">
        <ele>246.80000305176</ele>
        <time>2021-09-12T09:14:29Z</time>
      </trkpt>
      <trkpt lat="48.40617" lon="-3.8323">
        <ele>246.19999694824</ele>
        <time>2021-09-12T09:14:30Z</time>
      </trkpt>
      <trkpt lat="48.4062" lon="-3.83225">
        <ele>245.80000305176</ele>
        <time>2021-09-12T09:14:31Z</time>
      </trkpt>
      <trkpt lat="48.40624" lon="-3.83219">
        <ele>245.60000610352</ele>
        <time>2021-09-12T09:14:32Z</time>
      </trkpt>
      <trkpt lat="48.4063" lon="-3.83214">
        <ele>245.60000610352</ele>
        <time>2021-09-12T09:14:33Z</time>
      </trkpt>
      <trkpt lat="48.40636" lon="-3.83208">
        <ele>245</ele>
        <time>2021-09-12T09:14:34Z</time>
      </trkpt>
      <trkpt lat="48.4064" lon="-3.83202">
        <ele>245</ele>
        <time>2021-09-12T09:14:35Z</time>
      </trkpt>
      <trkpt lat="48.40643" lon="-3.83199">
        <ele>245</ele>
        <time>2021-09-12T09:14:36Z</time>
      </trkpt>
      <trkpt lat="48.40647" lon="-3.83193">
        <ele>244.39999389648</ele>
        <time>2021-09-12T09:14:37Z</time>
      </trkpt>
      <trkpt lat="48.40653" lon="-3.83183">
        <ele>244.39999389648</ele>
        <time>2021-09-12T09:14:38Z</time>
      </trkpt>
      <trkpt lat="48.40658" lon="-3.83176">
        <ele>244</ele>
        <time>2021-09-12T09:14:39Z</time>
      </trkpt>
      <trkpt lat="48.40663" lon="-3.8317">
        <ele>243.80000305176</ele>
        <time>2021-09-12T09:14:40Z</time>
      </trkpt>
      <trkpt lat="48.40669" lon="-3.83164">
        <ele>243.39999389648</ele>
        <time>2021-09-12T09:14:41Z</time>
      </trkpt>
      <trkpt lat="48.40674" lon="-3.83159">
        <ele>242.80000305176</ele>
        <time>2021-09-12T09:14:42Z</time>
      </trkpt>
      <trkpt lat="48.4068" lon="-3.83152">
        <ele>242.80000305176</ele>
        <time>2021-09-12T09:14:43Z</time>
      </trkpt>
      <trkpt lat="48.40688" lon="-3.83144">
        <ele>242.80000305176</ele>
        <time>2021-09-12T09:14:44Z</time>
      </trkpt>
      <trkpt lat="48.40692" lon="-3.83139">
        <ele>242.80000305176</ele>
        <time>2021-09-12T09:14:45Z</time>
      </trkpt>
      <trkpt lat="48.40697" lon="-3.83131">
        <ele>242.39999389648</ele>
        <time>2021-09-12T09:14:46Z</time>
      </trkpt>
      <trkpt lat="48.40702" lon="-3.83126">
        <ele>242.19999694824</ele>
        <time>2021-09-12T09:14:47Z</time>
      </trkpt>
      <trkpt lat="48.40706" lon="-3.83121">
        <ele>242</ele>
        <time>2021-09-12T09:14:48Z</time>
      </trkpt>
      <trkpt lat="48.40709" lon="-3.83119">
        <ele>241.80000305176</ele>
        <time>2021-09-12T09:14:49Z</time>
      </trkpt>
      <trkpt lat="48.40712" lon="-3.83116">
        <ele>241.80000305176</ele>
        <time>2021-09-12T09:14:50Z</time>
      </trkpt>
      <trkpt lat="48.40716" lon="-3.83113">
        <ele>241.60000610352</ele>
        <time>2021-09-12T09:14:51Z</time>
      </trkpt>
      <trkpt lat="48.40719" lon="-3.8311">
        <ele>241.39999389648</ele>
        <time>2021-09-12T09:14:52Z</time>
      </trkpt>
      <trkpt lat="48.40724" lon="-3.83106">
        <ele>241.39999389648</ele>
        <time>2021-09-12T09:14:53Z</time>
      </trkpt>
      <trkpt lat="48.40728" lon="-3.83103">
        <ele>241.19999694824</ele>
        <time>2021-09-12T09:14:54Z</time>
      </trkpt>
      <trkpt lat="48.40731" lon="-3.83099">
        <ele>241</ele>
        <time>2021-09-12T09:14:55Z</time>
      </trkpt>
      <trkpt lat="48.40735" lon="-3.83095">
        <ele>240.80000305176</ele>
        <time>2021-09-12T09:14:56Z</time>
      </trkpt>
      <trkpt lat="48.40739" lon="-3.83089">
        <ele>240.80000305176</ele>
        <time>2021-09-12T09:14:57Z</time>
      </trkpt>
      <trkpt lat="48.40744" lon="-3.83082">
        <ele>240.39999389648</ele>
        <time>2021-09-12T09:14:58Z</time>
      </trkpt>
      <trkpt lat="48.40749" lon="-3.83076">
        <ele>240.39999389648</ele>
        <time>2021-09-12T09:14:59Z</time>
      </trkpt>
      <trkpt lat="48.40753" lon="-3.83071">
        <ele>240</ele>
        <time>2021-09-12T09:15:00Z</time>
      </trkpt>
      <trkpt lat="48.40757" lon="-3.83065">
        <ele>239.80000305176</ele>
        <time>2021-09-12T09:15:01Z</time>
      </trkpt>
      <trkpt lat="48.40763" lon="-3.83058">
        <ele>239.19999694824</ele>
        <time>2021-09-12T09:15:02Z</time>
      </trkpt>
      <trkpt lat="48.40767" lon="-3.83052">
        <ele>239</ele>
        <time>2021-09-12T09:15:03Z</time>
      </trkpt>
      <trkpt lat="48.40772" lon="-3.83045">
        <ele>239</ele>
        <time>2021-09-12T09:15:04Z</time>
      </trkpt>
      <trkpt lat="48.40775" lon="-3.83041">
        <ele>238.80000305176</ele>
        <time>2021-09-12T09:15:05Z</time>
      </trkpt>
      <trkpt lat="48.40779" lon="-3.83035">
        <ele>238.60000610352</ele>
        <time>2021-09-12T09:15:06Z</time>
      </trkpt>
      <trkpt lat="48.40783" lon="-3.8303">
        <ele>238.60000610352</ele>
        <time>2021-09-12T09:15:07Z</time>
      </trkpt>
      <trkpt lat="48.40788" lon="-3.83023">
        <ele>238.39999389648</ele>
        <time>2021-09-12T09:15:08Z</time>
      </trkpt>
      <trkpt lat="48.40792" lon="-3.83017">
        <ele>238.39999389648</ele>
        <time>2021-09-12T09:15:09Z</time>
      </trkpt>
      <trkpt lat="48.40795" lon="-3.83011">
        <ele>238.19999694824</ele>
        <time>2021-09-12T09:15:10Z</time>
      </trkpt>
      <trkpt lat="48.40799" lon="-3.83003">
        <ele>238</ele>
        <time>2021-09-12T09:15:11Z</time>
      </trkpt>
      <trkpt lat="48.40801" lon="-3.82997">
        <ele>237.60000610352</ele>
        <time>2021-09-12T09:15:12Z</time>
      </trkpt>
      <trkpt lat="48.40803" lon="-3.82987">
        <ele>237.60000610352</ele>
        <time>2021-09-12T09:15:13Z</time>
      </trkpt>
      <trkpt lat="48.40805" lon="-3.82979">
        <ele>237</ele>
        <time>2021-09-12T09:15:14Z</time>
      </trkpt>
      <trkpt lat="48.40808" lon="-3.82972">
        <ele>237</ele>
        <time>2021-09-12T09:15:15Z</time>
      </trkpt>
      <trkpt lat="48.4081" lon="-3.82965">
        <ele>236.39999389648</ele>
        <time>2021-09-12T09:15:16Z</time>
      </trkpt>
      <trkpt lat="48.40812" lon="-3.82955">
        <ele>236.19999694824</ele>
        <time>2021-09-12T09:15:17Z</time>
      </trkpt>
      <trkpt lat="48.40812" lon="-3.82945">
        <ele>236</ele>
        <time>2021-09-12T09:15:18Z</time>
      </trkpt>
      <trkpt lat="48.40812" lon="-3.82936">
        <ele>235.80000305176</ele>
        <time>2021-09-12T09:15:19Z</time>
      </trkpt>
      <trkpt lat="48.40812" lon="-3.8293">
        <ele>235.60000610352</ele>
        <time>2021-09-12T09:15:20Z</time>
      </trkpt>
      <trkpt lat="48.40814" lon="-3.82924">
        <ele>235.19999694824</ele>
        <time>2021-09-12T09:15:21Z</time>
      </trkpt>
      <trkpt lat="48.40818" lon="-3.82919">
        <ele>235</ele>
        <time>2021-09-12T09:15:22Z</time>
      </trkpt>
      <trkpt lat="48.40822" lon="-3.82917">
        <ele>235</ele>
        <time>2021-09-12T09:15:23Z</time>
      </trkpt>
      <trkpt lat="48.40826" lon="-3.82917">
        <ele>234.80000305176</ele>
        <time>2021-09-12T09:15:24Z</time>
      </trkpt>
      <trkpt lat="48.4083" lon="-3.82917">
        <ele>234.80000305176</ele>
        <time>2021-09-12T09:15:25Z</time>
      </trkpt>
      <trkpt lat="48.40835" lon="-3.82919">
        <ele>234.60000610352</ele>
        <time>2021-09-12T09:15:26Z</time>
      </trkpt>
      <trkpt lat="48.40839" lon="-3.82923">
        <ele>234.39999389648</ele>
        <time>2021-09-12T09:15:27Z</time>
      </trkpt>
      <trkpt lat="48.40843" lon="-3.82926">
        <ele>234.39999389648</ele>
        <time>2021-09-12T09:15:28Z</time>
      </trkpt>
      <trkpt lat="48.40846" lon="-3.82928">
        <ele>234.19999694824</ele>
        <time>2021-09-12T09:15:29Z</time>
      </trkpt>
      <trkpt lat="48.4085" lon="-3.82927">
        <ele>233.80000305176</ele>
        <time>2021-09-12T09:15:30Z</time>
      </trkpt>
      <trkpt lat="48.40853" lon="-3.82926">
        <ele>233.80000305176</ele>
        <time>2021-09-12T09:15:31Z</time>
      </trkpt>
      <trkpt lat="48.40856" lon="-3.82924">
        <ele>233.60000610352</ele>
        <time>2021-09-12T09:15:32Z</time>
      </trkpt>
      <trkpt lat="48.40858" lon="-3.82922">
        <ele>233.39999389648</ele>
        <time>2021-09-12T09:15:33Z</time>
      </trkpt>
      <trkpt lat="48.40859" lon="-3.82921">
        <ele>233.39999389648</ele>
        <time>2021-09-12T09:15:34Z</time>
      </trkpt>
      <trkpt lat="48.40861" lon="-3.8292">
        <ele>233.39999389648</ele>
        <time>2021-09-12T09:15:35Z</time>
      </trkpt>
      <trkpt lat="48.40863" lon="-3.82919">
        <ele>233.39999389648</ele>
        <time>2021-09-12T09:15:36Z</time>
      </trkpt>
      <trkpt lat="48.40865" lon="-3.82918">
        <ele>233.19999694824</ele>
        <time>2021-09-12T09:15:37Z</time>
      </trkpt>
      <trkpt lat="48.40867" lon="-3.82917">
        <ele>233</ele>
        <time>2021-09-12T09:15:38Z</time>
      </trkpt>
      <trkpt lat="48.40868" lon="-3.82916">
        <ele>233</ele>
        <time>2021-09-12T09:15:39Z</time>
      </trkpt>
      <trkpt lat="48.4087" lon="-3.82914">
        <ele>233</ele>
        <time>2021-09-12T09:15:40Z</time>
      </trkpt>
      <trkpt lat="48.40871" lon="-3.82912">
        <ele>233</ele>
        <time>2021-09-12T09:15:41Z</time>
      </trkpt>
      <trkpt lat="48.40873" lon="-3.82911">
        <ele>233</ele>
        <time>2021-09-12T09:15:42Z</time>
      </trkpt>
      <trkpt lat="48.40875" lon="-3.82912">
        <ele>233</ele>
        <time>2021-09-12T09:15:43Z</time>
      </trkpt>
      <trkpt lat="48.40876" lon="-3.82912">
        <ele>233</ele>
        <time>2021-09-12T09:15:44Z</time>
      </trkpt>
      <trkpt lat="48.40876" lon="-3.82912">
        <ele>233</ele>
        <time>2021-09-12T09:15:45Z</time>
      </trkpt>
      <trkpt lat="48.40876" lon="-3.82912">
        <ele>233</ele>
        <time>2021-09-12T09:15:46Z</time>
      </trkpt>
      <trkpt lat="48.40876" lon="-3.82912">
        <ele>233</ele>
        <time>2021-09-12T09:15:47Z</time>
      </trkpt>
      <trkpt lat="48.40899" lon="-3.82896">
        <ele>233.39999389648</ele>
        <time>2021-09-12T09:16:06Z</time>
      </trkpt>
      <trkpt lat="48.40901" lon="-3.82895">
        <ele>233.39999389648</ele>
        <time>2021-09-12T09:16:07Z</time>
      </trkpt>
      <trkpt lat="48.40903" lon="-3.82893">
        <ele>233.39999389648</ele>
        <time>2021-09-12T09:16:08Z</time>
      </trkpt>
      <trkpt lat="48.40905" lon="-3.82892">
        <ele>233.39999389648</ele>
        <time>2021-09-12T09:16:09Z</time>
      </trkpt>
      <trkpt lat="48.40906" lon="-3.82891">
        <ele>233.60000610352</ele>
        <time>2021-09-12T09:16:10Z</time>
      </trkpt>
      <trkpt lat="48.40908" lon="-3.82891">
        <ele>233.60000610352</ele>
        <time>2021-09-12T09:16:11Z</time>
      </trkpt>
      <trkpt lat="48.4091" lon="-3.82891">
        <ele>233.80000305176</ele>
        <time>2021-09-12T09:16:12Z</time>
      </trkpt>
      <trkpt lat="48.40912" lon="-3.8289">
        <ele>233.80000305176</ele>
        <time>2021-09-12T09:16:13Z</time>
      </trkpt>
      <trkpt lat="48.40915" lon="-3.82889">
        <ele>234</ele>
        <time>2021-09-12T09:16:14Z</time>
      </trkpt>
      <trkpt lat="48.40917" lon="-3.82887">
        <ele>234</ele>
        <time>2021-09-12T09:16:15Z</time>
      </trkpt>
      <trkpt lat="48.4092" lon="-3.82886">
        <ele>234.19999694824</ele>
        <time>2021-09-12T09:16:16Z</time>
      </trkpt>
      <trkpt lat="48.40923" lon="-3.82884">
        <ele>234.39999389648</ele>
        <time>2021-09-12T09:16:17Z</time>
      </trkpt>
      <trkpt lat="48.40926" lon="-3.82882">
        <ele>234.39999389648</ele>
        <time>2021-09-12T09:16:18Z</time>
      </trkpt>
      <trkpt lat="48.40928" lon="-3.8288">
        <ele>234.39999389648</ele>
        <time>2021-09-12T09:16:19Z</time>
      </trkpt>
      <trkpt lat="48.4093" lon="-3.82878">
        <ele>234.39999389648</ele>
        <time>2021-09-12T09:16:20Z</time>
      </trkpt>
      <trkpt lat="48.40932" lon="-3.82876">
        <ele>234.60000610352</ele>
        <time>2021-09-12T09:16:21Z</time>
      </trkpt>
      <trkpt lat="48.40934" lon="-3.82875">
        <ele>234.80000305176</ele>
        <time>2021-09-12T09:16:22Z</time>
      </trkpt>
      <trkpt lat="48.40935" lon="-3.82874">
        <ele>235</ele>
        <time>2021-09-12T09:16:23Z</time>
      </trkpt>
      <trkpt lat="48.40937" lon="-3.82873">
        <ele>235</ele>
        <time>2021-09-12T09:16:24Z</time>
      </trkpt>
      <trkpt lat="48.40938" lon="-3.82872">
        <ele>235.19999694824</ele>
        <time>2021-09-12T09:16:25Z</time>
      </trkpt>
      <trkpt lat="48.4094" lon="-3.82871">
        <ele>235.19999694824</ele>
        <time>2021-09-12T09:16:26Z</time>
      </trkpt>
      <trkpt lat="48.40941" lon="-3.8287">
        <ele>235.19999694824</ele>
        <time>2021-09-12T09:16:27Z</time>
      </trkpt>
      <trkpt lat="48.40943" lon="-3.82869">
        <ele>235.80000305176</ele>
        <time>2021-09-12T09:16:28Z</time>
      </trkpt>
      <trkpt lat="48.40945" lon="-3.82867">
        <ele>235.80000305176</ele>
        <time>2021-09-12T09:16:29Z</time>
      </trkpt>
      <trkpt lat="48.40948" lon="-3.82864">
        <ele>236</ele>
        <time>2021-09-12T09:16:30Z</time>
      </trkpt>
      <trkpt lat="48.40949" lon="-3.82861">
        <ele>236.19999694824</ele>
        <time>2021-09-12T09:16:31Z</time>
      </trkpt>
      <trkpt lat="48.40951" lon="-3.82859">
        <ele>236.19999694824</ele>
        <time>2021-09-12T09:16:32Z</time>
      </trkpt>
      <trkpt lat="48.40952" lon="-3.82859">
        <ele>236.60000610352</ele>
        <time>2021-09-12T09:16:33Z</time>
      </trkpt>
      <trkpt lat="48.40953" lon="-3.8286">
        <ele>236.60000610352</ele>
        <time>2021-09-12T09:16:34Z</time>
      </trkpt>
      <trkpt lat="48.40955" lon="-3.82859">
        <ele>236.80000305176</ele>
        <time>2021-09-12T09:16:35Z</time>
      </trkpt>
      <trkpt lat="48.40957" lon="-3.82859">
        <ele>237.19999694824</ele>
        <time>2021-09-12T09:16:36Z</time>
      </trkpt>
      <trkpt lat="48.40958" lon="-3.82857">
        <ele>237.39999389648</ele>
        <time>2021-09-12T09:16:37Z</time>
      </trkpt>
      <trkpt lat="48.40959" lon="-3.82855">
        <ele>237.80000305176</ele>
        <time>2021-09-12T09:16:38Z</time>
      </trkpt>
      <trkpt lat="48.40961" lon="-3.82853">
        <ele>238</ele>
        <time>2021-09-12T09:16:39Z</time>
      </trkpt>
      <trkpt lat="48.40962" lon="-3.82853">
        <ele>238.39999389648</ele>
        <time>2021-09-12T09:16:40Z</time>
      </trkpt>
      <trkpt lat="48.40964" lon="-3.82852">
        <ele>238.80000305176</ele>
        <time>2021-09-12T09:16:41Z</time>
      </trkpt>
      <trkpt lat="48.40966" lon="-3.82852">
        <ele>239</ele>
        <time>2021-09-12T09:16:42Z</time>
      </trkpt>
      <trkpt lat="48.40967" lon="-3.82852">
        <ele>239.60000610352</ele>
        <time>2021-09-12T09:16:43Z</time>
      </trkpt>
      <trkpt lat="48.40968" lon="-3.82852">
        <ele>239.80000305176</ele>
        <time>2021-09-12T09:16:44Z</time>
      </trkpt>
      <trkpt lat="48.4097" lon="-3.82851">
        <ele>239.80000305176</ele>
        <time>2021-09-12T09:16:45Z</time>
      </trkpt>
      <trkpt lat="48.40971" lon="-3.82851">
        <ele>239.80000305176</ele>
        <time>2021-09-12T09:16:46Z</time>
      </trkpt>
      <trkpt lat="48.40973" lon="-3.82851">
        <ele>240.39999389648</ele>
        <time>2021-09-12T09:16:47Z</time>
      </trkpt>
      <trkpt lat="48.40973" lon="-3.82851">
        <ele>240.39999389648</ele>
        <time>2021-09-12T09:16:48Z</time>
      </trkpt>
      <trkpt lat="48.40973" lon="-3.82851">
        <ele>240.39999389648</ele>
        <time>2021-09-12T09:16:49Z</time>
      </trkpt>
      <trkpt lat="48.40975" lon="-3.82852">
        <ele>240.60000610352</ele>
        <time>2021-09-12T09:16:50Z</time>
      </trkpt>
      <trkpt lat="48.40996" lon="-3.82841">
        <ele>244.80000305176</ele>
        <time>2021-09-12T09:17:15Z</time>
      </trkpt>
      <trkpt lat="48.40998" lon="-3.8284">
        <ele>245.19999694824</ele>
        <time>2021-09-12T09:17:16Z</time>
      </trkpt>
      <trkpt lat="48.40999" lon="-3.82839">
        <ele>245.39999389648</ele>
        <time>2021-09-12T09:17:17Z</time>
      </trkpt>
      <trkpt lat="48.41" lon="-3.82839">
        <ele>245.39999389648</ele>
        <time>2021-09-12T09:17:18Z</time>
      </trkpt>
      <trkpt lat="48.41002" lon="-3.82838">
        <ele>245.39999389648</ele>
        <time>2021-09-12T09:17:19Z</time>
      </trkpt>
      <trkpt lat="48.41003" lon="-3.82838">
        <ele>245.80000305176</ele>
        <time>2021-09-12T09:17:20Z</time>
      </trkpt>
      <trkpt lat="48.41004" lon="-3.82836">
        <ele>246</ele>
        <time>2021-09-12T09:17:21Z</time>
      </trkpt>
      <trkpt lat="48.41006" lon="-3.82835">
        <ele>246.19999694824</ele>
        <time>2021-09-12T09:17:22Z</time>
      </trkpt>
      <trkpt lat="48.41007" lon="-3.82834">
        <ele>246.39999389648</ele>
        <time>2021-09-12T09:17:23Z</time>
      </trkpt>
      <trkpt lat="48.41009" lon="-3.82832">
        <ele>246.39999389648</ele>
        <time>2021-09-12T09:17:24Z</time>
      </trkpt>
      <trkpt lat="48.41011" lon="-3.82831">
        <ele>246.60000610352</ele>
        <time>2021-09-12T09:17:25Z</time>
      </trkpt>
      <trkpt lat="48.41012" lon="-3.8283">
        <ele>246.80000305176</ele>
        <time>2021-09-12T09:17:26Z</time>
      </trkpt>
      <trkpt lat="48.41013" lon="-3.8283">
        <ele>247</ele>
        <time>2021-09-12T09:17:27Z</time>
      </trkpt>
      <trkpt lat="48.41015" lon="-3.82828">
        <ele>247</ele>
        <time>2021-09-12T09:17:28Z</time>
      </trkpt>
      <trkpt lat="48.41016" lon="-3.82828">
        <ele>247.19999694824</ele>
        <time>2021-09-12T09:17:29Z</time>
      </trkpt>
      <trkpt lat="48.41017" lon="-3.82829">
        <ele>247.19999694824</ele>
        <time>2021-09-12T09:17:30Z</time>
      </trkpt>
      <trkpt lat="48.41019" lon="-3.82828">
        <ele>247.39999389648</ele>
        <time>2021-09-12T09:17:31Z</time>
      </trkpt>
      <trkpt lat="48.4102" lon="-3.82826">
        <ele>247.60000610352</ele>
        <time>2021-09-12T09:17:32Z</time>
      </trkpt>
      <trkpt lat="48.41022" lon="-3.82824">
        <ele>247.80000305176</ele>
        <time>2021-09-12T09:17:33Z</time>
      </trkpt>
      <trkpt lat="48.41023" lon="-3.82823">
        <ele>247.80000305176</ele>
        <time>2021-09-12T09:17:34Z</time>
      </trkpt>
      <trkpt lat="48.41024" lon="-3.82822">
        <ele>248</ele>
        <time>2021-09-12T09:17:35Z</time>
      </trkpt>
      <trkpt lat="48.41026" lon="-3.82821">
        <ele>248</ele>
        <time>2021-09-12T09:17:36Z</time>
      </trkpt>
      <trkpt lat="48.41027" lon="-3.8282">
        <ele>248.39999389648</ele>
        <time>2021-09-12T09:17:37Z</time>
      </trkpt>
      <trkpt lat="48.41028" lon="-3.8282">
        <ele>248.60000610352</ele>
        <time>2021-09-12T09:17:38Z</time>
      </trkpt>
      <trkpt lat="48.41029" lon="-3.82819">
        <ele>248.80000305176</ele>
        <time>2021-09-12T09:17:39Z</time>
      </trkpt>
      <trkpt lat="48.4103" lon="-3.82818">
        <ele>249</ele>
        <time>2021-09-12T09:17:40Z</time>
      </trkpt>
      <trkpt lat="48.41031" lon="-3.82817">
        <ele>249.19999694824</ele>
        <time>2021-09-12T09:17:41Z</time>
      </trkpt>
      <trkpt lat="48.41033" lon="-3.82817">
        <ele>249.60000610352</ele>
        <time>2021-09-12T09:17:42Z</time>
      </trkpt>
      <trkpt lat="48.41034" lon="-3.82816">
        <ele>249.60000610352</ele>
        <time>2021-09-12T09:17:43Z</time>
      </trkpt>
      <trkpt lat="48.41036" lon="-3.82815">
        <ele>249.60000610352</ele>
        <time>2021-09-12T09:17:44Z</time>
      </trkpt>
      <trkpt lat="48.41037" lon="-3.82814">
        <ele>249.80000305176</ele>
        <time>2021-09-12T09:17:45Z</time>
      </trkpt>
      <trkpt lat="48.41038" lon="-3.82814">
        <ele>250</ele>
        <time>2021-09-12T09:17:46Z</time>
      </trkpt>
      <trkpt lat="48.4104" lon="-3.82812">
        <ele>250</ele>
        <time>2021-09-12T09:17:47Z</time>
      </trkpt>
      <trkpt lat="48.41042" lon="-3.8281">
        <ele>250.19999694824</ele>
        <time>2021-09-12T09:17:48Z</time>
      </trkpt>
      <trkpt lat="48.41044" lon="-3.82808">
        <ele>250.19999694824</ele>
        <time>2021-09-12T09:17:49Z</time>
      </trkpt>
      <trkpt lat="48.41047" lon="-3.82806">
        <ele>250.39999389648</ele>
        <time>2021-09-12T09:17:50Z</time>
      </trkpt>
      <trkpt lat="48.41049" lon="-3.82804">
        <ele>250.39999389648</ele>
        <time>2021-09-12T09:17:51Z</time>
      </trkpt>
      <trkpt lat="48.41051" lon="-3.82802">
        <ele>251</ele>
        <time>2021-09-12T09:17:52Z</time>
      </trkpt>
      <trkpt lat="48.41053" lon="-3.828">
        <ele>251</ele>
        <time>2021-09-12T09:17:53Z</time>
      </trkpt>
      <trkpt lat="48.41055" lon="-3.82799">
        <ele>251.19999694824</ele>
        <time>2021-09-12T09:17:54Z</time>
      </trkpt>
      <trkpt lat="48.41058" lon="-3.82797">
        <ele>251.19999694824</ele>
        <time>2021-09-12T09:17:55Z</time>
      </trkpt>
      <trkpt lat="48.4106" lon="-3.82795">
        <ele>251.19999694824</ele>
        <time>2021-09-12T09:17:56Z</time>
      </trkpt>
      <trkpt lat="48.41063" lon="-3.82794">
        <ele>251.19999694824</ele>
        <time>2021-09-12T09:17:57Z</time>
      </trkpt>
      <trkpt lat="48.41066" lon="-3.82794">
        <ele>251.39999389648</ele>
        <time>2021-09-12T09:17:58Z</time>
      </trkpt>
      <trkpt lat="48.41068" lon="-3.82792">
        <ele>251.80000305176</ele>
        <time>2021-09-12T09:17:59Z</time>
      </trkpt>
      <trkpt lat="48.4107" lon="-3.82792">
        <ele>251.80000305176</ele>
        <time>2021-09-12T09:18:00Z</time>
      </trkpt>
      <trkpt lat="48.41072" lon="-3.8279">
        <ele>252</ele>
        <time>2021-09-12T09:18:01Z</time>
      </trkpt>
      <trkpt lat="48.41075" lon="-3.8279">
        <ele>252.39999389648</ele>
        <time>2021-09-12T09:18:02Z</time>
      </trkpt>
      <trkpt lat="48.41078" lon="-3.82788">
        <ele>252.39999389648</ele>
        <time>2021-09-12T09:18:03Z</time>
      </trkpt>
      <trkpt lat="48.4108" lon="-3.82788">
        <ele>252.39999389648</ele>
        <time>2021-09-12T09:18:04Z</time>
      </trkpt>
      <trkpt lat="48.41083" lon="-3.82786">
        <ele>252.60000610352</ele>
        <time>2021-09-12T09:18:05Z</time>
      </trkpt>
      <trkpt lat="48.41086" lon="-3.82786">
        <ele>252.60000610352</ele>
        <time>2021-09-12T09:18:06Z</time>
      </trkpt>
      <trkpt lat="48.41089" lon="-3.82787">
        <ele>253</ele>
        <time>2021-09-12T09:18:07Z</time>
      </trkpt>
      <trkpt lat="48.41093" lon="-3.82786">
        <ele>253.19999694824</ele>
        <time>2021-09-12T09:18:08Z</time>
      </trkpt>
      <trkpt lat="48.41096" lon="-3.82784">
        <ele>253.19999694824</ele>
        <time>2021-09-12T09:18:09Z</time>
      </trkpt>
      <trkpt lat="48.41099" lon="-3.82783">
        <ele>253.39999389648</ele>
        <time>2021-09-12T09:18:10Z</time>
      </trkpt>
      <trkpt lat="48.41101" lon="-3.82782">
        <ele>253.60000610352</ele>
        <time>2021-09-12T09:18:11Z</time>
      </trkpt>
      <trkpt lat="48.41105" lon="-3.82783">
        <ele>253.80000305176</ele>
        <time>2021-09-12T09:18:12Z</time>
      </trkpt>
      <trkpt lat="48.41108" lon="-3.82784">
        <ele>253.80000305176</ele>
        <time>2021-09-12T09:18:13Z</time>
      </trkpt>
      <trkpt lat="48.4111" lon="-3.82784">
        <ele>254</ele>
        <time>2021-09-12T09:18:14Z</time>
      </trkpt>
      <trkpt lat="48.41113" lon="-3.82784">
        <ele>254.19999694824</ele>
        <time>2021-09-12T09:18:15Z</time>
      </trkpt>
      <trkpt lat="48.41115" lon="-3.82784">
        <ele>254.19999694824</ele>
        <time>2021-09-12T09:18:16Z</time>
      </trkpt>
      <trkpt lat="48.41118" lon="-3.82786">
        <ele>254.39999389648</ele>
        <time>2021-09-12T09:18:17Z</time>
      </trkpt>
      <trkpt lat="48.41121" lon="-3.82786">
        <ele>254.60000610352</ele>
        <time>2021-09-12T09:18:18Z</time>
      </trkpt>
      <trkpt lat="48.41124" lon="-3.82787">
        <ele>254.80000305176</ele>
        <time>2021-09-12T09:18:19Z</time>
      </trkpt>
      <trkpt lat="48.41127" lon="-3.82787">
        <ele>254.80000305176</ele>
        <time>2021-09-12T09:18:20Z</time>
      </trkpt>
      <trkpt lat="48.4113" lon="-3.82787">
        <ele>254.80000305176</ele>
        <time>2021-09-12T09:18:21Z</time>
      </trkpt>
      <trkpt lat="48.41133" lon="-3.82788">
        <ele>254.80000305176</ele>
        <time>2021-09-12T09:18:22Z</time>
      </trkpt>
      <trkpt lat="48.41135" lon="-3.82789">
        <ele>254.80000305176</ele>
        <time>2021-09-12T09:18:23Z</time>
      </trkpt>
      <trkpt lat="48.41139" lon="-3.82791">
        <ele>255</ele>
        <time>2021-09-12T09:18:24Z</time>
      </trkpt>
      <trkpt lat="48.41142" lon="-3.82792">
        <ele>255</ele>
        <time>2021-09-12T09:18:25Z</time>
      </trkpt>
      <trkpt lat="48.41145" lon="-3.82794">
        <ele>255</ele>
        <time>2021-09-12T09:18:26Z</time>
      </trkpt>
      <trkpt lat="48.41148" lon="-3.82796">
        <ele>255</ele>
        <time>2021-09-12T09:18:27Z</time>
      </trkpt>
      <trkpt lat="48.41152" lon="-3.82798">
        <ele>255.19999694824</ele>
        <time>2021-09-12T09:18:28Z</time>
      </trkpt>
      <trkpt lat="48.41155" lon="-3.82798">
        <ele>255.19999694824</ele>
        <time>2021-09-12T09:18:29Z</time>
      </trkpt>
      <trkpt lat="48.41158" lon="-3.82799">
        <ele>255.39999389648</ele>
        <time>2021-09-12T09:18:30Z</time>
      </trkpt>
      <trkpt lat="48.41162" lon="-3.828">
        <ele>255.39999389648</ele>
        <time>2021-09-12T09:18:31Z</time>
      </trkpt>
      <trkpt lat="48.41166" lon="-3.82802">
        <ele>255.60000610352</ele>
        <time>2021-09-12T09:18:32Z</time>
      </trkpt>
      <trkpt lat="48.4117" lon="-3.82804">
        <ele>255.60000610352</ele>
        <time>2021-09-12T09:18:33Z</time>
      </trkpt>
      <trkpt lat="48.41173" lon="-3.82806">
        <ele>255.60000610352</ele>
        <time>2021-09-12T09:18:34Z</time>
      </trkpt>
      <trkpt lat="48.41177" lon="-3.82808">
        <ele>255.60000610352</ele>
        <time>2021-09-12T09:18:35Z</time>
      </trkpt>
      <trkpt lat="48.41182" lon="-3.82811">
        <ele>255.60000610352</ele>
        <time>2021-09-12T09:18:36Z</time>
      </trkpt>
      <trkpt lat="48.41186" lon="-3.82812">
        <ele>255.60000610352</ele>
        <time>2021-09-12T09:18:37Z</time>
      </trkpt>
      <trkpt lat="48.4119" lon="-3.82814">
        <ele>255.39999389648</ele>
        <time>2021-09-12T09:18:38Z</time>
      </trkpt>
      <trkpt lat="48.41194" lon="-3.82815">
        <ele>255.39999389648</ele>
        <time>2021-09-12T09:18:39Z</time>
      </trkpt>
      <trkpt lat="48.41198" lon="-3.82816">
        <ele>255.19999694824</ele>
        <time>2021-09-12T09:18:40Z</time>
      </trkpt>
      <trkpt lat="48.41204" lon="-3.82819">
        <ele>255</ele>
        <time>2021-09-12T09:18:41Z</time>
      </trkpt>
      <trkpt lat="48.41209" lon="-3.82822">
        <ele>255</ele>
        <time>2021-09-12T09:18:42Z</time>
      </trkpt>
      <trkpt lat="48.41214" lon="-3.82824">
        <ele>255</ele>
        <time>2021-09-12T09:18:43Z</time>
      </trkpt>
      <trkpt lat="48.41217" lon="-3.82825">
        <ele>255</ele>
        <time>2021-09-12T09:18:44Z</time>
      </trkpt>
      <trkpt lat="48.41221" lon="-3.82827">
        <ele>255</ele>
        <time>2021-09-12T09:18:45Z</time>
      </trkpt>
      <trkpt lat="48.41225" lon="-3.82829">
        <ele>254.80000305176</ele>
        <time>2021-09-12T09:18:46Z</time>
      </trkpt>
      <trkpt lat="48.4123" lon="-3.82833">
        <ele>255</ele>
        <time>2021-09-12T09:18:47Z</time>
      </trkpt>
      <trkpt lat="48.41234" lon="-3.82836">
        <ele>254.80000305176</ele>
        <time>2021-09-12T09:18:48Z</time>
      </trkpt>
      <trkpt lat="48.4124" lon="-3.8284">
        <ele>255</ele>
        <time>2021-09-12T09:18:49Z</time>
      </trkpt>
      <trkpt lat="48.41244" lon="-3.82844">
        <ele>255</ele>
        <time>2021-09-12T09:18:50Z</time>
      </trkpt>
      <trkpt lat="48.41248" lon="-3.82847">
        <ele>255</ele>
        <time>2021-09-12T09:18:51Z</time>
      </trkpt>
      <trkpt lat="48.41252" lon="-3.82849">
        <ele>255</ele>
        <time>2021-09-12T09:18:52Z</time>
      </trkpt>
      <trkpt lat="48.41256" lon="-3.82851">
        <ele>255.19999694824</ele>
        <time>2021-09-12T09:18:53Z</time>
      </trkpt>
      <trkpt lat="48.41261" lon="-3.82854">
        <ele>255.19999694824</ele>
        <time>2021-09-12T09:18:54Z</time>
      </trkpt>
      <trkpt lat="48.41265" lon="-3.82856">
        <ele>255.39999389648</ele>
        <time>2021-09-12T09:18:55Z</time>
      </trkpt>
      <trkpt lat="48.4127" lon="-3.82859">
        <ele>255.39999389648</ele>
        <time>2021-09-12T09:18:56Z</time>
      </trkpt>
      <trkpt lat="48.41274" lon="-3.82862">
        <ele>255.39999389648</ele>
        <time>2021-09-12T09:18:57Z</time>
      </trkpt>
      <trkpt lat="48.41278" lon="-3.82864">
        <ele>255.60000610352</ele>
        <time>2021-09-12T09:18:58Z</time>
      </trkpt>
      <trkpt lat="48.41282" lon="-3.82866">
        <ele>255.60000610352</ele>
        <time>2021-09-12T09:18:59Z</time>
      </trkpt>
      <trkpt lat="48.41287" lon="-3.82869">
        <ele>255.60000610352</ele>
        <time>2021-09-12T09:19:00Z</time>
      </trkpt>
      <trkpt lat="48.41291" lon="-3.82873">
        <ele>255.80000305176</ele>
        <time>2021-09-12T09:19:01Z</time>
      </trkpt>
      <trkpt lat="48.41296" lon="-3.82876">
        <ele>255.80000305176</ele>
        <time>2021-09-12T09:19:02Z</time>
      </trkpt>
      <trkpt lat="48.413" lon="-3.82877">
        <ele>256</ele>
        <time>2021-09-12T09:19:03Z</time>
      </trkpt>
      <trkpt lat="48.41304" lon="-3.82878">
        <ele>256</ele>
        <time>2021-09-12T09:19:04Z</time>
      </trkpt>
      <trkpt lat="48.41309" lon="-3.82882">
        <ele>256</ele>
        <time>2021-09-12T09:19:05Z</time>
      </trkpt>
      <trkpt lat="48.41312" lon="-3.82884">
        <ele>256</ele>
        <time>2021-09-12T09:19:06Z</time>
      </trkpt>
      <trkpt lat="48.41316" lon="-3.82885">
        <ele>256.20001220703</ele>
        <time>2021-09-12T09:19:07Z</time>
      </trkpt>
      <trkpt lat="48.41319" lon="-3.82884">
        <ele>256</ele>
        <time>2021-09-12T09:19:08Z</time>
      </trkpt>
      <trkpt lat="48.41324" lon="-3.82885">
        <ele>256.20001220703</ele>
        <time>2021-09-12T09:19:09Z</time>
      </trkpt>
      <trkpt lat="48.41328" lon="-3.82887">
        <ele>256.20001220703</ele>
        <time>2021-09-12T09:19:10Z</time>
      </trkpt>
      <trkpt lat="48.41332" lon="-3.82887">
        <ele>256.20001220703</ele>
        <time>2021-09-12T09:19:11Z</time>
      </trkpt>
      <trkpt lat="48.41337" lon="-3.82889">
        <ele>256.20001220703</ele>
        <time>2021-09-12T09:19:12Z</time>
      </trkpt>
      <trkpt lat="48.41342" lon="-3.82891">
        <ele>256.20001220703</ele>
        <time>2021-09-12T09:19:13Z</time>
      </trkpt>
      <trkpt lat="48.41347" lon="-3.82893">
        <ele>256.20001220703</ele>
        <time>2021-09-12T09:19:14Z</time>
      </trkpt>
      <trkpt lat="48.41352" lon="-3.82893">
        <ele>256.20001220703</ele>
        <time>2021-09-12T09:19:15Z</time>
      </trkpt>
      <trkpt lat="48.41356" lon="-3.82893">
        <ele>256.20001220703</ele>
        <time>2021-09-12T09:19:16Z</time>
      </trkpt>
      <trkpt lat="48.4136" lon="-3.82894">
        <ele>256.20001220703</ele>
        <time>2021-09-12T09:19:17Z</time>
      </trkpt>
      <trkpt lat="48.41364" lon="-3.82895">
        <ele>256.39999389648</ele>
        <time>2021-09-12T09:19:18Z</time>
      </trkpt>
      <trkpt lat="48.41369" lon="-3.82895">
        <ele>256.39999389648</ele>
        <time>2021-09-12T09:19:19Z</time>
      </trkpt>
      <trkpt lat="48.41374" lon="-3.82897">
        <ele>256.39999389648</ele>
        <time>2021-09-12T09:19:20Z</time>
      </trkpt>
      <trkpt lat="48.41378" lon="-3.829">
        <ele>256.79998779297</ele>
        <time>2021-09-12T09:19:21Z</time>
      </trkpt>
      <trkpt lat="48.41383" lon="-3.82902">
        <ele>256.79998779297</ele>
        <time>2021-09-12T09:19:22Z</time>
      </trkpt>
      <trkpt lat="48.41386" lon="-3.82903">
        <ele>257</ele>
        <time>2021-09-12T09:19:23Z</time>
      </trkpt>
      <trkpt lat="48.4139" lon="-3.82904">
        <ele>257</ele>
        <time>2021-09-12T09:19:24Z</time>
      </trkpt>
      <trkpt lat="48.41394" lon="-3.82904">
        <ele>257.20001220703</ele>
        <time>2021-09-12T09:19:25Z</time>
      </trkpt>
      <trkpt lat="48.41397" lon="-3.82906">
        <ele>257.39999389648</ele>
        <time>2021-09-12T09:19:26Z</time>
      </trkpt>
      <trkpt lat="48.41401" lon="-3.82908">
        <ele>257.39999389648</ele>
        <time>2021-09-12T09:19:27Z</time>
      </trkpt>
      <trkpt lat="48.41404" lon="-3.82909">
        <ele>257.60000610352</ele>
        <time>2021-09-12T09:19:28Z</time>
      </trkpt>
      <trkpt lat="48.41408" lon="-3.82911">
        <ele>257.79998779297</ele>
        <time>2021-09-12T09:19:29Z</time>
      </trkpt>
      <trkpt lat="48.41411" lon="-3.82913">
        <ele>257.79998779297</ele>
        <time>2021-09-12T09:19:30Z</time>
      </trkpt>
      <trkpt lat="48.41414" lon="-3.82915">
        <ele>258</ele>
        <time>2021-09-12T09:19:31Z</time>
      </trkpt>
      <trkpt lat="48.41417" lon="-3.82916">
        <ele>258.20001220703</ele>
        <time>2021-09-12T09:19:32Z</time>
      </trkpt>
      <trkpt lat="48.41421" lon="-3.82918">
        <ele>258.79998779297</ele>
        <time>2021-09-12T09:19:33Z</time>
      </trkpt>
      <trkpt lat="48.41424" lon="-3.8292">
        <ele>258.79998779297</ele>
        <time>2021-09-12T09:19:34Z</time>
      </trkpt>
      <trkpt lat="48.41427" lon="-3.82921">
        <ele>259</ele>
        <time>2021-09-12T09:19:35Z</time>
      </trkpt>
      <trkpt lat="48.4143" lon="-3.82923">
        <ele>259.39999389648</ele>
        <time>2021-09-12T09:19:36Z</time>
      </trkpt>
      <trkpt lat="48.41433" lon="-3.82925">
        <ele>259.79998779297</ele>
        <time>2021-09-12T09:19:37Z</time>
      </trkpt>
      <trkpt lat="48.41435" lon="-3.82925">
        <ele>260</ele>
        <time>2021-09-12T09:19:38Z</time>
      </trkpt>
      <trkpt lat="48.41438" lon="-3.82927">
        <ele>260.60000610352</ele>
        <time>2021-09-12T09:19:39Z</time>
      </trkpt>
      <trkpt lat="48.4144" lon="-3.82928">
        <ele>261</ele>
        <time>2021-09-12T09:19:40Z</time>
      </trkpt>
      <trkpt lat="48.41443" lon="-3.8293">
        <ele>261.20001220703</ele>
        <time>2021-09-12T09:19:41Z</time>
      </trkpt>
      <trkpt lat="48.41446" lon="-3.82932">
        <ele>261.20001220703</ele>
        <time>2021-09-12T09:19:42Z</time>
      </trkpt>
      <trkpt lat="48.41449" lon="-3.82934">
        <ele>261.20001220703</ele>
        <time>2021-09-12T09:19:43Z</time>
      </trkpt>
      <trkpt lat="48.41452" lon="-3.82935">
        <ele>261.39999389648</ele>
        <time>2021-09-12T09:19:44Z</time>
      </trkpt>
      <trkpt lat="48.41456" lon="-3.82935">
        <ele>261.79998779297</ele>
        <time>2021-09-12T09:19:45Z</time>
      </trkpt>
      <trkpt lat="48.41458" lon="-3.82934">
        <ele>261.79998779297</ele>
        <time>2021-09-12T09:19:46Z</time>
      </trkpt>
      <trkpt lat="48.41461" lon="-3.82934">
        <ele>262</ele>
        <time>2021-09-12T09:19:47Z</time>
      </trkpt>
      <trkpt lat="48.41464" lon="-3.82936">
        <ele>262</ele>
        <time>2021-09-12T09:19:48Z</time>
      </trkpt>
      <trkpt lat="48.41466" lon="-3.82937">
        <ele>262.20001220703</ele>
        <time>2021-09-12T09:19:49Z</time>
      </trkpt>
      <trkpt lat="48.41469" lon="-3.82938">
        <ele>262.39999389648</ele>
        <time>2021-09-12T09:19:50Z</time>
      </trkpt>
      <trkpt lat="48.41472" lon="-3.8294">
        <ele>262.39999389648</ele>
        <time>2021-09-12T09:19:51Z</time>
      </trkpt>
      <trkpt lat="48.41474" lon="-3.82941">
        <ele>262.60000610352</ele>
        <time>2021-09-12T09:19:52Z</time>
      </trkpt>
      <trkpt lat="48.41477" lon="-3.82942">
        <ele>262.60000610352</ele>
        <time>2021-09-12T09:19:53Z</time>
      </trkpt>
      <trkpt lat="48.4148" lon="-3.82944">
        <ele>262.60000610352</ele>
        <time>2021-09-12T09:19:54Z</time>
      </trkpt>
      <trkpt lat="48.41482" lon="-3.82945">
        <ele>262.60000610352</ele>
        <time>2021-09-12T09:19:55Z</time>
      </trkpt>
      <trkpt lat="48.41483" lon="-3.82946">
        <ele>262.79998779297</ele>
        <time>2021-09-12T09:19:56Z</time>
      </trkpt>
      <trkpt lat="48.41486" lon="-3.82946">
        <ele>263</ele>
        <time>2021-09-12T09:19:57Z</time>
      </trkpt>
      <trkpt lat="48.4149" lon="-3.82948">
        <ele>263</ele>
        <time>2021-09-12T09:19:58Z</time>
      </trkpt>
      <trkpt lat="48.41492" lon="-3.82948">
        <ele>263</ele>
        <time>2021-09-12T09:19:59Z</time>
      </trkpt>
      <trkpt lat="48.41495" lon="-3.82949">
        <ele>263</ele>
        <time>2021-09-12T09:20:00Z</time>
      </trkpt>
      <trkpt lat="48.41498" lon="-3.8295">
        <ele>263.20001220703</ele>
        <time>2021-09-12T09:20:01Z</time>
      </trkpt>
      <trkpt lat="48.41501" lon="-3.82951">
        <ele>263.20001220703</ele>
        <time>2021-09-12T09:20:02Z</time>
      </trkpt>
      <trkpt lat="48.41504" lon="-3.82951">
        <ele>263.20001220703</ele>
        <time>2021-09-12T09:20:03Z</time>
      </trkpt>
      <trkpt lat="48.41507" lon="-3.82951">
        <ele>263.39999389648</ele>
        <time>2021-09-12T09:20:04Z</time>
      </trkpt>
      <trkpt lat="48.41509" lon="-3.82951">
        <ele>263.60000610352</ele>
        <time>2021-09-12T09:20:05Z</time>
      </trkpt>
      <trkpt lat="48.41511" lon="-3.82951">
        <ele>263.60000610352</ele>
        <time>2021-09-12T09:20:06Z</time>
      </trkpt>
      <trkpt lat="48.41514" lon="-3.82951">
        <ele>264</ele>
        <time>2021-09-12T09:20:07Z</time>
      </trkpt>
      <trkpt lat="48.41516" lon="-3.82951">
        <ele>264</ele>
        <time>2021-09-12T09:20:08Z</time>
      </trkpt>
      <trkpt lat="48.41518" lon="-3.82951">
        <ele>264.20001220703</ele>
        <time>2021-09-12T09:20:09Z</time>
      </trkpt>
      <trkpt lat="48.41521" lon="-3.8295">
        <ele>264.60000610352</ele>
        <time>2021-09-12T09:20:10Z</time>
      </trkpt>
      <trkpt lat="48.41524" lon="-3.82949">
        <ele>264.79998779297</ele>
        <time>2021-09-12T09:20:11Z</time>
      </trkpt>
      <trkpt lat="48.41527" lon="-3.82947">
        <ele>265</ele>
        <time>2021-09-12T09:20:12Z</time>
      </trkpt>
      <trkpt lat="48.41531" lon="-3.82946">
        <ele>265.39999389648</ele>
        <time>2021-09-12T09:20:13Z</time>
      </trkpt>
      <trkpt lat="48.41534" lon="-3.82945">
        <ele>265.60000610352</ele>
        <time>2021-09-12T09:20:14Z</time>
      </trkpt>
      <trkpt lat="48.41536" lon="-3.82944">
        <ele>266</ele>
        <time>2021-09-12T09:20:15Z</time>
      </trkpt>
      <trkpt lat="48.41539" lon="-3.82943">
        <ele>266.20001220703</ele>
        <time>2021-09-12T09:20:16Z</time>
      </trkpt>
      <trkpt lat="48.41542" lon="-3.82941">
        <ele>266.79998779297</ele>
        <time>2021-09-12T09:20:17Z</time>
      </trkpt>
      <trkpt lat="48.41545" lon="-3.82939">
        <ele>267</ele>
        <time>2021-09-12T09:20:18Z</time>
      </trkpt>
      <trkpt lat="48.41548" lon="-3.82936">
        <ele>267.60000610352</ele>
        <time>2021-09-12T09:20:19Z</time>
      </trkpt>
      <trkpt lat="48.4155" lon="-3.82935">
        <ele>267.60000610352</ele>
        <time>2021-09-12T09:20:20Z</time>
      </trkpt>
      <trkpt lat="48.41554" lon="-3.82932">
        <ele>267.79998779297</ele>
        <time>2021-09-12T09:20:21Z</time>
      </trkpt>
      <trkpt lat="48.41557" lon="-3.8293">
        <ele>267.79998779297</ele>
        <time>2021-09-12T09:20:22Z</time>
      </trkpt>
      <trkpt lat="48.41561" lon="-3.82927">
        <ele>268</ele>
        <time>2021-09-12T09:20:23Z</time>
      </trkpt>
      <trkpt lat="48.41564" lon="-3.82925">
        <ele>268</ele>
        <time>2021-09-12T09:20:24Z</time>
      </trkpt>
      <trkpt lat="48.41567" lon="-3.82923">
        <ele>268</ele>
        <time>2021-09-12T09:20:25Z</time>
      </trkpt>
      <trkpt lat="48.41571" lon="-3.82922">
        <ele>268</ele>
        <time>2021-09-12T09:20:26Z</time>
      </trkpt>
      <trkpt lat="48.41576" lon="-3.82922">
        <ele>268</ele>
        <time>2021-09-12T09:20:27Z</time>
      </trkpt>
      <trkpt lat="48.41578" lon="-3.82923">
        <ele>267.79998779297</ele>
        <time>2021-09-12T09:20:28Z</time>
      </trkpt>
      <trkpt lat="48.41582" lon="-3.82924">
        <ele>267.79998779297</ele>
        <time>2021-09-12T09:20:29Z</time>
      </trkpt>
      <trkpt lat="48.41586" lon="-3.82925">
        <ele>267.60000610352</ele>
        <time>2021-09-12T09:20:30Z</time>
      </trkpt>
      <trkpt lat="48.4159" lon="-3.82928">
        <ele>267.60000610352</ele>
        <time>2021-09-12T09:20:31Z</time>
      </trkpt>
      <trkpt lat="48.41595" lon="-3.82931">
        <ele>267.60000610352</ele>
        <time>2021-09-12T09:20:32Z</time>
      </trkpt>
      <trkpt lat="48.41599" lon="-3.82935">
        <ele>267.39999389648</ele>
        <time>2021-09-12T09:20:33Z</time>
      </trkpt>
      <trkpt lat="48.41603" lon="-3.82939">
        <ele>267.39999389648</ele>
        <time>2021-09-12T09:20:34Z</time>
      </trkpt>
      <trkpt lat="48.41606" lon="-3.82943">
        <ele>267.39999389648</ele>
        <time>2021-09-12T09:20:35Z</time>
      </trkpt>
      <trkpt lat="48.41609" lon="-3.82947">
        <ele>267.39999389648</ele>
        <time>2021-09-12T09:20:36Z</time>
      </trkpt>
      <trkpt lat="48.41611" lon="-3.82952">
        <ele>267.39999389648</ele>
        <time>2021-09-12T09:20:37Z</time>
      </trkpt>
      <trkpt lat="48.41613" lon="-3.82957">
        <ele>267.39999389648</ele>
        <time>2021-09-12T09:20:38Z</time>
      </trkpt>
      <trkpt lat="48.41616" lon="-3.82961">
        <ele>267.39999389648</ele>
        <time>2021-09-12T09:20:39Z</time>
      </trkpt>
      <trkpt lat="48.4162" lon="-3.82964">
        <ele>267.39999389648</ele>
        <time>2021-09-12T09:20:40Z</time>
      </trkpt>
      <trkpt lat="48.41623" lon="-3.82965">
        <ele>267.39999389648</ele>
        <time>2021-09-12T09:20:41Z</time>
      </trkpt>
      <trkpt lat="48.41627" lon="-3.82965">
        <ele>267.39999389648</ele>
        <time>2021-09-12T09:20:42Z</time>
      </trkpt>
      <trkpt lat="48.41631" lon="-3.82963">
        <ele>267.39999389648</ele>
        <time>2021-09-12T09:20:43Z</time>
      </trkpt>
      <trkpt lat="48.41635" lon="-3.82962">
        <ele>267.20001220703</ele>
        <time>2021-09-12T09:20:44Z</time>
      </trkpt>
      <trkpt lat="48.41638" lon="-3.82961">
        <ele>267.39999389648</ele>
        <time>2021-09-12T09:20:45Z</time>
      </trkpt>
      <trkpt lat="48.41642" lon="-3.82961">
        <ele>267.39999389648</ele>
        <time>2021-09-12T09:20:46Z</time>
      </trkpt>
      <trkpt lat="48.41645" lon="-3.82961">
        <ele>267.39999389648</ele>
        <time>2021-09-12T09:20:47Z</time>
      </trkpt>
      <trkpt lat="48.41649" lon="-3.82961">
        <ele>267.60000610352</ele>
        <time>2021-09-12T09:20:48Z</time>
      </trkpt>
      <trkpt lat="48.41651" lon="-3.8296">
        <ele>267.39999389648</ele>
        <time>2021-09-12T09:20:49Z</time>
      </trkpt>
      <trkpt lat="48.41654" lon="-3.8296">
        <ele>267.39999389648</ele>
        <time>2021-09-12T09:20:50Z</time>
      </trkpt>
      <trkpt lat="48.41657" lon="-3.8296">
        <ele>267.39999389648</ele>
        <time>2021-09-12T09:20:51Z</time>
      </trkpt>
      <trkpt lat="48.41659" lon="-3.8296">
        <ele>267.39999389648</ele>
        <time>2021-09-12T09:20:52Z</time>
      </trkpt>
      <trkpt lat="48.41661" lon="-3.8296">
        <ele>267.39999389648</ele>
        <time>2021-09-12T09:20:53Z</time>
      </trkpt>
      <trkpt lat="48.41663" lon="-3.82958">
        <ele>267.39999389648</ele>
        <time>2021-09-12T09:20:54Z</time>
      </trkpt>
      <trkpt lat="48.41665" lon="-3.82957">
        <ele>267.39999389648</ele>
        <time>2021-09-12T09:20:55Z</time>
      </trkpt>
      <trkpt lat="48.41667" lon="-3.82955">
        <ele>267.60000610352</ele>
        <time>2021-09-12T09:20:56Z</time>
      </trkpt>
      <trkpt lat="48.41668" lon="-3.82954">
        <ele>267.60000610352</ele>
        <time>2021-09-12T09:20:57Z</time>
      </trkpt>
      <trkpt lat="48.4167" lon="-3.82952">
        <ele>267.60000610352</ele>
        <time>2021-09-12T09:20:58Z</time>
      </trkpt>
      <trkpt lat="48.41672" lon="-3.8295">
        <ele>267.79998779297</ele>
        <time>2021-09-12T09:20:59Z</time>
      </trkpt>
      <trkpt lat="48.41674" lon="-3.82948">
        <ele>267.79998779297</ele>
        <time>2021-09-12T09:21:00Z</time>
      </trkpt>
      <trkpt lat="48.41675" lon="-3.82946">
        <ele>268</ele>
        <time>2021-09-12T09:21:01Z</time>
      </trkpt>
      <trkpt lat="48.41677" lon="-3.82944">
        <ele>268</ele>
        <time>2021-09-12T09:21:02Z</time>
      </trkpt>
      <trkpt lat="48.41678" lon="-3.82942">
        <ele>268</ele>
        <time>2021-09-12T09:21:03Z</time>
      </trkpt>
      <trkpt lat="48.4168" lon="-3.8294">
        <ele>268.20001220703</ele>
        <time>2021-09-12T09:21:04Z</time>
      </trkpt>
      <trkpt lat="48.41681" lon="-3.82939">
        <ele>268.20001220703</ele>
        <time>2021-09-12T09:21:05Z</time>
      </trkpt>
      <trkpt lat="48.41683" lon="-3.82937">
        <ele>268.39999389648</ele>
        <time>2021-09-12T09:21:06Z</time>
      </trkpt>
      <trkpt lat="48.41684" lon="-3.82935">
        <ele>268.39999389648</ele>
        <time>2021-09-12T09:21:07Z</time>
      </trkpt>
      <trkpt lat="48.41686" lon="-3.82933">
        <ele>268.39999389648</ele>
        <time>2021-09-12T09:21:08Z</time>
      </trkpt>
      <trkpt lat="48.41688" lon="-3.82932">
        <ele>268.60000610352</ele>
        <time>2021-09-12T09:21:09Z</time>
      </trkpt>
      <trkpt lat="48.4169" lon="-3.8293">
        <ele>268.79998779297</ele>
        <time>2021-09-12T09:21:10Z</time>
      </trkpt>
      <trkpt lat="48.41692" lon="-3.82928">
        <ele>269</ele>
        <time>2021-09-12T09:21:11Z</time>
      </trkpt>
      <trkpt lat="48.41694" lon="-3.82925">
        <ele>269.20001220703</ele>
        <time>2021-09-12T09:21:12Z</time>
      </trkpt>
      <trkpt lat="48.41696" lon="-3.82923">
        <ele>269.39999389648</ele>
        <time>2021-09-12T09:21:13Z</time>
      </trkpt>
      <trkpt lat="48.41698" lon="-3.82922">
        <ele>269.60000610352</ele>
        <time>2021-09-12T09:21:14Z</time>
      </trkpt>
      <trkpt lat="48.41701" lon="-3.82919">
        <ele>269.60000610352</ele>
        <time>2021-09-12T09:21:15Z</time>
      </trkpt>
      <trkpt lat="48.41704" lon="-3.82914">
        <ele>269.60000610352</ele>
        <time>2021-09-12T09:21:16Z</time>
      </trkpt>
      <trkpt lat="48.41707" lon="-3.82912">
        <ele>269.60000610352</ele>
        <time>2021-09-12T09:21:17Z</time>
      </trkpt>
      <trkpt lat="48.41709" lon="-3.82909">
        <ele>269.60000610352</ele>
        <time>2021-09-12T09:21:18Z</time>
      </trkpt>
      <trkpt lat="48.41712" lon="-3.82906">
        <ele>269.79998779297</ele>
        <time>2021-09-12T09:21:19Z</time>
      </trkpt>
      <trkpt lat="48.41713" lon="-3.82903">
        <ele>269.79998779297</ele>
        <time>2021-09-12T09:21:20Z</time>
      </trkpt>
      <trkpt lat="48.41715" lon="-3.82902">
        <ele>269.79998779297</ele>
        <time>2021-09-12T09:21:21Z</time>
      </trkpt>
      <trkpt lat="48.41717" lon="-3.82901">
        <ele>269.79998779297</ele>
        <time>2021-09-12T09:21:22Z</time>
      </trkpt>
      <trkpt lat="48.41719" lon="-3.829">
        <ele>269.79998779297</ele>
        <time>2021-09-12T09:21:23Z</time>
      </trkpt>
      <trkpt lat="48.4172" lon="-3.82899">
        <ele>270</ele>
        <time>2021-09-12T09:21:24Z</time>
      </trkpt>
      <trkpt lat="48.41722" lon="-3.82899">
        <ele>270</ele>
        <time>2021-09-12T09:21:25Z</time>
      </trkpt>
      <trkpt lat="48.41723" lon="-3.82896">
        <ele>270</ele>
        <time>2021-09-12T09:21:26Z</time>
      </trkpt>
      <trkpt lat="48.41723" lon="-3.82894">
        <ele>270</ele>
        <time>2021-09-12T09:21:27Z</time>
      </trkpt>
      <trkpt lat="48.41725" lon="-3.82893">
        <ele>270.20001220703</ele>
        <time>2021-09-12T09:21:28Z</time>
      </trkpt>
      <trkpt lat="48.41727" lon="-3.82891">
        <ele>270.20001220703</ele>
        <time>2021-09-12T09:21:29Z</time>
      </trkpt>
      <trkpt lat="48.41729" lon="-3.82889">
        <ele>270.20001220703</ele>
        <time>2021-09-12T09:21:30Z</time>
      </trkpt>
      <trkpt lat="48.41732" lon="-3.82888">
        <ele>270.39999389648</ele>
        <time>2021-09-12T09:21:31Z</time>
      </trkpt>
      <trkpt lat="48.41734" lon="-3.82888">
        <ele>270.39999389648</ele>
        <time>2021-09-12T09:21:32Z</time>
      </trkpt>
      <trkpt lat="48.41735" lon="-3.82886">
        <ele>270.60000610352</ele>
        <time>2021-09-12T09:21:33Z</time>
      </trkpt>
      <trkpt lat="48.41737" lon="-3.82885">
        <ele>270.79998779297</ele>
        <time>2021-09-12T09:21:34Z</time>
      </trkpt>
      <trkpt lat="48.41738" lon="-3.82883">
        <ele>271</ele>
        <time>2021-09-12T09:21:35Z</time>
      </trkpt>
      <trkpt lat="48.41741" lon="-3.82882">
        <ele>271</ele>
        <time>2021-09-12T09:21:36Z</time>
      </trkpt>
      <trkpt lat="48.41743" lon="-3.8288">
        <ele>271.20001220703</ele>
        <time>2021-09-12T09:21:37Z</time>
      </trkpt>
      <trkpt lat="48.41746" lon="-3.82878">
        <ele>271.39999389648</ele>
        <time>2021-09-12T09:21:38Z</time>
      </trkpt>
      <trkpt lat="48.41747" lon="-3.82876">
        <ele>271.39999389648</ele>
        <time>2021-09-12T09:21:39Z</time>
      </trkpt>
      <trkpt lat="48.41748" lon="-3.82875">
        <ele>271.39999389648</ele>
        <time>2021-09-12T09:21:40Z</time>
      </trkpt>
      <trkpt lat="48.41749" lon="-3.82874">
        <ele>271.79998779297</ele>
        <time>2021-09-12T09:21:41Z</time>
      </trkpt>
      <trkpt lat="48.4175" lon="-3.82874">
        <ele>271.79998779297</ele>
        <time>2021-09-12T09:21:42Z</time>
      </trkpt>
      <trkpt lat="48.4175" lon="-3.82873">
        <ele>272</ele>
        <time>2021-09-12T09:21:43Z</time>
      </trkpt>
      <trkpt lat="48.4175" lon="-3.82873">
        <ele>272</ele>
        <time>2021-09-12T09:21:44Z</time>
      </trkpt>
      <trkpt lat="48.41751" lon="-3.82872">
        <ele>272</ele>
        <time>2021-09-12T09:21:45Z</time>
      </trkpt>
      <trkpt lat="48.41752" lon="-3.82872">
        <ele>272</ele>
        <time>2021-09-12T09:21:46Z</time>
      </trkpt>
      <trkpt lat="48.41753" lon="-3.82871">
        <ele>272.20001220703</ele>
        <time>2021-09-12T09:21:47Z</time>
      </trkpt>
      <trkpt lat="48.41754" lon="-3.82871">
        <ele>272.20001220703</ele>
        <time>2021-09-12T09:21:48Z</time>
      </trkpt>
      <trkpt lat="48.41754" lon="-3.8287">
        <ele>272</ele>
        <time>2021-09-12T09:21:49Z</time>
      </trkpt>
      <trkpt lat="48.41755" lon="-3.82869">
        <ele>272</ele>
        <time>2021-09-12T09:21:50Z</time>
      </trkpt>
      <trkpt lat="48.41756" lon="-3.82869">
        <ele>272</ele>
        <time>2021-09-12T09:21:51Z</time>
      </trkpt>
      <trkpt lat="48.41758" lon="-3.82868">
        <ele>272.20001220703</ele>
        <time>2021-09-12T09:21:52Z</time>
      </trkpt>
      <trkpt lat="48.41759" lon="-3.82868">
        <ele>272.39999389648</ele>
        <time>2021-09-12T09:21:53Z</time>
      </trkpt>
      <trkpt lat="48.41761" lon="-3.82866">
        <ele>272.39999389648</ele>
        <time>2021-09-12T09:21:54Z</time>
      </trkpt>
      <trkpt lat="48.41763" lon="-3.82864">
        <ele>272.39999389648</ele>
        <time>2021-09-12T09:21:55Z</time>
      </trkpt>
      <trkpt lat="48.41765" lon="-3.82861">
        <ele>272.39999389648</ele>
        <time>2021-09-12T09:21:56Z</time>
      </trkpt>
      <trkpt lat="48.41767" lon="-3.8286">
        <ele>272.60000610352</ele>
        <time>2021-09-12T09:21:57Z</time>
      </trkpt>
      <trkpt lat="48.41769" lon="-3.82859">
        <ele>272.60000610352</ele>
        <time>2021-09-12T09:21:58Z</time>
      </trkpt>
      <trkpt lat="48.41771" lon="-3.82858">
        <ele>272.60000610352</ele>
        <time>2021-09-12T09:21:59Z</time>
      </trkpt>
      <trkpt lat="48.41773" lon="-3.82856">
        <ele>272.60000610352</ele>
        <time>2021-09-12T09:22:00Z</time>
      </trkpt>
      <trkpt lat="48.41776" lon="-3.82854">
        <ele>272.60000610352</ele>
        <time>2021-09-12T09:22:01Z</time>
      </trkpt>
      <trkpt lat="48.41778" lon="-3.82853">
        <ele>272.60000610352</ele>
        <time>2021-09-12T09:22:02Z</time>
      </trkpt>
      <trkpt lat="48.41781" lon="-3.82852">
        <ele>272.79998779297</ele>
        <time>2021-09-12T09:22:03Z</time>
      </trkpt>
      <trkpt lat="48.41784" lon="-3.82852">
        <ele>272.79998779297</ele>
        <time>2021-09-12T09:22:04Z</time>
      </trkpt>
      <trkpt lat="48.41788" lon="-3.82852">
        <ele>272.79998779297</ele>
        <time>2021-09-12T09:22:05Z</time>
      </trkpt>
      <trkpt lat="48.41791" lon="-3.82854">
        <ele>272.79998779297</ele>
        <time>2021-09-12T09:22:06Z</time>
      </trkpt>
      <trkpt lat="48.41794" lon="-3.82854">
        <ele>272.79998779297</ele>
        <time>2021-09-12T09:22:07Z</time>
      </trkpt>
      <trkpt lat="48.41797" lon="-3.82856">
        <ele>273</ele>
        <time>2021-09-12T09:22:08Z</time>
      </trkpt>
      <trkpt lat="48.41801" lon="-3.82857">
        <ele>273</ele>
        <time>2021-09-12T09:22:09Z</time>
      </trkpt>
      <trkpt lat="48.41806" lon="-3.82858">
        <ele>273.20001220703</ele>
        <time>2021-09-12T09:22:10Z</time>
      </trkpt>
      <trkpt lat="48.4181" lon="-3.82859">
        <ele>273.20001220703</ele>
        <time>2021-09-12T09:22:11Z</time>
      </trkpt>
      <trkpt lat="48.41813" lon="-3.8286">
        <ele>273.20001220703</ele>
        <time>2021-09-12T09:22:12Z</time>
      </trkpt>
      <trkpt lat="48.41816" lon="-3.82862">
        <ele>273.39999389648</ele>
        <time>2021-09-12T09:22:13Z</time>
      </trkpt>
      <trkpt lat="48.4182" lon="-3.82863">
        <ele>273.39999389648</ele>
        <time>2021-09-12T09:22:14Z</time>
      </trkpt>
      <trkpt lat="48.41825" lon="-3.82863">
        <ele>273.60000610352</ele>
        <time>2021-09-12T09:22:15Z</time>
      </trkpt>
      <trkpt lat="48.4183" lon="-3.82865">
        <ele>273.60000610352</ele>
        <time>2021-09-12T09:22:16Z</time>
      </trkpt>
      <trkpt lat="48.41834" lon="-3.82868">
        <ele>273.60000610352</ele>
        <time>2021-09-12T09:22:17Z</time>
      </trkpt>
      <trkpt lat="48.41837" lon="-3.82871">
        <ele>273.79998779297</ele>
        <time>2021-09-12T09:22:18Z</time>
      </trkpt>
      <trkpt lat="48.4184" lon="-3.82872">
        <ele>273.79998779297</ele>
        <time>2021-09-12T09:22:19Z</time>
      </trkpt>
      <trkpt lat="48.41843" lon="-3.82873">
        <ele>273.79998779297</ele>
        <time>2021-09-12T09:22:20Z</time>
      </trkpt>
      <trkpt lat="48.41847" lon="-3.82874">
        <ele>273.79998779297</ele>
        <time>2021-09-12T09:22:21Z</time>
      </trkpt>
      <trkpt lat="48.41849" lon="-3.82872">
        <ele>273.79998779297</ele>
        <time>2021-09-12T09:22:22Z</time>
      </trkpt>
      <trkpt lat="48.41852" lon="-3.8287">
        <ele>274.20001220703</ele>
        <time>2021-09-12T09:22:23Z</time>
      </trkpt>
      <trkpt lat="48.41856" lon="-3.82867">
        <ele>274.20001220703</ele>
        <time>2021-09-12T09:22:24Z</time>
      </trkpt>
      <trkpt lat="48.41861" lon="-3.82863">
        <ele>274.39999389648</ele>
        <time>2021-09-12T09:22:25Z</time>
      </trkpt>
      <trkpt lat="48.41864" lon="-3.8286">
        <ele>274.60000610352</ele>
        <time>2021-09-12T09:22:26Z</time>
      </trkpt>
      <trkpt lat="48.41867" lon="-3.82857">
        <ele>274.79998779297</ele>
        <time>2021-09-12T09:22:27Z</time>
      </trkpt>
      <trkpt lat="48.41869" lon="-3.82856">
        <ele>274.79998779297</ele>
        <time>2021-09-12T09:22:28Z</time>
      </trkpt>
      <trkpt lat="48.4187" lon="-3.82855">
        <ele>275.20001220703</ele>
        <time>2021-09-12T09:22:29Z</time>
      </trkpt>
      <trkpt lat="48.41872" lon="-3.82852">
        <ele>275.20001220703</ele>
        <time>2021-09-12T09:22:30Z</time>
      </trkpt>
      <trkpt lat="48.41874" lon="-3.82851">
        <ele>275.39999389648</ele>
        <time>2021-09-12T09:22:31Z</time>
      </trkpt>
      <trkpt lat="48.41876" lon="-3.82849">
        <ele>275.39999389648</ele>
        <time>2021-09-12T09:22:32Z</time>
      </trkpt>
      <trkpt lat="48.41878" lon="-3.82847">
        <ele>275.79998779297</ele>
        <time>2021-09-12T09:22:33Z</time>
      </trkpt>
      <trkpt lat="48.4188" lon="-3.82842">
        <ele>275.79998779297</ele>
        <time>2021-09-12T09:22:34Z</time>
      </trkpt>
      <trkpt lat="48.41882" lon="-3.82837">
        <ele>276</ele>
        <time>2021-09-12T09:22:35Z</time>
      </trkpt>
      <trkpt lat="48.41884" lon="-3.82834">
        <ele>276.20001220703</ele>
        <time>2021-09-12T09:22:36Z</time>
      </trkpt>
      <trkpt lat="48.41886" lon="-3.8283">
        <ele>276.20001220703</ele>
        <time>2021-09-12T09:22:37Z</time>
      </trkpt>
      <trkpt lat="48.41888" lon="-3.82826">
        <ele>276.60000610352</ele>
        <time>2021-09-12T09:22:38Z</time>
      </trkpt>
      <trkpt lat="48.4189" lon="-3.82825">
        <ele>276.60000610352</ele>
        <time>2021-09-12T09:22:39Z</time>
      </trkpt>
      <trkpt lat="48.41893" lon="-3.82823">
        <ele>277</ele>
        <time>2021-09-12T09:22:40Z</time>
      </trkpt>
      <trkpt lat="48.41895" lon="-3.82822">
        <ele>277</ele>
        <time>2021-09-12T09:22:41Z</time>
      </trkpt>
      <trkpt lat="48.41897" lon="-3.82821">
        <ele>277.20001220703</ele>
        <time>2021-09-12T09:22:42Z</time>
      </trkpt>
      <trkpt lat="48.41899" lon="-3.8282">
        <ele>277.60000610352</ele>
        <time>2021-09-12T09:22:43Z</time>
      </trkpt>
      <trkpt lat="48.41901" lon="-3.82818">
        <ele>277.79998779297</ele>
        <time>2021-09-12T09:22:44Z</time>
      </trkpt>
      <trkpt lat="48.41903" lon="-3.82814">
        <ele>277.79998779297</ele>
        <time>2021-09-12T09:22:45Z</time>
      </trkpt>
      <trkpt lat="48.41905" lon="-3.82811">
        <ele>278.20001220703</ele>
        <time>2021-09-12T09:22:46Z</time>
      </trkpt>
      <trkpt lat="48.41907" lon="-3.82809">
        <ele>278.79998779297</ele>
        <time>2021-09-12T09:22:47Z</time>
      </trkpt>
      <trkpt lat="48.41909" lon="-3.82806">
        <ele>279</ele>
        <time>2021-09-12T09:22:48Z</time>
      </trkpt>
      <trkpt lat="48.4191" lon="-3.82803">
        <ele>279.39999389648</ele>
        <time>2021-09-12T09:22:49Z</time>
      </trkpt>
      <trkpt lat="48.41911" lon="-3.828">
        <ele>279.60000610352</ele>
        <time>2021-09-12T09:22:50Z</time>
      </trkpt>
      <trkpt lat="48.41913" lon="-3.82798">
        <ele>280</ele>
        <time>2021-09-12T09:22:51Z</time>
      </trkpt>
      <trkpt lat="48.41914" lon="-3.82795">
        <ele>280</ele>
        <time>2021-09-12T09:22:52Z</time>
      </trkpt>
      <trkpt lat="48.41915" lon="-3.82792">
        <ele>280.39999389648</ele>
        <time>2021-09-12T09:22:53Z</time>
      </trkpt>
      <trkpt lat="48.41916" lon="-3.8279">
        <ele>280.39999389648</ele>
        <time>2021-09-12T09:22:54Z</time>
      </trkpt>
      <trkpt lat="48.41917" lon="-3.82787">
        <ele>280.60000610352</ele>
        <time>2021-09-12T09:22:55Z</time>
      </trkpt>
      <trkpt lat="48.41918" lon="-3.82783">
        <ele>280.79998779297</ele>
        <time>2021-09-12T09:22:56Z</time>
      </trkpt>
      <trkpt lat="48.41918" lon="-3.82779">
        <ele>281</ele>
        <time>2021-09-12T09:22:57Z</time>
      </trkpt>
      <trkpt lat="48.4192" lon="-3.82774">
        <ele>281</ele>
        <time>2021-09-12T09:22:58Z</time>
      </trkpt>
      <trkpt lat="48.4192" lon="-3.82771">
        <ele>281.39999389648</ele>
        <time>2021-09-12T09:22:59Z</time>
      </trkpt>
      <trkpt lat="48.41921" lon="-3.82767">
        <ele>281.60000610352</ele>
        <time>2021-09-12T09:23:00Z</time>
      </trkpt>
      <trkpt lat="48.41923" lon="-3.82761">
        <ele>281.60000610352</ele>
        <time>2021-09-12T09:23:01Z</time>
      </trkpt>
      <trkpt lat="48.41924" lon="-3.82757">
        <ele>281.79998779297</ele>
        <time>2021-09-12T09:23:02Z</time>
      </trkpt>
      <trkpt lat="48.41926" lon="-3.82753">
        <ele>281.79998779297</ele>
        <time>2021-09-12T09:23:03Z</time>
      </trkpt>
      <trkpt lat="48.41927" lon="-3.8275">
        <ele>281.79998779297</ele>
        <time>2021-09-12T09:23:04Z</time>
      </trkpt>
      <trkpt lat="48.41928" lon="-3.82747">
        <ele>282</ele>
        <time>2021-09-12T09:23:05Z</time>
      </trkpt>
      <trkpt lat="48.41929" lon="-3.82743">
        <ele>282.20001220703</ele>
        <time>2021-09-12T09:23:06Z</time>
      </trkpt>
      <trkpt lat="48.41931" lon="-3.82739">
        <ele>282.20001220703</ele>
        <time>2021-09-12T09:23:07Z</time>
      </trkpt>
      <trkpt lat="48.41932" lon="-3.82734">
        <ele>282.20001220703</ele>
        <time>2021-09-12T09:23:08Z</time>
      </trkpt>
      <trkpt lat="48.41934" lon="-3.82729">
        <ele>282.20001220703</ele>
        <time>2021-09-12T09:23:09Z</time>
      </trkpt>
      <trkpt lat="48.41935" lon="-3.82723">
        <ele>282.20001220703</ele>
        <time>2021-09-12T09:23:10Z</time>
      </trkpt>
      <trkpt lat="48.41936" lon="-3.82719">
        <ele>282.20001220703</ele>
        <time>2021-09-12T09:23:11Z</time>
      </trkpt>
      <trkpt lat="48.41938" lon="-3.82716">
        <ele>282.39999389648</ele>
        <time>2021-09-12T09:23:12Z</time>
      </trkpt>
      <trkpt lat="48.4194" lon="-3.82714">
        <ele>282.60000610352</ele>
        <time>2021-09-12T09:23:13Z</time>
      </trkpt>
      <trkpt lat="48.41941" lon="-3.82712">
        <ele>282.79998779297</ele>
        <time>2021-09-12T09:23:14Z</time>
      </trkpt>
      <trkpt lat="48.41943" lon="-3.82709">
        <ele>282.79998779297</ele>
        <time>2021-09-12T09:23:15Z</time>
      </trkpt>
      <trkpt lat="48.41945" lon="-3.82702">
        <ele>282.79998779297</ele>
        <time>2021-09-12T09:23:16Z</time>
      </trkpt>
      <trkpt lat="48.41948" lon="-3.82695">
        <ele>282.79998779297</ele>
        <time>2021-09-12T09:23:17Z</time>
      </trkpt>
      <trkpt lat="48.4195" lon="-3.82691">
        <ele>283</ele>
        <time>2021-09-12T09:23:18Z</time>
      </trkpt>
      <trkpt lat="48.4195" lon="-3.82687">
        <ele>283</ele>
        <time>2021-09-12T09:23:19Z</time>
      </trkpt>
      <trkpt lat="48.41951" lon="-3.82684">
        <ele>283</ele>
        <time>2021-09-12T09:23:20Z</time>
      </trkpt>
      <trkpt lat="48.41954" lon="-3.82681">
        <ele>283</ele>
        <time>2021-09-12T09:23:21Z</time>
      </trkpt>
      <trkpt lat="48.41957" lon="-3.82675">
        <ele>283</ele>
        <time>2021-09-12T09:23:22Z</time>
      </trkpt>
      <trkpt lat="48.4196" lon="-3.82671">
        <ele>283.20001220703</ele>
        <time>2021-09-12T09:23:23Z</time>
      </trkpt>
      <trkpt lat="48.41962" lon="-3.82667">
        <ele>283.20001220703</ele>
        <time>2021-09-12T09:23:24Z</time>
      </trkpt>
      <trkpt lat="48.41964" lon="-3.82663">
        <ele>283.20001220703</ele>
        <time>2021-09-12T09:23:25Z</time>
      </trkpt>
      <trkpt lat="48.41966" lon="-3.82659">
        <ele>283.39999389648</ele>
        <time>2021-09-12T09:23:26Z</time>
      </trkpt>
      <trkpt lat="48.41968" lon="-3.82656">
        <ele>283.60000610352</ele>
        <time>2021-09-12T09:23:27Z</time>
      </trkpt>
      <trkpt lat="48.41971" lon="-3.82651">
        <ele>283.60000610352</ele>
        <time>2021-09-12T09:23:28Z</time>
      </trkpt>
      <trkpt lat="48.41975" lon="-3.82647">
        <ele>283.60000610352</ele>
        <time>2021-09-12T09:23:29Z</time>
      </trkpt>
      <trkpt lat="48.41978" lon="-3.82643">
        <ele>283.60000610352</ele>
        <time>2021-09-12T09:23:30Z</time>
      </trkpt>
      <trkpt lat="48.41981" lon="-3.82639">
        <ele>283.60000610352</ele>
        <time>2021-09-12T09:23:31Z</time>
      </trkpt>
      <trkpt lat="48.41984" lon="-3.82634">
        <ele>283.60000610352</ele>
        <time>2021-09-12T09:23:32Z</time>
      </trkpt>
      <trkpt lat="48.41987" lon="-3.8263">
        <ele>283.60000610352</ele>
        <time>2021-09-12T09:23:33Z</time>
      </trkpt>
      <trkpt lat="48.41991" lon="-3.82626">
        <ele>283.60000610352</ele>
        <time>2021-09-12T09:23:34Z</time>
      </trkpt>
      <trkpt lat="48.41994" lon="-3.8262">
        <ele>283.39999389648</ele>
        <time>2021-09-12T09:23:35Z</time>
      </trkpt>
      <trkpt lat="48.41998" lon="-3.82615">
        <ele>283.39999389648</ele>
        <time>2021-09-12T09:23:36Z</time>
      </trkpt>
      <trkpt lat="48.42001" lon="-3.8261">
        <ele>283.39999389648</ele>
        <time>2021-09-12T09:23:37Z</time>
      </trkpt>
      <trkpt lat="48.42005" lon="-3.82605">
        <ele>283.39999389648</ele>
        <time>2021-09-12T09:23:38Z</time>
      </trkpt>
      <trkpt lat="48.42008" lon="-3.826">
        <ele>283.39999389648</ele>
        <time>2021-09-12T09:23:39Z</time>
      </trkpt>
      <trkpt lat="48.42011" lon="-3.82594">
        <ele>283.39999389648</ele>
        <time>2021-09-12T09:23:40Z</time>
      </trkpt>
      <trkpt lat="48.42015" lon="-3.82588">
        <ele>283.39999389648</ele>
        <time>2021-09-12T09:23:41Z</time>
      </trkpt>
      <trkpt lat="48.42018" lon="-3.82582">
        <ele>283.39999389648</ele>
        <time>2021-09-12T09:23:42Z</time>
      </trkpt>
      <trkpt lat="48.42021" lon="-3.82576">
        <ele>283.20001220703</ele>
        <time>2021-09-12T09:23:43Z</time>
      </trkpt>
      <trkpt lat="48.42024" lon="-3.8257">
        <ele>283.20001220703</ele>
        <time>2021-09-12T09:23:44Z</time>
      </trkpt>
      <trkpt lat="48.42027" lon="-3.82564">
        <ele>283.20001220703</ele>
        <time>2021-09-12T09:23:45Z</time>
      </trkpt>
      <trkpt lat="48.42029" lon="-3.82558">
        <ele>283</ele>
        <time>2021-09-12T09:23:46Z</time>
      </trkpt>
      <trkpt lat="48.42032" lon="-3.82551">
        <ele>283</ele>
        <time>2021-09-12T09:23:47Z</time>
      </trkpt>
      <trkpt lat="48.42034" lon="-3.82543">
        <ele>283</ele>
        <time>2021-09-12T09:23:48Z</time>
      </trkpt>
      <trkpt lat="48.42037" lon="-3.82536">
        <ele>283</ele>
        <time>2021-09-12T09:23:49Z</time>
      </trkpt>
      <trkpt lat="48.42039" lon="-3.82531">
        <ele>282.79998779297</ele>
        <time>2021-09-12T09:23:50Z</time>
      </trkpt>
      <trkpt lat="48.42042" lon="-3.82525">
        <ele>282.79998779297</ele>
        <time>2021-09-12T09:23:51Z</time>
      </trkpt>
      <trkpt lat="48.42045" lon="-3.8252">
        <ele>282.79998779297</ele>
        <time>2021-09-12T09:23:52Z</time>
      </trkpt>
      <trkpt lat="48.42048" lon="-3.82514">
        <ele>282.79998779297</ele>
        <time>2021-09-12T09:23:53Z</time>
      </trkpt>
      <trkpt lat="48.42051" lon="-3.82509">
        <ele>282.60000610352</ele>
        <time>2021-09-12T09:23:54Z</time>
      </trkpt>
      <trkpt lat="48.42054" lon="-3.82504">
        <ele>282.39999389648</ele>
        <time>2021-09-12T09:23:55Z</time>
      </trkpt>
      <trkpt lat="48.42057" lon="-3.82498">
        <ele>282.39999389648</ele>
        <time>2021-09-12T09:23:56Z</time>
      </trkpt>
      <trkpt lat="48.4206" lon="-3.82493">
        <ele>282.60000610352</ele>
        <time>2021-09-12T09:23:57Z</time>
      </trkpt>
      <trkpt lat="48.42062" lon="-3.82489">
        <ele>282.60000610352</ele>
        <time>2021-09-12T09:23:58Z</time>
      </trkpt>
      <trkpt lat="48.42066" lon="-3.82485">
        <ele>282.60000610352</ele>
        <time>2021-09-12T09:23:59Z</time>
      </trkpt>
      <trkpt lat="48.4207" lon="-3.82486">
        <ele>282.60000610352</ele>
        <time>2021-09-12T09:24:00Z</time>
      </trkpt>
      <trkpt lat="48.42074" lon="-3.82489">
        <ele>282.39999389648</ele>
        <time>2021-09-12T09:24:01Z</time>
      </trkpt>
      <trkpt lat="48.42076" lon="-3.82494">
        <ele>282.39999389648</ele>
        <time>2021-09-12T09:24:02Z</time>
      </trkpt>
      <trkpt lat="48.42079" lon="-3.825">
        <ele>282.20001220703</ele>
        <time>2021-09-12T09:24:03Z</time>
      </trkpt>
      <trkpt lat="48.42081" lon="-3.82506">
        <ele>282.20001220703</ele>
        <time>2021-09-12T09:24:04Z</time>
      </trkpt>
      <trkpt lat="48.42084" lon="-3.82512">
        <ele>282.20001220703</ele>
        <time>2021-09-12T09:24:05Z</time>
      </trkpt>
      <trkpt lat="48.42087" lon="-3.82519">
        <ele>282.20001220703</ele>
        <time>2021-09-12T09:24:06Z</time>
      </trkpt>
      <trkpt lat="48.4209" lon="-3.82525">
        <ele>282</ele>
        <time>2021-09-12T09:24:07Z</time>
      </trkpt>
      <trkpt lat="48.42093" lon="-3.8253">
        <ele>282</ele>
        <time>2021-09-12T09:24:08Z</time>
      </trkpt>
      <trkpt lat="48.42096" lon="-3.82536">
        <ele>282</ele>
        <time>2021-09-12T09:24:09Z</time>
      </trkpt>
      <trkpt lat="48.421" lon="-3.82542">
        <ele>282</ele>
        <time>2021-09-12T09:24:10Z</time>
      </trkpt>
      <trkpt lat="48.42103" lon="-3.82548">
        <ele>282</ele>
        <time>2021-09-12T09:24:11Z</time>
      </trkpt>
      <trkpt lat="48.42106" lon="-3.82554">
        <ele>282</ele>
        <time>2021-09-12T09:24:12Z</time>
      </trkpt>
      <trkpt lat="48.42109" lon="-3.8256">
        <ele>282</ele>
        <time>2021-09-12T09:24:13Z</time>
      </trkpt>
      <trkpt lat="48.42112" lon="-3.82565">
        <ele>282</ele>
        <time>2021-09-12T09:24:14Z</time>
      </trkpt>
      <trkpt lat="48.42115" lon="-3.82571">
        <ele>282</ele>
        <time>2021-09-12T09:24:15Z</time>
      </trkpt>
      <trkpt lat="48.42118" lon="-3.82577">
        <ele>282</ele>
        <time>2021-09-12T09:24:16Z</time>
      </trkpt>
      <trkpt lat="48.42121" lon="-3.82583">
        <ele>282</ele>
        <time>2021-09-12T09:24:17Z</time>
      </trkpt>
      <trkpt lat="48.42124" lon="-3.82589">
        <ele>282.20001220703</ele>
        <time>2021-09-12T09:24:18Z</time>
      </trkpt>
      <trkpt lat="48.42127" lon="-3.82595">
        <ele>282.20001220703</ele>
        <time>2021-09-12T09:24:19Z</time>
      </trkpt>
      <trkpt lat="48.4213" lon="-3.82601">
        <ele>282.20001220703</ele>
        <time>2021-09-12T09:24:20Z</time>
      </trkpt>
      <trkpt lat="48.42134" lon="-3.82607">
        <ele>282.20001220703</ele>
        <time>2021-09-12T09:24:21Z</time>
      </trkpt>
      <trkpt lat="48.42137" lon="-3.82613">
        <ele>282.39999389648</ele>
        <time>2021-09-12T09:24:22Z</time>
      </trkpt>
      <trkpt lat="48.4214" lon="-3.82619">
        <ele>282.39999389648</ele>
        <time>2021-09-12T09:24:23Z</time>
      </trkpt>
      <trkpt lat="48.42144" lon="-3.82625">
        <ele>282.39999389648</ele>
        <time>2021-09-12T09:24:24Z</time>
      </trkpt>
      <trkpt lat="48.42147" lon="-3.8263">
        <ele>282.39999389648</ele>
        <time>2021-09-12T09:24:25Z</time>
      </trkpt>
      <trkpt lat="48.4215" lon="-3.82636">
        <ele>282.39999389648</ele>
        <time>2021-09-12T09:24:26Z</time>
      </trkpt>
      <trkpt lat="48.42153" lon="-3.82642">
        <ele>282.60000610352</ele>
        <time>2021-09-12T09:24:27Z</time>
      </trkpt>
      <trkpt lat="48.42157" lon="-3.82647">
        <ele>282.60000610352</ele>
        <time>2021-09-12T09:24:28Z</time>
      </trkpt>
      <trkpt lat="48.42161" lon="-3.82652">
        <ele>282.60000610352</ele>
        <time>2021-09-12T09:24:29Z</time>
      </trkpt>
      <trkpt lat="48.42165" lon="-3.82657">
        <ele>282.79998779297</ele>
        <time>2021-09-12T09:24:30Z</time>
      </trkpt>
      <trkpt lat="48.42168" lon="-3.82661">
        <ele>282.79998779297</ele>
        <time>2021-09-12T09:24:31Z</time>
      </trkpt>
      <trkpt lat="48.42172" lon="-3.82666">
        <ele>282.79998779297</ele>
        <time>2021-09-12T09:24:32Z</time>
      </trkpt>
      <trkpt lat="48.42176" lon="-3.82671">
        <ele>282.79998779297</ele>
        <time>2021-09-12T09:24:33Z</time>
      </trkpt>
      <trkpt lat="48.42179" lon="-3.82675">
        <ele>282.79998779297</ele>
        <time>2021-09-12T09:24:34Z</time>
      </trkpt>
      <trkpt lat="48.42183" lon="-3.82679">
        <ele>282.79998779297</ele>
        <time>2021-09-12T09:24:35Z</time>
      </trkpt>
      <trkpt lat="48.42187" lon="-3.82684">
        <ele>283.20001220703</ele>
        <time>2021-09-12T09:24:36Z</time>
      </trkpt>
      <trkpt lat="48.42191" lon="-3.82688">
        <ele>283.20001220703</ele>
        <time>2021-09-12T09:24:37Z</time>
      </trkpt>
      <trkpt lat="48.42195" lon="-3.82692">
        <ele>283.20001220703</ele>
        <time>2021-09-12T09:24:38Z</time>
      </trkpt>
      <trkpt lat="48.42198" lon="-3.82696">
        <ele>283.39999389648</ele>
        <time>2021-09-12T09:24:39Z</time>
      </trkpt>
      <trkpt lat="48.42201" lon="-3.827">
        <ele>283.39999389648</ele>
        <time>2021-09-12T09:24:40Z</time>
      </trkpt>
      <trkpt lat="48.42206" lon="-3.82705">
        <ele>283.60000610352</ele>
        <time>2021-09-12T09:24:41Z</time>
      </trkpt>
      <trkpt lat="48.4221" lon="-3.82709">
        <ele>283.79998779297</ele>
        <time>2021-09-12T09:24:42Z</time>
      </trkpt>
      <trkpt lat="48.42214" lon="-3.82714">
        <ele>284</ele>
        <time>2021-09-12T09:24:43Z</time>
      </trkpt>
      <trkpt lat="48.42217" lon="-3.82718">
        <ele>284</ele>
        <time>2021-09-12T09:24:44Z</time>
      </trkpt>
      <trkpt lat="48.42221" lon="-3.82722">
        <ele>284.20001220703</ele>
        <time>2021-09-12T09:24:45Z</time>
      </trkpt>
      <trkpt lat="48.42224" lon="-3.82726">
        <ele>284.60000610352</ele>
        <time>2021-09-12T09:24:46Z</time>
      </trkpt>
      <trkpt lat="48.42227" lon="-3.8273">
        <ele>284.60000610352</ele>
        <time>2021-09-12T09:24:47Z</time>
      </trkpt>
      <trkpt lat="48.42231" lon="-3.82735">
        <ele>284.79998779297</ele>
        <time>2021-09-12T09:24:48Z</time>
      </trkpt>
      <trkpt lat="48.42235" lon="-3.82739">
        <ele>285.20001220703</ele>
        <time>2021-09-12T09:24:49Z</time>
      </trkpt>
      <trkpt lat="48.42238" lon="-3.82742">
        <ele>285.39999389648</ele>
        <time>2021-09-12T09:24:50Z</time>
      </trkpt>
      <trkpt lat="48.42242" lon="-3.82746">
        <ele>285.39999389648</ele>
        <time>2021-09-12T09:24:51Z</time>
      </trkpt>
      <trkpt lat="48.42245" lon="-3.82749">
        <ele>285.79998779297</ele>
        <time>2021-09-12T09:24:52Z</time>
      </trkpt>
      <trkpt lat="48.4225" lon="-3.82752">
        <ele>285.79998779297</ele>
        <time>2021-09-12T09:24:53Z</time>
      </trkpt>
      <trkpt lat="48.42254" lon="-3.82756">
        <ele>286</ele>
        <time>2021-09-12T09:24:54Z</time>
      </trkpt>
      <trkpt lat="48.42256" lon="-3.82759">
        <ele>286</ele>
        <time>2021-09-12T09:24:55Z</time>
      </trkpt>
      <trkpt lat="48.4226" lon="-3.82761">
        <ele>286.20001220703</ele>
        <time>2021-09-12T09:24:56Z</time>
      </trkpt>
      <trkpt lat="48.42264" lon="-3.82765">
        <ele>286.20001220703</ele>
        <time>2021-09-12T09:24:57Z</time>
      </trkpt>
      <trkpt lat="48.42267" lon="-3.82768">
        <ele>286.79998779297</ele>
        <time>2021-09-12T09:24:58Z</time>
      </trkpt>
      <trkpt lat="48.4227" lon="-3.82771">
        <ele>287</ele>
        <time>2021-09-12T09:24:59Z</time>
      </trkpt>
      <trkpt lat="48.42273" lon="-3.82774">
        <ele>287.20001220703</ele>
        <time>2021-09-12T09:25:00Z</time>
      </trkpt>
      <trkpt lat="48.42276" lon="-3.82778">
        <ele>287.39999389648</ele>
        <time>2021-09-12T09:25:01Z</time>
      </trkpt>
      <trkpt lat="48.42279" lon="-3.82781">
        <ele>287.60000610352</ele>
        <time>2021-09-12T09:25:02Z</time>
      </trkpt>
      <trkpt lat="48.42283" lon="-3.82784">
        <ele>287.79998779297</ele>
        <time>2021-09-12T09:25:03Z</time>
      </trkpt>
      <trkpt lat="48.42286" lon="-3.82787">
        <ele>288.20001220703</ele>
        <time>2021-09-12T09:25:04Z</time>
      </trkpt>
      <trkpt lat="48.42288" lon="-3.82789">
        <ele>288.20001220703</ele>
        <time>2021-09-12T09:25:05Z</time>
      </trkpt>
      <trkpt lat="48.42292" lon="-3.82791">
        <ele>288.39999389648</ele>
        <time>2021-09-12T09:25:06Z</time>
      </trkpt>
      <trkpt lat="48.42296" lon="-3.82794">
        <ele>288.60000610352</ele>
        <time>2021-09-12T09:25:07Z</time>
      </trkpt>
      <trkpt lat="48.42299" lon="-3.82796">
        <ele>288.79998779297</ele>
        <time>2021-09-12T09:25:08Z</time>
      </trkpt>
      <trkpt lat="48.42302" lon="-3.82799">
        <ele>289</ele>
        <time>2021-09-12T09:25:09Z</time>
      </trkpt>
      <trkpt lat="48.42304" lon="-3.82801">
        <ele>289.20001220703</ele>
        <time>2021-09-12T09:25:10Z</time>
      </trkpt>
      <trkpt lat="48.42307" lon="-3.82804">
        <ele>289.60000610352</ele>
        <time>2021-09-12T09:25:11Z</time>
      </trkpt>
      <trkpt lat="48.42311" lon="-3.82807">
        <ele>289.60000610352</ele>
        <time>2021-09-12T09:25:12Z</time>
      </trkpt>
      <trkpt lat="48.42314" lon="-3.82809">
        <ele>289.60000610352</ele>
        <time>2021-09-12T09:25:13Z</time>
      </trkpt>
      <trkpt lat="48.42317" lon="-3.82811">
        <ele>289.60000610352</ele>
        <time>2021-09-12T09:25:14Z</time>
      </trkpt>
      <trkpt lat="48.4232" lon="-3.82813">
        <ele>290</ele>
        <time>2021-09-12T09:25:15Z</time>
      </trkpt>
      <trkpt lat="48.42323" lon="-3.82816">
        <ele>290.39999389648</ele>
        <time>2021-09-12T09:25:16Z</time>
      </trkpt>
      <trkpt lat="48.42327" lon="-3.82819">
        <ele>290.60000610352</ele>
        <time>2021-09-12T09:25:17Z</time>
      </trkpt>
      <trkpt lat="48.4233" lon="-3.82822">
        <ele>290.79998779297</ele>
        <time>2021-09-12T09:25:18Z</time>
      </trkpt>
      <trkpt lat="48.42333" lon="-3.82824">
        <ele>291</ele>
        <time>2021-09-12T09:25:19Z</time>
      </trkpt>
      <trkpt lat="48.42335" lon="-3.82826">
        <ele>291.20001220703</ele>
        <time>2021-09-12T09:25:20Z</time>
      </trkpt>
      <trkpt lat="48.42338" lon="-3.82828">
        <ele>291.39999389648</ele>
        <time>2021-09-12T09:25:21Z</time>
      </trkpt>
      <trkpt lat="48.42341" lon="-3.82831">
        <ele>291.39999389648</ele>
        <time>2021-09-12T09:25:22Z</time>
      </trkpt>
      <trkpt lat="48.42344" lon="-3.82834">
        <ele>291.60000610352</ele>
        <time>2021-09-12T09:25:23Z</time>
      </trkpt>
      <trkpt lat="48.42347" lon="-3.82837">
        <ele>292.20001220703</ele>
        <time>2021-09-12T09:25:24Z</time>
      </trkpt>
      <trkpt lat="48.42349" lon="-3.82839">
        <ele>292.20001220703</ele>
        <time>2021-09-12T09:25:25Z</time>
      </trkpt>
      <trkpt lat="48.42352" lon="-3.82841">
        <ele>292.39999389648</ele>
        <time>2021-09-12T09:25:26Z</time>
      </trkpt>
      <trkpt lat="48.42355" lon="-3.82843">
        <ele>292.39999389648</ele>
        <time>2021-09-12T09:25:27Z</time>
      </trkpt>
      <trkpt lat="48.42358" lon="-3.82845">
        <ele>293</ele>
        <time>2021-09-12T09:25:28Z</time>
      </trkpt>
      <trkpt lat="48.42361" lon="-3.82848">
        <ele>293</ele>
        <time>2021-09-12T09:25:29Z</time>
      </trkpt>
      <trkpt lat="48.42364" lon="-3.82849">
        <ele>293.20001220703</ele>
        <time>2021-09-12T09:25:30Z</time>
      </trkpt>
      <trkpt lat="48.42366" lon="-3.82851">
        <ele>293.39999389648</ele>
        <time>2021-09-12T09:25:31Z</time>
      </trkpt>
      <trkpt lat="48.42369" lon="-3.82853">
        <ele>293.60000610352</ele>
        <time>2021-09-12T09:25:32Z</time>
      </trkpt>
      <trkpt lat="48.42372" lon="-3.82855">
        <ele>294.20001220703</ele>
        <time>2021-09-12T09:25:33Z</time>
      </trkpt>
      <trkpt lat="48.42375" lon="-3.82856">
        <ele>294.20001220703</ele>
        <time>2021-09-12T09:25:34Z</time>
      </trkpt>
      <trkpt lat="48.42378" lon="-3.82857">
        <ele>294.20001220703</ele>
        <time>2021-09-12T09:25:35Z</time>
      </trkpt>
      <trkpt lat="48.42381" lon="-3.82859">
        <ele>294.39999389648</ele>
        <time>2021-09-12T09:25:36Z</time>
      </trkpt>
      <trkpt lat="48.42384" lon="-3.82861">
        <ele>294.39999389648</ele>
        <time>2021-09-12T09:25:37Z</time>
      </trkpt>
      <trkpt lat="48.42388" lon="-3.82863">
        <ele>294.60000610352</ele>
        <time>2021-09-12T09:25:38Z</time>
      </trkpt>
      <trkpt lat="48.42391" lon="-3.82864">
        <ele>294.79998779297</ele>
        <time>2021-09-12T09:25:39Z</time>
      </trkpt>
      <trkpt lat="48.42394" lon="-3.82864">
        <ele>295</ele>
        <time>2021-09-12T09:25:40Z</time>
      </trkpt>
      <trkpt lat="48.42398" lon="-3.82864">
        <ele>295.20001220703</ele>
        <time>2021-09-12T09:25:41Z</time>
      </trkpt>
      <trkpt lat="48.42401" lon="-3.82865">
        <ele>295.20001220703</ele>
        <time>2021-09-12T09:25:42Z</time>
      </trkpt>
      <trkpt lat="48.42404" lon="-3.82867">
        <ele>295.39999389648</ele>
        <time>2021-09-12T09:25:43Z</time>
      </trkpt>
      <trkpt lat="48.42407" lon="-3.82869">
        <ele>295.39999389648</ele>
        <time>2021-09-12T09:25:44Z</time>
      </trkpt>
      <trkpt lat="48.4241" lon="-3.82871">
        <ele>295.60000610352</ele>
        <time>2021-09-12T09:25:45Z</time>
      </trkpt>
      <trkpt lat="48.42414" lon="-3.82872">
        <ele>296.20001220703</ele>
        <time>2021-09-12T09:25:46Z</time>
      </trkpt>
      <trkpt lat="48.42417" lon="-3.82873">
        <ele>296.20001220703</ele>
        <time>2021-09-12T09:25:47Z</time>
      </trkpt>
      <trkpt lat="48.4242" lon="-3.82874">
        <ele>296.60000610352</ele>
        <time>2021-09-12T09:25:48Z</time>
      </trkpt>
      <trkpt lat="48.42422" lon="-3.82876">
        <ele>296.79998779297</ele>
        <time>2021-09-12T09:25:49Z</time>
      </trkpt>
      <trkpt lat="48.42425" lon="-3.82877">
        <ele>297</ele>
        <time>2021-09-12T09:25:50Z</time>
      </trkpt>
      <trkpt lat="48.42429" lon="-3.82879">
        <ele>297.20001220703</ele>
        <time>2021-09-12T09:25:51Z</time>
      </trkpt>
      <trkpt lat="48.42433" lon="-3.82881">
        <ele>297.39999389648</ele>
        <time>2021-09-12T09:25:52Z</time>
      </trkpt>
      <trkpt lat="48.42436" lon="-3.82883">
        <ele>297.60000610352</ele>
        <time>2021-09-12T09:25:53Z</time>
      </trkpt>
      <trkpt lat="48.42438" lon="-3.82884">
        <ele>297.79998779297</ele>
        <time>2021-09-12T09:25:54Z</time>
      </trkpt>
      <trkpt lat="48.42441" lon="-3.82887">
        <ele>298</ele>
        <time>2021-09-12T09:25:55Z</time>
      </trkpt>
      <trkpt lat="48.42444" lon="-3.82889">
        <ele>298.20001220703</ele>
        <time>2021-09-12T09:25:56Z</time>
      </trkpt>
      <trkpt lat="48.42447" lon="-3.82892">
        <ele>298.39999389648</ele>
        <time>2021-09-12T09:25:57Z</time>
      </trkpt>
      <trkpt lat="48.4245" lon="-3.82894">
        <ele>298.60000610352</ele>
        <time>2021-09-12T09:25:58Z</time>
      </trkpt>
      <trkpt lat="48.42453" lon="-3.82896">
        <ele>298.60000610352</ele>
        <time>2021-09-12T09:25:59Z</time>
      </trkpt>
      <trkpt lat="48.42455" lon="-3.82898">
        <ele>298.79998779297</ele>
        <time>2021-09-12T09:26:00Z</time>
      </trkpt>
      <trkpt lat="48.42458" lon="-3.829">
        <ele>298.79998779297</ele>
        <time>2021-09-12T09:26:01Z</time>
      </trkpt>
      <trkpt lat="48.42462" lon="-3.82904">
        <ele>299</ele>
        <time>2021-09-12T09:26:02Z</time>
      </trkpt>
      <trkpt lat="48.42465" lon="-3.82905">
        <ele>299.20001220703</ele>
        <time>2021-09-12T09:26:03Z</time>
      </trkpt>
      <trkpt lat="48.42468" lon="-3.82908">
        <ele>299.39999389648</ele>
        <time>2021-09-12T09:26:04Z</time>
      </trkpt>
      <trkpt lat="48.42471" lon="-3.82911">
        <ele>299.39999389648</ele>
        <time>2021-09-12T09:26:05Z</time>
      </trkpt>
      <trkpt lat="48.42474" lon="-3.82914">
        <ele>299.60000610352</ele>
        <time>2021-09-12T09:26:06Z</time>
      </trkpt>
      <trkpt lat="48.42477" lon="-3.82916">
        <ele>299.60000610352</ele>
        <time>2021-09-12T09:26:07Z</time>
      </trkpt>
      <trkpt lat="48.4248" lon="-3.82919">
        <ele>299.60000610352</ele>
        <time>2021-09-12T09:26:08Z</time>
      </trkpt>
      <trkpt lat="48.42482" lon="-3.82922">
        <ele>299.79998779297</ele>
        <time>2021-09-12T09:26:09Z</time>
      </trkpt>
      <trkpt lat="48.42485" lon="-3.82925">
        <ele>299.79998779297</ele>
        <time>2021-09-12T09:26:10Z</time>
      </trkpt>
      <trkpt lat="48.42488" lon="-3.82928">
        <ele>299.79998779297</ele>
        <time>2021-09-12T09:26:11Z</time>
      </trkpt>
      <trkpt lat="48.42492" lon="-3.82932">
        <ele>299.79998779297</ele>
        <time>2021-09-12T09:26:12Z</time>
      </trkpt>
      <trkpt lat="48.42495" lon="-3.82935">
        <ele>299.79998779297</ele>
        <time>2021-09-12T09:26:13Z</time>
      </trkpt>
      <trkpt lat="48.42497" lon="-3.82938">
        <ele>300</ele>
        <time>2021-09-12T09:26:14Z</time>
      </trkpt>
      <trkpt lat="48.425" lon="-3.82942">
        <ele>300.20001220703</ele>
        <time>2021-09-12T09:26:15Z</time>
      </trkpt>
      <trkpt lat="48.42503" lon="-3.82946">
        <ele>300.60000610352</ele>
        <time>2021-09-12T09:26:16Z</time>
      </trkpt>
      <trkpt lat="48.42505" lon="-3.82949">
        <ele>300.60000610352</ele>
        <time>2021-09-12T09:26:17Z</time>
      </trkpt>
      <trkpt lat="48.42507" lon="-3.82952">
        <ele>300.79998779297</ele>
        <time>2021-09-12T09:26:18Z</time>
      </trkpt>
      <trkpt lat="48.4251" lon="-3.82956">
        <ele>301.20001220703</ele>
        <time>2021-09-12T09:26:19Z</time>
      </trkpt>
      <trkpt lat="48.42513" lon="-3.82959">
        <ele>301.20001220703</ele>
        <time>2021-09-12T09:26:20Z</time>
      </trkpt>
      <trkpt lat="48.42516" lon="-3.82962">
        <ele>301.20001220703</ele>
        <time>2021-09-12T09:26:21Z</time>
      </trkpt>
      <trkpt lat="48.42519" lon="-3.82966">
        <ele>301.39999389648</ele>
        <time>2021-09-12T09:26:22Z</time>
      </trkpt>
      <trkpt lat="48.42521" lon="-3.82969">
        <ele>301.60000610352</ele>
        <time>2021-09-12T09:26:23Z</time>
      </trkpt>
      <trkpt lat="48.42524" lon="-3.82972">
        <ele>301.60000610352</ele>
        <time>2021-09-12T09:26:24Z</time>
      </trkpt>
      <trkpt lat="48.42526" lon="-3.82977">
        <ele>301.79998779297</ele>
        <time>2021-09-12T09:26:25Z</time>
      </trkpt>
      <trkpt lat="48.42529" lon="-3.8298">
        <ele>301.79998779297</ele>
        <time>2021-09-12T09:26:26Z</time>
      </trkpt>
      <trkpt lat="48.42531" lon="-3.82984">
        <ele>302</ele>
        <time>2021-09-12T09:26:27Z</time>
      </trkpt>
      <trkpt lat="48.42533" lon="-3.82987">
        <ele>302</ele>
        <time>2021-09-12T09:26:28Z</time>
      </trkpt>
      <trkpt lat="48.42535" lon="-3.8299">
        <ele>302.20001220703</ele>
        <time>2021-09-12T09:26:29Z</time>
      </trkpt>
      <trkpt lat="48.42538" lon="-3.82995">
        <ele>302.39999389648</ele>
        <time>2021-09-12T09:26:30Z</time>
      </trkpt>
      <trkpt lat="48.4254" lon="-3.82999">
        <ele>302.60000610352</ele>
        <time>2021-09-12T09:26:31Z</time>
      </trkpt>
      <trkpt lat="48.42543" lon="-3.83003">
        <ele>302.60000610352</ele>
        <time>2021-09-12T09:26:32Z</time>
      </trkpt>
      <trkpt lat="48.42544" lon="-3.83006">
        <ele>302.60000610352</ele>
        <time>2021-09-12T09:26:33Z</time>
      </trkpt>
      <trkpt lat="48.42547" lon="-3.8301">
        <ele>302.60000610352</ele>
        <time>2021-09-12T09:26:34Z</time>
      </trkpt>
      <trkpt lat="48.4255" lon="-3.83014">
        <ele>303</ele>
        <time>2021-09-12T09:26:35Z</time>
      </trkpt>
      <trkpt lat="48.42553" lon="-3.83018">
        <ele>303</ele>
        <time>2021-09-12T09:26:36Z</time>
      </trkpt>
      <trkpt lat="48.42555" lon="-3.83021">
        <ele>303.20001220703</ele>
        <time>2021-09-12T09:26:37Z</time>
      </trkpt>
      <trkpt lat="48.42557" lon="-3.83024">
        <ele>303.60000610352</ele>
        <time>2021-09-12T09:26:38Z</time>
      </trkpt>
      <trkpt lat="48.4256" lon="-3.83027">
        <ele>303.79998779297</ele>
        <time>2021-09-12T09:26:39Z</time>
      </trkpt>
      <trkpt lat="48.42563" lon="-3.8303">
        <ele>304</ele>
        <time>2021-09-12T09:26:40Z</time>
      </trkpt>
      <trkpt lat="48.42566" lon="-3.83034">
        <ele>304</ele>
        <time>2021-09-12T09:26:41Z</time>
      </trkpt>
      <trkpt lat="48.42568" lon="-3.83037">
        <ele>304</ele>
        <time>2021-09-12T09:26:42Z</time>
      </trkpt>
      <trkpt lat="48.42571" lon="-3.8304">
        <ele>304.20001220703</ele>
        <time>2021-09-12T09:26:43Z</time>
      </trkpt>
      <trkpt lat="48.42573" lon="-3.83043">
        <ele>304.60000610352</ele>
        <time>2021-09-12T09:26:44Z</time>
      </trkpt>
      <trkpt lat="48.42576" lon="-3.83047">
        <ele>304.60000610352</ele>
        <time>2021-09-12T09:26:45Z</time>
      </trkpt>
      <trkpt lat="48.42578" lon="-3.83049">
        <ele>304.60000610352</ele>
        <time>2021-09-12T09:26:46Z</time>
      </trkpt>
      <trkpt lat="48.42581" lon="-3.83053">
        <ele>304.79998779297</ele>
        <time>2021-09-12T09:26:47Z</time>
      </trkpt>
      <trkpt lat="48.42583" lon="-3.83057">
        <ele>305</ele>
        <time>2021-09-12T09:26:48Z</time>
      </trkpt>
      <trkpt lat="48.42585" lon="-3.83061">
        <ele>305</ele>
        <time>2021-09-12T09:26:49Z</time>
      </trkpt>
      <trkpt lat="48.42587" lon="-3.83065">
        <ele>305.20001220703</ele>
        <time>2021-09-12T09:26:50Z</time>
      </trkpt>
      <trkpt lat="48.42589" lon="-3.83069">
        <ele>305.39999389648</ele>
        <time>2021-09-12T09:26:51Z</time>
      </trkpt>
      <trkpt lat="48.42591" lon="-3.83074">
        <ele>305.39999389648</ele>
        <time>2021-09-12T09:26:52Z</time>
      </trkpt>
      <trkpt lat="48.42593" lon="-3.83077">
        <ele>305.39999389648</ele>
        <time>2021-09-12T09:26:53Z</time>
      </trkpt>
      <trkpt lat="48.42595" lon="-3.83081">
        <ele>305.60000610352</ele>
        <time>2021-09-12T09:26:54Z</time>
      </trkpt>
      <trkpt lat="48.42597" lon="-3.83087">
        <ele>305.60000610352</ele>
        <time>2021-09-12T09:26:55Z</time>
      </trkpt>
      <trkpt lat="48.42599" lon="-3.83091">
        <ele>305.79998779297</ele>
        <time>2021-09-12T09:26:56Z</time>
      </trkpt>
      <trkpt lat="48.426" lon="-3.83095">
        <ele>306</ele>
        <time>2021-09-12T09:26:57Z</time>
      </trkpt>
      <trkpt lat="48.42602" lon="-3.83099">
        <ele>306</ele>
        <time>2021-09-12T09:26:58Z</time>
      </trkpt>
      <trkpt lat="48.42604" lon="-3.83104">
        <ele>306</ele>
        <time>2021-09-12T09:26:59Z</time>
      </trkpt>
      <trkpt lat="48.42606" lon="-3.83107">
        <ele>306.39999389648</ele>
        <time>2021-09-12T09:27:00Z</time>
      </trkpt>
      <trkpt lat="48.42608" lon="-3.83111">
        <ele>306.60000610352</ele>
        <time>2021-09-12T09:27:01Z</time>
      </trkpt>
      <trkpt lat="48.42609" lon="-3.83115">
        <ele>306.79998779297</ele>
        <time>2021-09-12T09:27:02Z</time>
      </trkpt>
      <trkpt lat="48.42611" lon="-3.83119">
        <ele>306.79998779297</ele>
        <time>2021-09-12T09:27:03Z</time>
      </trkpt>
      <trkpt lat="48.42613" lon="-3.83123">
        <ele>307.20001220703</ele>
        <time>2021-09-12T09:27:04Z</time>
      </trkpt>
      <trkpt lat="48.42615" lon="-3.83126">
        <ele>307.39999389648</ele>
        <time>2021-09-12T09:27:05Z</time>
      </trkpt>
      <trkpt lat="48.42617" lon="-3.8313">
        <ele>307.79998779297</ele>
        <time>2021-09-12T09:27:06Z</time>
      </trkpt>
      <trkpt lat="48.42618" lon="-3.83133">
        <ele>307.79998779297</ele>
        <time>2021-09-12T09:27:07Z</time>
      </trkpt>
      <trkpt lat="48.4262" lon="-3.83136">
        <ele>308</ele>
        <time>2021-09-12T09:27:08Z</time>
      </trkpt>
      <trkpt lat="48.42621" lon="-3.8314">
        <ele>308</ele>
        <time>2021-09-12T09:27:09Z</time>
      </trkpt>
      <trkpt lat="48.42622" lon="-3.83144">
        <ele>308.60000610352</ele>
        <time>2021-09-12T09:27:10Z</time>
      </trkpt>
      <trkpt lat="48.42624" lon="-3.83149">
        <ele>308.60000610352</ele>
        <time>2021-09-12T09:27:11Z</time>
      </trkpt>
      <trkpt lat="48.42625" lon="-3.83153">
        <ele>308.79998779297</ele>
        <time>2021-09-12T09:27:12Z</time>
      </trkpt>
      <trkpt lat="48.42627" lon="-3.83157">
        <ele>308.79998779297</ele>
        <time>2021-09-12T09:27:13Z</time>
      </trkpt>
      <trkpt lat="48.42628" lon="-3.83163">
        <ele>309</ele>
        <time>2021-09-12T09:27:14Z</time>
      </trkpt>
      <trkpt lat="48.4263" lon="-3.83168">
        <ele>309.39999389648</ele>
        <time>2021-09-12T09:27:15Z</time>
      </trkpt>
      <trkpt lat="48.42632" lon="-3.83172">
        <ele>309.39999389648</ele>
        <time>2021-09-12T09:27:16Z</time>
      </trkpt>
      <trkpt lat="48.42633" lon="-3.83175">
        <ele>309.39999389648</ele>
        <time>2021-09-12T09:27:17Z</time>
      </trkpt>
      <trkpt lat="48.42635" lon="-3.83179">
        <ele>309.39999389648</ele>
        <time>2021-09-12T09:27:18Z</time>
      </trkpt>
      <trkpt lat="48.42637" lon="-3.83184">
        <ele>309.79998779297</ele>
        <time>2021-09-12T09:27:19Z</time>
      </trkpt>
      <trkpt lat="48.42639" lon="-3.83188">
        <ele>310</ele>
        <time>2021-09-12T09:27:20Z</time>
      </trkpt>
      <trkpt lat="48.42642" lon="-3.83192">
        <ele>310</ele>
        <time>2021-09-12T09:27:21Z</time>
      </trkpt>
      <trkpt lat="48.42643" lon="-3.83195">
        <ele>310</ele>
        <time>2021-09-12T09:27:22Z</time>
      </trkpt>
      <trkpt lat="48.42645" lon="-3.83198">
        <ele>310.39999389648</ele>
        <time>2021-09-12T09:27:23Z</time>
      </trkpt>
      <trkpt lat="48.42648" lon="-3.83202">
        <ele>310.60000610352</ele>
        <time>2021-09-12T09:27:24Z</time>
      </trkpt>
      <trkpt lat="48.4265" lon="-3.83206">
        <ele>310.79998779297</ele>
        <time>2021-09-12T09:27:25Z</time>
      </trkpt>
      <trkpt lat="48.42652" lon="-3.83208">
        <ele>311</ele>
        <time>2021-09-12T09:27:26Z</time>
      </trkpt>
      <trkpt lat="48.42655" lon="-3.83211">
        <ele>311.20001220703</ele>
        <time>2021-09-12T09:27:27Z</time>
      </trkpt>
      <trkpt lat="48.42657" lon="-3.83214">
        <ele>311.20001220703</ele>
        <time>2021-09-12T09:27:28Z</time>
      </trkpt>
      <trkpt lat="48.4266" lon="-3.83218">
        <ele>311.39999389648</ele>
        <time>2021-09-12T09:27:29Z</time>
      </trkpt>
      <trkpt lat="48.42663" lon="-3.83222">
        <ele>311.39999389648</ele>
        <time>2021-09-12T09:27:30Z</time>
      </trkpt>
      <trkpt lat="48.42665" lon="-3.83225">
        <ele>311.60000610352</ele>
        <time>2021-09-12T09:27:31Z</time>
      </trkpt>
      <trkpt lat="48.42666" lon="-3.83228">
        <ele>311.60000610352</ele>
        <time>2021-09-12T09:27:32Z</time>
      </trkpt>
      <trkpt lat="48.42669" lon="-3.83233">
        <ele>311.79998779297</ele>
        <time>2021-09-12T09:27:33Z</time>
      </trkpt>
      <trkpt lat="48.4267" lon="-3.83237">
        <ele>312</ele>
        <time>2021-09-12T09:27:34Z</time>
      </trkpt>
      <trkpt lat="48.42671" lon="-3.83242">
        <ele>312.39999389648</ele>
        <time>2021-09-12T09:27:35Z</time>
      </trkpt>
      <trkpt lat="48.42673" lon="-3.83246">
        <ele>312.39999389648</ele>
        <time>2021-09-12T09:27:36Z</time>
      </trkpt>
      <trkpt lat="48.42674" lon="-3.8325">
        <ele>312.60000610352</ele>
        <time>2021-09-12T09:27:37Z</time>
      </trkpt>
      <trkpt lat="48.42676" lon="-3.83254">
        <ele>312.60000610352</ele>
        <time>2021-09-12T09:27:38Z</time>
      </trkpt>
      <trkpt lat="48.42678" lon="-3.83258">
        <ele>313</ele>
        <time>2021-09-12T09:27:39Z</time>
      </trkpt>
      <trkpt lat="48.42679" lon="-3.83262">
        <ele>313.39999389648</ele>
        <time>2021-09-12T09:27:40Z</time>
      </trkpt>
      <trkpt lat="48.42681" lon="-3.83266">
        <ele>313.39999389648</ele>
        <time>2021-09-12T09:27:41Z</time>
      </trkpt>
      <trkpt lat="48.42682" lon="-3.8327">
        <ele>313.39999389648</ele>
        <time>2021-09-12T09:27:42Z</time>
      </trkpt>
      <trkpt lat="48.42684" lon="-3.83273">
        <ele>313.39999389648</ele>
        <time>2021-09-12T09:27:43Z</time>
      </trkpt>
      <trkpt lat="48.42686" lon="-3.83277">
        <ele>314.20001220703</ele>
        <time>2021-09-12T09:27:44Z</time>
      </trkpt>
      <trkpt lat="48.42687" lon="-3.83281">
        <ele>314.20001220703</ele>
        <time>2021-09-12T09:27:45Z</time>
      </trkpt>
      <trkpt lat="48.42689" lon="-3.83285">
        <ele>314.39999389648</ele>
        <time>2021-09-12T09:27:46Z</time>
      </trkpt>
      <trkpt lat="48.4269" lon="-3.83289">
        <ele>314.60000610352</ele>
        <time>2021-09-12T09:27:47Z</time>
      </trkpt>
      <trkpt lat="48.42691" lon="-3.83293">
        <ele>315</ele>
        <time>2021-09-12T09:27:48Z</time>
      </trkpt>
      <trkpt lat="48.42692" lon="-3.83297">
        <ele>315</ele>
        <time>2021-09-12T09:27:49Z</time>
      </trkpt>
      <trkpt lat="48.42693" lon="-3.833">
        <ele>315.20001220703</ele>
        <time>2021-09-12T09:27:50Z</time>
      </trkpt>
      <trkpt lat="48.42695" lon="-3.83303">
        <ele>315.39999389648</ele>
        <time>2021-09-12T09:27:51Z</time>
      </trkpt>
      <trkpt lat="48.42697" lon="-3.83307">
        <ele>315.39999389648</ele>
        <time>2021-09-12T09:27:52Z</time>
      </trkpt>
      <trkpt lat="48.42698" lon="-3.8331">
        <ele>315.60000610352</ele>
        <time>2021-09-12T09:27:53Z</time>
      </trkpt>
      <trkpt lat="48.42699" lon="-3.83314">
        <ele>315.79998779297</ele>
        <time>2021-09-12T09:27:54Z</time>
      </trkpt>
      <trkpt lat="48.42701" lon="-3.83318">
        <ele>316.20001220703</ele>
        <time>2021-09-12T09:27:55Z</time>
      </trkpt>
      <trkpt lat="48.42702" lon="-3.83321">
        <ele>316.39999389648</ele>
        <time>2021-09-12T09:27:56Z</time>
      </trkpt>
      <trkpt lat="48.42703" lon="-3.83324">
        <ele>316.39999389648</ele>
        <time>2021-09-12T09:27:57Z</time>
      </trkpt>
      <trkpt lat="48.42705" lon="-3.83328">
        <ele>316.39999389648</ele>
        <time>2021-09-12T09:27:58Z</time>
      </trkpt>
      <trkpt lat="48.42706" lon="-3.83332">
        <ele>316.39999389648</ele>
        <time>2021-09-12T09:27:59Z</time>
      </trkpt>
      <trkpt lat="48.42707" lon="-3.83336">
        <ele>317</ele>
        <time>2021-09-12T09:28:00Z</time>
      </trkpt>
      <trkpt lat="48.42708" lon="-3.83339">
        <ele>317</ele>
        <time>2021-09-12T09:28:01Z</time>
      </trkpt>
      <trkpt lat="48.4271" lon="-3.83344">
        <ele>317.20001220703</ele>
        <time>2021-09-12T09:28:02Z</time>
      </trkpt>
      <trkpt lat="48.42712" lon="-3.83348">
        <ele>317.20001220703</ele>
        <time>2021-09-12T09:28:03Z</time>
      </trkpt>
      <trkpt lat="48.42713" lon="-3.83352">
        <ele>317.79998779297</ele>
        <time>2021-09-12T09:28:04Z</time>
      </trkpt>
      <trkpt lat="48.42715" lon="-3.83354">
        <ele>317.79998779297</ele>
        <time>2021-09-12T09:28:05Z</time>
      </trkpt>
      <trkpt lat="48.42716" lon="-3.83358">
        <ele>317.79998779297</ele>
        <time>2021-09-12T09:28:06Z</time>
      </trkpt>
      <trkpt lat="48.42718" lon="-3.83363">
        <ele>318</ele>
        <time>2021-09-12T09:28:07Z</time>
      </trkpt>
      <trkpt lat="48.42719" lon="-3.83367">
        <ele>318.20001220703</ele>
        <time>2021-09-12T09:28:08Z</time>
      </trkpt>
      <trkpt lat="48.4272" lon="-3.8337">
        <ele>318.20001220703</ele>
        <time>2021-09-12T09:28:09Z</time>
      </trkpt>
      <trkpt lat="48.42721" lon="-3.83373">
        <ele>318.60000610352</ele>
        <time>2021-09-12T09:28:10Z</time>
      </trkpt>
      <trkpt lat="48.42722" lon="-3.83377">
        <ele>319</ele>
        <time>2021-09-12T09:28:11Z</time>
      </trkpt>
      <trkpt lat="48.42724" lon="-3.8338">
        <ele>319</ele>
        <time>2021-09-12T09:28:12Z</time>
      </trkpt>
      <trkpt lat="48.42725" lon="-3.83383">
        <ele>319.39999389648</ele>
        <time>2021-09-12T09:28:13Z</time>
      </trkpt>
      <trkpt lat="48.42727" lon="-3.83388">
        <ele>319.60000610352</ele>
        <time>2021-09-12T09:28:14Z</time>
      </trkpt>
      <trkpt lat="48.42728" lon="-3.83391">
        <ele>319.60000610352</ele>
        <time>2021-09-12T09:28:15Z</time>
      </trkpt>
      <trkpt lat="48.4273" lon="-3.83394">
        <ele>320.20001220703</ele>
        <time>2021-09-12T09:28:16Z</time>
      </trkpt>
      <trkpt lat="48.42732" lon="-3.83398">
        <ele>320.20001220703</ele>
        <time>2021-09-12T09:28:17Z</time>
      </trkpt>
      <trkpt lat="48.42734" lon="-3.83402">
        <ele>320.20001220703</ele>
        <time>2021-09-12T09:28:18Z</time>
      </trkpt>
      <trkpt lat="48.42735" lon="-3.83405">
        <ele>320.39999389648</ele>
        <time>2021-09-12T09:28:19Z</time>
      </trkpt>
      <trkpt lat="48.42736" lon="-3.83409">
        <ele>320.60000610352</ele>
        <time>2021-09-12T09:28:20Z</time>
      </trkpt>
      <trkpt lat="48.42738" lon="-3.83412">
        <ele>321</ele>
        <time>2021-09-12T09:28:21Z</time>
      </trkpt>
      <trkpt lat="48.4274" lon="-3.83417">
        <ele>321</ele>
        <time>2021-09-12T09:28:22Z</time>
      </trkpt>
      <trkpt lat="48.42741" lon="-3.83421">
        <ele>321</ele>
        <time>2021-09-12T09:28:23Z</time>
      </trkpt>
      <trkpt lat="48.42742" lon="-3.83424">
        <ele>321.39999389648</ele>
        <time>2021-09-12T09:28:24Z</time>
      </trkpt>
      <trkpt lat="48.42743" lon="-3.83428">
        <ele>321.60000610352</ele>
        <time>2021-09-12T09:28:25Z</time>
      </trkpt>
      <trkpt lat="48.42745" lon="-3.83433">
        <ele>321.60000610352</ele>
        <time>2021-09-12T09:28:26Z</time>
      </trkpt>
      <trkpt lat="48.42746" lon="-3.83436">
        <ele>321.79998779297</ele>
        <time>2021-09-12T09:28:27Z</time>
      </trkpt>
      <trkpt lat="48.42747" lon="-3.8344">
        <ele>321.79998779297</ele>
        <time>2021-09-12T09:28:28Z</time>
      </trkpt>
      <trkpt lat="48.42749" lon="-3.83443">
        <ele>322</ele>
        <time>2021-09-12T09:28:29Z</time>
      </trkpt>
      <trkpt lat="48.4275" lon="-3.83447">
        <ele>322.20001220703</ele>
        <time>2021-09-12T09:28:30Z</time>
      </trkpt>
      <trkpt lat="48.42751" lon="-3.83452">
        <ele>322.60000610352</ele>
        <time>2021-09-12T09:28:31Z</time>
      </trkpt>
      <trkpt lat="48.42752" lon="-3.83456">
        <ele>323</ele>
        <time>2021-09-12T09:28:32Z</time>
      </trkpt>
      <trkpt lat="48.42754" lon="-3.83459">
        <ele>323</ele>
        <time>2021-09-12T09:28:33Z</time>
      </trkpt>
      <trkpt lat="48.42755" lon="-3.83462">
        <ele>323.20001220703</ele>
        <time>2021-09-12T09:28:34Z</time>
      </trkpt>
      <trkpt lat="48.42756" lon="-3.83466">
        <ele>323.39999389648</ele>
        <time>2021-09-12T09:28:35Z</time>
      </trkpt>
      <trkpt lat="48.42757" lon="-3.8347">
        <ele>323.60000610352</ele>
        <time>2021-09-12T09:28:36Z</time>
      </trkpt>
      <trkpt lat="48.42758" lon="-3.83474">
        <ele>323.79998779297</ele>
        <time>2021-09-12T09:28:37Z</time>
      </trkpt>
      <trkpt lat="48.42759" lon="-3.83477">
        <ele>324</ele>
        <time>2021-09-12T09:28:38Z</time>
      </trkpt>
      <trkpt lat="48.4276" lon="-3.83481">
        <ele>324.20001220703</ele>
        <time>2021-09-12T09:28:39Z</time>
      </trkpt>
      <trkpt lat="48.4276" lon="-3.83484">
        <ele>324.39999389648</ele>
        <time>2021-09-12T09:28:40Z</time>
      </trkpt>
      <trkpt lat="48.42761" lon="-3.83488">
        <ele>324.60000610352</ele>
        <time>2021-09-12T09:28:41Z</time>
      </trkpt>
      <trkpt lat="48.42762" lon="-3.83492">
        <ele>324.60000610352</ele>
        <time>2021-09-12T09:28:42Z</time>
      </trkpt>
      <trkpt lat="48.42763" lon="-3.83495">
        <ele>325</ele>
        <time>2021-09-12T09:28:43Z</time>
      </trkpt>
      <trkpt lat="48.42764" lon="-3.83499">
        <ele>325.20001220703</ele>
        <time>2021-09-12T09:28:44Z</time>
      </trkpt>
      <trkpt lat="48.42764" lon="-3.83503">
        <ele>325.39999389648</ele>
        <time>2021-09-12T09:28:45Z</time>
      </trkpt>
      <trkpt lat="48.42765" lon="-3.83506">
        <ele>325.60000610352</ele>
        <time>2021-09-12T09:28:46Z</time>
      </trkpt>
      <trkpt lat="48.42766" lon="-3.8351">
        <ele>325.79998779297</ele>
        <time>2021-09-12T09:28:47Z</time>
      </trkpt>
      <trkpt lat="48.42767" lon="-3.83513">
        <ele>325.79998779297</ele>
        <time>2021-09-12T09:28:48Z</time>
      </trkpt>
      <trkpt lat="48.42768" lon="-3.83517">
        <ele>326.20001220703</ele>
        <time>2021-09-12T09:28:49Z</time>
      </trkpt>
      <trkpt lat="48.42769" lon="-3.83521">
        <ele>326.39999389648</ele>
        <time>2021-09-12T09:28:50Z</time>
      </trkpt>
      <trkpt lat="48.42769" lon="-3.83525">
        <ele>326.39999389648</ele>
        <time>2021-09-12T09:28:51Z</time>
      </trkpt>
      <trkpt lat="48.4277" lon="-3.83529">
        <ele>326.39999389648</ele>
        <time>2021-09-12T09:28:52Z</time>
      </trkpt>
      <trkpt lat="48.42771" lon="-3.83533">
        <ele>326.60000610352</ele>
        <time>2021-09-12T09:28:53Z</time>
      </trkpt>
      <trkpt lat="48.42773" lon="-3.83537">
        <ele>327</ele>
        <time>2021-09-12T09:28:54Z</time>
      </trkpt>
      <trkpt lat="48.42774" lon="-3.8354">
        <ele>327</ele>
        <time>2021-09-12T09:28:55Z</time>
      </trkpt>
      <trkpt lat="48.42775" lon="-3.83544">
        <ele>327.20001220703</ele>
        <time>2021-09-12T09:28:56Z</time>
      </trkpt>
      <trkpt lat="48.42776" lon="-3.83547">
        <ele>327.39999389648</ele>
        <time>2021-09-12T09:28:57Z</time>
      </trkpt>
      <trkpt lat="48.42777" lon="-3.8355">
        <ele>327.60000610352</ele>
        <time>2021-09-12T09:28:58Z</time>
      </trkpt>
      <trkpt lat="48.42778" lon="-3.83554">
        <ele>328</ele>
        <time>2021-09-12T09:28:59Z</time>
      </trkpt>
      <trkpt lat="48.42779" lon="-3.83557">
        <ele>328.39999389648</ele>
        <time>2021-09-12T09:29:00Z</time>
      </trkpt>
      <trkpt lat="48.4278" lon="-3.83561">
        <ele>328.60000610352</ele>
        <time>2021-09-12T09:29:01Z</time>
      </trkpt>
      <trkpt lat="48.42781" lon="-3.83565">
        <ele>328.60000610352</ele>
        <time>2021-09-12T09:29:02Z</time>
      </trkpt>
      <trkpt lat="48.42782" lon="-3.83569">
        <ele>328.79998779297</ele>
        <time>2021-09-12T09:29:03Z</time>
      </trkpt>
      <trkpt lat="48.42783" lon="-3.83572">
        <ele>329</ele>
        <time>2021-09-12T09:29:04Z</time>
      </trkpt>
      <trkpt lat="48.42783" lon="-3.83576">
        <ele>329.20001220703</ele>
        <time>2021-09-12T09:29:05Z</time>
      </trkpt>
      <trkpt lat="48.42784" lon="-3.83579">
        <ele>329.39999389648</ele>
        <time>2021-09-12T09:29:06Z</time>
      </trkpt>
      <trkpt lat="48.42784" lon="-3.83583">
        <ele>329.60000610352</ele>
        <time>2021-09-12T09:29:07Z</time>
      </trkpt>
      <trkpt lat="48.42785" lon="-3.83586">
        <ele>330</ele>
        <time>2021-09-12T09:29:08Z</time>
      </trkpt>
      <trkpt lat="48.42785" lon="-3.8359">
        <ele>330.20001220703</ele>
        <time>2021-09-12T09:29:09Z</time>
      </trkpt>
      <trkpt lat="48.42785" lon="-3.83593">
        <ele>330.79998779297</ele>
        <time>2021-09-12T09:29:10Z</time>
      </trkpt>
      <trkpt lat="48.42786" lon="-3.83597">
        <ele>330.79998779297</ele>
        <time>2021-09-12T09:29:11Z</time>
      </trkpt>
      <trkpt lat="48.42787" lon="-3.83601">
        <ele>331.20001220703</ele>
        <time>2021-09-12T09:29:12Z</time>
      </trkpt>
      <trkpt lat="48.42787" lon="-3.83604">
        <ele>331.39999389648</ele>
        <time>2021-09-12T09:29:13Z</time>
      </trkpt>
      <trkpt lat="48.42788" lon="-3.83608">
        <ele>331.60000610352</ele>
        <time>2021-09-12T09:29:14Z</time>
      </trkpt>
      <trkpt lat="48.42788" lon="-3.83611">
        <ele>331.60000610352</ele>
        <time>2021-09-12T09:29:15Z</time>
      </trkpt>
      <trkpt lat="48.42789" lon="-3.83615">
        <ele>332</ele>
        <time>2021-09-12T09:29:16Z</time>
      </trkpt>
      <trkpt lat="48.4279" lon="-3.83619">
        <ele>332</ele>
        <time>2021-09-12T09:29:17Z</time>
      </trkpt>
      <trkpt lat="48.42791" lon="-3.83623">
        <ele>332.20001220703</ele>
        <time>2021-09-12T09:29:18Z</time>
      </trkpt>
      <trkpt lat="48.42792" lon="-3.83626">
        <ele>332.20001220703</ele>
        <time>2021-09-12T09:29:19Z</time>
      </trkpt>
      <trkpt lat="48.42792" lon="-3.8363">
        <ele>332.39999389648</ele>
        <time>2021-09-12T09:29:20Z</time>
      </trkpt>
      <trkpt lat="48.42793" lon="-3.83634">
        <ele>332.60000610352</ele>
        <time>2021-09-12T09:29:21Z</time>
      </trkpt>
      <trkpt lat="48.42794" lon="-3.83638">
        <ele>332.60000610352</ele>
        <time>2021-09-12T09:29:22Z</time>
      </trkpt>
      <trkpt lat="48.42794" lon="-3.83643">
        <ele>332.79998779297</ele>
        <time>2021-09-12T09:29:23Z</time>
      </trkpt>
      <trkpt lat="48.42795" lon="-3.83647">
        <ele>332.79998779297</ele>
        <time>2021-09-12T09:29:24Z</time>
      </trkpt>
      <trkpt lat="48.42795" lon="-3.83651">
        <ele>333</ele>
        <time>2021-09-12T09:29:25Z</time>
      </trkpt>
      <trkpt lat="48.42794" lon="-3.83656">
        <ele>333</ele>
        <time>2021-09-12T09:29:26Z</time>
      </trkpt>
      <trkpt lat="48.42794" lon="-3.8366">
        <ele>333</ele>
        <time>2021-09-12T09:29:27Z</time>
      </trkpt>
      <trkpt lat="48.42794" lon="-3.83664">
        <ele>333.20001220703</ele>
        <time>2021-09-12T09:29:28Z</time>
      </trkpt>
      <trkpt lat="48.42794" lon="-3.83668">
        <ele>333.79998779297</ele>
        <time>2021-09-12T09:29:29Z</time>
      </trkpt>
      <trkpt lat="48.42793" lon="-3.83673">
        <ele>333.79998779297</ele>
        <time>2021-09-12T09:29:30Z</time>
      </trkpt>
      <trkpt lat="48.42793" lon="-3.83677">
        <ele>334</ele>
        <time>2021-09-12T09:29:31Z</time>
      </trkpt>
      <trkpt lat="48.42793" lon="-3.83682">
        <ele>334.39999389648</ele>
        <time>2021-09-12T09:29:32Z</time>
      </trkpt>
      <trkpt lat="48.42793" lon="-3.83686">
        <ele>334.60000610352</ele>
        <time>2021-09-12T09:29:33Z</time>
      </trkpt>
      <trkpt lat="48.42793" lon="-3.83691">
        <ele>334.79998779297</ele>
        <time>2021-09-12T09:29:34Z</time>
      </trkpt>
      <trkpt lat="48.42793" lon="-3.83695">
        <ele>335</ele>
        <time>2021-09-12T09:29:35Z</time>
      </trkpt>
      <trkpt lat="48.42793" lon="-3.837">
        <ele>335</ele>
        <time>2021-09-12T09:29:36Z</time>
      </trkpt>
      <trkpt lat="48.42792" lon="-3.83704">
        <ele>335.20001220703</ele>
        <time>2021-09-12T09:29:37Z</time>
      </trkpt>
      <trkpt lat="48.42792" lon="-3.83709">
        <ele>335.20001220703</ele>
        <time>2021-09-12T09:29:38Z</time>
      </trkpt>
      <trkpt lat="48.42792" lon="-3.83713">
        <ele>335.20001220703</ele>
        <time>2021-09-12T09:29:39Z</time>
      </trkpt>
      <trkpt lat="48.42792" lon="-3.83718">
        <ele>335.39999389648</ele>
        <time>2021-09-12T09:29:40Z</time>
      </trkpt>
      <trkpt lat="48.42792" lon="-3.83723">
        <ele>335.60000610352</ele>
        <time>2021-09-12T09:29:41Z</time>
      </trkpt>
      <trkpt lat="48.42792" lon="-3.83727">
        <ele>335.79998779297</ele>
        <time>2021-09-12T09:29:42Z</time>
      </trkpt>
      <trkpt lat="48.42792" lon="-3.83732">
        <ele>336</ele>
        <time>2021-09-12T09:29:43Z</time>
      </trkpt>
      <trkpt lat="48.42792" lon="-3.83737">
        <ele>336.20001220703</ele>
        <time>2021-09-12T09:29:44Z</time>
      </trkpt>
      <trkpt lat="48.42792" lon="-3.83742">
        <ele>336.20001220703</ele>
        <time>2021-09-12T09:29:45Z</time>
      </trkpt>
      <trkpt lat="48.42792" lon="-3.83748">
        <ele>336.20001220703</ele>
        <time>2021-09-12T09:29:46Z</time>
      </trkpt>
      <trkpt lat="48.42792" lon="-3.83753">
        <ele>336.39999389648</ele>
        <time>2021-09-12T09:29:47Z</time>
      </trkpt>
      <trkpt lat="48.42791" lon="-3.83759">
        <ele>336.39999389648</ele>
        <time>2021-09-12T09:29:48Z</time>
      </trkpt>
      <trkpt lat="48.42791" lon="-3.83764">
        <ele>336.39999389648</ele>
        <time>2021-09-12T09:29:49Z</time>
      </trkpt>
      <trkpt lat="48.4279" lon="-3.8377">
        <ele>336.60000610352</ele>
        <time>2021-09-12T09:29:50Z</time>
      </trkpt>
      <trkpt lat="48.42789" lon="-3.83775">
        <ele>336.60000610352</ele>
        <time>2021-09-12T09:29:51Z</time>
      </trkpt>
      <trkpt lat="48.42788" lon="-3.83782">
        <ele>336.60000610352</ele>
        <time>2021-09-12T09:29:52Z</time>
      </trkpt>
      <trkpt lat="48.42786" lon="-3.83789">
        <ele>336.60000610352</ele>
        <time>2021-09-12T09:29:53Z</time>
      </trkpt>
      <trkpt lat="48.42785" lon="-3.83795">
        <ele>336.60000610352</ele>
        <time>2021-09-12T09:29:54Z</time>
      </trkpt>
      <trkpt lat="48.42784" lon="-3.838">
        <ele>336.60000610352</ele>
        <time>2021-09-12T09:29:55Z</time>
      </trkpt>
      <trkpt lat="48.42783" lon="-3.83805">
        <ele>336.60000610352</ele>
        <time>2021-09-12T09:29:56Z</time>
      </trkpt>
      <trkpt lat="48.42781" lon="-3.83811">
        <ele>336.79998779297</ele>
        <time>2021-09-12T09:29:57Z</time>
      </trkpt>
      <trkpt lat="48.4278" lon="-3.83819">
        <ele>336.79998779297</ele>
        <time>2021-09-12T09:29:58Z</time>
      </trkpt>
      <trkpt lat="48.42778" lon="-3.83825">
        <ele>336.79998779297</ele>
        <time>2021-09-12T09:29:59Z</time>
      </trkpt>
      <trkpt lat="48.42777" lon="-3.83832">
        <ele>336.79998779297</ele>
        <time>2021-09-12T09:30:00Z</time>
      </trkpt>
      <trkpt lat="48.42775" lon="-3.83837">
        <ele>336.79998779297</ele>
        <time>2021-09-12T09:30:01Z</time>
      </trkpt>
      <trkpt lat="48.42773" lon="-3.83845">
        <ele>336.60000610352</ele>
        <time>2021-09-12T09:30:02Z</time>
      </trkpt>
      <trkpt lat="48.42771" lon="-3.83851">
        <ele>336.39999389648</ele>
        <time>2021-09-12T09:30:03Z</time>
      </trkpt>
      <trkpt lat="48.42769" lon="-3.83858">
        <ele>336.39999389648</ele>
        <time>2021-09-12T09:30:04Z</time>
      </trkpt>
      <trkpt lat="48.42768" lon="-3.83864">
        <ele>336.20001220703</ele>
        <time>2021-09-12T09:30:05Z</time>
      </trkpt>
      <trkpt lat="48.42766" lon="-3.83871">
        <ele>336</ele>
        <time>2021-09-12T09:30:06Z</time>
      </trkpt>
      <trkpt lat="48.42765" lon="-3.83879">
        <ele>335.79998779297</ele>
        <time>2021-09-12T09:30:07Z</time>
      </trkpt>
      <trkpt lat="48.42764" lon="-3.83887">
        <ele>335.79998779297</ele>
        <time>2021-09-12T09:30:08Z</time>
      </trkpt>
      <trkpt lat="48.42763" lon="-3.83894">
        <ele>335.79998779297</ele>
        <time>2021-09-12T09:30:09Z</time>
      </trkpt>
      <trkpt lat="48.42762" lon="-3.83901">
        <ele>335.60000610352</ele>
        <time>2021-09-12T09:30:10Z</time>
      </trkpt>
      <trkpt lat="48.42761" lon="-3.83909">
        <ele>335.60000610352</ele>
        <time>2021-09-12T09:30:11Z</time>
      </trkpt>
      <trkpt lat="48.4276" lon="-3.83919">
        <ele>335.39999389648</ele>
        <time>2021-09-12T09:30:12Z</time>
      </trkpt>
      <trkpt lat="48.42758" lon="-3.83928">
        <ele>335.39999389648</ele>
        <time>2021-09-12T09:30:13Z</time>
      </trkpt>
      <trkpt lat="48.42758" lon="-3.83937">
        <ele>335.39999389648</ele>
        <time>2021-09-12T09:30:14Z</time>
      </trkpt>
      <trkpt lat="48.42757" lon="-3.83943">
        <ele>335.20001220703</ele>
        <time>2021-09-12T09:30:15Z</time>
      </trkpt>
      <trkpt lat="48.42756" lon="-3.83952">
        <ele>335</ele>
        <time>2021-09-12T09:30:16Z</time>
      </trkpt>
      <trkpt lat="48.42755" lon="-3.8396">
        <ele>334.60000610352</ele>
        <time>2021-09-12T09:30:17Z</time>
      </trkpt>
      <trkpt lat="48.42754" lon="-3.8397">
        <ele>334.60000610352</ele>
        <time>2021-09-12T09:30:18Z</time>
      </trkpt>
      <trkpt lat="48.42752" lon="-3.83978">
        <ele>334.60000610352</ele>
        <time>2021-09-12T09:30:19Z</time>
      </trkpt>
      <trkpt lat="48.42751" lon="-3.83984">
        <ele>334.60000610352</ele>
        <time>2021-09-12T09:30:20Z</time>
      </trkpt>
      <trkpt lat="48.42748" lon="-3.83991">
        <ele>334.60000610352</ele>
        <time>2021-09-12T09:30:21Z</time>
      </trkpt>
      <trkpt lat="48.42746" lon="-3.83999">
        <ele>334.60000610352</ele>
        <time>2021-09-12T09:30:22Z</time>
      </trkpt>
      <trkpt lat="48.42744" lon="-3.84007">
        <ele>334.39999389648</ele>
        <time>2021-09-12T09:30:23Z</time>
      </trkpt>
      <trkpt lat="48.42741" lon="-3.84014">
        <ele>334.39999389648</ele>
        <time>2021-09-12T09:30:24Z</time>
      </trkpt>
      <trkpt lat="48.4274" lon="-3.8402">
        <ele>334.20001220703</ele>
        <time>2021-09-12T09:30:25Z</time>
      </trkpt>
      <trkpt lat="48.42738" lon="-3.84027">
        <ele>334</ele>
        <time>2021-09-12T09:30:26Z</time>
      </trkpt>
      <trkpt lat="48.42736" lon="-3.84037">
        <ele>334.20001220703</ele>
        <time>2021-09-12T09:30:27Z</time>
      </trkpt>
      <trkpt lat="48.42734" lon="-3.84045">
        <ele>334.20001220703</ele>
        <time>2021-09-12T09:30:28Z</time>
      </trkpt>
      <trkpt lat="48.42732" lon="-3.84053">
        <ele>334</ele>
        <time>2021-09-12T09:30:29Z</time>
      </trkpt>
      <trkpt lat="48.42731" lon="-3.84059">
        <ele>334</ele>
        <time>2021-09-12T09:30:30Z</time>
      </trkpt>
      <trkpt lat="48.42729" lon="-3.84069">
        <ele>334</ele>
        <time>2021-09-12T09:30:31Z</time>
      </trkpt>
      <trkpt lat="48.42728" lon="-3.84077">
        <ele>333.60000610352</ele>
        <time>2021-09-12T09:30:32Z</time>
      </trkpt>
      <trkpt lat="48.42726" lon="-3.84085">
        <ele>333.60000610352</ele>
        <time>2021-09-12T09:30:33Z</time>
      </trkpt>
      <trkpt lat="48.42725" lon="-3.84092">
        <ele>333.39999389648</ele>
        <time>2021-09-12T09:30:34Z</time>
      </trkpt>
      <trkpt lat="48.42724" lon="-3.84098">
        <ele>333.20001220703</ele>
        <time>2021-09-12T09:30:35Z</time>
      </trkpt>
      <trkpt lat="48.42723" lon="-3.84107">
        <ele>333.20001220703</ele>
        <time>2021-09-12T09:30:36Z</time>
      </trkpt>
      <trkpt lat="48.42722" lon="-3.84117">
        <ele>332.79998779297</ele>
        <time>2021-09-12T09:30:37Z</time>
      </trkpt>
      <trkpt lat="48.42721" lon="-3.84124">
        <ele>332.60000610352</ele>
        <time>2021-09-12T09:30:38Z</time>
      </trkpt>
      <trkpt lat="48.42721" lon="-3.84133">
        <ele>332.20001220703</ele>
        <time>2021-09-12T09:30:39Z</time>
      </trkpt>
      <trkpt lat="48.4272" lon="-3.84143">
        <ele>332</ele>
        <time>2021-09-12T09:30:40Z</time>
      </trkpt>
      <trkpt lat="48.4272" lon="-3.84153">
        <ele>331.60000610352</ele>
        <time>2021-09-12T09:30:41Z</time>
      </trkpt>
      <trkpt lat="48.42719" lon="-3.84163">
        <ele>331.20001220703</ele>
        <time>2021-09-12T09:30:42Z</time>
      </trkpt>
      <trkpt lat="48.42719" lon="-3.84172">
        <ele>331.20001220703</ele>
        <time>2021-09-12T09:30:43Z</time>
      </trkpt>
      <trkpt lat="48.42719" lon="-3.84181">
        <ele>331</ele>
        <time>2021-09-12T09:30:44Z</time>
      </trkpt>
      <trkpt lat="48.42719" lon="-3.84191">
        <ele>330.39999389648</ele>
        <time>2021-09-12T09:30:45Z</time>
      </trkpt>
      <trkpt lat="48.42719" lon="-3.842">
        <ele>330.20001220703</ele>
        <time>2021-09-12T09:30:46Z</time>
      </trkpt>
      <trkpt lat="48.42719" lon="-3.84209">
        <ele>330.20001220703</ele>
        <time>2021-09-12T09:30:47Z</time>
      </trkpt>
      <trkpt lat="48.42719" lon="-3.84219">
        <ele>330</ele>
        <time>2021-09-12T09:30:48Z</time>
      </trkpt>
      <trkpt lat="48.42719" lon="-3.84226">
        <ele>329.79998779297</ele>
        <time>2021-09-12T09:30:49Z</time>
      </trkpt>
      <trkpt lat="48.42718" lon="-3.84236">
        <ele>329.60000610352</ele>
        <time>2021-09-12T09:30:50Z</time>
      </trkpt>
      <trkpt lat="48.42717" lon="-3.84248">
        <ele>328.79998779297</ele>
        <time>2021-09-12T09:30:51Z</time>
      </trkpt>
      <trkpt lat="48.42716" lon="-3.84257">
        <ele>328.39999389648</ele>
        <time>2021-09-12T09:30:52Z</time>
      </trkpt>
      <trkpt lat="48.42714" lon="-3.84267">
        <ele>328.20001220703</ele>
        <time>2021-09-12T09:30:53Z</time>
      </trkpt>
      <trkpt lat="48.42713" lon="-3.84274">
        <ele>327.79998779297</ele>
        <time>2021-09-12T09:30:54Z</time>
      </trkpt>
      <trkpt lat="48.42712" lon="-3.84283">
        <ele>327.79998779297</ele>
        <time>2021-09-12T09:30:55Z</time>
      </trkpt>
      <trkpt lat="48.42712" lon="-3.84294">
        <ele>327.79998779297</ele>
        <time>2021-09-12T09:30:56Z</time>
      </trkpt>
      <trkpt lat="48.42711" lon="-3.84304">
        <ele>327.79998779297</ele>
        <time>2021-09-12T09:30:57Z</time>
      </trkpt>
      <trkpt lat="48.42711" lon="-3.84312">
        <ele>327.20001220703</ele>
        <time>2021-09-12T09:30:58Z</time>
      </trkpt>
      <trkpt lat="48.42711" lon="-3.84322">
        <ele>327</ele>
        <time>2021-09-12T09:30:59Z</time>
      </trkpt>
      <trkpt lat="48.42712" lon="-3.84331">
        <ele>327</ele>
        <time>2021-09-12T09:31:00Z</time>
      </trkpt>
      <trkpt lat="48.42713" lon="-3.84343">
        <ele>326.79998779297</ele>
        <time>2021-09-12T09:31:01Z</time>
      </trkpt>
      <trkpt lat="48.42714" lon="-3.84353">
        <ele>326.20001220703</ele>
        <time>2021-09-12T09:31:02Z</time>
      </trkpt>
      <trkpt lat="48.42715" lon="-3.84362">
        <ele>325.20001220703</ele>
        <time>2021-09-12T09:31:03Z</time>
      </trkpt>
      <trkpt lat="48.42716" lon="-3.84369">
        <ele>325</ele>
        <time>2021-09-12T09:31:04Z</time>
      </trkpt>
      <trkpt lat="48.42718" lon="-3.84379">
        <ele>324.79998779297</ele>
        <time>2021-09-12T09:31:05Z</time>
      </trkpt>
      <trkpt lat="48.4272" lon="-3.84389">
        <ele>324.60000610352</ele>
        <time>2021-09-12T09:31:06Z</time>
      </trkpt>
      <trkpt lat="48.42722" lon="-3.84396">
        <ele>323.79998779297</ele>
        <time>2021-09-12T09:31:07Z</time>
      </trkpt>
      <trkpt lat="48.42725" lon="-3.84406">
        <ele>323.79998779297</ele>
        <time>2021-09-12T09:31:08Z</time>
      </trkpt>
      <trkpt lat="48.42728" lon="-3.84411">
        <ele>323.79998779297</ele>
        <time>2021-09-12T09:31:09Z</time>
      </trkpt>
      <trkpt lat="48.42731" lon="-3.84418">
        <ele>323.60000610352</ele>
        <time>2021-09-12T09:31:10Z</time>
      </trkpt>
      <trkpt lat="48.42734" lon="-3.84426">
        <ele>322.39999389648</ele>
        <time>2021-09-12T09:31:11Z</time>
      </trkpt>
      <trkpt lat="48.42734" lon="-3.84431">
        <ele>321.79998779297</ele>
        <time>2021-09-12T09:31:12Z</time>
      </trkpt>
      <trkpt lat="48.42735" lon="-3.84434">
        <ele>321.39999389648</ele>
        <time>2021-09-12T09:31:13Z</time>
      </trkpt>
      <trkpt lat="48.42735" lon="-3.84436">
        <ele>321</ele>
        <time>2021-09-12T09:31:14Z</time>
      </trkpt>
      <trkpt lat="48.42735" lon="-3.84437">
        <ele>321</ele>
        <time>2021-09-12T09:31:15Z</time>
      </trkpt>
      <trkpt lat="48.42735" lon="-3.84437">
        <ele>321</ele>
        <time>2021-09-12T09:31:16Z</time>
      </trkpt>
      <trkpt lat="48.42736" lon="-3.84437">
        <ele>320.79998779297</ele>
        <time>2021-09-12T09:31:17Z</time>
      </trkpt>
      <trkpt lat="48.42736" lon="-3.84437">
        <ele>320.60000610352</ele>
        <time>2021-09-12T09:31:18Z</time>
      </trkpt>
      <trkpt lat="48.42736" lon="-3.84437">
        <ele>320.60000610352</ele>
        <time>2021-09-12T09:31:19Z</time>
      </trkpt>
      <trkpt lat="48.42736" lon="-3.84437">
        <ele>320.60000610352</ele>
        <time>2021-09-12T09:31:20Z</time>
      </trkpt>
      <trkpt lat="48.42736" lon="-3.84437">
        <ele>320.60000610352</ele>
        <time>2021-09-12T09:31:21Z</time>
      </trkpt>
      <trkpt lat="48.42736" lon="-3.84437">
        <ele>320.60000610352</ele>
        <time>2021-09-12T09:31:22Z</time>
      </trkpt>
      <trkpt lat="48.42736" lon="-3.84437">
        <ele>320.60000610352</ele>
        <time>2021-09-12T09:31:23Z</time>
      </trkpt>
      <trkpt lat="48.42736" lon="-3.84438">
        <ele>320.60000610352</ele>
        <time>2021-09-12T09:31:24Z</time>
      </trkpt>
      <trkpt lat="48.42737" lon="-3.84439">
        <ele>320.60000610352</ele>
        <time>2021-09-12T09:31:25Z</time>
      </trkpt>
      <trkpt lat="48.42737" lon="-3.84439">
        <ele>320.60000610352</ele>
        <time>2021-09-12T09:31:26Z</time>
      </trkpt>
      <trkpt lat="48.42737" lon="-3.8444">
        <ele>320.39999389648</ele>
        <time>2021-09-12T09:31:27Z</time>
      </trkpt>
      <trkpt lat="48.42738" lon="-3.84442">
        <ele>320.39999389648</ele>
        <time>2021-09-12T09:31:28Z</time>
      </trkpt>
      <trkpt lat="48.42739" lon="-3.84444">
        <ele>320.39999389648</ele>
        <time>2021-09-12T09:31:29Z</time>
      </trkpt>
      <trkpt lat="48.4274" lon="-3.84447">
        <ele>320.39999389648</ele>
        <time>2021-09-12T09:31:30Z</time>
      </trkpt>
      <trkpt lat="48.42742" lon="-3.84452">
        <ele>320.39999389648</ele>
        <time>2021-09-12T09:31:31Z</time>
      </trkpt>
      <trkpt lat="48.42744" lon="-3.84456">
        <ele>320.20001220703</ele>
        <time>2021-09-12T09:31:32Z</time>
      </trkpt>
      <trkpt lat="48.42746" lon="-3.84461">
        <ele>320</ele>
        <time>2021-09-12T09:31:33Z</time>
      </trkpt>
      <trkpt lat="48.42747" lon="-3.84465">
        <ele>320</ele>
        <time>2021-09-12T09:31:34Z</time>
      </trkpt>
      <trkpt lat="48.4275" lon="-3.84472">
        <ele>319.60000610352</ele>
        <time>2021-09-12T09:31:35Z</time>
      </trkpt>
      <trkpt lat="48.42751" lon="-3.84478">
        <ele>319.60000610352</ele>
        <time>2021-09-12T09:31:36Z</time>
      </trkpt>
      <trkpt lat="48.42753" lon="-3.84483">
        <ele>319.39999389648</ele>
        <time>2021-09-12T09:31:37Z</time>
      </trkpt>
      <trkpt lat="48.42755" lon="-3.84489">
        <ele>318.79998779297</ele>
        <time>2021-09-12T09:31:38Z</time>
      </trkpt>
      <trkpt lat="48.42757" lon="-3.84495">
        <ele>318.39999389648</ele>
        <time>2021-09-12T09:31:39Z</time>
      </trkpt>
      <trkpt lat="48.42759" lon="-3.84502">
        <ele>318</ele>
        <time>2021-09-12T09:31:40Z</time>
      </trkpt>
      <trkpt lat="48.42762" lon="-3.8451">
        <ele>317.79998779297</ele>
        <time>2021-09-12T09:31:41Z</time>
      </trkpt>
      <trkpt lat="48.42765" lon="-3.84516">
        <ele>317</ele>
        <time>2021-09-12T09:31:42Z</time>
      </trkpt>
      <trkpt lat="48.42767" lon="-3.84523">
        <ele>316.79998779297</ele>
        <time>2021-09-12T09:31:43Z</time>
      </trkpt>
      <trkpt lat="48.42769" lon="-3.84529">
        <ele>316.60000610352</ele>
        <time>2021-09-12T09:31:44Z</time>
      </trkpt>
      <trkpt lat="48.42772" lon="-3.84536">
        <ele>316.20001220703</ele>
        <time>2021-09-12T09:31:45Z</time>
      </trkpt>
      <trkpt lat="48.42774" lon="-3.84542">
        <ele>315.79998779297</ele>
        <time>2021-09-12T09:31:46Z</time>
      </trkpt>
      <trkpt lat="48.42776" lon="-3.84548">
        <ele>315.79998779297</ele>
        <time>2021-09-12T09:31:47Z</time>
      </trkpt>
      <trkpt lat="48.42778" lon="-3.84554">
        <ele>315.20001220703</ele>
        <time>2021-09-12T09:31:48Z</time>
      </trkpt>
      <trkpt lat="48.42781" lon="-3.84561">
        <ele>314.60000610352</ele>
        <time>2021-09-12T09:31:49Z</time>
      </trkpt>
      <trkpt lat="48.42783" lon="-3.84568">
        <ele>314</ele>
        <time>2021-09-12T09:31:50Z</time>
      </trkpt>
      <trkpt lat="48.42785" lon="-3.84574">
        <ele>314</ele>
        <time>2021-09-12T09:31:51Z</time>
      </trkpt>
      <trkpt lat="48.42787" lon="-3.8458">
        <ele>313.79998779297</ele>
        <time>2021-09-12T09:31:52Z</time>
      </trkpt>
      <trkpt lat="48.42788" lon="-3.84584">
        <ele>313.60000610352</ele>
        <time>2021-09-12T09:31:53Z</time>
      </trkpt>
      <trkpt lat="48.42788" lon="-3.84585">
        <ele>313.39999389648</ele>
        <time>2021-09-12T09:31:54Z</time>
      </trkpt>
      <trkpt lat="48.42789" lon="-3.84586">
        <ele>313</ele>
        <time>2021-09-12T09:31:55Z</time>
      </trkpt>
      <trkpt lat="48.42789" lon="-3.84586">
        <ele>312.60000610352</ele>
        <time>2021-09-12T09:31:56Z</time>
      </trkpt>
      <trkpt lat="48.4279" lon="-3.84588">
        <ele>312.60000610352</ele>
        <time>2021-09-12T09:31:57Z</time>
      </trkpt>
      <trkpt lat="48.4279" lon="-3.8459">
        <ele>312.60000610352</ele>
        <time>2021-09-12T09:31:58Z</time>
      </trkpt>
      <trkpt lat="48.4279" lon="-3.84592">
        <ele>312</ele>
        <time>2021-09-12T09:31:59Z</time>
      </trkpt>
      <trkpt lat="48.4279" lon="-3.84592">
        <ele>312</ele>
        <time>2021-09-12T09:32:00Z</time>
      </trkpt>
      <trkpt lat="48.42791" lon="-3.84593">
        <ele>312</ele>
        <time>2021-09-12T09:32:01Z</time>
      </trkpt>
      <trkpt lat="48.42791" lon="-3.84595">
        <ele>311.79998779297</ele>
        <time>2021-09-12T09:32:02Z</time>
      </trkpt>
      <trkpt lat="48.42792" lon="-3.84598">
        <ele>311.79998779297</ele>
        <time>2021-09-12T09:32:03Z</time>
      </trkpt>
      <trkpt lat="48.42793" lon="-3.84602">
        <ele>311.79998779297</ele>
        <time>2021-09-12T09:32:04Z</time>
      </trkpt>
      <trkpt lat="48.42794" lon="-3.84608">
        <ele>311.79998779297</ele>
        <time>2021-09-12T09:32:05Z</time>
      </trkpt>
      <trkpt lat="48.42795" lon="-3.84615">
        <ele>311.79998779297</ele>
        <time>2021-09-12T09:32:06Z</time>
      </trkpt>
      <trkpt lat="48.42797" lon="-3.84621">
        <ele>311.60000610352</ele>
        <time>2021-09-12T09:32:07Z</time>
      </trkpt>
      <trkpt lat="48.42798" lon="-3.84628">
        <ele>311.60000610352</ele>
        <time>2021-09-12T09:32:08Z</time>
      </trkpt>
      <trkpt lat="48.42799" lon="-3.84635">
        <ele>310.79998779297</ele>
        <time>2021-09-12T09:32:09Z</time>
      </trkpt>
      <trkpt lat="48.428" lon="-3.84642">
        <ele>310.39999389648</ele>
        <time>2021-09-12T09:32:10Z</time>
      </trkpt>
      <trkpt lat="48.42802" lon="-3.8465">
        <ele>310.39999389648</ele>
        <time>2021-09-12T09:32:11Z</time>
      </trkpt>
      <trkpt lat="48.42804" lon="-3.84657">
        <ele>310.20001220703</ele>
        <time>2021-09-12T09:32:12Z</time>
      </trkpt>
      <trkpt lat="48.42805" lon="-3.84664">
        <ele>309.79998779297</ele>
        <time>2021-09-12T09:32:13Z</time>
      </trkpt>
      <trkpt lat="48.42807" lon="-3.84671">
        <ele>309.60000610352</ele>
        <time>2021-09-12T09:32:14Z</time>
      </trkpt>
      <trkpt lat="48.42808" lon="-3.84678">
        <ele>309.39999389648</ele>
        <time>2021-09-12T09:32:15Z</time>
      </trkpt>
      <trkpt lat="48.4281" lon="-3.84685">
        <ele>309.20001220703</ele>
        <time>2021-09-12T09:32:16Z</time>
      </trkpt>
      <trkpt lat="48.42812" lon="-3.84692">
        <ele>309</ele>
        <time>2021-09-12T09:32:17Z</time>
      </trkpt>
      <trkpt lat="48.42814" lon="-3.84699">
        <ele>308.79998779297</ele>
        <time>2021-09-12T09:32:18Z</time>
      </trkpt>
      <trkpt lat="48.42816" lon="-3.84706">
        <ele>308.79998779297</ele>
        <time>2021-09-12T09:32:19Z</time>
      </trkpt>
      <trkpt lat="48.42818" lon="-3.84713">
        <ele>308.60000610352</ele>
        <time>2021-09-12T09:32:20Z</time>
      </trkpt>
      <trkpt lat="48.4282" lon="-3.8472">
        <ele>308</ele>
        <time>2021-09-12T09:32:21Z</time>
      </trkpt>
      <trkpt lat="48.42822" lon="-3.84728">
        <ele>308</ele>
        <time>2021-09-12T09:32:22Z</time>
      </trkpt>
      <trkpt lat="48.42823" lon="-3.84736">
        <ele>307.79998779297</ele>
        <time>2021-09-12T09:32:23Z</time>
      </trkpt>
      <trkpt lat="48.42824" lon="-3.84744">
        <ele>307.79998779297</ele>
        <time>2021-09-12T09:32:24Z</time>
      </trkpt>
      <trkpt lat="48.42825" lon="-3.84753">
        <ele>307.60000610352</ele>
        <time>2021-09-12T09:32:25Z</time>
      </trkpt>
      <trkpt lat="48.42827" lon="-3.8476">
        <ele>307.60000610352</ele>
        <time>2021-09-12T09:32:26Z</time>
      </trkpt>
      <trkpt lat="48.42829" lon="-3.84767">
        <ele>307.39999389648</ele>
        <time>2021-09-12T09:32:27Z</time>
      </trkpt>
      <trkpt lat="48.42833" lon="-3.84773">
        <ele>307.20001220703</ele>
        <time>2021-09-12T09:32:28Z</time>
      </trkpt>
      <trkpt lat="48.42836" lon="-3.8478">
        <ele>307.20001220703</ele>
        <time>2021-09-12T09:32:29Z</time>
      </trkpt>
      <trkpt lat="48.42839" lon="-3.84786">
        <ele>307</ele>
        <time>2021-09-12T09:32:30Z</time>
      </trkpt>
      <trkpt lat="48.42842" lon="-3.84793">
        <ele>306.60000610352</ele>
        <time>2021-09-12T09:32:31Z</time>
      </trkpt>
      <trkpt lat="48.42844" lon="-3.848">
        <ele>306.60000610352</ele>
        <time>2021-09-12T09:32:32Z</time>
      </trkpt>
      <trkpt lat="48.42846" lon="-3.84807">
        <ele>306.60000610352</ele>
        <time>2021-09-12T09:32:33Z</time>
      </trkpt>
      <trkpt lat="48.42847" lon="-3.84815">
        <ele>306.60000610352</ele>
        <time>2021-09-12T09:32:34Z</time>
      </trkpt>
      <trkpt lat="48.42848" lon="-3.84823">
        <ele>306.60000610352</ele>
        <time>2021-09-12T09:32:35Z</time>
      </trkpt>
      <trkpt lat="48.42849" lon="-3.84831">
        <ele>306.60000610352</ele>
        <time>2021-09-12T09:32:36Z</time>
      </trkpt>
      <trkpt lat="48.42852" lon="-3.84838">
        <ele>306.39999389648</ele>
        <time>2021-09-12T09:32:37Z</time>
      </trkpt>
      <trkpt lat="48.42855" lon="-3.84845">
        <ele>305.79998779297</ele>
        <time>2021-09-12T09:32:38Z</time>
      </trkpt>
      <trkpt lat="48.42857" lon="-3.84852">
        <ele>305.60000610352</ele>
        <time>2021-09-12T09:32:39Z</time>
      </trkpt>
      <trkpt lat="48.4286" lon="-3.8486">
        <ele>305</ele>
        <time>2021-09-12T09:32:40Z</time>
      </trkpt>
      <trkpt lat="48.42862" lon="-3.84867">
        <ele>304.79998779297</ele>
        <time>2021-09-12T09:32:41Z</time>
      </trkpt>
      <trkpt lat="48.42864" lon="-3.84875">
        <ele>304.79998779297</ele>
        <time>2021-09-12T09:32:42Z</time>
      </trkpt>
      <trkpt lat="48.42865" lon="-3.84883">
        <ele>304.79998779297</ele>
        <time>2021-09-12T09:32:43Z</time>
      </trkpt>
      <trkpt lat="48.42867" lon="-3.8489">
        <ele>304.60000610352</ele>
        <time>2021-09-12T09:32:44Z</time>
      </trkpt>
      <trkpt lat="48.42868" lon="-3.84898">
        <ele>304.20001220703</ele>
        <time>2021-09-12T09:32:45Z</time>
      </trkpt>
      <trkpt lat="48.4287" lon="-3.84905">
        <ele>304</ele>
        <time>2021-09-12T09:32:46Z</time>
      </trkpt>
      <trkpt lat="48.42873" lon="-3.84913">
        <ele>303.79998779297</ele>
        <time>2021-09-12T09:32:47Z</time>
      </trkpt>
      <trkpt lat="48.42876" lon="-3.84921">
        <ele>303.79998779297</ele>
        <time>2021-09-12T09:32:48Z</time>
      </trkpt>
      <trkpt lat="48.42879" lon="-3.84929">
        <ele>303.79998779297</ele>
        <time>2021-09-12T09:32:49Z</time>
      </trkpt>
      <trkpt lat="48.42883" lon="-3.84937">
        <ele>302.79998779297</ele>
        <time>2021-09-12T09:32:50Z</time>
      </trkpt>
      <trkpt lat="48.42887" lon="-3.84944">
        <ele>302.60000610352</ele>
        <time>2021-09-12T09:32:51Z</time>
      </trkpt>
      <trkpt lat="48.42892" lon="-3.84951">
        <ele>302.60000610352</ele>
        <time>2021-09-12T09:32:52Z</time>
      </trkpt>
      <trkpt lat="48.42896" lon="-3.84959">
        <ele>302.60000610352</ele>
        <time>2021-09-12T09:32:53Z</time>
      </trkpt>
      <trkpt lat="48.42901" lon="-3.84966">
        <ele>302.39999389648</ele>
        <time>2021-09-12T09:32:54Z</time>
      </trkpt>
      <trkpt lat="48.42906" lon="-3.84973">
        <ele>302.39999389648</ele>
        <time>2021-09-12T09:32:55Z</time>
      </trkpt>
      <trkpt lat="48.42911" lon="-3.8498">
        <ele>302.20001220703</ele>
        <time>2021-09-12T09:32:56Z</time>
      </trkpt>
      <trkpt lat="48.42915" lon="-3.84988">
        <ele>302</ele>
        <time>2021-09-12T09:32:57Z</time>
      </trkpt>
      <trkpt lat="48.4292" lon="-3.84995">
        <ele>302</ele>
        <time>2021-09-12T09:32:58Z</time>
      </trkpt>
      <trkpt lat="48.42924" lon="-3.85002">
        <ele>302</ele>
        <time>2021-09-12T09:32:59Z</time>
      </trkpt>
      <trkpt lat="48.42927" lon="-3.8501">
        <ele>302</ele>
        <time>2021-09-12T09:33:00Z</time>
      </trkpt>
      <trkpt lat="48.42931" lon="-3.85017">
        <ele>301.79998779297</ele>
        <time>2021-09-12T09:33:01Z</time>
      </trkpt>
      <trkpt lat="48.42934" lon="-3.85025">
        <ele>301.60000610352</ele>
        <time>2021-09-12T09:33:02Z</time>
      </trkpt>
      <trkpt lat="48.42938" lon="-3.85033">
        <ele>301.60000610352</ele>
        <time>2021-09-12T09:33:03Z</time>
      </trkpt>
      <trkpt lat="48.42941" lon="-3.85041">
        <ele>301.60000610352</ele>
        <time>2021-09-12T09:33:04Z</time>
      </trkpt>
      <trkpt lat="48.42944" lon="-3.8505">
        <ele>301.60000610352</ele>
        <time>2021-09-12T09:33:05Z</time>
      </trkpt>
      <trkpt lat="48.42947" lon="-3.85058">
        <ele>301.60000610352</ele>
        <time>2021-09-12T09:33:06Z</time>
      </trkpt>
      <trkpt lat="48.42949" lon="-3.85067">
        <ele>301.39999389648</ele>
        <time>2021-09-12T09:33:07Z</time>
      </trkpt>
      <trkpt lat="48.42952" lon="-3.85075">
        <ele>300.79998779297</ele>
        <time>2021-09-12T09:33:08Z</time>
      </trkpt>
      <trkpt lat="48.42955" lon="-3.85084">
        <ele>300.79998779297</ele>
        <time>2021-09-12T09:33:09Z</time>
      </trkpt>
      <trkpt lat="48.42958" lon="-3.85093">
        <ele>300.60000610352</ele>
        <time>2021-09-12T09:33:10Z</time>
      </trkpt>
      <trkpt lat="48.42961" lon="-3.85101">
        <ele>300.60000610352</ele>
        <time>2021-09-12T09:33:11Z</time>
      </trkpt>
      <trkpt lat="48.42964" lon="-3.8511">
        <ele>300</ele>
        <time>2021-09-12T09:33:12Z</time>
      </trkpt>
      <trkpt lat="48.42969" lon="-3.85117">
        <ele>299.20001220703</ele>
        <time>2021-09-12T09:33:13Z</time>
      </trkpt>
      <trkpt lat="48.42975" lon="-3.85122">
        <ele>299.20001220703</ele>
        <time>2021-09-12T09:33:14Z</time>
      </trkpt>
      <trkpt lat="48.42982" lon="-3.85127">
        <ele>298</ele>
        <time>2021-09-12T09:33:15Z</time>
      </trkpt>
      <trkpt lat="48.42989" lon="-3.8513">
        <ele>297.60000610352</ele>
        <time>2021-09-12T09:33:16Z</time>
      </trkpt>
      <trkpt lat="48.42996" lon="-3.85134">
        <ele>297</ele>
        <time>2021-09-12T09:33:17Z</time>
      </trkpt>
      <trkpt lat="48.43003" lon="-3.85137">
        <ele>297</ele>
        <time>2021-09-12T09:33:18Z</time>
      </trkpt>
      <trkpt lat="48.4301" lon="-3.85139">
        <ele>296.79998779297</ele>
        <time>2021-09-12T09:33:19Z</time>
      </trkpt>
      <trkpt lat="48.43018" lon="-3.85142">
        <ele>296.60000610352</ele>
        <time>2021-09-12T09:33:20Z</time>
      </trkpt>
      <trkpt lat="48.43025" lon="-3.85142">
        <ele>296.20001220703</ele>
        <time>2021-09-12T09:33:21Z</time>
      </trkpt>
      <trkpt lat="48.43033" lon="-3.85141">
        <ele>295.39999389648</ele>
        <time>2021-09-12T09:33:22Z</time>
      </trkpt>
      <trkpt lat="48.4304" lon="-3.85139">
        <ele>295.20001220703</ele>
        <time>2021-09-12T09:33:23Z</time>
      </trkpt>
      <trkpt lat="48.43047" lon="-3.85137">
        <ele>295</ele>
        <time>2021-09-12T09:33:24Z</time>
      </trkpt>
      <trkpt lat="48.43054" lon="-3.85136">
        <ele>295</ele>
        <time>2021-09-12T09:33:25Z</time>
      </trkpt>
      <trkpt lat="48.4306" lon="-3.85136">
        <ele>294.60000610352</ele>
        <time>2021-09-12T09:33:26Z</time>
      </trkpt>
      <trkpt lat="48.43067" lon="-3.85136">
        <ele>293.79998779297</ele>
        <time>2021-09-12T09:33:27Z</time>
      </trkpt>
      <trkpt lat="48.43074" lon="-3.85134">
        <ele>293.60000610352</ele>
        <time>2021-09-12T09:33:28Z</time>
      </trkpt>
      <trkpt lat="48.43081" lon="-3.85131">
        <ele>292.79998779297</ele>
        <time>2021-09-12T09:33:29Z</time>
      </trkpt>
      <trkpt lat="48.43087" lon="-3.85126">
        <ele>292.39999389648</ele>
        <time>2021-09-12T09:33:30Z</time>
      </trkpt>
      <trkpt lat="48.43093" lon="-3.85121">
        <ele>291.20001220703</ele>
        <time>2021-09-12T09:33:31Z</time>
      </trkpt>
      <trkpt lat="48.43098" lon="-3.85114">
        <ele>291</ele>
        <time>2021-09-12T09:33:32Z</time>
      </trkpt>
      <trkpt lat="48.43104" lon="-3.85109">
        <ele>290.39999389648</ele>
        <time>2021-09-12T09:33:33Z</time>
      </trkpt>
      <trkpt lat="48.43109" lon="-3.85106">
        <ele>289.20001220703</ele>
        <time>2021-09-12T09:33:34Z</time>
      </trkpt>
      <trkpt lat="48.43114" lon="-3.85105">
        <ele>289</ele>
        <time>2021-09-12T09:33:35Z</time>
      </trkpt>
      <trkpt lat="48.43119" lon="-3.85106">
        <ele>288.20001220703</ele>
        <time>2021-09-12T09:33:36Z</time>
      </trkpt>
      <trkpt lat="48.43124" lon="-3.85108">
        <ele>288.20001220703</ele>
        <time>2021-09-12T09:33:37Z</time>
      </trkpt>
      <trkpt lat="48.43129" lon="-3.85109">
        <ele>288</ele>
        <time>2021-09-12T09:33:38Z</time>
      </trkpt>
      <trkpt lat="48.43134" lon="-3.85113">
        <ele>286.20001220703</ele>
        <time>2021-09-12T09:33:39Z</time>
      </trkpt>
      <trkpt lat="48.43139" lon="-3.85117">
        <ele>285.20001220703</ele>
        <time>2021-09-12T09:33:40Z</time>
      </trkpt>
      <trkpt lat="48.43145" lon="-3.85121">
        <ele>284.20001220703</ele>
        <time>2021-09-12T09:33:41Z</time>
      </trkpt>
      <trkpt lat="48.43151" lon="-3.85123">
        <ele>283.20001220703</ele>
        <time>2021-09-12T09:33:42Z</time>
      </trkpt>
      <trkpt lat="48.43157" lon="-3.85124">
        <ele>281.60000610352</ele>
        <time>2021-09-12T09:33:43Z</time>
      </trkpt>
      <trkpt lat="48.43164" lon="-3.85126">
        <ele>281.39999389648</ele>
        <time>2021-09-12T09:33:44Z</time>
      </trkpt>
      <trkpt lat="48.43172" lon="-3.85128">
        <ele>279.39999389648</ele>
        <time>2021-09-12T09:33:45Z</time>
      </trkpt>
      <trkpt lat="48.4318" lon="-3.85131">
        <ele>279.20001220703</ele>
        <time>2021-09-12T09:33:46Z</time>
      </trkpt>
      <trkpt lat="48.43188" lon="-3.85134">
        <ele>278.20001220703</ele>
        <time>2021-09-12T09:33:47Z</time>
      </trkpt>
      <trkpt lat="48.43194" lon="-3.85137">
        <ele>276.79998779297</ele>
        <time>2021-09-12T09:33:48Z</time>
      </trkpt>
      <trkpt lat="48.432" lon="-3.85143">
        <ele>275.39999389648</ele>
        <time>2021-09-12T09:33:49Z</time>
      </trkpt>
      <trkpt lat="48.43204" lon="-3.8515">
        <ele>274.39999389648</ele>
        <time>2021-09-12T09:33:50Z</time>
      </trkpt>
      <trkpt lat="48.43206" lon="-3.85159">
        <ele>273.20001220703</ele>
        <time>2021-09-12T09:33:51Z</time>
      </trkpt>
      <trkpt lat="48.43207" lon="-3.85169">
        <ele>272.39999389648</ele>
        <time>2021-09-12T09:33:52Z</time>
      </trkpt>
      <trkpt lat="48.43207" lon="-3.85179">
        <ele>272</ele>
        <time>2021-09-12T09:33:53Z</time>
      </trkpt>
      <trkpt lat="48.43207" lon="-3.8519">
        <ele>271.20001220703</ele>
        <time>2021-09-12T09:33:54Z</time>
      </trkpt>
      <trkpt lat="48.43209" lon="-3.852">
        <ele>270.60000610352</ele>
        <time>2021-09-12T09:33:55Z</time>
      </trkpt>
      <trkpt lat="48.43212" lon="-3.85209">
        <ele>269.79998779297</ele>
        <time>2021-09-12T09:33:56Z</time>
      </trkpt>
      <trkpt lat="48.43217" lon="-3.85218">
        <ele>269.60000610352</ele>
        <time>2021-09-12T09:33:57Z</time>
      </trkpt>
      <trkpt lat="48.43221" lon="-3.85227">
        <ele>267.79998779297</ele>
        <time>2021-09-12T09:33:58Z</time>
      </trkpt>
      <trkpt lat="48.43226" lon="-3.85236">
        <ele>267.20001220703</ele>
        <time>2021-09-12T09:33:59Z</time>
      </trkpt>
      <trkpt lat="48.43231" lon="-3.85244">
        <ele>266.20001220703</ele>
        <time>2021-09-12T09:34:00Z</time>
      </trkpt>
      <trkpt lat="48.43235" lon="-3.85251">
        <ele>266.20001220703</ele>
        <time>2021-09-12T09:34:01Z</time>
      </trkpt>
      <trkpt lat="48.43238" lon="-3.85254">
        <ele>265.79998779297</ele>
        <time>2021-09-12T09:34:02Z</time>
      </trkpt>
      <trkpt lat="48.43239" lon="-3.85256">
        <ele>264.79998779297</ele>
        <time>2021-09-12T09:34:03Z</time>
      </trkpt>
      <trkpt lat="48.43242" lon="-3.85257">
        <ele>264.79998779297</ele>
        <time>2021-09-12T09:34:04Z</time>
      </trkpt>
      <trkpt lat="48.43244" lon="-3.85257">
        <ele>264.60000610352</ele>
        <time>2021-09-12T09:34:05Z</time>
      </trkpt>
      <trkpt lat="48.43246" lon="-3.85257">
        <ele>264.60000610352</ele>
        <time>2021-09-12T09:34:06Z</time>
      </trkpt>
      <trkpt lat="48.43248" lon="-3.85258">
        <ele>264.60000610352</ele>
        <time>2021-09-12T09:34:07Z</time>
      </trkpt>
      <trkpt lat="48.43251" lon="-3.85259">
        <ele>264.60000610352</ele>
        <time>2021-09-12T09:34:08Z</time>
      </trkpt>
      <trkpt lat="48.43253" lon="-3.8526">
        <ele>264.79998779297</ele>
        <time>2021-09-12T09:34:09Z</time>
      </trkpt>
      <trkpt lat="48.43256" lon="-3.85262">
        <ele>265</ele>
        <time>2021-09-12T09:34:10Z</time>
      </trkpt>
      <trkpt lat="48.43258" lon="-3.85264">
        <ele>265.20001220703</ele>
        <time>2021-09-12T09:34:11Z</time>
      </trkpt>
      <trkpt lat="48.43261" lon="-3.85264">
        <ele>265.20001220703</ele>
        <time>2021-09-12T09:34:12Z</time>
      </trkpt>
      <trkpt lat="48.43263" lon="-3.85265">
        <ele>266</ele>
        <time>2021-09-12T09:34:13Z</time>
      </trkpt>
      <trkpt lat="48.43265" lon="-3.85266">
        <ele>266.39999389648</ele>
        <time>2021-09-12T09:34:14Z</time>
      </trkpt>
      <trkpt lat="48.43267" lon="-3.85267">
        <ele>266.79998779297</ele>
        <time>2021-09-12T09:34:15Z</time>
      </trkpt>
      <trkpt lat="48.43269" lon="-3.85269">
        <ele>266.79998779297</ele>
        <time>2021-09-12T09:34:16Z</time>
      </trkpt>
      <trkpt lat="48.43272" lon="-3.85271">
        <ele>267.20001220703</ele>
        <time>2021-09-12T09:34:17Z</time>
      </trkpt>
      <trkpt lat="48.43275" lon="-3.85273">
        <ele>267.20001220703</ele>
        <time>2021-09-12T09:34:18Z</time>
      </trkpt>
      <trkpt lat="48.43277" lon="-3.85276">
        <ele>267.39999389648</ele>
        <time>2021-09-12T09:34:19Z</time>
      </trkpt>
      <trkpt lat="48.4328" lon="-3.85278">
        <ele>267.60000610352</ele>
        <time>2021-09-12T09:34:20Z</time>
      </trkpt>
      <trkpt lat="48.43283" lon="-3.85281">
        <ele>267.79998779297</ele>
        <time>2021-09-12T09:34:21Z</time>
      </trkpt>
      <trkpt lat="48.43285" lon="-3.85284">
        <ele>268</ele>
        <time>2021-09-12T09:34:22Z</time>
      </trkpt>
      <trkpt lat="48.43289" lon="-3.85287">
        <ele>268</ele>
        <time>2021-09-12T09:34:23Z</time>
      </trkpt>
      <trkpt lat="48.43292" lon="-3.85291">
        <ele>268.20001220703</ele>
        <time>2021-09-12T09:34:24Z</time>
      </trkpt>
      <trkpt lat="48.43295" lon="-3.85295">
        <ele>268.20001220703</ele>
        <time>2021-09-12T09:34:25Z</time>
      </trkpt>
      <trkpt lat="48.43298" lon="-3.85299">
        <ele>268.60000610352</ele>
        <time>2021-09-12T09:34:26Z</time>
      </trkpt>
      <trkpt lat="48.43301" lon="-3.85303">
        <ele>268.60000610352</ele>
        <time>2021-09-12T09:34:27Z</time>
      </trkpt>
      <trkpt lat="48.43304" lon="-3.85306">
        <ele>268.79998779297</ele>
        <time>2021-09-12T09:34:28Z</time>
      </trkpt>
      <trkpt lat="48.43307" lon="-3.8531">
        <ele>268.79998779297</ele>
        <time>2021-09-12T09:34:29Z</time>
      </trkpt>
      <trkpt lat="48.4331" lon="-3.85312">
        <ele>268.79998779297</ele>
        <time>2021-09-12T09:34:30Z</time>
      </trkpt>
      <trkpt lat="48.43313" lon="-3.85314">
        <ele>268.79998779297</ele>
        <time>2021-09-12T09:34:31Z</time>
      </trkpt>
      <trkpt lat="48.43316" lon="-3.85315">
        <ele>268.79998779297</ele>
        <time>2021-09-12T09:34:32Z</time>
      </trkpt>
      <trkpt lat="48.4332" lon="-3.85316">
        <ele>268.79998779297</ele>
        <time>2021-09-12T09:34:33Z</time>
      </trkpt>
      <trkpt lat="48.43324" lon="-3.85318">
        <ele>268.79998779297</ele>
        <time>2021-09-12T09:34:34Z</time>
      </trkpt>
      <trkpt lat="48.43327" lon="-3.85318">
        <ele>268.79998779297</ele>
        <time>2021-09-12T09:34:35Z</time>
      </trkpt>
      <trkpt lat="48.43331" lon="-3.85319">
        <ele>268.79998779297</ele>
        <time>2021-09-12T09:34:36Z</time>
      </trkpt>
      <trkpt lat="48.43335" lon="-3.85319">
        <ele>268.79998779297</ele>
        <time>2021-09-12T09:34:37Z</time>
      </trkpt>
      <trkpt lat="48.43339" lon="-3.85319">
        <ele>268.79998779297</ele>
        <time>2021-09-12T09:34:38Z</time>
      </trkpt>
      <trkpt lat="48.43342" lon="-3.85319">
        <ele>268.79998779297</ele>
        <time>2021-09-12T09:34:39Z</time>
      </trkpt>
      <trkpt lat="48.43346" lon="-3.85319">
        <ele>268.79998779297</ele>
        <time>2021-09-12T09:34:40Z</time>
      </trkpt>
      <trkpt lat="48.4335" lon="-3.85319">
        <ele>268.79998779297</ele>
        <time>2021-09-12T09:34:41Z</time>
      </trkpt>
      <trkpt lat="48.43354" lon="-3.85318">
        <ele>268.79998779297</ele>
        <time>2021-09-12T09:34:42Z</time>
      </trkpt>
      <trkpt lat="48.43358" lon="-3.85318">
        <ele>268.79998779297</ele>
        <time>2021-09-12T09:34:43Z</time>
      </trkpt>
      <trkpt lat="48.43362" lon="-3.85318">
        <ele>268.60000610352</ele>
        <time>2021-09-12T09:34:44Z</time>
      </trkpt>
      <trkpt lat="48.43367" lon="-3.85317">
        <ele>268.39999389648</ele>
        <time>2021-09-12T09:34:45Z</time>
      </trkpt>
      <trkpt lat="48.43372" lon="-3.85317">
        <ele>268.20001220703</ele>
        <time>2021-09-12T09:34:46Z</time>
      </trkpt>
      <trkpt lat="48.43376" lon="-3.85318">
        <ele>268</ele>
        <time>2021-09-12T09:34:47Z</time>
      </trkpt>
      <trkpt lat="48.43381" lon="-3.85319">
        <ele>268</ele>
        <time>2021-09-12T09:34:48Z</time>
      </trkpt>
      <trkpt lat="48.43386" lon="-3.85319">
        <ele>267.79998779297</ele>
        <time>2021-09-12T09:34:49Z</time>
      </trkpt>
      <trkpt lat="48.43391" lon="-3.85319">
        <ele>267.60000610352</ele>
        <time>2021-09-12T09:34:50Z</time>
      </trkpt>
      <trkpt lat="48.43397" lon="-3.85319">
        <ele>267.39999389648</ele>
        <time>2021-09-12T09:34:51Z</time>
      </trkpt>
      <trkpt lat="48.43402" lon="-3.85318">
        <ele>267.39999389648</ele>
        <time>2021-09-12T09:34:52Z</time>
      </trkpt>
      <trkpt lat="48.43408" lon="-3.85317">
        <ele>267.20001220703</ele>
        <time>2021-09-12T09:34:53Z</time>
      </trkpt>
      <trkpt lat="48.43414" lon="-3.85317">
        <ele>267.20001220703</ele>
        <time>2021-09-12T09:34:54Z</time>
      </trkpt>
      <trkpt lat="48.4342" lon="-3.85317">
        <ele>266.79998779297</ele>
        <time>2021-09-12T09:34:55Z</time>
      </trkpt>
      <trkpt lat="48.43426" lon="-3.85317">
        <ele>266.60000610352</ele>
        <time>2021-09-12T09:34:56Z</time>
      </trkpt>
      <trkpt lat="48.43432" lon="-3.85318">
        <ele>266</ele>
        <time>2021-09-12T09:34:57Z</time>
      </trkpt>
      <trkpt lat="48.43438" lon="-3.85318">
        <ele>265.79998779297</ele>
        <time>2021-09-12T09:34:58Z</time>
      </trkpt>
      <trkpt lat="48.43444" lon="-3.85319">
        <ele>265.79998779297</ele>
        <time>2021-09-12T09:34:59Z</time>
      </trkpt>
      <trkpt lat="48.43451" lon="-3.85319">
        <ele>265.60000610352</ele>
        <time>2021-09-12T09:35:00Z</time>
      </trkpt>
      <trkpt lat="48.43457" lon="-3.8532">
        <ele>265.39999389648</ele>
        <time>2021-09-12T09:35:01Z</time>
      </trkpt>
      <trkpt lat="48.43463" lon="-3.85321">
        <ele>265.20001220703</ele>
        <time>2021-09-12T09:35:02Z</time>
      </trkpt>
      <trkpt lat="48.43469" lon="-3.85323">
        <ele>265.20001220703</ele>
        <time>2021-09-12T09:35:03Z</time>
      </trkpt>
      <trkpt lat="48.43475" lon="-3.85324">
        <ele>264.79998779297</ele>
        <time>2021-09-12T09:35:04Z</time>
      </trkpt>
      <trkpt lat="48.43482" lon="-3.85327">
        <ele>264.79998779297</ele>
        <time>2021-09-12T09:35:05Z</time>
      </trkpt>
      <trkpt lat="48.43488" lon="-3.8533">
        <ele>264.79998779297</ele>
        <time>2021-09-12T09:35:06Z</time>
      </trkpt>
      <trkpt lat="48.43493" lon="-3.85333">
        <ele>264.60000610352</ele>
        <time>2021-09-12T09:35:07Z</time>
      </trkpt>
      <trkpt lat="48.43497" lon="-3.85339">
        <ele>264.60000610352</ele>
        <time>2021-09-12T09:35:08Z</time>
      </trkpt>
      <trkpt lat="48.43499" lon="-3.85344">
        <ele>263.79998779297</ele>
        <time>2021-09-12T09:35:09Z</time>
      </trkpt>
      <trkpt lat="48.435" lon="-3.8535">
        <ele>263.60000610352</ele>
        <time>2021-09-12T09:35:10Z</time>
      </trkpt>
      <trkpt lat="48.43499" lon="-3.85354">
        <ele>263.60000610352</ele>
        <time>2021-09-12T09:35:11Z</time>
      </trkpt>
      <trkpt lat="48.43497" lon="-3.85357">
        <ele>263.60000610352</ele>
        <time>2021-09-12T09:35:12Z</time>
      </trkpt>
      <trkpt lat="48.43494" lon="-3.85359">
        <ele>263.60000610352</ele>
        <time>2021-09-12T09:35:13Z</time>
      </trkpt>
      <trkpt lat="48.43491" lon="-3.85363">
        <ele>263.60000610352</ele>
        <time>2021-09-12T09:35:14Z</time>
      </trkpt>
      <trkpt lat="48.43489" lon="-3.85367">
        <ele>263.79998779297</ele>
        <time>2021-09-12T09:35:15Z</time>
      </trkpt>
      <trkpt lat="48.43487" lon="-3.8537">
        <ele>263.79998779297</ele>
        <time>2021-09-12T09:35:16Z</time>
      </trkpt>
      <trkpt lat="48.43485" lon="-3.85374">
        <ele>264.20001220703</ele>
        <time>2021-09-12T09:35:17Z</time>
      </trkpt>
      <trkpt lat="48.43482" lon="-3.85378">
        <ele>264.60000610352</ele>
        <time>2021-09-12T09:35:18Z</time>
      </trkpt>
      <trkpt lat="48.4348" lon="-3.85382">
        <ele>265</ele>
        <time>2021-09-12T09:35:19Z</time>
      </trkpt>
      <trkpt lat="48.43478" lon="-3.85386">
        <ele>265</ele>
        <time>2021-09-12T09:35:20Z</time>
      </trkpt>
      <trkpt lat="48.43475" lon="-3.85389">
        <ele>265.20001220703</ele>
        <time>2021-09-12T09:35:21Z</time>
      </trkpt>
      <trkpt lat="48.43473" lon="-3.85393">
        <ele>265.20001220703</ele>
        <time>2021-09-12T09:35:22Z</time>
      </trkpt>
      <trkpt lat="48.4347" lon="-3.85396">
        <ele>265.39999389648</ele>
        <time>2021-09-12T09:35:23Z</time>
      </trkpt>
      <trkpt lat="48.43467" lon="-3.85399">
        <ele>265.79998779297</ele>
        <time>2021-09-12T09:35:24Z</time>
      </trkpt>
      <trkpt lat="48.43464" lon="-3.85402">
        <ele>265.79998779297</ele>
        <time>2021-09-12T09:35:25Z</time>
      </trkpt>
      <trkpt lat="48.43461" lon="-3.85406">
        <ele>266</ele>
        <time>2021-09-12T09:35:26Z</time>
      </trkpt>
      <trkpt lat="48.43458" lon="-3.85409">
        <ele>266.39999389648</ele>
        <time>2021-09-12T09:35:27Z</time>
      </trkpt>
      <trkpt lat="48.43456" lon="-3.85413">
        <ele>266.39999389648</ele>
        <time>2021-09-12T09:35:28Z</time>
      </trkpt>
      <trkpt lat="48.43453" lon="-3.85417">
        <ele>266.60000610352</ele>
        <time>2021-09-12T09:35:29Z</time>
      </trkpt>
      <trkpt lat="48.4345" lon="-3.8542">
        <ele>266.79998779297</ele>
        <time>2021-09-12T09:35:30Z</time>
      </trkpt>
      <trkpt lat="48.43448" lon="-3.85424">
        <ele>267</ele>
        <time>2021-09-12T09:35:31Z</time>
      </trkpt>
      <trkpt lat="48.43446" lon="-3.85428">
        <ele>267.20001220703</ele>
        <time>2021-09-12T09:35:32Z</time>
      </trkpt>
      <trkpt lat="48.43443" lon="-3.85431">
        <ele>267.39999389648</ele>
        <time>2021-09-12T09:35:33Z</time>
      </trkpt>
      <trkpt lat="48.4344" lon="-3.85435">
        <ele>267.39999389648</ele>
        <time>2021-09-12T09:35:34Z</time>
      </trkpt>
      <trkpt lat="48.43438" lon="-3.85439">
        <ele>267.79998779297</ele>
        <time>2021-09-12T09:35:35Z</time>
      </trkpt>
      <trkpt lat="48.43435" lon="-3.85443">
        <ele>267.79998779297</ele>
        <time>2021-09-12T09:35:36Z</time>
      </trkpt>
      <trkpt lat="48.43433" lon="-3.85446">
        <ele>268</ele>
        <time>2021-09-12T09:35:37Z</time>
      </trkpt>
      <trkpt lat="48.4343" lon="-3.85449">
        <ele>268.20001220703</ele>
        <time>2021-09-12T09:35:38Z</time>
      </trkpt>
      <trkpt lat="48.43427" lon="-3.85451">
        <ele>268.20001220703</ele>
        <time>2021-09-12T09:35:39Z</time>
      </trkpt>
      <trkpt lat="48.43424" lon="-3.85454">
        <ele>268.39999389648</ele>
        <time>2021-09-12T09:35:40Z</time>
      </trkpt>
      <trkpt lat="48.43421" lon="-3.85457">
        <ele>268.39999389648</ele>
        <time>2021-09-12T09:35:41Z</time>
      </trkpt>
      <trkpt lat="48.43418" lon="-3.85461">
        <ele>268.39999389648</ele>
        <time>2021-09-12T09:35:42Z</time>
      </trkpt>
      <trkpt lat="48.43415" lon="-3.85464">
        <ele>268.79998779297</ele>
        <time>2021-09-12T09:35:43Z</time>
      </trkpt>
      <trkpt lat="48.43412" lon="-3.85466">
        <ele>269.20001220703</ele>
        <time>2021-09-12T09:35:44Z</time>
      </trkpt>
      <trkpt lat="48.43409" lon="-3.85469">
        <ele>269.20001220703</ele>
        <time>2021-09-12T09:35:45Z</time>
      </trkpt>
      <trkpt lat="48.43406" lon="-3.85472">
        <ele>269.20001220703</ele>
        <time>2021-09-12T09:35:46Z</time>
      </trkpt>
      <trkpt lat="48.43403" lon="-3.85475">
        <ele>269.39999389648</ele>
        <time>2021-09-12T09:35:47Z</time>
      </trkpt>
      <trkpt lat="48.434" lon="-3.85477">
        <ele>269.39999389648</ele>
        <time>2021-09-12T09:35:48Z</time>
      </trkpt>
      <trkpt lat="48.43397" lon="-3.8548">
        <ele>269.79998779297</ele>
        <time>2021-09-12T09:35:49Z</time>
      </trkpt>
      <trkpt lat="48.43394" lon="-3.85483">
        <ele>269.79998779297</ele>
        <time>2021-09-12T09:35:50Z</time>
      </trkpt>
      <trkpt lat="48.43391" lon="-3.85485">
        <ele>269.79998779297</ele>
        <time>2021-09-12T09:35:51Z</time>
      </trkpt>
      <trkpt lat="48.43388" lon="-3.85488">
        <ele>270.20001220703</ele>
        <time>2021-09-12T09:35:52Z</time>
      </trkpt>
      <trkpt lat="48.43385" lon="-3.8549">
        <ele>270.39999389648</ele>
        <time>2021-09-12T09:35:53Z</time>
      </trkpt>
      <trkpt lat="48.43382" lon="-3.85493">
        <ele>270.60000610352</ele>
        <time>2021-09-12T09:35:54Z</time>
      </trkpt>
      <trkpt lat="48.43379" lon="-3.85495">
        <ele>270.79998779297</ele>
        <time>2021-09-12T09:35:55Z</time>
      </trkpt>
      <trkpt lat="48.43376" lon="-3.85498">
        <ele>271</ele>
        <time>2021-09-12T09:35:56Z</time>
      </trkpt>
      <trkpt lat="48.43374" lon="-3.855">
        <ele>271.20001220703</ele>
        <time>2021-09-12T09:35:57Z</time>
      </trkpt>
      <trkpt lat="48.43371" lon="-3.85502">
        <ele>271.20001220703</ele>
        <time>2021-09-12T09:35:58Z</time>
      </trkpt>
      <trkpt lat="48.43368" lon="-3.85505">
        <ele>271.39999389648</ele>
        <time>2021-09-12T09:35:59Z</time>
      </trkpt>
      <trkpt lat="48.43365" lon="-3.85507">
        <ele>271.60000610352</ele>
        <time>2021-09-12T09:36:00Z</time>
      </trkpt>
      <trkpt lat="48.43363" lon="-3.85509">
        <ele>271.79998779297</ele>
        <time>2021-09-12T09:36:01Z</time>
      </trkpt>
      <trkpt lat="48.43361" lon="-3.8551">
        <ele>272.20001220703</ele>
        <time>2021-09-12T09:36:02Z</time>
      </trkpt>
      <trkpt lat="48.43357" lon="-3.85512">
        <ele>272.39999389648</ele>
        <time>2021-09-12T09:36:03Z</time>
      </trkpt>
      <trkpt lat="48.43355" lon="-3.85514">
        <ele>272.79998779297</ele>
        <time>2021-09-12T09:36:04Z</time>
      </trkpt>
      <trkpt lat="48.43352" lon="-3.85516">
        <ele>273.20001220703</ele>
        <time>2021-09-12T09:36:05Z</time>
      </trkpt>
      <trkpt lat="48.4335" lon="-3.85517">
        <ele>273.20001220703</ele>
        <time>2021-09-12T09:36:06Z</time>
      </trkpt>
      <trkpt lat="48.43347" lon="-3.85518">
        <ele>273.60000610352</ele>
        <time>2021-09-12T09:36:07Z</time>
      </trkpt>
      <trkpt lat="48.43344" lon="-3.85519">
        <ele>273.79998779297</ele>
        <time>2021-09-12T09:36:08Z</time>
      </trkpt>
      <trkpt lat="48.43342" lon="-3.8552">
        <ele>274</ele>
        <time>2021-09-12T09:36:09Z</time>
      </trkpt>
      <trkpt lat="48.4334" lon="-3.85521">
        <ele>274</ele>
        <time>2021-09-12T09:36:10Z</time>
      </trkpt>
      <trkpt lat="48.43338" lon="-3.85521">
        <ele>274.39999389648</ele>
        <time>2021-09-12T09:36:11Z</time>
      </trkpt>
      <trkpt lat="48.43335" lon="-3.85522">
        <ele>274.79998779297</ele>
        <time>2021-09-12T09:36:12Z</time>
      </trkpt>
      <trkpt lat="48.43333" lon="-3.85523">
        <ele>275</ele>
        <time>2021-09-12T09:36:13Z</time>
      </trkpt>
      <trkpt lat="48.43331" lon="-3.85524">
        <ele>275</ele>
        <time>2021-09-12T09:36:14Z</time>
      </trkpt>
      <trkpt lat="48.43329" lon="-3.85525">
        <ele>275.20001220703</ele>
        <time>2021-09-12T09:36:15Z</time>
      </trkpt>
      <trkpt lat="48.43327" lon="-3.85526">
        <ele>275.60000610352</ele>
        <time>2021-09-12T09:36:16Z</time>
      </trkpt>
      <trkpt lat="48.43325" lon="-3.85528">
        <ele>275.79998779297</ele>
        <time>2021-09-12T09:36:17Z</time>
      </trkpt>
      <trkpt lat="48.43323" lon="-3.85529">
        <ele>276.20001220703</ele>
        <time>2021-09-12T09:36:18Z</time>
      </trkpt>
      <trkpt lat="48.4332" lon="-3.8553">
        <ele>276.39999389648</ele>
        <time>2021-09-12T09:36:19Z</time>
      </trkpt>
      <trkpt lat="48.43318" lon="-3.85532">
        <ele>276.60000610352</ele>
        <time>2021-09-12T09:36:20Z</time>
      </trkpt>
      <trkpt lat="48.43316" lon="-3.85533">
        <ele>276.79998779297</ele>
        <time>2021-09-12T09:36:21Z</time>
      </trkpt>
      <trkpt lat="48.43313" lon="-3.85535">
        <ele>276.79998779297</ele>
        <time>2021-09-12T09:36:22Z</time>
      </trkpt>
      <trkpt lat="48.4331" lon="-3.85537">
        <ele>277</ele>
        <time>2021-09-12T09:36:23Z</time>
      </trkpt>
      <trkpt lat="48.43307" lon="-3.85538">
        <ele>277</ele>
        <time>2021-09-12T09:36:24Z</time>
      </trkpt>
      <trkpt lat="48.43305" lon="-3.8554">
        <ele>277.39999389648</ele>
        <time>2021-09-12T09:36:25Z</time>
      </trkpt>
      <trkpt lat="48.43302" lon="-3.85542">
        <ele>277.39999389648</ele>
        <time>2021-09-12T09:36:26Z</time>
      </trkpt>
      <trkpt lat="48.43299" lon="-3.85544">
        <ele>277.39999389648</ele>
        <time>2021-09-12T09:36:27Z</time>
      </trkpt>
      <trkpt lat="48.43296" lon="-3.85546">
        <ele>277.60000610352</ele>
        <time>2021-09-12T09:36:28Z</time>
      </trkpt>
      <trkpt lat="48.43294" lon="-3.85548">
        <ele>277.60000610352</ele>
        <time>2021-09-12T09:36:29Z</time>
      </trkpt>
      <trkpt lat="48.43291" lon="-3.8555">
        <ele>277.79998779297</ele>
        <time>2021-09-12T09:36:30Z</time>
      </trkpt>
      <trkpt lat="48.43288" lon="-3.8555">
        <ele>278</ele>
        <time>2021-09-12T09:36:31Z</time>
      </trkpt>
      <trkpt lat="48.43285" lon="-3.8555">
        <ele>278</ele>
        <time>2021-09-12T09:36:32Z</time>
      </trkpt>
      <trkpt lat="48.43282" lon="-3.85548">
        <ele>278</ele>
        <time>2021-09-12T09:36:33Z</time>
      </trkpt>
      <trkpt lat="48.43279" lon="-3.85547">
        <ele>278.20001220703</ele>
        <time>2021-09-12T09:36:34Z</time>
      </trkpt>
      <trkpt lat="48.43276" lon="-3.85546">
        <ele>278.60000610352</ele>
        <time>2021-09-12T09:36:35Z</time>
      </trkpt>
      <trkpt lat="48.43273" lon="-3.85545">
        <ele>278.60000610352</ele>
        <time>2021-09-12T09:36:36Z</time>
      </trkpt>
      <trkpt lat="48.4327" lon="-3.85545">
        <ele>278.60000610352</ele>
        <time>2021-09-12T09:36:37Z</time>
      </trkpt>
      <trkpt lat="48.43267" lon="-3.85546">
        <ele>278.79998779297</ele>
        <time>2021-09-12T09:36:38Z</time>
      </trkpt>
      <trkpt lat="48.43264" lon="-3.85547">
        <ele>279</ele>
        <time>2021-09-12T09:36:39Z</time>
      </trkpt>
      <trkpt lat="48.43261" lon="-3.85547">
        <ele>279</ele>
        <time>2021-09-12T09:36:40Z</time>
      </trkpt>
      <trkpt lat="48.43258" lon="-3.85549">
        <ele>279.20001220703</ele>
        <time>2021-09-12T09:36:41Z</time>
      </trkpt>
      <trkpt lat="48.43255" lon="-3.85551">
        <ele>279.60000610352</ele>
        <time>2021-09-12T09:36:42Z</time>
      </trkpt>
      <trkpt lat="48.43252" lon="-3.85552">
        <ele>279.79998779297</ele>
        <time>2021-09-12T09:36:43Z</time>
      </trkpt>
      <trkpt lat="48.43249" lon="-3.85554">
        <ele>280</ele>
        <time>2021-09-12T09:36:44Z</time>
      </trkpt>
      <trkpt lat="48.43246" lon="-3.85555">
        <ele>280.20001220703</ele>
        <time>2021-09-12T09:36:45Z</time>
      </trkpt>
      <trkpt lat="48.43244" lon="-3.85556">
        <ele>280.20001220703</ele>
        <time>2021-09-12T09:36:46Z</time>
      </trkpt>
      <trkpt lat="48.43241" lon="-3.85557">
        <ele>280.39999389648</ele>
        <time>2021-09-12T09:36:47Z</time>
      </trkpt>
      <trkpt lat="48.43238" lon="-3.85557">
        <ele>280.79998779297</ele>
        <time>2021-09-12T09:36:48Z</time>
      </trkpt>
      <trkpt lat="48.43235" lon="-3.85558">
        <ele>280.79998779297</ele>
        <time>2021-09-12T09:36:49Z</time>
      </trkpt>
      <trkpt lat="48.43232" lon="-3.85559">
        <ele>280.79998779297</ele>
        <time>2021-09-12T09:36:50Z</time>
      </trkpt>
      <trkpt lat="48.43229" lon="-3.85559">
        <ele>281</ele>
        <time>2021-09-12T09:36:51Z</time>
      </trkpt>
      <trkpt lat="48.43226" lon="-3.85559">
        <ele>281</ele>
        <time>2021-09-12T09:36:52Z</time>
      </trkpt>
      <trkpt lat="48.43223" lon="-3.85559">
        <ele>281.20001220703</ele>
        <time>2021-09-12T09:36:53Z</time>
      </trkpt>
      <trkpt lat="48.4322" lon="-3.85559">
        <ele>281.39999389648</ele>
        <time>2021-09-12T09:36:54Z</time>
      </trkpt>
      <trkpt lat="48.43217" lon="-3.85559">
        <ele>281.60000610352</ele>
        <time>2021-09-12T09:36:55Z</time>
      </trkpt>
      <trkpt lat="48.43214" lon="-3.8556">
        <ele>282</ele>
        <time>2021-09-12T09:36:56Z</time>
      </trkpt>
      <trkpt lat="48.43211" lon="-3.8556">
        <ele>282.20001220703</ele>
        <time>2021-09-12T09:36:57Z</time>
      </trkpt>
      <trkpt lat="48.43208" lon="-3.85559">
        <ele>282.20001220703</ele>
        <time>2021-09-12T09:36:58Z</time>
      </trkpt>
      <trkpt lat="48.43206" lon="-3.85559">
        <ele>282.60000610352</ele>
        <time>2021-09-12T09:36:59Z</time>
      </trkpt>
      <trkpt lat="48.43203" lon="-3.85559">
        <ele>283</ele>
        <time>2021-09-12T09:37:00Z</time>
      </trkpt>
      <trkpt lat="48.43201" lon="-3.85558">
        <ele>283.20001220703</ele>
        <time>2021-09-12T09:37:01Z</time>
      </trkpt>
      <trkpt lat="48.43198" lon="-3.85558">
        <ele>283.79998779297</ele>
        <time>2021-09-12T09:37:02Z</time>
      </trkpt>
      <trkpt lat="48.43196" lon="-3.85558">
        <ele>284</ele>
        <time>2021-09-12T09:37:03Z</time>
      </trkpt>
      <trkpt lat="48.43193" lon="-3.85559">
        <ele>284</ele>
        <time>2021-09-12T09:37:04Z</time>
      </trkpt>
      <trkpt lat="48.43191" lon="-3.85558">
        <ele>284.20001220703</ele>
        <time>2021-09-12T09:37:05Z</time>
      </trkpt>
      <trkpt lat="48.43188" lon="-3.85558">
        <ele>284.39999389648</ele>
        <time>2021-09-12T09:37:06Z</time>
      </trkpt>
      <trkpt lat="48.43186" lon="-3.85558">
        <ele>284.60000610352</ele>
        <time>2021-09-12T09:37:07Z</time>
      </trkpt>
      <trkpt lat="48.43183" lon="-3.85559">
        <ele>284.79998779297</ele>
        <time>2021-09-12T09:37:08Z</time>
      </trkpt>
      <trkpt lat="48.4318" lon="-3.85559">
        <ele>285</ele>
        <time>2021-09-12T09:37:09Z</time>
      </trkpt>
      <trkpt lat="48.43178" lon="-3.8556">
        <ele>285</ele>
        <time>2021-09-12T09:37:10Z</time>
      </trkpt>
      <trkpt lat="48.43175" lon="-3.8556">
        <ele>285</ele>
        <time>2021-09-12T09:37:11Z</time>
      </trkpt>
      <trkpt lat="48.43172" lon="-3.8556">
        <ele>285.60000610352</ele>
        <time>2021-09-12T09:37:12Z</time>
      </trkpt>
      <trkpt lat="48.4317" lon="-3.85561">
        <ele>285.60000610352</ele>
        <time>2021-09-12T09:37:13Z</time>
      </trkpt>
      <trkpt lat="48.43167" lon="-3.8556">
        <ele>285.60000610352</ele>
        <time>2021-09-12T09:37:14Z</time>
      </trkpt>
      <trkpt lat="48.43164" lon="-3.85561">
        <ele>286</ele>
        <time>2021-09-12T09:37:15Z</time>
      </trkpt>
      <trkpt lat="48.43162" lon="-3.85561">
        <ele>286.39999389648</ele>
        <time>2021-09-12T09:37:16Z</time>
      </trkpt>
      <trkpt lat="48.43159" lon="-3.85561">
        <ele>286.39999389648</ele>
        <time>2021-09-12T09:37:17Z</time>
      </trkpt>
      <trkpt lat="48.43157" lon="-3.85561">
        <ele>286.60000610352</ele>
        <time>2021-09-12T09:37:18Z</time>
      </trkpt>
      <trkpt lat="48.43154" lon="-3.85561">
        <ele>286.79998779297</ele>
        <time>2021-09-12T09:37:19Z</time>
      </trkpt>
      <trkpt lat="48.43152" lon="-3.8556">
        <ele>287</ele>
        <time>2021-09-12T09:37:20Z</time>
      </trkpt>
      <trkpt lat="48.43149" lon="-3.8556">
        <ele>287.20001220703</ele>
        <time>2021-09-12T09:37:21Z</time>
      </trkpt>
      <trkpt lat="48.43146" lon="-3.8556">
        <ele>287.39999389648</ele>
        <time>2021-09-12T09:37:22Z</time>
      </trkpt>
      <trkpt lat="48.43143" lon="-3.8556">
        <ele>287.39999389648</ele>
        <time>2021-09-12T09:37:23Z</time>
      </trkpt>
      <trkpt lat="48.4314" lon="-3.85559">
        <ele>287.60000610352</ele>
        <time>2021-09-12T09:37:24Z</time>
      </trkpt>
      <trkpt lat="48.43137" lon="-3.85559">
        <ele>287.79998779297</ele>
        <time>2021-09-12T09:37:25Z</time>
      </trkpt>
      <trkpt lat="48.43134" lon="-3.85559">
        <ele>288</ele>
        <time>2021-09-12T09:37:26Z</time>
      </trkpt>
      <trkpt lat="48.43131" lon="-3.85559">
        <ele>288.20001220703</ele>
        <time>2021-09-12T09:37:27Z</time>
      </trkpt>
      <trkpt lat="48.43128" lon="-3.85559">
        <ele>288.20001220703</ele>
        <time>2021-09-12T09:37:28Z</time>
      </trkpt>
      <trkpt lat="48.43125" lon="-3.85559">
        <ele>288.39999389648</ele>
        <time>2021-09-12T09:37:29Z</time>
      </trkpt>
      <trkpt lat="48.43123" lon="-3.85559">
        <ele>288.39999389648</ele>
        <time>2021-09-12T09:37:30Z</time>
      </trkpt>
      <trkpt lat="48.4312" lon="-3.85559">
        <ele>288.79998779297</ele>
        <time>2021-09-12T09:37:31Z</time>
      </trkpt>
      <trkpt lat="48.43117" lon="-3.85558">
        <ele>289</ele>
        <time>2021-09-12T09:37:32Z</time>
      </trkpt>
      <trkpt lat="48.43114" lon="-3.85558">
        <ele>289.20001220703</ele>
        <time>2021-09-12T09:37:33Z</time>
      </trkpt>
      <trkpt lat="48.43112" lon="-3.85558">
        <ele>289.39999389648</ele>
        <time>2021-09-12T09:37:34Z</time>
      </trkpt>
      <trkpt lat="48.43109" lon="-3.85558">
        <ele>289.39999389648</ele>
        <time>2021-09-12T09:37:35Z</time>
      </trkpt>
      <trkpt lat="48.43106" lon="-3.85557">
        <ele>289.79998779297</ele>
        <time>2021-09-12T09:37:36Z</time>
      </trkpt>
      <trkpt lat="48.43103" lon="-3.85557">
        <ele>289.79998779297</ele>
        <time>2021-09-12T09:37:37Z</time>
      </trkpt>
      <trkpt lat="48.431" lon="-3.85557">
        <ele>290.20001220703</ele>
        <time>2021-09-12T09:37:38Z</time>
      </trkpt>
      <trkpt lat="48.43097" lon="-3.85558">
        <ele>290.60000610352</ele>
        <time>2021-09-12T09:37:39Z</time>
      </trkpt>
      <trkpt lat="48.43095" lon="-3.85558">
        <ele>290.60000610352</ele>
        <time>2021-09-12T09:37:40Z</time>
      </trkpt>
      <trkpt lat="48.43092" lon="-3.85557">
        <ele>290.79998779297</ele>
        <time>2021-09-12T09:37:41Z</time>
      </trkpt>
      <trkpt lat="48.4309" lon="-3.85557">
        <ele>291</ele>
        <time>2021-09-12T09:37:42Z</time>
      </trkpt>
      <trkpt lat="48.43087" lon="-3.85558">
        <ele>291</ele>
        <time>2021-09-12T09:37:43Z</time>
      </trkpt>
      <trkpt lat="48.43084" lon="-3.85558">
        <ele>291.20001220703</ele>
        <time>2021-09-12T09:37:44Z</time>
      </trkpt>
      <trkpt lat="48.43082" lon="-3.85558">
        <ele>291.39999389648</ele>
        <time>2021-09-12T09:37:45Z</time>
      </trkpt>
      <trkpt lat="48.43079" lon="-3.85558">
        <ele>291.79998779297</ele>
        <time>2021-09-12T09:37:46Z</time>
      </trkpt>
      <trkpt lat="48.43076" lon="-3.85558">
        <ele>292</ele>
        <time>2021-09-12T09:37:47Z</time>
      </trkpt>
      <trkpt lat="48.43073" lon="-3.85558">
        <ele>292.39999389648</ele>
        <time>2021-09-12T09:37:48Z</time>
      </trkpt>
      <trkpt lat="48.43071" lon="-3.85557">
        <ele>292.60000610352</ele>
        <time>2021-09-12T09:37:49Z</time>
      </trkpt>
      <trkpt lat="48.43068" lon="-3.85557">
        <ele>292.60000610352</ele>
        <time>2021-09-12T09:37:50Z</time>
      </trkpt>
      <trkpt lat="48.43066" lon="-3.85558">
        <ele>292.79998779297</ele>
        <time>2021-09-12T09:37:51Z</time>
      </trkpt>
      <trkpt lat="48.43064" lon="-3.85557">
        <ele>293.20001220703</ele>
        <time>2021-09-12T09:37:52Z</time>
      </trkpt>
      <trkpt lat="48.43061" lon="-3.85556">
        <ele>293.20001220703</ele>
        <time>2021-09-12T09:37:53Z</time>
      </trkpt>
      <trkpt lat="48.43058" lon="-3.85556">
        <ele>293.39999389648</ele>
        <time>2021-09-12T09:37:54Z</time>
      </trkpt>
      <trkpt lat="48.43056" lon="-3.85556">
        <ele>294</ele>
        <time>2021-09-12T09:37:55Z</time>
      </trkpt>
      <trkpt lat="48.43053" lon="-3.85555">
        <ele>294</ele>
        <time>2021-09-12T09:37:56Z</time>
      </trkpt>
      <trkpt lat="48.43051" lon="-3.85555">
        <ele>294.39999389648</ele>
        <time>2021-09-12T09:37:57Z</time>
      </trkpt>
      <trkpt lat="48.43048" lon="-3.85554">
        <ele>294.39999389648</ele>
        <time>2021-09-12T09:37:58Z</time>
      </trkpt>
      <trkpt lat="48.43046" lon="-3.85553">
        <ele>295</ele>
        <time>2021-09-12T09:37:59Z</time>
      </trkpt>
      <trkpt lat="48.43043" lon="-3.85552">
        <ele>295</ele>
        <time>2021-09-12T09:38:00Z</time>
      </trkpt>
      <trkpt lat="48.43041" lon="-3.85551">
        <ele>295.20001220703</ele>
        <time>2021-09-12T09:38:01Z</time>
      </trkpt>
      <trkpt lat="48.43038" lon="-3.8555">
        <ele>295.60000610352</ele>
        <time>2021-09-12T09:38:02Z</time>
      </trkpt>
      <trkpt lat="48.43035" lon="-3.8555">
        <ele>295.60000610352</ele>
        <time>2021-09-12T09:38:03Z</time>
      </trkpt>
      <trkpt lat="48.43033" lon="-3.85549">
        <ele>296</ele>
        <time>2021-09-12T09:38:04Z</time>
      </trkpt>
      <trkpt lat="48.4303" lon="-3.85549">
        <ele>296.20001220703</ele>
        <time>2021-09-12T09:38:05Z</time>
      </trkpt>
      <trkpt lat="48.43028" lon="-3.85549">
        <ele>296.39999389648</ele>
        <time>2021-09-12T09:38:06Z</time>
      </trkpt>
      <trkpt lat="48.43025" lon="-3.85548">
        <ele>297</ele>
        <time>2021-09-12T09:38:07Z</time>
      </trkpt>
      <trkpt lat="48.43023" lon="-3.85547">
        <ele>297</ele>
        <time>2021-09-12T09:38:08Z</time>
      </trkpt>
      <trkpt lat="48.4302" lon="-3.85547">
        <ele>297.39999389648</ele>
        <time>2021-09-12T09:38:09Z</time>
      </trkpt>
      <trkpt lat="48.43018" lon="-3.85546">
        <ele>297.60000610352</ele>
        <time>2021-09-12T09:38:10Z</time>
      </trkpt>
      <trkpt lat="48.43015" lon="-3.85546">
        <ele>297.60000610352</ele>
        <time>2021-09-12T09:38:11Z</time>
      </trkpt>
      <trkpt lat="48.43013" lon="-3.85545">
        <ele>298.20001220703</ele>
        <time>2021-09-12T09:38:12Z</time>
      </trkpt>
      <trkpt lat="48.4301" lon="-3.85544">
        <ele>298.39999389648</ele>
        <time>2021-09-12T09:38:13Z</time>
      </trkpt>
      <trkpt lat="48.43008" lon="-3.85543">
        <ele>298.60000610352</ele>
        <time>2021-09-12T09:38:14Z</time>
      </trkpt>
      <trkpt lat="48.43005" lon="-3.85543">
        <ele>298.60000610352</ele>
        <time>2021-09-12T09:38:15Z</time>
      </trkpt>
      <trkpt lat="48.43002" lon="-3.85542">
        <ele>298.79998779297</ele>
        <time>2021-09-12T09:38:16Z</time>
      </trkpt>
      <trkpt lat="48.43" lon="-3.85542">
        <ele>299</ele>
        <time>2021-09-12T09:38:17Z</time>
      </trkpt>
      <trkpt lat="48.42997" lon="-3.85541">
        <ele>299.39999389648</ele>
        <time>2021-09-12T09:38:18Z</time>
      </trkpt>
      <trkpt lat="48.42995" lon="-3.85541">
        <ele>299.39999389648</ele>
        <time>2021-09-12T09:38:19Z</time>
      </trkpt>
      <trkpt lat="48.42992" lon="-3.85541">
        <ele>299.60000610352</ele>
        <time>2021-09-12T09:38:20Z</time>
      </trkpt>
      <trkpt lat="48.42989" lon="-3.85542">
        <ele>300</ele>
        <time>2021-09-12T09:38:21Z</time>
      </trkpt>
      <trkpt lat="48.42987" lon="-3.85542">
        <ele>300.20001220703</ele>
        <time>2021-09-12T09:38:22Z</time>
      </trkpt>
      <trkpt lat="48.42984" lon="-3.85543">
        <ele>300.20001220703</ele>
        <time>2021-09-12T09:38:23Z</time>
      </trkpt>
      <trkpt lat="48.42981" lon="-3.85543">
        <ele>300.60000610352</ele>
        <time>2021-09-12T09:38:24Z</time>
      </trkpt>
      <trkpt lat="48.42979" lon="-3.85545">
        <ele>300.79998779297</ele>
        <time>2021-09-12T09:38:25Z</time>
      </trkpt>
      <trkpt lat="48.42976" lon="-3.85546">
        <ele>300.79998779297</ele>
        <time>2021-09-12T09:38:26Z</time>
      </trkpt>
      <trkpt lat="48.42974" lon="-3.85548">
        <ele>301.20001220703</ele>
        <time>2021-09-12T09:38:27Z</time>
      </trkpt>
      <trkpt lat="48.42971" lon="-3.8555">
        <ele>301.20001220703</ele>
        <time>2021-09-12T09:38:28Z</time>
      </trkpt>
      <trkpt lat="48.42969" lon="-3.85552">
        <ele>301.39999389648</ele>
        <time>2021-09-12T09:38:29Z</time>
      </trkpt>
      <trkpt lat="48.42967" lon="-3.85555">
        <ele>301.60000610352</ele>
        <time>2021-09-12T09:38:30Z</time>
      </trkpt>
      <trkpt lat="48.42965" lon="-3.85557">
        <ele>301.79998779297</ele>
        <time>2021-09-12T09:38:31Z</time>
      </trkpt>
      <trkpt lat="48.42962" lon="-3.85559">
        <ele>301.79998779297</ele>
        <time>2021-09-12T09:38:32Z</time>
      </trkpt>
      <trkpt lat="48.42959" lon="-3.8556">
        <ele>301.79998779297</ele>
        <time>2021-09-12T09:38:33Z</time>
      </trkpt>
      <trkpt lat="48.42956" lon="-3.8556">
        <ele>302.20001220703</ele>
        <time>2021-09-12T09:38:34Z</time>
      </trkpt>
      <trkpt lat="48.42953" lon="-3.8556">
        <ele>302.20001220703</ele>
        <time>2021-09-12T09:38:35Z</time>
      </trkpt>
      <trkpt lat="48.42949" lon="-3.8556">
        <ele>302.20001220703</ele>
        <time>2021-09-12T09:38:36Z</time>
      </trkpt>
      <trkpt lat="48.42946" lon="-3.85561">
        <ele>302.39999389648</ele>
        <time>2021-09-12T09:38:37Z</time>
      </trkpt>
      <trkpt lat="48.42943" lon="-3.85561">
        <ele>302.39999389648</ele>
        <time>2021-09-12T09:38:38Z</time>
      </trkpt>
      <trkpt lat="48.4294" lon="-3.85561">
        <ele>302.39999389648</ele>
        <time>2021-09-12T09:38:39Z</time>
      </trkpt>
      <trkpt lat="48.42936" lon="-3.85562">
        <ele>302.39999389648</ele>
        <time>2021-09-12T09:38:40Z</time>
      </trkpt>
      <trkpt lat="48.42933" lon="-3.85562">
        <ele>302.60000610352</ele>
        <time>2021-09-12T09:38:41Z</time>
      </trkpt>
      <trkpt lat="48.42929" lon="-3.85563">
        <ele>302.60000610352</ele>
        <time>2021-09-12T09:38:42Z</time>
      </trkpt>
      <trkpt lat="48.42926" lon="-3.85564">
        <ele>302.60000610352</ele>
        <time>2021-09-12T09:38:43Z</time>
      </trkpt>
      <trkpt lat="48.42923" lon="-3.85565">
        <ele>302.60000610352</ele>
        <time>2021-09-12T09:38:44Z</time>
      </trkpt>
      <trkpt lat="48.42919" lon="-3.85566">
        <ele>302.79998779297</ele>
        <time>2021-09-12T09:38:45Z</time>
      </trkpt>
      <trkpt lat="48.42916" lon="-3.85566">
        <ele>303.20001220703</ele>
        <time>2021-09-12T09:38:46Z</time>
      </trkpt>
      <trkpt lat="48.42913" lon="-3.85567">
        <ele>303.20001220703</ele>
        <time>2021-09-12T09:38:47Z</time>
      </trkpt>
      <trkpt lat="48.42909" lon="-3.85568">
        <ele>303.39999389648</ele>
        <time>2021-09-12T09:38:48Z</time>
      </trkpt>
      <trkpt lat="48.42906" lon="-3.85569">
        <ele>303.39999389648</ele>
        <time>2021-09-12T09:38:49Z</time>
      </trkpt>
      <trkpt lat="48.42902" lon="-3.8557">
        <ele>303.39999389648</ele>
        <time>2021-09-12T09:38:50Z</time>
      </trkpt>
      <trkpt lat="48.42899" lon="-3.85571">
        <ele>303.39999389648</ele>
        <time>2021-09-12T09:38:51Z</time>
      </trkpt>
      <trkpt lat="48.42895" lon="-3.85572">
        <ele>303.39999389648</ele>
        <time>2021-09-12T09:38:52Z</time>
      </trkpt>
      <trkpt lat="48.42891" lon="-3.85573">
        <ele>303.60000610352</ele>
        <time>2021-09-12T09:38:53Z</time>
      </trkpt>
      <trkpt lat="48.42888" lon="-3.85574">
        <ele>303.60000610352</ele>
        <time>2021-09-12T09:38:54Z</time>
      </trkpt>
      <trkpt lat="48.42884" lon="-3.85576">
        <ele>303.79998779297</ele>
        <time>2021-09-12T09:38:55Z</time>
      </trkpt>
      <trkpt lat="48.42881" lon="-3.85578">
        <ele>304</ele>
        <time>2021-09-12T09:38:56Z</time>
      </trkpt>
      <trkpt lat="48.42877" lon="-3.85579">
        <ele>304</ele>
        <time>2021-09-12T09:38:57Z</time>
      </trkpt>
      <trkpt lat="48.42874" lon="-3.85581">
        <ele>304.20001220703</ele>
        <time>2021-09-12T09:38:58Z</time>
      </trkpt>
      <trkpt lat="48.4287" lon="-3.85582">
        <ele>304.39999389648</ele>
        <time>2021-09-12T09:38:59Z</time>
      </trkpt>
      <trkpt lat="48.42867" lon="-3.85584">
        <ele>304.39999389648</ele>
        <time>2021-09-12T09:39:00Z</time>
      </trkpt>
      <trkpt lat="48.42863" lon="-3.85586">
        <ele>304.39999389648</ele>
        <time>2021-09-12T09:39:01Z</time>
      </trkpt>
      <trkpt lat="48.4286" lon="-3.85588">
        <ele>304.60000610352</ele>
        <time>2021-09-12T09:39:02Z</time>
      </trkpt>
      <trkpt lat="48.42856" lon="-3.85589">
        <ele>304.60000610352</ele>
        <time>2021-09-12T09:39:03Z</time>
      </trkpt>
      <trkpt lat="48.42853" lon="-3.85591">
        <ele>304.60000610352</ele>
        <time>2021-09-12T09:39:04Z</time>
      </trkpt>
      <trkpt lat="48.42849" lon="-3.85592">
        <ele>304.79998779297</ele>
        <time>2021-09-12T09:39:05Z</time>
      </trkpt>
      <trkpt lat="48.42846" lon="-3.85594">
        <ele>305</ele>
        <time>2021-09-12T09:39:06Z</time>
      </trkpt>
      <trkpt lat="48.42842" lon="-3.85595">
        <ele>305</ele>
        <time>2021-09-12T09:39:07Z</time>
      </trkpt>
      <trkpt lat="48.42839" lon="-3.85597">
        <ele>305.20001220703</ele>
        <time>2021-09-12T09:39:08Z</time>
      </trkpt>
      <trkpt lat="48.42835" lon="-3.85599">
        <ele>305.20001220703</ele>
        <time>2021-09-12T09:39:09Z</time>
      </trkpt>
      <trkpt lat="48.42832" lon="-3.85601">
        <ele>305.60000610352</ele>
        <time>2021-09-12T09:39:10Z</time>
      </trkpt>
      <trkpt lat="48.42829" lon="-3.85603">
        <ele>305.79998779297</ele>
        <time>2021-09-12T09:39:11Z</time>
      </trkpt>
      <trkpt lat="48.42826" lon="-3.85605">
        <ele>305.79998779297</ele>
        <time>2021-09-12T09:39:12Z</time>
      </trkpt>
      <trkpt lat="48.42822" lon="-3.85607">
        <ele>306</ele>
        <time>2021-09-12T09:39:13Z</time>
      </trkpt>
      <trkpt lat="48.42819" lon="-3.85608">
        <ele>306</ele>
        <time>2021-09-12T09:39:14Z</time>
      </trkpt>
      <trkpt lat="48.42815" lon="-3.8561">
        <ele>306.20001220703</ele>
        <time>2021-09-12T09:39:15Z</time>
      </trkpt>
      <trkpt lat="48.42812" lon="-3.85612">
        <ele>306.60000610352</ele>
        <time>2021-09-12T09:39:16Z</time>
      </trkpt>
      <trkpt lat="48.42809" lon="-3.85614">
        <ele>306.60000610352</ele>
        <time>2021-09-12T09:39:17Z</time>
      </trkpt>
      <trkpt lat="48.42806" lon="-3.85615">
        <ele>306.79998779297</ele>
        <time>2021-09-12T09:39:18Z</time>
      </trkpt>
      <trkpt lat="48.42803" lon="-3.85617">
        <ele>306.79998779297</ele>
        <time>2021-09-12T09:39:19Z</time>
      </trkpt>
      <trkpt lat="48.428" lon="-3.85618">
        <ele>306.79998779297</ele>
        <time>2021-09-12T09:39:20Z</time>
      </trkpt>
      <trkpt lat="48.42798" lon="-3.85619">
        <ele>307</ele>
        <time>2021-09-12T09:39:21Z</time>
      </trkpt>
      <trkpt lat="48.42795" lon="-3.8562">
        <ele>307</ele>
        <time>2021-09-12T09:39:22Z</time>
      </trkpt>
      <trkpt lat="48.42793" lon="-3.85621">
        <ele>307</ele>
        <time>2021-09-12T09:39:23Z</time>
      </trkpt>
      <trkpt lat="48.4279" lon="-3.85622">
        <ele>307</ele>
        <time>2021-09-12T09:39:24Z</time>
      </trkpt>
      <trkpt lat="48.42786" lon="-3.85624">
        <ele>307</ele>
        <time>2021-09-12T09:39:25Z</time>
      </trkpt>
      <trkpt lat="48.42783" lon="-3.85625">
        <ele>307.20001220703</ele>
        <time>2021-09-12T09:39:26Z</time>
      </trkpt>
      <trkpt lat="48.4278" lon="-3.85626">
        <ele>307.39999389648</ele>
        <time>2021-09-12T09:39:27Z</time>
      </trkpt>
      <trkpt lat="48.42776" lon="-3.85628">
        <ele>307.39999389648</ele>
        <time>2021-09-12T09:39:28Z</time>
      </trkpt>
      <trkpt lat="48.42773" lon="-3.8563">
        <ele>307.39999389648</ele>
        <time>2021-09-12T09:39:29Z</time>
      </trkpt>
      <trkpt lat="48.42769" lon="-3.85632">
        <ele>307.39999389648</ele>
        <time>2021-09-12T09:39:30Z</time>
      </trkpt>
      <trkpt lat="48.42765" lon="-3.85633">
        <ele>307.39999389648</ele>
        <time>2021-09-12T09:39:31Z</time>
      </trkpt>
      <trkpt lat="48.42761" lon="-3.85634">
        <ele>307.39999389648</ele>
        <time>2021-09-12T09:39:32Z</time>
      </trkpt>
      <trkpt lat="48.42757" lon="-3.85636">
        <ele>307.60000610352</ele>
        <time>2021-09-12T09:39:33Z</time>
      </trkpt>
      <trkpt lat="48.42753" lon="-3.85637">
        <ele>307.60000610352</ele>
        <time>2021-09-12T09:39:34Z</time>
      </trkpt>
      <trkpt lat="48.42749" lon="-3.85639">
        <ele>307.60000610352</ele>
        <time>2021-09-12T09:39:35Z</time>
      </trkpt>
      <trkpt lat="48.42745" lon="-3.85641">
        <ele>307.60000610352</ele>
        <time>2021-09-12T09:39:36Z</time>
      </trkpt>
      <trkpt lat="48.4274" lon="-3.85644">
        <ele>307.60000610352</ele>
        <time>2021-09-12T09:39:37Z</time>
      </trkpt>
      <trkpt lat="48.42736" lon="-3.85647">
        <ele>307.60000610352</ele>
        <time>2021-09-12T09:39:38Z</time>
      </trkpt>
      <trkpt lat="48.42732" lon="-3.85649">
        <ele>307.60000610352</ele>
        <time>2021-09-12T09:39:39Z</time>
      </trkpt>
      <trkpt lat="48.42727" lon="-3.85651">
        <ele>307.60000610352</ele>
        <time>2021-09-12T09:39:40Z</time>
      </trkpt>
      <trkpt lat="48.42723" lon="-3.85654">
        <ele>307.60000610352</ele>
        <time>2021-09-12T09:39:41Z</time>
      </trkpt>
      <trkpt lat="48.42719" lon="-3.85656">
        <ele>307.39999389648</ele>
        <time>2021-09-12T09:39:42Z</time>
      </trkpt>
      <trkpt lat="48.42714" lon="-3.85658">
        <ele>307.39999389648</ele>
        <time>2021-09-12T09:39:43Z</time>
      </trkpt>
      <trkpt lat="48.4271" lon="-3.8566">
        <ele>307.39999389648</ele>
        <time>2021-09-12T09:39:44Z</time>
      </trkpt>
      <trkpt lat="48.42706" lon="-3.85662">
        <ele>307.39999389648</ele>
        <time>2021-09-12T09:39:45Z</time>
      </trkpt>
      <trkpt lat="48.42702" lon="-3.85664">
        <ele>307.39999389648</ele>
        <time>2021-09-12T09:39:46Z</time>
      </trkpt>
      <trkpt lat="48.42699" lon="-3.85665">
        <ele>307.39999389648</ele>
        <time>2021-09-12T09:39:47Z</time>
      </trkpt>
      <trkpt lat="48.42695" lon="-3.85668">
        <ele>307.39999389648</ele>
        <time>2021-09-12T09:39:48Z</time>
      </trkpt>
      <trkpt lat="48.42692" lon="-3.8567">
        <ele>307.60000610352</ele>
        <time>2021-09-12T09:39:49Z</time>
      </trkpt>
      <trkpt lat="48.42688" lon="-3.85672">
        <ele>307.60000610352</ele>
        <time>2021-09-12T09:39:50Z</time>
      </trkpt>
      <trkpt lat="48.42685" lon="-3.85673">
        <ele>307.79998779297</ele>
        <time>2021-09-12T09:39:51Z</time>
      </trkpt>
      <trkpt lat="48.42681" lon="-3.85675">
        <ele>307.79998779297</ele>
        <time>2021-09-12T09:39:52Z</time>
      </trkpt>
      <trkpt lat="48.42677" lon="-3.85676">
        <ele>308</ele>
        <time>2021-09-12T09:39:53Z</time>
      </trkpt>
      <trkpt lat="48.42673" lon="-3.85678">
        <ele>308.20001220703</ele>
        <time>2021-09-12T09:39:54Z</time>
      </trkpt>
      <trkpt lat="48.42669" lon="-3.85679">
        <ele>308.20001220703</ele>
        <time>2021-09-12T09:39:55Z</time>
      </trkpt>
      <trkpt lat="48.42666" lon="-3.85681">
        <ele>308.39999389648</ele>
        <time>2021-09-12T09:39:56Z</time>
      </trkpt>
      <trkpt lat="48.42662" lon="-3.85683">
        <ele>308.39999389648</ele>
        <time>2021-09-12T09:39:57Z</time>
      </trkpt>
      <trkpt lat="48.42659" lon="-3.85685">
        <ele>308.39999389648</ele>
        <time>2021-09-12T09:39:58Z</time>
      </trkpt>
      <trkpt lat="48.42656" lon="-3.85687">
        <ele>308.79998779297</ele>
        <time>2021-09-12T09:39:59Z</time>
      </trkpt>
      <trkpt lat="48.42652" lon="-3.85688">
        <ele>309</ele>
        <time>2021-09-12T09:40:00Z</time>
      </trkpt>
      <trkpt lat="48.42649" lon="-3.8569">
        <ele>309</ele>
        <time>2021-09-12T09:40:01Z</time>
      </trkpt>
      <trkpt lat="48.42645" lon="-3.85693">
        <ele>309.20001220703</ele>
        <time>2021-09-12T09:40:02Z</time>
      </trkpt>
      <trkpt lat="48.42642" lon="-3.85695">
        <ele>309.20001220703</ele>
        <time>2021-09-12T09:40:03Z</time>
      </trkpt>
      <trkpt lat="48.42639" lon="-3.85698">
        <ele>309.39999389648</ele>
        <time>2021-09-12T09:40:04Z</time>
      </trkpt>
      <trkpt lat="48.42636" lon="-3.85701">
        <ele>309.60000610352</ele>
        <time>2021-09-12T09:40:05Z</time>
      </trkpt>
      <trkpt lat="48.42634" lon="-3.85704">
        <ele>309.79998779297</ele>
        <time>2021-09-12T09:40:06Z</time>
      </trkpt>
      <trkpt lat="48.42634" lon="-3.85709">
        <ele>309.79998779297</ele>
        <time>2021-09-12T09:40:07Z</time>
      </trkpt>
      <trkpt lat="48.42636" lon="-3.85713">
        <ele>310.20001220703</ele>
        <time>2021-09-12T09:40:08Z</time>
      </trkpt>
      <trkpt lat="48.42639" lon="-3.85716">
        <ele>310.20001220703</ele>
        <time>2021-09-12T09:40:09Z</time>
      </trkpt>
      <trkpt lat="48.42642" lon="-3.85719">
        <ele>310.20001220703</ele>
        <time>2021-09-12T09:40:10Z</time>
      </trkpt>
      <trkpt lat="48.42645" lon="-3.85723">
        <ele>310.20001220703</ele>
        <time>2021-09-12T09:40:11Z</time>
      </trkpt>
      <trkpt lat="48.42649" lon="-3.85727">
        <ele>310.20001220703</ele>
        <time>2021-09-12T09:40:12Z</time>
      </trkpt>
      <trkpt lat="48.42653" lon="-3.85732">
        <ele>310</ele>
        <time>2021-09-12T09:40:13Z</time>
      </trkpt>
      <trkpt lat="48.42658" lon="-3.85737">
        <ele>310</ele>
        <time>2021-09-12T09:40:14Z</time>
      </trkpt>
      <trkpt lat="48.42662" lon="-3.85743">
        <ele>310</ele>
        <time>2021-09-12T09:40:15Z</time>
      </trkpt>
      <trkpt lat="48.42667" lon="-3.85748">
        <ele>310</ele>
        <time>2021-09-12T09:40:16Z</time>
      </trkpt>
      <trkpt lat="48.42672" lon="-3.85754">
        <ele>310</ele>
        <time>2021-09-12T09:40:17Z</time>
      </trkpt>
      <trkpt lat="48.42677" lon="-3.85758">
        <ele>309.60000610352</ele>
        <time>2021-09-12T09:40:18Z</time>
      </trkpt>
      <trkpt lat="48.42682" lon="-3.85763">
        <ele>309.60000610352</ele>
        <time>2021-09-12T09:40:19Z</time>
      </trkpt>
      <trkpt lat="48.42686" lon="-3.85768">
        <ele>309.39999389648</ele>
        <time>2021-09-12T09:40:20Z</time>
      </trkpt>
      <trkpt lat="48.4269" lon="-3.85772">
        <ele>309.20001220703</ele>
        <time>2021-09-12T09:40:21Z</time>
      </trkpt>
      <trkpt lat="48.42694" lon="-3.85777">
        <ele>309</ele>
        <time>2021-09-12T09:40:22Z</time>
      </trkpt>
      <trkpt lat="48.42699" lon="-3.85781">
        <ele>308.79998779297</ele>
        <time>2021-09-12T09:40:23Z</time>
      </trkpt>
      <trkpt lat="48.42703" lon="-3.85785">
        <ele>308.79998779297</ele>
        <time>2021-09-12T09:40:24Z</time>
      </trkpt>
      <trkpt lat="48.42708" lon="-3.85788">
        <ele>308.60000610352</ele>
        <time>2021-09-12T09:40:25Z</time>
      </trkpt>
      <trkpt lat="48.42713" lon="-3.85792">
        <ele>308.60000610352</ele>
        <time>2021-09-12T09:40:26Z</time>
      </trkpt>
      <trkpt lat="48.42717" lon="-3.85795">
        <ele>308.60000610352</ele>
        <time>2021-09-12T09:40:27Z</time>
      </trkpt>
      <trkpt lat="48.42721" lon="-3.85799">
        <ele>308.60000610352</ele>
        <time>2021-09-12T09:40:28Z</time>
      </trkpt>
      <trkpt lat="48.42726" lon="-3.85803">
        <ele>308.60000610352</ele>
        <time>2021-09-12T09:40:29Z</time>
      </trkpt>
      <trkpt lat="48.42729" lon="-3.85807">
        <ele>308.60000610352</ele>
        <time>2021-09-12T09:40:30Z</time>
      </trkpt>
      <trkpt lat="48.42731" lon="-3.85812">
        <ele>308.60000610352</ele>
        <time>2021-09-12T09:40:31Z</time>
      </trkpt>
      <trkpt lat="48.42732" lon="-3.85819">
        <ele>308.60000610352</ele>
        <time>2021-09-12T09:40:32Z</time>
      </trkpt>
      <trkpt lat="48.42732" lon="-3.85825">
        <ele>308.39999389648</ele>
        <time>2021-09-12T09:40:33Z</time>
      </trkpt>
      <trkpt lat="48.42732" lon="-3.85833">
        <ele>308.39999389648</ele>
        <time>2021-09-12T09:40:34Z</time>
      </trkpt>
      <trkpt lat="48.42733" lon="-3.8584">
        <ele>308.20001220703</ele>
        <time>2021-09-12T09:40:35Z</time>
      </trkpt>
      <trkpt lat="48.42735" lon="-3.85846">
        <ele>307.60000610352</ele>
        <time>2021-09-12T09:40:36Z</time>
      </trkpt>
      <trkpt lat="48.42739" lon="-3.85853">
        <ele>307.39999389648</ele>
        <time>2021-09-12T09:40:37Z</time>
      </trkpt>
      <trkpt lat="48.42742" lon="-3.8586">
        <ele>306.79998779297</ele>
        <time>2021-09-12T09:40:38Z</time>
      </trkpt>
      <trkpt lat="48.42745" lon="-3.85867">
        <ele>306.39999389648</ele>
        <time>2021-09-12T09:40:39Z</time>
      </trkpt>
      <trkpt lat="48.42748" lon="-3.85874">
        <ele>306.39999389648</ele>
        <time>2021-09-12T09:40:40Z</time>
      </trkpt>
      <trkpt lat="48.42752" lon="-3.85881">
        <ele>306.20001220703</ele>
        <time>2021-09-12T09:40:41Z</time>
      </trkpt>
      <trkpt lat="48.42755" lon="-3.85889">
        <ele>306.20001220703</ele>
        <time>2021-09-12T09:40:42Z</time>
      </trkpt>
      <trkpt lat="48.42759" lon="-3.85896">
        <ele>306.20001220703</ele>
        <time>2021-09-12T09:40:43Z</time>
      </trkpt>
      <trkpt lat="48.42763" lon="-3.85904">
        <ele>305.39999389648</ele>
        <time>2021-09-12T09:40:44Z</time>
      </trkpt>
      <trkpt lat="48.42766" lon="-3.85912">
        <ele>305.39999389648</ele>
        <time>2021-09-12T09:40:45Z</time>
      </trkpt>
      <trkpt lat="48.42769" lon="-3.85921">
        <ele>305.20001220703</ele>
        <time>2021-09-12T09:40:46Z</time>
      </trkpt>
      <trkpt lat="48.42773" lon="-3.85929">
        <ele>305</ele>
        <time>2021-09-12T09:40:47Z</time>
      </trkpt>
      <trkpt lat="48.42776" lon="-3.85937">
        <ele>304.60000610352</ele>
        <time>2021-09-12T09:40:48Z</time>
      </trkpt>
      <trkpt lat="48.42781" lon="-3.85945">
        <ele>304.39999389648</ele>
        <time>2021-09-12T09:40:49Z</time>
      </trkpt>
      <trkpt lat="48.42786" lon="-3.85953">
        <ele>303.60000610352</ele>
        <time>2021-09-12T09:40:50Z</time>
      </trkpt>
      <trkpt lat="48.42792" lon="-3.85961">
        <ele>303.60000610352</ele>
        <time>2021-09-12T09:40:51Z</time>
      </trkpt>
      <trkpt lat="48.42797" lon="-3.85969">
        <ele>303</ele>
        <time>2021-09-12T09:40:52Z</time>
      </trkpt>
      <trkpt lat="48.42802" lon="-3.85977">
        <ele>302.39999389648</ele>
        <time>2021-09-12T09:40:53Z</time>
      </trkpt>
      <trkpt lat="48.42807" lon="-3.85985">
        <ele>302.20001220703</ele>
        <time>2021-09-12T09:40:54Z</time>
      </trkpt>
      <trkpt lat="48.42812" lon="-3.85994">
        <ele>302.20001220703</ele>
        <time>2021-09-12T09:40:55Z</time>
      </trkpt>
      <trkpt lat="48.42817" lon="-3.86003">
        <ele>301.39999389648</ele>
        <time>2021-09-12T09:40:56Z</time>
      </trkpt>
      <trkpt lat="48.42822" lon="-3.86013">
        <ele>301.39999389648</ele>
        <time>2021-09-12T09:40:57Z</time>
      </trkpt>
      <trkpt lat="48.42827" lon="-3.86021">
        <ele>301.20001220703</ele>
        <time>2021-09-12T09:40:58Z</time>
      </trkpt>
      <trkpt lat="48.42833" lon="-3.8603">
        <ele>300.20001220703</ele>
        <time>2021-09-12T09:40:59Z</time>
      </trkpt>
      <trkpt lat="48.42839" lon="-3.86037">
        <ele>300</ele>
        <time>2021-09-12T09:41:00Z</time>
      </trkpt>
      <trkpt lat="48.42845" lon="-3.86045">
        <ele>299.20001220703</ele>
        <time>2021-09-12T09:41:01Z</time>
      </trkpt>
      <trkpt lat="48.42851" lon="-3.86052">
        <ele>298.39999389648</ele>
        <time>2021-09-12T09:41:02Z</time>
      </trkpt>
      <trkpt lat="48.42857" lon="-3.86057">
        <ele>298.20001220703</ele>
        <time>2021-09-12T09:41:03Z</time>
      </trkpt>
      <trkpt lat="48.42862" lon="-3.86062">
        <ele>297.20001220703</ele>
        <time>2021-09-12T09:41:04Z</time>
      </trkpt>
      <trkpt lat="48.42868" lon="-3.86066">
        <ele>296.79998779297</ele>
        <time>2021-09-12T09:41:05Z</time>
      </trkpt>
      <trkpt lat="48.42874" lon="-3.8607">
        <ele>296</ele>
        <time>2021-09-12T09:41:06Z</time>
      </trkpt>
      <trkpt lat="48.4288" lon="-3.86074">
        <ele>296</ele>
        <time>2021-09-12T09:41:07Z</time>
      </trkpt>
      <trkpt lat="48.42887" lon="-3.86077">
        <ele>295.20001220703</ele>
        <time>2021-09-12T09:41:08Z</time>
      </trkpt>
      <trkpt lat="48.42893" lon="-3.86079">
        <ele>295.20001220703</ele>
        <time>2021-09-12T09:41:09Z</time>
      </trkpt>
      <trkpt lat="48.429" lon="-3.86082">
        <ele>294.79998779297</ele>
        <time>2021-09-12T09:41:10Z</time>
      </trkpt>
      <trkpt lat="48.42907" lon="-3.86084">
        <ele>294.60000610352</ele>
        <time>2021-09-12T09:41:11Z</time>
      </trkpt>
      <trkpt lat="48.42913" lon="-3.86087">
        <ele>294.60000610352</ele>
        <time>2021-09-12T09:41:12Z</time>
      </trkpt>
      <trkpt lat="48.4292" lon="-3.86091">
        <ele>294.20001220703</ele>
        <time>2021-09-12T09:41:13Z</time>
      </trkpt>
      <trkpt lat="48.42926" lon="-3.86095">
        <ele>294.20001220703</ele>
        <time>2021-09-12T09:41:14Z</time>
      </trkpt>
      <trkpt lat="48.42933" lon="-3.86099">
        <ele>293.79998779297</ele>
        <time>2021-09-12T09:41:15Z</time>
      </trkpt>
      <trkpt lat="48.4294" lon="-3.86103">
        <ele>293</ele>
        <time>2021-09-12T09:41:16Z</time>
      </trkpt>
      <trkpt lat="48.42946" lon="-3.86106">
        <ele>292.60000610352</ele>
        <time>2021-09-12T09:41:17Z</time>
      </trkpt>
      <trkpt lat="48.42953" lon="-3.86109">
        <ele>292.20001220703</ele>
        <time>2021-09-12T09:41:18Z</time>
      </trkpt>
      <trkpt lat="48.42959" lon="-3.86112">
        <ele>292</ele>
        <time>2021-09-12T09:41:19Z</time>
      </trkpt>
      <trkpt lat="48.42965" lon="-3.86116">
        <ele>291.79998779297</ele>
        <time>2021-09-12T09:41:20Z</time>
      </trkpt>
      <trkpt lat="48.42971" lon="-3.86121">
        <ele>291.60000610352</ele>
        <time>2021-09-12T09:41:21Z</time>
      </trkpt>
      <trkpt lat="48.42976" lon="-3.86126">
        <ele>291.39999389648</ele>
        <time>2021-09-12T09:41:22Z</time>
      </trkpt>
      <trkpt lat="48.42982" lon="-3.86132">
        <ele>291.39999389648</ele>
        <time>2021-09-12T09:41:23Z</time>
      </trkpt>
      <trkpt lat="48.42987" lon="-3.86137">
        <ele>290.60000610352</ele>
        <time>2021-09-12T09:41:24Z</time>
      </trkpt>
      <trkpt lat="48.42993" lon="-3.86141">
        <ele>290.20001220703</ele>
        <time>2021-09-12T09:41:25Z</time>
      </trkpt>
      <trkpt lat="48.42998" lon="-3.86145">
        <ele>290</ele>
        <time>2021-09-12T09:41:26Z</time>
      </trkpt>
      <trkpt lat="48.43004" lon="-3.8615">
        <ele>289.20001220703</ele>
        <time>2021-09-12T09:41:27Z</time>
      </trkpt>
      <trkpt lat="48.43009" lon="-3.86155">
        <ele>289.20001220703</ele>
        <time>2021-09-12T09:41:28Z</time>
      </trkpt>
      <trkpt lat="48.43015" lon="-3.86161">
        <ele>288.79998779297</ele>
        <time>2021-09-12T09:41:29Z</time>
      </trkpt>
      <trkpt lat="48.4302" lon="-3.86166">
        <ele>288.60000610352</ele>
        <time>2021-09-12T09:41:30Z</time>
      </trkpt>
      <trkpt lat="48.43026" lon="-3.86172">
        <ele>288.39999389648</ele>
        <time>2021-09-12T09:41:31Z</time>
      </trkpt>
      <trkpt lat="48.43031" lon="-3.86178">
        <ele>288.20001220703</ele>
        <time>2021-09-12T09:41:32Z</time>
      </trkpt>
      <trkpt lat="48.43035" lon="-3.86184">
        <ele>287.60000610352</ele>
        <time>2021-09-12T09:41:33Z</time>
      </trkpt>
      <trkpt lat="48.43039" lon="-3.86189">
        <ele>287.39999389648</ele>
        <time>2021-09-12T09:41:34Z</time>
      </trkpt>
      <trkpt lat="48.43043" lon="-3.86196">
        <ele>287.20001220703</ele>
        <time>2021-09-12T09:41:35Z</time>
      </trkpt>
      <trkpt lat="48.43049" lon="-3.86204">
        <ele>286.60000610352</ele>
        <time>2021-09-12T09:41:36Z</time>
      </trkpt>
      <trkpt lat="48.43053" lon="-3.86209">
        <ele>286.60000610352</ele>
        <time>2021-09-12T09:41:37Z</time>
      </trkpt>
      <trkpt lat="48.43059" lon="-3.86216">
        <ele>286.20001220703</ele>
        <time>2021-09-12T09:41:38Z</time>
      </trkpt>
      <trkpt lat="48.43062" lon="-3.8622">
        <ele>286.20001220703</ele>
        <time>2021-09-12T09:41:39Z</time>
      </trkpt>
      <trkpt lat="48.43065" lon="-3.86223">
        <ele>285.39999389648</ele>
        <time>2021-09-12T09:41:40Z</time>
      </trkpt>
      <trkpt lat="48.43066" lon="-3.86228">
        <ele>285.39999389648</ele>
        <time>2021-09-12T09:41:41Z</time>
      </trkpt>
      <trkpt lat="48.43065" lon="-3.86234">
        <ele>285.39999389648</ele>
        <time>2021-09-12T09:41:42Z</time>
      </trkpt>
      <trkpt lat="48.43063" lon="-3.86239">
        <ele>285.39999389648</ele>
        <time>2021-09-12T09:41:43Z</time>
      </trkpt>
      <trkpt lat="48.4306" lon="-3.86243">
        <ele>285.39999389648</ele>
        <time>2021-09-12T09:41:44Z</time>
      </trkpt>
      <trkpt lat="48.43057" lon="-3.86248">
        <ele>285.79998779297</ele>
        <time>2021-09-12T09:41:45Z</time>
      </trkpt>
      <trkpt lat="48.43054" lon="-3.86253">
        <ele>285.79998779297</ele>
        <time>2021-09-12T09:41:46Z</time>
      </trkpt>
      <trkpt lat="48.43052" lon="-3.86258">
        <ele>286</ele>
        <time>2021-09-12T09:41:47Z</time>
      </trkpt>
      <trkpt lat="48.43049" lon="-3.86264">
        <ele>286</ele>
        <time>2021-09-12T09:41:48Z</time>
      </trkpt>
      <trkpt lat="48.43046" lon="-3.8627">
        <ele>286</ele>
        <time>2021-09-12T09:41:49Z</time>
      </trkpt>
      <trkpt lat="48.43043" lon="-3.86276">
        <ele>286</ele>
        <time>2021-09-12T09:41:50Z</time>
      </trkpt>
      <trkpt lat="48.43041" lon="-3.86282">
        <ele>285.79998779297</ele>
        <time>2021-09-12T09:41:51Z</time>
      </trkpt>
      <trkpt lat="48.43039" lon="-3.86287">
        <ele>285.79998779297</ele>
        <time>2021-09-12T09:41:52Z</time>
      </trkpt>
      <trkpt lat="48.43035" lon="-3.86295">
        <ele>285.79998779297</ele>
        <time>2021-09-12T09:41:53Z</time>
      </trkpt>
      <trkpt lat="48.43031" lon="-3.86302">
        <ele>285.79998779297</ele>
        <time>2021-09-12T09:41:54Z</time>
      </trkpt>
      <trkpt lat="48.43028" lon="-3.86309">
        <ele>285.79998779297</ele>
        <time>2021-09-12T09:41:55Z</time>
      </trkpt>
      <trkpt lat="48.43025" lon="-3.86317">
        <ele>285.60000610352</ele>
        <time>2021-09-12T09:41:56Z</time>
      </trkpt>
      <trkpt lat="48.43022" lon="-3.86324">
        <ele>285.60000610352</ele>
        <time>2021-09-12T09:41:57Z</time>
      </trkpt>
      <trkpt lat="48.4302" lon="-3.86331">
        <ele>285.60000610352</ele>
        <time>2021-09-12T09:41:58Z</time>
      </trkpt>
      <trkpt lat="48.43017" lon="-3.86337">
        <ele>285.20001220703</ele>
        <time>2021-09-12T09:41:59Z</time>
      </trkpt>
      <trkpt lat="48.43014" lon="-3.86344">
        <ele>285.20001220703</ele>
        <time>2021-09-12T09:42:00Z</time>
      </trkpt>
      <trkpt lat="48.4301" lon="-3.8635">
        <ele>285.20001220703</ele>
        <time>2021-09-12T09:42:01Z</time>
      </trkpt>
      <trkpt lat="48.43007" lon="-3.86356">
        <ele>285.20001220703</ele>
        <time>2021-09-12T09:42:02Z</time>
      </trkpt>
      <trkpt lat="48.43003" lon="-3.86362">
        <ele>285</ele>
        <time>2021-09-12T09:42:03Z</time>
      </trkpt>
      <trkpt lat="48.42999" lon="-3.86368">
        <ele>285</ele>
        <time>2021-09-12T09:42:04Z</time>
      </trkpt>
      <trkpt lat="48.42996" lon="-3.86374">
        <ele>285</ele>
        <time>2021-09-12T09:42:05Z</time>
      </trkpt>
      <trkpt lat="48.42992" lon="-3.86381">
        <ele>285</ele>
        <time>2021-09-12T09:42:06Z</time>
      </trkpt>
      <trkpt lat="48.42989" lon="-3.86388">
        <ele>284.79998779297</ele>
        <time>2021-09-12T09:42:07Z</time>
      </trkpt>
      <trkpt lat="48.42986" lon="-3.86396">
        <ele>284.79998779297</ele>
        <time>2021-09-12T09:42:08Z</time>
      </trkpt>
      <trkpt lat="48.42984" lon="-3.86403">
        <ele>284.79998779297</ele>
        <time>2021-09-12T09:42:09Z</time>
      </trkpt>
      <trkpt lat="48.42981" lon="-3.86411">
        <ele>284.39999389648</ele>
        <time>2021-09-12T09:42:10Z</time>
      </trkpt>
      <trkpt lat="48.42978" lon="-3.86419">
        <ele>283.79998779297</ele>
        <time>2021-09-12T09:42:11Z</time>
      </trkpt>
      <trkpt lat="48.42975" lon="-3.86427">
        <ele>283.79998779297</ele>
        <time>2021-09-12T09:42:12Z</time>
      </trkpt>
      <trkpt lat="48.42972" lon="-3.86435">
        <ele>283.39999389648</ele>
        <time>2021-09-12T09:42:13Z</time>
      </trkpt>
      <trkpt lat="48.42968" lon="-3.86443">
        <ele>283.39999389648</ele>
        <time>2021-09-12T09:42:14Z</time>
      </trkpt>
      <trkpt lat="48.42965" lon="-3.86451">
        <ele>283.20001220703</ele>
        <time>2021-09-12T09:42:15Z</time>
      </trkpt>
      <trkpt lat="48.42962" lon="-3.86458">
        <ele>283</ele>
        <time>2021-09-12T09:42:16Z</time>
      </trkpt>
      <trkpt lat="48.42958" lon="-3.86468">
        <ele>282.39999389648</ele>
        <time>2021-09-12T09:42:17Z</time>
      </trkpt>
      <trkpt lat="48.42955" lon="-3.86476">
        <ele>282.20001220703</ele>
        <time>2021-09-12T09:42:18Z</time>
      </trkpt>
      <trkpt lat="48.42953" lon="-3.86485">
        <ele>281.79998779297</ele>
        <time>2021-09-12T09:42:19Z</time>
      </trkpt>
      <trkpt lat="48.4295" lon="-3.86492">
        <ele>281.79998779297</ele>
        <time>2021-09-12T09:42:20Z</time>
      </trkpt>
      <trkpt lat="48.42947" lon="-3.86503">
        <ele>281.79998779297</ele>
        <time>2021-09-12T09:42:21Z</time>
      </trkpt>
      <trkpt lat="48.42944" lon="-3.86513">
        <ele>281.39999389648</ele>
        <time>2021-09-12T09:42:22Z</time>
      </trkpt>
      <trkpt lat="48.42942" lon="-3.86522">
        <ele>281.20001220703</ele>
        <time>2021-09-12T09:42:23Z</time>
      </trkpt>
      <trkpt lat="48.42939" lon="-3.8653">
        <ele>281</ele>
        <time>2021-09-12T09:42:24Z</time>
      </trkpt>
      <trkpt lat="48.42937" lon="-3.86537">
        <ele>280.39999389648</ele>
        <time>2021-09-12T09:42:25Z</time>
      </trkpt>
      <trkpt lat="48.42934" lon="-3.86546">
        <ele>280.20001220703</ele>
        <time>2021-09-12T09:42:26Z</time>
      </trkpt>
      <trkpt lat="48.42931" lon="-3.86557">
        <ele>280</ele>
        <time>2021-09-12T09:42:27Z</time>
      </trkpt>
      <trkpt lat="48.42928" lon="-3.86567">
        <ele>279.60000610352</ele>
        <time>2021-09-12T09:42:28Z</time>
      </trkpt>
      <trkpt lat="48.42925" lon="-3.86576">
        <ele>279.39999389648</ele>
        <time>2021-09-12T09:42:29Z</time>
      </trkpt>
      <trkpt lat="48.42924" lon="-3.86582">
        <ele>279.20001220703</ele>
        <time>2021-09-12T09:42:30Z</time>
      </trkpt>
      <trkpt lat="48.42925" lon="-3.86591">
        <ele>279.20001220703</ele>
        <time>2021-09-12T09:42:31Z</time>
      </trkpt>
      <trkpt lat="48.42927" lon="-3.86597">
        <ele>278.60000610352</ele>
        <time>2021-09-12T09:42:32Z</time>
      </trkpt>
      <trkpt lat="48.4293" lon="-3.86603">
        <ele>278.39999389648</ele>
        <time>2021-09-12T09:42:33Z</time>
      </trkpt>
      <trkpt lat="48.42934" lon="-3.86609">
        <ele>278.39999389648</ele>
        <time>2021-09-12T09:42:34Z</time>
      </trkpt>
      <trkpt lat="48.42937" lon="-3.86614">
        <ele>278.39999389648</ele>
        <time>2021-09-12T09:42:35Z</time>
      </trkpt>
      <trkpt lat="48.4294" lon="-3.86621">
        <ele>278.39999389648</ele>
        <time>2021-09-12T09:42:36Z</time>
      </trkpt>
      <trkpt lat="48.42943" lon="-3.86631">
        <ele>278.60000610352</ele>
        <time>2021-09-12T09:42:37Z</time>
      </trkpt>
      <trkpt lat="48.42945" lon="-3.86638">
        <ele>278.60000610352</ele>
        <time>2021-09-12T09:42:38Z</time>
      </trkpt>
      <trkpt lat="48.42947" lon="-3.86646">
        <ele>278.79998779297</ele>
        <time>2021-09-12T09:42:39Z</time>
      </trkpt>
      <trkpt lat="48.42948" lon="-3.86655">
        <ele>278.79998779297</ele>
        <time>2021-09-12T09:42:40Z</time>
      </trkpt>
      <trkpt lat="48.42949" lon="-3.86663">
        <ele>279</ele>
        <time>2021-09-12T09:42:41Z</time>
      </trkpt>
      <trkpt lat="48.4295" lon="-3.86671">
        <ele>279.20001220703</ele>
        <time>2021-09-12T09:42:42Z</time>
      </trkpt>
      <trkpt lat="48.42951" lon="-3.8668">
        <ele>279.20001220703</ele>
        <time>2021-09-12T09:42:43Z</time>
      </trkpt>
      <trkpt lat="48.42952" lon="-3.86687">
        <ele>279.20001220703</ele>
        <time>2021-09-12T09:42:44Z</time>
      </trkpt>
      <trkpt lat="48.42953" lon="-3.86695">
        <ele>279.20001220703</ele>
        <time>2021-09-12T09:42:45Z</time>
      </trkpt>
      <trkpt lat="48.42955" lon="-3.86704">
        <ele>279.39999389648</ele>
        <time>2021-09-12T09:42:46Z</time>
      </trkpt>
      <trkpt lat="48.42957" lon="-3.86712">
        <ele>279.39999389648</ele>
        <time>2021-09-12T09:42:47Z</time>
      </trkpt>
      <trkpt lat="48.42958" lon="-3.86721">
        <ele>279.39999389648</ele>
        <time>2021-09-12T09:42:48Z</time>
      </trkpt>
      <trkpt lat="48.4296" lon="-3.86727">
        <ele>279.39999389648</ele>
        <time>2021-09-12T09:42:49Z</time>
      </trkpt>
      <trkpt lat="48.42962" lon="-3.86735">
        <ele>279.39999389648</ele>
        <time>2021-09-12T09:42:50Z</time>
      </trkpt>
      <trkpt lat="48.42965" lon="-3.86745">
        <ele>279.39999389648</ele>
        <time>2021-09-12T09:42:51Z</time>
      </trkpt>
      <trkpt lat="48.42968" lon="-3.86753">
        <ele>279.39999389648</ele>
        <time>2021-09-12T09:42:52Z</time>
      </trkpt>
      <trkpt lat="48.4297" lon="-3.86761">
        <ele>279.60000610352</ele>
        <time>2021-09-12T09:42:53Z</time>
      </trkpt>
      <trkpt lat="48.42973" lon="-3.86769">
        <ele>279.60000610352</ele>
        <time>2021-09-12T09:42:54Z</time>
      </trkpt>
      <trkpt lat="48.42975" lon="-3.86775">
        <ele>279.39999389648</ele>
        <time>2021-09-12T09:42:55Z</time>
      </trkpt>
      <trkpt lat="48.42977" lon="-3.86785">
        <ele>279.39999389648</ele>
        <time>2021-09-12T09:42:56Z</time>
      </trkpt>
      <trkpt lat="48.42979" lon="-3.86793">
        <ele>279.39999389648</ele>
        <time>2021-09-12T09:42:57Z</time>
      </trkpt>
      <trkpt lat="48.4298" lon="-3.868">
        <ele>279.39999389648</ele>
        <time>2021-09-12T09:42:58Z</time>
      </trkpt>
      <trkpt lat="48.42983" lon="-3.86809">
        <ele>279.20001220703</ele>
        <time>2021-09-12T09:42:59Z</time>
      </trkpt>
      <trkpt lat="48.42984" lon="-3.86815">
        <ele>279.20001220703</ele>
        <time>2021-09-12T09:43:00Z</time>
      </trkpt>
      <trkpt lat="48.42987" lon="-3.86824">
        <ele>279.20001220703</ele>
        <time>2021-09-12T09:43:01Z</time>
      </trkpt>
      <trkpt lat="48.42991" lon="-3.8683">
        <ele>279</ele>
        <time>2021-09-12T09:43:02Z</time>
      </trkpt>
      <trkpt lat="48.42993" lon="-3.86836">
        <ele>278.79998779297</ele>
        <time>2021-09-12T09:43:03Z</time>
      </trkpt>
      <trkpt lat="48.42997" lon="-3.86842">
        <ele>278.79998779297</ele>
        <time>2021-09-12T09:43:04Z</time>
      </trkpt>
      <trkpt lat="48.43001" lon="-3.86851">
        <ele>278.79998779297</ele>
        <time>2021-09-12T09:43:05Z</time>
      </trkpt>
      <trkpt lat="48.43004" lon="-3.86858">
        <ele>278.39999389648</ele>
        <time>2021-09-12T09:43:06Z</time>
      </trkpt>
      <trkpt lat="48.43008" lon="-3.86865">
        <ele>278</ele>
        <time>2021-09-12T09:43:07Z</time>
      </trkpt>
      <trkpt lat="48.4301" lon="-3.86872">
        <ele>278</ele>
        <time>2021-09-12T09:43:08Z</time>
      </trkpt>
      <trkpt lat="48.43014" lon="-3.8688">
        <ele>278</ele>
        <time>2021-09-12T09:43:09Z</time>
      </trkpt>
      <trkpt lat="48.43018" lon="-3.8689">
        <ele>277.39999389648</ele>
        <time>2021-09-12T09:43:10Z</time>
      </trkpt>
      <trkpt lat="48.43021" lon="-3.86898">
        <ele>277.20001220703</ele>
        <time>2021-09-12T09:43:11Z</time>
      </trkpt>
      <trkpt lat="48.43025" lon="-3.86907">
        <ele>276.79998779297</ele>
        <time>2021-09-12T09:43:12Z</time>
      </trkpt>
      <trkpt lat="48.43027" lon="-3.86914">
        <ele>276.60000610352</ele>
        <time>2021-09-12T09:43:13Z</time>
      </trkpt>
      <trkpt lat="48.43031" lon="-3.86926">
        <ele>276</ele>
        <time>2021-09-12T09:43:14Z</time>
      </trkpt>
      <trkpt lat="48.43035" lon="-3.86937">
        <ele>275.60000610352</ele>
        <time>2021-09-12T09:43:15Z</time>
      </trkpt>
      <trkpt lat="48.43037" lon="-3.86948">
        <ele>275.20001220703</ele>
        <time>2021-09-12T09:43:16Z</time>
      </trkpt>
      <trkpt lat="48.4304" lon="-3.8696">
        <ele>274.60000610352</ele>
        <time>2021-09-12T09:43:17Z</time>
      </trkpt>
      <trkpt lat="48.43043" lon="-3.86971">
        <ele>273.60000610352</ele>
        <time>2021-09-12T09:43:18Z</time>
      </trkpt>
      <trkpt lat="48.43046" lon="-3.86981">
        <ele>273</ele>
        <time>2021-09-12T09:43:19Z</time>
      </trkpt>
      <trkpt lat="48.4305" lon="-3.86997">
        <ele>272.20001220703</ele>
        <time>2021-09-12T09:43:20Z</time>
      </trkpt>
      <trkpt lat="48.43053" lon="-3.87009">
        <ele>271.79998779297</ele>
        <time>2021-09-12T09:43:21Z</time>
      </trkpt>
      <trkpt lat="48.43058" lon="-3.87021">
        <ele>271.39999389648</ele>
        <time>2021-09-12T09:43:22Z</time>
      </trkpt>
      <trkpt lat="48.43062" lon="-3.8703">
        <ele>270.60000610352</ele>
        <time>2021-09-12T09:43:23Z</time>
      </trkpt>
      <trkpt lat="48.43067" lon="-3.87041">
        <ele>270.20001220703</ele>
        <time>2021-09-12T09:43:24Z</time>
      </trkpt>
      <trkpt lat="48.43073" lon="-3.8705">
        <ele>269</ele>
        <time>2021-09-12T09:43:25Z</time>
      </trkpt>
      <trkpt lat="48.4308" lon="-3.8706">
        <ele>269</ele>
        <time>2021-09-12T09:43:26Z</time>
      </trkpt>
      <trkpt lat="48.43083" lon="-3.87068">
        <ele>268.39999389648</ele>
        <time>2021-09-12T09:43:27Z</time>
      </trkpt>
      <trkpt lat="48.43087" lon="-3.87078">
        <ele>267.20001220703</ele>
        <time>2021-09-12T09:43:28Z</time>
      </trkpt>
      <trkpt lat="48.4309" lon="-3.8709">
        <ele>267</ele>
        <time>2021-09-12T09:43:29Z</time>
      </trkpt>
      <trkpt lat="48.43094" lon="-3.87103">
        <ele>267</ele>
        <time>2021-09-12T09:43:30Z</time>
      </trkpt>
      <trkpt lat="48.43097" lon="-3.87115">
        <ele>266.20001220703</ele>
        <time>2021-09-12T09:43:31Z</time>
      </trkpt>
      <trkpt lat="48.43101" lon="-3.87127">
        <ele>265.79998779297</ele>
        <time>2021-09-12T09:43:32Z</time>
      </trkpt>
      <trkpt lat="48.43104" lon="-3.8714">
        <ele>265.60000610352</ele>
        <time>2021-09-12T09:43:33Z</time>
      </trkpt>
      <trkpt lat="48.43107" lon="-3.87153">
        <ele>264.79998779297</ele>
        <time>2021-09-12T09:43:34Z</time>
      </trkpt>
      <trkpt lat="48.4311" lon="-3.87166">
        <ele>264.39999389648</ele>
        <time>2021-09-12T09:43:35Z</time>
      </trkpt>
      <trkpt lat="48.43113" lon="-3.87179">
        <ele>264.20001220703</ele>
        <time>2021-09-12T09:43:36Z</time>
      </trkpt>
      <trkpt lat="48.43115" lon="-3.87192">
        <ele>263.39999389648</ele>
        <time>2021-09-12T09:43:37Z</time>
      </trkpt>
      <trkpt lat="48.43117" lon="-3.87206">
        <ele>263</ele>
        <time>2021-09-12T09:43:38Z</time>
      </trkpt>
      <trkpt lat="48.43119" lon="-3.87219">
        <ele>262.79998779297</ele>
        <time>2021-09-12T09:43:39Z</time>
      </trkpt>
      <trkpt lat="48.4312" lon="-3.87233">
        <ele>262.39999389648</ele>
        <time>2021-09-12T09:43:40Z</time>
      </trkpt>
      <trkpt lat="48.43122" lon="-3.87247">
        <ele>261.39999389648</ele>
        <time>2021-09-12T09:43:41Z</time>
      </trkpt>
      <trkpt lat="48.43125" lon="-3.87261">
        <ele>260.79998779297</ele>
        <time>2021-09-12T09:43:42Z</time>
      </trkpt>
      <trkpt lat="48.43127" lon="-3.87274">
        <ele>260.60000610352</ele>
        <time>2021-09-12T09:43:43Z</time>
      </trkpt>
      <trkpt lat="48.4313" lon="-3.87288">
        <ele>260.60000610352</ele>
        <time>2021-09-12T09:43:44Z</time>
      </trkpt>
      <trkpt lat="48.43133" lon="-3.87301">
        <ele>259.39999389648</ele>
        <time>2021-09-12T09:43:45Z</time>
      </trkpt>
      <trkpt lat="48.43137" lon="-3.87314">
        <ele>259.20001220703</ele>
        <time>2021-09-12T09:43:46Z</time>
      </trkpt>
      <trkpt lat="48.43142" lon="-3.87326">
        <ele>258</ele>
        <time>2021-09-12T09:43:47Z</time>
      </trkpt>
      <trkpt lat="48.43147" lon="-3.87337">
        <ele>257.79998779297</ele>
        <time>2021-09-12T09:43:48Z</time>
      </trkpt>
      <trkpt lat="48.43152" lon="-3.87348">
        <ele>257.60000610352</ele>
        <time>2021-09-12T09:43:49Z</time>
      </trkpt>
      <trkpt lat="48.43157" lon="-3.87358">
        <ele>257</ele>
        <time>2021-09-12T09:43:50Z</time>
      </trkpt>
      <trkpt lat="48.4316" lon="-3.87369">
        <ele>256.39999389648</ele>
        <time>2021-09-12T09:43:51Z</time>
      </trkpt>
      <trkpt lat="48.43162" lon="-3.8738">
        <ele>256</ele>
        <time>2021-09-12T09:43:52Z</time>
      </trkpt>
      <trkpt lat="48.43162" lon="-3.87391">
        <ele>255.80000305176</ele>
        <time>2021-09-12T09:43:53Z</time>
      </trkpt>
      <trkpt lat="48.43162" lon="-3.87402">
        <ele>255.60000610352</ele>
        <time>2021-09-12T09:43:54Z</time>
      </trkpt>
      <trkpt lat="48.43162" lon="-3.87414">
        <ele>255.19999694824</ele>
        <time>2021-09-12T09:43:55Z</time>
      </trkpt>
      <trkpt lat="48.43162" lon="-3.87422">
        <ele>255.19999694824</ele>
        <time>2021-09-12T09:43:56Z</time>
      </trkpt>
      <trkpt lat="48.43162" lon="-3.87435">
        <ele>255.39999389648</ele>
        <time>2021-09-12T09:43:57Z</time>
      </trkpt>
      <trkpt lat="48.43161" lon="-3.87445">
        <ele>255.60000610352</ele>
        <time>2021-09-12T09:43:58Z</time>
      </trkpt>
      <trkpt lat="48.4316" lon="-3.87455">
        <ele>255.39999389648</ele>
        <time>2021-09-12T09:43:59Z</time>
      </trkpt>
      <trkpt lat="48.4316" lon="-3.87463">
        <ele>255.39999389648</ele>
        <time>2021-09-12T09:44:00Z</time>
      </trkpt>
      <trkpt lat="48.43159" lon="-3.87472">
        <ele>255</ele>
        <time>2021-09-12T09:44:01Z</time>
      </trkpt>
      <trkpt lat="48.43159" lon="-3.87483">
        <ele>255</ele>
        <time>2021-09-12T09:44:02Z</time>
      </trkpt>
      <trkpt lat="48.43159" lon="-3.87492">
        <ele>254.80000305176</ele>
        <time>2021-09-12T09:44:03Z</time>
      </trkpt>
      <trkpt lat="48.43158" lon="-3.87501">
        <ele>254.60000610352</ele>
        <time>2021-09-12T09:44:04Z</time>
      </trkpt>
      <trkpt lat="48.43158" lon="-3.87508">
        <ele>254.60000610352</ele>
        <time>2021-09-12T09:44:05Z</time>
      </trkpt>
      <trkpt lat="48.43158" lon="-3.87519">
        <ele>254.60000610352</ele>
        <time>2021-09-12T09:44:06Z</time>
      </trkpt>
      <trkpt lat="48.43159" lon="-3.87529">
        <ele>254.60000610352</ele>
        <time>2021-09-12T09:44:07Z</time>
      </trkpt>
      <trkpt lat="48.4316" lon="-3.87538">
        <ele>254.60000610352</ele>
        <time>2021-09-12T09:44:08Z</time>
      </trkpt>
      <trkpt lat="48.43162" lon="-3.87547">
        <ele>254.60000610352</ele>
        <time>2021-09-12T09:44:09Z</time>
      </trkpt>
      <trkpt lat="48.43164" lon="-3.87555">
        <ele>254.60000610352</ele>
        <time>2021-09-12T09:44:10Z</time>
      </trkpt>
      <trkpt lat="48.43165" lon="-3.87564">
        <ele>254.60000610352</ele>
        <time>2021-09-12T09:44:11Z</time>
      </trkpt>
      <trkpt lat="48.43168" lon="-3.87573">
        <ele>254</ele>
        <time>2021-09-12T09:44:12Z</time>
      </trkpt>
      <trkpt lat="48.4317" lon="-3.87582">
        <ele>254</ele>
        <time>2021-09-12T09:44:13Z</time>
      </trkpt>
      <trkpt lat="48.43173" lon="-3.87591">
        <ele>253.60000610352</ele>
        <time>2021-09-12T09:44:14Z</time>
      </trkpt>
      <trkpt lat="48.43176" lon="-3.876">
        <ele>253.39999389648</ele>
        <time>2021-09-12T09:44:15Z</time>
      </trkpt>
      <trkpt lat="48.4318" lon="-3.87607">
        <ele>253.39999389648</ele>
        <time>2021-09-12T09:44:16Z</time>
      </trkpt>
      <trkpt lat="48.43184" lon="-3.87615">
        <ele>253.19999694824</ele>
        <time>2021-09-12T09:44:17Z</time>
      </trkpt>
      <trkpt lat="48.43188" lon="-3.87622">
        <ele>253</ele>
        <time>2021-09-12T09:44:18Z</time>
      </trkpt>
      <trkpt lat="48.43193" lon="-3.87629">
        <ele>252.80000305176</ele>
        <time>2021-09-12T09:44:19Z</time>
      </trkpt>
      <trkpt lat="48.43197" lon="-3.87636">
        <ele>252.80000305176</ele>
        <time>2021-09-12T09:44:20Z</time>
      </trkpt>
      <trkpt lat="48.43202" lon="-3.87642">
        <ele>252.60000610352</ele>
        <time>2021-09-12T09:44:21Z</time>
      </trkpt>
      <trkpt lat="48.43206" lon="-3.87649">
        <ele>252.60000610352</ele>
        <time>2021-09-12T09:44:22Z</time>
      </trkpt>
      <trkpt lat="48.43211" lon="-3.87655">
        <ele>252.60000610352</ele>
        <time>2021-09-12T09:44:23Z</time>
      </trkpt>
      <trkpt lat="48.43216" lon="-3.87663">
        <ele>252.60000610352</ele>
        <time>2021-09-12T09:44:24Z</time>
      </trkpt>
      <trkpt lat="48.43221" lon="-3.8767">
        <ele>252.60000610352</ele>
        <time>2021-09-12T09:44:25Z</time>
      </trkpt>
      <trkpt lat="48.43226" lon="-3.87677">
        <ele>252.60000610352</ele>
        <time>2021-09-12T09:44:26Z</time>
      </trkpt>
      <trkpt lat="48.4323" lon="-3.87684">
        <ele>252.39999389648</ele>
        <time>2021-09-12T09:44:27Z</time>
      </trkpt>
      <trkpt lat="48.43235" lon="-3.8769">
        <ele>252.39999389648</ele>
        <time>2021-09-12T09:44:28Z</time>
      </trkpt>
      <trkpt lat="48.4324" lon="-3.87696">
        <ele>252.39999389648</ele>
        <time>2021-09-12T09:44:29Z</time>
      </trkpt>
      <trkpt lat="48.43244" lon="-3.87702">
        <ele>252.39999389648</ele>
        <time>2021-09-12T09:44:30Z</time>
      </trkpt>
      <trkpt lat="48.43249" lon="-3.87709">
        <ele>252.19999694824</ele>
        <time>2021-09-12T09:44:31Z</time>
      </trkpt>
      <trkpt lat="48.43254" lon="-3.87716">
        <ele>252</ele>
        <time>2021-09-12T09:44:32Z</time>
      </trkpt>
      <trkpt lat="48.43259" lon="-3.87724">
        <ele>252</ele>
        <time>2021-09-12T09:44:33Z</time>
      </trkpt>
      <trkpt lat="48.43265" lon="-3.8773">
        <ele>252</ele>
        <time>2021-09-12T09:44:34Z</time>
      </trkpt>
      <trkpt lat="48.4327" lon="-3.87735">
        <ele>252</ele>
        <time>2021-09-12T09:44:35Z</time>
      </trkpt>
      <trkpt lat="48.43276" lon="-3.87742">
        <ele>251.39999389648</ele>
        <time>2021-09-12T09:44:36Z</time>
      </trkpt>
      <trkpt lat="48.4328" lon="-3.8775">
        <ele>251</ele>
        <time>2021-09-12T09:44:37Z</time>
      </trkpt>
      <trkpt lat="48.43285" lon="-3.87757">
        <ele>250.60000610352</ele>
        <time>2021-09-12T09:44:38Z</time>
      </trkpt>
      <trkpt lat="48.4329" lon="-3.87765">
        <ele>250.39999389648</ele>
        <time>2021-09-12T09:44:39Z</time>
      </trkpt>
      <trkpt lat="48.43296" lon="-3.87772">
        <ele>249.60000610352</ele>
        <time>2021-09-12T09:44:40Z</time>
      </trkpt>
      <trkpt lat="48.43301" lon="-3.87778">
        <ele>249.60000610352</ele>
        <time>2021-09-12T09:44:41Z</time>
      </trkpt>
      <trkpt lat="48.43306" lon="-3.87785">
        <ele>249.19999694824</ele>
        <time>2021-09-12T09:44:42Z</time>
      </trkpt>
      <trkpt lat="48.43312" lon="-3.87791">
        <ele>249</ele>
        <time>2021-09-12T09:44:43Z</time>
      </trkpt>
      <trkpt lat="48.43318" lon="-3.87796">
        <ele>249</ele>
        <time>2021-09-12T09:44:44Z</time>
      </trkpt>
      <trkpt lat="48.43324" lon="-3.87801">
        <ele>249</ele>
        <time>2021-09-12T09:44:45Z</time>
      </trkpt>
      <trkpt lat="48.43329" lon="-3.87807">
        <ele>249</ele>
        <time>2021-09-12T09:44:46Z</time>
      </trkpt>
      <trkpt lat="48.43335" lon="-3.87812">
        <ele>249</ele>
        <time>2021-09-12T09:44:47Z</time>
      </trkpt>
      <trkpt lat="48.43341" lon="-3.87819">
        <ele>248.80000305176</ele>
        <time>2021-09-12T09:44:48Z</time>
      </trkpt>
      <trkpt lat="48.43347" lon="-3.87825">
        <ele>248.80000305176</ele>
        <time>2021-09-12T09:44:49Z</time>
      </trkpt>
      <trkpt lat="48.43353" lon="-3.87831">
        <ele>248.80000305176</ele>
        <time>2021-09-12T09:44:50Z</time>
      </trkpt>
      <trkpt lat="48.43359" lon="-3.87838">
        <ele>248.80000305176</ele>
        <time>2021-09-12T09:44:51Z</time>
      </trkpt>
      <trkpt lat="48.43365" lon="-3.87843">
        <ele>248.60000610352</ele>
        <time>2021-09-12T09:44:52Z</time>
      </trkpt>
      <trkpt lat="48.43371" lon="-3.87848">
        <ele>248.60000610352</ele>
        <time>2021-09-12T09:44:53Z</time>
      </trkpt>
      <trkpt lat="48.43376" lon="-3.87852">
        <ele>248.60000610352</ele>
        <time>2021-09-12T09:44:54Z</time>
      </trkpt>
      <trkpt lat="48.43382" lon="-3.87856">
        <ele>248.39999389648</ele>
        <time>2021-09-12T09:44:55Z</time>
      </trkpt>
      <trkpt lat="48.43387" lon="-3.87861">
        <ele>248.19999694824</ele>
        <time>2021-09-12T09:44:56Z</time>
      </trkpt>
      <trkpt lat="48.43392" lon="-3.87866">
        <ele>248.19999694824</ele>
        <time>2021-09-12T09:44:57Z</time>
      </trkpt>
      <trkpt lat="48.43398" lon="-3.8787">
        <ele>248.19999694824</ele>
        <time>2021-09-12T09:44:58Z</time>
      </trkpt>
      <trkpt lat="48.43403" lon="-3.87874">
        <ele>248</ele>
        <time>2021-09-12T09:44:59Z</time>
      </trkpt>
      <trkpt lat="48.43409" lon="-3.87878">
        <ele>248.19999694824</ele>
        <time>2021-09-12T09:45:00Z</time>
      </trkpt>
      <trkpt lat="48.43414" lon="-3.87882">
        <ele>248</ele>
        <time>2021-09-12T09:45:01Z</time>
      </trkpt>
      <trkpt lat="48.4342" lon="-3.87887">
        <ele>248</ele>
        <time>2021-09-12T09:45:02Z</time>
      </trkpt>
      <trkpt lat="48.43426" lon="-3.87892">
        <ele>248</ele>
        <time>2021-09-12T09:45:03Z</time>
      </trkpt>
      <trkpt lat="48.43432" lon="-3.87896">
        <ele>248</ele>
        <time>2021-09-12T09:45:04Z</time>
      </trkpt>
      <trkpt lat="48.43436" lon="-3.879">
        <ele>247.80000305176</ele>
        <time>2021-09-12T09:45:05Z</time>
      </trkpt>
      <trkpt lat="48.43441" lon="-3.87905">
        <ele>247.60000610352</ele>
        <time>2021-09-12T09:45:06Z</time>
      </trkpt>
      <trkpt lat="48.43447" lon="-3.8791">
        <ele>247.60000610352</ele>
        <time>2021-09-12T09:45:07Z</time>
      </trkpt>
      <trkpt lat="48.43454" lon="-3.87916">
        <ele>247.39999389648</ele>
        <time>2021-09-12T09:45:08Z</time>
      </trkpt>
      <trkpt lat="48.43461" lon="-3.8792">
        <ele>247.39999389648</ele>
        <time>2021-09-12T09:45:09Z</time>
      </trkpt>
      <trkpt lat="48.43467" lon="-3.87923">
        <ele>247.39999389648</ele>
        <time>2021-09-12T09:45:10Z</time>
      </trkpt>
      <trkpt lat="48.43474" lon="-3.87927">
        <ele>247.39999389648</ele>
        <time>2021-09-12T09:45:11Z</time>
      </trkpt>
      <trkpt lat="48.43481" lon="-3.8793">
        <ele>247.39999389648</ele>
        <time>2021-09-12T09:45:12Z</time>
      </trkpt>
      <trkpt lat="48.43487" lon="-3.87933">
        <ele>247.60000610352</ele>
        <time>2021-09-12T09:45:13Z</time>
      </trkpt>
      <trkpt lat="48.43493" lon="-3.87936">
        <ele>247.60000610352</ele>
        <time>2021-09-12T09:45:14Z</time>
      </trkpt>
      <trkpt lat="48.43499" lon="-3.87938">
        <ele>247.60000610352</ele>
        <time>2021-09-12T09:45:15Z</time>
      </trkpt>
      <trkpt lat="48.43504" lon="-3.8794">
        <ele>247.60000610352</ele>
        <time>2021-09-12T09:45:16Z</time>
      </trkpt>
      <trkpt lat="48.43511" lon="-3.87942">
        <ele>247.60000610352</ele>
        <time>2021-09-12T09:45:17Z</time>
      </trkpt>
      <trkpt lat="48.43518" lon="-3.87944">
        <ele>247.60000610352</ele>
        <time>2021-09-12T09:45:18Z</time>
      </trkpt>
      <trkpt lat="48.43524" lon="-3.87946">
        <ele>247.60000610352</ele>
        <time>2021-09-12T09:45:19Z</time>
      </trkpt>
      <trkpt lat="48.4353" lon="-3.87947">
        <ele>247.80000305176</ele>
        <time>2021-09-12T09:45:20Z</time>
      </trkpt>
      <trkpt lat="48.43534" lon="-3.87948">
        <ele>248</ele>
        <time>2021-09-12T09:45:21Z</time>
      </trkpt>
      <trkpt lat="48.43539" lon="-3.8795">
        <ele>248</ele>
        <time>2021-09-12T09:45:22Z</time>
      </trkpt>
      <trkpt lat="48.43546" lon="-3.87952">
        <ele>248</ele>
        <time>2021-09-12T09:45:23Z</time>
      </trkpt>
      <trkpt lat="48.43551" lon="-3.87953">
        <ele>248.19999694824</ele>
        <time>2021-09-12T09:45:24Z</time>
      </trkpt>
      <trkpt lat="48.43556" lon="-3.87955">
        <ele>248.19999694824</ele>
        <time>2021-09-12T09:45:25Z</time>
      </trkpt>
      <trkpt lat="48.4356" lon="-3.87956">
        <ele>248.19999694824</ele>
        <time>2021-09-12T09:45:26Z</time>
      </trkpt>
      <trkpt lat="48.43565" lon="-3.87957">
        <ele>248.19999694824</ele>
        <time>2021-09-12T09:45:27Z</time>
      </trkpt>
      <trkpt lat="48.43572" lon="-3.87958">
        <ele>248.19999694824</ele>
        <time>2021-09-12T09:45:28Z</time>
      </trkpt>
      <trkpt lat="48.43577" lon="-3.8796">
        <ele>248.19999694824</ele>
        <time>2021-09-12T09:45:29Z</time>
      </trkpt>
      <trkpt lat="48.43581" lon="-3.87961">
        <ele>248.19999694824</ele>
        <time>2021-09-12T09:45:30Z</time>
      </trkpt>
      <trkpt lat="48.43585" lon="-3.87962">
        <ele>248.19999694824</ele>
        <time>2021-09-12T09:45:31Z</time>
      </trkpt>
      <trkpt lat="48.4359" lon="-3.87964">
        <ele>248.19999694824</ele>
        <time>2021-09-12T09:45:32Z</time>
      </trkpt>
      <trkpt lat="48.43596" lon="-3.87966">
        <ele>248.19999694824</ele>
        <time>2021-09-12T09:45:33Z</time>
      </trkpt>
      <trkpt lat="48.43602" lon="-3.87967">
        <ele>248.19999694824</ele>
        <time>2021-09-12T09:45:34Z</time>
      </trkpt>
      <trkpt lat="48.43607" lon="-3.87967">
        <ele>248.19999694824</ele>
        <time>2021-09-12T09:45:35Z</time>
      </trkpt>
      <trkpt lat="48.43612" lon="-3.87968">
        <ele>248.19999694824</ele>
        <time>2021-09-12T09:45:36Z</time>
      </trkpt>
      <trkpt lat="48.43617" lon="-3.87969">
        <ele>248.19999694824</ele>
        <time>2021-09-12T09:45:37Z</time>
      </trkpt>
      <trkpt lat="48.43624" lon="-3.8797">
        <ele>248.19999694824</ele>
        <time>2021-09-12T09:45:38Z</time>
      </trkpt>
      <trkpt lat="48.4363" lon="-3.87971">
        <ele>248.19999694824</ele>
        <time>2021-09-12T09:45:39Z</time>
      </trkpt>
      <trkpt lat="48.43636" lon="-3.87972">
        <ele>248</ele>
        <time>2021-09-12T09:45:40Z</time>
      </trkpt>
      <trkpt lat="48.43642" lon="-3.87973">
        <ele>248</ele>
        <time>2021-09-12T09:45:41Z</time>
      </trkpt>
      <trkpt lat="48.43647" lon="-3.87974">
        <ele>248</ele>
        <time>2021-09-12T09:45:42Z</time>
      </trkpt>
      <trkpt lat="48.43654" lon="-3.87975">
        <ele>248</ele>
        <time>2021-09-12T09:45:43Z</time>
      </trkpt>
      <trkpt lat="48.43659" lon="-3.87976">
        <ele>248</ele>
        <time>2021-09-12T09:45:44Z</time>
      </trkpt>
      <trkpt lat="48.43665" lon="-3.87977">
        <ele>247.80000305176</ele>
        <time>2021-09-12T09:45:45Z</time>
      </trkpt>
      <trkpt lat="48.4367" lon="-3.87978">
        <ele>247.80000305176</ele>
        <time>2021-09-12T09:45:46Z</time>
      </trkpt>
      <trkpt lat="48.43677" lon="-3.87978">
        <ele>247.80000305176</ele>
        <time>2021-09-12T09:45:47Z</time>
      </trkpt>
      <trkpt lat="48.43683" lon="-3.87977">
        <ele>247.80000305176</ele>
        <time>2021-09-12T09:45:48Z</time>
      </trkpt>
      <trkpt lat="48.43688" lon="-3.87976">
        <ele>247.80000305176</ele>
        <time>2021-09-12T09:45:49Z</time>
      </trkpt>
      <trkpt lat="48.43693" lon="-3.87975">
        <ele>247.80000305176</ele>
        <time>2021-09-12T09:45:50Z</time>
      </trkpt>
      <trkpt lat="48.43698" lon="-3.87975">
        <ele>247.80000305176</ele>
        <time>2021-09-12T09:45:51Z</time>
      </trkpt>
      <trkpt lat="48.43705" lon="-3.87975">
        <ele>247.80000305176</ele>
        <time>2021-09-12T09:45:52Z</time>
      </trkpt>
      <trkpt lat="48.4371" lon="-3.87975">
        <ele>247.60000610352</ele>
        <time>2021-09-12T09:45:53Z</time>
      </trkpt>
      <trkpt lat="48.43715" lon="-3.87974">
        <ele>247.60000610352</ele>
        <time>2021-09-12T09:45:54Z</time>
      </trkpt>
      <trkpt lat="48.4372" lon="-3.87973">
        <ele>247.39999389648</ele>
        <time>2021-09-12T09:45:55Z</time>
      </trkpt>
      <trkpt lat="48.43726" lon="-3.87971">
        <ele>247.19999694824</ele>
        <time>2021-09-12T09:45:56Z</time>
      </trkpt>
      <trkpt lat="48.43735" lon="-3.87968">
        <ele>247</ele>
        <time>2021-09-12T09:45:57Z</time>
      </trkpt>
      <trkpt lat="48.43742" lon="-3.87965">
        <ele>246.39999389648</ele>
        <time>2021-09-12T09:45:58Z</time>
      </trkpt>
      <trkpt lat="48.43749" lon="-3.87962">
        <ele>246.39999389648</ele>
        <time>2021-09-12T09:45:59Z</time>
      </trkpt>
      <trkpt lat="48.43756" lon="-3.87958">
        <ele>246.39999389648</ele>
        <time>2021-09-12T09:46:00Z</time>
      </trkpt>
      <trkpt lat="48.43762" lon="-3.87955">
        <ele>246.39999389648</ele>
        <time>2021-09-12T09:46:01Z</time>
      </trkpt>
      <trkpt lat="48.43769" lon="-3.87952">
        <ele>246.39999389648</ele>
        <time>2021-09-12T09:46:02Z</time>
      </trkpt>
      <trkpt lat="48.43774" lon="-3.87948">
        <ele>246</ele>
        <time>2021-09-12T09:46:03Z</time>
      </trkpt>
      <trkpt lat="48.43779" lon="-3.87945">
        <ele>246</ele>
        <time>2021-09-12T09:46:04Z</time>
      </trkpt>
      <trkpt lat="48.43784" lon="-3.87943">
        <ele>246</ele>
        <time>2021-09-12T09:46:05Z</time>
      </trkpt>
      <trkpt lat="48.43788" lon="-3.87941">
        <ele>246</ele>
        <time>2021-09-12T09:46:06Z</time>
      </trkpt>
      <trkpt lat="48.43795" lon="-3.87936">
        <ele>246</ele>
        <time>2021-09-12T09:46:07Z</time>
      </trkpt>
      <trkpt lat="48.43802" lon="-3.87933">
        <ele>246</ele>
        <time>2021-09-12T09:46:08Z</time>
      </trkpt>
      <trkpt lat="48.43808" lon="-3.87933">
        <ele>246</ele>
        <time>2021-09-12T09:46:09Z</time>
      </trkpt>
      <trkpt lat="48.43813" lon="-3.87932">
        <ele>246</ele>
        <time>2021-09-12T09:46:10Z</time>
      </trkpt>
      <trkpt lat="48.4382" lon="-3.87929">
        <ele>246</ele>
        <time>2021-09-12T09:46:11Z</time>
      </trkpt>
      <trkpt lat="48.43827" lon="-3.87927">
        <ele>246</ele>
        <time>2021-09-12T09:46:12Z</time>
      </trkpt>
      <trkpt lat="48.43832" lon="-3.87928">
        <ele>246</ele>
        <time>2021-09-12T09:46:13Z</time>
      </trkpt>
      <trkpt lat="48.43837" lon="-3.87931">
        <ele>246</ele>
        <time>2021-09-12T09:46:14Z</time>
      </trkpt>
      <trkpt lat="48.43841" lon="-3.87935">
        <ele>245.80000305176</ele>
        <time>2021-09-12T09:46:15Z</time>
      </trkpt>
      <trkpt lat="48.43845" lon="-3.87942">
        <ele>245.80000305176</ele>
        <time>2021-09-12T09:46:16Z</time>
      </trkpt>
      <trkpt lat="48.43848" lon="-3.8795">
        <ele>245.60000610352</ele>
        <time>2021-09-12T09:46:17Z</time>
      </trkpt>
      <trkpt lat="48.4385" lon="-3.87957">
        <ele>245.60000610352</ele>
        <time>2021-09-12T09:46:18Z</time>
      </trkpt>
      <trkpt lat="48.43852" lon="-3.87966">
        <ele>245.60000610352</ele>
        <time>2021-09-12T09:46:19Z</time>
      </trkpt>
      <trkpt lat="48.43851" lon="-3.87973">
        <ele>245.80000305176</ele>
        <time>2021-09-12T09:46:20Z</time>
      </trkpt>
      <trkpt lat="48.4385" lon="-3.87981">
        <ele>245.80000305176</ele>
        <time>2021-09-12T09:46:21Z</time>
      </trkpt>
      <trkpt lat="48.43848" lon="-3.8799">
        <ele>245.80000305176</ele>
        <time>2021-09-12T09:46:22Z</time>
      </trkpt>
      <trkpt lat="48.43846" lon="-3.87996">
        <ele>246.19999694824</ele>
        <time>2021-09-12T09:46:23Z</time>
      </trkpt>
      <trkpt lat="48.43845" lon="-3.88002">
        <ele>246.39999389648</ele>
        <time>2021-09-12T09:46:24Z</time>
      </trkpt>
      <trkpt lat="48.43843" lon="-3.88008">
        <ele>246.60000610352</ele>
        <time>2021-09-12T09:46:25Z</time>
      </trkpt>
      <trkpt lat="48.43841" lon="-3.88014">
        <ele>246.60000610352</ele>
        <time>2021-09-12T09:46:26Z</time>
      </trkpt>
      <trkpt lat="48.43839" lon="-3.8802">
        <ele>246.60000610352</ele>
        <time>2021-09-12T09:46:27Z</time>
      </trkpt>
      <trkpt lat="48.43836" lon="-3.88026">
        <ele>246.60000610352</ele>
        <time>2021-09-12T09:46:28Z</time>
      </trkpt>
      <trkpt lat="48.43833" lon="-3.88031">
        <ele>246.60000610352</ele>
        <time>2021-09-12T09:46:29Z</time>
      </trkpt>
      <trkpt lat="48.43832" lon="-3.88036">
        <ele>246.60000610352</ele>
        <time>2021-09-12T09:46:30Z</time>
      </trkpt>
      <trkpt lat="48.43829" lon="-3.88041">
        <ele>246.39999389648</ele>
        <time>2021-09-12T09:46:31Z</time>
      </trkpt>
      <trkpt lat="48.43826" lon="-3.88047">
        <ele>246.39999389648</ele>
        <time>2021-09-12T09:46:32Z</time>
      </trkpt>
      <trkpt lat="48.43824" lon="-3.88052">
        <ele>246.39999389648</ele>
        <time>2021-09-12T09:46:33Z</time>
      </trkpt>
      <trkpt lat="48.43823" lon="-3.88058">
        <ele>246.39999389648</ele>
        <time>2021-09-12T09:46:34Z</time>
      </trkpt>
      <trkpt lat="48.43823" lon="-3.88063">
        <ele>246.39999389648</ele>
        <time>2021-09-12T09:46:35Z</time>
      </trkpt>
      <trkpt lat="48.43825" lon="-3.88069">
        <ele>246.39999389648</ele>
        <time>2021-09-12T09:46:36Z</time>
      </trkpt>
      <trkpt lat="48.43827" lon="-3.88076">
        <ele>246.39999389648</ele>
        <time>2021-09-12T09:46:37Z</time>
      </trkpt>
      <trkpt lat="48.4383" lon="-3.88082">
        <ele>246.39999389648</ele>
        <time>2021-09-12T09:46:38Z</time>
      </trkpt>
      <trkpt lat="48.43833" lon="-3.88088">
        <ele>246.60000610352</ele>
        <time>2021-09-12T09:46:39Z</time>
      </trkpt>
      <trkpt lat="48.43835" lon="-3.88094">
        <ele>246.60000610352</ele>
        <time>2021-09-12T09:46:40Z</time>
      </trkpt>
      <trkpt lat="48.43836" lon="-3.88099">
        <ele>246.60000610352</ele>
        <time>2021-09-12T09:46:41Z</time>
      </trkpt>
      <trkpt lat="48.43838" lon="-3.88107">
        <ele>246.80000305176</ele>
        <time>2021-09-12T09:46:42Z</time>
      </trkpt>
      <trkpt lat="48.43839" lon="-3.88114">
        <ele>247</ele>
        <time>2021-09-12T09:46:43Z</time>
      </trkpt>
      <trkpt lat="48.4384" lon="-3.88119">
        <ele>247.19999694824</ele>
        <time>2021-09-12T09:46:44Z</time>
      </trkpt>
      <trkpt lat="48.43841" lon="-3.88127">
        <ele>247.19999694824</ele>
        <time>2021-09-12T09:46:45Z</time>
      </trkpt>
      <trkpt lat="48.43842" lon="-3.88135">
        <ele>247.19999694824</ele>
        <time>2021-09-12T09:46:46Z</time>
      </trkpt>
      <trkpt lat="48.43843" lon="-3.88142">
        <ele>247.60000610352</ele>
        <time>2021-09-12T09:46:47Z</time>
      </trkpt>
      <trkpt lat="48.43844" lon="-3.88148">
        <ele>247.60000610352</ele>
        <time>2021-09-12T09:46:48Z</time>
      </trkpt>
      <trkpt lat="48.43844" lon="-3.88154">
        <ele>248</ele>
        <time>2021-09-12T09:46:49Z</time>
      </trkpt>
      <trkpt lat="48.43845" lon="-3.8816">
        <ele>248.19999694824</ele>
        <time>2021-09-12T09:46:50Z</time>
      </trkpt>
      <trkpt lat="48.43846" lon="-3.88168">
        <ele>248.19999694824</ele>
        <time>2021-09-12T09:46:51Z</time>
      </trkpt>
      <trkpt lat="48.43847" lon="-3.88174">
        <ele>248.39999389648</ele>
        <time>2021-09-12T09:46:52Z</time>
      </trkpt>
      <trkpt lat="48.43847" lon="-3.8818">
        <ele>248.60000610352</ele>
        <time>2021-09-12T09:46:53Z</time>
      </trkpt>
      <trkpt lat="48.43847" lon="-3.88187">
        <ele>248.80000305176</ele>
        <time>2021-09-12T09:46:54Z</time>
      </trkpt>
      <trkpt lat="48.43847" lon="-3.88193">
        <ele>249</ele>
        <time>2021-09-12T09:46:55Z</time>
      </trkpt>
      <trkpt lat="48.43848" lon="-3.88201">
        <ele>249.19999694824</ele>
        <time>2021-09-12T09:46:56Z</time>
      </trkpt>
      <trkpt lat="48.43848" lon="-3.88208">
        <ele>249.19999694824</ele>
        <time>2021-09-12T09:46:57Z</time>
      </trkpt>
      <trkpt lat="48.43848" lon="-3.88213">
        <ele>249.39999389648</ele>
        <time>2021-09-12T09:46:58Z</time>
      </trkpt>
      <trkpt lat="48.43849" lon="-3.8822">
        <ele>249.39999389648</ele>
        <time>2021-09-12T09:46:59Z</time>
      </trkpt>
      <trkpt lat="48.43849" lon="-3.88227">
        <ele>249.39999389648</ele>
        <time>2021-09-12T09:47:00Z</time>
      </trkpt>
      <trkpt lat="48.4385" lon="-3.88235">
        <ele>249.39999389648</ele>
        <time>2021-09-12T09:47:01Z</time>
      </trkpt>
      <trkpt lat="48.4385" lon="-3.88242">
        <ele>249.60000610352</ele>
        <time>2021-09-12T09:47:02Z</time>
      </trkpt>
      <trkpt lat="48.43851" lon="-3.88249">
        <ele>249.60000610352</ele>
        <time>2021-09-12T09:47:03Z</time>
      </trkpt>
      <trkpt lat="48.43851" lon="-3.88256">
        <ele>249.60000610352</ele>
        <time>2021-09-12T09:47:04Z</time>
      </trkpt>
      <trkpt lat="48.43852" lon="-3.88264">
        <ele>249.60000610352</ele>
        <time>2021-09-12T09:47:05Z</time>
      </trkpt>
      <trkpt lat="48.43852" lon="-3.88271">
        <ele>249.60000610352</ele>
        <time>2021-09-12T09:47:06Z</time>
      </trkpt>
      <trkpt lat="48.43853" lon="-3.88279">
        <ele>249.60000610352</ele>
        <time>2021-09-12T09:47:07Z</time>
      </trkpt>
      <trkpt lat="48.43853" lon="-3.88286">
        <ele>249.39999389648</ele>
        <time>2021-09-12T09:47:08Z</time>
      </trkpt>
      <trkpt lat="48.43854" lon="-3.88292">
        <ele>249.19999694824</ele>
        <time>2021-09-12T09:47:09Z</time>
      </trkpt>
      <trkpt lat="48.43856" lon="-3.88301">
        <ele>249.19999694824</ele>
        <time>2021-09-12T09:47:10Z</time>
      </trkpt>
      <trkpt lat="48.43859" lon="-3.88308">
        <ele>249.19999694824</ele>
        <time>2021-09-12T09:47:11Z</time>
      </trkpt>
      <trkpt lat="48.43861" lon="-3.88316">
        <ele>249.19999694824</ele>
        <time>2021-09-12T09:47:12Z</time>
      </trkpt>
      <trkpt lat="48.43864" lon="-3.88323">
        <ele>249.19999694824</ele>
        <time>2021-09-12T09:47:13Z</time>
      </trkpt>
      <trkpt lat="48.43867" lon="-3.88328">
        <ele>249.19999694824</ele>
        <time>2021-09-12T09:47:14Z</time>
      </trkpt>
      <trkpt lat="48.43871" lon="-3.88335">
        <ele>249.19999694824</ele>
        <time>2021-09-12T09:47:15Z</time>
      </trkpt>
      <trkpt lat="48.43876" lon="-3.8834">
        <ele>249.19999694824</ele>
        <time>2021-09-12T09:47:16Z</time>
      </trkpt>
      <trkpt lat="48.43879" lon="-3.88343">
        <ele>249.19999694824</ele>
        <time>2021-09-12T09:47:17Z</time>
      </trkpt>
      <trkpt lat="48.43884" lon="-3.88347">
        <ele>249.19999694824</ele>
        <time>2021-09-12T09:47:18Z</time>
      </trkpt>
      <trkpt lat="48.43888" lon="-3.8835">
        <ele>249.19999694824</ele>
        <time>2021-09-12T09:47:19Z</time>
      </trkpt>
      <trkpt lat="48.43894" lon="-3.88353">
        <ele>249.19999694824</ele>
        <time>2021-09-12T09:47:20Z</time>
      </trkpt>
      <trkpt lat="48.43899" lon="-3.88355">
        <ele>249.60000610352</ele>
        <time>2021-09-12T09:47:21Z</time>
      </trkpt>
      <trkpt lat="48.43904" lon="-3.88357">
        <ele>249.60000610352</ele>
        <time>2021-09-12T09:47:22Z</time>
      </trkpt>
      <trkpt lat="48.43908" lon="-3.88357">
        <ele>249.60000610352</ele>
        <time>2021-09-12T09:47:23Z</time>
      </trkpt>
      <trkpt lat="48.43915" lon="-3.88359">
        <ele>250</ele>
        <time>2021-09-12T09:47:24Z</time>
      </trkpt>
      <trkpt lat="48.4392" lon="-3.88359">
        <ele>250</ele>
        <time>2021-09-12T09:47:25Z</time>
      </trkpt>
      <trkpt lat="48.43925" lon="-3.88359">
        <ele>250.19999694824</ele>
        <time>2021-09-12T09:47:26Z</time>
      </trkpt>
      <trkpt lat="48.4393" lon="-3.88359">
        <ele>250.60000610352</ele>
        <time>2021-09-12T09:47:27Z</time>
      </trkpt>
      <trkpt lat="48.43935" lon="-3.88359">
        <ele>250.80000305176</ele>
        <time>2021-09-12T09:47:28Z</time>
      </trkpt>
      <trkpt lat="48.4394" lon="-3.8836">
        <ele>251</ele>
        <time>2021-09-12T09:47:29Z</time>
      </trkpt>
      <trkpt lat="48.43945" lon="-3.8836">
        <ele>251</ele>
        <time>2021-09-12T09:47:30Z</time>
      </trkpt>
      <trkpt lat="48.43949" lon="-3.8836">
        <ele>251.19999694824</ele>
        <time>2021-09-12T09:47:31Z</time>
      </trkpt>
      <trkpt lat="48.43953" lon="-3.88361">
        <ele>251.39999389648</ele>
        <time>2021-09-12T09:47:32Z</time>
      </trkpt>
      <trkpt lat="48.43959" lon="-3.88361">
        <ele>251.39999389648</ele>
        <time>2021-09-12T09:47:33Z</time>
      </trkpt>
      <trkpt lat="48.43964" lon="-3.88361">
        <ele>251.60000610352</ele>
        <time>2021-09-12T09:47:34Z</time>
      </trkpt>
      <trkpt lat="48.43968" lon="-3.88362">
        <ele>251.80000305176</ele>
        <time>2021-09-12T09:47:35Z</time>
      </trkpt>
      <trkpt lat="48.43973" lon="-3.88363">
        <ele>252</ele>
        <time>2021-09-12T09:47:36Z</time>
      </trkpt>
      <trkpt lat="48.43977" lon="-3.88363">
        <ele>252</ele>
        <time>2021-09-12T09:47:37Z</time>
      </trkpt>
      <trkpt lat="48.43981" lon="-3.88363">
        <ele>252.60000610352</ele>
        <time>2021-09-12T09:47:38Z</time>
      </trkpt>
      <trkpt lat="48.43986" lon="-3.88364">
        <ele>252.60000610352</ele>
        <time>2021-09-12T09:47:39Z</time>
      </trkpt>
      <trkpt lat="48.4399" lon="-3.88364">
        <ele>252.80000305176</ele>
        <time>2021-09-12T09:47:40Z</time>
      </trkpt>
      <trkpt lat="48.43994" lon="-3.88365">
        <ele>253</ele>
        <time>2021-09-12T09:47:41Z</time>
      </trkpt>
      <trkpt lat="48.43998" lon="-3.88367">
        <ele>253.39999389648</ele>
        <time>2021-09-12T09:47:42Z</time>
      </trkpt>
      <trkpt lat="48.44002" lon="-3.88368">
        <ele>253.60000610352</ele>
        <time>2021-09-12T09:47:43Z</time>
      </trkpt>
      <trkpt lat="48.44006" lon="-3.8837">
        <ele>253.60000610352</ele>
        <time>2021-09-12T09:47:44Z</time>
      </trkpt>
      <trkpt lat="48.4401" lon="-3.88372">
        <ele>254</ele>
        <time>2021-09-12T09:47:45Z</time>
      </trkpt>
      <trkpt lat="48.44014" lon="-3.88373">
        <ele>254.39999389648</ele>
        <time>2021-09-12T09:47:46Z</time>
      </trkpt>
      <trkpt lat="48.44017" lon="-3.88376">
        <ele>254.39999389648</ele>
        <time>2021-09-12T09:47:47Z</time>
      </trkpt>
      <trkpt lat="48.44021" lon="-3.88378">
        <ele>254.39999389648</ele>
        <time>2021-09-12T09:47:48Z</time>
      </trkpt>
      <trkpt lat="48.44025" lon="-3.88381">
        <ele>254.60000610352</ele>
        <time>2021-09-12T09:47:49Z</time>
      </trkpt>
      <trkpt lat="48.44029" lon="-3.88384">
        <ele>254.60000610352</ele>
        <time>2021-09-12T09:47:50Z</time>
      </trkpt>
      <trkpt lat="48.44033" lon="-3.88388">
        <ele>254.80000305176</ele>
        <time>2021-09-12T09:47:51Z</time>
      </trkpt>
      <trkpt lat="48.44036" lon="-3.88391">
        <ele>254.80000305176</ele>
        <time>2021-09-12T09:47:52Z</time>
      </trkpt>
      <trkpt lat="48.44041" lon="-3.88396">
        <ele>254.80000305176</ele>
        <time>2021-09-12T09:47:53Z</time>
      </trkpt>
      <trkpt lat="48.44046" lon="-3.88401">
        <ele>254.80000305176</ele>
        <time>2021-09-12T09:47:54Z</time>
      </trkpt>
      <trkpt lat="48.4405" lon="-3.88405">
        <ele>254.80000305176</ele>
        <time>2021-09-12T09:47:55Z</time>
      </trkpt>
      <trkpt lat="48.44055" lon="-3.8841">
        <ele>254.80000305176</ele>
        <time>2021-09-12T09:47:56Z</time>
      </trkpt>
      <trkpt lat="48.4406" lon="-3.88414">
        <ele>254.80000305176</ele>
        <time>2021-09-12T09:47:57Z</time>
      </trkpt>
      <trkpt lat="48.44064" lon="-3.88418">
        <ele>254.60000610352</ele>
        <time>2021-09-12T09:47:58Z</time>
      </trkpt>
      <trkpt lat="48.44069" lon="-3.88422">
        <ele>254.60000610352</ele>
        <time>2021-09-12T09:47:59Z</time>
      </trkpt>
      <trkpt lat="48.44074" lon="-3.88425">
        <ele>254.60000610352</ele>
        <time>2021-09-12T09:48:00Z</time>
      </trkpt>
      <trkpt lat="48.44079" lon="-3.88428">
        <ele>254.60000610352</ele>
        <time>2021-09-12T09:48:01Z</time>
      </trkpt>
      <trkpt lat="48.44083" lon="-3.88432">
        <ele>254.39999389648</ele>
        <time>2021-09-12T09:48:02Z</time>
      </trkpt>
      <trkpt lat="48.44088" lon="-3.88434">
        <ele>254.39999389648</ele>
        <time>2021-09-12T09:48:03Z</time>
      </trkpt>
      <trkpt lat="48.44093" lon="-3.88437">
        <ele>254.39999389648</ele>
        <time>2021-09-12T09:48:04Z</time>
      </trkpt>
      <trkpt lat="48.44098" lon="-3.8844">
        <ele>254.19999694824</ele>
        <time>2021-09-12T09:48:05Z</time>
      </trkpt>
      <trkpt lat="48.44102" lon="-3.88442">
        <ele>254.19999694824</ele>
        <time>2021-09-12T09:48:06Z</time>
      </trkpt>
      <trkpt lat="48.44106" lon="-3.88443">
        <ele>254.19999694824</ele>
        <time>2021-09-12T09:48:07Z</time>
      </trkpt>
      <trkpt lat="48.44111" lon="-3.88447">
        <ele>254.19999694824</ele>
        <time>2021-09-12T09:48:08Z</time>
      </trkpt>
      <trkpt lat="48.44114" lon="-3.88452">
        <ele>254.19999694824</ele>
        <time>2021-09-12T09:48:09Z</time>
      </trkpt>
      <trkpt lat="48.44115" lon="-3.88459">
        <ele>253.80000305176</ele>
        <time>2021-09-12T09:48:10Z</time>
      </trkpt>
      <trkpt lat="48.44115" lon="-3.88466">
        <ele>253.80000305176</ele>
        <time>2021-09-12T09:48:11Z</time>
      </trkpt>
      <trkpt lat="48.44114" lon="-3.88472">
        <ele>253.60000610352</ele>
        <time>2021-09-12T09:48:12Z</time>
      </trkpt>
      <trkpt lat="48.44113" lon="-3.8848">
        <ele>253.60000610352</ele>
        <time>2021-09-12T09:48:13Z</time>
      </trkpt>
      <trkpt lat="48.44111" lon="-3.8849">
        <ele>253.19999694824</ele>
        <time>2021-09-12T09:48:14Z</time>
      </trkpt>
      <trkpt lat="48.44109" lon="-3.88498">
        <ele>252.60000610352</ele>
        <time>2021-09-12T09:48:15Z</time>
      </trkpt>
      <trkpt lat="48.44107" lon="-3.88507">
        <ele>252.60000610352</ele>
        <time>2021-09-12T09:48:16Z</time>
      </trkpt>
      <trkpt lat="48.44106" lon="-3.88515">
        <ele>252.39999389648</ele>
        <time>2021-09-12T09:48:17Z</time>
      </trkpt>
      <trkpt lat="48.44103" lon="-3.88524">
        <ele>252.19999694824</ele>
        <time>2021-09-12T09:48:18Z</time>
      </trkpt>
      <trkpt lat="48.44099" lon="-3.88535">
        <ele>252</ele>
        <time>2021-09-12T09:48:19Z</time>
      </trkpt>
      <trkpt lat="48.44096" lon="-3.88544">
        <ele>251.80000305176</ele>
        <time>2021-09-12T09:48:20Z</time>
      </trkpt>
      <trkpt lat="48.44092" lon="-3.88552">
        <ele>251.39999389648</ele>
        <time>2021-09-12T09:48:21Z</time>
      </trkpt>
      <trkpt lat="48.44089" lon="-3.88559">
        <ele>251.39999389648</ele>
        <time>2021-09-12T09:48:22Z</time>
      </trkpt>
      <trkpt lat="48.44085" lon="-3.88568">
        <ele>251.39999389648</ele>
        <time>2021-09-12T09:48:23Z</time>
      </trkpt>
      <trkpt lat="48.44081" lon="-3.88578">
        <ele>251.39999389648</ele>
        <time>2021-09-12T09:48:24Z</time>
      </trkpt>
      <trkpt lat="48.44078" lon="-3.88587">
        <ele>251.39999389648</ele>
        <time>2021-09-12T09:48:25Z</time>
      </trkpt>
      <trkpt lat="48.44074" lon="-3.88595">
        <ele>251.19999694824</ele>
        <time>2021-09-12T09:48:26Z</time>
      </trkpt>
      <trkpt lat="48.44072" lon="-3.88602">
        <ele>251.39999389648</ele>
        <time>2021-09-12T09:48:27Z</time>
      </trkpt>
      <trkpt lat="48.44069" lon="-3.8861">
        <ele>251.19999694824</ele>
        <time>2021-09-12T09:48:28Z</time>
      </trkpt>
      <trkpt lat="48.44064" lon="-3.88619">
        <ele>251</ele>
        <time>2021-09-12T09:48:29Z</time>
      </trkpt>
      <trkpt lat="48.44061" lon="-3.88627">
        <ele>250.80000305176</ele>
        <time>2021-09-12T09:48:30Z</time>
      </trkpt>
      <trkpt lat="48.44057" lon="-3.88635">
        <ele>250.80000305176</ele>
        <time>2021-09-12T09:48:31Z</time>
      </trkpt>
      <trkpt lat="48.44054" lon="-3.88642">
        <ele>250.80000305176</ele>
        <time>2021-09-12T09:48:32Z</time>
      </trkpt>
      <trkpt lat="48.44051" lon="-3.88651">
        <ele>250.80000305176</ele>
        <time>2021-09-12T09:48:33Z</time>
      </trkpt>
      <trkpt lat="48.44047" lon="-3.88661">
        <ele>250.39999389648</ele>
        <time>2021-09-12T09:48:34Z</time>
      </trkpt>
      <trkpt lat="48.44043" lon="-3.8867">
        <ele>250.39999389648</ele>
        <time>2021-09-12T09:48:35Z</time>
      </trkpt>
      <trkpt lat="48.44039" lon="-3.88678">
        <ele>250.39999389648</ele>
        <time>2021-09-12T09:48:36Z</time>
      </trkpt>
      <trkpt lat="48.44037" lon="-3.88684">
        <ele>250.19999694824</ele>
        <time>2021-09-12T09:48:37Z</time>
      </trkpt>
      <trkpt lat="48.44033" lon="-3.88692">
        <ele>250</ele>
        <time>2021-09-12T09:48:38Z</time>
      </trkpt>
      <trkpt lat="48.4403" lon="-3.887">
        <ele>250</ele>
        <time>2021-09-12T09:48:39Z</time>
      </trkpt>
      <trkpt lat="48.44026" lon="-3.88709">
        <ele>250</ele>
        <time>2021-09-12T09:48:40Z</time>
      </trkpt>
      <trkpt lat="48.44023" lon="-3.88718">
        <ele>249.80000305176</ele>
        <time>2021-09-12T09:48:41Z</time>
      </trkpt>
      <trkpt lat="48.4402" lon="-3.88724">
        <ele>249.60000610352</ele>
        <time>2021-09-12T09:48:42Z</time>
      </trkpt>
      <trkpt lat="48.44016" lon="-3.88733">
        <ele>249.60000610352</ele>
        <time>2021-09-12T09:48:43Z</time>
      </trkpt>
      <trkpt lat="48.44013" lon="-3.88741">
        <ele>249.39999389648</ele>
        <time>2021-09-12T09:48:44Z</time>
      </trkpt>
      <trkpt lat="48.44008" lon="-3.88751">
        <ele>249.19999694824</ele>
        <time>2021-09-12T09:48:45Z</time>
      </trkpt>
      <trkpt lat="48.44004" lon="-3.88757">
        <ele>249</ele>
        <time>2021-09-12T09:48:46Z</time>
      </trkpt>
      <trkpt lat="48.44" lon="-3.88761">
        <ele>248.80000305176</ele>
        <time>2021-09-12T09:48:47Z</time>
      </trkpt>
      <trkpt lat="48.43995" lon="-3.88763">
        <ele>248.80000305176</ele>
        <time>2021-09-12T09:48:48Z</time>
      </trkpt>
      <trkpt lat="48.43992" lon="-3.88761">
        <ele>248.60000610352</ele>
        <time>2021-09-12T09:48:49Z</time>
      </trkpt>
      <trkpt lat="48.43986" lon="-3.88756">
        <ele>248.19999694824</ele>
        <time>2021-09-12T09:48:50Z</time>
      </trkpt>
      <trkpt lat="48.43981" lon="-3.88751">
        <ele>247.80000305176</ele>
        <time>2021-09-12T09:48:51Z</time>
      </trkpt>
      <trkpt lat="48.43977" lon="-3.88747">
        <ele>247.60000610352</ele>
        <time>2021-09-12T09:48:52Z</time>
      </trkpt>
      <trkpt lat="48.43972" lon="-3.88743">
        <ele>246.60000610352</ele>
        <time>2021-09-12T09:48:53Z</time>
      </trkpt>
      <trkpt lat="48.43967" lon="-3.88738">
        <ele>246.19999694824</ele>
        <time>2021-09-12T09:48:54Z</time>
      </trkpt>
      <trkpt lat="48.43964" lon="-3.88735">
        <ele>246</ele>
        <time>2021-09-12T09:48:55Z</time>
      </trkpt>
      <trkpt lat="48.43961" lon="-3.88732">
        <ele>245.60000610352</ele>
        <time>2021-09-12T09:48:56Z</time>
      </trkpt>
      <trkpt lat="48.4396" lon="-3.88729">
        <ele>245</ele>
        <time>2021-09-12T09:48:57Z</time>
      </trkpt>
      <trkpt lat="48.43959" lon="-3.88725">
        <ele>244.80000305176</ele>
        <time>2021-09-12T09:48:58Z</time>
      </trkpt>
      <trkpt lat="48.43958" lon="-3.88722">
        <ele>244.80000305176</ele>
        <time>2021-09-12T09:48:59Z</time>
      </trkpt>
      <trkpt lat="48.43958" lon="-3.88718">
        <ele>244.60000610352</ele>
        <time>2021-09-12T09:49:00Z</time>
      </trkpt>
      <trkpt lat="48.43958" lon="-3.88714">
        <ele>244.60000610352</ele>
        <time>2021-09-12T09:49:01Z</time>
      </trkpt>
      <trkpt lat="48.43958" lon="-3.88711">
        <ele>244.60000610352</ele>
        <time>2021-09-12T09:49:02Z</time>
      </trkpt>
      <trkpt lat="48.43958" lon="-3.88708">
        <ele>244.39999389648</ele>
        <time>2021-09-12T09:49:03Z</time>
      </trkpt>
      <trkpt lat="48.43958" lon="-3.88707">
        <ele>244.19999694824</ele>
        <time>2021-09-12T09:49:04Z</time>
      </trkpt>
      <trkpt lat="48.43958" lon="-3.88707">
        <ele>244</ele>
        <time>2021-09-12T09:49:05Z</time>
      </trkpt>
      <trkpt lat="48.43958" lon="-3.88707">
        <ele>244</ele>
        <time>2021-09-12T09:49:06Z</time>
      </trkpt>
      <trkpt lat="48.4395" lon="-3.88716">
        <ele>244.19999694824</ele>
        <time>2021-09-12T09:52:42Z</time>
      </trkpt>
      <trkpt lat="48.43948" lon="-3.88714">
        <ele>244.19999694824</ele>
        <time>2021-09-12T09:52:43Z</time>
      </trkpt>
      <trkpt lat="48.43946" lon="-3.88713">
        <ele>244.19999694824</ele>
        <time>2021-09-12T09:52:44Z</time>
      </trkpt>
      <trkpt lat="48.43944" lon="-3.88712">
        <ele>244.19999694824</ele>
        <time>2021-09-12T09:52:45Z</time>
      </trkpt>
      <trkpt lat="48.43942" lon="-3.8871">
        <ele>244.19999694824</ele>
        <time>2021-09-12T09:52:46Z</time>
      </trkpt>
      <trkpt lat="48.43939" lon="-3.88707">
        <ele>244.19999694824</ele>
        <time>2021-09-12T09:52:47Z</time>
      </trkpt>
      <trkpt lat="48.43936" lon="-3.88705">
        <ele>244</ele>
        <time>2021-09-12T09:52:48Z</time>
      </trkpt>
      <trkpt lat="48.43933" lon="-3.88702">
        <ele>243.60000610352</ele>
        <time>2021-09-12T09:52:49Z</time>
      </trkpt>
      <trkpt lat="48.43931" lon="-3.88699">
        <ele>243.39999389648</ele>
        <time>2021-09-12T09:52:50Z</time>
      </trkpt>
      <trkpt lat="48.43928" lon="-3.88696">
        <ele>243.19999694824</ele>
        <time>2021-09-12T09:52:51Z</time>
      </trkpt>
      <trkpt lat="48.43924" lon="-3.88692">
        <ele>243.19999694824</ele>
        <time>2021-09-12T09:52:52Z</time>
      </trkpt>
      <trkpt lat="48.43921" lon="-3.88688">
        <ele>243</ele>
        <time>2021-09-12T09:52:53Z</time>
      </trkpt>
      <trkpt lat="48.43918" lon="-3.88685">
        <ele>243</ele>
        <time>2021-09-12T09:52:54Z</time>
      </trkpt>
      <trkpt lat="48.43915" lon="-3.88681">
        <ele>242.80000305176</ele>
        <time>2021-09-12T09:52:55Z</time>
      </trkpt>
      <trkpt lat="48.43911" lon="-3.88678">
        <ele>242.60000610352</ele>
        <time>2021-09-12T09:52:56Z</time>
      </trkpt>
      <trkpt lat="48.43907" lon="-3.88673">
        <ele>242.39999389648</ele>
        <time>2021-09-12T09:52:57Z</time>
      </trkpt>
      <trkpt lat="48.43904" lon="-3.88669">
        <ele>242.39999389648</ele>
        <time>2021-09-12T09:52:58Z</time>
      </trkpt>
      <trkpt lat="48.43901" lon="-3.88665">
        <ele>242.19999694824</ele>
        <time>2021-09-12T09:52:59Z</time>
      </trkpt>
      <trkpt lat="48.43899" lon="-3.88661">
        <ele>242.19999694824</ele>
        <time>2021-09-12T09:53:00Z</time>
      </trkpt>
      <trkpt lat="48.43897" lon="-3.88657">
        <ele>242.19999694824</ele>
        <time>2021-09-12T09:53:01Z</time>
      </trkpt>
      <trkpt lat="48.43894" lon="-3.88652">
        <ele>242</ele>
        <time>2021-09-12T09:53:02Z</time>
      </trkpt>
      <trkpt lat="48.43891" lon="-3.8865">
        <ele>242</ele>
        <time>2021-09-12T09:53:03Z</time>
      </trkpt>
      <trkpt lat="48.43888" lon="-3.88648">
        <ele>242</ele>
        <time>2021-09-12T09:53:04Z</time>
      </trkpt>
      <trkpt lat="48.43885" lon="-3.88647">
        <ele>241.60000610352</ele>
        <time>2021-09-12T09:53:05Z</time>
      </trkpt>
      <trkpt lat="48.4388" lon="-3.88645">
        <ele>241.39999389648</ele>
        <time>2021-09-12T09:53:06Z</time>
      </trkpt>
      <trkpt lat="48.43876" lon="-3.88642">
        <ele>241.39999389648</ele>
        <time>2021-09-12T09:53:07Z</time>
      </trkpt>
      <trkpt lat="48.43872" lon="-3.8864">
        <ele>241.39999389648</ele>
        <time>2021-09-12T09:53:08Z</time>
      </trkpt>
      <trkpt lat="48.43869" lon="-3.88638">
        <ele>241.19999694824</ele>
        <time>2021-09-12T09:53:09Z</time>
      </trkpt>
      <trkpt lat="48.43865" lon="-3.88635">
        <ele>241.19999694824</ele>
        <time>2021-09-12T09:53:10Z</time>
      </trkpt>
      <trkpt lat="48.4386" lon="-3.88633">
        <ele>240.60000610352</ele>
        <time>2021-09-12T09:53:11Z</time>
      </trkpt>
      <trkpt lat="48.43856" lon="-3.88631">
        <ele>240.39999389648</ele>
        <time>2021-09-12T09:53:12Z</time>
      </trkpt>
      <trkpt lat="48.43851" lon="-3.8863">
        <ele>240.19999694824</ele>
        <time>2021-09-12T09:53:13Z</time>
      </trkpt>
      <trkpt lat="48.43847" lon="-3.88631">
        <ele>240</ele>
        <time>2021-09-12T09:53:14Z</time>
      </trkpt>
      <trkpt lat="48.43842" lon="-3.88632">
        <ele>239.39999389648</ele>
        <time>2021-09-12T09:53:15Z</time>
      </trkpt>
      <trkpt lat="48.43835" lon="-3.88633">
        <ele>238.80000305176</ele>
        <time>2021-09-12T09:53:16Z</time>
      </trkpt>
      <trkpt lat="48.43828" lon="-3.88633">
        <ele>238.19999694824</ele>
        <time>2021-09-12T09:53:17Z</time>
      </trkpt>
      <trkpt lat="48.43822" lon="-3.88633">
        <ele>237.60000610352</ele>
        <time>2021-09-12T09:53:18Z</time>
      </trkpt>
      <trkpt lat="48.43816" lon="-3.88633">
        <ele>237.60000610352</ele>
        <time>2021-09-12T09:53:19Z</time>
      </trkpt>
      <trkpt lat="48.43808" lon="-3.88633">
        <ele>237.39999389648</ele>
        <time>2021-09-12T09:53:20Z</time>
      </trkpt>
      <trkpt lat="48.43801" lon="-3.88633">
        <ele>236.80000305176</ele>
        <time>2021-09-12T09:53:21Z</time>
      </trkpt>
      <trkpt lat="48.43792" lon="-3.88635">
        <ele>236.60000610352</ele>
        <time>2021-09-12T09:53:22Z</time>
      </trkpt>
      <trkpt lat="48.43786" lon="-3.88638">
        <ele>236.60000610352</ele>
        <time>2021-09-12T09:53:23Z</time>
      </trkpt>
      <trkpt lat="48.43779" lon="-3.88642">
        <ele>236.39999389648</ele>
        <time>2021-09-12T09:53:24Z</time>
      </trkpt>
      <trkpt lat="48.43771" lon="-3.88648">
        <ele>235.80000305176</ele>
        <time>2021-09-12T09:53:25Z</time>
      </trkpt>
      <trkpt lat="48.43766" lon="-3.88652">
        <ele>235.80000305176</ele>
        <time>2021-09-12T09:53:26Z</time>
      </trkpt>
      <trkpt lat="48.43762" lon="-3.88653">
        <ele>235.60000610352</ele>
        <time>2021-09-12T09:53:27Z</time>
      </trkpt>
      <trkpt lat="48.43758" lon="-3.88654">
        <ele>234.60000610352</ele>
        <time>2021-09-12T09:53:28Z</time>
      </trkpt>
      <trkpt lat="48.43755" lon="-3.88658">
        <ele>234.39999389648</ele>
        <time>2021-09-12T09:53:29Z</time>
      </trkpt>
      <trkpt lat="48.43751" lon="-3.88662">
        <ele>234.39999389648</ele>
        <time>2021-09-12T09:53:30Z</time>
      </trkpt>
      <trkpt lat="48.43747" lon="-3.88667">
        <ele>234.39999389648</ele>
        <time>2021-09-12T09:53:31Z</time>
      </trkpt>
      <trkpt lat="48.43743" lon="-3.88671">
        <ele>234.19999694824</ele>
        <time>2021-09-12T09:53:32Z</time>
      </trkpt>
      <trkpt lat="48.4374" lon="-3.88675">
        <ele>234.19999694824</ele>
        <time>2021-09-12T09:53:33Z</time>
      </trkpt>
      <trkpt lat="48.43737" lon="-3.88679">
        <ele>234.19999694824</ele>
        <time>2021-09-12T09:53:34Z</time>
      </trkpt>
      <trkpt lat="48.43734" lon="-3.88684">
        <ele>234.19999694824</ele>
        <time>2021-09-12T09:53:35Z</time>
      </trkpt>
      <trkpt lat="48.4373" lon="-3.88689">
        <ele>234.19999694824</ele>
        <time>2021-09-12T09:53:36Z</time>
      </trkpt>
      <trkpt lat="48.43727" lon="-3.88693">
        <ele>234.19999694824</ele>
        <time>2021-09-12T09:53:37Z</time>
      </trkpt>
      <trkpt lat="48.43723" lon="-3.88698">
        <ele>234.19999694824</ele>
        <time>2021-09-12T09:53:38Z</time>
      </trkpt>
      <trkpt lat="48.43719" lon="-3.88703">
        <ele>234</ele>
        <time>2021-09-12T09:53:39Z</time>
      </trkpt>
      <trkpt lat="48.43714" lon="-3.88709">
        <ele>233.80000305176</ele>
        <time>2021-09-12T09:53:40Z</time>
      </trkpt>
      <trkpt lat="48.4371" lon="-3.88714">
        <ele>233.60000610352</ele>
        <time>2021-09-12T09:53:41Z</time>
      </trkpt>
      <trkpt lat="48.43706" lon="-3.88718">
        <ele>233.39999389648</ele>
        <time>2021-09-12T09:53:42Z</time>
      </trkpt>
      <trkpt lat="48.43704" lon="-3.8872">
        <ele>233.39999389648</ele>
        <time>2021-09-12T09:53:43Z</time>
      </trkpt>
      <trkpt lat="48.43701" lon="-3.88723">
        <ele>233.39999389648</ele>
        <time>2021-09-12T09:53:44Z</time>
      </trkpt>
      <trkpt lat="48.43697" lon="-3.88725">
        <ele>233.39999389648</ele>
        <time>2021-09-12T09:53:45Z</time>
      </trkpt>
      <trkpt lat="48.43694" lon="-3.88725">
        <ele>233.19999694824</ele>
        <time>2021-09-12T09:53:46Z</time>
      </trkpt>
      <trkpt lat="48.43692" lon="-3.88723">
        <ele>233.19999694824</ele>
        <time>2021-09-12T09:53:47Z</time>
      </trkpt>
      <trkpt lat="48.43689" lon="-3.8872">
        <ele>233</ele>
        <time>2021-09-12T09:53:48Z</time>
      </trkpt>
      <trkpt lat="48.43687" lon="-3.88715">
        <ele>232.80000305176</ele>
        <time>2021-09-12T09:53:49Z</time>
      </trkpt>
      <trkpt lat="48.43684" lon="-3.88711">
        <ele>232.60000610352</ele>
        <time>2021-09-12T09:53:50Z</time>
      </trkpt>
      <trkpt lat="48.4368" lon="-3.88708">
        <ele>232.39999389648</ele>
        <time>2021-09-12T09:53:51Z</time>
      </trkpt>
      <trkpt lat="48.43677" lon="-3.88708">
        <ele>232.19999694824</ele>
        <time>2021-09-12T09:53:52Z</time>
      </trkpt>
      <trkpt lat="48.43674" lon="-3.88709">
        <ele>232</ele>
        <time>2021-09-12T09:53:53Z</time>
      </trkpt>
      <trkpt lat="48.43671" lon="-3.88712">
        <ele>232</ele>
        <time>2021-09-12T09:53:54Z</time>
      </trkpt>
      <trkpt lat="48.43668" lon="-3.88716">
        <ele>232</ele>
        <time>2021-09-12T09:53:55Z</time>
      </trkpt>
      <trkpt lat="48.43665" lon="-3.8872">
        <ele>231.60000610352</ele>
        <time>2021-09-12T09:53:56Z</time>
      </trkpt>
      <trkpt lat="48.4366" lon="-3.88723">
        <ele>231.80000305176</ele>
        <time>2021-09-12T09:53:57Z</time>
      </trkpt>
      <trkpt lat="48.43656" lon="-3.88726">
        <ele>231.60000610352</ele>
        <time>2021-09-12T09:53:58Z</time>
      </trkpt>
      <trkpt lat="48.43651" lon="-3.88729">
        <ele>231.60000610352</ele>
        <time>2021-09-12T09:53:59Z</time>
      </trkpt>
      <trkpt lat="48.43646" lon="-3.88733">
        <ele>231.60000610352</ele>
        <time>2021-09-12T09:54:00Z</time>
      </trkpt>
      <trkpt lat="48.43642" lon="-3.88735">
        <ele>231.39999389648</ele>
        <time>2021-09-12T09:54:01Z</time>
      </trkpt>
      <trkpt lat="48.43637" lon="-3.88736">
        <ele>231.19999694824</ele>
        <time>2021-09-12T09:54:02Z</time>
      </trkpt>
      <trkpt lat="48.43632" lon="-3.88734">
        <ele>231.19999694824</ele>
        <time>2021-09-12T09:54:03Z</time>
      </trkpt>
      <trkpt lat="48.43626" lon="-3.88731">
        <ele>230.39999389648</ele>
        <time>2021-09-12T09:54:04Z</time>
      </trkpt>
      <trkpt lat="48.43621" lon="-3.88727">
        <ele>230</ele>
        <time>2021-09-12T09:54:05Z</time>
      </trkpt>
      <trkpt lat="48.43619" lon="-3.88723">
        <ele>229.19999694824</ele>
        <time>2021-09-12T09:54:06Z</time>
      </trkpt>
      <trkpt lat="48.43616" lon="-3.88717">
        <ele>229.19999694824</ele>
        <time>2021-09-12T09:54:07Z</time>
      </trkpt>
      <trkpt lat="48.43613" lon="-3.8871">
        <ele>228.80000305176</ele>
        <time>2021-09-12T09:54:08Z</time>
      </trkpt>
      <trkpt lat="48.43611" lon="-3.88706">
        <ele>228.19999694824</ele>
        <time>2021-09-12T09:54:09Z</time>
      </trkpt>
      <trkpt lat="48.4361" lon="-3.88704">
        <ele>228</ele>
        <time>2021-09-12T09:54:10Z</time>
      </trkpt>
      <trkpt lat="48.43609" lon="-3.88702">
        <ele>228</ele>
        <time>2021-09-12T09:54:11Z</time>
      </trkpt>
      <trkpt lat="48.43608" lon="-3.88702">
        <ele>227.80000305176</ele>
        <time>2021-09-12T09:54:12Z</time>
      </trkpt>
      <trkpt lat="48.43605" lon="-3.88701">
        <ele>227.80000305176</ele>
        <time>2021-09-12T09:54:13Z</time>
      </trkpt>
      <trkpt lat="48.43602" lon="-3.887">
        <ele>227.80000305176</ele>
        <time>2021-09-12T09:54:14Z</time>
      </trkpt>
      <trkpt lat="48.43599" lon="-3.88699">
        <ele>227.80000305176</ele>
        <time>2021-09-12T09:54:15Z</time>
      </trkpt>
      <trkpt lat="48.43596" lon="-3.88699">
        <ele>227.80000305176</ele>
        <time>2021-09-12T09:54:16Z</time>
      </trkpt>
      <trkpt lat="48.43593" lon="-3.88697">
        <ele>227.60000610352</ele>
        <time>2021-09-12T09:54:17Z</time>
      </trkpt>
      <trkpt lat="48.4359" lon="-3.88696">
        <ele>227.60000610352</ele>
        <time>2021-09-12T09:54:18Z</time>
      </trkpt>
      <trkpt lat="48.43586" lon="-3.88696">
        <ele>227.60000610352</ele>
        <time>2021-09-12T09:54:19Z</time>
      </trkpt>
      <trkpt lat="48.43582" lon="-3.88694">
        <ele>227.39999389648</ele>
        <time>2021-09-12T09:54:20Z</time>
      </trkpt>
      <trkpt lat="48.4358" lon="-3.88693">
        <ele>227.39999389648</ele>
        <time>2021-09-12T09:54:21Z</time>
      </trkpt>
      <trkpt lat="48.43578" lon="-3.88692">
        <ele>227.39999389648</ele>
        <time>2021-09-12T09:54:22Z</time>
      </trkpt>
      <trkpt lat="48.43575" lon="-3.8869">
        <ele>227.19999694824</ele>
        <time>2021-09-12T09:54:23Z</time>
      </trkpt>
      <trkpt lat="48.43571" lon="-3.88688">
        <ele>226.60000610352</ele>
        <time>2021-09-12T09:54:24Z</time>
      </trkpt>
      <trkpt lat="48.43568" lon="-3.88686">
        <ele>226.60000610352</ele>
        <time>2021-09-12T09:54:25Z</time>
      </trkpt>
      <trkpt lat="48.43565" lon="-3.88684">
        <ele>226.60000610352</ele>
        <time>2021-09-12T09:54:26Z</time>
      </trkpt>
      <trkpt lat="48.43562" lon="-3.88683">
        <ele>226.60000610352</ele>
        <time>2021-09-12T09:54:27Z</time>
      </trkpt>
      <trkpt lat="48.43559" lon="-3.88684">
        <ele>226.60000610352</ele>
        <time>2021-09-12T09:54:28Z</time>
      </trkpt>
      <trkpt lat="48.43557" lon="-3.88687">
        <ele>226.60000610352</ele>
        <time>2021-09-12T09:54:29Z</time>
      </trkpt>
      <trkpt lat="48.43556" lon="-3.8869">
        <ele>226.39999389648</ele>
        <time>2021-09-12T09:54:30Z</time>
      </trkpt>
      <trkpt lat="48.43555" lon="-3.88696">
        <ele>226.19999694824</ele>
        <time>2021-09-12T09:54:31Z</time>
      </trkpt>
      <trkpt lat="48.43552" lon="-3.88701">
        <ele>226.19999694824</ele>
        <time>2021-09-12T09:54:32Z</time>
      </trkpt>
      <trkpt lat="48.4355" lon="-3.88705">
        <ele>226.19999694824</ele>
        <time>2021-09-12T09:54:33Z</time>
      </trkpt>
      <trkpt lat="48.43545" lon="-3.88706">
        <ele>226</ele>
        <time>2021-09-12T09:54:34Z</time>
      </trkpt>
      <trkpt lat="48.43541" lon="-3.88706">
        <ele>225.39999389648</ele>
        <time>2021-09-12T09:54:35Z</time>
      </trkpt>
      <trkpt lat="48.43536" lon="-3.88705">
        <ele>225.39999389648</ele>
        <time>2021-09-12T09:54:36Z</time>
      </trkpt>
      <trkpt lat="48.43531" lon="-3.88703">
        <ele>225.39999389648</ele>
        <time>2021-09-12T09:54:37Z</time>
      </trkpt>
      <trkpt lat="48.43526" lon="-3.88701">
        <ele>225.19999694824</ele>
        <time>2021-09-12T09:54:38Z</time>
      </trkpt>
      <trkpt lat="48.43522" lon="-3.88701">
        <ele>225.19999694824</ele>
        <time>2021-09-12T09:54:39Z</time>
      </trkpt>
      <trkpt lat="48.43519" lon="-3.88704">
        <ele>225.19999694824</ele>
        <time>2021-09-12T09:54:40Z</time>
      </trkpt>
      <trkpt lat="48.43516" lon="-3.88709">
        <ele>225.19999694824</ele>
        <time>2021-09-12T09:54:41Z</time>
      </trkpt>
      <trkpt lat="48.43512" lon="-3.88712">
        <ele>225</ele>
        <time>2021-09-12T09:54:42Z</time>
      </trkpt>
      <trkpt lat="48.43508" lon="-3.88713">
        <ele>224.60000610352</ele>
        <time>2021-09-12T09:54:43Z</time>
      </trkpt>
      <trkpt lat="48.43503" lon="-3.88714">
        <ele>224.60000610352</ele>
        <time>2021-09-12T09:54:44Z</time>
      </trkpt>
      <trkpt lat="48.43499" lon="-3.88716">
        <ele>224.60000610352</ele>
        <time>2021-09-12T09:54:45Z</time>
      </trkpt>
      <trkpt lat="48.43495" lon="-3.88717">
        <ele>224.39999389648</ele>
        <time>2021-09-12T09:54:46Z</time>
      </trkpt>
      <trkpt lat="48.4349" lon="-3.88721">
        <ele>224.39999389648</ele>
        <time>2021-09-12T09:54:47Z</time>
      </trkpt>
      <trkpt lat="48.43488" lon="-3.88726">
        <ele>224.19999694824</ele>
        <time>2021-09-12T09:54:48Z</time>
      </trkpt>
      <trkpt lat="48.43486" lon="-3.88732">
        <ele>224.19999694824</ele>
        <time>2021-09-12T09:54:49Z</time>
      </trkpt>
      <trkpt lat="48.43485" lon="-3.88736">
        <ele>224.19999694824</ele>
        <time>2021-09-12T09:54:50Z</time>
      </trkpt>
      <trkpt lat="48.43484" lon="-3.88742">
        <ele>224.19999694824</ele>
        <time>2021-09-12T09:54:51Z</time>
      </trkpt>
      <trkpt lat="48.43484" lon="-3.88748">
        <ele>224.19999694824</ele>
        <time>2021-09-12T09:54:52Z</time>
      </trkpt>
      <trkpt lat="48.43483" lon="-3.88757">
        <ele>224</ele>
        <time>2021-09-12T09:54:53Z</time>
      </trkpt>
      <trkpt lat="48.43482" lon="-3.88763">
        <ele>224</ele>
        <time>2021-09-12T09:54:54Z</time>
      </trkpt>
      <trkpt lat="48.4348" lon="-3.8877">
        <ele>224</ele>
        <time>2021-09-12T09:54:55Z</time>
      </trkpt>
      <trkpt lat="48.43479" lon="-3.88777">
        <ele>224</ele>
        <time>2021-09-12T09:54:56Z</time>
      </trkpt>
      <trkpt lat="48.43478" lon="-3.88785">
        <ele>223.80000305176</ele>
        <time>2021-09-12T09:54:57Z</time>
      </trkpt>
      <trkpt lat="48.43477" lon="-3.8879">
        <ele>223.80000305176</ele>
        <time>2021-09-12T09:54:58Z</time>
      </trkpt>
      <trkpt lat="48.43476" lon="-3.88797">
        <ele>223.80000305176</ele>
        <time>2021-09-12T09:54:59Z</time>
      </trkpt>
      <trkpt lat="48.43476" lon="-3.88804">
        <ele>223.80000305176</ele>
        <time>2021-09-12T09:55:00Z</time>
      </trkpt>
      <trkpt lat="48.43476" lon="-3.8881">
        <ele>223.80000305176</ele>
        <time>2021-09-12T09:55:01Z</time>
      </trkpt>
      <trkpt lat="48.43477" lon="-3.88817">
        <ele>223.60000610352</ele>
        <time>2021-09-12T09:55:02Z</time>
      </trkpt>
      <trkpt lat="48.43477" lon="-3.88821">
        <ele>223.60000610352</ele>
        <time>2021-09-12T09:55:03Z</time>
      </trkpt>
      <trkpt lat="48.43475" lon="-3.88824">
        <ele>223.60000610352</ele>
        <time>2021-09-12T09:55:04Z</time>
      </trkpt>
      <trkpt lat="48.43472" lon="-3.88827">
        <ele>223.60000610352</ele>
        <time>2021-09-12T09:55:05Z</time>
      </trkpt>
      <trkpt lat="48.43467" lon="-3.88829">
        <ele>223.60000610352</ele>
        <time>2021-09-12T09:55:06Z</time>
      </trkpt>
      <trkpt lat="48.43462" lon="-3.88829">
        <ele>223.39999389648</ele>
        <time>2021-09-12T09:55:07Z</time>
      </trkpt>
      <trkpt lat="48.43458" lon="-3.88829">
        <ele>223.39999389648</ele>
        <time>2021-09-12T09:55:08Z</time>
      </trkpt>
      <trkpt lat="48.43454" lon="-3.88829">
        <ele>223.60000610352</ele>
        <time>2021-09-12T09:55:09Z</time>
      </trkpt>
      <trkpt lat="48.43449" lon="-3.88829">
        <ele>223.80000305176</ele>
        <time>2021-09-12T09:55:10Z</time>
      </trkpt>
      <trkpt lat="48.43443" lon="-3.88828">
        <ele>223.80000305176</ele>
        <time>2021-09-12T09:55:11Z</time>
      </trkpt>
      <trkpt lat="48.43438" lon="-3.88827">
        <ele>224</ele>
        <time>2021-09-12T09:55:12Z</time>
      </trkpt>
      <trkpt lat="48.43433" lon="-3.88826">
        <ele>224</ele>
        <time>2021-09-12T09:55:13Z</time>
      </trkpt>
      <trkpt lat="48.43429" lon="-3.88824">
        <ele>224</ele>
        <time>2021-09-12T09:55:14Z</time>
      </trkpt>
      <trkpt lat="48.43424" lon="-3.88821">
        <ele>224</ele>
        <time>2021-09-12T09:55:15Z</time>
      </trkpt>
      <trkpt lat="48.4342" lon="-3.88819">
        <ele>224.19999694824</ele>
        <time>2021-09-12T09:55:16Z</time>
      </trkpt>
      <trkpt lat="48.43415" lon="-3.88816">
        <ele>224.19999694824</ele>
        <time>2021-09-12T09:55:17Z</time>
      </trkpt>
      <trkpt lat="48.43411" lon="-3.88813">
        <ele>224.39999389648</ele>
        <time>2021-09-12T09:55:18Z</time>
      </trkpt>
      <trkpt lat="48.43407" lon="-3.8881">
        <ele>224.39999389648</ele>
        <time>2021-09-12T09:55:19Z</time>
      </trkpt>
      <trkpt lat="48.43403" lon="-3.88806">
        <ele>224.60000610352</ele>
        <time>2021-09-12T09:55:20Z</time>
      </trkpt>
      <trkpt lat="48.43399" lon="-3.88802">
        <ele>224.60000610352</ele>
        <time>2021-09-12T09:55:21Z</time>
      </trkpt>
      <trkpt lat="48.43396" lon="-3.88798">
        <ele>224.60000610352</ele>
        <time>2021-09-12T09:55:22Z</time>
      </trkpt>
      <trkpt lat="48.43392" lon="-3.88794">
        <ele>224.80000305176</ele>
        <time>2021-09-12T09:55:23Z</time>
      </trkpt>
      <trkpt lat="48.43389" lon="-3.88791">
        <ele>224.80000305176</ele>
        <time>2021-09-12T09:55:24Z</time>
      </trkpt>
      <trkpt lat="48.43386" lon="-3.88787">
        <ele>225</ele>
        <time>2021-09-12T09:55:25Z</time>
      </trkpt>
      <trkpt lat="48.43383" lon="-3.88783">
        <ele>225.19999694824</ele>
        <time>2021-09-12T09:55:26Z</time>
      </trkpt>
      <trkpt lat="48.43379" lon="-3.88778">
        <ele>225.19999694824</ele>
        <time>2021-09-12T09:55:27Z</time>
      </trkpt>
      <trkpt lat="48.43376" lon="-3.88775">
        <ele>225.39999389648</ele>
        <time>2021-09-12T09:55:28Z</time>
      </trkpt>
      <trkpt lat="48.43373" lon="-3.88771">
        <ele>225.60000610352</ele>
        <time>2021-09-12T09:55:29Z</time>
      </trkpt>
      <trkpt lat="48.4337" lon="-3.88767">
        <ele>225.60000610352</ele>
        <time>2021-09-12T09:55:30Z</time>
      </trkpt>
      <trkpt lat="48.43366" lon="-3.88763">
        <ele>226</ele>
        <time>2021-09-12T09:55:31Z</time>
      </trkpt>
      <trkpt lat="48.43363" lon="-3.88759">
        <ele>226.19999694824</ele>
        <time>2021-09-12T09:55:32Z</time>
      </trkpt>
      <trkpt lat="48.4336" lon="-3.88755">
        <ele>226.39999389648</ele>
        <time>2021-09-12T09:55:33Z</time>
      </trkpt>
      <trkpt lat="48.43357" lon="-3.88751">
        <ele>226.39999389648</ele>
        <time>2021-09-12T09:55:34Z</time>
      </trkpt>
      <trkpt lat="48.43354" lon="-3.88747">
        <ele>226.60000610352</ele>
        <time>2021-09-12T09:55:35Z</time>
      </trkpt>
      <trkpt lat="48.43351" lon="-3.88743">
        <ele>226.80000305176</ele>
        <time>2021-09-12T09:55:36Z</time>
      </trkpt>
      <trkpt lat="48.43348" lon="-3.88739">
        <ele>227.19999694824</ele>
        <time>2021-09-12T09:55:37Z</time>
      </trkpt>
      <trkpt lat="48.43345" lon="-3.88737">
        <ele>227.39999389648</ele>
        <time>2021-09-12T09:55:38Z</time>
      </trkpt>
      <trkpt lat="48.43343" lon="-3.88733">
        <ele>227.39999389648</ele>
        <time>2021-09-12T09:55:39Z</time>
      </trkpt>
      <trkpt lat="48.4334" lon="-3.88729">
        <ele>227.60000610352</ele>
        <time>2021-09-12T09:55:40Z</time>
      </trkpt>
      <trkpt lat="48.43337" lon="-3.88725">
        <ele>227.80000305176</ele>
        <time>2021-09-12T09:55:41Z</time>
      </trkpt>
      <trkpt lat="48.43334" lon="-3.88721">
        <ele>228</ele>
        <time>2021-09-12T09:55:42Z</time>
      </trkpt>
      <trkpt lat="48.43331" lon="-3.88717">
        <ele>228.19999694824</ele>
        <time>2021-09-12T09:55:43Z</time>
      </trkpt>
      <trkpt lat="48.43329" lon="-3.88713">
        <ele>228.19999694824</ele>
        <time>2021-09-12T09:55:44Z</time>
      </trkpt>
      <trkpt lat="48.43325" lon="-3.88709">
        <ele>228.39999389648</ele>
        <time>2021-09-12T09:55:45Z</time>
      </trkpt>
      <trkpt lat="48.43322" lon="-3.88705">
        <ele>228.39999389648</ele>
        <time>2021-09-12T09:55:46Z</time>
      </trkpt>
      <trkpt lat="48.43319" lon="-3.88701">
        <ele>228.60000610352</ele>
        <time>2021-09-12T09:55:47Z</time>
      </trkpt>
      <trkpt lat="48.43316" lon="-3.88698">
        <ele>228.80000305176</ele>
        <time>2021-09-12T09:55:48Z</time>
      </trkpt>
      <trkpt lat="48.43313" lon="-3.88694">
        <ele>229</ele>
        <time>2021-09-12T09:55:49Z</time>
      </trkpt>
      <trkpt lat="48.43309" lon="-3.88689">
        <ele>229</ele>
        <time>2021-09-12T09:55:50Z</time>
      </trkpt>
      <trkpt lat="48.43306" lon="-3.88686">
        <ele>229.19999694824</ele>
        <time>2021-09-12T09:55:51Z</time>
      </trkpt>
      <trkpt lat="48.43303" lon="-3.88683">
        <ele>229.19999694824</ele>
        <time>2021-09-12T09:55:52Z</time>
      </trkpt>
      <trkpt lat="48.433" lon="-3.88679">
        <ele>229.39999389648</ele>
        <time>2021-09-12T09:55:53Z</time>
      </trkpt>
      <trkpt lat="48.43297" lon="-3.88675">
        <ele>229.39999389648</ele>
        <time>2021-09-12T09:55:54Z</time>
      </trkpt>
      <trkpt lat="48.43294" lon="-3.88672">
        <ele>229.60000610352</ele>
        <time>2021-09-12T09:55:55Z</time>
      </trkpt>
      <trkpt lat="48.4329" lon="-3.88667">
        <ele>229.60000610352</ele>
        <time>2021-09-12T09:55:56Z</time>
      </trkpt>
      <trkpt lat="48.43287" lon="-3.88664">
        <ele>229.80000305176</ele>
        <time>2021-09-12T09:55:57Z</time>
      </trkpt>
      <trkpt lat="48.43284" lon="-3.8866">
        <ele>229.80000305176</ele>
        <time>2021-09-12T09:55:58Z</time>
      </trkpt>
      <trkpt lat="48.43281" lon="-3.88657">
        <ele>230</ele>
        <time>2021-09-12T09:55:59Z</time>
      </trkpt>
      <trkpt lat="48.43278" lon="-3.88654">
        <ele>230</ele>
        <time>2021-09-12T09:56:00Z</time>
      </trkpt>
      <trkpt lat="48.43274" lon="-3.88651">
        <ele>230.19999694824</ele>
        <time>2021-09-12T09:56:01Z</time>
      </trkpt>
      <trkpt lat="48.43271" lon="-3.88647">
        <ele>230.39999389648</ele>
        <time>2021-09-12T09:56:02Z</time>
      </trkpt>
      <trkpt lat="48.43268" lon="-3.88644">
        <ele>230.39999389648</ele>
        <time>2021-09-12T09:56:03Z</time>
      </trkpt>
      <trkpt lat="48.43263" lon="-3.8864">
        <ele>230.39999389648</ele>
        <time>2021-09-12T09:56:04Z</time>
      </trkpt>
      <trkpt lat="48.43259" lon="-3.88636">
        <ele>230.60000610352</ele>
        <time>2021-09-12T09:56:05Z</time>
      </trkpt>
      <trkpt lat="48.43256" lon="-3.88633">
        <ele>230.60000610352</ele>
        <time>2021-09-12T09:56:06Z</time>
      </trkpt>
      <trkpt lat="48.43253" lon="-3.8863">
        <ele>230.60000610352</ele>
        <time>2021-09-12T09:56:07Z</time>
      </trkpt>
      <trkpt lat="48.43249" lon="-3.88627">
        <ele>230.80000305176</ele>
        <time>2021-09-12T09:56:08Z</time>
      </trkpt>
      <trkpt lat="48.43245" lon="-3.88623">
        <ele>231.19999694824</ele>
        <time>2021-09-12T09:56:09Z</time>
      </trkpt>
      <trkpt lat="48.43242" lon="-3.88621">
        <ele>231.19999694824</ele>
        <time>2021-09-12T09:56:10Z</time>
      </trkpt>
      <trkpt lat="48.43237" lon="-3.88618">
        <ele>231.39999389648</ele>
        <time>2021-09-12T09:56:11Z</time>
      </trkpt>
      <trkpt lat="48.43234" lon="-3.88615">
        <ele>231.39999389648</ele>
        <time>2021-09-12T09:56:12Z</time>
      </trkpt>
      <trkpt lat="48.43231" lon="-3.88613">
        <ele>231.60000610352</ele>
        <time>2021-09-12T09:56:13Z</time>
      </trkpt>
      <trkpt lat="48.43227" lon="-3.8861">
        <ele>232</ele>
        <time>2021-09-12T09:56:14Z</time>
      </trkpt>
      <trkpt lat="48.43224" lon="-3.88608">
        <ele>232.60000610352</ele>
        <time>2021-09-12T09:56:15Z</time>
      </trkpt>
      <trkpt lat="48.43221" lon="-3.88606">
        <ele>232.80000305176</ele>
        <time>2021-09-12T09:56:16Z</time>
      </trkpt>
      <trkpt lat="48.43218" lon="-3.88605">
        <ele>232.80000305176</ele>
        <time>2021-09-12T09:56:17Z</time>
      </trkpt>
      <trkpt lat="48.43215" lon="-3.88604">
        <ele>233</ele>
        <time>2021-09-12T09:56:18Z</time>
      </trkpt>
      <trkpt lat="48.43212" lon="-3.88603">
        <ele>233.19999694824</ele>
        <time>2021-09-12T09:56:19Z</time>
      </trkpt>
      <trkpt lat="48.43209" lon="-3.88601">
        <ele>233.39999389648</ele>
        <time>2021-09-12T09:56:20Z</time>
      </trkpt>
      <trkpt lat="48.43206" lon="-3.886">
        <ele>233.39999389648</ele>
        <time>2021-09-12T09:56:21Z</time>
      </trkpt>
      <trkpt lat="48.43203" lon="-3.88599">
        <ele>233.80000305176</ele>
        <time>2021-09-12T09:56:22Z</time>
      </trkpt>
      <trkpt lat="48.432" lon="-3.88598">
        <ele>233.80000305176</ele>
        <time>2021-09-12T09:56:23Z</time>
      </trkpt>
      <trkpt lat="48.43197" lon="-3.88597">
        <ele>234</ele>
        <time>2021-09-12T09:56:24Z</time>
      </trkpt>
      <trkpt lat="48.43193" lon="-3.88595">
        <ele>234</ele>
        <time>2021-09-12T09:56:25Z</time>
      </trkpt>
      <trkpt lat="48.43191" lon="-3.88595">
        <ele>234.39999389648</ele>
        <time>2021-09-12T09:56:26Z</time>
      </trkpt>
      <trkpt lat="48.43188" lon="-3.88594">
        <ele>234.39999389648</ele>
        <time>2021-09-12T09:56:27Z</time>
      </trkpt>
      <trkpt lat="48.43184" lon="-3.88594">
        <ele>234.80000305176</ele>
        <time>2021-09-12T09:56:28Z</time>
      </trkpt>
      <trkpt lat="48.43181" lon="-3.88593">
        <ele>234.80000305176</ele>
        <time>2021-09-12T09:56:29Z</time>
      </trkpt>
      <trkpt lat="48.43178" lon="-3.88592">
        <ele>235.19999694824</ele>
        <time>2021-09-12T09:56:30Z</time>
      </trkpt>
      <trkpt lat="48.43175" lon="-3.88591">
        <ele>235.19999694824</ele>
        <time>2021-09-12T09:56:31Z</time>
      </trkpt>
      <trkpt lat="48.43172" lon="-3.8859">
        <ele>235.39999389648</ele>
        <time>2021-09-12T09:56:32Z</time>
      </trkpt>
      <trkpt lat="48.43168" lon="-3.88589">
        <ele>235.39999389648</ele>
        <time>2021-09-12T09:56:33Z</time>
      </trkpt>
      <trkpt lat="48.43166" lon="-3.88589">
        <ele>235.80000305176</ele>
        <time>2021-09-12T09:56:34Z</time>
      </trkpt>
      <trkpt lat="48.43162" lon="-3.88588">
        <ele>235.80000305176</ele>
        <time>2021-09-12T09:56:35Z</time>
      </trkpt>
      <trkpt lat="48.4316" lon="-3.88588">
        <ele>236</ele>
        <time>2021-09-12T09:56:36Z</time>
      </trkpt>
      <trkpt lat="48.43157" lon="-3.88587">
        <ele>236.39999389648</ele>
        <time>2021-09-12T09:56:37Z</time>
      </trkpt>
      <trkpt lat="48.43153" lon="-3.88586">
        <ele>236.39999389648</ele>
        <time>2021-09-12T09:56:38Z</time>
      </trkpt>
      <trkpt lat="48.4315" lon="-3.88585">
        <ele>236.60000610352</ele>
        <time>2021-09-12T09:56:39Z</time>
      </trkpt>
      <trkpt lat="48.43147" lon="-3.88585">
        <ele>236.80000305176</ele>
        <time>2021-09-12T09:56:40Z</time>
      </trkpt>
      <trkpt lat="48.43144" lon="-3.88584">
        <ele>237</ele>
        <time>2021-09-12T09:56:41Z</time>
      </trkpt>
      <trkpt lat="48.43141" lon="-3.88583">
        <ele>237.19999694824</ele>
        <time>2021-09-12T09:56:42Z</time>
      </trkpt>
      <trkpt lat="48.43138" lon="-3.88583">
        <ele>237.19999694824</ele>
        <time>2021-09-12T09:56:43Z</time>
      </trkpt>
      <trkpt lat="48.43135" lon="-3.88582">
        <ele>237.60000610352</ele>
        <time>2021-09-12T09:56:44Z</time>
      </trkpt>
      <trkpt lat="48.43132" lon="-3.88582">
        <ele>237.80000305176</ele>
        <time>2021-09-12T09:56:45Z</time>
      </trkpt>
      <trkpt lat="48.43128" lon="-3.88581">
        <ele>238</ele>
        <time>2021-09-12T09:56:46Z</time>
      </trkpt>
      <trkpt lat="48.43125" lon="-3.88581">
        <ele>238.19999694824</ele>
        <time>2021-09-12T09:56:47Z</time>
      </trkpt>
      <trkpt lat="48.43122" lon="-3.8858">
        <ele>238.60000610352</ele>
        <time>2021-09-12T09:56:48Z</time>
      </trkpt>
      <trkpt lat="48.43119" lon="-3.8858">
        <ele>238.60000610352</ele>
        <time>2021-09-12T09:56:49Z</time>
      </trkpt>
      <trkpt lat="48.43116" lon="-3.88579">
        <ele>238.80000305176</ele>
        <time>2021-09-12T09:56:50Z</time>
      </trkpt>
      <trkpt lat="48.43113" lon="-3.88579">
        <ele>238.80000305176</ele>
        <time>2021-09-12T09:56:51Z</time>
      </trkpt>
      <trkpt lat="48.4311" lon="-3.88579">
        <ele>239</ele>
        <time>2021-09-12T09:56:52Z</time>
      </trkpt>
      <trkpt lat="48.43108" lon="-3.88578">
        <ele>239.39999389648</ele>
        <time>2021-09-12T09:56:53Z</time>
      </trkpt>
      <trkpt lat="48.43104" lon="-3.88578">
        <ele>239.39999389648</ele>
        <time>2021-09-12T09:56:54Z</time>
      </trkpt>
      <trkpt lat="48.43101" lon="-3.88577">
        <ele>239.80000305176</ele>
        <time>2021-09-12T09:56:55Z</time>
      </trkpt>
      <trkpt lat="48.43098" lon="-3.88577">
        <ele>240.19999694824</ele>
        <time>2021-09-12T09:56:56Z</time>
      </trkpt>
      <trkpt lat="48.43095" lon="-3.88576">
        <ele>240.19999694824</ele>
        <time>2021-09-12T09:56:57Z</time>
      </trkpt>
      <trkpt lat="48.43092" lon="-3.88576">
        <ele>240.39999389648</ele>
        <time>2021-09-12T09:56:58Z</time>
      </trkpt>
      <trkpt lat="48.4309" lon="-3.88575">
        <ele>240.60000610352</ele>
        <time>2021-09-12T09:56:59Z</time>
      </trkpt>
      <trkpt lat="48.43087" lon="-3.88575">
        <ele>240.80000305176</ele>
        <time>2021-09-12T09:57:00Z</time>
      </trkpt>
      <trkpt lat="48.43083" lon="-3.88575">
        <ele>241</ele>
        <time>2021-09-12T09:57:01Z</time>
      </trkpt>
      <trkpt lat="48.4308" lon="-3.88575">
        <ele>241.19999694824</ele>
        <time>2021-09-12T09:57:02Z</time>
      </trkpt>
      <trkpt lat="48.43076" lon="-3.88574">
        <ele>241.19999694824</ele>
        <time>2021-09-12T09:57:03Z</time>
      </trkpt>
      <trkpt lat="48.43074" lon="-3.88574">
        <ele>241.60000610352</ele>
        <time>2021-09-12T09:57:04Z</time>
      </trkpt>
      <trkpt lat="48.4307" lon="-3.88574">
        <ele>241.80000305176</ele>
        <time>2021-09-12T09:57:05Z</time>
      </trkpt>
      <trkpt lat="48.43067" lon="-3.88574">
        <ele>242</ele>
        <time>2021-09-12T09:57:06Z</time>
      </trkpt>
      <trkpt lat="48.43065" lon="-3.88574">
        <ele>242</ele>
        <time>2021-09-12T09:57:07Z</time>
      </trkpt>
      <trkpt lat="48.43061" lon="-3.88574">
        <ele>242.19999694824</ele>
        <time>2021-09-12T09:57:08Z</time>
      </trkpt>
      <trkpt lat="48.43059" lon="-3.88575">
        <ele>242.60000610352</ele>
        <time>2021-09-12T09:57:09Z</time>
      </trkpt>
      <trkpt lat="48.43056" lon="-3.88575">
        <ele>242.60000610352</ele>
        <time>2021-09-12T09:57:10Z</time>
      </trkpt>
      <trkpt lat="48.43053" lon="-3.88576">
        <ele>242.60000610352</ele>
        <time>2021-09-12T09:57:11Z</time>
      </trkpt>
      <trkpt lat="48.43049" lon="-3.88577">
        <ele>242.80000305176</ele>
        <time>2021-09-12T09:57:12Z</time>
      </trkpt>
      <trkpt lat="48.43046" lon="-3.88577">
        <ele>243</ele>
        <time>2021-09-12T09:57:13Z</time>
      </trkpt>
      <trkpt lat="48.43043" lon="-3.88578">
        <ele>243.19999694824</ele>
        <time>2021-09-12T09:57:14Z</time>
      </trkpt>
      <trkpt lat="48.4304" lon="-3.88579">
        <ele>243.19999694824</ele>
        <time>2021-09-12T09:57:15Z</time>
      </trkpt>
      <trkpt lat="48.43038" lon="-3.8858">
        <ele>243.19999694824</ele>
        <time>2021-09-12T09:57:16Z</time>
      </trkpt>
      <trkpt lat="48.43034" lon="-3.88582">
        <ele>243.19999694824</ele>
        <time>2021-09-12T09:57:17Z</time>
      </trkpt>
      <trkpt lat="48.43031" lon="-3.88583">
        <ele>243.19999694824</ele>
        <time>2021-09-12T09:57:18Z</time>
      </trkpt>
      <trkpt lat="48.43028" lon="-3.88584">
        <ele>243.19999694824</ele>
        <time>2021-09-12T09:57:19Z</time>
      </trkpt>
      <trkpt lat="48.43025" lon="-3.88585">
        <ele>243.19999694824</ele>
        <time>2021-09-12T09:57:20Z</time>
      </trkpt>
      <trkpt lat="48.4302" lon="-3.88584">
        <ele>243.19999694824</ele>
        <time>2021-09-12T09:57:21Z</time>
      </trkpt>
      <trkpt lat="48.43016" lon="-3.88583">
        <ele>242.80000305176</ele>
        <time>2021-09-12T09:57:22Z</time>
      </trkpt>
      <trkpt lat="48.4301" lon="-3.8858">
        <ele>242.39999389648</ele>
        <time>2021-09-12T09:57:23Z</time>
      </trkpt>
      <trkpt lat="48.43004" lon="-3.88577">
        <ele>242</ele>
        <time>2021-09-12T09:57:24Z</time>
      </trkpt>
      <trkpt lat="48.42999" lon="-3.88572">
        <ele>241.19999694824</ele>
        <time>2021-09-12T09:57:25Z</time>
      </trkpt>
      <trkpt lat="48.42995" lon="-3.88564">
        <ele>241</ele>
        <time>2021-09-12T09:57:26Z</time>
      </trkpt>
      <trkpt lat="48.42993" lon="-3.88557">
        <ele>241</ele>
        <time>2021-09-12T09:57:27Z</time>
      </trkpt>
      <trkpt lat="48.42992" lon="-3.8855">
        <ele>241</ele>
        <time>2021-09-12T09:57:28Z</time>
      </trkpt>
      <trkpt lat="48.42988" lon="-3.88491">
        <ele>243.19999694824</ele>
        <time>2021-09-12T09:57:39Z</time>
      </trkpt>
      <trkpt lat="48.42986" lon="-3.88486">
        <ele>243.39999389648</ele>
        <time>2021-09-12T09:57:40Z</time>
      </trkpt>
      <trkpt lat="48.42982" lon="-3.88488">
        <ele>243.80000305176</ele>
        <time>2021-09-12T09:57:41Z</time>
      </trkpt>
      <trkpt lat="48.42979" lon="-3.88489">
        <ele>243.80000305176</ele>
        <time>2021-09-12T09:57:42Z</time>
      </trkpt>
      <trkpt lat="48.42975" lon="-3.8849">
        <ele>244</ele>
        <time>2021-09-12T09:57:43Z</time>
      </trkpt>
      <trkpt lat="48.42972" lon="-3.88492">
        <ele>244</ele>
        <time>2021-09-12T09:57:44Z</time>
      </trkpt>
      <trkpt lat="48.4297" lon="-3.88493">
        <ele>244.60000610352</ele>
        <time>2021-09-12T09:57:45Z</time>
      </trkpt>
      <trkpt lat="48.42968" lon="-3.88494">
        <ele>244.60000610352</ele>
        <time>2021-09-12T09:57:46Z</time>
      </trkpt>
      <trkpt lat="48.42965" lon="-3.88495">
        <ele>244.80000305176</ele>
        <time>2021-09-12T09:57:47Z</time>
      </trkpt>
      <trkpt lat="48.42962" lon="-3.88497">
        <ele>245.19999694824</ele>
        <time>2021-09-12T09:57:48Z</time>
      </trkpt>
      <trkpt lat="48.42961" lon="-3.88496">
        <ele>245.39999389648</ele>
        <time>2021-09-12T09:57:49Z</time>
      </trkpt>
      <trkpt lat="48.42959" lon="-3.88497">
        <ele>245.80000305176</ele>
        <time>2021-09-12T09:57:50Z</time>
      </trkpt>
      <trkpt lat="48.42956" lon="-3.88498">
        <ele>245.80000305176</ele>
        <time>2021-09-12T09:57:51Z</time>
      </trkpt>
      <trkpt lat="48.42954" lon="-3.88499">
        <ele>246.39999389648</ele>
        <time>2021-09-12T09:57:52Z</time>
      </trkpt>
      <trkpt lat="48.42952" lon="-3.88499">
        <ele>246.60000610352</ele>
        <time>2021-09-12T09:57:53Z</time>
      </trkpt>
      <trkpt lat="48.4295" lon="-3.88499">
        <ele>247</ele>
        <time>2021-09-12T09:57:54Z</time>
      </trkpt>
      <trkpt lat="48.42948" lon="-3.885">
        <ele>247.60000610352</ele>
        <time>2021-09-12T09:57:55Z</time>
      </trkpt>
      <trkpt lat="48.42946" lon="-3.88501">
        <ele>247.60000610352</ele>
        <time>2021-09-12T09:57:56Z</time>
      </trkpt>
      <trkpt lat="48.42944" lon="-3.88502">
        <ele>248</ele>
        <time>2021-09-12T09:57:57Z</time>
      </trkpt>
      <trkpt lat="48.42942" lon="-3.88502">
        <ele>248</ele>
        <time>2021-09-12T09:57:58Z</time>
      </trkpt>
      <trkpt lat="48.4294" lon="-3.88503">
        <ele>248.39999389648</ele>
        <time>2021-09-12T09:57:59Z</time>
      </trkpt>
      <trkpt lat="48.42938" lon="-3.88502">
        <ele>248.80000305176</ele>
        <time>2021-09-12T09:58:00Z</time>
      </trkpt>
      <trkpt lat="48.42935" lon="-3.88503">
        <ele>249</ele>
        <time>2021-09-12T09:58:01Z</time>
      </trkpt>
      <trkpt lat="48.42933" lon="-3.88503">
        <ele>249</ele>
        <time>2021-09-12T09:58:02Z</time>
      </trkpt>
      <trkpt lat="48.42931" lon="-3.88503">
        <ele>249.39999389648</ele>
        <time>2021-09-12T09:58:03Z</time>
      </trkpt>
      <trkpt lat="48.42929" lon="-3.88502">
        <ele>249.39999389648</ele>
        <time>2021-09-12T09:58:04Z</time>
      </trkpt>
      <trkpt lat="48.42926" lon="-3.88502">
        <ele>249.60000610352</ele>
        <time>2021-09-12T09:58:05Z</time>
      </trkpt>
      <trkpt lat="48.42924" lon="-3.88501">
        <ele>249.60000610352</ele>
        <time>2021-09-12T09:58:06Z</time>
      </trkpt>
      <trkpt lat="48.42922" lon="-3.885">
        <ele>249.80000305176</ele>
        <time>2021-09-12T09:58:07Z</time>
      </trkpt>
      <trkpt lat="48.4292" lon="-3.88499">
        <ele>249.80000305176</ele>
        <time>2021-09-12T09:58:08Z</time>
      </trkpt>
      <trkpt lat="48.42917" lon="-3.88498">
        <ele>250</ele>
        <time>2021-09-12T09:58:09Z</time>
      </trkpt>
      <trkpt lat="48.42915" lon="-3.88497">
        <ele>250.19999694824</ele>
        <time>2021-09-12T09:58:10Z</time>
      </trkpt>
      <trkpt lat="48.42912" lon="-3.88496">
        <ele>250.19999694824</ele>
        <time>2021-09-12T09:58:11Z</time>
      </trkpt>
      <trkpt lat="48.4291" lon="-3.88495">
        <ele>250.39999389648</ele>
        <time>2021-09-12T09:58:12Z</time>
      </trkpt>
      <trkpt lat="48.42908" lon="-3.88494">
        <ele>250.80000305176</ele>
        <time>2021-09-12T09:58:13Z</time>
      </trkpt>
      <trkpt lat="48.42906" lon="-3.88493">
        <ele>250.80000305176</ele>
        <time>2021-09-12T09:58:14Z</time>
      </trkpt>
      <trkpt lat="48.42904" lon="-3.88491">
        <ele>251.19999694824</ele>
        <time>2021-09-12T09:58:15Z</time>
      </trkpt>
      <trkpt lat="48.42903" lon="-3.8849">
        <ele>251.19999694824</ele>
        <time>2021-09-12T09:58:16Z</time>
      </trkpt>
      <trkpt lat="48.429" lon="-3.88488">
        <ele>251.19999694824</ele>
        <time>2021-09-12T09:58:17Z</time>
      </trkpt>
      <trkpt lat="48.42898" lon="-3.88487">
        <ele>251.39999389648</ele>
        <time>2021-09-12T09:58:18Z</time>
      </trkpt>
      <trkpt lat="48.42897" lon="-3.88485">
        <ele>251.80000305176</ele>
        <time>2021-09-12T09:58:19Z</time>
      </trkpt>
      <trkpt lat="48.42895" lon="-3.88484">
        <ele>252.19999694824</ele>
        <time>2021-09-12T09:58:20Z</time>
      </trkpt>
      <trkpt lat="48.42893" lon="-3.88483">
        <ele>252.39999389648</ele>
        <time>2021-09-12T09:58:21Z</time>
      </trkpt>
      <trkpt lat="48.42889" lon="-3.88481">
        <ele>252.60000610352</ele>
        <time>2021-09-12T09:58:22Z</time>
      </trkpt>
      <trkpt lat="48.42888" lon="-3.8848">
        <ele>252.60000610352</ele>
        <time>2021-09-12T09:58:23Z</time>
      </trkpt>
      <trkpt lat="48.42886" lon="-3.88479">
        <ele>252.80000305176</ele>
        <time>2021-09-12T09:58:24Z</time>
      </trkpt>
      <trkpt lat="48.42883" lon="-3.88478">
        <ele>253</ele>
        <time>2021-09-12T09:58:25Z</time>
      </trkpt>
      <trkpt lat="48.42881" lon="-3.88477">
        <ele>253.39999389648</ele>
        <time>2021-09-12T09:58:26Z</time>
      </trkpt>
      <trkpt lat="48.42879" lon="-3.88476">
        <ele>253.60000610352</ele>
        <time>2021-09-12T09:58:27Z</time>
      </trkpt>
      <trkpt lat="48.42877" lon="-3.88475">
        <ele>253.80000305176</ele>
        <time>2021-09-12T09:58:28Z</time>
      </trkpt>
      <trkpt lat="48.42875" lon="-3.88474">
        <ele>253.80000305176</ele>
        <time>2021-09-12T09:58:29Z</time>
      </trkpt>
      <trkpt lat="48.42873" lon="-3.88473">
        <ele>254.39999389648</ele>
        <time>2021-09-12T09:58:30Z</time>
      </trkpt>
      <trkpt lat="48.42871" lon="-3.88472">
        <ele>254.39999389648</ele>
        <time>2021-09-12T09:58:31Z</time>
      </trkpt>
      <trkpt lat="48.42869" lon="-3.88471">
        <ele>254.80000305176</ele>
        <time>2021-09-12T09:58:32Z</time>
      </trkpt>
      <trkpt lat="48.42867" lon="-3.8847">
        <ele>254.80000305176</ele>
        <time>2021-09-12T09:58:33Z</time>
      </trkpt>
      <trkpt lat="48.42865" lon="-3.88469">
        <ele>255</ele>
        <time>2021-09-12T09:58:34Z</time>
      </trkpt>
      <trkpt lat="48.42863" lon="-3.88467">
        <ele>255.39999389648</ele>
        <time>2021-09-12T09:58:35Z</time>
      </trkpt>
      <trkpt lat="48.42861" lon="-3.88466">
        <ele>255.60000610352</ele>
        <time>2021-09-12T09:58:36Z</time>
      </trkpt>
      <trkpt lat="48.42858" lon="-3.88465">
        <ele>255.80000305176</ele>
        <time>2021-09-12T09:58:37Z</time>
      </trkpt>
      <trkpt lat="48.42857" lon="-3.88464">
        <ele>256</ele>
        <time>2021-09-12T09:58:38Z</time>
      </trkpt>
      <trkpt lat="48.42854" lon="-3.88463">
        <ele>256</ele>
        <time>2021-09-12T09:58:39Z</time>
      </trkpt>
      <trkpt lat="48.42852" lon="-3.88461">
        <ele>256.39999389648</ele>
        <time>2021-09-12T09:58:40Z</time>
      </trkpt>
      <trkpt lat="48.42849" lon="-3.8846">
        <ele>256.60000610352</ele>
        <time>2021-09-12T09:58:41Z</time>
      </trkpt>
      <trkpt lat="48.42847" lon="-3.88458">
        <ele>256.79998779297</ele>
        <time>2021-09-12T09:58:42Z</time>
      </trkpt>
      <trkpt lat="48.42845" lon="-3.88457">
        <ele>256.79998779297</ele>
        <time>2021-09-12T09:58:43Z</time>
      </trkpt>
      <trkpt lat="48.42843" lon="-3.88456">
        <ele>257.20001220703</ele>
        <time>2021-09-12T09:58:44Z</time>
      </trkpt>
      <trkpt lat="48.4284" lon="-3.88454">
        <ele>257.39999389648</ele>
        <time>2021-09-12T09:58:45Z</time>
      </trkpt>
      <trkpt lat="48.42838" lon="-3.88453">
        <ele>257.39999389648</ele>
        <time>2021-09-12T09:58:46Z</time>
      </trkpt>
      <trkpt lat="48.42835" lon="-3.88452">
        <ele>257.60000610352</ele>
        <time>2021-09-12T09:58:47Z</time>
      </trkpt>
      <trkpt lat="48.42834" lon="-3.88451">
        <ele>258</ele>
        <time>2021-09-12T09:58:48Z</time>
      </trkpt>
      <trkpt lat="48.42832" lon="-3.8845">
        <ele>258</ele>
        <time>2021-09-12T09:58:49Z</time>
      </trkpt>
      <trkpt lat="48.4283" lon="-3.88448">
        <ele>258.39999389648</ele>
        <time>2021-09-12T09:58:50Z</time>
      </trkpt>
      <trkpt lat="48.42827" lon="-3.88446">
        <ele>258.60000610352</ele>
        <time>2021-09-12T09:58:51Z</time>
      </trkpt>
      <trkpt lat="48.42826" lon="-3.88444">
        <ele>258.60000610352</ele>
        <time>2021-09-12T09:58:52Z</time>
      </trkpt>
      <trkpt lat="48.42824" lon="-3.88442">
        <ele>258.79998779297</ele>
        <time>2021-09-12T09:58:53Z</time>
      </trkpt>
      <trkpt lat="48.42822" lon="-3.88439">
        <ele>258.79998779297</ele>
        <time>2021-09-12T09:58:54Z</time>
      </trkpt>
      <trkpt lat="48.4282" lon="-3.88436">
        <ele>259.20001220703</ele>
        <time>2021-09-12T09:58:55Z</time>
      </trkpt>
      <trkpt lat="48.42819" lon="-3.88434">
        <ele>259.39999389648</ele>
        <time>2021-09-12T09:58:56Z</time>
      </trkpt>
      <trkpt lat="48.42818" lon="-3.88431">
        <ele>259.39999389648</ele>
        <time>2021-09-12T09:58:57Z</time>
      </trkpt>
      <trkpt lat="48.42817" lon="-3.88428">
        <ele>259.39999389648</ele>
        <time>2021-09-12T09:58:58Z</time>
      </trkpt>
      <trkpt lat="48.42815" lon="-3.88425">
        <ele>259.60000610352</ele>
        <time>2021-09-12T09:58:59Z</time>
      </trkpt>
      <trkpt lat="48.42814" lon="-3.88421">
        <ele>259.79998779297</ele>
        <time>2021-09-12T09:59:00Z</time>
      </trkpt>
      <trkpt lat="48.42812" lon="-3.88418">
        <ele>259.79998779297</ele>
        <time>2021-09-12T09:59:01Z</time>
      </trkpt>
      <trkpt lat="48.42811" lon="-3.88414">
        <ele>260</ele>
        <time>2021-09-12T09:59:02Z</time>
      </trkpt>
      <trkpt lat="48.42809" lon="-3.88412">
        <ele>260</ele>
        <time>2021-09-12T09:59:03Z</time>
      </trkpt>
      <trkpt lat="48.42807" lon="-3.88409">
        <ele>260.39999389648</ele>
        <time>2021-09-12T09:59:04Z</time>
      </trkpt>
      <trkpt lat="48.42804" lon="-3.88407">
        <ele>260.60000610352</ele>
        <time>2021-09-12T09:59:05Z</time>
      </trkpt>
      <trkpt lat="48.42801" lon="-3.88405">
        <ele>260.79998779297</ele>
        <time>2021-09-12T09:59:06Z</time>
      </trkpt>
      <trkpt lat="48.42798" lon="-3.88403">
        <ele>260.79998779297</ele>
        <time>2021-09-12T09:59:07Z</time>
      </trkpt>
      <trkpt lat="48.42796" lon="-3.88402">
        <ele>260.79998779297</ele>
        <time>2021-09-12T09:59:08Z</time>
      </trkpt>
      <trkpt lat="48.42794" lon="-3.88401">
        <ele>261</ele>
        <time>2021-09-12T09:59:09Z</time>
      </trkpt>
      <trkpt lat="48.42792" lon="-3.88399">
        <ele>261.20001220703</ele>
        <time>2021-09-12T09:59:10Z</time>
      </trkpt>
      <trkpt lat="48.4279" lon="-3.88398">
        <ele>261.39999389648</ele>
        <time>2021-09-12T09:59:11Z</time>
      </trkpt>
      <trkpt lat="48.42787" lon="-3.88397">
        <ele>261.60000610352</ele>
        <time>2021-09-12T09:59:12Z</time>
      </trkpt>
      <trkpt lat="48.42785" lon="-3.88397">
        <ele>261.79998779297</ele>
        <time>2021-09-12T09:59:13Z</time>
      </trkpt>
      <trkpt lat="48.42783" lon="-3.88396">
        <ele>262</ele>
        <time>2021-09-12T09:59:14Z</time>
      </trkpt>
      <trkpt lat="48.42781" lon="-3.88394">
        <ele>262.20001220703</ele>
        <time>2021-09-12T09:59:15Z</time>
      </trkpt>
      <trkpt lat="48.42779" lon="-3.88393">
        <ele>262.60000610352</ele>
        <time>2021-09-12T09:59:16Z</time>
      </trkpt>
      <trkpt lat="48.42777" lon="-3.88391">
        <ele>262.60000610352</ele>
        <time>2021-09-12T09:59:17Z</time>
      </trkpt>
      <trkpt lat="48.42776" lon="-3.88389">
        <ele>262.60000610352</ele>
        <time>2021-09-12T09:59:18Z</time>
      </trkpt>
      <trkpt lat="48.42774" lon="-3.88387">
        <ele>263</ele>
        <time>2021-09-12T09:59:19Z</time>
      </trkpt>
      <trkpt lat="48.42772" lon="-3.88384">
        <ele>263.20001220703</ele>
        <time>2021-09-12T09:59:20Z</time>
      </trkpt>
      <trkpt lat="48.4277" lon="-3.88381">
        <ele>263.39999389648</ele>
        <time>2021-09-12T09:59:21Z</time>
      </trkpt>
      <trkpt lat="48.42768" lon="-3.88379">
        <ele>263.60000610352</ele>
        <time>2021-09-12T09:59:22Z</time>
      </trkpt>
      <trkpt lat="48.42767" lon="-3.88376">
        <ele>263.60000610352</ele>
        <time>2021-09-12T09:59:23Z</time>
      </trkpt>
      <trkpt lat="48.42765" lon="-3.88374">
        <ele>264</ele>
        <time>2021-09-12T09:59:24Z</time>
      </trkpt>
      <trkpt lat="48.42762" lon="-3.88372">
        <ele>264</ele>
        <time>2021-09-12T09:59:25Z</time>
      </trkpt>
      <trkpt lat="48.4276" lon="-3.8837">
        <ele>264.39999389648</ele>
        <time>2021-09-12T09:59:26Z</time>
      </trkpt>
      <trkpt lat="48.42759" lon="-3.88368">
        <ele>264.39999389648</ele>
        <time>2021-09-12T09:59:27Z</time>
      </trkpt>
      <trkpt lat="48.42757" lon="-3.88367">
        <ele>264.60000610352</ele>
        <time>2021-09-12T09:59:28Z</time>
      </trkpt>
      <trkpt lat="48.42755" lon="-3.88366">
        <ele>264.79998779297</ele>
        <time>2021-09-12T09:59:29Z</time>
      </trkpt>
      <trkpt lat="48.42752" lon="-3.88364">
        <ele>264.79998779297</ele>
        <time>2021-09-12T09:59:30Z</time>
      </trkpt>
      <trkpt lat="48.4275" lon="-3.88363">
        <ele>265.20001220703</ele>
        <time>2021-09-12T09:59:31Z</time>
      </trkpt>
      <trkpt lat="48.42747" lon="-3.88362">
        <ele>265.39999389648</ele>
        <time>2021-09-12T09:59:32Z</time>
      </trkpt>
      <trkpt lat="48.42745" lon="-3.88361">
        <ele>265.39999389648</ele>
        <time>2021-09-12T09:59:33Z</time>
      </trkpt>
      <trkpt lat="48.42743" lon="-3.88361">
        <ele>265.60000610352</ele>
        <time>2021-09-12T09:59:34Z</time>
      </trkpt>
      <trkpt lat="48.4274" lon="-3.88361">
        <ele>265.79998779297</ele>
        <time>2021-09-12T09:59:35Z</time>
      </trkpt>
      <trkpt lat="48.42738" lon="-3.8836">
        <ele>266</ele>
        <time>2021-09-12T09:59:36Z</time>
      </trkpt>
      <trkpt lat="48.42735" lon="-3.8836">
        <ele>266.20001220703</ele>
        <time>2021-09-12T09:59:37Z</time>
      </trkpt>
      <trkpt lat="48.42733" lon="-3.8836">
        <ele>266.20001220703</ele>
        <time>2021-09-12T09:59:38Z</time>
      </trkpt>
      <trkpt lat="48.4273" lon="-3.88359">
        <ele>266.39999389648</ele>
        <time>2021-09-12T09:59:39Z</time>
      </trkpt>
      <trkpt lat="48.42727" lon="-3.88358">
        <ele>266.39999389648</ele>
        <time>2021-09-12T09:59:40Z</time>
      </trkpt>
      <trkpt lat="48.42725" lon="-3.88356">
        <ele>266.60000610352</ele>
        <time>2021-09-12T09:59:41Z</time>
      </trkpt>
      <trkpt lat="48.42723" lon="-3.88354">
        <ele>266.79998779297</ele>
        <time>2021-09-12T09:59:42Z</time>
      </trkpt>
      <trkpt lat="48.42721" lon="-3.88353">
        <ele>266.79998779297</ele>
        <time>2021-09-12T09:59:43Z</time>
      </trkpt>
      <trkpt lat="48.42718" lon="-3.88351">
        <ele>267.20001220703</ele>
        <time>2021-09-12T09:59:44Z</time>
      </trkpt>
      <trkpt lat="48.42716" lon="-3.88349">
        <ele>267.39999389648</ele>
        <time>2021-09-12T09:59:45Z</time>
      </trkpt>
      <trkpt lat="48.42714" lon="-3.88348">
        <ele>267.39999389648</ele>
        <time>2021-09-12T09:59:46Z</time>
      </trkpt>
      <trkpt lat="48.42711" lon="-3.88347">
        <ele>267.79998779297</ele>
        <time>2021-09-12T09:59:47Z</time>
      </trkpt>
      <trkpt lat="48.42709" lon="-3.88345">
        <ele>267.79998779297</ele>
        <time>2021-09-12T09:59:48Z</time>
      </trkpt>
      <trkpt lat="48.42707" lon="-3.88343">
        <ele>267.79998779297</ele>
        <time>2021-09-12T09:59:49Z</time>
      </trkpt>
      <trkpt lat="48.42705" lon="-3.88342">
        <ele>268</ele>
        <time>2021-09-12T09:59:50Z</time>
      </trkpt>
      <trkpt lat="48.42703" lon="-3.88339">
        <ele>268.20001220703</ele>
        <time>2021-09-12T09:59:51Z</time>
      </trkpt>
      <trkpt lat="48.42701" lon="-3.88338">
        <ele>268.39999389648</ele>
        <time>2021-09-12T09:59:52Z</time>
      </trkpt>
      <trkpt lat="48.42699" lon="-3.88336">
        <ele>268.39999389648</ele>
        <time>2021-09-12T09:59:53Z</time>
      </trkpt>
      <trkpt lat="48.42697" lon="-3.88334">
        <ele>269</ele>
        <time>2021-09-12T09:59:54Z</time>
      </trkpt>
      <trkpt lat="48.42694" lon="-3.88332">
        <ele>269</ele>
        <time>2021-09-12T09:59:55Z</time>
      </trkpt>
      <trkpt lat="48.42692" lon="-3.88329">
        <ele>269.20001220703</ele>
        <time>2021-09-12T09:59:56Z</time>
      </trkpt>
      <trkpt lat="48.42691" lon="-3.88328">
        <ele>269.20001220703</ele>
        <time>2021-09-12T09:59:57Z</time>
      </trkpt>
      <trkpt lat="48.42688" lon="-3.88326">
        <ele>269.39999389648</ele>
        <time>2021-09-12T09:59:58Z</time>
      </trkpt>
      <trkpt lat="48.42686" lon="-3.88323">
        <ele>269.39999389648</ele>
        <time>2021-09-12T09:59:59Z</time>
      </trkpt>
      <trkpt lat="48.42683" lon="-3.88322">
        <ele>269.60000610352</ele>
        <time>2021-09-12T10:00:00Z</time>
      </trkpt>
      <trkpt lat="48.42681" lon="-3.88319">
        <ele>269.79998779297</ele>
        <time>2021-09-12T10:00:01Z</time>
      </trkpt>
      <trkpt lat="48.42679" lon="-3.88317">
        <ele>269.79998779297</ele>
        <time>2021-09-12T10:00:02Z</time>
      </trkpt>
      <trkpt lat="48.42677" lon="-3.88315">
        <ele>270</ele>
        <time>2021-09-12T10:00:03Z</time>
      </trkpt>
      <trkpt lat="48.42675" lon="-3.88312">
        <ele>270</ele>
        <time>2021-09-12T10:00:04Z</time>
      </trkpt>
      <trkpt lat="48.42672" lon="-3.8831">
        <ele>270</ele>
        <time>2021-09-12T10:00:05Z</time>
      </trkpt>
      <trkpt lat="48.4267" lon="-3.88308">
        <ele>270.20001220703</ele>
        <time>2021-09-12T10:00:06Z</time>
      </trkpt>
      <trkpt lat="48.42668" lon="-3.88307">
        <ele>270.60000610352</ele>
        <time>2021-09-12T10:00:07Z</time>
      </trkpt>
      <trkpt lat="48.42666" lon="-3.88305">
        <ele>270.60000610352</ele>
        <time>2021-09-12T10:00:08Z</time>
      </trkpt>
      <trkpt lat="48.42663" lon="-3.88303">
        <ele>270.60000610352</ele>
        <time>2021-09-12T10:00:09Z</time>
      </trkpt>
      <trkpt lat="48.42661" lon="-3.88302">
        <ele>270.79998779297</ele>
        <time>2021-09-12T10:00:10Z</time>
      </trkpt>
      <trkpt lat="48.42659" lon="-3.883">
        <ele>271</ele>
        <time>2021-09-12T10:00:11Z</time>
      </trkpt>
      <trkpt lat="48.42657" lon="-3.88299">
        <ele>271</ele>
        <time>2021-09-12T10:00:12Z</time>
      </trkpt>
      <trkpt lat="48.42654" lon="-3.88297">
        <ele>271.39999389648</ele>
        <time>2021-09-12T10:00:13Z</time>
      </trkpt>
      <trkpt lat="48.42651" lon="-3.88295">
        <ele>271.60000610352</ele>
        <time>2021-09-12T10:00:14Z</time>
      </trkpt>
      <trkpt lat="48.42649" lon="-3.88292">
        <ele>272</ele>
        <time>2021-09-12T10:00:15Z</time>
      </trkpt>
      <trkpt lat="48.42647" lon="-3.8829">
        <ele>272</ele>
        <time>2021-09-12T10:00:16Z</time>
      </trkpt>
      <trkpt lat="48.42645" lon="-3.88289">
        <ele>272</ele>
        <time>2021-09-12T10:00:17Z</time>
      </trkpt>
      <trkpt lat="48.42643" lon="-3.88287">
        <ele>272.39999389648</ele>
        <time>2021-09-12T10:00:18Z</time>
      </trkpt>
      <trkpt lat="48.42641" lon="-3.88284">
        <ele>272.60000610352</ele>
        <time>2021-09-12T10:00:19Z</time>
      </trkpt>
      <trkpt lat="48.42638" lon="-3.88282">
        <ele>272.60000610352</ele>
        <time>2021-09-12T10:00:20Z</time>
      </trkpt>
      <trkpt lat="48.42635" lon="-3.8828">
        <ele>272.79998779297</ele>
        <time>2021-09-12T10:00:21Z</time>
      </trkpt>
      <trkpt lat="48.42633" lon="-3.88279">
        <ele>273</ele>
        <time>2021-09-12T10:00:22Z</time>
      </trkpt>
      <trkpt lat="48.42631" lon="-3.88277">
        <ele>273.20001220703</ele>
        <time>2021-09-12T10:00:23Z</time>
      </trkpt>
      <trkpt lat="48.42628" lon="-3.88274">
        <ele>273.39999389648</ele>
        <time>2021-09-12T10:00:24Z</time>
      </trkpt>
      <trkpt lat="48.42626" lon="-3.88272">
        <ele>273.39999389648</ele>
        <time>2021-09-12T10:00:25Z</time>
      </trkpt>
      <trkpt lat="48.42624" lon="-3.8827">
        <ele>273.79998779297</ele>
        <time>2021-09-12T10:00:26Z</time>
      </trkpt>
      <trkpt lat="48.42622" lon="-3.88269">
        <ele>274</ele>
        <time>2021-09-12T10:00:27Z</time>
      </trkpt>
      <trkpt lat="48.42621" lon="-3.88267">
        <ele>274</ele>
        <time>2021-09-12T10:00:28Z</time>
      </trkpt>
      <trkpt lat="48.42618" lon="-3.88265">
        <ele>274</ele>
        <time>2021-09-12T10:00:29Z</time>
      </trkpt>
      <trkpt lat="48.42616" lon="-3.88263">
        <ele>274.60000610352</ele>
        <time>2021-09-12T10:00:30Z</time>
      </trkpt>
      <trkpt lat="48.42613" lon="-3.88261">
        <ele>274.60000610352</ele>
        <time>2021-09-12T10:00:31Z</time>
      </trkpt>
      <trkpt lat="48.42611" lon="-3.8826">
        <ele>275</ele>
        <time>2021-09-12T10:00:32Z</time>
      </trkpt>
      <trkpt lat="48.42609" lon="-3.88258">
        <ele>275.20001220703</ele>
        <time>2021-09-12T10:00:33Z</time>
      </trkpt>
      <trkpt lat="48.42607" lon="-3.88256">
        <ele>275.39999389648</ele>
        <time>2021-09-12T10:00:34Z</time>
      </trkpt>
      <trkpt lat="48.42604" lon="-3.88254">
        <ele>275.60000610352</ele>
        <time>2021-09-12T10:00:35Z</time>
      </trkpt>
      <trkpt lat="48.42601" lon="-3.88252">
        <ele>275.79998779297</ele>
        <time>2021-09-12T10:00:36Z</time>
      </trkpt>
      <trkpt lat="48.426" lon="-3.88251">
        <ele>275.79998779297</ele>
        <time>2021-09-12T10:00:37Z</time>
      </trkpt>
      <trkpt lat="48.42597" lon="-3.88249">
        <ele>275.79998779297</ele>
        <time>2021-09-12T10:00:38Z</time>
      </trkpt>
      <trkpt lat="48.42595" lon="-3.88246">
        <ele>276</ele>
        <time>2021-09-12T10:00:39Z</time>
      </trkpt>
      <trkpt lat="48.42592" lon="-3.88244">
        <ele>276.20001220703</ele>
        <time>2021-09-12T10:00:40Z</time>
      </trkpt>
      <trkpt lat="48.4259" lon="-3.88242">
        <ele>276.60000610352</ele>
        <time>2021-09-12T10:00:41Z</time>
      </trkpt>
      <trkpt lat="48.42589" lon="-3.88241">
        <ele>276.60000610352</ele>
        <time>2021-09-12T10:00:42Z</time>
      </trkpt>
      <trkpt lat="48.42586" lon="-3.88238">
        <ele>277</ele>
        <time>2021-09-12T10:00:43Z</time>
      </trkpt>
      <trkpt lat="48.42584" lon="-3.88236">
        <ele>277</ele>
        <time>2021-09-12T10:00:44Z</time>
      </trkpt>
      <trkpt lat="48.42582" lon="-3.88234">
        <ele>277.20001220703</ele>
        <time>2021-09-12T10:00:45Z</time>
      </trkpt>
      <trkpt lat="48.4258" lon="-3.88233">
        <ele>277.39999389648</ele>
        <time>2021-09-12T10:00:46Z</time>
      </trkpt>
      <trkpt lat="48.42578" lon="-3.88231">
        <ele>277.39999389648</ele>
        <time>2021-09-12T10:00:47Z</time>
      </trkpt>
      <trkpt lat="48.42575" lon="-3.88228">
        <ele>277.60000610352</ele>
        <time>2021-09-12T10:00:48Z</time>
      </trkpt>
      <trkpt lat="48.42573" lon="-3.88226">
        <ele>277.60000610352</ele>
        <time>2021-09-12T10:00:49Z</time>
      </trkpt>
      <trkpt lat="48.42571" lon="-3.88224">
        <ele>277.79998779297</ele>
        <time>2021-09-12T10:00:50Z</time>
      </trkpt>
      <trkpt lat="48.42569" lon="-3.88222">
        <ele>278</ele>
        <time>2021-09-12T10:00:51Z</time>
      </trkpt>
      <trkpt lat="48.42567" lon="-3.8822">
        <ele>278.20001220703</ele>
        <time>2021-09-12T10:00:52Z</time>
      </trkpt>
      <trkpt lat="48.42565" lon="-3.88217">
        <ele>278.60000610352</ele>
        <time>2021-09-12T10:00:53Z</time>
      </trkpt>
      <trkpt lat="48.42563" lon="-3.88215">
        <ele>279</ele>
        <time>2021-09-12T10:00:54Z</time>
      </trkpt>
      <trkpt lat="48.42561" lon="-3.88213">
        <ele>279</ele>
        <time>2021-09-12T10:00:55Z</time>
      </trkpt>
      <trkpt lat="48.42559" lon="-3.8821">
        <ele>279.20001220703</ele>
        <time>2021-09-12T10:00:56Z</time>
      </trkpt>
      <trkpt lat="48.42557" lon="-3.88208">
        <ele>279.39999389648</ele>
        <time>2021-09-12T10:00:57Z</time>
      </trkpt>
      <trkpt lat="48.42555" lon="-3.88205">
        <ele>279.39999389648</ele>
        <time>2021-09-12T10:00:58Z</time>
      </trkpt>
      <trkpt lat="48.42553" lon="-3.88202">
        <ele>279.60000610352</ele>
        <time>2021-09-12T10:00:59Z</time>
      </trkpt>
      <trkpt lat="48.42551" lon="-3.882">
        <ele>280</ele>
        <time>2021-09-12T10:01:00Z</time>
      </trkpt>
      <trkpt lat="48.42549" lon="-3.88197">
        <ele>280</ele>
        <time>2021-09-12T10:01:01Z</time>
      </trkpt>
      <trkpt lat="48.42548" lon="-3.88195">
        <ele>280.20001220703</ele>
        <time>2021-09-12T10:01:02Z</time>
      </trkpt>
      <trkpt lat="48.42545" lon="-3.88192">
        <ele>280.39999389648</ele>
        <time>2021-09-12T10:01:03Z</time>
      </trkpt>
      <trkpt lat="48.42544" lon="-3.8819">
        <ele>280.39999389648</ele>
        <time>2021-09-12T10:01:04Z</time>
      </trkpt>
      <trkpt lat="48.42542" lon="-3.88187">
        <ele>280.60000610352</ele>
        <time>2021-09-12T10:01:05Z</time>
      </trkpt>
      <trkpt lat="48.4254" lon="-3.88184">
        <ele>280.60000610352</ele>
        <time>2021-09-12T10:01:06Z</time>
      </trkpt>
      <trkpt lat="48.42538" lon="-3.88182">
        <ele>280.79998779297</ele>
        <time>2021-09-12T10:01:07Z</time>
      </trkpt>
      <trkpt lat="48.42536" lon="-3.88178">
        <ele>281</ele>
        <time>2021-09-12T10:01:08Z</time>
      </trkpt>
      <trkpt lat="48.42534" lon="-3.88175">
        <ele>281.20001220703</ele>
        <time>2021-09-12T10:01:09Z</time>
      </trkpt>
      <trkpt lat="48.42533" lon="-3.88173">
        <ele>281.20001220703</ele>
        <time>2021-09-12T10:01:10Z</time>
      </trkpt>
      <trkpt lat="48.42531" lon="-3.8817">
        <ele>281.39999389648</ele>
        <time>2021-09-12T10:01:11Z</time>
      </trkpt>
      <trkpt lat="48.42529" lon="-3.88167">
        <ele>281.60000610352</ele>
        <time>2021-09-12T10:01:12Z</time>
      </trkpt>
      <trkpt lat="48.42527" lon="-3.88165">
        <ele>281.60000610352</ele>
        <time>2021-09-12T10:01:13Z</time>
      </trkpt>
      <trkpt lat="48.42525" lon="-3.88162">
        <ele>281.79998779297</ele>
        <time>2021-09-12T10:01:14Z</time>
      </trkpt>
      <trkpt lat="48.42524" lon="-3.8816">
        <ele>281.79998779297</ele>
        <time>2021-09-12T10:01:15Z</time>
      </trkpt>
      <trkpt lat="48.42522" lon="-3.88157">
        <ele>282</ele>
        <time>2021-09-12T10:01:16Z</time>
      </trkpt>
      <trkpt lat="48.4252" lon="-3.88155">
        <ele>282.39999389648</ele>
        <time>2021-09-12T10:01:17Z</time>
      </trkpt>
      <trkpt lat="48.42518" lon="-3.88152">
        <ele>282.39999389648</ele>
        <time>2021-09-12T10:01:18Z</time>
      </trkpt>
      <trkpt lat="48.42516" lon="-3.88149">
        <ele>282.60000610352</ele>
        <time>2021-09-12T10:01:19Z</time>
      </trkpt>
      <trkpt lat="48.42514" lon="-3.88147">
        <ele>282.79998779297</ele>
        <time>2021-09-12T10:01:20Z</time>
      </trkpt>
      <trkpt lat="48.42512" lon="-3.88143">
        <ele>282.79998779297</ele>
        <time>2021-09-12T10:01:21Z</time>
      </trkpt>
      <trkpt lat="48.4251" lon="-3.8814">
        <ele>283.20001220703</ele>
        <time>2021-09-12T10:01:22Z</time>
      </trkpt>
      <trkpt lat="48.42508" lon="-3.88138">
        <ele>283.60000610352</ele>
        <time>2021-09-12T10:01:23Z</time>
      </trkpt>
      <trkpt lat="48.42506" lon="-3.88135">
        <ele>283.60000610352</ele>
        <time>2021-09-12T10:01:24Z</time>
      </trkpt>
      <trkpt lat="48.42505" lon="-3.88133">
        <ele>283.79998779297</ele>
        <time>2021-09-12T10:01:25Z</time>
      </trkpt>
      <trkpt lat="48.42503" lon="-3.88131">
        <ele>283.79998779297</ele>
        <time>2021-09-12T10:01:26Z</time>
      </trkpt>
      <trkpt lat="48.42501" lon="-3.88128">
        <ele>284</ele>
        <time>2021-09-12T10:01:27Z</time>
      </trkpt>
      <trkpt lat="48.42499" lon="-3.88125">
        <ele>284.20001220703</ele>
        <time>2021-09-12T10:01:28Z</time>
      </trkpt>
      <trkpt lat="48.42497" lon="-3.88123">
        <ele>284.39999389648</ele>
        <time>2021-09-12T10:01:29Z</time>
      </trkpt>
      <trkpt lat="48.42496" lon="-3.88121">
        <ele>284.60000610352</ele>
        <time>2021-09-12T10:01:30Z</time>
      </trkpt>
      <trkpt lat="48.42494" lon="-3.88119">
        <ele>284.79998779297</ele>
        <time>2021-09-12T10:01:31Z</time>
      </trkpt>
      <trkpt lat="48.42491" lon="-3.88116">
        <ele>284.79998779297</ele>
        <time>2021-09-12T10:01:32Z</time>
      </trkpt>
      <trkpt lat="48.42489" lon="-3.88114">
        <ele>284.79998779297</ele>
        <time>2021-09-12T10:01:33Z</time>
      </trkpt>
      <trkpt lat="48.42488" lon="-3.88112">
        <ele>285</ele>
        <time>2021-09-12T10:01:34Z</time>
      </trkpt>
      <trkpt lat="48.42486" lon="-3.8811">
        <ele>285.20001220703</ele>
        <time>2021-09-12T10:01:35Z</time>
      </trkpt>
      <trkpt lat="48.42484" lon="-3.88107">
        <ele>285.60000610352</ele>
        <time>2021-09-12T10:01:36Z</time>
      </trkpt>
      <trkpt lat="48.42482" lon="-3.88104">
        <ele>285.60000610352</ele>
        <time>2021-09-12T10:01:37Z</time>
      </trkpt>
      <trkpt lat="48.4248" lon="-3.88102">
        <ele>285.79998779297</ele>
        <time>2021-09-12T10:01:38Z</time>
      </trkpt>
      <trkpt lat="48.42478" lon="-3.88101">
        <ele>286</ele>
        <time>2021-09-12T10:01:39Z</time>
      </trkpt>
      <trkpt lat="48.42477" lon="-3.88098">
        <ele>286.20001220703</ele>
        <time>2021-09-12T10:01:40Z</time>
      </trkpt>
      <trkpt lat="48.42474" lon="-3.88095">
        <ele>286.39999389648</ele>
        <time>2021-09-12T10:01:41Z</time>
      </trkpt>
      <trkpt lat="48.42472" lon="-3.88093">
        <ele>287</ele>
        <time>2021-09-12T10:01:42Z</time>
      </trkpt>
      <trkpt lat="48.4247" lon="-3.8809">
        <ele>287</ele>
        <time>2021-09-12T10:01:43Z</time>
      </trkpt>
      <trkpt lat="48.42469" lon="-3.88089">
        <ele>287</ele>
        <time>2021-09-12T10:01:44Z</time>
      </trkpt>
      <trkpt lat="48.42467" lon="-3.88086">
        <ele>287.39999389648</ele>
        <time>2021-09-12T10:01:45Z</time>
      </trkpt>
      <trkpt lat="48.42464" lon="-3.88083">
        <ele>287.60000610352</ele>
        <time>2021-09-12T10:01:46Z</time>
      </trkpt>
      <trkpt lat="48.42463" lon="-3.88081">
        <ele>287.60000610352</ele>
        <time>2021-09-12T10:01:47Z</time>
      </trkpt>
      <trkpt lat="48.4246" lon="-3.88079">
        <ele>288</ele>
        <time>2021-09-12T10:01:48Z</time>
      </trkpt>
      <trkpt lat="48.42458" lon="-3.88077">
        <ele>288</ele>
        <time>2021-09-12T10:01:49Z</time>
      </trkpt>
      <trkpt lat="48.42456" lon="-3.88075">
        <ele>288</ele>
        <time>2021-09-12T10:01:50Z</time>
      </trkpt>
      <trkpt lat="48.42453" lon="-3.88073">
        <ele>288.20001220703</ele>
        <time>2021-09-12T10:01:51Z</time>
      </trkpt>
      <trkpt lat="48.42451" lon="-3.8807">
        <ele>288.20001220703</ele>
        <time>2021-09-12T10:01:52Z</time>
      </trkpt>
      <trkpt lat="48.4245" lon="-3.88068">
        <ele>288.39999389648</ele>
        <time>2021-09-12T10:01:53Z</time>
      </trkpt>
      <trkpt lat="48.42448" lon="-3.88065">
        <ele>288.39999389648</ele>
        <time>2021-09-12T10:01:54Z</time>
      </trkpt>
      <trkpt lat="48.42446" lon="-3.88061">
        <ele>288.60000610352</ele>
        <time>2021-09-12T10:01:55Z</time>
      </trkpt>
      <trkpt lat="48.42444" lon="-3.88058">
        <ele>288.60000610352</ele>
        <time>2021-09-12T10:01:56Z</time>
      </trkpt>
      <trkpt lat="48.42443" lon="-3.88055">
        <ele>288.79998779297</ele>
        <time>2021-09-12T10:01:57Z</time>
      </trkpt>
      <trkpt lat="48.42442" lon="-3.88052">
        <ele>289</ele>
        <time>2021-09-12T10:01:58Z</time>
      </trkpt>
      <trkpt lat="48.42441" lon="-3.88049">
        <ele>289</ele>
        <time>2021-09-12T10:01:59Z</time>
      </trkpt>
      <trkpt lat="48.4244" lon="-3.88046">
        <ele>289.20001220703</ele>
        <time>2021-09-12T10:02:00Z</time>
      </trkpt>
      <trkpt lat="48.42438" lon="-3.88042">
        <ele>289.39999389648</ele>
        <time>2021-09-12T10:02:01Z</time>
      </trkpt>
      <trkpt lat="48.42437" lon="-3.88039">
        <ele>289.60000610352</ele>
        <time>2021-09-12T10:02:02Z</time>
      </trkpt>
      <trkpt lat="48.42435" lon="-3.88036">
        <ele>289.60000610352</ele>
        <time>2021-09-12T10:02:03Z</time>
      </trkpt>
      <trkpt lat="48.42434" lon="-3.88033">
        <ele>289.60000610352</ele>
        <time>2021-09-12T10:02:04Z</time>
      </trkpt>
      <trkpt lat="48.42431" lon="-3.8803">
        <ele>289.79998779297</ele>
        <time>2021-09-12T10:02:05Z</time>
      </trkpt>
      <trkpt lat="48.42429" lon="-3.88027">
        <ele>290.20001220703</ele>
        <time>2021-09-12T10:02:06Z</time>
      </trkpt>
      <trkpt lat="48.42427" lon="-3.88025">
        <ele>290.20001220703</ele>
        <time>2021-09-12T10:02:07Z</time>
      </trkpt>
      <trkpt lat="48.42425" lon="-3.88022">
        <ele>290.20001220703</ele>
        <time>2021-09-12T10:02:08Z</time>
      </trkpt>
      <trkpt lat="48.42423" lon="-3.8802">
        <ele>290.20001220703</ele>
        <time>2021-09-12T10:02:09Z</time>
      </trkpt>
      <trkpt lat="48.42421" lon="-3.88017">
        <ele>290.20001220703</ele>
        <time>2021-09-12T10:02:10Z</time>
      </trkpt>
      <trkpt lat="48.42418" lon="-3.88013">
        <ele>290.39999389648</ele>
        <time>2021-09-12T10:02:11Z</time>
      </trkpt>
      <trkpt lat="48.42416" lon="-3.88011">
        <ele>290.39999389648</ele>
        <time>2021-09-12T10:02:12Z</time>
      </trkpt>
      <trkpt lat="48.42414" lon="-3.88008">
        <ele>290.60000610352</ele>
        <time>2021-09-12T10:02:13Z</time>
      </trkpt>
      <trkpt lat="48.42412" lon="-3.88005">
        <ele>290.79998779297</ele>
        <time>2021-09-12T10:02:14Z</time>
      </trkpt>
      <trkpt lat="48.42409" lon="-3.88002">
        <ele>291</ele>
        <time>2021-09-12T10:02:15Z</time>
      </trkpt>
      <trkpt lat="48.42407" lon="-3.87999">
        <ele>291</ele>
        <time>2021-09-12T10:02:16Z</time>
      </trkpt>
      <trkpt lat="48.42406" lon="-3.87997">
        <ele>291</ele>
        <time>2021-09-12T10:02:17Z</time>
      </trkpt>
      <trkpt lat="48.42404" lon="-3.87994">
        <ele>291</ele>
        <time>2021-09-12T10:02:18Z</time>
      </trkpt>
      <trkpt lat="48.42401" lon="-3.87991">
        <ele>291</ele>
        <time>2021-09-12T10:02:19Z</time>
      </trkpt>
      <trkpt lat="48.42399" lon="-3.87988">
        <ele>291.39999389648</ele>
        <time>2021-09-12T10:02:20Z</time>
      </trkpt>
      <trkpt lat="48.42397" lon="-3.87985">
        <ele>291.39999389648</ele>
        <time>2021-09-12T10:02:21Z</time>
      </trkpt>
      <trkpt lat="48.42395" lon="-3.87983">
        <ele>291.39999389648</ele>
        <time>2021-09-12T10:02:22Z</time>
      </trkpt>
      <trkpt lat="48.42393" lon="-3.8798">
        <ele>291.60000610352</ele>
        <time>2021-09-12T10:02:23Z</time>
      </trkpt>
      <trkpt lat="48.4239" lon="-3.87977">
        <ele>291.60000610352</ele>
        <time>2021-09-12T10:02:24Z</time>
      </trkpt>
      <trkpt lat="48.42387" lon="-3.87973">
        <ele>291.79998779297</ele>
        <time>2021-09-12T10:02:25Z</time>
      </trkpt>
      <trkpt lat="48.42385" lon="-3.8797">
        <ele>291.79998779297</ele>
        <time>2021-09-12T10:02:26Z</time>
      </trkpt>
      <trkpt lat="48.42383" lon="-3.87967">
        <ele>291.79998779297</ele>
        <time>2021-09-12T10:02:27Z</time>
      </trkpt>
      <trkpt lat="48.42381" lon="-3.87964">
        <ele>291.79998779297</ele>
        <time>2021-09-12T10:02:28Z</time>
      </trkpt>
      <trkpt lat="48.42379" lon="-3.8796">
        <ele>292</ele>
        <time>2021-09-12T10:02:29Z</time>
      </trkpt>
      <trkpt lat="48.42377" lon="-3.87957">
        <ele>292</ele>
        <time>2021-09-12T10:02:30Z</time>
      </trkpt>
      <trkpt lat="48.42375" lon="-3.87953">
        <ele>292.20001220703</ele>
        <time>2021-09-12T10:02:31Z</time>
      </trkpt>
      <trkpt lat="48.42373" lon="-3.87951">
        <ele>292.20001220703</ele>
        <time>2021-09-12T10:02:32Z</time>
      </trkpt>
      <trkpt lat="48.42371" lon="-3.87948">
        <ele>292.39999389648</ele>
        <time>2021-09-12T10:02:33Z</time>
      </trkpt>
      <trkpt lat="48.42369" lon="-3.87945">
        <ele>292.39999389648</ele>
        <time>2021-09-12T10:02:34Z</time>
      </trkpt>
      <trkpt lat="48.42366" lon="-3.87941">
        <ele>292.60000610352</ele>
        <time>2021-09-12T10:02:35Z</time>
      </trkpt>
      <trkpt lat="48.42364" lon="-3.87938">
        <ele>292.79998779297</ele>
        <time>2021-09-12T10:02:36Z</time>
      </trkpt>
      <trkpt lat="48.42362" lon="-3.87935">
        <ele>293.20001220703</ele>
        <time>2021-09-12T10:02:37Z</time>
      </trkpt>
      <trkpt lat="48.42359" lon="-3.87932">
        <ele>293.20001220703</ele>
        <time>2021-09-12T10:02:38Z</time>
      </trkpt>
      <trkpt lat="48.42356" lon="-3.87929">
        <ele>293.20001220703</ele>
        <time>2021-09-12T10:02:39Z</time>
      </trkpt>
      <trkpt lat="48.42355" lon="-3.87926">
        <ele>293.20001220703</ele>
        <time>2021-09-12T10:02:40Z</time>
      </trkpt>
      <trkpt lat="48.42353" lon="-3.87924">
        <ele>293.20001220703</ele>
        <time>2021-09-12T10:02:41Z</time>
      </trkpt>
      <trkpt lat="48.4235" lon="-3.8792">
        <ele>293.20001220703</ele>
        <time>2021-09-12T10:02:42Z</time>
      </trkpt>
      <trkpt lat="48.42348" lon="-3.87916">
        <ele>293.60000610352</ele>
        <time>2021-09-12T10:02:43Z</time>
      </trkpt>
      <trkpt lat="48.42346" lon="-3.87913">
        <ele>293.60000610352</ele>
        <time>2021-09-12T10:02:44Z</time>
      </trkpt>
      <trkpt lat="48.42344" lon="-3.8791">
        <ele>293.79998779297</ele>
        <time>2021-09-12T10:02:45Z</time>
      </trkpt>
      <trkpt lat="48.42342" lon="-3.87908">
        <ele>294</ele>
        <time>2021-09-12T10:02:46Z</time>
      </trkpt>
      <trkpt lat="48.4234" lon="-3.87905">
        <ele>294</ele>
        <time>2021-09-12T10:02:47Z</time>
      </trkpt>
      <trkpt lat="48.42338" lon="-3.87902">
        <ele>294.20001220703</ele>
        <time>2021-09-12T10:02:48Z</time>
      </trkpt>
      <trkpt lat="48.42335" lon="-3.87899">
        <ele>294.20001220703</ele>
        <time>2021-09-12T10:02:49Z</time>
      </trkpt>
      <trkpt lat="48.42333" lon="-3.87896">
        <ele>294.20001220703</ele>
        <time>2021-09-12T10:02:50Z</time>
      </trkpt>
      <trkpt lat="48.42331" lon="-3.87893">
        <ele>294.60000610352</ele>
        <time>2021-09-12T10:02:51Z</time>
      </trkpt>
      <trkpt lat="48.42329" lon="-3.8789">
        <ele>294.60000610352</ele>
        <time>2021-09-12T10:02:52Z</time>
      </trkpt>
      <trkpt lat="48.42327" lon="-3.87886">
        <ele>294.79998779297</ele>
        <time>2021-09-12T10:02:53Z</time>
      </trkpt>
      <trkpt lat="48.42324" lon="-3.87883">
        <ele>294.79998779297</ele>
        <time>2021-09-12T10:02:54Z</time>
      </trkpt>
      <trkpt lat="48.42322" lon="-3.8788">
        <ele>294.79998779297</ele>
        <time>2021-09-12T10:02:55Z</time>
      </trkpt>
      <trkpt lat="48.42321" lon="-3.87877">
        <ele>295</ele>
        <time>2021-09-12T10:02:56Z</time>
      </trkpt>
      <trkpt lat="48.42319" lon="-3.87874">
        <ele>295.20001220703</ele>
        <time>2021-09-12T10:02:57Z</time>
      </trkpt>
      <trkpt lat="48.42316" lon="-3.8787">
        <ele>295.20001220703</ele>
        <time>2021-09-12T10:02:58Z</time>
      </trkpt>
      <trkpt lat="48.42314" lon="-3.87867">
        <ele>295.39999389648</ele>
        <time>2021-09-12T10:02:59Z</time>
      </trkpt>
      <trkpt lat="48.42312" lon="-3.87864">
        <ele>295.39999389648</ele>
        <time>2021-09-12T10:03:00Z</time>
      </trkpt>
      <trkpt lat="48.4231" lon="-3.87861">
        <ele>295.60000610352</ele>
        <time>2021-09-12T10:03:01Z</time>
      </trkpt>
      <trkpt lat="48.42308" lon="-3.87858">
        <ele>295.60000610352</ele>
        <time>2021-09-12T10:03:02Z</time>
      </trkpt>
      <trkpt lat="48.42305" lon="-3.87854">
        <ele>295.79998779297</ele>
        <time>2021-09-12T10:03:03Z</time>
      </trkpt>
      <trkpt lat="48.42303" lon="-3.87852">
        <ele>295.79998779297</ele>
        <time>2021-09-12T10:03:04Z</time>
      </trkpt>
      <trkpt lat="48.42301" lon="-3.8785">
        <ele>295.79998779297</ele>
        <time>2021-09-12T10:03:05Z</time>
      </trkpt>
      <trkpt lat="48.42299" lon="-3.87847">
        <ele>296</ele>
        <time>2021-09-12T10:03:06Z</time>
      </trkpt>
      <trkpt lat="48.42297" lon="-3.87844">
        <ele>296.39999389648</ele>
        <time>2021-09-12T10:03:07Z</time>
      </trkpt>
      <trkpt lat="48.42294" lon="-3.87841">
        <ele>296.79998779297</ele>
        <time>2021-09-12T10:03:08Z</time>
      </trkpt>
      <trkpt lat="48.42292" lon="-3.87838">
        <ele>297</ele>
        <time>2021-09-12T10:03:09Z</time>
      </trkpt>
      <trkpt lat="48.42291" lon="-3.87836">
        <ele>297</ele>
        <time>2021-09-12T10:03:10Z</time>
      </trkpt>
      <trkpt lat="48.42289" lon="-3.87833">
        <ele>297.20001220703</ele>
        <time>2021-09-12T10:03:11Z</time>
      </trkpt>
      <trkpt lat="48.42286" lon="-3.8783">
        <ele>297.20001220703</ele>
        <time>2021-09-12T10:03:12Z</time>
      </trkpt>
      <trkpt lat="48.42283" lon="-3.87827">
        <ele>297.20001220703</ele>
        <time>2021-09-12T10:03:13Z</time>
      </trkpt>
      <trkpt lat="48.42281" lon="-3.87825">
        <ele>297.39999389648</ele>
        <time>2021-09-12T10:03:14Z</time>
      </trkpt>
      <trkpt lat="48.42279" lon="-3.87823">
        <ele>297.60000610352</ele>
        <time>2021-09-12T10:03:15Z</time>
      </trkpt>
      <trkpt lat="48.42277" lon="-3.87821">
        <ele>297.60000610352</ele>
        <time>2021-09-12T10:03:16Z</time>
      </trkpt>
      <trkpt lat="48.42274" lon="-3.87818">
        <ele>297.79998779297</ele>
        <time>2021-09-12T10:03:17Z</time>
      </trkpt>
      <trkpt lat="48.42272" lon="-3.87816">
        <ele>298.39999389648</ele>
        <time>2021-09-12T10:03:18Z</time>
      </trkpt>
      <trkpt lat="48.4227" lon="-3.87813">
        <ele>298.39999389648</ele>
        <time>2021-09-12T10:03:19Z</time>
      </trkpt>
      <trkpt lat="48.42269" lon="-3.87811">
        <ele>298.60000610352</ele>
        <time>2021-09-12T10:03:20Z</time>
      </trkpt>
      <trkpt lat="48.42267" lon="-3.87809">
        <ele>298.60000610352</ele>
        <time>2021-09-12T10:03:21Z</time>
      </trkpt>
      <trkpt lat="48.42265" lon="-3.87806">
        <ele>298.79998779297</ele>
        <time>2021-09-12T10:03:22Z</time>
      </trkpt>
      <trkpt lat="48.42263" lon="-3.87802">
        <ele>299</ele>
        <time>2021-09-12T10:03:23Z</time>
      </trkpt>
      <trkpt lat="48.42262" lon="-3.878">
        <ele>299</ele>
        <time>2021-09-12T10:03:24Z</time>
      </trkpt>
      <trkpt lat="48.4226" lon="-3.87797">
        <ele>299.20001220703</ele>
        <time>2021-09-12T10:03:25Z</time>
      </trkpt>
      <trkpt lat="48.42258" lon="-3.87794">
        <ele>299.39999389648</ele>
        <time>2021-09-12T10:03:26Z</time>
      </trkpt>
      <trkpt lat="48.42256" lon="-3.87791">
        <ele>299.39999389648</ele>
        <time>2021-09-12T10:03:27Z</time>
      </trkpt>
      <trkpt lat="48.42254" lon="-3.87789">
        <ele>299.60000610352</ele>
        <time>2021-09-12T10:03:28Z</time>
      </trkpt>
      <trkpt lat="48.42252" lon="-3.87787">
        <ele>299.60000610352</ele>
        <time>2021-09-12T10:03:29Z</time>
      </trkpt>
      <trkpt lat="48.42251" lon="-3.87785">
        <ele>300</ele>
        <time>2021-09-12T10:03:30Z</time>
      </trkpt>
      <trkpt lat="48.42249" lon="-3.87782">
        <ele>300.20001220703</ele>
        <time>2021-09-12T10:03:31Z</time>
      </trkpt>
      <trkpt lat="48.42247" lon="-3.8778">
        <ele>300.20001220703</ele>
        <time>2021-09-12T10:03:32Z</time>
      </trkpt>
      <trkpt lat="48.42245" lon="-3.87777">
        <ele>300.39999389648</ele>
        <time>2021-09-12T10:03:33Z</time>
      </trkpt>
      <trkpt lat="48.42243" lon="-3.87775">
        <ele>300.39999389648</ele>
        <time>2021-09-12T10:03:34Z</time>
      </trkpt>
      <trkpt lat="48.4224" lon="-3.87772">
        <ele>300.39999389648</ele>
        <time>2021-09-12T10:03:35Z</time>
      </trkpt>
      <trkpt lat="48.42238" lon="-3.87769">
        <ele>300.79998779297</ele>
        <time>2021-09-12T10:03:36Z</time>
      </trkpt>
      <trkpt lat="48.42235" lon="-3.87767">
        <ele>301</ele>
        <time>2021-09-12T10:03:37Z</time>
      </trkpt>
      <trkpt lat="48.42233" lon="-3.87763">
        <ele>301</ele>
        <time>2021-09-12T10:03:38Z</time>
      </trkpt>
      <trkpt lat="48.42232" lon="-3.8776">
        <ele>301</ele>
        <time>2021-09-12T10:03:39Z</time>
      </trkpt>
      <trkpt lat="48.4223" lon="-3.87757">
        <ele>301.20001220703</ele>
        <time>2021-09-12T10:03:40Z</time>
      </trkpt>
      <trkpt lat="48.42228" lon="-3.87754">
        <ele>301.20001220703</ele>
        <time>2021-09-12T10:03:41Z</time>
      </trkpt>
      <trkpt lat="48.42226" lon="-3.8775">
        <ele>301.20001220703</ele>
        <time>2021-09-12T10:03:42Z</time>
      </trkpt>
      <trkpt lat="48.42225" lon="-3.87748">
        <ele>301.60000610352</ele>
        <time>2021-09-12T10:03:43Z</time>
      </trkpt>
      <trkpt lat="48.42223" lon="-3.87746">
        <ele>301.60000610352</ele>
        <time>2021-09-12T10:03:44Z</time>
      </trkpt>
      <trkpt lat="48.42221" lon="-3.87744">
        <ele>301.79998779297</ele>
        <time>2021-09-12T10:03:45Z</time>
      </trkpt>
      <trkpt lat="48.42219" lon="-3.87741">
        <ele>302</ele>
        <time>2021-09-12T10:03:46Z</time>
      </trkpt>
      <trkpt lat="48.42217" lon="-3.87739">
        <ele>302</ele>
        <time>2021-09-12T10:03:47Z</time>
      </trkpt>
      <trkpt lat="48.42216" lon="-3.87737">
        <ele>302.20001220703</ele>
        <time>2021-09-12T10:03:48Z</time>
      </trkpt>
      <trkpt lat="48.42213" lon="-3.87734">
        <ele>302.39999389648</ele>
        <time>2021-09-12T10:03:49Z</time>
      </trkpt>
      <trkpt lat="48.42211" lon="-3.87731">
        <ele>302.39999389648</ele>
        <time>2021-09-12T10:03:50Z</time>
      </trkpt>
      <trkpt lat="48.4221" lon="-3.87728">
        <ele>302.39999389648</ele>
        <time>2021-09-12T10:03:51Z</time>
      </trkpt>
      <trkpt lat="48.42208" lon="-3.87725">
        <ele>302.79998779297</ele>
        <time>2021-09-12T10:03:52Z</time>
      </trkpt>
      <trkpt lat="48.42206" lon="-3.87723">
        <ele>302.79998779297</ele>
        <time>2021-09-12T10:03:53Z</time>
      </trkpt>
      <trkpt lat="48.42205" lon="-3.87721">
        <ele>303</ele>
        <time>2021-09-12T10:03:54Z</time>
      </trkpt>
      <trkpt lat="48.42203" lon="-3.87718">
        <ele>303.20001220703</ele>
        <time>2021-09-12T10:03:55Z</time>
      </trkpt>
      <trkpt lat="48.42201" lon="-3.87715">
        <ele>303.20001220703</ele>
        <time>2021-09-12T10:03:56Z</time>
      </trkpt>
      <trkpt lat="48.422" lon="-3.87712">
        <ele>303.60000610352</ele>
        <time>2021-09-12T10:03:57Z</time>
      </trkpt>
      <trkpt lat="48.42198" lon="-3.87709">
        <ele>303.60000610352</ele>
        <time>2021-09-12T10:03:58Z</time>
      </trkpt>
      <trkpt lat="48.42196" lon="-3.87706">
        <ele>303.79998779297</ele>
        <time>2021-09-12T10:03:59Z</time>
      </trkpt>
      <trkpt lat="48.42194" lon="-3.87703">
        <ele>303.79998779297</ele>
        <time>2021-09-12T10:04:00Z</time>
      </trkpt>
      <trkpt lat="48.42192" lon="-3.877">
        <ele>304</ele>
        <time>2021-09-12T10:04:01Z</time>
      </trkpt>
      <trkpt lat="48.4219" lon="-3.87695">
        <ele>304</ele>
        <time>2021-09-12T10:04:02Z</time>
      </trkpt>
      <trkpt lat="48.42188" lon="-3.87694">
        <ele>304</ele>
        <time>2021-09-12T10:04:03Z</time>
      </trkpt>
      <trkpt lat="48.42187" lon="-3.87691">
        <ele>304.79998779297</ele>
        <time>2021-09-12T10:04:04Z</time>
      </trkpt>
      <trkpt lat="48.42185" lon="-3.87688">
        <ele>304.79998779297</ele>
        <time>2021-09-12T10:04:05Z</time>
      </trkpt>
      <trkpt lat="48.42183" lon="-3.87684">
        <ele>304.79998779297</ele>
        <time>2021-09-12T10:04:06Z</time>
      </trkpt>
      <trkpt lat="48.42181" lon="-3.87681">
        <ele>304.79998779297</ele>
        <time>2021-09-12T10:04:07Z</time>
      </trkpt>
      <trkpt lat="48.4218" lon="-3.87677">
        <ele>304.79998779297</ele>
        <time>2021-09-12T10:04:08Z</time>
      </trkpt>
      <trkpt lat="48.42178" lon="-3.87674">
        <ele>305</ele>
        <time>2021-09-12T10:04:09Z</time>
      </trkpt>
      <trkpt lat="48.42176" lon="-3.8767">
        <ele>305.20001220703</ele>
        <time>2021-09-12T10:04:10Z</time>
      </trkpt>
      <trkpt lat="48.42175" lon="-3.87666">
        <ele>305.20001220703</ele>
        <time>2021-09-12T10:04:11Z</time>
      </trkpt>
      <trkpt lat="48.42173" lon="-3.87663">
        <ele>305.20001220703</ele>
        <time>2021-09-12T10:04:12Z</time>
      </trkpt>
      <trkpt lat="48.42171" lon="-3.87659">
        <ele>305.79998779297</ele>
        <time>2021-09-12T10:04:13Z</time>
      </trkpt>
      <trkpt lat="48.4217" lon="-3.87655">
        <ele>305.79998779297</ele>
        <time>2021-09-12T10:04:14Z</time>
      </trkpt>
      <trkpt lat="48.42168" lon="-3.87652">
        <ele>305.79998779297</ele>
        <time>2021-09-12T10:04:15Z</time>
      </trkpt>
      <trkpt lat="48.42167" lon="-3.87649">
        <ele>306</ele>
        <time>2021-09-12T10:04:16Z</time>
      </trkpt>
      <trkpt lat="48.42165" lon="-3.87646">
        <ele>306</ele>
        <time>2021-09-12T10:04:17Z</time>
      </trkpt>
      <trkpt lat="48.42163" lon="-3.87644">
        <ele>306.60000610352</ele>
        <time>2021-09-12T10:04:18Z</time>
      </trkpt>
      <trkpt lat="48.42161" lon="-3.87641">
        <ele>306.60000610352</ele>
        <time>2021-09-12T10:04:19Z</time>
      </trkpt>
      <trkpt lat="48.42159" lon="-3.87638">
        <ele>306.79998779297</ele>
        <time>2021-09-12T10:04:20Z</time>
      </trkpt>
      <trkpt lat="48.42158" lon="-3.87636">
        <ele>306.79998779297</ele>
        <time>2021-09-12T10:04:21Z</time>
      </trkpt>
      <trkpt lat="48.42156" lon="-3.87634">
        <ele>307</ele>
        <time>2021-09-12T10:04:22Z</time>
      </trkpt>
      <trkpt lat="48.42154" lon="-3.87631">
        <ele>307</ele>
        <time>2021-09-12T10:04:23Z</time>
      </trkpt>
      <trkpt lat="48.42152" lon="-3.87629">
        <ele>307.39999389648</ele>
        <time>2021-09-12T10:04:24Z</time>
      </trkpt>
      <trkpt lat="48.42149" lon="-3.87626">
        <ele>307.79998779297</ele>
        <time>2021-09-12T10:04:25Z</time>
      </trkpt>
      <trkpt lat="48.42147" lon="-3.87624">
        <ele>307.79998779297</ele>
        <time>2021-09-12T10:04:26Z</time>
      </trkpt>
      <trkpt lat="48.42145" lon="-3.87621">
        <ele>308.20001220703</ele>
        <time>2021-09-12T10:04:27Z</time>
      </trkpt>
      <trkpt lat="48.42143" lon="-3.87619">
        <ele>308.20001220703</ele>
        <time>2021-09-12T10:04:28Z</time>
      </trkpt>
      <trkpt lat="48.42141" lon="-3.87617">
        <ele>308.39999389648</ele>
        <time>2021-09-12T10:04:29Z</time>
      </trkpt>
      <trkpt lat="48.42139" lon="-3.87615">
        <ele>308.60000610352</ele>
        <time>2021-09-12T10:04:30Z</time>
      </trkpt>
      <trkpt lat="48.42138" lon="-3.87614">
        <ele>308.60000610352</ele>
        <time>2021-09-12T10:04:31Z</time>
      </trkpt>
      <trkpt lat="48.42136" lon="-3.87612">
        <ele>308.79998779297</ele>
        <time>2021-09-12T10:04:32Z</time>
      </trkpt>
      <trkpt lat="48.42134" lon="-3.8761">
        <ele>309</ele>
        <time>2021-09-12T10:04:33Z</time>
      </trkpt>
      <trkpt lat="48.42132" lon="-3.87609">
        <ele>309.20001220703</ele>
        <time>2021-09-12T10:04:34Z</time>
      </trkpt>
      <trkpt lat="48.4213" lon="-3.87607">
        <ele>309.39999389648</ele>
        <time>2021-09-12T10:04:35Z</time>
      </trkpt>
      <trkpt lat="48.42128" lon="-3.87605">
        <ele>309.79998779297</ele>
        <time>2021-09-12T10:04:36Z</time>
      </trkpt>
      <trkpt lat="48.42126" lon="-3.87603">
        <ele>309.79998779297</ele>
        <time>2021-09-12T10:04:37Z</time>
      </trkpt>
      <trkpt lat="48.42124" lon="-3.87601">
        <ele>310</ele>
        <time>2021-09-12T10:04:38Z</time>
      </trkpt>
      <trkpt lat="48.42123" lon="-3.87599">
        <ele>310.20001220703</ele>
        <time>2021-09-12T10:04:39Z</time>
      </trkpt>
      <trkpt lat="48.42121" lon="-3.87596">
        <ele>310.39999389648</ele>
        <time>2021-09-12T10:04:40Z</time>
      </trkpt>
      <trkpt lat="48.42119" lon="-3.87594">
        <ele>310.39999389648</ele>
        <time>2021-09-12T10:04:41Z</time>
      </trkpt>
      <trkpt lat="48.42117" lon="-3.87593">
        <ele>310.79998779297</ele>
        <time>2021-09-12T10:04:42Z</time>
      </trkpt>
      <trkpt lat="48.42116" lon="-3.87591">
        <ele>310.79998779297</ele>
        <time>2021-09-12T10:04:43Z</time>
      </trkpt>
      <trkpt lat="48.42114" lon="-3.87588">
        <ele>311</ele>
        <time>2021-09-12T10:04:44Z</time>
      </trkpt>
      <trkpt lat="48.42112" lon="-3.87587">
        <ele>311.20001220703</ele>
        <time>2021-09-12T10:04:45Z</time>
      </trkpt>
      <trkpt lat="48.4211" lon="-3.87586">
        <ele>311.39999389648</ele>
        <time>2021-09-12T10:04:46Z</time>
      </trkpt>
      <trkpt lat="48.42108" lon="-3.87584">
        <ele>311.79998779297</ele>
        <time>2021-09-12T10:04:47Z</time>
      </trkpt>
      <trkpt lat="48.42105" lon="-3.87582">
        <ele>312</ele>
        <time>2021-09-12T10:04:48Z</time>
      </trkpt>
      <trkpt lat="48.42103" lon="-3.87579">
        <ele>312</ele>
        <time>2021-09-12T10:04:49Z</time>
      </trkpt>
      <trkpt lat="48.42101" lon="-3.87577">
        <ele>312.39999389648</ele>
        <time>2021-09-12T10:04:50Z</time>
      </trkpt>
      <trkpt lat="48.42099" lon="-3.87573">
        <ele>312.39999389648</ele>
        <time>2021-09-12T10:04:51Z</time>
      </trkpt>
      <trkpt lat="48.42098" lon="-3.87571">
        <ele>312.60000610352</ele>
        <time>2021-09-12T10:04:52Z</time>
      </trkpt>
      <trkpt lat="48.42096" lon="-3.87569">
        <ele>312.60000610352</ele>
        <time>2021-09-12T10:04:53Z</time>
      </trkpt>
      <trkpt lat="48.42094" lon="-3.87566">
        <ele>312.79998779297</ele>
        <time>2021-09-12T10:04:54Z</time>
      </trkpt>
      <trkpt lat="48.42092" lon="-3.87564">
        <ele>313</ele>
        <time>2021-09-12T10:04:55Z</time>
      </trkpt>
      <trkpt lat="48.42089" lon="-3.87562">
        <ele>313</ele>
        <time>2021-09-12T10:04:56Z</time>
      </trkpt>
      <trkpt lat="48.42087" lon="-3.8756">
        <ele>313.20001220703</ele>
        <time>2021-09-12T10:04:57Z</time>
      </trkpt>
      <trkpt lat="48.42085" lon="-3.87558">
        <ele>313.39999389648</ele>
        <time>2021-09-12T10:04:58Z</time>
      </trkpt>
      <trkpt lat="48.42084" lon="-3.87556">
        <ele>313.60000610352</ele>
        <time>2021-09-12T10:04:59Z</time>
      </trkpt>
      <trkpt lat="48.42082" lon="-3.87554">
        <ele>314.20001220703</ele>
        <time>2021-09-12T10:05:00Z</time>
      </trkpt>
      <trkpt lat="48.4208" lon="-3.87552">
        <ele>314.20001220703</ele>
        <time>2021-09-12T10:05:01Z</time>
      </trkpt>
      <trkpt lat="48.42078" lon="-3.87549">
        <ele>314.20001220703</ele>
        <time>2021-09-12T10:05:02Z</time>
      </trkpt>
      <trkpt lat="48.42077" lon="-3.87547">
        <ele>314.39999389648</ele>
        <time>2021-09-12T10:05:03Z</time>
      </trkpt>
      <trkpt lat="48.42075" lon="-3.87544">
        <ele>314.60000610352</ele>
        <time>2021-09-12T10:05:04Z</time>
      </trkpt>
      <trkpt lat="48.42073" lon="-3.87542">
        <ele>314.79998779297</ele>
        <time>2021-09-12T10:05:05Z</time>
      </trkpt>
      <trkpt lat="48.42071" lon="-3.8754">
        <ele>315</ele>
        <time>2021-09-12T10:05:06Z</time>
      </trkpt>
      <trkpt lat="48.42069" lon="-3.87538">
        <ele>315</ele>
        <time>2021-09-12T10:05:07Z</time>
      </trkpt>
      <trkpt lat="48.42067" lon="-3.87537">
        <ele>315.20001220703</ele>
        <time>2021-09-12T10:05:08Z</time>
      </trkpt>
      <trkpt lat="48.42065" lon="-3.87535">
        <ele>315.79998779297</ele>
        <time>2021-09-12T10:05:09Z</time>
      </trkpt>
      <trkpt lat="48.42063" lon="-3.87534">
        <ele>316</ele>
        <time>2021-09-12T10:05:10Z</time>
      </trkpt>
      <trkpt lat="48.42062" lon="-3.87533">
        <ele>316</ele>
        <time>2021-09-12T10:05:11Z</time>
      </trkpt>
      <trkpt lat="48.42061" lon="-3.87533">
        <ele>316</ele>
        <time>2021-09-12T10:05:12Z</time>
      </trkpt>
      <trkpt lat="48.42059" lon="-3.87532">
        <ele>316.20001220703</ele>
        <time>2021-09-12T10:05:13Z</time>
      </trkpt>
      <trkpt lat="48.42057" lon="-3.8753">
        <ele>316.60000610352</ele>
        <time>2021-09-12T10:05:14Z</time>
      </trkpt>
      <trkpt lat="48.42056" lon="-3.87529">
        <ele>316.60000610352</ele>
        <time>2021-09-12T10:05:15Z</time>
      </trkpt>
      <trkpt lat="48.42054" lon="-3.87527">
        <ele>316.79998779297</ele>
        <time>2021-09-12T10:05:16Z</time>
      </trkpt>
      <trkpt lat="48.42052" lon="-3.87526">
        <ele>316.79998779297</ele>
        <time>2021-09-12T10:05:17Z</time>
      </trkpt>
      <trkpt lat="48.4205" lon="-3.87524">
        <ele>317.20001220703</ele>
        <time>2021-09-12T10:05:18Z</time>
      </trkpt>
      <trkpt lat="48.42048" lon="-3.87522">
        <ele>317.20001220703</ele>
        <time>2021-09-12T10:05:19Z</time>
      </trkpt>
      <trkpt lat="48.42046" lon="-3.8752">
        <ele>317.60000610352</ele>
        <time>2021-09-12T10:05:20Z</time>
      </trkpt>
      <trkpt lat="48.42045" lon="-3.87518">
        <ele>318</ele>
        <time>2021-09-12T10:05:21Z</time>
      </trkpt>
      <trkpt lat="48.42043" lon="-3.87515">
        <ele>318</ele>
        <time>2021-09-12T10:05:22Z</time>
      </trkpt>
      <trkpt lat="48.42041" lon="-3.87513">
        <ele>318.20001220703</ele>
        <time>2021-09-12T10:05:23Z</time>
      </trkpt>
      <trkpt lat="48.4204" lon="-3.87511">
        <ele>318.60000610352</ele>
        <time>2021-09-12T10:05:24Z</time>
      </trkpt>
      <trkpt lat="48.42039" lon="-3.87509">
        <ele>318.60000610352</ele>
        <time>2021-09-12T10:05:25Z</time>
      </trkpt>
      <trkpt lat="48.42037" lon="-3.87506">
        <ele>318.79998779297</ele>
        <time>2021-09-12T10:05:26Z</time>
      </trkpt>
      <trkpt lat="48.42036" lon="-3.87503">
        <ele>319.39999389648</ele>
        <time>2021-09-12T10:05:27Z</time>
      </trkpt>
      <trkpt lat="48.42035" lon="-3.87501">
        <ele>319.39999389648</ele>
        <time>2021-09-12T10:05:28Z</time>
      </trkpt>
      <trkpt lat="48.42035" lon="-3.87497">
        <ele>319.39999389648</ele>
        <time>2021-09-12T10:05:29Z</time>
      </trkpt>
      <trkpt lat="48.42035" lon="-3.87494">
        <ele>319.60000610352</ele>
        <time>2021-09-12T10:05:30Z</time>
      </trkpt>
      <trkpt lat="48.42035" lon="-3.8749">
        <ele>319.60000610352</ele>
        <time>2021-09-12T10:05:31Z</time>
      </trkpt>
      <trkpt lat="48.42035" lon="-3.87485">
        <ele>319.79998779297</ele>
        <time>2021-09-12T10:05:32Z</time>
      </trkpt>
      <trkpt lat="48.42035" lon="-3.87481">
        <ele>319.79998779297</ele>
        <time>2021-09-12T10:05:33Z</time>
      </trkpt>
      <trkpt lat="48.42035" lon="-3.87477">
        <ele>320</ele>
        <time>2021-09-12T10:05:34Z</time>
      </trkpt>
      <trkpt lat="48.42036" lon="-3.87473">
        <ele>320</ele>
        <time>2021-09-12T10:05:35Z</time>
      </trkpt>
      <trkpt lat="48.42035" lon="-3.8747">
        <ele>320.20001220703</ele>
        <time>2021-09-12T10:05:36Z</time>
      </trkpt>
      <trkpt lat="48.42035" lon="-3.87466">
        <ele>320.39999389648</ele>
        <time>2021-09-12T10:05:37Z</time>
      </trkpt>
      <trkpt lat="48.42036" lon="-3.87463">
        <ele>320.39999389648</ele>
        <time>2021-09-12T10:05:38Z</time>
      </trkpt>
      <trkpt lat="48.42036" lon="-3.87458">
        <ele>320.60000610352</ele>
        <time>2021-09-12T10:05:39Z</time>
      </trkpt>
      <trkpt lat="48.42036" lon="-3.87454">
        <ele>320.60000610352</ele>
        <time>2021-09-12T10:05:40Z</time>
      </trkpt>
      <trkpt lat="48.42036" lon="-3.87451">
        <ele>320.60000610352</ele>
        <time>2021-09-12T10:05:41Z</time>
      </trkpt>
      <trkpt lat="48.42035" lon="-3.87447">
        <ele>321</ele>
        <time>2021-09-12T10:05:42Z</time>
      </trkpt>
      <trkpt lat="48.42035" lon="-3.87443">
        <ele>321</ele>
        <time>2021-09-12T10:05:43Z</time>
      </trkpt>
      <trkpt lat="48.42034" lon="-3.8744">
        <ele>321</ele>
        <time>2021-09-12T10:05:44Z</time>
      </trkpt>
      <trkpt lat="48.42034" lon="-3.87436">
        <ele>321.20001220703</ele>
        <time>2021-09-12T10:05:45Z</time>
      </trkpt>
      <trkpt lat="48.42033" lon="-3.87433">
        <ele>321.20001220703</ele>
        <time>2021-09-12T10:05:46Z</time>
      </trkpt>
      <trkpt lat="48.42033" lon="-3.8743">
        <ele>321.39999389648</ele>
        <time>2021-09-12T10:05:47Z</time>
      </trkpt>
      <trkpt lat="48.42032" lon="-3.87427">
        <ele>321.60000610352</ele>
        <time>2021-09-12T10:05:48Z</time>
      </trkpt>
      <trkpt lat="48.42032" lon="-3.87424">
        <ele>321.79998779297</ele>
        <time>2021-09-12T10:05:49Z</time>
      </trkpt>
      <trkpt lat="48.42031" lon="-3.87421">
        <ele>322</ele>
        <time>2021-09-12T10:05:50Z</time>
      </trkpt>
      <trkpt lat="48.4203" lon="-3.87418">
        <ele>322.20001220703</ele>
        <time>2021-09-12T10:05:51Z</time>
      </trkpt>
      <trkpt lat="48.42029" lon="-3.87415">
        <ele>322.20001220703</ele>
        <time>2021-09-12T10:05:52Z</time>
      </trkpt>
      <trkpt lat="48.42028" lon="-3.87411">
        <ele>322.39999389648</ele>
        <time>2021-09-12T10:05:53Z</time>
      </trkpt>
      <trkpt lat="48.42028" lon="-3.87408">
        <ele>322.39999389648</ele>
        <time>2021-09-12T10:05:54Z</time>
      </trkpt>
      <trkpt lat="48.42027" lon="-3.87405">
        <ele>322.60000610352</ele>
        <time>2021-09-12T10:05:55Z</time>
      </trkpt>
      <trkpt lat="48.42026" lon="-3.87402">
        <ele>323</ele>
        <time>2021-09-12T10:05:56Z</time>
      </trkpt>
      <trkpt lat="48.42025" lon="-3.87399">
        <ele>323</ele>
        <time>2021-09-12T10:05:57Z</time>
      </trkpt>
      <trkpt lat="48.42024" lon="-3.87396">
        <ele>323</ele>
        <time>2021-09-12T10:05:58Z</time>
      </trkpt>
      <trkpt lat="48.42022" lon="-3.87393">
        <ele>323.20001220703</ele>
        <time>2021-09-12T10:05:59Z</time>
      </trkpt>
      <trkpt lat="48.42021" lon="-3.8739">
        <ele>323.20001220703</ele>
        <time>2021-09-12T10:06:00Z</time>
      </trkpt>
      <trkpt lat="48.4202" lon="-3.87387">
        <ele>323.39999389648</ele>
        <time>2021-09-12T10:06:01Z</time>
      </trkpt>
      <trkpt lat="48.42019" lon="-3.87384">
        <ele>323.60000610352</ele>
        <time>2021-09-12T10:06:02Z</time>
      </trkpt>
      <trkpt lat="48.42018" lon="-3.87381">
        <ele>323.79998779297</ele>
        <time>2021-09-12T10:06:03Z</time>
      </trkpt>
      <trkpt lat="48.42016" lon="-3.87377">
        <ele>323.79998779297</ele>
        <time>2021-09-12T10:06:04Z</time>
      </trkpt>
      <trkpt lat="48.42015" lon="-3.87374">
        <ele>324.20001220703</ele>
        <time>2021-09-12T10:06:05Z</time>
      </trkpt>
      <trkpt lat="48.42015" lon="-3.87371">
        <ele>324.39999389648</ele>
        <time>2021-09-12T10:06:06Z</time>
      </trkpt>
      <trkpt lat="48.42014" lon="-3.87367">
        <ele>324.39999389648</ele>
        <time>2021-09-12T10:06:07Z</time>
      </trkpt>
      <trkpt lat="48.42013" lon="-3.87364">
        <ele>324.60000610352</ele>
        <time>2021-09-12T10:06:08Z</time>
      </trkpt>
      <trkpt lat="48.42013" lon="-3.87361">
        <ele>324.60000610352</ele>
        <time>2021-09-12T10:06:09Z</time>
      </trkpt>
      <trkpt lat="48.42013" lon="-3.87357">
        <ele>324.60000610352</ele>
        <time>2021-09-12T10:06:10Z</time>
      </trkpt>
      <trkpt lat="48.42012" lon="-3.87354">
        <ele>324.79998779297</ele>
        <time>2021-09-12T10:06:11Z</time>
      </trkpt>
      <trkpt lat="48.42011" lon="-3.87352">
        <ele>325</ele>
        <time>2021-09-12T10:06:12Z</time>
      </trkpt>
      <trkpt lat="48.42011" lon="-3.8735">
        <ele>325.20001220703</ele>
        <time>2021-09-12T10:06:13Z</time>
      </trkpt>
      <trkpt lat="48.4201" lon="-3.87348">
        <ele>325.39999389648</ele>
        <time>2021-09-12T10:06:14Z</time>
      </trkpt>
      <trkpt lat="48.4201" lon="-3.87346">
        <ele>325.39999389648</ele>
        <time>2021-09-12T10:06:15Z</time>
      </trkpt>
      <trkpt lat="48.42009" lon="-3.87343">
        <ele>325.60000610352</ele>
        <time>2021-09-12T10:06:16Z</time>
      </trkpt>
      <trkpt lat="48.42008" lon="-3.87341">
        <ele>326</ele>
        <time>2021-09-12T10:06:17Z</time>
      </trkpt>
      <trkpt lat="48.42008" lon="-3.87338">
        <ele>326.20001220703</ele>
        <time>2021-09-12T10:06:18Z</time>
      </trkpt>
      <trkpt lat="48.42007" lon="-3.87335">
        <ele>326.39999389648</ele>
        <time>2021-09-12T10:06:19Z</time>
      </trkpt>
      <trkpt lat="48.42006" lon="-3.87333">
        <ele>327</ele>
        <time>2021-09-12T10:06:20Z</time>
      </trkpt>
      <trkpt lat="48.42005" lon="-3.87331">
        <ele>327.20001220703</ele>
        <time>2021-09-12T10:06:21Z</time>
      </trkpt>
      <trkpt lat="48.42005" lon="-3.87329">
        <ele>327.20001220703</ele>
        <time>2021-09-12T10:06:22Z</time>
      </trkpt>
      <trkpt lat="48.42004" lon="-3.87326">
        <ele>327.60000610352</ele>
        <time>2021-09-12T10:06:23Z</time>
      </trkpt>
      <trkpt lat="48.42004" lon="-3.87323">
        <ele>328.20001220703</ele>
        <time>2021-09-12T10:06:24Z</time>
      </trkpt>
      <trkpt lat="48.42004" lon="-3.87321">
        <ele>328.39999389648</ele>
        <time>2021-09-12T10:06:25Z</time>
      </trkpt>
      <trkpt lat="48.42003" lon="-3.87319">
        <ele>328.79998779297</ele>
        <time>2021-09-12T10:06:26Z</time>
      </trkpt>
      <trkpt lat="48.42003" lon="-3.87317">
        <ele>328.79998779297</ele>
        <time>2021-09-12T10:06:27Z</time>
      </trkpt>
      <trkpt lat="48.42003" lon="-3.87315">
        <ele>329.20001220703</ele>
        <time>2021-09-12T10:06:28Z</time>
      </trkpt>
      <trkpt lat="48.42003" lon="-3.87313">
        <ele>329.39999389648</ele>
        <time>2021-09-12T10:06:29Z</time>
      </trkpt>
      <trkpt lat="48.42002" lon="-3.87312">
        <ele>329.79998779297</ele>
        <time>2021-09-12T10:06:30Z</time>
      </trkpt>
      <trkpt lat="48.42001" lon="-3.8731">
        <ele>330</ele>
        <time>2021-09-12T10:06:31Z</time>
      </trkpt>
      <trkpt lat="48.41999" lon="-3.87309">
        <ele>330.20001220703</ele>
        <time>2021-09-12T10:06:32Z</time>
      </trkpt>
      <trkpt lat="48.41997" lon="-3.87309">
        <ele>330.60000610352</ele>
        <time>2021-09-12T10:06:33Z</time>
      </trkpt>
      <trkpt lat="48.41995" lon="-3.87309">
        <ele>330.60000610352</ele>
        <time>2021-09-12T10:06:34Z</time>
      </trkpt>
      <trkpt lat="48.41993" lon="-3.8731">
        <ele>330.79998779297</ele>
        <time>2021-09-12T10:06:35Z</time>
      </trkpt>
      <trkpt lat="48.41991" lon="-3.87311">
        <ele>330.79998779297</ele>
        <time>2021-09-12T10:06:36Z</time>
      </trkpt>
      <trkpt lat="48.41989" lon="-3.87312">
        <ele>331</ele>
        <time>2021-09-12T10:06:37Z</time>
      </trkpt>
      <trkpt lat="48.41988" lon="-3.87314">
        <ele>331.20001220703</ele>
        <time>2021-09-12T10:06:38Z</time>
      </trkpt>
      <trkpt lat="48.41986" lon="-3.87315">
        <ele>331.20001220703</ele>
        <time>2021-09-12T10:06:39Z</time>
      </trkpt>
      <trkpt lat="48.41985" lon="-3.87317">
        <ele>331.39999389648</ele>
        <time>2021-09-12T10:06:40Z</time>
      </trkpt>
      <trkpt lat="48.41984" lon="-3.87318">
        <ele>331.60000610352</ele>
        <time>2021-09-12T10:06:41Z</time>
      </trkpt>
      <trkpt lat="48.41984" lon="-3.8732">
        <ele>332</ele>
        <time>2021-09-12T10:06:42Z</time>
      </trkpt>
      <trkpt lat="48.41983" lon="-3.87321">
        <ele>332</ele>
        <time>2021-09-12T10:06:43Z</time>
      </trkpt>
      <trkpt lat="48.41982" lon="-3.87323">
        <ele>332.20001220703</ele>
        <time>2021-09-12T10:06:44Z</time>
      </trkpt>
      <trkpt lat="48.41981" lon="-3.87324">
        <ele>332.39999389648</ele>
        <time>2021-09-12T10:06:45Z</time>
      </trkpt>
      <trkpt lat="48.4198" lon="-3.87326">
        <ele>332.39999389648</ele>
        <time>2021-09-12T10:06:46Z</time>
      </trkpt>
      <trkpt lat="48.41979" lon="-3.87327">
        <ele>332.39999389648</ele>
        <time>2021-09-12T10:06:47Z</time>
      </trkpt>
      <trkpt lat="48.41978" lon="-3.87328">
        <ele>332.79998779297</ele>
        <time>2021-09-12T10:06:48Z</time>
      </trkpt>
      <trkpt lat="48.41976" lon="-3.8733">
        <ele>332.79998779297</ele>
        <time>2021-09-12T10:06:49Z</time>
      </trkpt>
      <trkpt lat="48.41976" lon="-3.87331">
        <ele>333.20001220703</ele>
        <time>2021-09-12T10:06:50Z</time>
      </trkpt>
      <trkpt lat="48.41974" lon="-3.87332">
        <ele>333.20001220703</ele>
        <time>2021-09-12T10:06:51Z</time>
      </trkpt>
      <trkpt lat="48.41973" lon="-3.87334">
        <ele>333.20001220703</ele>
        <time>2021-09-12T10:06:52Z</time>
      </trkpt>
      <trkpt lat="48.41973" lon="-3.87335">
        <ele>333.60000610352</ele>
        <time>2021-09-12T10:06:53Z</time>
      </trkpt>
      <trkpt lat="48.41972" lon="-3.87337">
        <ele>334</ele>
        <time>2021-09-12T10:06:54Z</time>
      </trkpt>
      <trkpt lat="48.41971" lon="-3.87337">
        <ele>334.20001220703</ele>
        <time>2021-09-12T10:06:55Z</time>
      </trkpt>
      <trkpt lat="48.4197" lon="-3.87337">
        <ele>334.20001220703</ele>
        <time>2021-09-12T10:06:56Z</time>
      </trkpt>
      <trkpt lat="48.4197" lon="-3.87337">
        <ele>334.20001220703</ele>
        <time>2021-09-12T10:06:57Z</time>
      </trkpt>
      <trkpt lat="48.4197" lon="-3.87337">
        <ele>334.20001220703</ele>
        <time>2021-09-12T10:06:58Z</time>
      </trkpt>
      <trkpt lat="48.4197" lon="-3.87341">
        <ele>335</ele>
        <time>2021-09-12T10:07:16Z</time>
      </trkpt>
      <trkpt lat="48.41969" lon="-3.87343">
        <ele>335.20001220703</ele>
        <time>2021-09-12T10:07:17Z</time>
      </trkpt>
      <trkpt lat="48.41969" lon="-3.87346">
        <ele>335.20001220703</ele>
        <time>2021-09-12T10:07:18Z</time>
      </trkpt>
      <trkpt lat="48.41968" lon="-3.87348">
        <ele>335.79998779297</ele>
        <time>2021-09-12T10:07:19Z</time>
      </trkpt>
      <trkpt lat="48.41967" lon="-3.8735">
        <ele>336</ele>
        <time>2021-09-12T10:07:20Z</time>
      </trkpt>
      <trkpt lat="48.41966" lon="-3.87351">
        <ele>336</ele>
        <time>2021-09-12T10:07:21Z</time>
      </trkpt>
      <trkpt lat="48.41965" lon="-3.87353">
        <ele>336.20001220703</ele>
        <time>2021-09-12T10:07:22Z</time>
      </trkpt>
      <trkpt lat="48.41965" lon="-3.87354">
        <ele>336.20001220703</ele>
        <time>2021-09-12T10:07:23Z</time>
      </trkpt>
      <trkpt lat="48.41965" lon="-3.87355">
        <ele>336.20001220703</ele>
        <time>2021-09-12T10:07:24Z</time>
      </trkpt>
      <trkpt lat="48.41965" lon="-3.87355">
        <ele>336.20001220703</ele>
        <time>2021-09-12T10:07:25Z</time>
      </trkpt>
      <trkpt lat="48.41965" lon="-3.87355">
        <ele>336.39999389648</ele>
        <time>2021-09-12T10:07:26Z</time>
      </trkpt>
      <trkpt lat="48.41963" lon="-3.87363">
        <ele>336.79998779297</ele>
        <time>2021-09-12T10:07:38Z</time>
      </trkpt>
      <trkpt lat="48.41962" lon="-3.87365">
        <ele>337.39999389648</ele>
        <time>2021-09-12T10:07:39Z</time>
      </trkpt>
      <trkpt lat="48.41961" lon="-3.87367">
        <ele>337.60000610352</ele>
        <time>2021-09-12T10:07:40Z</time>
      </trkpt>
      <trkpt lat="48.41961" lon="-3.87367">
        <ele>338</ele>
        <time>2021-09-12T10:07:41Z</time>
      </trkpt>
      <trkpt lat="48.41961" lon="-3.87367">
        <ele>338</ele>
        <time>2021-09-12T10:07:42Z</time>
      </trkpt>
      <trkpt lat="48.41961" lon="-3.87367">
        <ele>338</ele>
        <time>2021-09-12T10:07:43Z</time>
      </trkpt>
      <trkpt lat="48.41957" lon="-3.87372">
        <ele>338.39999389648</ele>
        <time>2021-09-12T10:07:50Z</time>
      </trkpt>
      <trkpt lat="48.41956" lon="-3.87373">
        <ele>338.39999389648</ele>
        <time>2021-09-12T10:07:51Z</time>
      </trkpt>
      <trkpt lat="48.41955" lon="-3.87375">
        <ele>338.79998779297</ele>
        <time>2021-09-12T10:07:52Z</time>
      </trkpt>
      <trkpt lat="48.41955" lon="-3.87377">
        <ele>338.79998779297</ele>
        <time>2021-09-12T10:07:53Z</time>
      </trkpt>
      <trkpt lat="48.41954" lon="-3.87379">
        <ele>338.79998779297</ele>
        <time>2021-09-12T10:07:54Z</time>
      </trkpt>
      <trkpt lat="48.41953" lon="-3.8738">
        <ele>339.39999389648</ele>
        <time>2021-09-12T10:07:55Z</time>
      </trkpt>
      <trkpt lat="48.41952" lon="-3.87382">
        <ele>339.39999389648</ele>
        <time>2021-09-12T10:07:56Z</time>
      </trkpt>
      <trkpt lat="48.41951" lon="-3.87383">
        <ele>339.79998779297</ele>
        <time>2021-09-12T10:07:57Z</time>
      </trkpt>
      <trkpt lat="48.4195" lon="-3.87385">
        <ele>339.79998779297</ele>
        <time>2021-09-12T10:07:58Z</time>
      </trkpt>
      <trkpt lat="48.4195" lon="-3.87386">
        <ele>339.79998779297</ele>
        <time>2021-09-12T10:07:59Z</time>
      </trkpt>
      <trkpt lat="48.41949" lon="-3.87387">
        <ele>339.79998779297</ele>
        <time>2021-09-12T10:08:00Z</time>
      </trkpt>
      <trkpt lat="48.41948" lon="-3.87388">
        <ele>340.20001220703</ele>
        <time>2021-09-12T10:08:01Z</time>
      </trkpt>
      <trkpt lat="48.41947" lon="-3.87389">
        <ele>340.20001220703</ele>
        <time>2021-09-12T10:08:02Z</time>
      </trkpt>
      <trkpt lat="48.41946" lon="-3.8739">
        <ele>340.20001220703</ele>
        <time>2021-09-12T10:08:03Z</time>
      </trkpt>
      <trkpt lat="48.41945" lon="-3.87391">
        <ele>340.20001220703</ele>
        <time>2021-09-12T10:08:04Z</time>
      </trkpt>
      <trkpt lat="48.41944" lon="-3.87393">
        <ele>340.20001220703</ele>
        <time>2021-09-12T10:08:05Z</time>
      </trkpt>
      <trkpt lat="48.41943" lon="-3.87394">
        <ele>340.20001220703</ele>
        <time>2021-09-12T10:08:06Z</time>
      </trkpt>
      <trkpt lat="48.41942" lon="-3.87395">
        <ele>340.60000610352</ele>
        <time>2021-09-12T10:08:07Z</time>
      </trkpt>
      <trkpt lat="48.41941" lon="-3.87397">
        <ele>340.60000610352</ele>
        <time>2021-09-12T10:08:08Z</time>
      </trkpt>
      <trkpt lat="48.4194" lon="-3.87399">
        <ele>340.60000610352</ele>
        <time>2021-09-12T10:08:09Z</time>
      </trkpt>
      <trkpt lat="48.41938" lon="-3.874">
        <ele>340.79998779297</ele>
        <time>2021-09-12T10:08:10Z</time>
      </trkpt>
      <trkpt lat="48.41937" lon="-3.87401">
        <ele>340.79998779297</ele>
        <time>2021-09-12T10:08:11Z</time>
      </trkpt>
      <trkpt lat="48.41935" lon="-3.87403">
        <ele>340.79998779297</ele>
        <time>2021-09-12T10:08:12Z</time>
      </trkpt>
      <trkpt lat="48.41934" lon="-3.87404">
        <ele>340.79998779297</ele>
        <time>2021-09-12T10:08:13Z</time>
      </trkpt>
      <trkpt lat="48.41933" lon="-3.87405">
        <ele>340.79998779297</ele>
        <time>2021-09-12T10:08:14Z</time>
      </trkpt>
      <trkpt lat="48.41932" lon="-3.87407">
        <ele>340.79998779297</ele>
        <time>2021-09-12T10:08:15Z</time>
      </trkpt>
      <trkpt lat="48.41931" lon="-3.87409">
        <ele>341.20001220703</ele>
        <time>2021-09-12T10:08:16Z</time>
      </trkpt>
      <trkpt lat="48.41929" lon="-3.8741">
        <ele>341.39999389648</ele>
        <time>2021-09-12T10:08:17Z</time>
      </trkpt>
      <trkpt lat="48.41928" lon="-3.87412">
        <ele>341.39999389648</ele>
        <time>2021-09-12T10:08:18Z</time>
      </trkpt>
      <trkpt lat="48.41927" lon="-3.87414">
        <ele>341.60000610352</ele>
        <time>2021-09-12T10:08:19Z</time>
      </trkpt>
      <trkpt lat="48.41926" lon="-3.87415">
        <ele>341.60000610352</ele>
        <time>2021-09-12T10:08:20Z</time>
      </trkpt>
      <trkpt lat="48.41924" lon="-3.87417">
        <ele>341.79998779297</ele>
        <time>2021-09-12T10:08:21Z</time>
      </trkpt>
      <trkpt lat="48.41923" lon="-3.87419">
        <ele>342</ele>
        <time>2021-09-12T10:08:22Z</time>
      </trkpt>
      <trkpt lat="48.41921" lon="-3.8742">
        <ele>342</ele>
        <time>2021-09-12T10:08:23Z</time>
      </trkpt>
      <trkpt lat="48.4192" lon="-3.87422">
        <ele>342.39999389648</ele>
        <time>2021-09-12T10:08:24Z</time>
      </trkpt>
      <trkpt lat="48.41918" lon="-3.87424">
        <ele>342.60000610352</ele>
        <time>2021-09-12T10:08:25Z</time>
      </trkpt>
      <trkpt lat="48.41917" lon="-3.87426">
        <ele>342.79998779297</ele>
        <time>2021-09-12T10:08:26Z</time>
      </trkpt>
      <trkpt lat="48.41916" lon="-3.87428">
        <ele>342.79998779297</ele>
        <time>2021-09-12T10:08:27Z</time>
      </trkpt>
      <trkpt lat="48.41914" lon="-3.87429">
        <ele>342.79998779297</ele>
        <time>2021-09-12T10:08:28Z</time>
      </trkpt>
      <trkpt lat="48.41912" lon="-3.8743">
        <ele>343</ele>
        <time>2021-09-12T10:08:29Z</time>
      </trkpt>
      <trkpt lat="48.41911" lon="-3.87431">
        <ele>343.20001220703</ele>
        <time>2021-09-12T10:08:30Z</time>
      </trkpt>
      <trkpt lat="48.41909" lon="-3.87432">
        <ele>343.39999389648</ele>
        <time>2021-09-12T10:08:31Z</time>
      </trkpt>
      <trkpt lat="48.41907" lon="-3.87432">
        <ele>343.39999389648</ele>
        <time>2021-09-12T10:08:32Z</time>
      </trkpt>
      <trkpt lat="48.41906" lon="-3.87431">
        <ele>343.60000610352</ele>
        <time>2021-09-12T10:08:33Z</time>
      </trkpt>
      <trkpt lat="48.41904" lon="-3.8743">
        <ele>343.79998779297</ele>
        <time>2021-09-12T10:08:34Z</time>
      </trkpt>
      <trkpt lat="48.41903" lon="-3.87429">
        <ele>344.20001220703</ele>
        <time>2021-09-12T10:08:35Z</time>
      </trkpt>
      <trkpt lat="48.41901" lon="-3.87428">
        <ele>344.39999389648</ele>
        <time>2021-09-12T10:08:36Z</time>
      </trkpt>
      <trkpt lat="48.419" lon="-3.87427">
        <ele>344.79998779297</ele>
        <time>2021-09-12T10:08:37Z</time>
      </trkpt>
      <trkpt lat="48.41899" lon="-3.87426">
        <ele>345</ele>
        <time>2021-09-12T10:08:38Z</time>
      </trkpt>
      <trkpt lat="48.41897" lon="-3.87425">
        <ele>345</ele>
        <time>2021-09-12T10:08:39Z</time>
      </trkpt>
      <trkpt lat="48.41895" lon="-3.87423">
        <ele>345.20001220703</ele>
        <time>2021-09-12T10:08:40Z</time>
      </trkpt>
      <trkpt lat="48.41894" lon="-3.87422">
        <ele>345.39999389648</ele>
        <time>2021-09-12T10:08:41Z</time>
      </trkpt>
      <trkpt lat="48.41892" lon="-3.8742">
        <ele>345.39999389648</ele>
        <time>2021-09-12T10:08:42Z</time>
      </trkpt>
      <trkpt lat="48.41892" lon="-3.87418">
        <ele>345.39999389648</ele>
        <time>2021-09-12T10:08:43Z</time>
      </trkpt>
      <trkpt lat="48.41891" lon="-3.87416">
        <ele>346</ele>
        <time>2021-09-12T10:08:44Z</time>
      </trkpt>
      <trkpt lat="48.4189" lon="-3.87414">
        <ele>346</ele>
        <time>2021-09-12T10:08:45Z</time>
      </trkpt>
      <trkpt lat="48.41888" lon="-3.87413">
        <ele>346</ele>
        <time>2021-09-12T10:08:46Z</time>
      </trkpt>
      <trkpt lat="48.41887" lon="-3.87411">
        <ele>346.20001220703</ele>
        <time>2021-09-12T10:08:47Z</time>
      </trkpt>
      <trkpt lat="48.41886" lon="-3.87409">
        <ele>346.79998779297</ele>
        <time>2021-09-12T10:08:48Z</time>
      </trkpt>
      <trkpt lat="48.41885" lon="-3.87407">
        <ele>346.79998779297</ele>
        <time>2021-09-12T10:08:49Z</time>
      </trkpt>
      <trkpt lat="48.41883" lon="-3.87405">
        <ele>347</ele>
        <time>2021-09-12T10:08:50Z</time>
      </trkpt>
      <trkpt lat="48.41882" lon="-3.87403">
        <ele>347</ele>
        <time>2021-09-12T10:08:51Z</time>
      </trkpt>
      <trkpt lat="48.41881" lon="-3.87401">
        <ele>347.20001220703</ele>
        <time>2021-09-12T10:08:52Z</time>
      </trkpt>
      <trkpt lat="48.41879" lon="-3.87399">
        <ele>347.20001220703</ele>
        <time>2021-09-12T10:08:53Z</time>
      </trkpt>
      <trkpt lat="48.41878" lon="-3.87397">
        <ele>347.39999389648</ele>
        <time>2021-09-12T10:08:54Z</time>
      </trkpt>
      <trkpt lat="48.41877" lon="-3.87395">
        <ele>347.79998779297</ele>
        <time>2021-09-12T10:08:55Z</time>
      </trkpt>
      <trkpt lat="48.41876" lon="-3.87392">
        <ele>347.79998779297</ele>
        <time>2021-09-12T10:08:56Z</time>
      </trkpt>
      <trkpt lat="48.41874" lon="-3.8739">
        <ele>348.20001220703</ele>
        <time>2021-09-12T10:08:57Z</time>
      </trkpt>
      <trkpt lat="48.41873" lon="-3.87388">
        <ele>348.39999389648</ele>
        <time>2021-09-12T10:08:58Z</time>
      </trkpt>
      <trkpt lat="48.41871" lon="-3.87386">
        <ele>348.39999389648</ele>
        <time>2021-09-12T10:08:59Z</time>
      </trkpt>
      <trkpt lat="48.4187" lon="-3.87384">
        <ele>348.60000610352</ele>
        <time>2021-09-12T10:09:00Z</time>
      </trkpt>
      <trkpt lat="48.41869" lon="-3.87382">
        <ele>348.79998779297</ele>
        <time>2021-09-12T10:09:01Z</time>
      </trkpt>
      <trkpt lat="48.41868" lon="-3.8738">
        <ele>348.79998779297</ele>
        <time>2021-09-12T10:09:02Z</time>
      </trkpt>
      <trkpt lat="48.41866" lon="-3.87378">
        <ele>349.39999389648</ele>
        <time>2021-09-12T10:09:03Z</time>
      </trkpt>
      <trkpt lat="48.41865" lon="-3.87376">
        <ele>349.39999389648</ele>
        <time>2021-09-12T10:09:04Z</time>
      </trkpt>
      <trkpt lat="48.41864" lon="-3.87374">
        <ele>349.60000610352</ele>
        <time>2021-09-12T10:09:05Z</time>
      </trkpt>
      <trkpt lat="48.41862" lon="-3.87372">
        <ele>349.60000610352</ele>
        <time>2021-09-12T10:09:06Z</time>
      </trkpt>
      <trkpt lat="48.41861" lon="-3.8737">
        <ele>349.60000610352</ele>
        <time>2021-09-12T10:09:07Z</time>
      </trkpt>
      <trkpt lat="48.41859" lon="-3.87369">
        <ele>350</ele>
        <time>2021-09-12T10:09:08Z</time>
      </trkpt>
      <trkpt lat="48.41858" lon="-3.87367">
        <ele>350.20001220703</ele>
        <time>2021-09-12T10:09:09Z</time>
      </trkpt>
      <trkpt lat="48.41856" lon="-3.87365">
        <ele>350.39999389648</ele>
        <time>2021-09-12T10:09:10Z</time>
      </trkpt>
      <trkpt lat="48.41855" lon="-3.87363">
        <ele>350.60000610352</ele>
        <time>2021-09-12T10:09:11Z</time>
      </trkpt>
      <trkpt lat="48.41853" lon="-3.87362">
        <ele>350.79998779297</ele>
        <time>2021-09-12T10:09:12Z</time>
      </trkpt>
      <trkpt lat="48.41852" lon="-3.8736">
        <ele>350.79998779297</ele>
        <time>2021-09-12T10:09:13Z</time>
      </trkpt>
      <trkpt lat="48.41851" lon="-3.87358">
        <ele>351.20001220703</ele>
        <time>2021-09-12T10:09:14Z</time>
      </trkpt>
      <trkpt lat="48.41849" lon="-3.87356">
        <ele>351.39999389648</ele>
        <time>2021-09-12T10:09:15Z</time>
      </trkpt>
      <trkpt lat="48.41848" lon="-3.87354">
        <ele>351.39999389648</ele>
        <time>2021-09-12T10:09:16Z</time>
      </trkpt>
      <trkpt lat="48.41846" lon="-3.87352">
        <ele>351.60000610352</ele>
        <time>2021-09-12T10:09:17Z</time>
      </trkpt>
      <trkpt lat="48.41844" lon="-3.87351">
        <ele>351.60000610352</ele>
        <time>2021-09-12T10:09:18Z</time>
      </trkpt>
      <trkpt lat="48.41843" lon="-3.87349">
        <ele>351.79998779297</ele>
        <time>2021-09-12T10:09:19Z</time>
      </trkpt>
      <trkpt lat="48.41841" lon="-3.87347">
        <ele>352</ele>
        <time>2021-09-12T10:09:20Z</time>
      </trkpt>
      <trkpt lat="48.41839" lon="-3.87346">
        <ele>352.20001220703</ele>
        <time>2021-09-12T10:09:21Z</time>
      </trkpt>
      <trkpt lat="48.41838" lon="-3.87344">
        <ele>352.60000610352</ele>
        <time>2021-09-12T10:09:22Z</time>
      </trkpt>
      <trkpt lat="48.41836" lon="-3.87343">
        <ele>352.60000610352</ele>
        <time>2021-09-12T10:09:23Z</time>
      </trkpt>
      <trkpt lat="48.41834" lon="-3.87341">
        <ele>352.60000610352</ele>
        <time>2021-09-12T10:09:24Z</time>
      </trkpt>
      <trkpt lat="48.41832" lon="-3.87339">
        <ele>352.60000610352</ele>
        <time>2021-09-12T10:09:25Z</time>
      </trkpt>
      <trkpt lat="48.4183" lon="-3.87337">
        <ele>352.79998779297</ele>
        <time>2021-09-12T10:09:26Z</time>
      </trkpt>
      <trkpt lat="48.41828" lon="-3.87335">
        <ele>352.79998779297</ele>
        <time>2021-09-12T10:09:27Z</time>
      </trkpt>
      <trkpt lat="48.41826" lon="-3.87333">
        <ele>353</ele>
        <time>2021-09-12T10:09:28Z</time>
      </trkpt>
      <trkpt lat="48.41824" lon="-3.87332">
        <ele>353.20001220703</ele>
        <time>2021-09-12T10:09:29Z</time>
      </trkpt>
      <trkpt lat="48.41822" lon="-3.8733">
        <ele>353.20001220703</ele>
        <time>2021-09-12T10:09:30Z</time>
      </trkpt>
      <trkpt lat="48.4182" lon="-3.87328">
        <ele>353.60000610352</ele>
        <time>2021-09-12T10:09:31Z</time>
      </trkpt>
      <trkpt lat="48.41819" lon="-3.87326">
        <ele>353.79998779297</ele>
        <time>2021-09-12T10:09:32Z</time>
      </trkpt>
      <trkpt lat="48.41817" lon="-3.87324">
        <ele>354</ele>
        <time>2021-09-12T10:09:33Z</time>
      </trkpt>
      <trkpt lat="48.41815" lon="-3.87322">
        <ele>354</ele>
        <time>2021-09-12T10:09:34Z</time>
      </trkpt>
      <trkpt lat="48.41813" lon="-3.87321">
        <ele>354.20001220703</ele>
        <time>2021-09-12T10:09:35Z</time>
      </trkpt>
      <trkpt lat="48.41811" lon="-3.87319">
        <ele>354.60000610352</ele>
        <time>2021-09-12T10:09:36Z</time>
      </trkpt>
      <trkpt lat="48.41809" lon="-3.87317">
        <ele>354.60000610352</ele>
        <time>2021-09-12T10:09:37Z</time>
      </trkpt>
      <trkpt lat="48.41807" lon="-3.87315">
        <ele>354.60000610352</ele>
        <time>2021-09-12T10:09:38Z</time>
      </trkpt>
      <trkpt lat="48.41805" lon="-3.87313">
        <ele>354.79998779297</ele>
        <time>2021-09-12T10:09:39Z</time>
      </trkpt>
      <trkpt lat="48.41803" lon="-3.87311">
        <ele>354.79998779297</ele>
        <time>2021-09-12T10:09:40Z</time>
      </trkpt>
      <trkpt lat="48.418" lon="-3.87309">
        <ele>354.79998779297</ele>
        <time>2021-09-12T10:09:41Z</time>
      </trkpt>
      <trkpt lat="48.41798" lon="-3.87307">
        <ele>355</ele>
        <time>2021-09-12T10:09:42Z</time>
      </trkpt>
      <trkpt lat="48.41796" lon="-3.87305">
        <ele>355</ele>
        <time>2021-09-12T10:09:43Z</time>
      </trkpt>
      <trkpt lat="48.41793" lon="-3.87303">
        <ele>355.20001220703</ele>
        <time>2021-09-12T10:09:44Z</time>
      </trkpt>
      <trkpt lat="48.41791" lon="-3.87301">
        <ele>355.60000610352</ele>
        <time>2021-09-12T10:09:45Z</time>
      </trkpt>
      <trkpt lat="48.41788" lon="-3.87299">
        <ele>355.60000610352</ele>
        <time>2021-09-12T10:09:46Z</time>
      </trkpt>
      <trkpt lat="48.41786" lon="-3.87298">
        <ele>355.60000610352</ele>
        <time>2021-09-12T10:09:47Z</time>
      </trkpt>
      <trkpt lat="48.41783" lon="-3.87296">
        <ele>355.60000610352</ele>
        <time>2021-09-12T10:09:48Z</time>
      </trkpt>
      <trkpt lat="48.41781" lon="-3.87294">
        <ele>355.60000610352</ele>
        <time>2021-09-12T10:09:49Z</time>
      </trkpt>
      <trkpt lat="48.41779" lon="-3.87292">
        <ele>355.60000610352</ele>
        <time>2021-09-12T10:09:50Z</time>
      </trkpt>
      <trkpt lat="48.41776" lon="-3.8729">
        <ele>355.79998779297</ele>
        <time>2021-09-12T10:09:51Z</time>
      </trkpt>
      <trkpt lat="48.41774" lon="-3.87288">
        <ele>356</ele>
        <time>2021-09-12T10:09:52Z</time>
      </trkpt>
      <trkpt lat="48.41771" lon="-3.87286">
        <ele>356.20001220703</ele>
        <time>2021-09-12T10:09:53Z</time>
      </trkpt>
      <trkpt lat="48.41769" lon="-3.87284">
        <ele>356.20001220703</ele>
        <time>2021-09-12T10:09:54Z</time>
      </trkpt>
      <trkpt lat="48.41766" lon="-3.87282">
        <ele>356.20001220703</ele>
        <time>2021-09-12T10:09:55Z</time>
      </trkpt>
      <trkpt lat="48.41763" lon="-3.8728">
        <ele>356.20001220703</ele>
        <time>2021-09-12T10:09:56Z</time>
      </trkpt>
      <trkpt lat="48.41761" lon="-3.87277">
        <ele>356.20001220703</ele>
        <time>2021-09-12T10:09:57Z</time>
      </trkpt>
      <trkpt lat="48.41758" lon="-3.87276">
        <ele>356.39999389648</ele>
        <time>2021-09-12T10:09:58Z</time>
      </trkpt>
      <trkpt lat="48.41756" lon="-3.87274">
        <ele>356.60000610352</ele>
        <time>2021-09-12T10:09:59Z</time>
      </trkpt>
      <trkpt lat="48.41753" lon="-3.87271">
        <ele>356.60000610352</ele>
        <time>2021-09-12T10:10:00Z</time>
      </trkpt>
      <trkpt lat="48.41751" lon="-3.87269">
        <ele>356.60000610352</ele>
        <time>2021-09-12T10:10:01Z</time>
      </trkpt>
      <trkpt lat="48.41748" lon="-3.87267">
        <ele>356.79998779297</ele>
        <time>2021-09-12T10:10:02Z</time>
      </trkpt>
      <trkpt lat="48.41745" lon="-3.87265">
        <ele>356.79998779297</ele>
        <time>2021-09-12T10:10:03Z</time>
      </trkpt>
      <trkpt lat="48.41743" lon="-3.87262">
        <ele>356.79998779297</ele>
        <time>2021-09-12T10:10:04Z</time>
      </trkpt>
      <trkpt lat="48.4174" lon="-3.8726">
        <ele>357</ele>
        <time>2021-09-12T10:10:05Z</time>
      </trkpt>
      <trkpt lat="48.41737" lon="-3.87258">
        <ele>357</ele>
        <time>2021-09-12T10:10:06Z</time>
      </trkpt>
      <trkpt lat="48.41735" lon="-3.87256">
        <ele>357</ele>
        <time>2021-09-12T10:10:07Z</time>
      </trkpt>
      <trkpt lat="48.41732" lon="-3.87254">
        <ele>357.20001220703</ele>
        <time>2021-09-12T10:10:08Z</time>
      </trkpt>
      <trkpt lat="48.41729" lon="-3.87251">
        <ele>357.20001220703</ele>
        <time>2021-09-12T10:10:09Z</time>
      </trkpt>
      <trkpt lat="48.41726" lon="-3.87249">
        <ele>357.20001220703</ele>
        <time>2021-09-12T10:10:10Z</time>
      </trkpt>
      <trkpt lat="48.41724" lon="-3.87247">
        <ele>357.60000610352</ele>
        <time>2021-09-12T10:10:11Z</time>
      </trkpt>
      <trkpt lat="48.41721" lon="-3.87245">
        <ele>357.79998779297</ele>
        <time>2021-09-12T10:10:12Z</time>
      </trkpt>
      <trkpt lat="48.41718" lon="-3.87243">
        <ele>358</ele>
        <time>2021-09-12T10:10:13Z</time>
      </trkpt>
      <trkpt lat="48.41716" lon="-3.87241">
        <ele>358</ele>
        <time>2021-09-12T10:10:14Z</time>
      </trkpt>
      <trkpt lat="48.41713" lon="-3.8724">
        <ele>358</ele>
        <time>2021-09-12T10:10:15Z</time>
      </trkpt>
      <trkpt lat="48.4171" lon="-3.87238">
        <ele>358</ele>
        <time>2021-09-12T10:10:16Z</time>
      </trkpt>
      <trkpt lat="48.41708" lon="-3.87236">
        <ele>358.20001220703</ele>
        <time>2021-09-12T10:10:17Z</time>
      </trkpt>
      <trkpt lat="48.41705" lon="-3.87234">
        <ele>358.39999389648</ele>
        <time>2021-09-12T10:10:18Z</time>
      </trkpt>
      <trkpt lat="48.41703" lon="-3.87232">
        <ele>358.39999389648</ele>
        <time>2021-09-12T10:10:19Z</time>
      </trkpt>
      <trkpt lat="48.417" lon="-3.8723">
        <ele>358.60000610352</ele>
        <time>2021-09-12T10:10:20Z</time>
      </trkpt>
      <trkpt lat="48.41697" lon="-3.87228">
        <ele>358.79998779297</ele>
        <time>2021-09-12T10:10:21Z</time>
      </trkpt>
      <trkpt lat="48.41694" lon="-3.87226">
        <ele>358.79998779297</ele>
        <time>2021-09-12T10:10:22Z</time>
      </trkpt>
      <trkpt lat="48.41691" lon="-3.87223">
        <ele>358.79998779297</ele>
        <time>2021-09-12T10:10:23Z</time>
      </trkpt>
      <trkpt lat="48.41689" lon="-3.87221">
        <ele>359</ele>
        <time>2021-09-12T10:10:24Z</time>
      </trkpt>
      <trkpt lat="48.41686" lon="-3.87219">
        <ele>359.20001220703</ele>
        <time>2021-09-12T10:10:25Z</time>
      </trkpt>
      <trkpt lat="48.41684" lon="-3.87216">
        <ele>359.39999389648</ele>
        <time>2021-09-12T10:10:26Z</time>
      </trkpt>
      <trkpt lat="48.41681" lon="-3.87214">
        <ele>359.60000610352</ele>
        <time>2021-09-12T10:10:27Z</time>
      </trkpt>
      <trkpt lat="48.41678" lon="-3.87211">
        <ele>359.60000610352</ele>
        <time>2021-09-12T10:10:28Z</time>
      </trkpt>
      <trkpt lat="48.41676" lon="-3.87209">
        <ele>359.79998779297</ele>
        <time>2021-09-12T10:10:29Z</time>
      </trkpt>
      <trkpt lat="48.41673" lon="-3.87207">
        <ele>359.79998779297</ele>
        <time>2021-09-12T10:10:30Z</time>
      </trkpt>
      <trkpt lat="48.41671" lon="-3.87204">
        <ele>360</ele>
        <time>2021-09-12T10:10:31Z</time>
      </trkpt>
      <trkpt lat="48.41668" lon="-3.87202">
        <ele>360</ele>
        <time>2021-09-12T10:10:32Z</time>
      </trkpt>
      <trkpt lat="48.41666" lon="-3.87201">
        <ele>360</ele>
        <time>2021-09-12T10:10:33Z</time>
      </trkpt>
      <trkpt lat="48.41663" lon="-3.872">
        <ele>360.20001220703</ele>
        <time>2021-09-12T10:10:34Z</time>
      </trkpt>
      <trkpt lat="48.41662" lon="-3.87201">
        <ele>360.20001220703</ele>
        <time>2021-09-12T10:10:35Z</time>
      </trkpt>
      <trkpt lat="48.41661" lon="-3.87204">
        <ele>360.39999389648</ele>
        <time>2021-09-12T10:10:36Z</time>
      </trkpt>
      <trkpt lat="48.4166" lon="-3.87207">
        <ele>360.39999389648</ele>
        <time>2021-09-12T10:10:37Z</time>
      </trkpt>
      <trkpt lat="48.41659" lon="-3.87211">
        <ele>360.39999389648</ele>
        <time>2021-09-12T10:10:38Z</time>
      </trkpt>
      <trkpt lat="48.41659" lon="-3.87215">
        <ele>360.60000610352</ele>
        <time>2021-09-12T10:10:39Z</time>
      </trkpt>
      <trkpt lat="48.41658" lon="-3.87219">
        <ele>360.60000610352</ele>
        <time>2021-09-12T10:10:40Z</time>
      </trkpt>
      <trkpt lat="48.41658" lon="-3.87223">
        <ele>360.60000610352</ele>
        <time>2021-09-12T10:10:41Z</time>
      </trkpt>
      <trkpt lat="48.41657" lon="-3.87226">
        <ele>360.60000610352</ele>
        <time>2021-09-12T10:10:42Z</time>
      </trkpt>
      <trkpt lat="48.41657" lon="-3.87229">
        <ele>360.79998779297</ele>
        <time>2021-09-12T10:10:43Z</time>
      </trkpt>
      <trkpt lat="48.41657" lon="-3.87233">
        <ele>360.79998779297</ele>
        <time>2021-09-12T10:10:44Z</time>
      </trkpt>
      <trkpt lat="48.41657" lon="-3.87237">
        <ele>361</ele>
        <time>2021-09-12T10:10:45Z</time>
      </trkpt>
      <trkpt lat="48.41657" lon="-3.87241">
        <ele>361</ele>
        <time>2021-09-12T10:10:46Z</time>
      </trkpt>
      <trkpt lat="48.41656" lon="-3.87246">
        <ele>361</ele>
        <time>2021-09-12T10:10:47Z</time>
      </trkpt>
      <trkpt lat="48.41656" lon="-3.8725">
        <ele>361</ele>
        <time>2021-09-12T10:10:48Z</time>
      </trkpt>
      <trkpt lat="48.41655" lon="-3.87255">
        <ele>361.20001220703</ele>
        <time>2021-09-12T10:10:49Z</time>
      </trkpt>
      <trkpt lat="48.41655" lon="-3.87259">
        <ele>361.39999389648</ele>
        <time>2021-09-12T10:10:50Z</time>
      </trkpt>
      <trkpt lat="48.41654" lon="-3.87262">
        <ele>361.39999389648</ele>
        <time>2021-09-12T10:10:51Z</time>
      </trkpt>
      <trkpt lat="48.41653" lon="-3.87266">
        <ele>361.39999389648</ele>
        <time>2021-09-12T10:10:52Z</time>
      </trkpt>
      <trkpt lat="48.41653" lon="-3.8727">
        <ele>361.60000610352</ele>
        <time>2021-09-12T10:10:53Z</time>
      </trkpt>
      <trkpt lat="48.41652" lon="-3.87274">
        <ele>361.60000610352</ele>
        <time>2021-09-12T10:10:54Z</time>
      </trkpt>
      <trkpt lat="48.41652" lon="-3.87278">
        <ele>361.60000610352</ele>
        <time>2021-09-12T10:10:55Z</time>
      </trkpt>
      <trkpt lat="48.41651" lon="-3.87282">
        <ele>361.60000610352</ele>
        <time>2021-09-12T10:10:56Z</time>
      </trkpt>
      <trkpt lat="48.4165" lon="-3.87286">
        <ele>361.79998779297</ele>
        <time>2021-09-12T10:10:57Z</time>
      </trkpt>
      <trkpt lat="48.41649" lon="-3.8729">
        <ele>362</ele>
        <time>2021-09-12T10:10:58Z</time>
      </trkpt>
      <trkpt lat="48.41648" lon="-3.87294">
        <ele>362</ele>
        <time>2021-09-12T10:10:59Z</time>
      </trkpt>
      <trkpt lat="48.41646" lon="-3.87298">
        <ele>362.39999389648</ele>
        <time>2021-09-12T10:11:00Z</time>
      </trkpt>
      <trkpt lat="48.41646" lon="-3.87302">
        <ele>362.39999389648</ele>
        <time>2021-09-12T10:11:01Z</time>
      </trkpt>
      <trkpt lat="48.41644" lon="-3.87306">
        <ele>362.39999389648</ele>
        <time>2021-09-12T10:11:02Z</time>
      </trkpt>
      <trkpt lat="48.41643" lon="-3.87311">
        <ele>362.60000610352</ele>
        <time>2021-09-12T10:11:03Z</time>
      </trkpt>
      <trkpt lat="48.41641" lon="-3.87314">
        <ele>362.60000610352</ele>
        <time>2021-09-12T10:11:04Z</time>
      </trkpt>
      <trkpt lat="48.41641" lon="-3.87318">
        <ele>363</ele>
        <time>2021-09-12T10:11:05Z</time>
      </trkpt>
      <trkpt lat="48.4164" lon="-3.8732">
        <ele>363.20001220703</ele>
        <time>2021-09-12T10:11:06Z</time>
      </trkpt>
      <trkpt lat="48.41639" lon="-3.87322">
        <ele>363.20001220703</ele>
        <time>2021-09-12T10:11:07Z</time>
      </trkpt>
      <trkpt lat="48.41639" lon="-3.87325">
        <ele>363.79998779297</ele>
        <time>2021-09-12T10:11:08Z</time>
      </trkpt>
      <trkpt lat="48.41638" lon="-3.87328">
        <ele>363.79998779297</ele>
        <time>2021-09-12T10:11:09Z</time>
      </trkpt>
      <trkpt lat="48.41637" lon="-3.87331">
        <ele>363.79998779297</ele>
        <time>2021-09-12T10:11:10Z</time>
      </trkpt>
      <trkpt lat="48.41637" lon="-3.87333">
        <ele>364</ele>
        <time>2021-09-12T10:11:11Z</time>
      </trkpt>
      <trkpt lat="48.41636" lon="-3.87337">
        <ele>364</ele>
        <time>2021-09-12T10:11:12Z</time>
      </trkpt>
      <trkpt lat="48.41636" lon="-3.8734">
        <ele>364.20001220703</ele>
        <time>2021-09-12T10:11:13Z</time>
      </trkpt>
      <trkpt lat="48.41635" lon="-3.87344">
        <ele>364.39999389648</ele>
        <time>2021-09-12T10:11:14Z</time>
      </trkpt>
      <trkpt lat="48.41634" lon="-3.87348">
        <ele>364.39999389648</ele>
        <time>2021-09-12T10:11:15Z</time>
      </trkpt>
      <trkpt lat="48.41634" lon="-3.87352">
        <ele>364.60000610352</ele>
        <time>2021-09-12T10:11:16Z</time>
      </trkpt>
      <trkpt lat="48.41632" lon="-3.87356">
        <ele>364.79998779297</ele>
        <time>2021-09-12T10:11:17Z</time>
      </trkpt>
      <trkpt lat="48.41631" lon="-3.8736">
        <ele>364.79998779297</ele>
        <time>2021-09-12T10:11:18Z</time>
      </trkpt>
      <trkpt lat="48.4163" lon="-3.87364">
        <ele>364.79998779297</ele>
        <time>2021-09-12T10:11:19Z</time>
      </trkpt>
      <trkpt lat="48.4163" lon="-3.87367">
        <ele>365.20001220703</ele>
        <time>2021-09-12T10:11:20Z</time>
      </trkpt>
      <trkpt lat="48.41629" lon="-3.87371">
        <ele>365.20001220703</ele>
        <time>2021-09-12T10:11:21Z</time>
      </trkpt>
      <trkpt lat="48.41628" lon="-3.87374">
        <ele>365.39999389648</ele>
        <time>2021-09-12T10:11:22Z</time>
      </trkpt>
      <trkpt lat="48.41627" lon="-3.87376">
        <ele>365.39999389648</ele>
        <time>2021-09-12T10:11:23Z</time>
      </trkpt>
      <trkpt lat="48.41626" lon="-3.87378">
        <ele>365.60000610352</ele>
        <time>2021-09-12T10:11:24Z</time>
      </trkpt>
      <trkpt lat="48.41625" lon="-3.87381">
        <ele>365.60000610352</ele>
        <time>2021-09-12T10:11:25Z</time>
      </trkpt>
      <trkpt lat="48.41624" lon="-3.87383">
        <ele>365.79998779297</ele>
        <time>2021-09-12T10:11:26Z</time>
      </trkpt>
      <trkpt lat="48.41623" lon="-3.87386">
        <ele>366</ele>
        <time>2021-09-12T10:11:27Z</time>
      </trkpt>
      <trkpt lat="48.41622" lon="-3.87389">
        <ele>366</ele>
        <time>2021-09-12T10:11:28Z</time>
      </trkpt>
      <trkpt lat="48.41621" lon="-3.87392">
        <ele>366</ele>
        <time>2021-09-12T10:11:29Z</time>
      </trkpt>
      <trkpt lat="48.4162" lon="-3.87396">
        <ele>366.20001220703</ele>
        <time>2021-09-12T10:11:30Z</time>
      </trkpt>
      <trkpt lat="48.41619" lon="-3.87399">
        <ele>366.20001220703</ele>
        <time>2021-09-12T10:11:31Z</time>
      </trkpt>
      <trkpt lat="48.41617" lon="-3.87403">
        <ele>366.20001220703</ele>
        <time>2021-09-12T10:11:32Z</time>
      </trkpt>
      <trkpt lat="48.41616" lon="-3.87407">
        <ele>366.39999389648</ele>
        <time>2021-09-12T10:11:33Z</time>
      </trkpt>
      <trkpt lat="48.41614" lon="-3.87411">
        <ele>367</ele>
        <time>2021-09-12T10:11:34Z</time>
      </trkpt>
      <trkpt lat="48.41612" lon="-3.87415">
        <ele>367</ele>
        <time>2021-09-12T10:11:35Z</time>
      </trkpt>
      <trkpt lat="48.41611" lon="-3.87419">
        <ele>367.20001220703</ele>
        <time>2021-09-12T10:11:36Z</time>
      </trkpt>
      <trkpt lat="48.41609" lon="-3.87424">
        <ele>367.20001220703</ele>
        <time>2021-09-12T10:11:37Z</time>
      </trkpt>
      <trkpt lat="48.41607" lon="-3.87428">
        <ele>367.39999389648</ele>
        <time>2021-09-12T10:11:38Z</time>
      </trkpt>
      <trkpt lat="48.41605" lon="-3.87433">
        <ele>367.39999389648</ele>
        <time>2021-09-12T10:11:39Z</time>
      </trkpt>
      <trkpt lat="48.41603" lon="-3.87437">
        <ele>367.39999389648</ele>
        <time>2021-09-12T10:11:40Z</time>
      </trkpt>
      <trkpt lat="48.41602" lon="-3.87442">
        <ele>367.60000610352</ele>
        <time>2021-09-12T10:11:41Z</time>
      </trkpt>
      <trkpt lat="48.416" lon="-3.87446">
        <ele>367.60000610352</ele>
        <time>2021-09-12T10:11:42Z</time>
      </trkpt>
      <trkpt lat="48.41598" lon="-3.8745">
        <ele>367.79998779297</ele>
        <time>2021-09-12T10:11:43Z</time>
      </trkpt>
      <trkpt lat="48.41596" lon="-3.87454">
        <ele>368.20001220703</ele>
        <time>2021-09-12T10:11:44Z</time>
      </trkpt>
      <trkpt lat="48.41594" lon="-3.87458">
        <ele>368.39999389648</ele>
        <time>2021-09-12T10:11:45Z</time>
      </trkpt>
      <trkpt lat="48.41592" lon="-3.87463">
        <ele>368.60000610352</ele>
        <time>2021-09-12T10:11:46Z</time>
      </trkpt>
      <trkpt lat="48.4159" lon="-3.87467">
        <ele>368.79998779297</ele>
        <time>2021-09-12T10:11:47Z</time>
      </trkpt>
      <trkpt lat="48.41588" lon="-3.87472">
        <ele>368.79998779297</ele>
        <time>2021-09-12T10:11:48Z</time>
      </trkpt>
      <trkpt lat="48.41586" lon="-3.87476">
        <ele>369</ele>
        <time>2021-09-12T10:11:49Z</time>
      </trkpt>
      <trkpt lat="48.41585" lon="-3.8748">
        <ele>369</ele>
        <time>2021-09-12T10:11:50Z</time>
      </trkpt>
      <trkpt lat="48.41584" lon="-3.87485">
        <ele>369.20001220703</ele>
        <time>2021-09-12T10:11:51Z</time>
      </trkpt>
      <trkpt lat="48.41583" lon="-3.87488">
        <ele>369.20001220703</ele>
        <time>2021-09-12T10:11:52Z</time>
      </trkpt>
      <trkpt lat="48.41582" lon="-3.87494">
        <ele>369.39999389648</ele>
        <time>2021-09-12T10:11:53Z</time>
      </trkpt>
      <trkpt lat="48.41581" lon="-3.87498">
        <ele>369.60000610352</ele>
        <time>2021-09-12T10:11:54Z</time>
      </trkpt>
      <trkpt lat="48.4158" lon="-3.87503">
        <ele>369.60000610352</ele>
        <time>2021-09-12T10:11:55Z</time>
      </trkpt>
      <trkpt lat="48.41579" lon="-3.87507">
        <ele>369.79998779297</ele>
        <time>2021-09-12T10:11:56Z</time>
      </trkpt>
      <trkpt lat="48.41578" lon="-3.87512">
        <ele>369.79998779297</ele>
        <time>2021-09-12T10:11:57Z</time>
      </trkpt>
      <trkpt lat="48.41577" lon="-3.87516">
        <ele>370</ele>
        <time>2021-09-12T10:11:58Z</time>
      </trkpt>
      <trkpt lat="48.41576" lon="-3.87521">
        <ele>370</ele>
        <time>2021-09-12T10:11:59Z</time>
      </trkpt>
      <trkpt lat="48.41574" lon="-3.87526">
        <ele>370.39999389648</ele>
        <time>2021-09-12T10:12:00Z</time>
      </trkpt>
      <trkpt lat="48.41573" lon="-3.87532">
        <ele>370.60000610352</ele>
        <time>2021-09-12T10:12:01Z</time>
      </trkpt>
      <trkpt lat="48.41572" lon="-3.87537">
        <ele>370.60000610352</ele>
        <time>2021-09-12T10:12:02Z</time>
      </trkpt>
      <trkpt lat="48.41571" lon="-3.87542">
        <ele>370.60000610352</ele>
        <time>2021-09-12T10:12:03Z</time>
      </trkpt>
      <trkpt lat="48.4157" lon="-3.87547">
        <ele>370.60000610352</ele>
        <time>2021-09-12T10:12:04Z</time>
      </trkpt>
      <trkpt lat="48.41569" lon="-3.87552">
        <ele>370.60000610352</ele>
        <time>2021-09-12T10:12:05Z</time>
      </trkpt>
      <trkpt lat="48.41567" lon="-3.87556">
        <ele>370.60000610352</ele>
        <time>2021-09-12T10:12:06Z</time>
      </trkpt>
      <trkpt lat="48.41566" lon="-3.87561">
        <ele>370.60000610352</ele>
        <time>2021-09-12T10:12:07Z</time>
      </trkpt>
      <trkpt lat="48.41565" lon="-3.87565">
        <ele>370.60000610352</ele>
        <time>2021-09-12T10:12:08Z</time>
      </trkpt>
      <trkpt lat="48.41565" lon="-3.8757">
        <ele>370.79998779297</ele>
        <time>2021-09-12T10:12:09Z</time>
      </trkpt>
      <trkpt lat="48.41563" lon="-3.87575">
        <ele>371</ele>
        <time>2021-09-12T10:12:10Z</time>
      </trkpt>
      <trkpt lat="48.41562" lon="-3.8758">
        <ele>371</ele>
        <time>2021-09-12T10:12:11Z</time>
      </trkpt>
      <trkpt lat="48.41561" lon="-3.87584">
        <ele>371.20001220703</ele>
        <time>2021-09-12T10:12:12Z</time>
      </trkpt>
      <trkpt lat="48.4156" lon="-3.87589">
        <ele>371.20001220703</ele>
        <time>2021-09-12T10:12:13Z</time>
      </trkpt>
      <trkpt lat="48.41559" lon="-3.87594">
        <ele>371.39999389648</ele>
        <time>2021-09-12T10:12:14Z</time>
      </trkpt>
      <trkpt lat="48.41558" lon="-3.87599">
        <ele>371.39999389648</ele>
        <time>2021-09-12T10:12:15Z</time>
      </trkpt>
      <trkpt lat="48.41556" lon="-3.87604">
        <ele>371.39999389648</ele>
        <time>2021-09-12T10:12:16Z</time>
      </trkpt>
      <trkpt lat="48.41554" lon="-3.87609">
        <ele>371.39999389648</ele>
        <time>2021-09-12T10:12:17Z</time>
      </trkpt>
      <trkpt lat="48.41552" lon="-3.87614">
        <ele>371.60000610352</ele>
        <time>2021-09-12T10:12:18Z</time>
      </trkpt>
      <trkpt lat="48.4155" lon="-3.87618">
        <ele>371.39999389648</ele>
        <time>2021-09-12T10:12:19Z</time>
      </trkpt>
      <trkpt lat="48.41549" lon="-3.87623">
        <ele>371.60000610352</ele>
        <time>2021-09-12T10:12:20Z</time>
      </trkpt>
      <trkpt lat="48.41548" lon="-3.87628">
        <ele>371.60000610352</ele>
        <time>2021-09-12T10:12:21Z</time>
      </trkpt>
      <trkpt lat="48.41547" lon="-3.87632">
        <ele>371.60000610352</ele>
        <time>2021-09-12T10:12:22Z</time>
      </trkpt>
      <trkpt lat="48.41546" lon="-3.87636">
        <ele>371.60000610352</ele>
        <time>2021-09-12T10:12:23Z</time>
      </trkpt>
      <trkpt lat="48.41545" lon="-3.87641">
        <ele>371.60000610352</ele>
        <time>2021-09-12T10:12:24Z</time>
      </trkpt>
      <trkpt lat="48.41544" lon="-3.87645">
        <ele>371.79998779297</ele>
        <time>2021-09-12T10:12:25Z</time>
      </trkpt>
      <trkpt lat="48.41542" lon="-3.8765">
        <ele>371.79998779297</ele>
        <time>2021-09-12T10:12:26Z</time>
      </trkpt>
      <trkpt lat="48.41541" lon="-3.87654">
        <ele>371.79998779297</ele>
        <time>2021-09-12T10:12:27Z</time>
      </trkpt>
      <trkpt lat="48.41539" lon="-3.87659">
        <ele>371.60000610352</ele>
        <time>2021-09-12T10:12:28Z</time>
      </trkpt>
      <trkpt lat="48.41537" lon="-3.87664">
        <ele>371.79998779297</ele>
        <time>2021-09-12T10:12:29Z</time>
      </trkpt>
      <trkpt lat="48.41535" lon="-3.87668">
        <ele>371.79998779297</ele>
        <time>2021-09-12T10:12:30Z</time>
      </trkpt>
      <trkpt lat="48.41534" lon="-3.87673">
        <ele>371.79998779297</ele>
        <time>2021-09-12T10:12:31Z</time>
      </trkpt>
      <trkpt lat="48.41532" lon="-3.87678">
        <ele>371.79998779297</ele>
        <time>2021-09-12T10:12:32Z</time>
      </trkpt>
      <trkpt lat="48.41531" lon="-3.87683">
        <ele>371.79998779297</ele>
        <time>2021-09-12T10:12:33Z</time>
      </trkpt>
      <trkpt lat="48.41529" lon="-3.87688">
        <ele>371.79998779297</ele>
        <time>2021-09-12T10:12:34Z</time>
      </trkpt>
      <trkpt lat="48.41527" lon="-3.87694">
        <ele>371.79998779297</ele>
        <time>2021-09-12T10:12:35Z</time>
      </trkpt>
      <trkpt lat="48.41525" lon="-3.87699">
        <ele>371.60000610352</ele>
        <time>2021-09-12T10:12:36Z</time>
      </trkpt>
      <trkpt lat="48.41523" lon="-3.87703">
        <ele>371.60000610352</ele>
        <time>2021-09-12T10:12:37Z</time>
      </trkpt>
      <trkpt lat="48.41522" lon="-3.87708">
        <ele>371.39999389648</ele>
        <time>2021-09-12T10:12:38Z</time>
      </trkpt>
      <trkpt lat="48.4152" lon="-3.87712">
        <ele>371.39999389648</ele>
        <time>2021-09-12T10:12:39Z</time>
      </trkpt>
      <trkpt lat="48.41518" lon="-3.87717">
        <ele>371.39999389648</ele>
        <time>2021-09-12T10:12:40Z</time>
      </trkpt>
      <trkpt lat="48.41516" lon="-3.87723">
        <ele>371.60000610352</ele>
        <time>2021-09-12T10:12:41Z</time>
      </trkpt>
      <trkpt lat="48.41515" lon="-3.87727">
        <ele>371.60000610352</ele>
        <time>2021-09-12T10:12:42Z</time>
      </trkpt>
      <trkpt lat="48.41514" lon="-3.87732">
        <ele>371.60000610352</ele>
        <time>2021-09-12T10:12:43Z</time>
      </trkpt>
      <trkpt lat="48.41513" lon="-3.87737">
        <ele>371.60000610352</ele>
        <time>2021-09-12T10:12:44Z</time>
      </trkpt>
      <trkpt lat="48.41512" lon="-3.87743">
        <ele>371.60000610352</ele>
        <time>2021-09-12T10:12:45Z</time>
      </trkpt>
      <trkpt lat="48.41511" lon="-3.8775">
        <ele>371.60000610352</ele>
        <time>2021-09-12T10:12:46Z</time>
      </trkpt>
      <trkpt lat="48.4151" lon="-3.87755">
        <ele>371.60000610352</ele>
        <time>2021-09-12T10:12:47Z</time>
      </trkpt>
      <trkpt lat="48.41509" lon="-3.87761">
        <ele>371.60000610352</ele>
        <time>2021-09-12T10:12:48Z</time>
      </trkpt>
      <trkpt lat="48.41509" lon="-3.87767">
        <ele>371.60000610352</ele>
        <time>2021-09-12T10:12:49Z</time>
      </trkpt>
      <trkpt lat="48.41508" lon="-3.87773">
        <ele>371.60000610352</ele>
        <time>2021-09-12T10:12:50Z</time>
      </trkpt>
      <trkpt lat="48.41507" lon="-3.87779">
        <ele>371.39999389648</ele>
        <time>2021-09-12T10:12:51Z</time>
      </trkpt>
      <trkpt lat="48.41505" lon="-3.87785">
        <ele>371.39999389648</ele>
        <time>2021-09-12T10:12:52Z</time>
      </trkpt>
      <trkpt lat="48.41503" lon="-3.87791">
        <ele>371.39999389648</ele>
        <time>2021-09-12T10:12:53Z</time>
      </trkpt>
      <trkpt lat="48.41501" lon="-3.87797">
        <ele>371.39999389648</ele>
        <time>2021-09-12T10:12:54Z</time>
      </trkpt>
      <trkpt lat="48.41499" lon="-3.87803">
        <ele>371.20001220703</ele>
        <time>2021-09-12T10:12:55Z</time>
      </trkpt>
      <trkpt lat="48.41498" lon="-3.87809">
        <ele>371</ele>
        <time>2021-09-12T10:12:56Z</time>
      </trkpt>
      <trkpt lat="48.41496" lon="-3.87816">
        <ele>371</ele>
        <time>2021-09-12T10:12:57Z</time>
      </trkpt>
      <trkpt lat="48.41494" lon="-3.87821">
        <ele>370.79998779297</ele>
        <time>2021-09-12T10:12:58Z</time>
      </trkpt>
      <trkpt lat="48.41492" lon="-3.87827">
        <ele>370.60000610352</ele>
        <time>2021-09-12T10:12:59Z</time>
      </trkpt>
      <trkpt lat="48.4149" lon="-3.87833">
        <ele>370.60000610352</ele>
        <time>2021-09-12T10:13:00Z</time>
      </trkpt>
      <trkpt lat="48.41488" lon="-3.87839">
        <ele>370.39999389648</ele>
        <time>2021-09-12T10:13:01Z</time>
      </trkpt>
      <trkpt lat="48.41487" lon="-3.87844">
        <ele>370.39999389648</ele>
        <time>2021-09-12T10:13:02Z</time>
      </trkpt>
      <trkpt lat="48.41485" lon="-3.8785">
        <ele>370.20001220703</ele>
        <time>2021-09-12T10:13:03Z</time>
      </trkpt>
      <trkpt lat="48.41484" lon="-3.87855">
        <ele>370.20001220703</ele>
        <time>2021-09-12T10:13:04Z</time>
      </trkpt>
      <trkpt lat="48.41483" lon="-3.87861">
        <ele>370.20001220703</ele>
        <time>2021-09-12T10:13:05Z</time>
      </trkpt>
      <trkpt lat="48.41482" lon="-3.87867">
        <ele>370</ele>
        <time>2021-09-12T10:13:06Z</time>
      </trkpt>
      <trkpt lat="48.41481" lon="-3.87873">
        <ele>369.79998779297</ele>
        <time>2021-09-12T10:13:07Z</time>
      </trkpt>
      <trkpt lat="48.4148" lon="-3.8788">
        <ele>369.79998779297</ele>
        <time>2021-09-12T10:13:08Z</time>
      </trkpt>
      <trkpt lat="48.41479" lon="-3.87885">
        <ele>369.60000610352</ele>
        <time>2021-09-12T10:13:09Z</time>
      </trkpt>
      <trkpt lat="48.41478" lon="-3.8789">
        <ele>369.60000610352</ele>
        <time>2021-09-12T10:13:10Z</time>
      </trkpt>
      <trkpt lat="48.41476" lon="-3.87897">
        <ele>369.60000610352</ele>
        <time>2021-09-12T10:13:11Z</time>
      </trkpt>
      <trkpt lat="48.41475" lon="-3.87903">
        <ele>369.39999389648</ele>
        <time>2021-09-12T10:13:12Z</time>
      </trkpt>
      <trkpt lat="48.41474" lon="-3.87909">
        <ele>369.60000610352</ele>
        <time>2021-09-12T10:13:13Z</time>
      </trkpt>
      <trkpt lat="48.41473" lon="-3.87913">
        <ele>369.60000610352</ele>
        <time>2021-09-12T10:13:14Z</time>
      </trkpt>
      <trkpt lat="48.41472" lon="-3.87919">
        <ele>369.39999389648</ele>
        <time>2021-09-12T10:13:15Z</time>
      </trkpt>
      <trkpt lat="48.41471" lon="-3.87925">
        <ele>369.39999389648</ele>
        <time>2021-09-12T10:13:16Z</time>
      </trkpt>
      <trkpt lat="48.4147" lon="-3.87932">
        <ele>369.39999389648</ele>
        <time>2021-09-12T10:13:17Z</time>
      </trkpt>
      <trkpt lat="48.41469" lon="-3.87939">
        <ele>369.39999389648</ele>
        <time>2021-09-12T10:13:18Z</time>
      </trkpt>
      <trkpt lat="48.41468" lon="-3.87946">
        <ele>369.20001220703</ele>
        <time>2021-09-12T10:13:19Z</time>
      </trkpt>
      <trkpt lat="48.41467" lon="-3.87952">
        <ele>369.20001220703</ele>
        <time>2021-09-12T10:13:20Z</time>
      </trkpt>
      <trkpt lat="48.41466" lon="-3.87958">
        <ele>369</ele>
        <time>2021-09-12T10:13:21Z</time>
      </trkpt>
      <trkpt lat="48.41465" lon="-3.87965">
        <ele>369</ele>
        <time>2021-09-12T10:13:22Z</time>
      </trkpt>
      <trkpt lat="48.41465" lon="-3.87971">
        <ele>369</ele>
        <time>2021-09-12T10:13:23Z</time>
      </trkpt>
      <trkpt lat="48.41464" lon="-3.87977">
        <ele>369</ele>
        <time>2021-09-12T10:13:24Z</time>
      </trkpt>
      <trkpt lat="48.41463" lon="-3.87984">
        <ele>369</ele>
        <time>2021-09-12T10:13:25Z</time>
      </trkpt>
      <trkpt lat="48.41462" lon="-3.87991">
        <ele>368.79998779297</ele>
        <time>2021-09-12T10:13:26Z</time>
      </trkpt>
      <trkpt lat="48.41461" lon="-3.87997">
        <ele>368.79998779297</ele>
        <time>2021-09-12T10:13:27Z</time>
      </trkpt>
      <trkpt lat="48.41459" lon="-3.88003">
        <ele>368.79998779297</ele>
        <time>2021-09-12T10:13:28Z</time>
      </trkpt>
      <trkpt lat="48.41458" lon="-3.88008">
        <ele>368.79998779297</ele>
        <time>2021-09-12T10:13:29Z</time>
      </trkpt>
      <trkpt lat="48.41456" lon="-3.88015">
        <ele>368.79998779297</ele>
        <time>2021-09-12T10:13:30Z</time>
      </trkpt>
      <trkpt lat="48.41454" lon="-3.8802">
        <ele>368.79998779297</ele>
        <time>2021-09-12T10:13:31Z</time>
      </trkpt>
      <trkpt lat="48.41452" lon="-3.88025">
        <ele>368.79998779297</ele>
        <time>2021-09-12T10:13:32Z</time>
      </trkpt>
      <trkpt lat="48.41451" lon="-3.88031">
        <ele>368.79998779297</ele>
        <time>2021-09-12T10:13:33Z</time>
      </trkpt>
      <trkpt lat="48.41449" lon="-3.88036">
        <ele>368.60000610352</ele>
        <time>2021-09-12T10:13:34Z</time>
      </trkpt>
      <trkpt lat="48.41447" lon="-3.88042">
        <ele>368.39999389648</ele>
        <time>2021-09-12T10:13:35Z</time>
      </trkpt>
      <trkpt lat="48.41444" lon="-3.88047">
        <ele>368.39999389648</ele>
        <time>2021-09-12T10:13:36Z</time>
      </trkpt>
      <trkpt lat="48.41441" lon="-3.88052">
        <ele>368.39999389648</ele>
        <time>2021-09-12T10:13:37Z</time>
      </trkpt>
      <trkpt lat="48.41438" lon="-3.88057">
        <ele>368.20001220703</ele>
        <time>2021-09-12T10:13:38Z</time>
      </trkpt>
      <trkpt lat="48.41436" lon="-3.88063">
        <ele>368.20001220703</ele>
        <time>2021-09-12T10:13:39Z</time>
      </trkpt>
      <trkpt lat="48.41435" lon="-3.88069">
        <ele>368.20001220703</ele>
        <time>2021-09-12T10:13:40Z</time>
      </trkpt>
      <trkpt lat="48.41435" lon="-3.88075">
        <ele>368</ele>
        <time>2021-09-12T10:13:41Z</time>
      </trkpt>
      <trkpt lat="48.41435" lon="-3.8808">
        <ele>367.79998779297</ele>
        <time>2021-09-12T10:13:42Z</time>
      </trkpt>
      <trkpt lat="48.41435" lon="-3.88086">
        <ele>367.60000610352</ele>
        <time>2021-09-12T10:13:43Z</time>
      </trkpt>
      <trkpt lat="48.41435" lon="-3.88092">
        <ele>367.60000610352</ele>
        <time>2021-09-12T10:13:44Z</time>
      </trkpt>
      <trkpt lat="48.41434" lon="-3.88098">
        <ele>367.60000610352</ele>
        <time>2021-09-12T10:13:45Z</time>
      </trkpt>
      <trkpt lat="48.41434" lon="-3.88104">
        <ele>367.60000610352</ele>
        <time>2021-09-12T10:13:46Z</time>
      </trkpt>
      <trkpt lat="48.41433" lon="-3.8811">
        <ele>367.60000610352</ele>
        <time>2021-09-12T10:13:47Z</time>
      </trkpt>
      <trkpt lat="48.41433" lon="-3.88116">
        <ele>367.39999389648</ele>
        <time>2021-09-12T10:13:48Z</time>
      </trkpt>
      <trkpt lat="48.41433" lon="-3.88123">
        <ele>367.39999389648</ele>
        <time>2021-09-12T10:13:49Z</time>
      </trkpt>
      <trkpt lat="48.41432" lon="-3.88129">
        <ele>367.39999389648</ele>
        <time>2021-09-12T10:13:50Z</time>
      </trkpt>
      <trkpt lat="48.41432" lon="-3.88136">
        <ele>367.39999389648</ele>
        <time>2021-09-12T10:13:51Z</time>
      </trkpt>
      <trkpt lat="48.41431" lon="-3.88141">
        <ele>367.39999389648</ele>
        <time>2021-09-12T10:13:52Z</time>
      </trkpt>
      <trkpt lat="48.4143" lon="-3.88149">
        <ele>367.20001220703</ele>
        <time>2021-09-12T10:13:53Z</time>
      </trkpt>
      <trkpt lat="48.41429" lon="-3.88154">
        <ele>367.20001220703</ele>
        <time>2021-09-12T10:13:54Z</time>
      </trkpt>
      <trkpt lat="48.41427" lon="-3.8816">
        <ele>366.79998779297</ele>
        <time>2021-09-12T10:13:55Z</time>
      </trkpt>
      <trkpt lat="48.41426" lon="-3.88165">
        <ele>366.79998779297</ele>
        <time>2021-09-12T10:13:56Z</time>
      </trkpt>
      <trkpt lat="48.41424" lon="-3.88171">
        <ele>366.79998779297</ele>
        <time>2021-09-12T10:13:57Z</time>
      </trkpt>
      <trkpt lat="48.41422" lon="-3.88177">
        <ele>366.79998779297</ele>
        <time>2021-09-12T10:13:58Z</time>
      </trkpt>
      <trkpt lat="48.4142" lon="-3.88183">
        <ele>366.79998779297</ele>
        <time>2021-09-12T10:13:59Z</time>
      </trkpt>
      <trkpt lat="48.41419" lon="-3.8819">
        <ele>366.79998779297</ele>
        <time>2021-09-12T10:14:00Z</time>
      </trkpt>
      <trkpt lat="48.41417" lon="-3.88196">
        <ele>366.39999389648</ele>
        <time>2021-09-12T10:14:01Z</time>
      </trkpt>
      <trkpt lat="48.41415" lon="-3.88206">
        <ele>366</ele>
        <time>2021-09-12T10:14:02Z</time>
      </trkpt>
      <trkpt lat="48.41415" lon="-3.88215">
        <ele>366</ele>
        <time>2021-09-12T10:14:03Z</time>
      </trkpt>
      <trkpt lat="48.41414" lon="-3.88224">
        <ele>366</ele>
        <time>2021-09-12T10:14:04Z</time>
      </trkpt>
      <trkpt lat="48.41412" lon="-3.88234">
        <ele>365.79998779297</ele>
        <time>2021-09-12T10:14:05Z</time>
      </trkpt>
      <trkpt lat="48.41411" lon="-3.88242">
        <ele>365.79998779297</ele>
        <time>2021-09-12T10:14:06Z</time>
      </trkpt>
      <trkpt lat="48.4141" lon="-3.88251">
        <ele>365.79998779297</ele>
        <time>2021-09-12T10:14:07Z</time>
      </trkpt>
      <trkpt lat="48.41408" lon="-3.88259">
        <ele>365.39999389648</ele>
        <time>2021-09-12T10:14:08Z</time>
      </trkpt>
      <trkpt lat="48.41407" lon="-3.88266">
        <ele>365.39999389648</ele>
        <time>2021-09-12T10:14:09Z</time>
      </trkpt>
      <trkpt lat="48.41405" lon="-3.88274">
        <ele>365.20001220703</ele>
        <time>2021-09-12T10:14:10Z</time>
      </trkpt>
      <trkpt lat="48.41403" lon="-3.88282">
        <ele>365</ele>
        <time>2021-09-12T10:14:11Z</time>
      </trkpt>
      <trkpt lat="48.41401" lon="-3.88291">
        <ele>365</ele>
        <time>2021-09-12T10:14:12Z</time>
      </trkpt>
      <trkpt lat="48.414" lon="-3.88299">
        <ele>365</ele>
        <time>2021-09-12T10:14:13Z</time>
      </trkpt>
      <trkpt lat="48.41398" lon="-3.88307">
        <ele>364.79998779297</ele>
        <time>2021-09-12T10:14:14Z</time>
      </trkpt>
      <trkpt lat="48.41396" lon="-3.88315">
        <ele>364.39999389648</ele>
        <time>2021-09-12T10:14:15Z</time>
      </trkpt>
      <trkpt lat="48.41394" lon="-3.88323">
        <ele>364.39999389648</ele>
        <time>2021-09-12T10:14:16Z</time>
      </trkpt>
      <trkpt lat="48.41392" lon="-3.88332">
        <ele>364.39999389648</ele>
        <time>2021-09-12T10:14:17Z</time>
      </trkpt>
      <trkpt lat="48.4139" lon="-3.8834">
        <ele>364.39999389648</ele>
        <time>2021-09-12T10:14:18Z</time>
      </trkpt>
      <trkpt lat="48.41389" lon="-3.88349">
        <ele>364</ele>
        <time>2021-09-12T10:14:19Z</time>
      </trkpt>
      <trkpt lat="48.41388" lon="-3.88355">
        <ele>364</ele>
        <time>2021-09-12T10:14:20Z</time>
      </trkpt>
      <trkpt lat="48.41386" lon="-3.88365">
        <ele>364</ele>
        <time>2021-09-12T10:14:21Z</time>
      </trkpt>
      <trkpt lat="48.41385" lon="-3.88374">
        <ele>364</ele>
        <time>2021-09-12T10:14:22Z</time>
      </trkpt>
      <trkpt lat="48.41383" lon="-3.88382">
        <ele>363.60000610352</ele>
        <time>2021-09-12T10:14:23Z</time>
      </trkpt>
      <trkpt lat="48.41382" lon="-3.88391">
        <ele>363.60000610352</ele>
        <time>2021-09-12T10:14:24Z</time>
      </trkpt>
      <trkpt lat="48.4138" lon="-3.88399">
        <ele>363.60000610352</ele>
        <time>2021-09-12T10:14:25Z</time>
      </trkpt>
      <trkpt lat="48.41379" lon="-3.88407">
        <ele>363.20001220703</ele>
        <time>2021-09-12T10:14:26Z</time>
      </trkpt>
      <trkpt lat="48.41377" lon="-3.88416">
        <ele>363.20001220703</ele>
        <time>2021-09-12T10:14:27Z</time>
      </trkpt>
      <trkpt lat="48.41375" lon="-3.88424">
        <ele>363</ele>
        <time>2021-09-12T10:14:28Z</time>
      </trkpt>
      <trkpt lat="48.41374" lon="-3.88432">
        <ele>362.79998779297</ele>
        <time>2021-09-12T10:14:29Z</time>
      </trkpt>
      <trkpt lat="48.41373" lon="-3.88439">
        <ele>362.39999389648</ele>
        <time>2021-09-12T10:14:30Z</time>
      </trkpt>
      <trkpt lat="48.41371" lon="-3.88447">
        <ele>362.39999389648</ele>
        <time>2021-09-12T10:14:31Z</time>
      </trkpt>
      <trkpt lat="48.4137" lon="-3.88455">
        <ele>362.39999389648</ele>
        <time>2021-09-12T10:14:32Z</time>
      </trkpt>
      <trkpt lat="48.41367" lon="-3.88462">
        <ele>362.39999389648</ele>
        <time>2021-09-12T10:14:33Z</time>
      </trkpt>
      <trkpt lat="48.41364" lon="-3.88467">
        <ele>362.20001220703</ele>
        <time>2021-09-12T10:14:34Z</time>
      </trkpt>
      <trkpt lat="48.4136" lon="-3.88471">
        <ele>361.79998779297</ele>
        <time>2021-09-12T10:14:35Z</time>
      </trkpt>
      <trkpt lat="48.41355" lon="-3.88474">
        <ele>361.79998779297</ele>
        <time>2021-09-12T10:14:36Z</time>
      </trkpt>
      <trkpt lat="48.41351" lon="-3.88478">
        <ele>361.60000610352</ele>
        <time>2021-09-12T10:14:37Z</time>
      </trkpt>
      <trkpt lat="48.41346" lon="-3.88483">
        <ele>361.39999389648</ele>
        <time>2021-09-12T10:14:38Z</time>
      </trkpt>
      <trkpt lat="48.41344" lon="-3.88489">
        <ele>361.20001220703</ele>
        <time>2021-09-12T10:14:39Z</time>
      </trkpt>
      <trkpt lat="48.41342" lon="-3.88497">
        <ele>361</ele>
        <time>2021-09-12T10:14:40Z</time>
      </trkpt>
      <trkpt lat="48.41341" lon="-3.88504">
        <ele>360.79998779297</ele>
        <time>2021-09-12T10:14:41Z</time>
      </trkpt>
      <trkpt lat="48.41341" lon="-3.88511">
        <ele>360.60000610352</ele>
        <time>2021-09-12T10:14:42Z</time>
      </trkpt>
      <trkpt lat="48.41342" lon="-3.88521">
        <ele>360.39999389648</ele>
        <time>2021-09-12T10:14:43Z</time>
      </trkpt>
      <trkpt lat="48.41343" lon="-3.8853">
        <ele>360.39999389648</ele>
        <time>2021-09-12T10:14:44Z</time>
      </trkpt>
      <trkpt lat="48.41344" lon="-3.88538">
        <ele>360.20001220703</ele>
        <time>2021-09-12T10:14:45Z</time>
      </trkpt>
      <trkpt lat="48.41344" lon="-3.88547">
        <ele>360.20001220703</ele>
        <time>2021-09-12T10:14:46Z</time>
      </trkpt>
      <trkpt lat="48.41343" lon="-3.88556">
        <ele>360</ele>
        <time>2021-09-12T10:14:47Z</time>
      </trkpt>
      <trkpt lat="48.41343" lon="-3.88564">
        <ele>360</ele>
        <time>2021-09-12T10:14:48Z</time>
      </trkpt>
      <trkpt lat="48.41343" lon="-3.88572">
        <ele>359.60000610352</ele>
        <time>2021-09-12T10:14:49Z</time>
      </trkpt>
      <trkpt lat="48.41342" lon="-3.8858">
        <ele>359.60000610352</ele>
        <time>2021-09-12T10:14:50Z</time>
      </trkpt>
      <trkpt lat="48.41342" lon="-3.88588">
        <ele>359.60000610352</ele>
        <time>2021-09-12T10:14:51Z</time>
      </trkpt>
      <trkpt lat="48.41341" lon="-3.88594">
        <ele>359.39999389648</ele>
        <time>2021-09-12T10:14:52Z</time>
      </trkpt>
      <trkpt lat="48.4134" lon="-3.88602">
        <ele>359.39999389648</ele>
        <time>2021-09-12T10:14:53Z</time>
      </trkpt>
      <trkpt lat="48.41338" lon="-3.8861">
        <ele>359.39999389648</ele>
        <time>2021-09-12T10:14:54Z</time>
      </trkpt>
      <trkpt lat="48.41337" lon="-3.88619">
        <ele>359.39999389648</ele>
        <time>2021-09-12T10:14:55Z</time>
      </trkpt>
      <trkpt lat="48.41335" lon="-3.88627">
        <ele>359.39999389648</ele>
        <time>2021-09-12T10:14:56Z</time>
      </trkpt>
      <trkpt lat="48.41334" lon="-3.88635">
        <ele>359</ele>
        <time>2021-09-12T10:14:57Z</time>
      </trkpt>
      <trkpt lat="48.41333" lon="-3.88643">
        <ele>359</ele>
        <time>2021-09-12T10:14:58Z</time>
      </trkpt>
      <trkpt lat="48.4133" lon="-3.88649">
        <ele>359</ele>
        <time>2021-09-12T10:14:59Z</time>
      </trkpt>
      <trkpt lat="48.41327" lon="-3.88655">
        <ele>359</ele>
        <time>2021-09-12T10:15:00Z</time>
      </trkpt>
      <trkpt lat="48.41323" lon="-3.88659">
        <ele>358.79998779297</ele>
        <time>2021-09-12T10:15:01Z</time>
      </trkpt>
      <trkpt lat="48.41318" lon="-3.88663">
        <ele>358.79998779297</ele>
        <time>2021-09-12T10:15:02Z</time>
      </trkpt>
      <trkpt lat="48.41314" lon="-3.88667">
        <ele>358.79998779297</ele>
        <time>2021-09-12T10:15:03Z</time>
      </trkpt>
      <trkpt lat="48.4131" lon="-3.88673">
        <ele>358.60000610352</ele>
        <time>2021-09-12T10:15:04Z</time>
      </trkpt>
      <trkpt lat="48.41308" lon="-3.8868">
        <ele>358.20001220703</ele>
        <time>2021-09-12T10:15:05Z</time>
      </trkpt>
      <trkpt lat="48.41307" lon="-3.88687">
        <ele>358</ele>
        <time>2021-09-12T10:15:06Z</time>
      </trkpt>
      <trkpt lat="48.41305" lon="-3.88694">
        <ele>358</ele>
        <time>2021-09-12T10:15:07Z</time>
      </trkpt>
      <trkpt lat="48.41304" lon="-3.88702">
        <ele>357.79998779297</ele>
        <time>2021-09-12T10:15:08Z</time>
      </trkpt>
      <trkpt lat="48.41303" lon="-3.88709">
        <ele>357.79998779297</ele>
        <time>2021-09-12T10:15:09Z</time>
      </trkpt>
      <trkpt lat="48.41302" lon="-3.88716">
        <ele>357.79998779297</ele>
        <time>2021-09-12T10:15:10Z</time>
      </trkpt>
      <trkpt lat="48.413" lon="-3.88721">
        <ele>357.79998779297</ele>
        <time>2021-09-12T10:15:11Z</time>
      </trkpt>
      <trkpt lat="48.41297" lon="-3.88727">
        <ele>357.79998779297</ele>
        <time>2021-09-12T10:15:12Z</time>
      </trkpt>
      <trkpt lat="48.41293" lon="-3.8873">
        <ele>357.79998779297</ele>
        <time>2021-09-12T10:15:13Z</time>
      </trkpt>
      <trkpt lat="48.41289" lon="-3.88732">
        <ele>357.79998779297</ele>
        <time>2021-09-12T10:15:14Z</time>
      </trkpt>
      <trkpt lat="48.41285" lon="-3.88733">
        <ele>357.60000610352</ele>
        <time>2021-09-12T10:15:15Z</time>
      </trkpt>
      <trkpt lat="48.41281" lon="-3.88734">
        <ele>357.39999389648</ele>
        <time>2021-09-12T10:15:16Z</time>
      </trkpt>
      <trkpt lat="48.41278" lon="-3.88735">
        <ele>357</ele>
        <time>2021-09-12T10:15:17Z</time>
      </trkpt>
      <trkpt lat="48.41276" lon="-3.88736">
        <ele>357</ele>
        <time>2021-09-12T10:15:18Z</time>
      </trkpt>
      <trkpt lat="48.41275" lon="-3.88737">
        <ele>356.79998779297</ele>
        <time>2021-09-12T10:15:19Z</time>
      </trkpt>
      <trkpt lat="48.41273" lon="-3.88737">
        <ele>356.79998779297</ele>
        <time>2021-09-12T10:15:20Z</time>
      </trkpt>
      <trkpt lat="48.4127" lon="-3.88739">
        <ele>356.60000610352</ele>
        <time>2021-09-12T10:15:21Z</time>
      </trkpt>
      <trkpt lat="48.41268" lon="-3.88739">
        <ele>356.39999389648</ele>
        <time>2021-09-12T10:15:22Z</time>
      </trkpt>
      <trkpt lat="48.41265" lon="-3.8874">
        <ele>356.39999389648</ele>
        <time>2021-09-12T10:15:23Z</time>
      </trkpt>
      <trkpt lat="48.41262" lon="-3.8874">
        <ele>356.20001220703</ele>
        <time>2021-09-12T10:15:24Z</time>
      </trkpt>
      <trkpt lat="48.41259" lon="-3.88741">
        <ele>356</ele>
        <time>2021-09-12T10:15:25Z</time>
      </trkpt>
      <trkpt lat="48.41255" lon="-3.88741">
        <ele>356</ele>
        <time>2021-09-12T10:15:26Z</time>
      </trkpt>
      <trkpt lat="48.41252" lon="-3.88742">
        <ele>355.79998779297</ele>
        <time>2021-09-12T10:15:27Z</time>
      </trkpt>
      <trkpt lat="48.41248" lon="-3.88743">
        <ele>355.79998779297</ele>
        <time>2021-09-12T10:15:28Z</time>
      </trkpt>
      <trkpt lat="48.41244" lon="-3.88744">
        <ele>355.79998779297</ele>
        <time>2021-09-12T10:15:29Z</time>
      </trkpt>
      <trkpt lat="48.4124" lon="-3.88745">
        <ele>355.20001220703</ele>
        <time>2021-09-12T10:15:30Z</time>
      </trkpt>
      <trkpt lat="48.41237" lon="-3.88746">
        <ele>355</ele>
        <time>2021-09-12T10:15:31Z</time>
      </trkpt>
      <trkpt lat="48.41233" lon="-3.88748">
        <ele>354.79998779297</ele>
        <time>2021-09-12T10:15:32Z</time>
      </trkpt>
      <trkpt lat="48.41231" lon="-3.88749">
        <ele>354</ele>
        <time>2021-09-12T10:15:33Z</time>
      </trkpt>
      <trkpt lat="48.41229" lon="-3.88751">
        <ele>354</ele>
        <time>2021-09-12T10:15:34Z</time>
      </trkpt>
      <trkpt lat="48.41228" lon="-3.88753">
        <ele>354</ele>
        <time>2021-09-12T10:15:35Z</time>
      </trkpt>
      <trkpt lat="48.41226" lon="-3.88756">
        <ele>353.79998779297</ele>
        <time>2021-09-12T10:15:36Z</time>
      </trkpt>
      <trkpt lat="48.41224" lon="-3.88758">
        <ele>353.60000610352</ele>
        <time>2021-09-12T10:15:37Z</time>
      </trkpt>
      <trkpt lat="48.41223" lon="-3.8876">
        <ele>353.39999389648</ele>
        <time>2021-09-12T10:15:38Z</time>
      </trkpt>
      <trkpt lat="48.41223" lon="-3.8876">
        <ele>353.20001220703</ele>
        <time>2021-09-12T10:15:39Z</time>
      </trkpt>
      <trkpt lat="48.41222" lon="-3.88761">
        <ele>353</ele>
        <time>2021-09-12T10:15:40Z</time>
      </trkpt>
      <trkpt lat="48.4122" lon="-3.88764">
        <ele>353</ele>
        <time>2021-09-12T10:15:41Z</time>
      </trkpt>
      <trkpt lat="48.41218" lon="-3.88766">
        <ele>353</ele>
        <time>2021-09-12T10:15:42Z</time>
      </trkpt>
      <trkpt lat="48.41215" lon="-3.88767">
        <ele>352.79998779297</ele>
        <time>2021-09-12T10:15:43Z</time>
      </trkpt>
      <trkpt lat="48.41212" lon="-3.88767">
        <ele>352.79998779297</ele>
        <time>2021-09-12T10:15:44Z</time>
      </trkpt>
      <trkpt lat="48.4121" lon="-3.88766">
        <ele>352.79998779297</ele>
        <time>2021-09-12T10:15:45Z</time>
      </trkpt>
      <trkpt lat="48.41208" lon="-3.88766">
        <ele>352.39999389648</ele>
        <time>2021-09-12T10:15:46Z</time>
      </trkpt>
      <trkpt lat="48.41206" lon="-3.88765">
        <ele>352.39999389648</ele>
        <time>2021-09-12T10:15:47Z</time>
      </trkpt>
      <trkpt lat="48.41203" lon="-3.88765">
        <ele>352.20001220703</ele>
        <time>2021-09-12T10:15:48Z</time>
      </trkpt>
      <trkpt lat="48.41201" lon="-3.88765">
        <ele>351.79998779297</ele>
        <time>2021-09-12T10:15:49Z</time>
      </trkpt>
      <trkpt lat="48.412" lon="-3.88765">
        <ele>351.60000610352</ele>
        <time>2021-09-12T10:15:50Z</time>
      </trkpt>
      <trkpt lat="48.41199" lon="-3.88765">
        <ele>351</ele>
        <time>2021-09-12T10:15:51Z</time>
      </trkpt>
      <trkpt lat="48.41199" lon="-3.88765">
        <ele>351</ele>
        <time>2021-09-12T10:15:52Z</time>
      </trkpt>
      <trkpt lat="48.41198" lon="-3.88765">
        <ele>350.79998779297</ele>
        <time>2021-09-12T10:15:53Z</time>
      </trkpt>
      <trkpt lat="48.41196" lon="-3.88765">
        <ele>350.79998779297</ele>
        <time>2021-09-12T10:15:54Z</time>
      </trkpt>
      <trkpt lat="48.41195" lon="-3.88766">
        <ele>350.79998779297</ele>
        <time>2021-09-12T10:15:55Z</time>
      </trkpt>
      <trkpt lat="48.41193" lon="-3.88766">
        <ele>350.79998779297</ele>
        <time>2021-09-12T10:15:56Z</time>
      </trkpt>
      <trkpt lat="48.41191" lon="-3.88766">
        <ele>350.39999389648</ele>
        <time>2021-09-12T10:15:57Z</time>
      </trkpt>
      <trkpt lat="48.4119" lon="-3.88766">
        <ele>350</ele>
        <time>2021-09-12T10:15:58Z</time>
      </trkpt>
      <trkpt lat="48.41187" lon="-3.88766">
        <ele>349.79998779297</ele>
        <time>2021-09-12T10:15:59Z</time>
      </trkpt>
      <trkpt lat="48.41185" lon="-3.88766">
        <ele>349</ele>
        <time>2021-09-12T10:16:00Z</time>
      </trkpt>
      <trkpt lat="48.41182" lon="-3.88767">
        <ele>349</ele>
        <time>2021-09-12T10:16:01Z</time>
      </trkpt>
      <trkpt lat="48.41179" lon="-3.88768">
        <ele>348.79998779297</ele>
        <time>2021-09-12T10:16:02Z</time>
      </trkpt>
      <trkpt lat="48.41176" lon="-3.88768">
        <ele>348.39999389648</ele>
        <time>2021-09-12T10:16:03Z</time>
      </trkpt>
      <trkpt lat="48.41172" lon="-3.88768">
        <ele>348.20001220703</ele>
        <time>2021-09-12T10:16:04Z</time>
      </trkpt>
      <trkpt lat="48.41167" lon="-3.8877">
        <ele>347.79998779297</ele>
        <time>2021-09-12T10:16:05Z</time>
      </trkpt>
      <trkpt lat="48.41163" lon="-3.88771">
        <ele>347.20001220703</ele>
        <time>2021-09-12T10:16:06Z</time>
      </trkpt>
      <trkpt lat="48.41162" lon="-3.88771">
        <ele>346.79998779297</ele>
        <time>2021-09-12T10:16:07Z</time>
      </trkpt>
      <trkpt lat="48.41161" lon="-3.88772">
        <ele>346</ele>
        <time>2021-09-12T10:16:08Z</time>
      </trkpt>
      <trkpt lat="48.41161" lon="-3.88772">
        <ele>346</ele>
        <time>2021-09-12T10:16:09Z</time>
      </trkpt>
      <trkpt lat="48.41158" lon="-3.88775">
        <ele>346</ele>
        <time>2021-09-12T10:16:21Z</time>
      </trkpt>
      <trkpt lat="48.41156" lon="-3.88776">
        <ele>346</ele>
        <time>2021-09-12T10:16:22Z</time>
      </trkpt>
      <trkpt lat="48.41155" lon="-3.88778">
        <ele>346</ele>
        <time>2021-09-12T10:16:23Z</time>
      </trkpt>
      <trkpt lat="48.41154" lon="-3.8878">
        <ele>346</ele>
        <time>2021-09-12T10:16:24Z</time>
      </trkpt>
      <trkpt lat="48.41152" lon="-3.88783">
        <ele>345.79998779297</ele>
        <time>2021-09-12T10:16:25Z</time>
      </trkpt>
      <trkpt lat="48.4115" lon="-3.88785">
        <ele>345.60000610352</ele>
        <time>2021-09-12T10:16:26Z</time>
      </trkpt>
      <trkpt lat="48.4115" lon="-3.88785">
        <ele>345.39999389648</ele>
        <time>2021-09-12T10:16:27Z</time>
      </trkpt>
      <trkpt lat="48.41149" lon="-3.88786">
        <ele>345.39999389648</ele>
        <time>2021-09-12T10:16:28Z</time>
      </trkpt>
      <trkpt lat="48.41148" lon="-3.88788">
        <ele>345.20001220703</ele>
        <time>2021-09-12T10:16:29Z</time>
      </trkpt>
      <trkpt lat="48.41146" lon="-3.8879">
        <ele>345.20001220703</ele>
        <time>2021-09-12T10:16:30Z</time>
      </trkpt>
      <trkpt lat="48.41144" lon="-3.88793">
        <ele>345.20001220703</ele>
        <time>2021-09-12T10:16:31Z</time>
      </trkpt>
      <trkpt lat="48.41142" lon="-3.88796">
        <ele>345</ele>
        <time>2021-09-12T10:16:32Z</time>
      </trkpt>
      <trkpt lat="48.4114" lon="-3.88799">
        <ele>345</ele>
        <time>2021-09-12T10:16:33Z</time>
      </trkpt>
      <trkpt lat="48.41138" lon="-3.88803">
        <ele>345</ele>
        <time>2021-09-12T10:16:34Z</time>
      </trkpt>
      <trkpt lat="48.41136" lon="-3.88807">
        <ele>344.79998779297</ele>
        <time>2021-09-12T10:16:35Z</time>
      </trkpt>
      <trkpt lat="48.41135" lon="-3.8881">
        <ele>344.79998779297</ele>
        <time>2021-09-12T10:16:36Z</time>
      </trkpt>
      <trkpt lat="48.41134" lon="-3.88812">
        <ele>344.79998779297</ele>
        <time>2021-09-12T10:16:37Z</time>
      </trkpt>
      <trkpt lat="48.41134" lon="-3.88814">
        <ele>344.79998779297</ele>
        <time>2021-09-12T10:16:38Z</time>
      </trkpt>
      <trkpt lat="48.41133" lon="-3.88815">
        <ele>344.60000610352</ele>
        <time>2021-09-12T10:16:39Z</time>
      </trkpt>
      <trkpt lat="48.41132" lon="-3.88818">
        <ele>344.39999389648</ele>
        <time>2021-09-12T10:16:40Z</time>
      </trkpt>
      <trkpt lat="48.4113" lon="-3.88821">
        <ele>344.20001220703</ele>
        <time>2021-09-12T10:16:41Z</time>
      </trkpt>
      <trkpt lat="48.4113" lon="-3.88825">
        <ele>344</ele>
        <time>2021-09-12T10:16:42Z</time>
      </trkpt>
      <trkpt lat="48.4113" lon="-3.88829">
        <ele>343.60000610352</ele>
        <time>2021-09-12T10:16:43Z</time>
      </trkpt>
      <trkpt lat="48.41131" lon="-3.88833">
        <ele>343.39999389648</ele>
        <time>2021-09-12T10:16:44Z</time>
      </trkpt>
      <trkpt lat="48.41131" lon="-3.88837">
        <ele>343.20001220703</ele>
        <time>2021-09-12T10:16:45Z</time>
      </trkpt>
      <trkpt lat="48.41132" lon="-3.88842">
        <ele>343.20001220703</ele>
        <time>2021-09-12T10:16:46Z</time>
      </trkpt>
      <trkpt lat="48.41132" lon="-3.88846">
        <ele>343.20001220703</ele>
        <time>2021-09-12T10:16:47Z</time>
      </trkpt>
      <trkpt lat="48.41132" lon="-3.88851">
        <ele>343.20001220703</ele>
        <time>2021-09-12T10:16:48Z</time>
      </trkpt>
      <trkpt lat="48.41132" lon="-3.88855">
        <ele>343.20001220703</ele>
        <time>2021-09-12T10:16:49Z</time>
      </trkpt>
      <trkpt lat="48.41131" lon="-3.8886">
        <ele>343.20001220703</ele>
        <time>2021-09-12T10:16:50Z</time>
      </trkpt>
      <trkpt lat="48.41131" lon="-3.88864">
        <ele>343</ele>
        <time>2021-09-12T10:16:51Z</time>
      </trkpt>
      <trkpt lat="48.41129" lon="-3.88867">
        <ele>343</ele>
        <time>2021-09-12T10:16:52Z</time>
      </trkpt>
      <trkpt lat="48.41128" lon="-3.8887">
        <ele>343</ele>
        <time>2021-09-12T10:16:53Z</time>
      </trkpt>
      <trkpt lat="48.41129" lon="-3.88873">
        <ele>343</ele>
        <time>2021-09-12T10:16:54Z</time>
      </trkpt>
      <trkpt lat="48.41129" lon="-3.88878">
        <ele>342.79998779297</ele>
        <time>2021-09-12T10:16:55Z</time>
      </trkpt>
      <trkpt lat="48.4113" lon="-3.88881">
        <ele>342.79998779297</ele>
        <time>2021-09-12T10:16:56Z</time>
      </trkpt>
      <trkpt lat="48.41131" lon="-3.88885">
        <ele>342.79998779297</ele>
        <time>2021-09-12T10:16:57Z</time>
      </trkpt>
      <trkpt lat="48.41131" lon="-3.88889">
        <ele>342.79998779297</ele>
        <time>2021-09-12T10:16:58Z</time>
      </trkpt>
      <trkpt lat="48.41131" lon="-3.88893">
        <ele>342.79998779297</ele>
        <time>2021-09-12T10:16:59Z</time>
      </trkpt>
      <trkpt lat="48.41131" lon="-3.88898">
        <ele>343</ele>
        <time>2021-09-12T10:17:00Z</time>
      </trkpt>
      <trkpt lat="48.41131" lon="-3.88902">
        <ele>343</ele>
        <time>2021-09-12T10:17:01Z</time>
      </trkpt>
      <trkpt lat="48.41131" lon="-3.88907">
        <ele>343</ele>
        <time>2021-09-12T10:17:02Z</time>
      </trkpt>
      <trkpt lat="48.41131" lon="-3.8891">
        <ele>343</ele>
        <time>2021-09-12T10:17:03Z</time>
      </trkpt>
      <trkpt lat="48.41129" lon="-3.88914">
        <ele>343</ele>
        <time>2021-09-12T10:17:04Z</time>
      </trkpt>
      <trkpt lat="48.41128" lon="-3.88917">
        <ele>342.79998779297</ele>
        <time>2021-09-12T10:17:05Z</time>
      </trkpt>
      <trkpt lat="48.41128" lon="-3.88921">
        <ele>342.79998779297</ele>
        <time>2021-09-12T10:17:06Z</time>
      </trkpt>
      <trkpt lat="48.4113" lon="-3.88925">
        <ele>342.79998779297</ele>
        <time>2021-09-12T10:17:07Z</time>
      </trkpt>
      <trkpt lat="48.41131" lon="-3.88929">
        <ele>342.79998779297</ele>
        <time>2021-09-12T10:17:08Z</time>
      </trkpt>
      <trkpt lat="48.41132" lon="-3.88932">
        <ele>342.79998779297</ele>
        <time>2021-09-12T10:17:09Z</time>
      </trkpt>
      <trkpt lat="48.41133" lon="-3.88936">
        <ele>342.79998779297</ele>
        <time>2021-09-12T10:17:10Z</time>
      </trkpt>
      <trkpt lat="48.41133" lon="-3.8894">
        <ele>342.79998779297</ele>
        <time>2021-09-12T10:17:11Z</time>
      </trkpt>
      <trkpt lat="48.41133" lon="-3.88945">
        <ele>343</ele>
        <time>2021-09-12T10:17:12Z</time>
      </trkpt>
      <trkpt lat="48.41133" lon="-3.88949">
        <ele>343</ele>
        <time>2021-09-12T10:17:13Z</time>
      </trkpt>
      <trkpt lat="48.41134" lon="-3.88954">
        <ele>343</ele>
        <time>2021-09-12T10:17:14Z</time>
      </trkpt>
      <trkpt lat="48.41134" lon="-3.88958">
        <ele>343</ele>
        <time>2021-09-12T10:17:15Z</time>
      </trkpt>
      <trkpt lat="48.41134" lon="-3.88962">
        <ele>343</ele>
        <time>2021-09-12T10:17:16Z</time>
      </trkpt>
      <trkpt lat="48.41135" lon="-3.88966">
        <ele>343</ele>
        <time>2021-09-12T10:17:17Z</time>
      </trkpt>
      <trkpt lat="48.41136" lon="-3.88971">
        <ele>343</ele>
        <time>2021-09-12T10:17:18Z</time>
      </trkpt>
      <trkpt lat="48.41137" lon="-3.88975">
        <ele>343</ele>
        <time>2021-09-12T10:17:19Z</time>
      </trkpt>
      <trkpt lat="48.41137" lon="-3.88979">
        <ele>343.20001220703</ele>
        <time>2021-09-12T10:17:20Z</time>
      </trkpt>
      <trkpt lat="48.41138" lon="-3.88982">
        <ele>343.60000610352</ele>
        <time>2021-09-12T10:17:21Z</time>
      </trkpt>
      <trkpt lat="48.41139" lon="-3.88986">
        <ele>343.60000610352</ele>
        <time>2021-09-12T10:17:22Z</time>
      </trkpt>
      <trkpt lat="48.4114" lon="-3.8899">
        <ele>343.60000610352</ele>
        <time>2021-09-12T10:17:23Z</time>
      </trkpt>
      <trkpt lat="48.41141" lon="-3.88995">
        <ele>343.79998779297</ele>
        <time>2021-09-12T10:17:24Z</time>
      </trkpt>
      <trkpt lat="48.41141" lon="-3.88998">
        <ele>343.79998779297</ele>
        <time>2021-09-12T10:17:25Z</time>
      </trkpt>
      <trkpt lat="48.41141" lon="-3.89002">
        <ele>343.79998779297</ele>
        <time>2021-09-12T10:17:26Z</time>
      </trkpt>
      <trkpt lat="48.4114" lon="-3.89006">
        <ele>343.79998779297</ele>
        <time>2021-09-12T10:17:27Z</time>
      </trkpt>
      <trkpt lat="48.41139" lon="-3.89009">
        <ele>343.79998779297</ele>
        <time>2021-09-12T10:17:28Z</time>
      </trkpt>
      <trkpt lat="48.41138" lon="-3.89012">
        <ele>343.79998779297</ele>
        <time>2021-09-12T10:17:29Z</time>
      </trkpt>
      <trkpt lat="48.41137" lon="-3.89015">
        <ele>343.79998779297</ele>
        <time>2021-09-12T10:17:30Z</time>
      </trkpt>
      <trkpt lat="48.41139" lon="-3.89018">
        <ele>343.79998779297</ele>
        <time>2021-09-12T10:17:31Z</time>
      </trkpt>
      <trkpt lat="48.4114" lon="-3.89022">
        <ele>343.60000610352</ele>
        <time>2021-09-12T10:17:32Z</time>
      </trkpt>
      <trkpt lat="48.41141" lon="-3.89025">
        <ele>343.60000610352</ele>
        <time>2021-09-12T10:17:33Z</time>
      </trkpt>
      <trkpt lat="48.41142" lon="-3.8903">
        <ele>343.60000610352</ele>
        <time>2021-09-12T10:17:34Z</time>
      </trkpt>
      <trkpt lat="48.41143" lon="-3.89034">
        <ele>343.60000610352</ele>
        <time>2021-09-12T10:17:35Z</time>
      </trkpt>
      <trkpt lat="48.41143" lon="-3.89039">
        <ele>343.60000610352</ele>
        <time>2021-09-12T10:17:36Z</time>
      </trkpt>
      <trkpt lat="48.41144" lon="-3.89043">
        <ele>343.60000610352</ele>
        <time>2021-09-12T10:17:37Z</time>
      </trkpt>
      <trkpt lat="48.41146" lon="-3.89047">
        <ele>344</ele>
        <time>2021-09-12T10:17:38Z</time>
      </trkpt>
      <trkpt lat="48.41147" lon="-3.89051">
        <ele>344.20001220703</ele>
        <time>2021-09-12T10:17:39Z</time>
      </trkpt>
      <trkpt lat="48.41147" lon="-3.89054">
        <ele>344.20001220703</ele>
        <time>2021-09-12T10:17:40Z</time>
      </trkpt>
      <trkpt lat="48.41146" lon="-3.89058">
        <ele>344.20001220703</ele>
        <time>2021-09-12T10:17:41Z</time>
      </trkpt>
      <trkpt lat="48.41145" lon="-3.89062">
        <ele>344.20001220703</ele>
        <time>2021-09-12T10:17:42Z</time>
      </trkpt>
      <trkpt lat="48.41143" lon="-3.89066">
        <ele>344.20001220703</ele>
        <time>2021-09-12T10:17:43Z</time>
      </trkpt>
      <trkpt lat="48.41141" lon="-3.89072">
        <ele>344.20001220703</ele>
        <time>2021-09-12T10:17:44Z</time>
      </trkpt>
      <trkpt lat="48.41139" lon="-3.89078">
        <ele>343.60000610352</ele>
        <time>2021-09-12T10:17:45Z</time>
      </trkpt>
      <trkpt lat="48.41138" lon="-3.89084">
        <ele>343.60000610352</ele>
        <time>2021-09-12T10:17:46Z</time>
      </trkpt>
      <trkpt lat="48.41137" lon="-3.89091">
        <ele>343.39999389648</ele>
        <time>2021-09-12T10:17:47Z</time>
      </trkpt>
      <trkpt lat="48.41136" lon="-3.89097">
        <ele>343.39999389648</ele>
        <time>2021-09-12T10:17:48Z</time>
      </trkpt>
      <trkpt lat="48.41136" lon="-3.89104">
        <ele>343.20001220703</ele>
        <time>2021-09-12T10:17:49Z</time>
      </trkpt>
      <trkpt lat="48.41136" lon="-3.8911">
        <ele>343</ele>
        <time>2021-09-12T10:17:50Z</time>
      </trkpt>
      <trkpt lat="48.41136" lon="-3.89116">
        <ele>343</ele>
        <time>2021-09-12T10:17:51Z</time>
      </trkpt>
      <trkpt lat="48.41136" lon="-3.89121">
        <ele>343</ele>
        <time>2021-09-12T10:17:52Z</time>
      </trkpt>
      <trkpt lat="48.41136" lon="-3.89126">
        <ele>343</ele>
        <time>2021-09-12T10:17:53Z</time>
      </trkpt>
      <trkpt lat="48.41136" lon="-3.8913">
        <ele>343</ele>
        <time>2021-09-12T10:17:54Z</time>
      </trkpt>
      <trkpt lat="48.41136" lon="-3.89134">
        <ele>343</ele>
        <time>2021-09-12T10:17:55Z</time>
      </trkpt>
      <trkpt lat="48.41136" lon="-3.89138">
        <ele>343</ele>
        <time>2021-09-12T10:17:56Z</time>
      </trkpt>
      <trkpt lat="48.41136" lon="-3.89142">
        <ele>343</ele>
        <time>2021-09-12T10:17:57Z</time>
      </trkpt>
      <trkpt lat="48.41137" lon="-3.89145">
        <ele>343.20001220703</ele>
        <time>2021-09-12T10:17:58Z</time>
      </trkpt>
      <trkpt lat="48.41137" lon="-3.8915">
        <ele>343.20001220703</ele>
        <time>2021-09-12T10:17:59Z</time>
      </trkpt>
      <trkpt lat="48.41137" lon="-3.89155">
        <ele>343.20001220703</ele>
        <time>2021-09-12T10:18:00Z</time>
      </trkpt>
      <trkpt lat="48.41138" lon="-3.8916">
        <ele>343.20001220703</ele>
        <time>2021-09-12T10:18:01Z</time>
      </trkpt>
      <trkpt lat="48.41138" lon="-3.89165">
        <ele>343.20001220703</ele>
        <time>2021-09-12T10:18:02Z</time>
      </trkpt>
      <trkpt lat="48.41138" lon="-3.8917">
        <ele>343.20001220703</ele>
        <time>2021-09-12T10:18:03Z</time>
      </trkpt>
      <trkpt lat="48.41139" lon="-3.89175">
        <ele>343.39999389648</ele>
        <time>2021-09-12T10:18:04Z</time>
      </trkpt>
      <trkpt lat="48.41139" lon="-3.8918">
        <ele>343.39999389648</ele>
        <time>2021-09-12T10:18:05Z</time>
      </trkpt>
      <trkpt lat="48.4114" lon="-3.89186">
        <ele>343.60000610352</ele>
        <time>2021-09-12T10:18:06Z</time>
      </trkpt>
      <trkpt lat="48.41141" lon="-3.89192">
        <ele>343.60000610352</ele>
        <time>2021-09-12T10:18:07Z</time>
      </trkpt>
      <trkpt lat="48.41141" lon="-3.89197">
        <ele>343.60000610352</ele>
        <time>2021-09-12T10:18:08Z</time>
      </trkpt>
      <trkpt lat="48.41142" lon="-3.89203">
        <ele>343.79998779297</ele>
        <time>2021-09-12T10:18:09Z</time>
      </trkpt>
      <trkpt lat="48.41142" lon="-3.89208">
        <ele>343.79998779297</ele>
        <time>2021-09-12T10:18:10Z</time>
      </trkpt>
      <trkpt lat="48.41143" lon="-3.89213">
        <ele>344</ele>
        <time>2021-09-12T10:18:11Z</time>
      </trkpt>
      <trkpt lat="48.41143" lon="-3.89218">
        <ele>343.79998779297</ele>
        <time>2021-09-12T10:18:12Z</time>
      </trkpt>
      <trkpt lat="48.41143" lon="-3.89223">
        <ele>343.79998779297</ele>
        <time>2021-09-12T10:18:13Z</time>
      </trkpt>
      <trkpt lat="48.41143" lon="-3.89228">
        <ele>343.60000610352</ele>
        <time>2021-09-12T10:18:14Z</time>
      </trkpt>
      <trkpt lat="48.41142" lon="-3.89233">
        <ele>343.60000610352</ele>
        <time>2021-09-12T10:18:15Z</time>
      </trkpt>
      <trkpt lat="48.41142" lon="-3.89238">
        <ele>343.60000610352</ele>
        <time>2021-09-12T10:18:16Z</time>
      </trkpt>
      <trkpt lat="48.41143" lon="-3.89242">
        <ele>343.60000610352</ele>
        <time>2021-09-12T10:18:17Z</time>
      </trkpt>
      <trkpt lat="48.41145" lon="-3.89246">
        <ele>343.60000610352</ele>
        <time>2021-09-12T10:18:18Z</time>
      </trkpt>
      <trkpt lat="48.41147" lon="-3.8925">
        <ele>343.60000610352</ele>
        <time>2021-09-12T10:18:19Z</time>
      </trkpt>
      <trkpt lat="48.41147" lon="-3.89255">
        <ele>343.60000610352</ele>
        <time>2021-09-12T10:18:20Z</time>
      </trkpt>
      <trkpt lat="48.41147" lon="-3.8926">
        <ele>343.60000610352</ele>
        <time>2021-09-12T10:18:21Z</time>
      </trkpt>
      <trkpt lat="48.41147" lon="-3.89266">
        <ele>343.60000610352</ele>
        <time>2021-09-12T10:18:22Z</time>
      </trkpt>
      <trkpt lat="48.41146" lon="-3.89271">
        <ele>343.60000610352</ele>
        <time>2021-09-12T10:18:23Z</time>
      </trkpt>
      <trkpt lat="48.41144" lon="-3.89276">
        <ele>343.60000610352</ele>
        <time>2021-09-12T10:18:24Z</time>
      </trkpt>
      <trkpt lat="48.41142" lon="-3.89281">
        <ele>343.60000610352</ele>
        <time>2021-09-12T10:18:25Z</time>
      </trkpt>
      <trkpt lat="48.4114" lon="-3.89286">
        <ele>343.60000610352</ele>
        <time>2021-09-12T10:18:26Z</time>
      </trkpt>
      <trkpt lat="48.41139" lon="-3.89291">
        <ele>343.39999389648</ele>
        <time>2021-09-12T10:18:27Z</time>
      </trkpt>
      <trkpt lat="48.41139" lon="-3.89297">
        <ele>343.39999389648</ele>
        <time>2021-09-12T10:18:28Z</time>
      </trkpt>
      <trkpt lat="48.41138" lon="-3.89303">
        <ele>343</ele>
        <time>2021-09-12T10:18:29Z</time>
      </trkpt>
      <trkpt lat="48.41137" lon="-3.8931">
        <ele>343</ele>
        <time>2021-09-12T10:18:30Z</time>
      </trkpt>
      <trkpt lat="48.41136" lon="-3.89316">
        <ele>343</ele>
        <time>2021-09-12T10:18:31Z</time>
      </trkpt>
      <trkpt lat="48.41134" lon="-3.89322">
        <ele>342.79998779297</ele>
        <time>2021-09-12T10:18:32Z</time>
      </trkpt>
      <trkpt lat="48.41132" lon="-3.89328">
        <ele>342.79998779297</ele>
        <time>2021-09-12T10:18:33Z</time>
      </trkpt>
      <trkpt lat="48.4113" lon="-3.89334">
        <ele>343</ele>
        <time>2021-09-12T10:18:34Z</time>
      </trkpt>
      <trkpt lat="48.41128" lon="-3.89339">
        <ele>343</ele>
        <time>2021-09-12T10:18:35Z</time>
      </trkpt>
      <trkpt lat="48.41126" lon="-3.89345">
        <ele>342.60000610352</ele>
        <time>2021-09-12T10:18:36Z</time>
      </trkpt>
      <trkpt lat="48.41125" lon="-3.89351">
        <ele>342.60000610352</ele>
        <time>2021-09-12T10:18:37Z</time>
      </trkpt>
      <trkpt lat="48.41124" lon="-3.89358">
        <ele>342.60000610352</ele>
        <time>2021-09-12T10:18:38Z</time>
      </trkpt>
      <trkpt lat="48.41123" lon="-3.89364">
        <ele>342.39999389648</ele>
        <time>2021-09-12T10:18:39Z</time>
      </trkpt>
      <trkpt lat="48.41122" lon="-3.89371">
        <ele>342.39999389648</ele>
        <time>2021-09-12T10:18:40Z</time>
      </trkpt>
      <trkpt lat="48.4112" lon="-3.89378">
        <ele>342.39999389648</ele>
        <time>2021-09-12T10:18:41Z</time>
      </trkpt>
      <trkpt lat="48.41117" lon="-3.89384">
        <ele>342.20001220703</ele>
        <time>2021-09-12T10:18:42Z</time>
      </trkpt>
      <trkpt lat="48.41115" lon="-3.89389">
        <ele>342.20001220703</ele>
        <time>2021-09-12T10:18:43Z</time>
      </trkpt>
      <trkpt lat="48.4111" lon="-3.89396">
        <ele>342.20001220703</ele>
        <time>2021-09-12T10:18:44Z</time>
      </trkpt>
      <trkpt lat="48.41107" lon="-3.89401">
        <ele>342.20001220703</ele>
        <time>2021-09-12T10:18:45Z</time>
      </trkpt>
      <trkpt lat="48.41104" lon="-3.89407">
        <ele>342.20001220703</ele>
        <time>2021-09-12T10:18:46Z</time>
      </trkpt>
      <trkpt lat="48.41101" lon="-3.89413">
        <ele>342.20001220703</ele>
        <time>2021-09-12T10:18:47Z</time>
      </trkpt>
      <trkpt lat="48.41098" lon="-3.8942">
        <ele>341.79998779297</ele>
        <time>2021-09-12T10:18:48Z</time>
      </trkpt>
      <trkpt lat="48.41096" lon="-3.89426">
        <ele>341.79998779297</ele>
        <time>2021-09-12T10:18:49Z</time>
      </trkpt>
      <trkpt lat="48.41093" lon="-3.89432">
        <ele>341.79998779297</ele>
        <time>2021-09-12T10:18:50Z</time>
      </trkpt>
      <trkpt lat="48.41091" lon="-3.89437">
        <ele>341.79998779297</ele>
        <time>2021-09-12T10:18:51Z</time>
      </trkpt>
      <trkpt lat="48.4109" lon="-3.89441">
        <ele>341.60000610352</ele>
        <time>2021-09-12T10:18:52Z</time>
      </trkpt>
      <trkpt lat="48.41088" lon="-3.89446">
        <ele>341.60000610352</ele>
        <time>2021-09-12T10:18:53Z</time>
      </trkpt>
      <trkpt lat="48.41086" lon="-3.89451">
        <ele>341.60000610352</ele>
        <time>2021-09-12T10:18:54Z</time>
      </trkpt>
      <trkpt lat="48.41083" lon="-3.89456">
        <ele>341.60000610352</ele>
        <time>2021-09-12T10:18:55Z</time>
      </trkpt>
      <trkpt lat="48.41081" lon="-3.8946">
        <ele>341.60000610352</ele>
        <time>2021-09-12T10:18:56Z</time>
      </trkpt>
      <trkpt lat="48.41079" lon="-3.89465">
        <ele>341.39999389648</ele>
        <time>2021-09-12T10:18:57Z</time>
      </trkpt>
      <trkpt lat="48.41075" lon="-3.8947">
        <ele>341.39999389648</ele>
        <time>2021-09-12T10:18:58Z</time>
      </trkpt>
      <trkpt lat="48.41072" lon="-3.89473">
        <ele>341.39999389648</ele>
        <time>2021-09-12T10:18:59Z</time>
      </trkpt>
      <trkpt lat="48.41068" lon="-3.89477">
        <ele>341.39999389648</ele>
        <time>2021-09-12T10:19:00Z</time>
      </trkpt>
      <trkpt lat="48.41064" lon="-3.8948">
        <ele>341.39999389648</ele>
        <time>2021-09-12T10:19:01Z</time>
      </trkpt>
      <trkpt lat="48.41061" lon="-3.89483">
        <ele>341.20001220703</ele>
        <time>2021-09-12T10:19:02Z</time>
      </trkpt>
      <trkpt lat="48.41057" lon="-3.89489">
        <ele>341.20001220703</ele>
        <time>2021-09-12T10:19:03Z</time>
      </trkpt>
      <trkpt lat="48.41054" lon="-3.89493">
        <ele>341.20001220703</ele>
        <time>2021-09-12T10:19:04Z</time>
      </trkpt>
      <trkpt lat="48.41051" lon="-3.89499">
        <ele>340.79998779297</ele>
        <time>2021-09-12T10:19:05Z</time>
      </trkpt>
      <trkpt lat="48.41048" lon="-3.89505">
        <ele>340.79998779297</ele>
        <time>2021-09-12T10:19:06Z</time>
      </trkpt>
      <trkpt lat="48.41046" lon="-3.8951">
        <ele>340.79998779297</ele>
        <time>2021-09-12T10:19:07Z</time>
      </trkpt>
      <trkpt lat="48.41043" lon="-3.89516">
        <ele>340.79998779297</ele>
        <time>2021-09-12T10:19:08Z</time>
      </trkpt>
      <trkpt lat="48.41041" lon="-3.89521">
        <ele>340.79998779297</ele>
        <time>2021-09-12T10:19:09Z</time>
      </trkpt>
      <trkpt lat="48.4104" lon="-3.89524">
        <ele>340.79998779297</ele>
        <time>2021-09-12T10:19:10Z</time>
      </trkpt>
      <trkpt lat="48.41038" lon="-3.89529">
        <ele>340.79998779297</ele>
        <time>2021-09-12T10:19:11Z</time>
      </trkpt>
      <trkpt lat="48.41035" lon="-3.89535">
        <ele>340.79998779297</ele>
        <time>2021-09-12T10:19:12Z</time>
      </trkpt>
      <trkpt lat="48.41033" lon="-3.8954">
        <ele>340.79998779297</ele>
        <time>2021-09-12T10:19:13Z</time>
      </trkpt>
      <trkpt lat="48.41031" lon="-3.89545">
        <ele>340.79998779297</ele>
        <time>2021-09-12T10:19:14Z</time>
      </trkpt>
      <trkpt lat="48.4103" lon="-3.8955">
        <ele>340.79998779297</ele>
        <time>2021-09-12T10:19:15Z</time>
      </trkpt>
      <trkpt lat="48.41028" lon="-3.89554">
        <ele>340.79998779297</ele>
        <time>2021-09-12T10:19:16Z</time>
      </trkpt>
      <trkpt lat="48.41026" lon="-3.8956">
        <ele>340.79998779297</ele>
        <time>2021-09-12T10:19:17Z</time>
      </trkpt>
      <trkpt lat="48.41024" lon="-3.89565">
        <ele>340.79998779297</ele>
        <time>2021-09-12T10:19:18Z</time>
      </trkpt>
      <trkpt lat="48.41022" lon="-3.89569">
        <ele>340.79998779297</ele>
        <time>2021-09-12T10:19:19Z</time>
      </trkpt>
      <trkpt lat="48.4102" lon="-3.89574">
        <ele>340.79998779297</ele>
        <time>2021-09-12T10:19:20Z</time>
      </trkpt>
      <trkpt lat="48.41019" lon="-3.89579">
        <ele>340.79998779297</ele>
        <time>2021-09-12T10:19:21Z</time>
      </trkpt>
      <trkpt lat="48.41017" lon="-3.89583">
        <ele>340.79998779297</ele>
        <time>2021-09-12T10:19:22Z</time>
      </trkpt>
      <trkpt lat="48.41016" lon="-3.89588">
        <ele>340.79998779297</ele>
        <time>2021-09-12T10:19:23Z</time>
      </trkpt>
      <trkpt lat="48.41015" lon="-3.89592">
        <ele>340.79998779297</ele>
        <time>2021-09-12T10:19:24Z</time>
      </trkpt>
      <trkpt lat="48.41013" lon="-3.89596">
        <ele>340.79998779297</ele>
        <time>2021-09-12T10:19:25Z</time>
      </trkpt>
      <trkpt lat="48.41012" lon="-3.89601">
        <ele>341</ele>
        <time>2021-09-12T10:19:26Z</time>
      </trkpt>
      <trkpt lat="48.41011" lon="-3.89606">
        <ele>341</ele>
        <time>2021-09-12T10:19:27Z</time>
      </trkpt>
      <trkpt lat="48.41009" lon="-3.89611">
        <ele>341</ele>
        <time>2021-09-12T10:19:28Z</time>
      </trkpt>
      <trkpt lat="48.41008" lon="-3.89616">
        <ele>341</ele>
        <time>2021-09-12T10:19:29Z</time>
      </trkpt>
      <trkpt lat="48.41007" lon="-3.8962">
        <ele>341</ele>
        <time>2021-09-12T10:19:30Z</time>
      </trkpt>
      <trkpt lat="48.41005" lon="-3.89624">
        <ele>341</ele>
        <time>2021-09-12T10:19:31Z</time>
      </trkpt>
      <trkpt lat="48.41004" lon="-3.89629">
        <ele>341</ele>
        <time>2021-09-12T10:19:32Z</time>
      </trkpt>
      <trkpt lat="48.41003" lon="-3.89633">
        <ele>341</ele>
        <time>2021-09-12T10:19:33Z</time>
      </trkpt>
      <trkpt lat="48.41001" lon="-3.89637">
        <ele>341</ele>
        <time>2021-09-12T10:19:34Z</time>
      </trkpt>
      <trkpt lat="48.41" lon="-3.89643">
        <ele>341</ele>
        <time>2021-09-12T10:19:35Z</time>
      </trkpt>
      <trkpt lat="48.40998" lon="-3.89647">
        <ele>341</ele>
        <time>2021-09-12T10:19:36Z</time>
      </trkpt>
      <trkpt lat="48.40996" lon="-3.89651">
        <ele>341</ele>
        <time>2021-09-12T10:19:37Z</time>
      </trkpt>
      <trkpt lat="48.40994" lon="-3.89655">
        <ele>341</ele>
        <time>2021-09-12T10:19:38Z</time>
      </trkpt>
      <trkpt lat="48.40992" lon="-3.89659">
        <ele>341</ele>
        <time>2021-09-12T10:19:39Z</time>
      </trkpt>
      <trkpt lat="48.4099" lon="-3.89663">
        <ele>341.20001220703</ele>
        <time>2021-09-12T10:19:40Z</time>
      </trkpt>
      <trkpt lat="48.40989" lon="-3.89666">
        <ele>341.20001220703</ele>
        <time>2021-09-12T10:19:41Z</time>
      </trkpt>
      <trkpt lat="48.40988" lon="-3.89669">
        <ele>341.20001220703</ele>
        <time>2021-09-12T10:19:42Z</time>
      </trkpt>
      <trkpt lat="48.40987" lon="-3.89672">
        <ele>341.20001220703</ele>
        <time>2021-09-12T10:19:43Z</time>
      </trkpt>
      <trkpt lat="48.40986" lon="-3.89675">
        <ele>341.20001220703</ele>
        <time>2021-09-12T10:19:44Z</time>
      </trkpt>
      <trkpt lat="48.40984" lon="-3.89679">
        <ele>341.20001220703</ele>
        <time>2021-09-12T10:19:45Z</time>
      </trkpt>
      <trkpt lat="48.40983" lon="-3.89683">
        <ele>341.20001220703</ele>
        <time>2021-09-12T10:19:46Z</time>
      </trkpt>
      <trkpt lat="48.40982" lon="-3.89686">
        <ele>341.20001220703</ele>
        <time>2021-09-12T10:19:47Z</time>
      </trkpt>
      <trkpt lat="48.40981" lon="-3.89689">
        <ele>341.20001220703</ele>
        <time>2021-09-12T10:19:48Z</time>
      </trkpt>
      <trkpt lat="48.4098" lon="-3.89691">
        <ele>341.39999389648</ele>
        <time>2021-09-12T10:19:49Z</time>
      </trkpt>
      <trkpt lat="48.40979" lon="-3.89693">
        <ele>341.39999389648</ele>
        <time>2021-09-12T10:19:50Z</time>
      </trkpt>
      <trkpt lat="48.40978" lon="-3.89695">
        <ele>341.39999389648</ele>
        <time>2021-09-12T10:19:51Z</time>
      </trkpt>
      <trkpt lat="48.40977" lon="-3.89697">
        <ele>341.60000610352</ele>
        <time>2021-09-12T10:19:52Z</time>
      </trkpt>
      <trkpt lat="48.40976" lon="-3.89699">
        <ele>341.79998779297</ele>
        <time>2021-09-12T10:19:53Z</time>
      </trkpt>
      <trkpt lat="48.40974" lon="-3.89701">
        <ele>342</ele>
        <time>2021-09-12T10:19:54Z</time>
      </trkpt>
      <trkpt lat="48.40972" lon="-3.89704">
        <ele>342</ele>
        <time>2021-09-12T10:19:55Z</time>
      </trkpt>
      <trkpt lat="48.4097" lon="-3.89707">
        <ele>342.20001220703</ele>
        <time>2021-09-12T10:19:56Z</time>
      </trkpt>
      <trkpt lat="48.40968" lon="-3.8971">
        <ele>342.20001220703</ele>
        <time>2021-09-12T10:19:57Z</time>
      </trkpt>
      <trkpt lat="48.40966" lon="-3.89713">
        <ele>342.20001220703</ele>
        <time>2021-09-12T10:19:58Z</time>
      </trkpt>
      <trkpt lat="48.40963" lon="-3.89719">
        <ele>342.20001220703</ele>
        <time>2021-09-12T10:19:59Z</time>
      </trkpt>
      <trkpt lat="48.40959" lon="-3.89723">
        <ele>342.20001220703</ele>
        <time>2021-09-12T10:20:00Z</time>
      </trkpt>
      <trkpt lat="48.40956" lon="-3.89727">
        <ele>342.20001220703</ele>
        <time>2021-09-12T10:20:01Z</time>
      </trkpt>
      <trkpt lat="48.40954" lon="-3.89732">
        <ele>342.20001220703</ele>
        <time>2021-09-12T10:20:02Z</time>
      </trkpt>
      <trkpt lat="48.40953" lon="-3.89737">
        <ele>342.20001220703</ele>
        <time>2021-09-12T10:20:03Z</time>
      </trkpt>
      <trkpt lat="48.40953" lon="-3.89742">
        <ele>342.20001220703</ele>
        <time>2021-09-12T10:20:04Z</time>
      </trkpt>
      <trkpt lat="48.40953" lon="-3.89748">
        <ele>342.20001220703</ele>
        <time>2021-09-12T10:20:05Z</time>
      </trkpt>
      <trkpt lat="48.40954" lon="-3.89752">
        <ele>342.20001220703</ele>
        <time>2021-09-12T10:20:06Z</time>
      </trkpt>
      <trkpt lat="48.40955" lon="-3.89755">
        <ele>342.20001220703</ele>
        <time>2021-09-12T10:20:07Z</time>
      </trkpt>
      <trkpt lat="48.40955" lon="-3.89757">
        <ele>342.20001220703</ele>
        <time>2021-09-12T10:20:08Z</time>
      </trkpt>
      <trkpt lat="48.40956" lon="-3.89759">
        <ele>342.20001220703</ele>
        <time>2021-09-12T10:20:09Z</time>
      </trkpt>
      <trkpt lat="48.40956" lon="-3.8976">
        <ele>342.20001220703</ele>
        <time>2021-09-12T10:20:10Z</time>
      </trkpt>
      <trkpt lat="48.40956" lon="-3.89761">
        <ele>342.20001220703</ele>
        <time>2021-09-12T10:20:11Z</time>
      </trkpt>
      <trkpt lat="48.40957" lon="-3.89763">
        <ele>342.20001220703</ele>
        <time>2021-09-12T10:20:12Z</time>
      </trkpt>
      <trkpt lat="48.40957" lon="-3.89765">
        <ele>342.39999389648</ele>
        <time>2021-09-12T10:20:13Z</time>
      </trkpt>
      <trkpt lat="48.40957" lon="-3.89767">
        <ele>342.39999389648</ele>
        <time>2021-09-12T10:20:14Z</time>
      </trkpt>
      <trkpt lat="48.40956" lon="-3.8977">
        <ele>342.39999389648</ele>
        <time>2021-09-12T10:20:15Z</time>
      </trkpt>
      <trkpt lat="48.40956" lon="-3.89773">
        <ele>342.39999389648</ele>
        <time>2021-09-12T10:20:16Z</time>
      </trkpt>
      <trkpt lat="48.40956" lon="-3.89776">
        <ele>342.60000610352</ele>
        <time>2021-09-12T10:20:17Z</time>
      </trkpt>
      <trkpt lat="48.40957" lon="-3.89779">
        <ele>342.60000610352</ele>
        <time>2021-09-12T10:20:18Z</time>
      </trkpt>
      <trkpt lat="48.40957" lon="-3.89782">
        <ele>342.79998779297</ele>
        <time>2021-09-12T10:20:19Z</time>
      </trkpt>
      <trkpt lat="48.40958" lon="-3.89786">
        <ele>343</ele>
        <time>2021-09-12T10:20:20Z</time>
      </trkpt>
      <trkpt lat="48.40958" lon="-3.89788">
        <ele>343.20001220703</ele>
        <time>2021-09-12T10:20:21Z</time>
      </trkpt>
      <trkpt lat="48.40959" lon="-3.89791">
        <ele>343.39999389648</ele>
        <time>2021-09-12T10:20:22Z</time>
      </trkpt>
      <trkpt lat="48.40959" lon="-3.89794">
        <ele>343.39999389648</ele>
        <time>2021-09-12T10:20:23Z</time>
      </trkpt>
      <trkpt lat="48.40961" lon="-3.89797">
        <ele>343.79998779297</ele>
        <time>2021-09-12T10:20:24Z</time>
      </trkpt>
      <trkpt lat="48.40962" lon="-3.89799">
        <ele>344</ele>
        <time>2021-09-12T10:20:25Z</time>
      </trkpt>
      <trkpt lat="48.40963" lon="-3.89802">
        <ele>344.20001220703</ele>
        <time>2021-09-12T10:20:26Z</time>
      </trkpt>
      <trkpt lat="48.40964" lon="-3.89804">
        <ele>344.20001220703</ele>
        <time>2021-09-12T10:20:27Z</time>
      </trkpt>
      <trkpt lat="48.40966" lon="-3.89806">
        <ele>344.60000610352</ele>
        <time>2021-09-12T10:20:28Z</time>
      </trkpt>
      <trkpt lat="48.40967" lon="-3.89809">
        <ele>344.60000610352</ele>
        <time>2021-09-12T10:20:29Z</time>
      </trkpt>
      <trkpt lat="48.40968" lon="-3.89811">
        <ele>344.79998779297</ele>
        <time>2021-09-12T10:20:30Z</time>
      </trkpt>
      <trkpt lat="48.40969" lon="-3.89814">
        <ele>345</ele>
        <time>2021-09-12T10:20:31Z</time>
      </trkpt>
      <trkpt lat="48.40971" lon="-3.89816">
        <ele>345</ele>
        <time>2021-09-12T10:20:32Z</time>
      </trkpt>
      <trkpt lat="48.40972" lon="-3.89817">
        <ele>345</ele>
        <time>2021-09-12T10:20:33Z</time>
      </trkpt>
      <trkpt lat="48.40972" lon="-3.89819">
        <ele>345.20001220703</ele>
        <time>2021-09-12T10:20:34Z</time>
      </trkpt>
      <trkpt lat="48.40973" lon="-3.89821">
        <ele>345.20001220703</ele>
        <time>2021-09-12T10:20:35Z</time>
      </trkpt>
      <trkpt lat="48.40974" lon="-3.89823">
        <ele>345.39999389648</ele>
        <time>2021-09-12T10:20:36Z</time>
      </trkpt>
      <trkpt lat="48.40975" lon="-3.89826">
        <ele>345.39999389648</ele>
        <time>2021-09-12T10:20:37Z</time>
      </trkpt>
      <trkpt lat="48.40976" lon="-3.89828">
        <ele>345.79998779297</ele>
        <time>2021-09-12T10:20:38Z</time>
      </trkpt>
      <trkpt lat="48.40976" lon="-3.8983">
        <ele>345.79998779297</ele>
        <time>2021-09-12T10:20:39Z</time>
      </trkpt>
      <trkpt lat="48.40977" lon="-3.89832">
        <ele>346</ele>
        <time>2021-09-12T10:20:40Z</time>
      </trkpt>
      <trkpt lat="48.40977" lon="-3.89834">
        <ele>346</ele>
        <time>2021-09-12T10:20:41Z</time>
      </trkpt>
      <trkpt lat="48.40978" lon="-3.89836">
        <ele>346.20001220703</ele>
        <time>2021-09-12T10:20:42Z</time>
      </trkpt>
      <trkpt lat="48.40978" lon="-3.89838">
        <ele>346.20001220703</ele>
        <time>2021-09-12T10:20:43Z</time>
      </trkpt>
      <trkpt lat="48.40979" lon="-3.89841">
        <ele>346.20001220703</ele>
        <time>2021-09-12T10:20:44Z</time>
      </trkpt>
      <trkpt lat="48.4098" lon="-3.89844">
        <ele>346.39999389648</ele>
        <time>2021-09-12T10:20:45Z</time>
      </trkpt>
      <trkpt lat="48.40981" lon="-3.89847">
        <ele>346.39999389648</ele>
        <time>2021-09-12T10:20:46Z</time>
      </trkpt>
      <trkpt lat="48.40982" lon="-3.89849">
        <ele>346.79998779297</ele>
        <time>2021-09-12T10:20:47Z</time>
      </trkpt>
      <trkpt lat="48.40984" lon="-3.89852">
        <ele>346.79998779297</ele>
        <time>2021-09-12T10:20:48Z</time>
      </trkpt>
      <trkpt lat="48.40985" lon="-3.89855">
        <ele>346.79998779297</ele>
        <time>2021-09-12T10:20:49Z</time>
      </trkpt>
      <trkpt lat="48.40987" lon="-3.89857">
        <ele>347.20001220703</ele>
        <time>2021-09-12T10:20:50Z</time>
      </trkpt>
      <trkpt lat="48.40988" lon="-3.8986">
        <ele>347.20001220703</ele>
        <time>2021-09-12T10:20:51Z</time>
      </trkpt>
      <trkpt lat="48.40989" lon="-3.89863">
        <ele>347.20001220703</ele>
        <time>2021-09-12T10:20:52Z</time>
      </trkpt>
      <trkpt lat="48.4099" lon="-3.89865">
        <ele>347.39999389648</ele>
        <time>2021-09-12T10:20:53Z</time>
      </trkpt>
      <trkpt lat="48.4099" lon="-3.89868">
        <ele>347.39999389648</ele>
        <time>2021-09-12T10:20:54Z</time>
      </trkpt>
      <trkpt lat="48.40992" lon="-3.89871">
        <ele>347.60000610352</ele>
        <time>2021-09-12T10:20:55Z</time>
      </trkpt>
      <trkpt lat="48.40992" lon="-3.89873">
        <ele>347.60000610352</ele>
        <time>2021-09-12T10:20:56Z</time>
      </trkpt>
      <trkpt lat="48.40992" lon="-3.89874">
        <ele>347.79998779297</ele>
        <time>2021-09-12T10:20:57Z</time>
      </trkpt>
      <trkpt lat="48.40993" lon="-3.89876">
        <ele>347.79998779297</ele>
        <time>2021-09-12T10:20:58Z</time>
      </trkpt>
      <trkpt lat="48.40993" lon="-3.89878">
        <ele>348</ele>
        <time>2021-09-12T10:20:59Z</time>
      </trkpt>
      <trkpt lat="48.40993" lon="-3.8988">
        <ele>348</ele>
        <time>2021-09-12T10:21:00Z</time>
      </trkpt>
      <trkpt lat="48.40993" lon="-3.8988">
        <ele>348</ele>
        <time>2021-09-12T10:21:01Z</time>
      </trkpt>
      <trkpt lat="48.40993" lon="-3.8988">
        <ele>348</ele>
        <time>2021-09-12T10:21:02Z</time>
      </trkpt>
      <trkpt lat="48.40996" lon="-3.8989">
        <ele>348.20001220703</ele>
        <time>2021-09-12T10:21:13Z</time>
      </trkpt>
      <trkpt lat="48.40996" lon="-3.89893">
        <ele>348.20001220703</ele>
        <time>2021-09-12T10:21:14Z</time>
      </trkpt>
      <trkpt lat="48.40997" lon="-3.89896">
        <ele>348.39999389648</ele>
        <time>2021-09-12T10:21:15Z</time>
      </trkpt>
      <trkpt lat="48.40998" lon="-3.89898">
        <ele>348.60000610352</ele>
        <time>2021-09-12T10:21:16Z</time>
      </trkpt>
      <trkpt lat="48.40999" lon="-3.89901">
        <ele>348.79998779297</ele>
        <time>2021-09-12T10:21:17Z</time>
      </trkpt>
      <trkpt lat="48.41" lon="-3.89904">
        <ele>348.79998779297</ele>
        <time>2021-09-12T10:21:18Z</time>
      </trkpt>
      <trkpt lat="48.41001" lon="-3.89907">
        <ele>348.79998779297</ele>
        <time>2021-09-12T10:21:19Z</time>
      </trkpt>
      <trkpt lat="48.41003" lon="-3.8991">
        <ele>348.79998779297</ele>
        <time>2021-09-12T10:21:20Z</time>
      </trkpt>
      <trkpt lat="48.41004" lon="-3.89913">
        <ele>349</ele>
        <time>2021-09-12T10:21:21Z</time>
      </trkpt>
      <trkpt lat="48.41006" lon="-3.89916">
        <ele>349</ele>
        <time>2021-09-12T10:21:22Z</time>
      </trkpt>
      <trkpt lat="48.41007" lon="-3.89919">
        <ele>348.79998779297</ele>
        <time>2021-09-12T10:21:23Z</time>
      </trkpt>
      <trkpt lat="48.41008" lon="-3.8992">
        <ele>349</ele>
        <time>2021-09-12T10:21:24Z</time>
      </trkpt>
      <trkpt lat="48.41009" lon="-3.89922">
        <ele>349</ele>
        <time>2021-09-12T10:21:25Z</time>
      </trkpt>
      <trkpt lat="48.4101" lon="-3.89925">
        <ele>349.20001220703</ele>
        <time>2021-09-12T10:21:26Z</time>
      </trkpt>
      <trkpt lat="48.41011" lon="-3.89927">
        <ele>349.39999389648</ele>
        <time>2021-09-12T10:21:27Z</time>
      </trkpt>
      <trkpt lat="48.41012" lon="-3.8993">
        <ele>349.60000610352</ele>
        <time>2021-09-12T10:21:28Z</time>
      </trkpt>
      <trkpt lat="48.41014" lon="-3.89933">
        <ele>349.60000610352</ele>
        <time>2021-09-12T10:21:29Z</time>
      </trkpt>
      <trkpt lat="48.41015" lon="-3.89935">
        <ele>349.60000610352</ele>
        <time>2021-09-12T10:21:30Z</time>
      </trkpt>
      <trkpt lat="48.41016" lon="-3.89937">
        <ele>349.79998779297</ele>
        <time>2021-09-12T10:21:31Z</time>
      </trkpt>
      <trkpt lat="48.41017" lon="-3.8994">
        <ele>349.79998779297</ele>
        <time>2021-09-12T10:21:32Z</time>
      </trkpt>
      <trkpt lat="48.41018" lon="-3.89943">
        <ele>350</ele>
        <time>2021-09-12T10:21:33Z</time>
      </trkpt>
      <trkpt lat="48.41019" lon="-3.89945">
        <ele>350.20001220703</ele>
        <time>2021-09-12T10:21:34Z</time>
      </trkpt>
      <trkpt lat="48.4102" lon="-3.89948">
        <ele>350.39999389648</ele>
        <time>2021-09-12T10:21:35Z</time>
      </trkpt>
      <trkpt lat="48.41021" lon="-3.89952">
        <ele>350.39999389648</ele>
        <time>2021-09-12T10:21:36Z</time>
      </trkpt>
      <trkpt lat="48.41022" lon="-3.89955">
        <ele>350.60000610352</ele>
        <time>2021-09-12T10:21:37Z</time>
      </trkpt>
      <trkpt lat="48.41023" lon="-3.89957">
        <ele>350.79998779297</ele>
        <time>2021-09-12T10:21:38Z</time>
      </trkpt>
      <trkpt lat="48.41024" lon="-3.8996">
        <ele>350.79998779297</ele>
        <time>2021-09-12T10:21:39Z</time>
      </trkpt>
      <trkpt lat="48.41025" lon="-3.89963">
        <ele>350.79998779297</ele>
        <time>2021-09-12T10:21:40Z</time>
      </trkpt>
      <trkpt lat="48.41027" lon="-3.89965">
        <ele>351</ele>
        <time>2021-09-12T10:21:41Z</time>
      </trkpt>
      <trkpt lat="48.41028" lon="-3.89968">
        <ele>351</ele>
        <time>2021-09-12T10:21:42Z</time>
      </trkpt>
      <trkpt lat="48.41029" lon="-3.89971">
        <ele>351</ele>
        <time>2021-09-12T10:21:43Z</time>
      </trkpt>
      <trkpt lat="48.4103" lon="-3.89974">
        <ele>351</ele>
        <time>2021-09-12T10:21:44Z</time>
      </trkpt>
      <trkpt lat="48.41031" lon="-3.89977">
        <ele>351</ele>
        <time>2021-09-12T10:21:45Z</time>
      </trkpt>
      <trkpt lat="48.41032" lon="-3.8998">
        <ele>351</ele>
        <time>2021-09-12T10:21:46Z</time>
      </trkpt>
      <trkpt lat="48.41033" lon="-3.89982">
        <ele>351.20001220703</ele>
        <time>2021-09-12T10:21:47Z</time>
      </trkpt>
      <trkpt lat="48.41034" lon="-3.89985">
        <ele>351.39999389648</ele>
        <time>2021-09-12T10:21:48Z</time>
      </trkpt>
      <trkpt lat="48.41035" lon="-3.89989">
        <ele>351.39999389648</ele>
        <time>2021-09-12T10:21:49Z</time>
      </trkpt>
      <trkpt lat="48.41036" lon="-3.89992">
        <ele>351.39999389648</ele>
        <time>2021-09-12T10:21:50Z</time>
      </trkpt>
      <trkpt lat="48.41037" lon="-3.89995">
        <ele>351.39999389648</ele>
        <time>2021-09-12T10:21:51Z</time>
      </trkpt>
      <trkpt lat="48.41038" lon="-3.89997">
        <ele>351.39999389648</ele>
        <time>2021-09-12T10:21:52Z</time>
      </trkpt>
      <trkpt lat="48.41039" lon="-3.89998">
        <ele>351.39999389648</ele>
        <time>2021-09-12T10:21:53Z</time>
      </trkpt>
      <trkpt lat="48.4104" lon="-3.90001">
        <ele>351.39999389648</ele>
        <time>2021-09-12T10:21:54Z</time>
      </trkpt>
      <trkpt lat="48.4104" lon="-3.90004">
        <ele>351.39999389648</ele>
        <time>2021-09-12T10:21:55Z</time>
      </trkpt>
      <trkpt lat="48.41041" lon="-3.90007">
        <ele>351.39999389648</ele>
        <time>2021-09-12T10:21:56Z</time>
      </trkpt>
      <trkpt lat="48.41042" lon="-3.90009">
        <ele>351.60000610352</ele>
        <time>2021-09-12T10:21:57Z</time>
      </trkpt>
      <trkpt lat="48.41043" lon="-3.90011">
        <ele>351.60000610352</ele>
        <time>2021-09-12T10:21:58Z</time>
      </trkpt>
      <trkpt lat="48.41044" lon="-3.90015">
        <ele>351.60000610352</ele>
        <time>2021-09-12T10:21:59Z</time>
      </trkpt>
      <trkpt lat="48.41045" lon="-3.90017">
        <ele>351.60000610352</ele>
        <time>2021-09-12T10:22:00Z</time>
      </trkpt>
      <trkpt lat="48.41045" lon="-3.90019">
        <ele>351.60000610352</ele>
        <time>2021-09-12T10:22:01Z</time>
      </trkpt>
      <trkpt lat="48.41047" lon="-3.90022">
        <ele>351.60000610352</ele>
        <time>2021-09-12T10:22:02Z</time>
      </trkpt>
      <trkpt lat="48.41048" lon="-3.90026">
        <ele>351.39999389648</ele>
        <time>2021-09-12T10:22:03Z</time>
      </trkpt>
      <trkpt lat="48.4105" lon="-3.90029">
        <ele>351.39999389648</ele>
        <time>2021-09-12T10:22:04Z</time>
      </trkpt>
      <trkpt lat="48.41051" lon="-3.90032">
        <ele>351.20001220703</ele>
        <time>2021-09-12T10:22:05Z</time>
      </trkpt>
      <trkpt lat="48.41052" lon="-3.90036">
        <ele>351.20001220703</ele>
        <time>2021-09-12T10:22:06Z</time>
      </trkpt>
      <trkpt lat="48.41053" lon="-3.90041">
        <ele>351</ele>
        <time>2021-09-12T10:22:07Z</time>
      </trkpt>
      <trkpt lat="48.41054" lon="-3.90046">
        <ele>350.79998779297</ele>
        <time>2021-09-12T10:22:08Z</time>
      </trkpt>
      <trkpt lat="48.41055" lon="-3.90051">
        <ele>350.60000610352</ele>
        <time>2021-09-12T10:22:09Z</time>
      </trkpt>
      <trkpt lat="48.41056" lon="-3.90056">
        <ele>350.20001220703</ele>
        <time>2021-09-12T10:22:10Z</time>
      </trkpt>
      <trkpt lat="48.41056" lon="-3.90061">
        <ele>350</ele>
        <time>2021-09-12T10:22:11Z</time>
      </trkpt>
      <trkpt lat="48.41057" lon="-3.90066">
        <ele>350</ele>
        <time>2021-09-12T10:22:12Z</time>
      </trkpt>
      <trkpt lat="48.41058" lon="-3.9007">
        <ele>350</ele>
        <time>2021-09-12T10:22:13Z</time>
      </trkpt>
      <trkpt lat="48.41058" lon="-3.90074">
        <ele>350</ele>
        <time>2021-09-12T10:22:14Z</time>
      </trkpt>
      <trkpt lat="48.41059" lon="-3.90079">
        <ele>349.79998779297</ele>
        <time>2021-09-12T10:22:15Z</time>
      </trkpt>
      <trkpt lat="48.41059" lon="-3.90083">
        <ele>349.60000610352</ele>
        <time>2021-09-12T10:22:16Z</time>
      </trkpt>
      <trkpt lat="48.41059" lon="-3.90088">
        <ele>349.39999389648</ele>
        <time>2021-09-12T10:22:17Z</time>
      </trkpt>
      <trkpt lat="48.4106" lon="-3.90092">
        <ele>349</ele>
        <time>2021-09-12T10:22:18Z</time>
      </trkpt>
      <trkpt lat="48.41061" lon="-3.90095">
        <ele>348.60000610352</ele>
        <time>2021-09-12T10:22:19Z</time>
      </trkpt>
      <trkpt lat="48.41063" lon="-3.90099">
        <ele>348.60000610352</ele>
        <time>2021-09-12T10:22:20Z</time>
      </trkpt>
      <trkpt lat="48.41064" lon="-3.90103">
        <ele>348.39999389648</ele>
        <time>2021-09-12T10:22:21Z</time>
      </trkpt>
      <trkpt lat="48.41065" lon="-3.90107">
        <ele>348.39999389648</ele>
        <time>2021-09-12T10:22:22Z</time>
      </trkpt>
      <trkpt lat="48.41065" lon="-3.90113">
        <ele>348.20001220703</ele>
        <time>2021-09-12T10:22:23Z</time>
      </trkpt>
      <trkpt lat="48.41065" lon="-3.90117">
        <ele>348</ele>
        <time>2021-09-12T10:22:24Z</time>
      </trkpt>
      <trkpt lat="48.41064" lon="-3.90121">
        <ele>347.79998779297</ele>
        <time>2021-09-12T10:22:25Z</time>
      </trkpt>
      <trkpt lat="48.41062" lon="-3.90125">
        <ele>347.60000610352</ele>
        <time>2021-09-12T10:22:26Z</time>
      </trkpt>
      <trkpt lat="48.4106" lon="-3.90128">
        <ele>347.60000610352</ele>
        <time>2021-09-12T10:22:27Z</time>
      </trkpt>
      <trkpt lat="48.41059" lon="-3.90132">
        <ele>347.20001220703</ele>
        <time>2021-09-12T10:22:28Z</time>
      </trkpt>
      <trkpt lat="48.41058" lon="-3.90135">
        <ele>347</ele>
        <time>2021-09-12T10:22:29Z</time>
      </trkpt>
      <trkpt lat="48.41057" lon="-3.90139">
        <ele>347</ele>
        <time>2021-09-12T10:22:30Z</time>
      </trkpt>
      <trkpt lat="48.41056" lon="-3.90144">
        <ele>346.39999389648</ele>
        <time>2021-09-12T10:22:31Z</time>
      </trkpt>
      <trkpt lat="48.41054" lon="-3.90149">
        <ele>346.20001220703</ele>
        <time>2021-09-12T10:22:32Z</time>
      </trkpt>
      <trkpt lat="48.41053" lon="-3.90155">
        <ele>346</ele>
        <time>2021-09-12T10:22:33Z</time>
      </trkpt>
      <trkpt lat="48.41051" lon="-3.9016">
        <ele>345.20001220703</ele>
        <time>2021-09-12T10:22:34Z</time>
      </trkpt>
      <trkpt lat="48.4105" lon="-3.90166">
        <ele>345</ele>
        <time>2021-09-12T10:22:35Z</time>
      </trkpt>
      <trkpt lat="48.41048" lon="-3.90171">
        <ele>344.39999389648</ele>
        <time>2021-09-12T10:22:36Z</time>
      </trkpt>
      <trkpt lat="48.41045" lon="-3.90177">
        <ele>344</ele>
        <time>2021-09-12T10:22:37Z</time>
      </trkpt>
      <trkpt lat="48.41042" lon="-3.90183">
        <ele>343.79998779297</ele>
        <time>2021-09-12T10:22:38Z</time>
      </trkpt>
      <trkpt lat="48.41039" lon="-3.90188">
        <ele>343.60000610352</ele>
        <time>2021-09-12T10:22:39Z</time>
      </trkpt>
      <trkpt lat="48.41036" lon="-3.90193">
        <ele>343</ele>
        <time>2021-09-12T10:22:40Z</time>
      </trkpt>
      <trkpt lat="48.41034" lon="-3.90198">
        <ele>343</ele>
        <time>2021-09-12T10:22:41Z</time>
      </trkpt>
      <trkpt lat="48.41031" lon="-3.90204">
        <ele>342.79998779297</ele>
        <time>2021-09-12T10:22:42Z</time>
      </trkpt>
      <trkpt lat="48.41028" lon="-3.90209">
        <ele>342.60000610352</ele>
        <time>2021-09-12T10:22:43Z</time>
      </trkpt>
      <trkpt lat="48.41026" lon="-3.90214">
        <ele>342</ele>
        <time>2021-09-12T10:22:44Z</time>
      </trkpt>
      <trkpt lat="48.41023" lon="-3.90219">
        <ele>342</ele>
        <time>2021-09-12T10:22:45Z</time>
      </trkpt>
      <trkpt lat="48.41021" lon="-3.90222">
        <ele>341.79998779297</ele>
        <time>2021-09-12T10:22:46Z</time>
      </trkpt>
      <trkpt lat="48.41019" lon="-3.90224">
        <ele>341.79998779297</ele>
        <time>2021-09-12T10:22:47Z</time>
      </trkpt>
      <trkpt lat="48.41017" lon="-3.90226">
        <ele>341.60000610352</ele>
        <time>2021-09-12T10:22:48Z</time>
      </trkpt>
      <trkpt lat="48.41015" lon="-3.90229">
        <ele>341.60000610352</ele>
        <time>2021-09-12T10:22:49Z</time>
      </trkpt>
      <trkpt lat="48.41013" lon="-3.90232">
        <ele>341.60000610352</ele>
        <time>2021-09-12T10:22:50Z</time>
      </trkpt>
      <trkpt lat="48.41011" lon="-3.90235">
        <ele>341.60000610352</ele>
        <time>2021-09-12T10:22:51Z</time>
      </trkpt>
      <trkpt lat="48.41009" lon="-3.90237">
        <ele>341.60000610352</ele>
        <time>2021-09-12T10:22:52Z</time>
      </trkpt>
      <trkpt lat="48.41007" lon="-3.9024">
        <ele>341.60000610352</ele>
        <time>2021-09-12T10:22:53Z</time>
      </trkpt>
      <trkpt lat="48.41005" lon="-3.90243">
        <ele>341.60000610352</ele>
        <time>2021-09-12T10:22:54Z</time>
      </trkpt>
      <trkpt lat="48.41003" lon="-3.90245">
        <ele>341.39999389648</ele>
        <time>2021-09-12T10:22:55Z</time>
      </trkpt>
      <trkpt lat="48.41001" lon="-3.90248">
        <ele>341.60000610352</ele>
        <time>2021-09-12T10:22:56Z</time>
      </trkpt>
      <trkpt lat="48.40998" lon="-3.90251">
        <ele>341.60000610352</ele>
        <time>2021-09-12T10:22:57Z</time>
      </trkpt>
      <trkpt lat="48.40996" lon="-3.90253">
        <ele>341.60000610352</ele>
        <time>2021-09-12T10:22:58Z</time>
      </trkpt>
      <trkpt lat="48.40994" lon="-3.90255">
        <ele>341.60000610352</ele>
        <time>2021-09-12T10:22:59Z</time>
      </trkpt>
      <trkpt lat="48.40992" lon="-3.90258">
        <ele>341.60000610352</ele>
        <time>2021-09-12T10:23:00Z</time>
      </trkpt>
      <trkpt lat="48.4099" lon="-3.9026">
        <ele>341.60000610352</ele>
        <time>2021-09-12T10:23:01Z</time>
      </trkpt>
      <trkpt lat="48.40988" lon="-3.90262">
        <ele>341.60000610352</ele>
        <time>2021-09-12T10:23:02Z</time>
      </trkpt>
      <trkpt lat="48.40987" lon="-3.90263">
        <ele>341.60000610352</ele>
        <time>2021-09-12T10:23:03Z</time>
      </trkpt>
      <trkpt lat="48.40985" lon="-3.90263">
        <ele>341.60000610352</ele>
        <time>2021-09-12T10:23:04Z</time>
      </trkpt>
      <trkpt lat="48.40984" lon="-3.90265">
        <ele>341.60000610352</ele>
        <time>2021-09-12T10:23:05Z</time>
      </trkpt>
      <trkpt lat="48.40982" lon="-3.90266">
        <ele>341.60000610352</ele>
        <time>2021-09-12T10:23:06Z</time>
      </trkpt>
      <trkpt lat="48.4098" lon="-3.90268">
        <ele>341.79998779297</ele>
        <time>2021-09-12T10:23:07Z</time>
      </trkpt>
      <trkpt lat="48.40978" lon="-3.90269">
        <ele>342</ele>
        <time>2021-09-12T10:23:08Z</time>
      </trkpt>
      <trkpt lat="48.40976" lon="-3.9027">
        <ele>342</ele>
        <time>2021-09-12T10:23:09Z</time>
      </trkpt>
      <trkpt lat="48.40973" lon="-3.90272">
        <ele>342</ele>
        <time>2021-09-12T10:23:10Z</time>
      </trkpt>
      <trkpt lat="48.40971" lon="-3.90274">
        <ele>342.20001220703</ele>
        <time>2021-09-12T10:23:11Z</time>
      </trkpt>
      <trkpt lat="48.40968" lon="-3.90277">
        <ele>342.20001220703</ele>
        <time>2021-09-12T10:23:12Z</time>
      </trkpt>
      <trkpt lat="48.40967" lon="-3.9028">
        <ele>342.20001220703</ele>
        <time>2021-09-12T10:23:13Z</time>
      </trkpt>
      <trkpt lat="48.40965" lon="-3.90284">
        <ele>342.20001220703</ele>
        <time>2021-09-12T10:23:14Z</time>
      </trkpt>
      <trkpt lat="48.40964" lon="-3.90287">
        <ele>342.39999389648</ele>
        <time>2021-09-12T10:23:15Z</time>
      </trkpt>
      <trkpt lat="48.40963" lon="-3.90291">
        <ele>342.39999389648</ele>
        <time>2021-09-12T10:23:16Z</time>
      </trkpt>
      <trkpt lat="48.40961" lon="-3.90295">
        <ele>342.39999389648</ele>
        <time>2021-09-12T10:23:17Z</time>
      </trkpt>
      <trkpt lat="48.40959" lon="-3.90299">
        <ele>342.60000610352</ele>
        <time>2021-09-12T10:23:18Z</time>
      </trkpt>
      <trkpt lat="48.40957" lon="-3.90302">
        <ele>342.60000610352</ele>
        <time>2021-09-12T10:23:19Z</time>
      </trkpt>
      <trkpt lat="48.40955" lon="-3.90306">
        <ele>342.60000610352</ele>
        <time>2021-09-12T10:23:20Z</time>
      </trkpt>
      <trkpt lat="48.40954" lon="-3.90309">
        <ele>342.60000610352</ele>
        <time>2021-09-12T10:23:21Z</time>
      </trkpt>
      <trkpt lat="48.40952" lon="-3.90313">
        <ele>342.60000610352</ele>
        <time>2021-09-12T10:23:22Z</time>
      </trkpt>
      <trkpt lat="48.4095" lon="-3.90315">
        <ele>342.60000610352</ele>
        <time>2021-09-12T10:23:23Z</time>
      </trkpt>
      <trkpt lat="48.40949" lon="-3.90318">
        <ele>342.60000610352</ele>
        <time>2021-09-12T10:23:24Z</time>
      </trkpt>
      <trkpt lat="48.40947" lon="-3.9032">
        <ele>342.60000610352</ele>
        <time>2021-09-12T10:23:25Z</time>
      </trkpt>
      <trkpt lat="48.40946" lon="-3.90323">
        <ele>342.79998779297</ele>
        <time>2021-09-12T10:23:26Z</time>
      </trkpt>
      <trkpt lat="48.40944" lon="-3.90326">
        <ele>342.79998779297</ele>
        <time>2021-09-12T10:23:27Z</time>
      </trkpt>
      <trkpt lat="48.40943" lon="-3.9033">
        <ele>343</ele>
        <time>2021-09-12T10:23:28Z</time>
      </trkpt>
      <trkpt lat="48.40942" lon="-3.90334">
        <ele>343.20001220703</ele>
        <time>2021-09-12T10:23:29Z</time>
      </trkpt>
      <trkpt lat="48.4094" lon="-3.90337">
        <ele>343.39999389648</ele>
        <time>2021-09-12T10:23:30Z</time>
      </trkpt>
      <trkpt lat="48.40937" lon="-3.90341">
        <ele>343.60000610352</ele>
        <time>2021-09-12T10:23:31Z</time>
      </trkpt>
      <trkpt lat="48.40935" lon="-3.90345">
        <ele>343.60000610352</ele>
        <time>2021-09-12T10:23:32Z</time>
      </trkpt>
      <trkpt lat="48.40933" lon="-3.90349">
        <ele>343.60000610352</ele>
        <time>2021-09-12T10:23:33Z</time>
      </trkpt>
      <trkpt lat="48.40931" lon="-3.90352">
        <ele>343.60000610352</ele>
        <time>2021-09-12T10:23:34Z</time>
      </trkpt>
      <trkpt lat="48.4093" lon="-3.90356">
        <ele>343.60000610352</ele>
        <time>2021-09-12T10:23:35Z</time>
      </trkpt>
      <trkpt lat="48.40928" lon="-3.90359">
        <ele>343.79998779297</ele>
        <time>2021-09-12T10:23:36Z</time>
      </trkpt>
      <trkpt lat="48.40927" lon="-3.90361">
        <ele>344</ele>
        <time>2021-09-12T10:23:37Z</time>
      </trkpt>
      <trkpt lat="48.40925" lon="-3.90364">
        <ele>344</ele>
        <time>2021-09-12T10:23:38Z</time>
      </trkpt>
      <trkpt lat="48.40923" lon="-3.90367">
        <ele>344</ele>
        <time>2021-09-12T10:23:39Z</time>
      </trkpt>
      <trkpt lat="48.40921" lon="-3.90369">
        <ele>344</ele>
        <time>2021-09-12T10:23:40Z</time>
      </trkpt>
      <trkpt lat="48.40919" lon="-3.90372">
        <ele>344.39999389648</ele>
        <time>2021-09-12T10:23:41Z</time>
      </trkpt>
      <trkpt lat="48.40917" lon="-3.90375">
        <ele>344.39999389648</ele>
        <time>2021-09-12T10:23:42Z</time>
      </trkpt>
      <trkpt lat="48.40915" lon="-3.90378">
        <ele>344.39999389648</ele>
        <time>2021-09-12T10:23:43Z</time>
      </trkpt>
      <trkpt lat="48.40913" lon="-3.9038">
        <ele>344.39999389648</ele>
        <time>2021-09-12T10:23:44Z</time>
      </trkpt>
      <trkpt lat="48.40911" lon="-3.90383">
        <ele>344.39999389648</ele>
        <time>2021-09-12T10:23:45Z</time>
      </trkpt>
      <trkpt lat="48.40909" lon="-3.90386">
        <ele>344.39999389648</ele>
        <time>2021-09-12T10:23:46Z</time>
      </trkpt>
      <trkpt lat="48.40906" lon="-3.90388">
        <ele>344.60000610352</ele>
        <time>2021-09-12T10:23:47Z</time>
      </trkpt>
      <trkpt lat="48.40905" lon="-3.90391">
        <ele>344.60000610352</ele>
        <time>2021-09-12T10:23:48Z</time>
      </trkpt>
      <trkpt lat="48.40903" lon="-3.90394">
        <ele>344.60000610352</ele>
        <time>2021-09-12T10:23:49Z</time>
      </trkpt>
      <trkpt lat="48.40901" lon="-3.90398">
        <ele>344.60000610352</ele>
        <time>2021-09-12T10:23:50Z</time>
      </trkpt>
      <trkpt lat="48.40899" lon="-3.904">
        <ele>344.60000610352</ele>
        <time>2021-09-12T10:23:51Z</time>
      </trkpt>
      <trkpt lat="48.40897" lon="-3.90403">
        <ele>344.60000610352</ele>
        <time>2021-09-12T10:23:52Z</time>
      </trkpt>
      <trkpt lat="48.40894" lon="-3.90405">
        <ele>344.79998779297</ele>
        <time>2021-09-12T10:23:53Z</time>
      </trkpt>
      <trkpt lat="48.40892" lon="-3.90408">
        <ele>344.79998779297</ele>
        <time>2021-09-12T10:23:54Z</time>
      </trkpt>
      <trkpt lat="48.4089" lon="-3.9041">
        <ele>345</ele>
        <time>2021-09-12T10:23:55Z</time>
      </trkpt>
      <trkpt lat="48.40889" lon="-3.90412">
        <ele>345</ele>
        <time>2021-09-12T10:23:56Z</time>
      </trkpt>
      <trkpt lat="48.40887" lon="-3.90414">
        <ele>345</ele>
        <time>2021-09-12T10:23:57Z</time>
      </trkpt>
      <trkpt lat="48.40885" lon="-3.90416">
        <ele>345</ele>
        <time>2021-09-12T10:23:58Z</time>
      </trkpt>
      <trkpt lat="48.40883" lon="-3.90417">
        <ele>345</ele>
        <time>2021-09-12T10:23:59Z</time>
      </trkpt>
      <trkpt lat="48.40881" lon="-3.90419">
        <ele>345.20001220703</ele>
        <time>2021-09-12T10:24:00Z</time>
      </trkpt>
      <trkpt lat="48.4088" lon="-3.90421">
        <ele>345.20001220703</ele>
        <time>2021-09-12T10:24:01Z</time>
      </trkpt>
      <trkpt lat="48.40878" lon="-3.90423">
        <ele>345.20001220703</ele>
        <time>2021-09-12T10:24:02Z</time>
      </trkpt>
      <trkpt lat="48.40877" lon="-3.90425">
        <ele>345.20001220703</ele>
        <time>2021-09-12T10:24:03Z</time>
      </trkpt>
      <trkpt lat="48.40876" lon="-3.90427">
        <ele>345.20001220703</ele>
        <time>2021-09-12T10:24:04Z</time>
      </trkpt>
      <trkpt lat="48.40874" lon="-3.90429">
        <ele>345</ele>
        <time>2021-09-12T10:24:05Z</time>
      </trkpt>
      <trkpt lat="48.40873" lon="-3.90431">
        <ele>345.20001220703</ele>
        <time>2021-09-12T10:24:06Z</time>
      </trkpt>
      <trkpt lat="48.40871" lon="-3.90433">
        <ele>345.20001220703</ele>
        <time>2021-09-12T10:24:07Z</time>
      </trkpt>
      <trkpt lat="48.4087" lon="-3.90436">
        <ele>345.20001220703</ele>
        <time>2021-09-12T10:24:08Z</time>
      </trkpt>
      <trkpt lat="48.40868" lon="-3.90438">
        <ele>345</ele>
        <time>2021-09-12T10:24:09Z</time>
      </trkpt>
      <trkpt lat="48.40867" lon="-3.90439">
        <ele>345.20001220703</ele>
        <time>2021-09-12T10:24:10Z</time>
      </trkpt>
      <trkpt lat="48.40866" lon="-3.90441">
        <ele>345.20001220703</ele>
        <time>2021-09-12T10:24:11Z</time>
      </trkpt>
      <trkpt lat="48.40865" lon="-3.90443">
        <ele>345.20001220703</ele>
        <time>2021-09-12T10:24:12Z</time>
      </trkpt>
      <trkpt lat="48.40864" lon="-3.90445">
        <ele>345</ele>
        <time>2021-09-12T10:24:13Z</time>
      </trkpt>
      <trkpt lat="48.40863" lon="-3.90447">
        <ele>345</ele>
        <time>2021-09-12T10:24:14Z</time>
      </trkpt>
      <trkpt lat="48.40862" lon="-3.90449">
        <ele>345</ele>
        <time>2021-09-12T10:24:15Z</time>
      </trkpt>
      <trkpt lat="48.40861" lon="-3.90451">
        <ele>345.20001220703</ele>
        <time>2021-09-12T10:24:16Z</time>
      </trkpt>
      <trkpt lat="48.4086" lon="-3.90454">
        <ele>345.20001220703</ele>
        <time>2021-09-12T10:24:17Z</time>
      </trkpt>
      <trkpt lat="48.40859" lon="-3.90457">
        <ele>345.20001220703</ele>
        <time>2021-09-12T10:24:18Z</time>
      </trkpt>
      <trkpt lat="48.40858" lon="-3.90459">
        <ele>345.20001220703</ele>
        <time>2021-09-12T10:24:19Z</time>
      </trkpt>
      <trkpt lat="48.40857" lon="-3.90461">
        <ele>345.20001220703</ele>
        <time>2021-09-12T10:24:20Z</time>
      </trkpt>
      <trkpt lat="48.40856" lon="-3.90464">
        <ele>345.20001220703</ele>
        <time>2021-09-12T10:24:21Z</time>
      </trkpt>
      <trkpt lat="48.40855" lon="-3.90467">
        <ele>345.20001220703</ele>
        <time>2021-09-12T10:24:22Z</time>
      </trkpt>
      <trkpt lat="48.40854" lon="-3.90469">
        <ele>345.20001220703</ele>
        <time>2021-09-12T10:24:23Z</time>
      </trkpt>
      <trkpt lat="48.40853" lon="-3.90472">
        <ele>345.20001220703</ele>
        <time>2021-09-12T10:24:24Z</time>
      </trkpt>
      <trkpt lat="48.40851" lon="-3.90475">
        <ele>345.20001220703</ele>
        <time>2021-09-12T10:24:25Z</time>
      </trkpt>
      <trkpt lat="48.40849" lon="-3.90476">
        <ele>345.20001220703</ele>
        <time>2021-09-12T10:24:26Z</time>
      </trkpt>
      <trkpt lat="48.40847" lon="-3.90478">
        <ele>345.20001220703</ele>
        <time>2021-09-12T10:24:27Z</time>
      </trkpt>
      <trkpt lat="48.40845" lon="-3.90479">
        <ele>345.20001220703</ele>
        <time>2021-09-12T10:24:28Z</time>
      </trkpt>
      <trkpt lat="48.40843" lon="-3.90481">
        <ele>345.20001220703</ele>
        <time>2021-09-12T10:24:29Z</time>
      </trkpt>
      <trkpt lat="48.40842" lon="-3.90482">
        <ele>345.20001220703</ele>
        <time>2021-09-12T10:24:30Z</time>
      </trkpt>
      <trkpt lat="48.4084" lon="-3.90483">
        <ele>345.20001220703</ele>
        <time>2021-09-12T10:24:31Z</time>
      </trkpt>
      <trkpt lat="48.40839" lon="-3.90484">
        <ele>345.20001220703</ele>
        <time>2021-09-12T10:24:32Z</time>
      </trkpt>
      <trkpt lat="48.40837" lon="-3.90485">
        <ele>345.20001220703</ele>
        <time>2021-09-12T10:24:33Z</time>
      </trkpt>
      <trkpt lat="48.40836" lon="-3.90487">
        <ele>345.20001220703</ele>
        <time>2021-09-12T10:24:34Z</time>
      </trkpt>
      <trkpt lat="48.40834" lon="-3.90488">
        <ele>345.20001220703</ele>
        <time>2021-09-12T10:24:35Z</time>
      </trkpt>
      <trkpt lat="48.40833" lon="-3.90489">
        <ele>345.20001220703</ele>
        <time>2021-09-12T10:24:36Z</time>
      </trkpt>
      <trkpt lat="48.40832" lon="-3.90491">
        <ele>345.20001220703</ele>
        <time>2021-09-12T10:24:37Z</time>
      </trkpt>
      <trkpt lat="48.4083" lon="-3.90492">
        <ele>345.39999389648</ele>
        <time>2021-09-12T10:24:38Z</time>
      </trkpt>
      <trkpt lat="48.40829" lon="-3.90493">
        <ele>345.39999389648</ele>
        <time>2021-09-12T10:24:39Z</time>
      </trkpt>
      <trkpt lat="48.40827" lon="-3.90494">
        <ele>345.39999389648</ele>
        <time>2021-09-12T10:24:40Z</time>
      </trkpt>
      <trkpt lat="48.40826" lon="-3.90496">
        <ele>345.39999389648</ele>
        <time>2021-09-12T10:24:41Z</time>
      </trkpt>
      <trkpt lat="48.40825" lon="-3.90497">
        <ele>345.39999389648</ele>
        <time>2021-09-12T10:24:42Z</time>
      </trkpt>
      <trkpt lat="48.40823" lon="-3.90498">
        <ele>345.39999389648</ele>
        <time>2021-09-12T10:24:43Z</time>
      </trkpt>
      <trkpt lat="48.40822" lon="-3.905">
        <ele>345.39999389648</ele>
        <time>2021-09-12T10:24:44Z</time>
      </trkpt>
      <trkpt lat="48.40821" lon="-3.90502">
        <ele>345.39999389648</ele>
        <time>2021-09-12T10:24:45Z</time>
      </trkpt>
      <trkpt lat="48.4082" lon="-3.90503">
        <ele>345.39999389648</ele>
        <time>2021-09-12T10:24:46Z</time>
      </trkpt>
      <trkpt lat="48.40819" lon="-3.90505">
        <ele>345.39999389648</ele>
        <time>2021-09-12T10:24:47Z</time>
      </trkpt>
      <trkpt lat="48.40818" lon="-3.90506">
        <ele>345.39999389648</ele>
        <time>2021-09-12T10:24:48Z</time>
      </trkpt>
      <trkpt lat="48.40817" lon="-3.90508">
        <ele>345.39999389648</ele>
        <time>2021-09-12T10:24:49Z</time>
      </trkpt>
      <trkpt lat="48.40815" lon="-3.90509">
        <ele>345.39999389648</ele>
        <time>2021-09-12T10:24:50Z</time>
      </trkpt>
      <trkpt lat="48.40814" lon="-3.90511">
        <ele>345.60000610352</ele>
        <time>2021-09-12T10:24:51Z</time>
      </trkpt>
      <trkpt lat="48.40814" lon="-3.90512">
        <ele>345.60000610352</ele>
        <time>2021-09-12T10:24:52Z</time>
      </trkpt>
      <trkpt lat="48.40812" lon="-3.90514">
        <ele>345.60000610352</ele>
        <time>2021-09-12T10:24:53Z</time>
      </trkpt>
      <trkpt lat="48.40811" lon="-3.90516">
        <ele>345.60000610352</ele>
        <time>2021-09-12T10:24:54Z</time>
      </trkpt>
      <trkpt lat="48.4081" lon="-3.90518">
        <ele>345.60000610352</ele>
        <time>2021-09-12T10:24:55Z</time>
      </trkpt>
      <trkpt lat="48.40809" lon="-3.9052">
        <ele>345.60000610352</ele>
        <time>2021-09-12T10:24:56Z</time>
      </trkpt>
      <trkpt lat="48.40808" lon="-3.90521">
        <ele>345.60000610352</ele>
        <time>2021-09-12T10:24:57Z</time>
      </trkpt>
      <trkpt lat="48.40807" lon="-3.90523">
        <ele>345.60000610352</ele>
        <time>2021-09-12T10:24:58Z</time>
      </trkpt>
      <trkpt lat="48.40807" lon="-3.90524">
        <ele>345.60000610352</ele>
        <time>2021-09-12T10:24:59Z</time>
      </trkpt>
      <trkpt lat="48.40806" lon="-3.90525">
        <ele>345.60000610352</ele>
        <time>2021-09-12T10:25:00Z</time>
      </trkpt>
      <trkpt lat="48.40805" lon="-3.90527">
        <ele>345.79998779297</ele>
        <time>2021-09-12T10:25:01Z</time>
      </trkpt>
      <trkpt lat="48.40804" lon="-3.90529">
        <ele>345.79998779297</ele>
        <time>2021-09-12T10:25:02Z</time>
      </trkpt>
      <trkpt lat="48.40803" lon="-3.90531">
        <ele>345.79998779297</ele>
        <time>2021-09-12T10:25:03Z</time>
      </trkpt>
      <trkpt lat="48.40802" lon="-3.90533">
        <ele>345.79998779297</ele>
        <time>2021-09-12T10:25:04Z</time>
      </trkpt>
      <trkpt lat="48.40802" lon="-3.90534">
        <ele>345.79998779297</ele>
        <time>2021-09-12T10:25:05Z</time>
      </trkpt>
      <trkpt lat="48.40801" lon="-3.90536">
        <ele>345.79998779297</ele>
        <time>2021-09-12T10:25:06Z</time>
      </trkpt>
      <trkpt lat="48.408" lon="-3.90537">
        <ele>345.79998779297</ele>
        <time>2021-09-12T10:25:07Z</time>
      </trkpt>
      <trkpt lat="48.40799" lon="-3.90539">
        <ele>345.79998779297</ele>
        <time>2021-09-12T10:25:08Z</time>
      </trkpt>
      <trkpt lat="48.40799" lon="-3.9054">
        <ele>345.79998779297</ele>
        <time>2021-09-12T10:25:09Z</time>
      </trkpt>
      <trkpt lat="48.40798" lon="-3.90542">
        <ele>345.79998779297</ele>
        <time>2021-09-12T10:25:10Z</time>
      </trkpt>
      <trkpt lat="48.40798" lon="-3.90543">
        <ele>345.79998779297</ele>
        <time>2021-09-12T10:25:11Z</time>
      </trkpt>
      <trkpt lat="48.40797" lon="-3.90545">
        <ele>345.79998779297</ele>
        <time>2021-09-12T10:25:12Z</time>
      </trkpt>
      <trkpt lat="48.40796" lon="-3.90547">
        <ele>345.79998779297</ele>
        <time>2021-09-12T10:25:13Z</time>
      </trkpt>
      <trkpt lat="48.40795" lon="-3.90548">
        <ele>346</ele>
        <time>2021-09-12T10:25:14Z</time>
      </trkpt>
      <trkpt lat="48.40794" lon="-3.9055">
        <ele>346</ele>
        <time>2021-09-12T10:25:15Z</time>
      </trkpt>
      <trkpt lat="48.40794" lon="-3.9055">
        <ele>346</ele>
        <time>2021-09-12T10:25:16Z</time>
      </trkpt>
      <trkpt lat="48.40793" lon="-3.90551">
        <ele>346</ele>
        <time>2021-09-12T10:25:17Z</time>
      </trkpt>
      <trkpt lat="48.40792" lon="-3.90553">
        <ele>346</ele>
        <time>2021-09-12T10:25:18Z</time>
      </trkpt>
      <trkpt lat="48.40791" lon="-3.90554">
        <ele>346</ele>
        <time>2021-09-12T10:25:19Z</time>
      </trkpt>
      <trkpt lat="48.40789" lon="-3.90555">
        <ele>346.20001220703</ele>
        <time>2021-09-12T10:25:20Z</time>
      </trkpt>
      <trkpt lat="48.40788" lon="-3.90557">
        <ele>346.20001220703</ele>
        <time>2021-09-12T10:25:21Z</time>
      </trkpt>
      <trkpt lat="48.40786" lon="-3.90558">
        <ele>346.39999389648</ele>
        <time>2021-09-12T10:25:22Z</time>
      </trkpt>
      <trkpt lat="48.40785" lon="-3.9056">
        <ele>346.39999389648</ele>
        <time>2021-09-12T10:25:23Z</time>
      </trkpt>
      <trkpt lat="48.40784" lon="-3.90561">
        <ele>346.39999389648</ele>
        <time>2021-09-12T10:25:24Z</time>
      </trkpt>
      <trkpt lat="48.40783" lon="-3.90562">
        <ele>346.39999389648</ele>
        <time>2021-09-12T10:25:25Z</time>
      </trkpt>
      <trkpt lat="48.40782" lon="-3.90563">
        <ele>346.60000610352</ele>
        <time>2021-09-12T10:25:26Z</time>
      </trkpt>
      <trkpt lat="48.40781" lon="-3.90564">
        <ele>346.60000610352</ele>
        <time>2021-09-12T10:25:27Z</time>
      </trkpt>
      <trkpt lat="48.4078" lon="-3.90565">
        <ele>346.60000610352</ele>
        <time>2021-09-12T10:25:28Z</time>
      </trkpt>
      <trkpt lat="48.40779" lon="-3.90567">
        <ele>346.60000610352</ele>
        <time>2021-09-12T10:25:29Z</time>
      </trkpt>
      <trkpt lat="48.40778" lon="-3.90569">
        <ele>346.79998779297</ele>
        <time>2021-09-12T10:25:30Z</time>
      </trkpt>
      <trkpt lat="48.40776" lon="-3.90571">
        <ele>346.79998779297</ele>
        <time>2021-09-12T10:25:31Z</time>
      </trkpt>
      <trkpt lat="48.40774" lon="-3.90572">
        <ele>346.79998779297</ele>
        <time>2021-09-12T10:25:32Z</time>
      </trkpt>
      <trkpt lat="48.40773" lon="-3.90573">
        <ele>347</ele>
        <time>2021-09-12T10:25:33Z</time>
      </trkpt>
      <trkpt lat="48.40772" lon="-3.90575">
        <ele>347</ele>
        <time>2021-09-12T10:25:34Z</time>
      </trkpt>
      <trkpt lat="48.4077" lon="-3.90576">
        <ele>347</ele>
        <time>2021-09-12T10:25:35Z</time>
      </trkpt>
      <trkpt lat="48.40768" lon="-3.90578">
        <ele>347</ele>
        <time>2021-09-12T10:25:36Z</time>
      </trkpt>
      <trkpt lat="48.40767" lon="-3.9058">
        <ele>347.20001220703</ele>
        <time>2021-09-12T10:25:37Z</time>
      </trkpt>
      <trkpt lat="48.40765" lon="-3.90581">
        <ele>347.39999389648</ele>
        <time>2021-09-12T10:25:38Z</time>
      </trkpt>
      <trkpt lat="48.40764" lon="-3.90583">
        <ele>347.39999389648</ele>
        <time>2021-09-12T10:25:39Z</time>
      </trkpt>
      <trkpt lat="48.40762" lon="-3.90584">
        <ele>347.39999389648</ele>
        <time>2021-09-12T10:25:40Z</time>
      </trkpt>
      <trkpt lat="48.40761" lon="-3.90586">
        <ele>347.60000610352</ele>
        <time>2021-09-12T10:25:41Z</time>
      </trkpt>
      <trkpt lat="48.4076" lon="-3.90587">
        <ele>347.60000610352</ele>
        <time>2021-09-12T10:25:42Z</time>
      </trkpt>
      <trkpt lat="48.40759" lon="-3.90588">
        <ele>347.60000610352</ele>
        <time>2021-09-12T10:25:43Z</time>
      </trkpt>
      <trkpt lat="48.40757" lon="-3.90588">
        <ele>347.79998779297</ele>
        <time>2021-09-12T10:25:44Z</time>
      </trkpt>
      <trkpt lat="48.40756" lon="-3.90589">
        <ele>347.79998779297</ele>
        <time>2021-09-12T10:25:45Z</time>
      </trkpt>
      <trkpt lat="48.40755" lon="-3.9059">
        <ele>347.79998779297</ele>
        <time>2021-09-12T10:25:46Z</time>
      </trkpt>
      <trkpt lat="48.40754" lon="-3.90591">
        <ele>347.79998779297</ele>
        <time>2021-09-12T10:25:47Z</time>
      </trkpt>
      <trkpt lat="48.40753" lon="-3.90593">
        <ele>347.79998779297</ele>
        <time>2021-09-12T10:25:48Z</time>
      </trkpt>
      <trkpt lat="48.40753" lon="-3.90594">
        <ele>347.79998779297</ele>
        <time>2021-09-12T10:25:49Z</time>
      </trkpt>
      <trkpt lat="48.40752" lon="-3.90595">
        <ele>348</ele>
        <time>2021-09-12T10:25:50Z</time>
      </trkpt>
      <trkpt lat="48.40751" lon="-3.90596">
        <ele>347.79998779297</ele>
        <time>2021-09-12T10:25:51Z</time>
      </trkpt>
      <trkpt lat="48.4075" lon="-3.90597">
        <ele>347.79998779297</ele>
        <time>2021-09-12T10:25:52Z</time>
      </trkpt>
      <trkpt lat="48.40749" lon="-3.90599">
        <ele>347.79998779297</ele>
        <time>2021-09-12T10:25:53Z</time>
      </trkpt>
      <trkpt lat="48.40748" lon="-3.906">
        <ele>347.79998779297</ele>
        <time>2021-09-12T10:25:54Z</time>
      </trkpt>
      <trkpt lat="48.40748" lon="-3.90601">
        <ele>347.79998779297</ele>
        <time>2021-09-12T10:25:55Z</time>
      </trkpt>
      <trkpt lat="48.40747" lon="-3.90603">
        <ele>347.79998779297</ele>
        <time>2021-09-12T10:25:56Z</time>
      </trkpt>
      <trkpt lat="48.40746" lon="-3.90604">
        <ele>347.79998779297</ele>
        <time>2021-09-12T10:25:57Z</time>
      </trkpt>
      <trkpt lat="48.40745" lon="-3.90605">
        <ele>347.79998779297</ele>
        <time>2021-09-12T10:25:58Z</time>
      </trkpt>
      <trkpt lat="48.40745" lon="-3.90605">
        <ele>348</ele>
        <time>2021-09-12T10:25:59Z</time>
      </trkpt>
      <trkpt lat="48.40744" lon="-3.90606">
        <ele>348</ele>
        <time>2021-09-12T10:26:00Z</time>
      </trkpt>
      <trkpt lat="48.40743" lon="-3.90607">
        <ele>348</ele>
        <time>2021-09-12T10:26:01Z</time>
      </trkpt>
      <trkpt lat="48.40743" lon="-3.90608">
        <ele>348</ele>
        <time>2021-09-12T10:26:02Z</time>
      </trkpt>
      <trkpt lat="48.40742" lon="-3.90608">
        <ele>348.20001220703</ele>
        <time>2021-09-12T10:26:03Z</time>
      </trkpt>
      <trkpt lat="48.40742" lon="-3.90609">
        <ele>348.20001220703</ele>
        <time>2021-09-12T10:26:04Z</time>
      </trkpt>
      <trkpt lat="48.40741" lon="-3.9061">
        <ele>348.20001220703</ele>
        <time>2021-09-12T10:26:05Z</time>
      </trkpt>
      <trkpt lat="48.40741" lon="-3.9061">
        <ele>348</ele>
        <time>2021-09-12T10:26:06Z</time>
      </trkpt>
      <trkpt lat="48.40741" lon="-3.9061">
        <ele>348</ele>
        <time>2021-09-12T10:26:07Z</time>
      </trkpt>
      <trkpt lat="48.40704" lon="-3.90778">
        <ele>363</ele>
        <time>2021-09-12T10:29:39Z</time>
      </trkpt>
      <trkpt lat="48.40703" lon="-3.9078">
        <ele>363</ele>
        <time>2021-09-12T10:29:40Z</time>
      </trkpt>
      <trkpt lat="48.40702" lon="-3.90781">
        <ele>363</ele>
        <time>2021-09-12T10:29:41Z</time>
      </trkpt>
      <trkpt lat="48.40702" lon="-3.90783">
        <ele>363.20001220703</ele>
        <time>2021-09-12T10:29:42Z</time>
      </trkpt>
      <trkpt lat="48.40701" lon="-3.90785">
        <ele>363.20001220703</ele>
        <time>2021-09-12T10:29:43Z</time>
      </trkpt>
      <trkpt lat="48.407" lon="-3.90787">
        <ele>363.39999389648</ele>
        <time>2021-09-12T10:29:44Z</time>
      </trkpt>
      <trkpt lat="48.407" lon="-3.90789">
        <ele>363.39999389648</ele>
        <time>2021-09-12T10:29:45Z</time>
      </trkpt>
      <trkpt lat="48.40699" lon="-3.90792">
        <ele>363.39999389648</ele>
        <time>2021-09-12T10:29:46Z</time>
      </trkpt>
      <trkpt lat="48.40699" lon="-3.90795">
        <ele>363.39999389648</ele>
        <time>2021-09-12T10:29:47Z</time>
      </trkpt>
      <trkpt lat="48.40699" lon="-3.90797">
        <ele>363.60000610352</ele>
        <time>2021-09-12T10:29:48Z</time>
      </trkpt>
      <trkpt lat="48.40699" lon="-3.90799">
        <ele>363.60000610352</ele>
        <time>2021-09-12T10:29:49Z</time>
      </trkpt>
      <trkpt lat="48.40699" lon="-3.90802">
        <ele>363.60000610352</ele>
        <time>2021-09-12T10:29:50Z</time>
      </trkpt>
      <trkpt lat="48.40698" lon="-3.90804">
        <ele>363.79998779297</ele>
        <time>2021-09-12T10:29:51Z</time>
      </trkpt>
      <trkpt lat="48.40698" lon="-3.90806">
        <ele>364</ele>
        <time>2021-09-12T10:29:52Z</time>
      </trkpt>
      <trkpt lat="48.40699" lon="-3.90807">
        <ele>364</ele>
        <time>2021-09-12T10:29:53Z</time>
      </trkpt>
      <trkpt lat="48.40699" lon="-3.90809">
        <ele>364.20001220703</ele>
        <time>2021-09-12T10:29:54Z</time>
      </trkpt>
      <trkpt lat="48.40699" lon="-3.90811">
        <ele>364.39999389648</ele>
        <time>2021-09-12T10:29:55Z</time>
      </trkpt>
      <trkpt lat="48.40699" lon="-3.90813">
        <ele>364.60000610352</ele>
        <time>2021-09-12T10:29:56Z</time>
      </trkpt>
      <trkpt lat="48.40699" lon="-3.90816">
        <ele>364.60000610352</ele>
        <time>2021-09-12T10:29:57Z</time>
      </trkpt>
      <trkpt lat="48.40699" lon="-3.90819">
        <ele>364.79998779297</ele>
        <time>2021-09-12T10:29:58Z</time>
      </trkpt>
      <trkpt lat="48.40699" lon="-3.90821">
        <ele>364.79998779297</ele>
        <time>2021-09-12T10:29:59Z</time>
      </trkpt>
      <trkpt lat="48.40699" lon="-3.90823">
        <ele>364.79998779297</ele>
        <time>2021-09-12T10:30:00Z</time>
      </trkpt>
      <trkpt lat="48.40699" lon="-3.90825">
        <ele>364.79998779297</ele>
        <time>2021-09-12T10:30:01Z</time>
      </trkpt>
      <trkpt lat="48.40699" lon="-3.90827">
        <ele>365</ele>
        <time>2021-09-12T10:30:02Z</time>
      </trkpt>
      <trkpt lat="48.40699" lon="-3.90829">
        <ele>365</ele>
        <time>2021-09-12T10:30:03Z</time>
      </trkpt>
      <trkpt lat="48.40699" lon="-3.90831">
        <ele>365.39999389648</ele>
        <time>2021-09-12T10:30:04Z</time>
      </trkpt>
      <trkpt lat="48.40699" lon="-3.90833">
        <ele>365.39999389648</ele>
        <time>2021-09-12T10:30:05Z</time>
      </trkpt>
      <trkpt lat="48.40699" lon="-3.90835">
        <ele>365.39999389648</ele>
        <time>2021-09-12T10:30:06Z</time>
      </trkpt>
      <trkpt lat="48.40698" lon="-3.90837">
        <ele>365.39999389648</ele>
        <time>2021-09-12T10:30:07Z</time>
      </trkpt>
      <trkpt lat="48.40698" lon="-3.90839">
        <ele>365.39999389648</ele>
        <time>2021-09-12T10:30:08Z</time>
      </trkpt>
      <trkpt lat="48.40698" lon="-3.90841">
        <ele>365.60000610352</ele>
        <time>2021-09-12T10:30:09Z</time>
      </trkpt>
      <trkpt lat="48.40697" lon="-3.90842">
        <ele>365.60000610352</ele>
        <time>2021-09-12T10:30:10Z</time>
      </trkpt>
      <trkpt lat="48.40696" lon="-3.90844">
        <ele>365.60000610352</ele>
        <time>2021-09-12T10:30:11Z</time>
      </trkpt>
      <trkpt lat="48.40696" lon="-3.90846">
        <ele>366</ele>
        <time>2021-09-12T10:30:12Z</time>
      </trkpt>
      <trkpt lat="48.40696" lon="-3.90847">
        <ele>366.20001220703</ele>
        <time>2021-09-12T10:30:13Z</time>
      </trkpt>
      <trkpt lat="48.40695" lon="-3.90849">
        <ele>366.39999389648</ele>
        <time>2021-09-12T10:30:14Z</time>
      </trkpt>
      <trkpt lat="48.40694" lon="-3.90851">
        <ele>366.60000610352</ele>
        <time>2021-09-12T10:30:15Z</time>
      </trkpt>
      <trkpt lat="48.40694" lon="-3.90853">
        <ele>366.60000610352</ele>
        <time>2021-09-12T10:30:16Z</time>
      </trkpt>
      <trkpt lat="48.40694" lon="-3.90855">
        <ele>366.60000610352</ele>
        <time>2021-09-12T10:30:17Z</time>
      </trkpt>
      <trkpt lat="48.40694" lon="-3.90857">
        <ele>366.79998779297</ele>
        <time>2021-09-12T10:30:18Z</time>
      </trkpt>
      <trkpt lat="48.40693" lon="-3.90859">
        <ele>367</ele>
        <time>2021-09-12T10:30:19Z</time>
      </trkpt>
      <trkpt lat="48.40692" lon="-3.90861">
        <ele>367.20001220703</ele>
        <time>2021-09-12T10:30:20Z</time>
      </trkpt>
      <trkpt lat="48.40692" lon="-3.90863">
        <ele>367.39999389648</ele>
        <time>2021-09-12T10:30:21Z</time>
      </trkpt>
      <trkpt lat="48.40691" lon="-3.90865">
        <ele>367.79998779297</ele>
        <time>2021-09-12T10:30:22Z</time>
      </trkpt>
      <trkpt lat="48.40691" lon="-3.90867">
        <ele>368.20001220703</ele>
        <time>2021-09-12T10:30:23Z</time>
      </trkpt>
      <trkpt lat="48.4069" lon="-3.90869">
        <ele>368.20001220703</ele>
        <time>2021-09-12T10:30:24Z</time>
      </trkpt>
      <trkpt lat="48.4069" lon="-3.9087">
        <ele>368.39999389648</ele>
        <time>2021-09-12T10:30:25Z</time>
      </trkpt>
      <trkpt lat="48.4069" lon="-3.9087">
        <ele>368.60000610352</ele>
        <time>2021-09-12T10:30:26Z</time>
      </trkpt>
      <trkpt lat="48.40689" lon="-3.90871">
        <ele>368.79998779297</ele>
        <time>2021-09-12T10:30:27Z</time>
      </trkpt>
      <trkpt lat="48.40689" lon="-3.90871">
        <ele>368.79998779297</ele>
        <time>2021-09-12T10:30:28Z</time>
      </trkpt>
      <trkpt lat="48.40688" lon="-3.90872">
        <ele>368.79998779297</ele>
        <time>2021-09-12T10:30:29Z</time>
      </trkpt>
      <trkpt lat="48.40688" lon="-3.90872">
        <ele>369</ele>
        <time>2021-09-12T10:30:30Z</time>
      </trkpt>
      <trkpt lat="48.40688" lon="-3.90872">
        <ele>369</ele>
        <time>2021-09-12T10:30:31Z</time>
      </trkpt>
      <trkpt lat="48.40687" lon="-3.90877">
        <ele>369.60000610352</ele>
        <time>2021-09-12T10:30:43Z</time>
      </trkpt>
      <trkpt lat="48.40686" lon="-3.9088">
        <ele>369.79998779297</ele>
        <time>2021-09-12T10:30:44Z</time>
      </trkpt>
      <trkpt lat="48.40685" lon="-3.90882">
        <ele>370</ele>
        <time>2021-09-12T10:30:45Z</time>
      </trkpt>
      <trkpt lat="48.40685" lon="-3.90882">
        <ele>370.39999389648</ele>
        <time>2021-09-12T10:30:46Z</time>
      </trkpt>
      <trkpt lat="48.40685" lon="-3.90882">
        <ele>370.60000610352</ele>
        <time>2021-09-12T10:30:47Z</time>
      </trkpt>
      <trkpt lat="48.40675" lon="-3.90927">
        <ele>374.39999389648</ele>
        <time>2021-09-12T10:31:26Z</time>
      </trkpt>
      <trkpt lat="48.40673" lon="-3.9093">
        <ele>374.39999389648</ele>
        <time>2021-09-12T10:31:27Z</time>
      </trkpt>
      <trkpt lat="48.40672" lon="-3.90932">
        <ele>374.39999389648</ele>
        <time>2021-09-12T10:31:28Z</time>
      </trkpt>
      <trkpt lat="48.4067" lon="-3.90934">
        <ele>374.60000610352</ele>
        <time>2021-09-12T10:31:29Z</time>
      </trkpt>
      <trkpt lat="48.40669" lon="-3.90937">
        <ele>374.60000610352</ele>
        <time>2021-09-12T10:31:30Z</time>
      </trkpt>
      <trkpt lat="48.40667" lon="-3.90939">
        <ele>375</ele>
        <time>2021-09-12T10:31:31Z</time>
      </trkpt>
      <trkpt lat="48.40665" lon="-3.90942">
        <ele>375</ele>
        <time>2021-09-12T10:31:32Z</time>
      </trkpt>
      <trkpt lat="48.40663" lon="-3.90945">
        <ele>375</ele>
        <time>2021-09-12T10:31:33Z</time>
      </trkpt>
      <trkpt lat="48.40661" lon="-3.90947">
        <ele>375</ele>
        <time>2021-09-12T10:31:34Z</time>
      </trkpt>
      <trkpt lat="48.40659" lon="-3.90949">
        <ele>375.20001220703</ele>
        <time>2021-09-12T10:31:35Z</time>
      </trkpt>
      <trkpt lat="48.40657" lon="-3.90952">
        <ele>375.20001220703</ele>
        <time>2021-09-12T10:31:36Z</time>
      </trkpt>
      <trkpt lat="48.40655" lon="-3.90954">
        <ele>375.20001220703</ele>
        <time>2021-09-12T10:31:37Z</time>
      </trkpt>
      <trkpt lat="48.40653" lon="-3.90957">
        <ele>375.20001220703</ele>
        <time>2021-09-12T10:31:38Z</time>
      </trkpt>
      <trkpt lat="48.40651" lon="-3.90961">
        <ele>375.39999389648</ele>
        <time>2021-09-12T10:31:39Z</time>
      </trkpt>
      <trkpt lat="48.40649" lon="-3.90963">
        <ele>375.39999389648</ele>
        <time>2021-09-12T10:31:40Z</time>
      </trkpt>
      <trkpt lat="48.40648" lon="-3.90967">
        <ele>375.39999389648</ele>
        <time>2021-09-12T10:31:41Z</time>
      </trkpt>
      <trkpt lat="48.40647" lon="-3.90971">
        <ele>375.39999389648</ele>
        <time>2021-09-12T10:31:42Z</time>
      </trkpt>
      <trkpt lat="48.40645" lon="-3.90974">
        <ele>375.39999389648</ele>
        <time>2021-09-12T10:31:43Z</time>
      </trkpt>
      <trkpt lat="48.40644" lon="-3.90978">
        <ele>375.39999389648</ele>
        <time>2021-09-12T10:31:44Z</time>
      </trkpt>
      <trkpt lat="48.40642" lon="-3.9098">
        <ele>375.39999389648</ele>
        <time>2021-09-12T10:31:45Z</time>
      </trkpt>
      <trkpt lat="48.4064" lon="-3.90982">
        <ele>374.79998779297</ele>
        <time>2021-09-12T10:31:46Z</time>
      </trkpt>
      <trkpt lat="48.40638" lon="-3.90984">
        <ele>374.60000610352</ele>
        <time>2021-09-12T10:31:47Z</time>
      </trkpt>
      <trkpt lat="48.40636" lon="-3.90987">
        <ele>374.60000610352</ele>
        <time>2021-09-12T10:31:48Z</time>
      </trkpt>
      <trkpt lat="48.40634" lon="-3.9099">
        <ele>374.39999389648</ele>
        <time>2021-09-12T10:31:49Z</time>
      </trkpt>
      <trkpt lat="48.40633" lon="-3.90994">
        <ele>374.20001220703</ele>
        <time>2021-09-12T10:31:50Z</time>
      </trkpt>
      <trkpt lat="48.40631" lon="-3.90999">
        <ele>373.60000610352</ele>
        <time>2021-09-12T10:31:51Z</time>
      </trkpt>
      <trkpt lat="48.4063" lon="-3.91006">
        <ele>373.60000610352</ele>
        <time>2021-09-12T10:31:52Z</time>
      </trkpt>
      <trkpt lat="48.40629" lon="-3.91013">
        <ele>373.20001220703</ele>
        <time>2021-09-12T10:31:53Z</time>
      </trkpt>
      <trkpt lat="48.40628" lon="-3.9102">
        <ele>372.39999389648</ele>
        <time>2021-09-12T10:31:54Z</time>
      </trkpt>
      <trkpt lat="48.40627" lon="-3.91025">
        <ele>372.20001220703</ele>
        <time>2021-09-12T10:31:55Z</time>
      </trkpt>
      <trkpt lat="48.40626" lon="-3.9103">
        <ele>371.39999389648</ele>
        <time>2021-09-12T10:31:56Z</time>
      </trkpt>
      <trkpt lat="48.40623" lon="-3.91034">
        <ele>371.20001220703</ele>
        <time>2021-09-12T10:31:57Z</time>
      </trkpt>
      <trkpt lat="48.40621" lon="-3.91039">
        <ele>370.60000610352</ele>
        <time>2021-09-12T10:31:58Z</time>
      </trkpt>
      <trkpt lat="48.40618" lon="-3.91044">
        <ele>370.39999389648</ele>
        <time>2021-09-12T10:31:59Z</time>
      </trkpt>
      <trkpt lat="48.40614" lon="-3.91049">
        <ele>370.20001220703</ele>
        <time>2021-09-12T10:32:00Z</time>
      </trkpt>
      <trkpt lat="48.4061" lon="-3.91054">
        <ele>370.20001220703</ele>
        <time>2021-09-12T10:32:01Z</time>
      </trkpt>
      <trkpt lat="48.40608" lon="-3.91058">
        <ele>369.60000610352</ele>
        <time>2021-09-12T10:32:02Z</time>
      </trkpt>
      <trkpt lat="48.40607" lon="-3.91061">
        <ele>368.60000610352</ele>
        <time>2021-09-12T10:32:03Z</time>
      </trkpt>
      <trkpt lat="48.40605" lon="-3.91064">
        <ele>368.20001220703</ele>
        <time>2021-09-12T10:32:04Z</time>
      </trkpt>
      <trkpt lat="48.40602" lon="-3.91067">
        <ele>368</ele>
        <time>2021-09-12T10:32:05Z</time>
      </trkpt>
      <trkpt lat="48.406" lon="-3.91071">
        <ele>367.60000610352</ele>
        <time>2021-09-12T10:32:06Z</time>
      </trkpt>
      <trkpt lat="48.40597" lon="-3.91074">
        <ele>367.39999389648</ele>
        <time>2021-09-12T10:32:07Z</time>
      </trkpt>
      <trkpt lat="48.40596" lon="-3.91077">
        <ele>367</ele>
        <time>2021-09-12T10:32:08Z</time>
      </trkpt>
      <trkpt lat="48.40594" lon="-3.9108">
        <ele>366.60000610352</ele>
        <time>2021-09-12T10:32:09Z</time>
      </trkpt>
      <trkpt lat="48.40593" lon="-3.91084">
        <ele>366.20001220703</ele>
        <time>2021-09-12T10:32:10Z</time>
      </trkpt>
      <trkpt lat="48.40591" lon="-3.91088">
        <ele>365.60000610352</ele>
        <time>2021-09-12T10:32:11Z</time>
      </trkpt>
      <trkpt lat="48.40589" lon="-3.91092">
        <ele>365.39999389648</ele>
        <time>2021-09-12T10:32:12Z</time>
      </trkpt>
      <trkpt lat="48.40588" lon="-3.91096">
        <ele>364.60000610352</ele>
        <time>2021-09-12T10:32:13Z</time>
      </trkpt>
      <trkpt lat="48.40586" lon="-3.91101">
        <ele>363.79998779297</ele>
        <time>2021-09-12T10:32:14Z</time>
      </trkpt>
      <trkpt lat="48.40586" lon="-3.91106">
        <ele>363.60000610352</ele>
        <time>2021-09-12T10:32:15Z</time>
      </trkpt>
      <trkpt lat="48.40586" lon="-3.91109">
        <ele>363.39999389648</ele>
        <time>2021-09-12T10:32:16Z</time>
      </trkpt>
      <trkpt lat="48.40587" lon="-3.91112">
        <ele>363.39999389648</ele>
        <time>2021-09-12T10:32:17Z</time>
      </trkpt>
      <trkpt lat="48.40588" lon="-3.91115">
        <ele>362.60000610352</ele>
        <time>2021-09-12T10:32:18Z</time>
      </trkpt>
      <trkpt lat="48.40589" lon="-3.91118">
        <ele>362</ele>
        <time>2021-09-12T10:32:19Z</time>
      </trkpt>
      <trkpt lat="48.40591" lon="-3.91121">
        <ele>362</ele>
        <time>2021-09-12T10:32:20Z</time>
      </trkpt>
      <trkpt lat="48.40592" lon="-3.91125">
        <ele>361.79998779297</ele>
        <time>2021-09-12T10:32:21Z</time>
      </trkpt>
      <trkpt lat="48.40593" lon="-3.91129">
        <ele>361.79998779297</ele>
        <time>2021-09-12T10:32:22Z</time>
      </trkpt>
      <trkpt lat="48.40594" lon="-3.91134">
        <ele>361.39999389648</ele>
        <time>2021-09-12T10:32:23Z</time>
      </trkpt>
      <trkpt lat="48.40596" lon="-3.91139">
        <ele>361</ele>
        <time>2021-09-12T10:32:24Z</time>
      </trkpt>
      <trkpt lat="48.40598" lon="-3.91143">
        <ele>360.39999389648</ele>
        <time>2021-09-12T10:32:25Z</time>
      </trkpt>
      <trkpt lat="48.40601" lon="-3.91146">
        <ele>360.20001220703</ele>
        <time>2021-09-12T10:32:26Z</time>
      </trkpt>
      <trkpt lat="48.40603" lon="-3.91151">
        <ele>359</ele>
        <time>2021-09-12T10:32:27Z</time>
      </trkpt>
      <trkpt lat="48.40604" lon="-3.91157">
        <ele>359</ele>
        <time>2021-09-12T10:32:28Z</time>
      </trkpt>
      <trkpt lat="48.40605" lon="-3.91163">
        <ele>358.39999389648</ele>
        <time>2021-09-12T10:32:29Z</time>
      </trkpt>
      <trkpt lat="48.40604" lon="-3.91167">
        <ele>357.60000610352</ele>
        <time>2021-09-12T10:32:30Z</time>
      </trkpt>
      <trkpt lat="48.40605" lon="-3.91171">
        <ele>357.20001220703</ele>
        <time>2021-09-12T10:32:31Z</time>
      </trkpt>
      <trkpt lat="48.40604" lon="-3.91174">
        <ele>356.60000610352</ele>
        <time>2021-09-12T10:32:32Z</time>
      </trkpt>
      <trkpt lat="48.40605" lon="-3.91177">
        <ele>356.20001220703</ele>
        <time>2021-09-12T10:32:33Z</time>
      </trkpt>
      <trkpt lat="48.40605" lon="-3.91179">
        <ele>355.60000610352</ele>
        <time>2021-09-12T10:32:34Z</time>
      </trkpt>
      <trkpt lat="48.40607" lon="-3.91183">
        <ele>355.60000610352</ele>
        <time>2021-09-12T10:32:35Z</time>
      </trkpt>
      <trkpt lat="48.40608" lon="-3.91186">
        <ele>354.79998779297</ele>
        <time>2021-09-12T10:32:36Z</time>
      </trkpt>
      <trkpt lat="48.4061" lon="-3.91188">
        <ele>354.39999389648</ele>
        <time>2021-09-12T10:32:37Z</time>
      </trkpt>
      <trkpt lat="48.40612" lon="-3.9119">
        <ele>354</ele>
        <time>2021-09-12T10:32:38Z</time>
      </trkpt>
      <trkpt lat="48.40613" lon="-3.91194">
        <ele>353.39999389648</ele>
        <time>2021-09-12T10:32:39Z</time>
      </trkpt>
      <trkpt lat="48.40613" lon="-3.91198">
        <ele>352.79998779297</ele>
        <time>2021-09-12T10:32:40Z</time>
      </trkpt>
      <trkpt lat="48.40613" lon="-3.91202">
        <ele>352.60000610352</ele>
        <time>2021-09-12T10:32:41Z</time>
      </trkpt>
      <trkpt lat="48.40612" lon="-3.91205">
        <ele>352.20001220703</ele>
        <time>2021-09-12T10:32:42Z</time>
      </trkpt>
      <trkpt lat="48.40612" lon="-3.91208">
        <ele>351.60000610352</ele>
        <time>2021-09-12T10:32:43Z</time>
      </trkpt>
      <trkpt lat="48.40613" lon="-3.91211">
        <ele>351.20001220703</ele>
        <time>2021-09-12T10:32:44Z</time>
      </trkpt>
      <trkpt lat="48.40613" lon="-3.91213">
        <ele>350.79998779297</ele>
        <time>2021-09-12T10:32:45Z</time>
      </trkpt>
      <trkpt lat="48.40614" lon="-3.91216">
        <ele>350.20001220703</ele>
        <time>2021-09-12T10:32:46Z</time>
      </trkpt>
      <trkpt lat="48.40615" lon="-3.91218">
        <ele>350</ele>
        <time>2021-09-12T10:32:47Z</time>
      </trkpt>
      <trkpt lat="48.40617" lon="-3.91221">
        <ele>349.20001220703</ele>
        <time>2021-09-12T10:32:48Z</time>
      </trkpt>
      <trkpt lat="48.4062" lon="-3.91223">
        <ele>348</ele>
        <time>2021-09-12T10:32:49Z</time>
      </trkpt>
      <trkpt lat="48.40622" lon="-3.91224">
        <ele>347.60000610352</ele>
        <time>2021-09-12T10:32:50Z</time>
      </trkpt>
      <trkpt lat="48.40624" lon="-3.91224">
        <ele>347</ele>
        <time>2021-09-12T10:32:51Z</time>
      </trkpt>
      <trkpt lat="48.40626" lon="-3.91224">
        <ele>347</ele>
        <time>2021-09-12T10:32:52Z</time>
      </trkpt>
      <trkpt lat="48.40627" lon="-3.91226">
        <ele>346.60000610352</ele>
        <time>2021-09-12T10:32:53Z</time>
      </trkpt>
      <trkpt lat="48.40627" lon="-3.91228">
        <ele>346</ele>
        <time>2021-09-12T10:32:54Z</time>
      </trkpt>
      <trkpt lat="48.40627" lon="-3.91229">
        <ele>345.79998779297</ele>
        <time>2021-09-12T10:32:55Z</time>
      </trkpt>
      <trkpt lat="48.40627" lon="-3.91229">
        <ele>345.60000610352</ele>
        <time>2021-09-12T10:32:56Z</time>
      </trkpt>
      <trkpt lat="48.40627" lon="-3.91229">
        <ele>345.39999389648</ele>
        <time>2021-09-12T10:32:57Z</time>
      </trkpt>
      <trkpt lat="48.40629" lon="-3.91241">
        <ele>343.60000610352</ele>
        <time>2021-09-12T10:33:04Z</time>
      </trkpt>
      <trkpt lat="48.40629" lon="-3.91243">
        <ele>343.39999389648</ele>
        <time>2021-09-12T10:33:05Z</time>
      </trkpt>
      <trkpt lat="48.40629" lon="-3.91245">
        <ele>343</ele>
        <time>2021-09-12T10:33:06Z</time>
      </trkpt>
      <trkpt lat="48.40631" lon="-3.91247">
        <ele>342.60000610352</ele>
        <time>2021-09-12T10:33:07Z</time>
      </trkpt>
      <trkpt lat="48.40633" lon="-3.91249">
        <ele>342.39999389648</ele>
        <time>2021-09-12T10:33:08Z</time>
      </trkpt>
      <trkpt lat="48.40635" lon="-3.91252">
        <ele>342</ele>
        <time>2021-09-12T10:33:09Z</time>
      </trkpt>
      <trkpt lat="48.40637" lon="-3.91254">
        <ele>341.20001220703</ele>
        <time>2021-09-12T10:33:10Z</time>
      </trkpt>
      <trkpt lat="48.40638" lon="-3.91257">
        <ele>340.60000610352</ele>
        <time>2021-09-12T10:33:11Z</time>
      </trkpt>
      <trkpt lat="48.40639" lon="-3.9126">
        <ele>340.20001220703</ele>
        <time>2021-09-12T10:33:12Z</time>
      </trkpt>
      <trkpt lat="48.4064" lon="-3.91263">
        <ele>339.60000610352</ele>
        <time>2021-09-12T10:33:13Z</time>
      </trkpt>
      <trkpt lat="48.40642" lon="-3.91265">
        <ele>339</ele>
        <time>2021-09-12T10:33:14Z</time>
      </trkpt>
      <trkpt lat="48.40644" lon="-3.91267">
        <ele>338.60000610352</ele>
        <time>2021-09-12T10:33:15Z</time>
      </trkpt>
      <trkpt lat="48.40647" lon="-3.91269">
        <ele>338.39999389648</ele>
        <time>2021-09-12T10:33:16Z</time>
      </trkpt>
      <trkpt lat="48.40649" lon="-3.91271">
        <ele>337.79998779297</ele>
        <time>2021-09-12T10:33:17Z</time>
      </trkpt>
      <trkpt lat="48.40652" lon="-3.91272">
        <ele>336.79998779297</ele>
        <time>2021-09-12T10:33:18Z</time>
      </trkpt>
      <trkpt lat="48.40654" lon="-3.91272">
        <ele>336.39999389648</ele>
        <time>2021-09-12T10:33:19Z</time>
      </trkpt>
      <trkpt lat="48.40656" lon="-3.91274">
        <ele>336</ele>
        <time>2021-09-12T10:33:20Z</time>
      </trkpt>
      <trkpt lat="48.40657" lon="-3.91274">
        <ele>335.20001220703</ele>
        <time>2021-09-12T10:33:21Z</time>
      </trkpt>
      <trkpt lat="48.40659" lon="-3.91276">
        <ele>334.79998779297</ele>
        <time>2021-09-12T10:33:22Z</time>
      </trkpt>
      <trkpt lat="48.40662" lon="-3.91277">
        <ele>334.39999389648</ele>
        <time>2021-09-12T10:33:23Z</time>
      </trkpt>
      <trkpt lat="48.40665" lon="-3.91277">
        <ele>333.79998779297</ele>
        <time>2021-09-12T10:33:24Z</time>
      </trkpt>
      <trkpt lat="48.40669" lon="-3.91277">
        <ele>333.20001220703</ele>
        <time>2021-09-12T10:33:25Z</time>
      </trkpt>
      <trkpt lat="48.40671" lon="-3.91277">
        <ele>332.20001220703</ele>
        <time>2021-09-12T10:33:26Z</time>
      </trkpt>
      <trkpt lat="48.40673" lon="-3.91278">
        <ele>331.60000610352</ele>
        <time>2021-09-12T10:33:27Z</time>
      </trkpt>
      <trkpt lat="48.40676" lon="-3.91278">
        <ele>330.79998779297</ele>
        <time>2021-09-12T10:33:28Z</time>
      </trkpt>
      <trkpt lat="48.40678" lon="-3.91277">
        <ele>330.20001220703</ele>
        <time>2021-09-12T10:33:29Z</time>
      </trkpt>
      <trkpt lat="48.40681" lon="-3.91277">
        <ele>329.79998779297</ele>
        <time>2021-09-12T10:33:30Z</time>
      </trkpt>
      <trkpt lat="48.40683" lon="-3.91278">
        <ele>329.39999389648</ele>
        <time>2021-09-12T10:33:31Z</time>
      </trkpt>
      <trkpt lat="48.40686" lon="-3.91278">
        <ele>329</ele>
        <time>2021-09-12T10:33:32Z</time>
      </trkpt>
      <trkpt lat="48.40688" lon="-3.91278">
        <ele>328.20001220703</ele>
        <time>2021-09-12T10:33:33Z</time>
      </trkpt>
      <trkpt lat="48.4069" lon="-3.91279">
        <ele>327.60000610352</ele>
        <time>2021-09-12T10:33:34Z</time>
      </trkpt>
      <trkpt lat="48.40693" lon="-3.91279">
        <ele>326.20001220703</ele>
        <time>2021-09-12T10:33:35Z</time>
      </trkpt>
      <trkpt lat="48.40695" lon="-3.91277">
        <ele>326</ele>
        <time>2021-09-12T10:33:36Z</time>
      </trkpt>
      <trkpt lat="48.40698" lon="-3.91276">
        <ele>325.39999389648</ele>
        <time>2021-09-12T10:33:37Z</time>
      </trkpt>
      <trkpt lat="48.40701" lon="-3.91276">
        <ele>324.20001220703</ele>
        <time>2021-09-12T10:33:38Z</time>
      </trkpt>
      <trkpt lat="48.40703" lon="-3.91275">
        <ele>323.60000610352</ele>
        <time>2021-09-12T10:33:39Z</time>
      </trkpt>
      <trkpt lat="48.40706" lon="-3.91275">
        <ele>322.79998779297</ele>
        <time>2021-09-12T10:33:40Z</time>
      </trkpt>
      <trkpt lat="48.40708" lon="-3.91275">
        <ele>322.39999389648</ele>
        <time>2021-09-12T10:33:41Z</time>
      </trkpt>
      <trkpt lat="48.4071" lon="-3.91273">
        <ele>321.60000610352</ele>
        <time>2021-09-12T10:33:42Z</time>
      </trkpt>
      <trkpt lat="48.40712" lon="-3.9127">
        <ele>320.39999389648</ele>
        <time>2021-09-12T10:33:43Z</time>
      </trkpt>
      <trkpt lat="48.40714" lon="-3.91267">
        <ele>319.79998779297</ele>
        <time>2021-09-12T10:33:44Z</time>
      </trkpt>
      <trkpt lat="48.40716" lon="-3.91264">
        <ele>319.20001220703</ele>
        <time>2021-09-12T10:33:45Z</time>
      </trkpt>
      <trkpt lat="48.40718" lon="-3.91258">
        <ele>319</ele>
        <time>2021-09-12T10:33:46Z</time>
      </trkpt>
      <trkpt lat="48.4072" lon="-3.91253">
        <ele>318.79998779297</ele>
        <time>2021-09-12T10:33:47Z</time>
      </trkpt>
      <trkpt lat="48.40721" lon="-3.91247">
        <ele>318</ele>
        <time>2021-09-12T10:33:48Z</time>
      </trkpt>
      <trkpt lat="48.40723" lon="-3.91242">
        <ele>317.60000610352</ele>
        <time>2021-09-12T10:33:49Z</time>
      </trkpt>
      <trkpt lat="48.40725" lon="-3.91238">
        <ele>317</ele>
        <time>2021-09-12T10:33:50Z</time>
      </trkpt>
      <trkpt lat="48.40727" lon="-3.91233">
        <ele>316.60000610352</ele>
        <time>2021-09-12T10:33:51Z</time>
      </trkpt>
      <trkpt lat="48.40729" lon="-3.9123">
        <ele>316</ele>
        <time>2021-09-12T10:33:52Z</time>
      </trkpt>
      <trkpt lat="48.40732" lon="-3.91226">
        <ele>316</ele>
        <time>2021-09-12T10:33:53Z</time>
      </trkpt>
      <trkpt lat="48.40734" lon="-3.91224">
        <ele>315.20001220703</ele>
        <time>2021-09-12T10:33:54Z</time>
      </trkpt>
      <trkpt lat="48.40738" lon="-3.9122">
        <ele>315.20001220703</ele>
        <time>2021-09-12T10:33:55Z</time>
      </trkpt>
      <trkpt lat="48.4074" lon="-3.91218">
        <ele>314.79998779297</ele>
        <time>2021-09-12T10:33:56Z</time>
      </trkpt>
      <trkpt lat="48.40743" lon="-3.91216">
        <ele>313.79998779297</ele>
        <time>2021-09-12T10:33:57Z</time>
      </trkpt>
      <trkpt lat="48.40747" lon="-3.91213">
        <ele>313.20001220703</ele>
        <time>2021-09-12T10:33:58Z</time>
      </trkpt>
      <trkpt lat="48.40749" lon="-3.91209">
        <ele>311.60000610352</ele>
        <time>2021-09-12T10:33:59Z</time>
      </trkpt>
      <trkpt lat="48.40751" lon="-3.91205">
        <ele>311.60000610352</ele>
        <time>2021-09-12T10:34:00Z</time>
      </trkpt>
      <trkpt lat="48.40753" lon="-3.91202">
        <ele>311.20001220703</ele>
        <time>2021-09-12T10:34:01Z</time>
      </trkpt>
      <trkpt lat="48.40755" lon="-3.91199">
        <ele>311</ele>
        <time>2021-09-12T10:34:02Z</time>
      </trkpt>
      <trkpt lat="48.40759" lon="-3.91197">
        <ele>310.39999389648</ele>
        <time>2021-09-12T10:34:03Z</time>
      </trkpt>
      <trkpt lat="48.40762" lon="-3.91196">
        <ele>309.79998779297</ele>
        <time>2021-09-12T10:34:04Z</time>
      </trkpt>
      <trkpt lat="48.40765" lon="-3.91194">
        <ele>309.79998779297</ele>
        <time>2021-09-12T10:34:05Z</time>
      </trkpt>
      <trkpt lat="48.40769" lon="-3.91192">
        <ele>309</ele>
        <time>2021-09-12T10:34:06Z</time>
      </trkpt>
      <trkpt lat="48.40772" lon="-3.91189">
        <ele>308.39999389648</ele>
        <time>2021-09-12T10:34:07Z</time>
      </trkpt>
      <trkpt lat="48.40775" lon="-3.91186">
        <ele>308.20001220703</ele>
        <time>2021-09-12T10:34:08Z</time>
      </trkpt>
      <trkpt lat="48.40778" lon="-3.91183">
        <ele>307.39999389648</ele>
        <time>2021-09-12T10:34:09Z</time>
      </trkpt>
      <trkpt lat="48.40782" lon="-3.91179">
        <ele>307.20001220703</ele>
        <time>2021-09-12T10:34:10Z</time>
      </trkpt>
      <trkpt lat="48.40785" lon="-3.91176">
        <ele>307.20001220703</ele>
        <time>2021-09-12T10:34:11Z</time>
      </trkpt>
      <trkpt lat="48.40789" lon="-3.91174">
        <ele>307</ele>
        <time>2021-09-12T10:34:12Z</time>
      </trkpt>
      <trkpt lat="48.40792" lon="-3.91171">
        <ele>306.60000610352</ele>
        <time>2021-09-12T10:34:13Z</time>
      </trkpt>
      <trkpt lat="48.40795" lon="-3.91168">
        <ele>306.60000610352</ele>
        <time>2021-09-12T10:34:14Z</time>
      </trkpt>
      <trkpt lat="48.40797" lon="-3.91165">
        <ele>306.20001220703</ele>
        <time>2021-09-12T10:34:15Z</time>
      </trkpt>
      <trkpt lat="48.40799" lon="-3.91163">
        <ele>305.39999389648</ele>
        <time>2021-09-12T10:34:16Z</time>
      </trkpt>
      <trkpt lat="48.408" lon="-3.9116">
        <ele>305</ele>
        <time>2021-09-12T10:34:17Z</time>
      </trkpt>
      <trkpt lat="48.40802" lon="-3.91157">
        <ele>305</ele>
        <time>2021-09-12T10:34:18Z</time>
      </trkpt>
      <trkpt lat="48.40805" lon="-3.91155">
        <ele>304.79998779297</ele>
        <time>2021-09-12T10:34:19Z</time>
      </trkpt>
      <trkpt lat="48.40807" lon="-3.91154">
        <ele>304.60000610352</ele>
        <time>2021-09-12T10:34:20Z</time>
      </trkpt>
      <trkpt lat="48.40809" lon="-3.91153">
        <ele>304.39999389648</ele>
        <time>2021-09-12T10:34:21Z</time>
      </trkpt>
      <trkpt lat="48.40812" lon="-3.91151">
        <ele>304.39999389648</ele>
        <time>2021-09-12T10:34:22Z</time>
      </trkpt>
      <trkpt lat="48.40815" lon="-3.9115">
        <ele>304.20001220703</ele>
        <time>2021-09-12T10:34:23Z</time>
      </trkpt>
      <trkpt lat="48.40817" lon="-3.91151">
        <ele>304.20001220703</ele>
        <time>2021-09-12T10:34:24Z</time>
      </trkpt>
      <trkpt lat="48.40819" lon="-3.91153">
        <ele>304.20001220703</ele>
        <time>2021-09-12T10:34:25Z</time>
      </trkpt>
      <trkpt lat="48.40819" lon="-3.91155">
        <ele>303.79998779297</ele>
        <time>2021-09-12T10:34:26Z</time>
      </trkpt>
      <trkpt lat="48.40818" lon="-3.91157">
        <ele>303.39999389648</ele>
        <time>2021-09-12T10:34:27Z</time>
      </trkpt>
      <trkpt lat="48.40817" lon="-3.91161">
        <ele>303</ele>
        <time>2021-09-12T10:34:28Z</time>
      </trkpt>
      <trkpt lat="48.40815" lon="-3.91165">
        <ele>302.79998779297</ele>
        <time>2021-09-12T10:34:29Z</time>
      </trkpt>
      <trkpt lat="48.40814" lon="-3.91169">
        <ele>302.60000610352</ele>
        <time>2021-09-12T10:34:30Z</time>
      </trkpt>
      <trkpt lat="48.40814" lon="-3.91173">
        <ele>302.60000610352</ele>
        <time>2021-09-12T10:34:31Z</time>
      </trkpt>
      <trkpt lat="48.40813" lon="-3.91177">
        <ele>302.60000610352</ele>
        <time>2021-09-12T10:34:32Z</time>
      </trkpt>
      <trkpt lat="48.40811" lon="-3.91181">
        <ele>302.39999389648</ele>
        <time>2021-09-12T10:34:33Z</time>
      </trkpt>
      <trkpt lat="48.4081" lon="-3.91186">
        <ele>302.39999389648</ele>
        <time>2021-09-12T10:34:34Z</time>
      </trkpt>
      <trkpt lat="48.40808" lon="-3.91191">
        <ele>302.20001220703</ele>
        <time>2021-09-12T10:34:35Z</time>
      </trkpt>
      <trkpt lat="48.40807" lon="-3.91195">
        <ele>302</ele>
        <time>2021-09-12T10:34:36Z</time>
      </trkpt>
      <trkpt lat="48.40806" lon="-3.91199">
        <ele>302</ele>
        <time>2021-09-12T10:34:37Z</time>
      </trkpt>
      <trkpt lat="48.40805" lon="-3.91204">
        <ele>302</ele>
        <time>2021-09-12T10:34:38Z</time>
      </trkpt>
      <trkpt lat="48.40803" lon="-3.91208">
        <ele>301.79998779297</ele>
        <time>2021-09-12T10:34:39Z</time>
      </trkpt>
      <trkpt lat="48.40802" lon="-3.91213">
        <ele>301.79998779297</ele>
        <time>2021-09-12T10:34:40Z</time>
      </trkpt>
      <trkpt lat="48.40801" lon="-3.91216">
        <ele>301.79998779297</ele>
        <time>2021-09-12T10:34:41Z</time>
      </trkpt>
      <trkpt lat="48.408" lon="-3.91219">
        <ele>301.60000610352</ele>
        <time>2021-09-12T10:34:42Z</time>
      </trkpt>
      <trkpt lat="48.40799" lon="-3.91222">
        <ele>301.60000610352</ele>
        <time>2021-09-12T10:34:43Z</time>
      </trkpt>
      <trkpt lat="48.40798" lon="-3.91226">
        <ele>301.39999389648</ele>
        <time>2021-09-12T10:34:44Z</time>
      </trkpt>
      <trkpt lat="48.40798" lon="-3.9123">
        <ele>301.39999389648</ele>
        <time>2021-09-12T10:34:45Z</time>
      </trkpt>
      <trkpt lat="48.40797" lon="-3.91234">
        <ele>301.39999389648</ele>
        <time>2021-09-12T10:34:46Z</time>
      </trkpt>
      <trkpt lat="48.40796" lon="-3.91238">
        <ele>301.60000610352</ele>
        <time>2021-09-12T10:34:47Z</time>
      </trkpt>
      <trkpt lat="48.40794" lon="-3.91242">
        <ele>301.60000610352</ele>
        <time>2021-09-12T10:34:48Z</time>
      </trkpt>
      <trkpt lat="48.40792" lon="-3.91246">
        <ele>301.39999389648</ele>
        <time>2021-09-12T10:34:49Z</time>
      </trkpt>
      <trkpt lat="48.4079" lon="-3.91251">
        <ele>301.39999389648</ele>
        <time>2021-09-12T10:34:50Z</time>
      </trkpt>
      <trkpt lat="48.40789" lon="-3.91255">
        <ele>301.20001220703</ele>
        <time>2021-09-12T10:34:51Z</time>
      </trkpt>
      <trkpt lat="48.40788" lon="-3.9126">
        <ele>301.20001220703</ele>
        <time>2021-09-12T10:34:52Z</time>
      </trkpt>
      <trkpt lat="48.40787" lon="-3.91264">
        <ele>301</ele>
        <time>2021-09-12T10:34:53Z</time>
      </trkpt>
      <trkpt lat="48.40786" lon="-3.91269">
        <ele>300.60000610352</ele>
        <time>2021-09-12T10:34:54Z</time>
      </trkpt>
      <trkpt lat="48.40785" lon="-3.91274">
        <ele>300.60000610352</ele>
        <time>2021-09-12T10:34:55Z</time>
      </trkpt>
      <trkpt lat="48.40784" lon="-3.91279">
        <ele>300.60000610352</ele>
        <time>2021-09-12T10:34:56Z</time>
      </trkpt>
      <trkpt lat="48.40783" lon="-3.91284">
        <ele>300.60000610352</ele>
        <time>2021-09-12T10:34:57Z</time>
      </trkpt>
      <trkpt lat="48.40782" lon="-3.91289">
        <ele>300.60000610352</ele>
        <time>2021-09-12T10:34:58Z</time>
      </trkpt>
      <trkpt lat="48.40782" lon="-3.91295">
        <ele>300.39999389648</ele>
        <time>2021-09-12T10:34:59Z</time>
      </trkpt>
      <trkpt lat="48.40782" lon="-3.91301">
        <ele>300.39999389648</ele>
        <time>2021-09-12T10:35:00Z</time>
      </trkpt>
      <trkpt lat="48.40781" lon="-3.91306">
        <ele>300.39999389648</ele>
        <time>2021-09-12T10:35:01Z</time>
      </trkpt>
      <trkpt lat="48.4078" lon="-3.9131">
        <ele>300</ele>
        <time>2021-09-12T10:35:02Z</time>
      </trkpt>
      <trkpt lat="48.40778" lon="-3.91314">
        <ele>300</ele>
        <time>2021-09-12T10:35:03Z</time>
      </trkpt>
      <trkpt lat="48.40776" lon="-3.9132">
        <ele>300</ele>
        <time>2021-09-12T10:35:04Z</time>
      </trkpt>
      <trkpt lat="48.40775" lon="-3.91325">
        <ele>299.79998779297</ele>
        <time>2021-09-12T10:35:05Z</time>
      </trkpt>
      <trkpt lat="48.40773" lon="-3.9133">
        <ele>299.79998779297</ele>
        <time>2021-09-12T10:35:06Z</time>
      </trkpt>
      <trkpt lat="48.40772" lon="-3.91336">
        <ele>299.60000610352</ele>
        <time>2021-09-12T10:35:07Z</time>
      </trkpt>
      <trkpt lat="48.4077" lon="-3.91343">
        <ele>299.60000610352</ele>
        <time>2021-09-12T10:35:08Z</time>
      </trkpt>
      <trkpt lat="48.40769" lon="-3.91349">
        <ele>299.39999389648</ele>
        <time>2021-09-12T10:35:09Z</time>
      </trkpt>
      <trkpt lat="48.40767" lon="-3.91355">
        <ele>299.39999389648</ele>
        <time>2021-09-12T10:35:10Z</time>
      </trkpt>
      <trkpt lat="48.40766" lon="-3.91361">
        <ele>299.39999389648</ele>
        <time>2021-09-12T10:35:11Z</time>
      </trkpt>
      <trkpt lat="48.40765" lon="-3.91367">
        <ele>299.20001220703</ele>
        <time>2021-09-12T10:35:12Z</time>
      </trkpt>
      <trkpt lat="48.40763" lon="-3.91373">
        <ele>299</ele>
        <time>2021-09-12T10:35:13Z</time>
      </trkpt>
      <trkpt lat="48.40762" lon="-3.9138">
        <ele>298.79998779297</ele>
        <time>2021-09-12T10:35:14Z</time>
      </trkpt>
      <trkpt lat="48.4076" lon="-3.91387">
        <ele>298.79998779297</ele>
        <time>2021-09-12T10:35:15Z</time>
      </trkpt>
      <trkpt lat="48.40759" lon="-3.91393">
        <ele>298.79998779297</ele>
        <time>2021-09-12T10:35:16Z</time>
      </trkpt>
      <trkpt lat="48.40758" lon="-3.914">
        <ele>298.60000610352</ele>
        <time>2021-09-12T10:35:17Z</time>
      </trkpt>
      <trkpt lat="48.40756" lon="-3.91406">
        <ele>298.60000610352</ele>
        <time>2021-09-12T10:35:18Z</time>
      </trkpt>
      <trkpt lat="48.40754" lon="-3.91413">
        <ele>298.60000610352</ele>
        <time>2021-09-12T10:35:19Z</time>
      </trkpt>
      <trkpt lat="48.40754" lon="-3.91419">
        <ele>298.60000610352</ele>
        <time>2021-09-12T10:35:20Z</time>
      </trkpt>
      <trkpt lat="48.40753" lon="-3.91426">
        <ele>298</ele>
        <time>2021-09-12T10:35:21Z</time>
      </trkpt>
      <trkpt lat="48.40751" lon="-3.91432">
        <ele>297.60000610352</ele>
        <time>2021-09-12T10:35:22Z</time>
      </trkpt>
      <trkpt lat="48.4075" lon="-3.91439">
        <ele>297.60000610352</ele>
        <time>2021-09-12T10:35:23Z</time>
      </trkpt>
      <trkpt lat="48.40748" lon="-3.91445">
        <ele>297.60000610352</ele>
        <time>2021-09-12T10:35:24Z</time>
      </trkpt>
      <trkpt lat="48.40747" lon="-3.91451">
        <ele>297.20001220703</ele>
        <time>2021-09-12T10:35:25Z</time>
      </trkpt>
      <trkpt lat="48.40745" lon="-3.91457">
        <ele>297</ele>
        <time>2021-09-12T10:35:26Z</time>
      </trkpt>
      <trkpt lat="48.40744" lon="-3.91463">
        <ele>297</ele>
        <time>2021-09-12T10:35:27Z</time>
      </trkpt>
      <trkpt lat="48.40742" lon="-3.91469">
        <ele>296.79998779297</ele>
        <time>2021-09-12T10:35:28Z</time>
      </trkpt>
      <trkpt lat="48.40741" lon="-3.91475">
        <ele>296.79998779297</ele>
        <time>2021-09-12T10:35:29Z</time>
      </trkpt>
      <trkpt lat="48.4074" lon="-3.91481">
        <ele>296.60000610352</ele>
        <time>2021-09-12T10:35:30Z</time>
      </trkpt>
      <trkpt lat="48.40738" lon="-3.91487">
        <ele>296.39999389648</ele>
        <time>2021-09-12T10:35:31Z</time>
      </trkpt>
      <trkpt lat="48.40737" lon="-3.91492">
        <ele>296.39999389648</ele>
        <time>2021-09-12T10:35:32Z</time>
      </trkpt>
      <trkpt lat="48.40735" lon="-3.91497">
        <ele>296.39999389648</ele>
        <time>2021-09-12T10:35:33Z</time>
      </trkpt>
      <trkpt lat="48.40734" lon="-3.91502">
        <ele>296.20001220703</ele>
        <time>2021-09-12T10:35:34Z</time>
      </trkpt>
      <trkpt lat="48.40733" lon="-3.91508">
        <ele>296.20001220703</ele>
        <time>2021-09-12T10:35:35Z</time>
      </trkpt>
      <trkpt lat="48.40731" lon="-3.91514">
        <ele>296.20001220703</ele>
        <time>2021-09-12T10:35:36Z</time>
      </trkpt>
      <trkpt lat="48.4073" lon="-3.91519">
        <ele>296.20001220703</ele>
        <time>2021-09-12T10:35:37Z</time>
      </trkpt>
      <trkpt lat="48.40728" lon="-3.91525">
        <ele>295.79998779297</ele>
        <time>2021-09-12T10:35:38Z</time>
      </trkpt>
      <trkpt lat="48.40728" lon="-3.91531">
        <ele>295.60000610352</ele>
        <time>2021-09-12T10:35:39Z</time>
      </trkpt>
      <trkpt lat="48.40726" lon="-3.91537">
        <ele>295.60000610352</ele>
        <time>2021-09-12T10:35:40Z</time>
      </trkpt>
      <trkpt lat="48.40725" lon="-3.91543">
        <ele>295.39999389648</ele>
        <time>2021-09-12T10:35:41Z</time>
      </trkpt>
      <trkpt lat="48.40723" lon="-3.91549">
        <ele>295.39999389648</ele>
        <time>2021-09-12T10:35:42Z</time>
      </trkpt>
      <trkpt lat="48.40722" lon="-3.91555">
        <ele>295.39999389648</ele>
        <time>2021-09-12T10:35:43Z</time>
      </trkpt>
      <trkpt lat="48.4072" lon="-3.91561">
        <ele>295.20001220703</ele>
        <time>2021-09-12T10:35:44Z</time>
      </trkpt>
      <trkpt lat="48.40719" lon="-3.91567">
        <ele>295.20001220703</ele>
        <time>2021-09-12T10:35:45Z</time>
      </trkpt>
      <trkpt lat="48.40718" lon="-3.91573">
        <ele>295</ele>
        <time>2021-09-12T10:35:46Z</time>
      </trkpt>
      <trkpt lat="48.40716" lon="-3.9158">
        <ele>294.60000610352</ele>
        <time>2021-09-12T10:35:47Z</time>
      </trkpt>
      <trkpt lat="48.40715" lon="-3.91586">
        <ele>294.60000610352</ele>
        <time>2021-09-12T10:35:48Z</time>
      </trkpt>
      <trkpt lat="48.40714" lon="-3.91593">
        <ele>294.60000610352</ele>
        <time>2021-09-12T10:35:49Z</time>
      </trkpt>
      <trkpt lat="48.40713" lon="-3.916">
        <ele>294.39999389648</ele>
        <time>2021-09-12T10:35:50Z</time>
      </trkpt>
      <trkpt lat="48.40712" lon="-3.91607">
        <ele>294.39999389648</ele>
        <time>2021-09-12T10:35:51Z</time>
      </trkpt>
      <trkpt lat="48.4071" lon="-3.91613">
        <ele>294.39999389648</ele>
        <time>2021-09-12T10:35:52Z</time>
      </trkpt>
      <trkpt lat="48.40708" lon="-3.91618">
        <ele>294.39999389648</ele>
        <time>2021-09-12T10:35:53Z</time>
      </trkpt>
      <trkpt lat="48.40707" lon="-3.91624">
        <ele>294.39999389648</ele>
        <time>2021-09-12T10:35:54Z</time>
      </trkpt>
      <trkpt lat="48.40705" lon="-3.9163">
        <ele>294.39999389648</ele>
        <time>2021-09-12T10:35:55Z</time>
      </trkpt>
      <trkpt lat="48.40704" lon="-3.91636">
        <ele>294.20001220703</ele>
        <time>2021-09-12T10:35:56Z</time>
      </trkpt>
      <trkpt lat="48.40703" lon="-3.91643">
        <ele>294</ele>
        <time>2021-09-12T10:35:57Z</time>
      </trkpt>
      <trkpt lat="48.40702" lon="-3.9165">
        <ele>293.60000610352</ele>
        <time>2021-09-12T10:35:58Z</time>
      </trkpt>
      <trkpt lat="48.40701" lon="-3.91656">
        <ele>293.39999389648</ele>
        <time>2021-09-12T10:35:59Z</time>
      </trkpt>
      <trkpt lat="48.407" lon="-3.91663">
        <ele>293.39999389648</ele>
        <time>2021-09-12T10:36:00Z</time>
      </trkpt>
      <trkpt lat="48.407" lon="-3.91669">
        <ele>293.20001220703</ele>
        <time>2021-09-12T10:36:01Z</time>
      </trkpt>
      <trkpt lat="48.407" lon="-3.91674">
        <ele>293</ele>
        <time>2021-09-12T10:36:02Z</time>
      </trkpt>
      <trkpt lat="48.40699" lon="-3.91679">
        <ele>293</ele>
        <time>2021-09-12T10:36:03Z</time>
      </trkpt>
      <trkpt lat="48.40698" lon="-3.91685">
        <ele>293</ele>
        <time>2021-09-12T10:36:04Z</time>
      </trkpt>
      <trkpt lat="48.40697" lon="-3.91692">
        <ele>292.79998779297</ele>
        <time>2021-09-12T10:36:05Z</time>
      </trkpt>
      <trkpt lat="48.40697" lon="-3.91698">
        <ele>292.79998779297</ele>
        <time>2021-09-12T10:36:06Z</time>
      </trkpt>
      <trkpt lat="48.40697" lon="-3.91704">
        <ele>292.60000610352</ele>
        <time>2021-09-12T10:36:07Z</time>
      </trkpt>
      <trkpt lat="48.40695" lon="-3.91709">
        <ele>292.60000610352</ele>
        <time>2021-09-12T10:36:08Z</time>
      </trkpt>
      <trkpt lat="48.40694" lon="-3.91716">
        <ele>292.39999389648</ele>
        <time>2021-09-12T10:36:09Z</time>
      </trkpt>
      <trkpt lat="48.40693" lon="-3.91722">
        <ele>292.20001220703</ele>
        <time>2021-09-12T10:36:10Z</time>
      </trkpt>
      <trkpt lat="48.40693" lon="-3.91729">
        <ele>292</ele>
        <time>2021-09-12T10:36:11Z</time>
      </trkpt>
      <trkpt lat="48.40693" lon="-3.91735">
        <ele>292</ele>
        <time>2021-09-12T10:36:12Z</time>
      </trkpt>
      <trkpt lat="48.40693" lon="-3.91742">
        <ele>291.79998779297</ele>
        <time>2021-09-12T10:36:13Z</time>
      </trkpt>
      <trkpt lat="48.40692" lon="-3.91748">
        <ele>291.79998779297</ele>
        <time>2021-09-12T10:36:14Z</time>
      </trkpt>
      <trkpt lat="48.40691" lon="-3.91754">
        <ele>291.39999389648</ele>
        <time>2021-09-12T10:36:15Z</time>
      </trkpt>
      <trkpt lat="48.4069" lon="-3.91759">
        <ele>291.39999389648</ele>
        <time>2021-09-12T10:36:16Z</time>
      </trkpt>
      <trkpt lat="48.4069" lon="-3.91764">
        <ele>291.39999389648</ele>
        <time>2021-09-12T10:36:17Z</time>
      </trkpt>
      <trkpt lat="48.40689" lon="-3.91768">
        <ele>291.39999389648</ele>
        <time>2021-09-12T10:36:18Z</time>
      </trkpt>
      <trkpt lat="48.40688" lon="-3.91773">
        <ele>291.20001220703</ele>
        <time>2021-09-12T10:36:19Z</time>
      </trkpt>
      <trkpt lat="48.40687" lon="-3.91778">
        <ele>290.79998779297</ele>
        <time>2021-09-12T10:36:20Z</time>
      </trkpt>
      <trkpt lat="48.40686" lon="-3.91785">
        <ele>290.60000610352</ele>
        <time>2021-09-12T10:36:21Z</time>
      </trkpt>
      <trkpt lat="48.40686" lon="-3.91791">
        <ele>290.39999389648</ele>
        <time>2021-09-12T10:36:22Z</time>
      </trkpt>
      <trkpt lat="48.40685" lon="-3.91798">
        <ele>290.39999389648</ele>
        <time>2021-09-12T10:36:23Z</time>
      </trkpt>
      <trkpt lat="48.40684" lon="-3.91804">
        <ele>290.39999389648</ele>
        <time>2021-09-12T10:36:24Z</time>
      </trkpt>
      <trkpt lat="48.40683" lon="-3.91811">
        <ele>290.20001220703</ele>
        <time>2021-09-12T10:36:25Z</time>
      </trkpt>
      <trkpt lat="48.40682" lon="-3.91818">
        <ele>289.79998779297</ele>
        <time>2021-09-12T10:36:26Z</time>
      </trkpt>
      <trkpt lat="48.40681" lon="-3.91824">
        <ele>289.79998779297</ele>
        <time>2021-09-12T10:36:27Z</time>
      </trkpt>
      <trkpt lat="48.4068" lon="-3.9183">
        <ele>289.60000610352</ele>
        <time>2021-09-12T10:36:28Z</time>
      </trkpt>
      <trkpt lat="48.40679" lon="-3.91836">
        <ele>289.60000610352</ele>
        <time>2021-09-12T10:36:29Z</time>
      </trkpt>
      <trkpt lat="48.40679" lon="-3.91843">
        <ele>289.60000610352</ele>
        <time>2021-09-12T10:36:30Z</time>
      </trkpt>
      <trkpt lat="48.40679" lon="-3.91848">
        <ele>289.60000610352</ele>
        <time>2021-09-12T10:36:31Z</time>
      </trkpt>
      <trkpt lat="48.40679" lon="-3.91852">
        <ele>289.79998779297</ele>
        <time>2021-09-12T10:36:32Z</time>
      </trkpt>
      <trkpt lat="48.40679" lon="-3.91857">
        <ele>290</ele>
        <time>2021-09-12T10:36:33Z</time>
      </trkpt>
      <trkpt lat="48.40678" lon="-3.91861">
        <ele>290</ele>
        <time>2021-09-12T10:36:34Z</time>
      </trkpt>
      <trkpt lat="48.40677" lon="-3.91867">
        <ele>290</ele>
        <time>2021-09-12T10:36:35Z</time>
      </trkpt>
      <trkpt lat="48.40675" lon="-3.91872">
        <ele>289.79998779297</ele>
        <time>2021-09-12T10:36:36Z</time>
      </trkpt>
      <trkpt lat="48.40674" lon="-3.91878">
        <ele>289.39999389648</ele>
        <time>2021-09-12T10:36:37Z</time>
      </trkpt>
      <trkpt lat="48.40673" lon="-3.91884">
        <ele>289.20001220703</ele>
        <time>2021-09-12T10:36:38Z</time>
      </trkpt>
      <trkpt lat="48.40671" lon="-3.9189">
        <ele>289</ele>
        <time>2021-09-12T10:36:39Z</time>
      </trkpt>
      <trkpt lat="48.40669" lon="-3.91896">
        <ele>289</ele>
        <time>2021-09-12T10:36:40Z</time>
      </trkpt>
      <trkpt lat="48.40667" lon="-3.91902">
        <ele>288.79998779297</ele>
        <time>2021-09-12T10:36:41Z</time>
      </trkpt>
      <trkpt lat="48.40665" lon="-3.91908">
        <ele>288.79998779297</ele>
        <time>2021-09-12T10:36:42Z</time>
      </trkpt>
      <trkpt lat="48.40663" lon="-3.91914">
        <ele>288.39999389648</ele>
        <time>2021-09-12T10:36:43Z</time>
      </trkpt>
      <trkpt lat="48.40661" lon="-3.9192">
        <ele>288.20001220703</ele>
        <time>2021-09-12T10:36:44Z</time>
      </trkpt>
      <trkpt lat="48.40659" lon="-3.91925">
        <ele>288.20001220703</ele>
        <time>2021-09-12T10:36:45Z</time>
      </trkpt>
      <trkpt lat="48.40657" lon="-3.9193">
        <ele>288.20001220703</ele>
        <time>2021-09-12T10:36:46Z</time>
      </trkpt>
      <trkpt lat="48.40655" lon="-3.91936">
        <ele>287.79998779297</ele>
        <time>2021-09-12T10:36:47Z</time>
      </trkpt>
      <trkpt lat="48.40653" lon="-3.91941">
        <ele>287.60000610352</ele>
        <time>2021-09-12T10:36:48Z</time>
      </trkpt>
      <trkpt lat="48.40651" lon="-3.91947">
        <ele>287.60000610352</ele>
        <time>2021-09-12T10:36:49Z</time>
      </trkpt>
      <trkpt lat="48.40648" lon="-3.91953">
        <ele>287.60000610352</ele>
        <time>2021-09-12T10:36:50Z</time>
      </trkpt>
      <trkpt lat="48.40646" lon="-3.91959">
        <ele>287.39999389648</ele>
        <time>2021-09-12T10:36:51Z</time>
      </trkpt>
      <trkpt lat="48.40645" lon="-3.91966">
        <ele>287.20001220703</ele>
        <time>2021-09-12T10:36:52Z</time>
      </trkpt>
      <trkpt lat="48.40643" lon="-3.91973">
        <ele>287</ele>
        <time>2021-09-12T10:36:53Z</time>
      </trkpt>
      <trkpt lat="48.40642" lon="-3.91979">
        <ele>287</ele>
        <time>2021-09-12T10:36:54Z</time>
      </trkpt>
      <trkpt lat="48.4064" lon="-3.91985">
        <ele>286.79998779297</ele>
        <time>2021-09-12T10:36:55Z</time>
      </trkpt>
      <trkpt lat="48.40639" lon="-3.91991">
        <ele>286.79998779297</ele>
        <time>2021-09-12T10:36:56Z</time>
      </trkpt>
      <trkpt lat="48.40638" lon="-3.91997">
        <ele>286.39999389648</ele>
        <time>2021-09-12T10:36:57Z</time>
      </trkpt>
      <trkpt lat="48.40636" lon="-3.92001">
        <ele>286.39999389648</ele>
        <time>2021-09-12T10:36:58Z</time>
      </trkpt>
      <trkpt lat="48.40634" lon="-3.92007">
        <ele>286.20001220703</ele>
        <time>2021-09-12T10:36:59Z</time>
      </trkpt>
      <trkpt lat="48.40631" lon="-3.92013">
        <ele>286.20001220703</ele>
        <time>2021-09-12T10:37:00Z</time>
      </trkpt>
      <trkpt lat="48.40629" lon="-3.9202">
        <ele>285.79998779297</ele>
        <time>2021-09-12T10:37:01Z</time>
      </trkpt>
      <trkpt lat="48.40626" lon="-3.92026">
        <ele>285.79998779297</ele>
        <time>2021-09-12T10:37:02Z</time>
      </trkpt>
      <trkpt lat="48.40625" lon="-3.92031">
        <ele>285.79998779297</ele>
        <time>2021-09-12T10:37:03Z</time>
      </trkpt>
      <trkpt lat="48.40623" lon="-3.92037">
        <ele>285.60000610352</ele>
        <time>2021-09-12T10:37:04Z</time>
      </trkpt>
      <trkpt lat="48.4062" lon="-3.92045">
        <ele>285.60000610352</ele>
        <time>2021-09-12T10:37:05Z</time>
      </trkpt>
      <trkpt lat="48.40619" lon="-3.9205">
        <ele>285.60000610352</ele>
        <time>2021-09-12T10:37:06Z</time>
      </trkpt>
      <trkpt lat="48.40617" lon="-3.92057">
        <ele>285.39999389648</ele>
        <time>2021-09-12T10:37:07Z</time>
      </trkpt>
      <trkpt lat="48.40615" lon="-3.92063">
        <ele>285.20001220703</ele>
        <time>2021-09-12T10:37:08Z</time>
      </trkpt>
      <trkpt lat="48.40614" lon="-3.92069">
        <ele>285.20001220703</ele>
        <time>2021-09-12T10:37:09Z</time>
      </trkpt>
      <trkpt lat="48.40612" lon="-3.92074">
        <ele>284.60000610352</ele>
        <time>2021-09-12T10:37:10Z</time>
      </trkpt>
      <trkpt lat="48.4061" lon="-3.92079">
        <ele>284.60000610352</ele>
        <time>2021-09-12T10:37:11Z</time>
      </trkpt>
      <trkpt lat="48.40607" lon="-3.92085">
        <ele>284.60000610352</ele>
        <time>2021-09-12T10:37:12Z</time>
      </trkpt>
      <trkpt lat="48.40605" lon="-3.92091">
        <ele>284.39999389648</ele>
        <time>2021-09-12T10:37:13Z</time>
      </trkpt>
      <trkpt lat="48.40604" lon="-3.92097">
        <ele>284.20001220703</ele>
        <time>2021-09-12T10:37:14Z</time>
      </trkpt>
      <trkpt lat="48.40602" lon="-3.92105">
        <ele>284.20001220703</ele>
        <time>2021-09-12T10:37:15Z</time>
      </trkpt>
      <trkpt lat="48.40601" lon="-3.92111">
        <ele>284.20001220703</ele>
        <time>2021-09-12T10:37:16Z</time>
      </trkpt>
      <trkpt lat="48.40599" lon="-3.92117">
        <ele>284.20001220703</ele>
        <time>2021-09-12T10:37:17Z</time>
      </trkpt>
      <trkpt lat="48.40597" lon="-3.92121">
        <ele>283.79998779297</ele>
        <time>2021-09-12T10:37:18Z</time>
      </trkpt>
      <trkpt lat="48.40596" lon="-3.92126">
        <ele>283.79998779297</ele>
        <time>2021-09-12T10:37:19Z</time>
      </trkpt>
      <trkpt lat="48.40593" lon="-3.92133">
        <ele>283.79998779297</ele>
        <time>2021-09-12T10:37:20Z</time>
      </trkpt>
      <trkpt lat="48.40592" lon="-3.92139">
        <ele>283.60000610352</ele>
        <time>2021-09-12T10:37:21Z</time>
      </trkpt>
      <trkpt lat="48.4059" lon="-3.92146">
        <ele>283.60000610352</ele>
        <time>2021-09-12T10:37:22Z</time>
      </trkpt>
      <trkpt lat="48.40589" lon="-3.92153">
        <ele>283.60000610352</ele>
        <time>2021-09-12T10:37:23Z</time>
      </trkpt>
      <trkpt lat="48.40588" lon="-3.92159">
        <ele>283.60000610352</ele>
        <time>2021-09-12T10:37:24Z</time>
      </trkpt>
      <trkpt lat="48.40586" lon="-3.92168">
        <ele>283.60000610352</ele>
        <time>2021-09-12T10:37:25Z</time>
      </trkpt>
      <trkpt lat="48.40585" lon="-3.92176">
        <ele>283.39999389648</ele>
        <time>2021-09-12T10:37:26Z</time>
      </trkpt>
      <trkpt lat="48.40583" lon="-3.92185">
        <ele>283</ele>
        <time>2021-09-12T10:37:27Z</time>
      </trkpt>
      <trkpt lat="48.40582" lon="-3.92191">
        <ele>282.39999389648</ele>
        <time>2021-09-12T10:37:28Z</time>
      </trkpt>
      <trkpt lat="48.4058" lon="-3.92199">
        <ele>282.39999389648</ele>
        <time>2021-09-12T10:37:29Z</time>
      </trkpt>
      <trkpt lat="48.40578" lon="-3.92208">
        <ele>282</ele>
        <time>2021-09-12T10:37:30Z</time>
      </trkpt>
      <trkpt lat="48.40576" lon="-3.92216">
        <ele>282</ele>
        <time>2021-09-12T10:37:31Z</time>
      </trkpt>
      <trkpt lat="48.40575" lon="-3.92223">
        <ele>281.79998779297</ele>
        <time>2021-09-12T10:37:32Z</time>
      </trkpt>
      <trkpt lat="48.40573" lon="-3.92229">
        <ele>281.79998779297</ele>
        <time>2021-09-12T10:37:33Z</time>
      </trkpt>
      <trkpt lat="48.40571" lon="-3.92237">
        <ele>281.79998779297</ele>
        <time>2021-09-12T10:37:34Z</time>
      </trkpt>
      <trkpt lat="48.40569" lon="-3.92244">
        <ele>281.60000610352</ele>
        <time>2021-09-12T10:37:35Z</time>
      </trkpt>
      <trkpt lat="48.40568" lon="-3.9225">
        <ele>281.60000610352</ele>
        <time>2021-09-12T10:37:36Z</time>
      </trkpt>
      <trkpt lat="48.40566" lon="-3.92256">
        <ele>281.60000610352</ele>
        <time>2021-09-12T10:37:37Z</time>
      </trkpt>
      <trkpt lat="48.40565" lon="-3.92263">
        <ele>281.60000610352</ele>
        <time>2021-09-12T10:37:38Z</time>
      </trkpt>
      <trkpt lat="48.40563" lon="-3.9227">
        <ele>281.60000610352</ele>
        <time>2021-09-12T10:37:39Z</time>
      </trkpt>
      <trkpt lat="48.40561" lon="-3.92279">
        <ele>281.60000610352</ele>
        <time>2021-09-12T10:37:40Z</time>
      </trkpt>
      <trkpt lat="48.40559" lon="-3.92285">
        <ele>281.60000610352</ele>
        <time>2021-09-12T10:37:41Z</time>
      </trkpt>
      <trkpt lat="48.40557" lon="-3.92292">
        <ele>281.39999389648</ele>
        <time>2021-09-12T10:37:42Z</time>
      </trkpt>
      <trkpt lat="48.40555" lon="-3.92298">
        <ele>281.20001220703</ele>
        <time>2021-09-12T10:37:43Z</time>
      </trkpt>
      <trkpt lat="48.40553" lon="-3.92305">
        <ele>281.20001220703</ele>
        <time>2021-09-12T10:37:44Z</time>
      </trkpt>
      <trkpt lat="48.40551" lon="-3.92313">
        <ele>281.20001220703</ele>
        <time>2021-09-12T10:37:45Z</time>
      </trkpt>
      <trkpt lat="48.40549" lon="-3.9232">
        <ele>281</ele>
        <time>2021-09-12T10:37:46Z</time>
      </trkpt>
      <trkpt lat="48.40548" lon="-3.92326">
        <ele>281</ele>
        <time>2021-09-12T10:37:47Z</time>
      </trkpt>
      <trkpt lat="48.40547" lon="-3.92331">
        <ele>281</ele>
        <time>2021-09-12T10:37:48Z</time>
      </trkpt>
      <trkpt lat="48.40545" lon="-3.92337">
        <ele>281</ele>
        <time>2021-09-12T10:37:49Z</time>
      </trkpt>
      <trkpt lat="48.40543" lon="-3.92343">
        <ele>281</ele>
        <time>2021-09-12T10:37:50Z</time>
      </trkpt>
      <trkpt lat="48.40541" lon="-3.9235">
        <ele>281</ele>
        <time>2021-09-12T10:37:51Z</time>
      </trkpt>
      <trkpt lat="48.40539" lon="-3.92357">
        <ele>280.79998779297</ele>
        <time>2021-09-12T10:37:52Z</time>
      </trkpt>
      <trkpt lat="48.40536" lon="-3.92364">
        <ele>280.79998779297</ele>
        <time>2021-09-12T10:37:53Z</time>
      </trkpt>
      <trkpt lat="48.40534" lon="-3.9237">
        <ele>280.79998779297</ele>
        <time>2021-09-12T10:37:54Z</time>
      </trkpt>
      <trkpt lat="48.40533" lon="-3.92375">
        <ele>280.60000610352</ele>
        <time>2021-09-12T10:37:55Z</time>
      </trkpt>
      <trkpt lat="48.40531" lon="-3.92382">
        <ele>280.60000610352</ele>
        <time>2021-09-12T10:37:56Z</time>
      </trkpt>
      <trkpt lat="48.40528" lon="-3.9239">
        <ele>280.60000610352</ele>
        <time>2021-09-12T10:37:57Z</time>
      </trkpt>
      <trkpt lat="48.40526" lon="-3.92396">
        <ele>280.60000610352</ele>
        <time>2021-09-12T10:37:58Z</time>
      </trkpt>
      <trkpt lat="48.40524" lon="-3.92402">
        <ele>280.60000610352</ele>
        <time>2021-09-12T10:37:59Z</time>
      </trkpt>
      <trkpt lat="48.40523" lon="-3.92407">
        <ele>280.60000610352</ele>
        <time>2021-09-12T10:38:00Z</time>
      </trkpt>
      <trkpt lat="48.4052" lon="-3.92415">
        <ele>280.60000610352</ele>
        <time>2021-09-12T10:38:01Z</time>
      </trkpt>
      <trkpt lat="48.40519" lon="-3.9242">
        <ele>280.60000610352</ele>
        <time>2021-09-12T10:38:02Z</time>
      </trkpt>
      <trkpt lat="48.40518" lon="-3.92425">
        <ele>280.60000610352</ele>
        <time>2021-09-12T10:38:03Z</time>
      </trkpt>
      <trkpt lat="48.40517" lon="-3.92431">
        <ele>280.60000610352</ele>
        <time>2021-09-12T10:38:04Z</time>
      </trkpt>
      <trkpt lat="48.40516" lon="-3.92438">
        <ele>280.39999389648</ele>
        <time>2021-09-12T10:38:05Z</time>
      </trkpt>
      <trkpt lat="48.40514" lon="-3.92444">
        <ele>280.20001220703</ele>
        <time>2021-09-12T10:38:06Z</time>
      </trkpt>
      <trkpt lat="48.40513" lon="-3.9245">
        <ele>280.20001220703</ele>
        <time>2021-09-12T10:38:07Z</time>
      </trkpt>
      <trkpt lat="48.40511" lon="-3.92456">
        <ele>280</ele>
        <time>2021-09-12T10:38:08Z</time>
      </trkpt>
      <trkpt lat="48.40509" lon="-3.92462">
        <ele>280</ele>
        <time>2021-09-12T10:38:09Z</time>
      </trkpt>
      <trkpt lat="48.40507" lon="-3.92468">
        <ele>280</ele>
        <time>2021-09-12T10:38:10Z</time>
      </trkpt>
      <trkpt lat="48.40506" lon="-3.92475">
        <ele>280</ele>
        <time>2021-09-12T10:38:11Z</time>
      </trkpt>
      <trkpt lat="48.40504" lon="-3.92481">
        <ele>280</ele>
        <time>2021-09-12T10:38:12Z</time>
      </trkpt>
      <trkpt lat="48.40502" lon="-3.92488">
        <ele>280</ele>
        <time>2021-09-12T10:38:13Z</time>
      </trkpt>
      <trkpt lat="48.40501" lon="-3.92494">
        <ele>280</ele>
        <time>2021-09-12T10:38:14Z</time>
      </trkpt>
      <trkpt lat="48.40499" lon="-3.925">
        <ele>280</ele>
        <time>2021-09-12T10:38:15Z</time>
      </trkpt>
      <trkpt lat="48.40496" lon="-3.92505">
        <ele>280</ele>
        <time>2021-09-12T10:38:16Z</time>
      </trkpt>
      <trkpt lat="48.40495" lon="-3.92512">
        <ele>280</ele>
        <time>2021-09-12T10:38:17Z</time>
      </trkpt>
      <trkpt lat="48.40493" lon="-3.92516">
        <ele>280</ele>
        <time>2021-09-12T10:38:18Z</time>
      </trkpt>
      <trkpt lat="48.40491" lon="-3.92522">
        <ele>280</ele>
        <time>2021-09-12T10:38:19Z</time>
      </trkpt>
      <trkpt lat="48.40489" lon="-3.92528">
        <ele>280</ele>
        <time>2021-09-12T10:38:20Z</time>
      </trkpt>
      <trkpt lat="48.40487" lon="-3.92534">
        <ele>280</ele>
        <time>2021-09-12T10:38:21Z</time>
      </trkpt>
      <trkpt lat="48.40485" lon="-3.9254">
        <ele>280</ele>
        <time>2021-09-12T10:38:22Z</time>
      </trkpt>
      <trkpt lat="48.40483" lon="-3.92545">
        <ele>279.79998779297</ele>
        <time>2021-09-12T10:38:23Z</time>
      </trkpt>
      <trkpt lat="48.40481" lon="-3.9255">
        <ele>279.39999389648</ele>
        <time>2021-09-12T10:38:24Z</time>
      </trkpt>
      <trkpt lat="48.40479" lon="-3.92556">
        <ele>279.39999389648</ele>
        <time>2021-09-12T10:38:25Z</time>
      </trkpt>
      <trkpt lat="48.40477" lon="-3.92561">
        <ele>279.39999389648</ele>
        <time>2021-09-12T10:38:26Z</time>
      </trkpt>
      <trkpt lat="48.40476" lon="-3.92568">
        <ele>279.20001220703</ele>
        <time>2021-09-12T10:38:27Z</time>
      </trkpt>
      <trkpt lat="48.40475" lon="-3.92573">
        <ele>279.20001220703</ele>
        <time>2021-09-12T10:38:28Z</time>
      </trkpt>
      <trkpt lat="48.40475" lon="-3.92579">
        <ele>279.20001220703</ele>
        <time>2021-09-12T10:38:29Z</time>
      </trkpt>
      <trkpt lat="48.40473" lon="-3.92584">
        <ele>279.20001220703</ele>
        <time>2021-09-12T10:38:30Z</time>
      </trkpt>
      <trkpt lat="48.40471" lon="-3.92591">
        <ele>279.60000610352</ele>
        <time>2021-09-12T10:38:31Z</time>
      </trkpt>
      <trkpt lat="48.40469" lon="-3.92597">
        <ele>279.79998779297</ele>
        <time>2021-09-12T10:38:32Z</time>
      </trkpt>
      <trkpt lat="48.40468" lon="-3.92601">
        <ele>279.79998779297</ele>
        <time>2021-09-12T10:38:33Z</time>
      </trkpt>
      <trkpt lat="48.40466" lon="-3.92606">
        <ele>279.79998779297</ele>
        <time>2021-09-12T10:38:34Z</time>
      </trkpt>
      <trkpt lat="48.40464" lon="-3.92609">
        <ele>279.79998779297</ele>
        <time>2021-09-12T10:38:35Z</time>
      </trkpt>
      <trkpt lat="48.40462" lon="-3.92612">
        <ele>280.20001220703</ele>
        <time>2021-09-12T10:38:36Z</time>
      </trkpt>
      <trkpt lat="48.4046" lon="-3.92615">
        <ele>280.39999389648</ele>
        <time>2021-09-12T10:38:37Z</time>
      </trkpt>
      <trkpt lat="48.4046" lon="-3.92618">
        <ele>280.39999389648</ele>
        <time>2021-09-12T10:38:38Z</time>
      </trkpt>
      <trkpt lat="48.4046" lon="-3.92621">
        <ele>280.60000610352</ele>
        <time>2021-09-12T10:38:39Z</time>
      </trkpt>
      <trkpt lat="48.40459" lon="-3.92624">
        <ele>280.60000610352</ele>
        <time>2021-09-12T10:38:40Z</time>
      </trkpt>
      <trkpt lat="48.40459" lon="-3.92629">
        <ele>280.60000610352</ele>
        <time>2021-09-12T10:38:41Z</time>
      </trkpt>
      <trkpt lat="48.40458" lon="-3.92635">
        <ele>280.60000610352</ele>
        <time>2021-09-12T10:38:42Z</time>
      </trkpt>
      <trkpt lat="48.40456" lon="-3.92642">
        <ele>279.60000610352</ele>
        <time>2021-09-12T10:38:43Z</time>
      </trkpt>
      <trkpt lat="48.40455" lon="-3.9265">
        <ele>279.60000610352</ele>
        <time>2021-09-12T10:38:44Z</time>
      </trkpt>
      <trkpt lat="48.40453" lon="-3.92656">
        <ele>279.39999389648</ele>
        <time>2021-09-12T10:38:45Z</time>
      </trkpt>
      <trkpt lat="48.40451" lon="-3.92662">
        <ele>279</ele>
        <time>2021-09-12T10:38:46Z</time>
      </trkpt>
      <trkpt lat="48.40449" lon="-3.92669">
        <ele>279</ele>
        <time>2021-09-12T10:38:47Z</time>
      </trkpt>
      <trkpt lat="48.40447" lon="-3.92675">
        <ele>278.79998779297</ele>
        <time>2021-09-12T10:38:48Z</time>
      </trkpt>
      <trkpt lat="48.40446" lon="-3.92681">
        <ele>278.79998779297</ele>
        <time>2021-09-12T10:38:49Z</time>
      </trkpt>
      <trkpt lat="48.40444" lon="-3.92687">
        <ele>278.79998779297</ele>
        <time>2021-09-12T10:38:50Z</time>
      </trkpt>
      <trkpt lat="48.40443" lon="-3.92693">
        <ele>278.79998779297</ele>
        <time>2021-09-12T10:38:51Z</time>
      </trkpt>
      <trkpt lat="48.40441" lon="-3.927">
        <ele>278.79998779297</ele>
        <time>2021-09-12T10:38:52Z</time>
      </trkpt>
      <trkpt lat="48.4044" lon="-3.92708">
        <ele>278.79998779297</ele>
        <time>2021-09-12T10:38:53Z</time>
      </trkpt>
      <trkpt lat="48.40439" lon="-3.92715">
        <ele>278.79998779297</ele>
        <time>2021-09-12T10:38:54Z</time>
      </trkpt>
      <trkpt lat="48.40437" lon="-3.92722">
        <ele>278.79998779297</ele>
        <time>2021-09-12T10:38:55Z</time>
      </trkpt>
      <trkpt lat="48.40436" lon="-3.92728">
        <ele>278.60000610352</ele>
        <time>2021-09-12T10:38:56Z</time>
      </trkpt>
      <trkpt lat="48.40435" lon="-3.92735">
        <ele>278.60000610352</ele>
        <time>2021-09-12T10:38:57Z</time>
      </trkpt>
      <trkpt lat="48.40434" lon="-3.92742">
        <ele>278.39999389648</ele>
        <time>2021-09-12T10:38:58Z</time>
      </trkpt>
      <trkpt lat="48.40434" lon="-3.92748">
        <ele>278.39999389648</ele>
        <time>2021-09-12T10:38:59Z</time>
      </trkpt>
      <trkpt lat="48.40434" lon="-3.92755">
        <ele>278.39999389648</ele>
        <time>2021-09-12T10:39:00Z</time>
      </trkpt>
      <trkpt lat="48.40435" lon="-3.92762">
        <ele>278.39999389648</ele>
        <time>2021-09-12T10:39:01Z</time>
      </trkpt>
      <trkpt lat="48.40435" lon="-3.9277">
        <ele>278.20001220703</ele>
        <time>2021-09-12T10:39:02Z</time>
      </trkpt>
      <trkpt lat="48.40435" lon="-3.92776">
        <ele>278.20001220703</ele>
        <time>2021-09-12T10:39:03Z</time>
      </trkpt>
      <trkpt lat="48.40435" lon="-3.92782">
        <ele>278</ele>
        <time>2021-09-12T10:39:04Z</time>
      </trkpt>
      <trkpt lat="48.40434" lon="-3.92788">
        <ele>277.79998779297</ele>
        <time>2021-09-12T10:39:05Z</time>
      </trkpt>
      <trkpt lat="48.40434" lon="-3.92794">
        <ele>277.60000610352</ele>
        <time>2021-09-12T10:39:06Z</time>
      </trkpt>
      <trkpt lat="48.40434" lon="-3.92802">
        <ele>277.60000610352</ele>
        <time>2021-09-12T10:39:07Z</time>
      </trkpt>
      <trkpt lat="48.40435" lon="-3.92807">
        <ele>277.60000610352</ele>
        <time>2021-09-12T10:39:08Z</time>
      </trkpt>
      <trkpt lat="48.40436" lon="-3.92814">
        <ele>277.60000610352</ele>
        <time>2021-09-12T10:39:09Z</time>
      </trkpt>
      <trkpt lat="48.40438" lon="-3.9282">
        <ele>277.60000610352</ele>
        <time>2021-09-12T10:39:10Z</time>
      </trkpt>
      <trkpt lat="48.40439" lon="-3.92827">
        <ele>277.20001220703</ele>
        <time>2021-09-12T10:39:11Z</time>
      </trkpt>
      <trkpt lat="48.4044" lon="-3.92834">
        <ele>277</ele>
        <time>2021-09-12T10:39:12Z</time>
      </trkpt>
      <trkpt lat="48.40439" lon="-3.9284">
        <ele>276.79998779297</ele>
        <time>2021-09-12T10:39:13Z</time>
      </trkpt>
      <trkpt lat="48.40439" lon="-3.92845">
        <ele>276.79998779297</ele>
        <time>2021-09-12T10:39:14Z</time>
      </trkpt>
      <trkpt lat="48.40439" lon="-3.9285">
        <ele>276.79998779297</ele>
        <time>2021-09-12T10:39:15Z</time>
      </trkpt>
      <trkpt lat="48.40438" lon="-3.92855">
        <ele>276.79998779297</ele>
        <time>2021-09-12T10:39:16Z</time>
      </trkpt>
      <trkpt lat="48.40437" lon="-3.92859">
        <ele>276.60000610352</ele>
        <time>2021-09-12T10:39:17Z</time>
      </trkpt>
      <trkpt lat="48.40438" lon="-3.92863">
        <ele>276.60000610352</ele>
        <time>2021-09-12T10:39:18Z</time>
      </trkpt>
      <trkpt lat="48.40439" lon="-3.92867">
        <ele>276.39999389648</ele>
        <time>2021-09-12T10:39:19Z</time>
      </trkpt>
      <trkpt lat="48.40441" lon="-3.92871">
        <ele>276.39999389648</ele>
        <time>2021-09-12T10:39:20Z</time>
      </trkpt>
      <trkpt lat="48.40442" lon="-3.92876">
        <ele>276.39999389648</ele>
        <time>2021-09-12T10:39:21Z</time>
      </trkpt>
      <trkpt lat="48.40442" lon="-3.92881">
        <ele>276.39999389648</ele>
        <time>2021-09-12T10:39:22Z</time>
      </trkpt>
      <trkpt lat="48.40441" lon="-3.92885">
        <ele>276.39999389648</ele>
        <time>2021-09-12T10:39:23Z</time>
      </trkpt>
      <trkpt lat="48.4044" lon="-3.9289">
        <ele>276.20001220703</ele>
        <time>2021-09-12T10:39:24Z</time>
      </trkpt>
      <trkpt lat="48.40441" lon="-3.92896">
        <ele>276</ele>
        <time>2021-09-12T10:39:25Z</time>
      </trkpt>
      <trkpt lat="48.40442" lon="-3.92902">
        <ele>276</ele>
        <time>2021-09-12T10:39:26Z</time>
      </trkpt>
      <trkpt lat="48.40443" lon="-3.92908">
        <ele>276</ele>
        <time>2021-09-12T10:39:27Z</time>
      </trkpt>
      <trkpt lat="48.40445" lon="-3.92914">
        <ele>276</ele>
        <time>2021-09-12T10:39:28Z</time>
      </trkpt>
      <trkpt lat="48.40446" lon="-3.92921">
        <ele>275.60000610352</ele>
        <time>2021-09-12T10:39:29Z</time>
      </trkpt>
      <trkpt lat="48.40448" lon="-3.92928">
        <ele>275.60000610352</ele>
        <time>2021-09-12T10:39:30Z</time>
      </trkpt>
      <trkpt lat="48.40449" lon="-3.92935">
        <ele>275.60000610352</ele>
        <time>2021-09-12T10:39:31Z</time>
      </trkpt>
      <trkpt lat="48.40451" lon="-3.92941">
        <ele>275.60000610352</ele>
        <time>2021-09-12T10:39:32Z</time>
      </trkpt>
      <trkpt lat="48.40453" lon="-3.92948">
        <ele>275.60000610352</ele>
        <time>2021-09-12T10:39:33Z</time>
      </trkpt>
      <trkpt lat="48.40455" lon="-3.92955">
        <ele>275.20001220703</ele>
        <time>2021-09-12T10:39:34Z</time>
      </trkpt>
      <trkpt lat="48.40456" lon="-3.92961">
        <ele>275.20001220703</ele>
        <time>2021-09-12T10:39:35Z</time>
      </trkpt>
      <trkpt lat="48.40458" lon="-3.92967">
        <ele>275.20001220703</ele>
        <time>2021-09-12T10:39:36Z</time>
      </trkpt>
      <trkpt lat="48.4046" lon="-3.92973">
        <ele>275</ele>
        <time>2021-09-12T10:39:37Z</time>
      </trkpt>
      <trkpt lat="48.40462" lon="-3.92979">
        <ele>274.79998779297</ele>
        <time>2021-09-12T10:39:38Z</time>
      </trkpt>
      <trkpt lat="48.40464" lon="-3.92986">
        <ele>274.79998779297</ele>
        <time>2021-09-12T10:39:39Z</time>
      </trkpt>
      <trkpt lat="48.40466" lon="-3.92993">
        <ele>274.79998779297</ele>
        <time>2021-09-12T10:39:40Z</time>
      </trkpt>
      <trkpt lat="48.40467" lon="-3.93">
        <ele>274.60000610352</ele>
        <time>2021-09-12T10:39:41Z</time>
      </trkpt>
      <trkpt lat="48.40469" lon="-3.93007">
        <ele>274.60000610352</ele>
        <time>2021-09-12T10:39:42Z</time>
      </trkpt>
      <trkpt lat="48.4047" lon="-3.93014">
        <ele>274.39999389648</ele>
        <time>2021-09-12T10:39:43Z</time>
      </trkpt>
      <trkpt lat="48.40472" lon="-3.93021">
        <ele>274.20001220703</ele>
        <time>2021-09-12T10:39:44Z</time>
      </trkpt>
      <trkpt lat="48.40473" lon="-3.93027">
        <ele>274</ele>
        <time>2021-09-12T10:39:45Z</time>
      </trkpt>
      <trkpt lat="48.40472" lon="-3.93034">
        <ele>274</ele>
        <time>2021-09-12T10:39:46Z</time>
      </trkpt>
      <trkpt lat="48.4047" lon="-3.93038">
        <ele>274</ele>
        <time>2021-09-12T10:39:47Z</time>
      </trkpt>
      <trkpt lat="48.40467" lon="-3.93039">
        <ele>274</ele>
        <time>2021-09-12T10:39:48Z</time>
      </trkpt>
      <trkpt lat="48.40465" lon="-3.93039">
        <ele>274</ele>
        <time>2021-09-12T10:39:49Z</time>
      </trkpt>
      <trkpt lat="48.40462" lon="-3.93039">
        <ele>274.20001220703</ele>
        <time>2021-09-12T10:39:50Z</time>
      </trkpt>
      <trkpt lat="48.40459" lon="-3.9304">
        <ele>274.39999389648</ele>
        <time>2021-09-12T10:39:51Z</time>
      </trkpt>
      <trkpt lat="48.40455" lon="-3.93041">
        <ele>274.60000610352</ele>
        <time>2021-09-12T10:39:52Z</time>
      </trkpt>
      <trkpt lat="48.40452" lon="-3.93043">
        <ele>274.79998779297</ele>
        <time>2021-09-12T10:39:53Z</time>
      </trkpt>
      <trkpt lat="48.40449" lon="-3.93044">
        <ele>275</ele>
        <time>2021-09-12T10:39:54Z</time>
      </trkpt>
      <trkpt lat="48.40447" lon="-3.93046">
        <ele>275.20001220703</ele>
        <time>2021-09-12T10:39:55Z</time>
      </trkpt>
      <trkpt lat="48.40444" lon="-3.93048">
        <ele>275.79998779297</ele>
        <time>2021-09-12T10:39:56Z</time>
      </trkpt>
      <trkpt lat="48.40442" lon="-3.9305">
        <ele>276.20001220703</ele>
        <time>2021-09-12T10:39:57Z</time>
      </trkpt>
      <trkpt lat="48.40441" lon="-3.93053">
        <ele>276.60000610352</ele>
        <time>2021-09-12T10:39:58Z</time>
      </trkpt>
      <trkpt lat="48.4044" lon="-3.93056">
        <ele>276.60000610352</ele>
        <time>2021-09-12T10:39:59Z</time>
      </trkpt>
      <trkpt lat="48.40438" lon="-3.9306">
        <ele>276.79998779297</ele>
        <time>2021-09-12T10:40:00Z</time>
      </trkpt>
      <trkpt lat="48.40437" lon="-3.93064">
        <ele>276.79998779297</ele>
        <time>2021-09-12T10:40:01Z</time>
      </trkpt>
      <trkpt lat="48.40435" lon="-3.93067">
        <ele>276.79998779297</ele>
        <time>2021-09-12T10:40:02Z</time>
      </trkpt>
      <trkpt lat="48.40433" lon="-3.93069">
        <ele>277</ele>
        <time>2021-09-12T10:40:03Z</time>
      </trkpt>
      <trkpt lat="48.40431" lon="-3.93071">
        <ele>277</ele>
        <time>2021-09-12T10:40:04Z</time>
      </trkpt>
      <trkpt lat="48.40428" lon="-3.93072">
        <ele>277</ele>
        <time>2021-09-12T10:40:05Z</time>
      </trkpt>
      <trkpt lat="48.40426" lon="-3.93073">
        <ele>277.20001220703</ele>
        <time>2021-09-12T10:40:06Z</time>
      </trkpt>
      <trkpt lat="48.40423" lon="-3.93076">
        <ele>277.20001220703</ele>
        <time>2021-09-12T10:40:07Z</time>
      </trkpt>
      <trkpt lat="48.4042" lon="-3.93078">
        <ele>277.60000610352</ele>
        <time>2021-09-12T10:40:08Z</time>
      </trkpt>
      <trkpt lat="48.40418" lon="-3.93081">
        <ele>277.60000610352</ele>
        <time>2021-09-12T10:40:09Z</time>
      </trkpt>
      <trkpt lat="48.40416" lon="-3.93084">
        <ele>278</ele>
        <time>2021-09-12T10:40:10Z</time>
      </trkpt>
      <trkpt lat="48.40415" lon="-3.93087">
        <ele>278</ele>
        <time>2021-09-12T10:40:11Z</time>
      </trkpt>
      <trkpt lat="48.40414" lon="-3.9309">
        <ele>278</ele>
        <time>2021-09-12T10:40:12Z</time>
      </trkpt>
      <trkpt lat="48.40413" lon="-3.93094">
        <ele>278.20001220703</ele>
        <time>2021-09-12T10:40:13Z</time>
      </trkpt>
      <trkpt lat="48.40411" lon="-3.93097">
        <ele>278.20001220703</ele>
        <time>2021-09-12T10:40:14Z</time>
      </trkpt>
      <trkpt lat="48.40409" lon="-3.93098">
        <ele>278.20001220703</ele>
        <time>2021-09-12T10:40:15Z</time>
      </trkpt>
      <trkpt lat="48.40407" lon="-3.93097">
        <ele>278.39999389648</ele>
        <time>2021-09-12T10:40:16Z</time>
      </trkpt>
      <trkpt lat="48.40404" lon="-3.93096">
        <ele>278.39999389648</ele>
        <time>2021-09-12T10:40:17Z</time>
      </trkpt>
      <trkpt lat="48.40401" lon="-3.93095">
        <ele>278.79998779297</ele>
        <time>2021-09-12T10:40:18Z</time>
      </trkpt>
      <trkpt lat="48.40399" lon="-3.93094">
        <ele>279</ele>
        <time>2021-09-12T10:40:19Z</time>
      </trkpt>
      <trkpt lat="48.40396" lon="-3.93093">
        <ele>279.20001220703</ele>
        <time>2021-09-12T10:40:20Z</time>
      </trkpt>
      <trkpt lat="48.40394" lon="-3.93092">
        <ele>279.20001220703</ele>
        <time>2021-09-12T10:40:21Z</time>
      </trkpt>
      <trkpt lat="48.40391" lon="-3.93091">
        <ele>279.39999389648</ele>
        <time>2021-09-12T10:40:22Z</time>
      </trkpt>
      <trkpt lat="48.40389" lon="-3.9309">
        <ele>279.39999389648</ele>
        <time>2021-09-12T10:40:23Z</time>
      </trkpt>
      <trkpt lat="48.40387" lon="-3.93089">
        <ele>279.79998779297</ele>
        <time>2021-09-12T10:40:24Z</time>
      </trkpt>
      <trkpt lat="48.40384" lon="-3.93088">
        <ele>280.20001220703</ele>
        <time>2021-09-12T10:40:25Z</time>
      </trkpt>
      <trkpt lat="48.40382" lon="-3.93087">
        <ele>280.39999389648</ele>
        <time>2021-09-12T10:40:26Z</time>
      </trkpt>
      <trkpt lat="48.4038" lon="-3.93086">
        <ele>280.39999389648</ele>
        <time>2021-09-12T10:40:27Z</time>
      </trkpt>
      <trkpt lat="48.40378" lon="-3.93086">
        <ele>280.79998779297</ele>
        <time>2021-09-12T10:40:28Z</time>
      </trkpt>
      <trkpt lat="48.40376" lon="-3.93085">
        <ele>281</ele>
        <time>2021-09-12T10:40:29Z</time>
      </trkpt>
      <trkpt lat="48.40374" lon="-3.93084">
        <ele>281</ele>
        <time>2021-09-12T10:40:30Z</time>
      </trkpt>
      <trkpt lat="48.40372" lon="-3.93084">
        <ele>281.20001220703</ele>
        <time>2021-09-12T10:40:31Z</time>
      </trkpt>
      <trkpt lat="48.40371" lon="-3.93083">
        <ele>281.39999389648</ele>
        <time>2021-09-12T10:40:32Z</time>
      </trkpt>
      <trkpt lat="48.40369" lon="-3.93082">
        <ele>281.60000610352</ele>
        <time>2021-09-12T10:40:33Z</time>
      </trkpt>
      <trkpt lat="48.40367" lon="-3.93082">
        <ele>281.79998779297</ele>
        <time>2021-09-12T10:40:34Z</time>
      </trkpt>
      <trkpt lat="48.40365" lon="-3.93081">
        <ele>282.20001220703</ele>
        <time>2021-09-12T10:40:35Z</time>
      </trkpt>
      <trkpt lat="48.40364" lon="-3.93081">
        <ele>282.39999389648</ele>
        <time>2021-09-12T10:40:36Z</time>
      </trkpt>
      <trkpt lat="48.40362" lon="-3.9308">
        <ele>282.60000610352</ele>
        <time>2021-09-12T10:40:37Z</time>
      </trkpt>
      <trkpt lat="48.4036" lon="-3.93079">
        <ele>282.60000610352</ele>
        <time>2021-09-12T10:40:38Z</time>
      </trkpt>
      <trkpt lat="48.40358" lon="-3.93078">
        <ele>282.60000610352</ele>
        <time>2021-09-12T10:40:39Z</time>
      </trkpt>
      <trkpt lat="48.40356" lon="-3.93077">
        <ele>282.60000610352</ele>
        <time>2021-09-12T10:40:40Z</time>
      </trkpt>
      <trkpt lat="48.40354" lon="-3.93076">
        <ele>283</ele>
        <time>2021-09-12T10:40:41Z</time>
      </trkpt>
      <trkpt lat="48.40353" lon="-3.93076">
        <ele>283.20001220703</ele>
        <time>2021-09-12T10:40:42Z</time>
      </trkpt>
      <trkpt lat="48.40351" lon="-3.93075">
        <ele>283.39999389648</ele>
        <time>2021-09-12T10:40:43Z</time>
      </trkpt>
      <trkpt lat="48.4035" lon="-3.93074">
        <ele>283.39999389648</ele>
        <time>2021-09-12T10:40:44Z</time>
      </trkpt>
      <trkpt lat="48.40348" lon="-3.93073">
        <ele>283.39999389648</ele>
        <time>2021-09-12T10:40:45Z</time>
      </trkpt>
      <trkpt lat="48.40346" lon="-3.93073">
        <ele>283.79998779297</ele>
        <time>2021-09-12T10:40:46Z</time>
      </trkpt>
      <trkpt lat="48.40344" lon="-3.93073">
        <ele>284</ele>
        <time>2021-09-12T10:40:47Z</time>
      </trkpt>
      <trkpt lat="48.40342" lon="-3.93072">
        <ele>284.39999389648</ele>
        <time>2021-09-12T10:40:48Z</time>
      </trkpt>
      <trkpt lat="48.4034" lon="-3.9307">
        <ele>284.39999389648</ele>
        <time>2021-09-12T10:40:49Z</time>
      </trkpt>
      <trkpt lat="48.40339" lon="-3.9307">
        <ele>284.60000610352</ele>
        <time>2021-09-12T10:40:50Z</time>
      </trkpt>
      <trkpt lat="48.40337" lon="-3.93069">
        <ele>284.60000610352</ele>
        <time>2021-09-12T10:40:51Z</time>
      </trkpt>
      <trkpt lat="48.40334" lon="-3.93068">
        <ele>284.79998779297</ele>
        <time>2021-09-12T10:40:52Z</time>
      </trkpt>
      <trkpt lat="48.40333" lon="-3.93067">
        <ele>285</ele>
        <time>2021-09-12T10:40:53Z</time>
      </trkpt>
      <trkpt lat="48.40331" lon="-3.93067">
        <ele>285.20001220703</ele>
        <time>2021-09-12T10:40:54Z</time>
      </trkpt>
      <trkpt lat="48.40329" lon="-3.93067">
        <ele>285.39999389648</ele>
        <time>2021-09-12T10:40:55Z</time>
      </trkpt>
      <trkpt lat="48.40327" lon="-3.93067">
        <ele>285.60000610352</ele>
        <time>2021-09-12T10:40:56Z</time>
      </trkpt>
      <trkpt lat="48.40325" lon="-3.93066">
        <ele>285.79998779297</ele>
        <time>2021-09-12T10:40:57Z</time>
      </trkpt>
      <trkpt lat="48.40323" lon="-3.93066">
        <ele>285.79998779297</ele>
        <time>2021-09-12T10:40:58Z</time>
      </trkpt>
      <trkpt lat="48.40321" lon="-3.93065">
        <ele>286</ele>
        <time>2021-09-12T10:40:59Z</time>
      </trkpt>
      <trkpt lat="48.4032" lon="-3.93064">
        <ele>286.39999389648</ele>
        <time>2021-09-12T10:41:00Z</time>
      </trkpt>
      <trkpt lat="48.40318" lon="-3.93063">
        <ele>286.60000610352</ele>
        <time>2021-09-12T10:41:01Z</time>
      </trkpt>
      <trkpt lat="48.40316" lon="-3.93063">
        <ele>287</ele>
        <time>2021-09-12T10:41:02Z</time>
      </trkpt>
      <trkpt lat="48.40314" lon="-3.93061">
        <ele>287</ele>
        <time>2021-09-12T10:41:03Z</time>
      </trkpt>
      <trkpt lat="48.40312" lon="-3.93061">
        <ele>287</ele>
        <time>2021-09-12T10:41:04Z</time>
      </trkpt>
      <trkpt lat="48.40311" lon="-3.9306">
        <ele>287.20001220703</ele>
        <time>2021-09-12T10:41:05Z</time>
      </trkpt>
      <trkpt lat="48.40309" lon="-3.9306">
        <ele>287.60000610352</ele>
        <time>2021-09-12T10:41:06Z</time>
      </trkpt>
      <trkpt lat="48.40308" lon="-3.93059">
        <ele>287.79998779297</ele>
        <time>2021-09-12T10:41:07Z</time>
      </trkpt>
      <trkpt lat="48.40306" lon="-3.93059">
        <ele>287.79998779297</ele>
        <time>2021-09-12T10:41:08Z</time>
      </trkpt>
      <trkpt lat="48.40304" lon="-3.93058">
        <ele>288</ele>
        <time>2021-09-12T10:41:09Z</time>
      </trkpt>
      <trkpt lat="48.40302" lon="-3.93058">
        <ele>288.20001220703</ele>
        <time>2021-09-12T10:41:10Z</time>
      </trkpt>
      <trkpt lat="48.403" lon="-3.93057">
        <ele>288.20001220703</ele>
        <time>2021-09-12T10:41:11Z</time>
      </trkpt>
      <trkpt lat="48.40299" lon="-3.93057">
        <ele>288.39999389648</ele>
        <time>2021-09-12T10:41:12Z</time>
      </trkpt>
      <trkpt lat="48.40297" lon="-3.93057">
        <ele>288.60000610352</ele>
        <time>2021-09-12T10:41:13Z</time>
      </trkpt>
      <trkpt lat="48.40295" lon="-3.93056">
        <ele>288.79998779297</ele>
        <time>2021-09-12T10:41:14Z</time>
      </trkpt>
      <trkpt lat="48.40294" lon="-3.93055">
        <ele>289.20001220703</ele>
        <time>2021-09-12T10:41:15Z</time>
      </trkpt>
      <trkpt lat="48.40292" lon="-3.93054">
        <ele>289.20001220703</ele>
        <time>2021-09-12T10:41:16Z</time>
      </trkpt>
      <trkpt lat="48.40291" lon="-3.93054">
        <ele>289.20001220703</ele>
        <time>2021-09-12T10:41:17Z</time>
      </trkpt>
      <trkpt lat="48.40289" lon="-3.93053">
        <ele>289.39999389648</ele>
        <time>2021-09-12T10:41:18Z</time>
      </trkpt>
      <trkpt lat="48.40287" lon="-3.93052">
        <ele>289.39999389648</ele>
        <time>2021-09-12T10:41:19Z</time>
      </trkpt>
      <trkpt lat="48.40285" lon="-3.93051">
        <ele>289.79998779297</ele>
        <time>2021-09-12T10:41:20Z</time>
      </trkpt>
      <trkpt lat="48.40283" lon="-3.9305">
        <ele>289.79998779297</ele>
        <time>2021-09-12T10:41:21Z</time>
      </trkpt>
      <trkpt lat="48.40281" lon="-3.93049">
        <ele>290</ele>
        <time>2021-09-12T10:41:22Z</time>
      </trkpt>
      <trkpt lat="48.4028" lon="-3.93048">
        <ele>290.39999389648</ele>
        <time>2021-09-12T10:41:23Z</time>
      </trkpt>
      <trkpt lat="48.40279" lon="-3.93047">
        <ele>290.60000610352</ele>
        <time>2021-09-12T10:41:24Z</time>
      </trkpt>
      <trkpt lat="48.40277" lon="-3.93046">
        <ele>291</ele>
        <time>2021-09-12T10:41:25Z</time>
      </trkpt>
      <trkpt lat="48.40276" lon="-3.93045">
        <ele>291.20001220703</ele>
        <time>2021-09-12T10:41:26Z</time>
      </trkpt>
      <trkpt lat="48.40275" lon="-3.93045">
        <ele>291.20001220703</ele>
        <time>2021-09-12T10:41:27Z</time>
      </trkpt>
      <trkpt lat="48.40274" lon="-3.93044">
        <ele>291.60000610352</ele>
        <time>2021-09-12T10:41:28Z</time>
      </trkpt>
      <trkpt lat="48.40273" lon="-3.93043">
        <ele>291.60000610352</ele>
        <time>2021-09-12T10:41:29Z</time>
      </trkpt>
      <trkpt lat="48.40271" lon="-3.93041">
        <ele>291.79998779297</ele>
        <time>2021-09-12T10:41:30Z</time>
      </trkpt>
      <trkpt lat="48.40269" lon="-3.9304">
        <ele>292.39999389648</ele>
        <time>2021-09-12T10:41:31Z</time>
      </trkpt>
      <trkpt lat="48.40267" lon="-3.93039">
        <ele>292.39999389648</ele>
        <time>2021-09-12T10:41:32Z</time>
      </trkpt>
      <trkpt lat="48.40266" lon="-3.93038">
        <ele>292.79998779297</ele>
        <time>2021-09-12T10:41:33Z</time>
      </trkpt>
      <trkpt lat="48.40264" lon="-3.93038">
        <ele>292.79998779297</ele>
        <time>2021-09-12T10:41:34Z</time>
      </trkpt>
      <trkpt lat="48.40262" lon="-3.93038">
        <ele>293</ele>
        <time>2021-09-12T10:41:35Z</time>
      </trkpt>
      <trkpt lat="48.4026" lon="-3.93038">
        <ele>293</ele>
        <time>2021-09-12T10:41:36Z</time>
      </trkpt>
      <trkpt lat="48.40258" lon="-3.93038">
        <ele>293.20001220703</ele>
        <time>2021-09-12T10:41:37Z</time>
      </trkpt>
      <trkpt lat="48.40257" lon="-3.93037">
        <ele>293.39999389648</ele>
        <time>2021-09-12T10:41:38Z</time>
      </trkpt>
      <trkpt lat="48.40256" lon="-3.93037">
        <ele>293.60000610352</ele>
        <time>2021-09-12T10:41:39Z</time>
      </trkpt>
      <trkpt lat="48.40254" lon="-3.93036">
        <ele>293.60000610352</ele>
        <time>2021-09-12T10:41:40Z</time>
      </trkpt>
      <trkpt lat="48.40252" lon="-3.93035">
        <ele>294</ele>
        <time>2021-09-12T10:41:41Z</time>
      </trkpt>
      <trkpt lat="48.4025" lon="-3.93035">
        <ele>294.20001220703</ele>
        <time>2021-09-12T10:41:42Z</time>
      </trkpt>
      <trkpt lat="48.40249" lon="-3.93034">
        <ele>294.20001220703</ele>
        <time>2021-09-12T10:41:43Z</time>
      </trkpt>
      <trkpt lat="48.40247" lon="-3.93034">
        <ele>294.39999389648</ele>
        <time>2021-09-12T10:41:44Z</time>
      </trkpt>
      <trkpt lat="48.40246" lon="-3.93033">
        <ele>294.60000610352</ele>
        <time>2021-09-12T10:41:45Z</time>
      </trkpt>
      <trkpt lat="48.40244" lon="-3.93033">
        <ele>294.79998779297</ele>
        <time>2021-09-12T10:41:46Z</time>
      </trkpt>
      <trkpt lat="48.40243" lon="-3.93032">
        <ele>295</ele>
        <time>2021-09-12T10:41:47Z</time>
      </trkpt>
      <trkpt lat="48.40241" lon="-3.93032">
        <ele>295.20001220703</ele>
        <time>2021-09-12T10:41:48Z</time>
      </trkpt>
      <trkpt lat="48.4024" lon="-3.93032">
        <ele>295.39999389648</ele>
        <time>2021-09-12T10:41:49Z</time>
      </trkpt>
      <trkpt lat="48.40238" lon="-3.93031">
        <ele>295.60000610352</ele>
        <time>2021-09-12T10:41:50Z</time>
      </trkpt>
      <trkpt lat="48.40236" lon="-3.93031">
        <ele>295.79998779297</ele>
        <time>2021-09-12T10:41:51Z</time>
      </trkpt>
      <trkpt lat="48.40235" lon="-3.93031">
        <ele>295.79998779297</ele>
        <time>2021-09-12T10:41:52Z</time>
      </trkpt>
      <trkpt lat="48.40234" lon="-3.9303">
        <ele>296.20001220703</ele>
        <time>2021-09-12T10:41:53Z</time>
      </trkpt>
      <trkpt lat="48.40232" lon="-3.9303">
        <ele>296.20001220703</ele>
        <time>2021-09-12T10:41:54Z</time>
      </trkpt>
      <trkpt lat="48.4023" lon="-3.93029">
        <ele>296.39999389648</ele>
        <time>2021-09-12T10:41:55Z</time>
      </trkpt>
      <trkpt lat="48.40228" lon="-3.93029">
        <ele>296.60000610352</ele>
        <time>2021-09-12T10:41:56Z</time>
      </trkpt>
      <trkpt lat="48.40227" lon="-3.93029">
        <ele>296.79998779297</ele>
        <time>2021-09-12T10:41:57Z</time>
      </trkpt>
      <trkpt lat="48.40225" lon="-3.93028">
        <ele>297</ele>
        <time>2021-09-12T10:41:58Z</time>
      </trkpt>
      <trkpt lat="48.40224" lon="-3.93028">
        <ele>297</ele>
        <time>2021-09-12T10:41:59Z</time>
      </trkpt>
      <trkpt lat="48.40221" lon="-3.93027">
        <ele>297.79998779297</ele>
        <time>2021-09-12T10:42:00Z</time>
      </trkpt>
      <trkpt lat="48.40219" lon="-3.93026">
        <ele>298.20001220703</ele>
        <time>2021-09-12T10:42:01Z</time>
      </trkpt>
      <trkpt lat="48.40218" lon="-3.93025">
        <ele>298.20001220703</ele>
        <time>2021-09-12T10:42:02Z</time>
      </trkpt>
      <trkpt lat="48.40216" lon="-3.93025">
        <ele>298.39999389648</ele>
        <time>2021-09-12T10:42:03Z</time>
      </trkpt>
      <trkpt lat="48.40215" lon="-3.93025">
        <ele>298.60000610352</ele>
        <time>2021-09-12T10:42:04Z</time>
      </trkpt>
      <trkpt lat="48.40214" lon="-3.93025">
        <ele>298.79998779297</ele>
        <time>2021-09-12T10:42:05Z</time>
      </trkpt>
      <trkpt lat="48.40213" lon="-3.93024">
        <ele>299</ele>
        <time>2021-09-12T10:42:06Z</time>
      </trkpt>
      <trkpt lat="48.40212" lon="-3.93023">
        <ele>299.20001220703</ele>
        <time>2021-09-12T10:42:07Z</time>
      </trkpt>
      <trkpt lat="48.40211" lon="-3.93021">
        <ele>299.60000610352</ele>
        <time>2021-09-12T10:42:08Z</time>
      </trkpt>
      <trkpt lat="48.40209" lon="-3.93019">
        <ele>300</ele>
        <time>2021-09-12T10:42:09Z</time>
      </trkpt>
      <trkpt lat="48.40208" lon="-3.93017">
        <ele>300</ele>
        <time>2021-09-12T10:42:10Z</time>
      </trkpt>
      <trkpt lat="48.40208" lon="-3.93014">
        <ele>300.20001220703</ele>
        <time>2021-09-12T10:42:11Z</time>
      </trkpt>
      <trkpt lat="48.40208" lon="-3.93011">
        <ele>300.39999389648</ele>
        <time>2021-09-12T10:42:12Z</time>
      </trkpt>
      <trkpt lat="48.40208" lon="-3.93008">
        <ele>300.60000610352</ele>
        <time>2021-09-12T10:42:13Z</time>
      </trkpt>
      <trkpt lat="48.40208" lon="-3.93005">
        <ele>301</ele>
        <time>2021-09-12T10:42:14Z</time>
      </trkpt>
      <trkpt lat="48.40208" lon="-3.93002">
        <ele>301</ele>
        <time>2021-09-12T10:42:15Z</time>
      </trkpt>
      <trkpt lat="48.40208" lon="-3.92999">
        <ele>301</ele>
        <time>2021-09-12T10:42:16Z</time>
      </trkpt>
      <trkpt lat="48.40209" lon="-3.92996">
        <ele>301.39999389648</ele>
        <time>2021-09-12T10:42:17Z</time>
      </trkpt>
      <trkpt lat="48.40209" lon="-3.92993">
        <ele>301.39999389648</ele>
        <time>2021-09-12T10:42:18Z</time>
      </trkpt>
      <trkpt lat="48.40209" lon="-3.92991">
        <ele>301.60000610352</ele>
        <time>2021-09-12T10:42:19Z</time>
      </trkpt>
      <trkpt lat="48.40209" lon="-3.92987">
        <ele>301.60000610352</ele>
        <time>2021-09-12T10:42:20Z</time>
      </trkpt>
      <trkpt lat="48.4021" lon="-3.92984">
        <ele>302</ele>
        <time>2021-09-12T10:42:21Z</time>
      </trkpt>
      <trkpt lat="48.4021" lon="-3.92981">
        <ele>302.20001220703</ele>
        <time>2021-09-12T10:42:22Z</time>
      </trkpt>
      <trkpt lat="48.4021" lon="-3.92979">
        <ele>302.39999389648</ele>
        <time>2021-09-12T10:42:23Z</time>
      </trkpt>
      <trkpt lat="48.4021" lon="-3.92976">
        <ele>302.60000610352</ele>
        <time>2021-09-12T10:42:24Z</time>
      </trkpt>
      <trkpt lat="48.4021" lon="-3.92973">
        <ele>302.60000610352</ele>
        <time>2021-09-12T10:42:25Z</time>
      </trkpt>
      <trkpt lat="48.4021" lon="-3.9297">
        <ele>303</ele>
        <time>2021-09-12T10:42:26Z</time>
      </trkpt>
      <trkpt lat="48.4021" lon="-3.92967">
        <ele>303.20001220703</ele>
        <time>2021-09-12T10:42:27Z</time>
      </trkpt>
      <trkpt lat="48.40211" lon="-3.92964">
        <ele>303.60000610352</ele>
        <time>2021-09-12T10:42:28Z</time>
      </trkpt>
      <trkpt lat="48.40211" lon="-3.92961">
        <ele>303.79998779297</ele>
        <time>2021-09-12T10:42:29Z</time>
      </trkpt>
      <trkpt lat="48.40211" lon="-3.92959">
        <ele>304</ele>
        <time>2021-09-12T10:42:30Z</time>
      </trkpt>
      <trkpt lat="48.40211" lon="-3.92956">
        <ele>304.20001220703</ele>
        <time>2021-09-12T10:42:31Z</time>
      </trkpt>
      <trkpt lat="48.40212" lon="-3.92953">
        <ele>304.39999389648</ele>
        <time>2021-09-12T10:42:32Z</time>
      </trkpt>
      <trkpt lat="48.40212" lon="-3.92951">
        <ele>304.60000610352</ele>
        <time>2021-09-12T10:42:33Z</time>
      </trkpt>
      <trkpt lat="48.40212" lon="-3.92948">
        <ele>304.79998779297</ele>
        <time>2021-09-12T10:42:34Z</time>
      </trkpt>
      <trkpt lat="48.40212" lon="-3.92945">
        <ele>304.79998779297</ele>
        <time>2021-09-12T10:42:35Z</time>
      </trkpt>
      <trkpt lat="48.40212" lon="-3.92943">
        <ele>305.20001220703</ele>
        <time>2021-09-12T10:42:36Z</time>
      </trkpt>
      <trkpt lat="48.40213" lon="-3.9294">
        <ele>305.60000610352</ele>
        <time>2021-09-12T10:42:37Z</time>
      </trkpt>
      <trkpt lat="48.40213" lon="-3.92937">
        <ele>305.79998779297</ele>
        <time>2021-09-12T10:42:38Z</time>
      </trkpt>
      <trkpt lat="48.40213" lon="-3.92934">
        <ele>306.20001220703</ele>
        <time>2021-09-12T10:42:39Z</time>
      </trkpt>
      <trkpt lat="48.40213" lon="-3.92932">
        <ele>306.39999389648</ele>
        <time>2021-09-12T10:42:40Z</time>
      </trkpt>
      <trkpt lat="48.40214" lon="-3.92929">
        <ele>306.60000610352</ele>
        <time>2021-09-12T10:42:41Z</time>
      </trkpt>
      <trkpt lat="48.40214" lon="-3.92927">
        <ele>306.60000610352</ele>
        <time>2021-09-12T10:42:42Z</time>
      </trkpt>
      <trkpt lat="48.40214" lon="-3.92925">
        <ele>307.20001220703</ele>
        <time>2021-09-12T10:42:43Z</time>
      </trkpt>
      <trkpt lat="48.40214" lon="-3.92922">
        <ele>307.20001220703</ele>
        <time>2021-09-12T10:42:44Z</time>
      </trkpt>
      <trkpt lat="48.40214" lon="-3.92919">
        <ele>307.60000610352</ele>
        <time>2021-09-12T10:42:45Z</time>
      </trkpt>
      <trkpt lat="48.40214" lon="-3.92916">
        <ele>308</ele>
        <time>2021-09-12T10:42:46Z</time>
      </trkpt>
      <trkpt lat="48.40214" lon="-3.92913">
        <ele>308</ele>
        <time>2021-09-12T10:42:47Z</time>
      </trkpt>
      <trkpt lat="48.40214" lon="-3.92911">
        <ele>308.60000610352</ele>
        <time>2021-09-12T10:42:48Z</time>
      </trkpt>
      <trkpt lat="48.40214" lon="-3.92909">
        <ele>308.60000610352</ele>
        <time>2021-09-12T10:42:49Z</time>
      </trkpt>
      <trkpt lat="48.40215" lon="-3.92906">
        <ele>308.79998779297</ele>
        <time>2021-09-12T10:42:50Z</time>
      </trkpt>
      <trkpt lat="48.40215" lon="-3.92903">
        <ele>309.20001220703</ele>
        <time>2021-09-12T10:42:51Z</time>
      </trkpt>
      <trkpt lat="48.40215" lon="-3.929">
        <ele>309.39999389648</ele>
        <time>2021-09-12T10:42:52Z</time>
      </trkpt>
      <trkpt lat="48.40215" lon="-3.92898">
        <ele>309.39999389648</ele>
        <time>2021-09-12T10:42:53Z</time>
      </trkpt>
      <trkpt lat="48.40215" lon="-3.92895">
        <ele>309.79998779297</ele>
        <time>2021-09-12T10:42:54Z</time>
      </trkpt>
      <trkpt lat="48.40215" lon="-3.92893">
        <ele>310.20001220703</ele>
        <time>2021-09-12T10:42:55Z</time>
      </trkpt>
      <trkpt lat="48.40216" lon="-3.9289">
        <ele>310.20001220703</ele>
        <time>2021-09-12T10:42:56Z</time>
      </trkpt>
      <trkpt lat="48.40216" lon="-3.92888">
        <ele>310.60000610352</ele>
        <time>2021-09-12T10:42:57Z</time>
      </trkpt>
      <trkpt lat="48.40216" lon="-3.92885">
        <ele>311</ele>
        <time>2021-09-12T10:42:58Z</time>
      </trkpt>
      <trkpt lat="48.40216" lon="-3.92882">
        <ele>311.20001220703</ele>
        <time>2021-09-12T10:42:59Z</time>
      </trkpt>
      <trkpt lat="48.40216" lon="-3.92879">
        <ele>311.39999389648</ele>
        <time>2021-09-12T10:43:00Z</time>
      </trkpt>
      <trkpt lat="48.40216" lon="-3.92877">
        <ele>311.79998779297</ele>
        <time>2021-09-12T10:43:01Z</time>
      </trkpt>
      <trkpt lat="48.40216" lon="-3.92874">
        <ele>311.79998779297</ele>
        <time>2021-09-12T10:43:02Z</time>
      </trkpt>
      <trkpt lat="48.40216" lon="-3.92872">
        <ele>312</ele>
        <time>2021-09-12T10:43:03Z</time>
      </trkpt>
      <trkpt lat="48.40216" lon="-3.9287">
        <ele>312.20001220703</ele>
        <time>2021-09-12T10:43:04Z</time>
      </trkpt>
      <trkpt lat="48.40216" lon="-3.92867">
        <ele>312.60000610352</ele>
        <time>2021-09-12T10:43:05Z</time>
      </trkpt>
      <trkpt lat="48.40216" lon="-3.92864">
        <ele>313</ele>
        <time>2021-09-12T10:43:06Z</time>
      </trkpt>
      <trkpt lat="48.40216" lon="-3.92861">
        <ele>313.20001220703</ele>
        <time>2021-09-12T10:43:07Z</time>
      </trkpt>
      <trkpt lat="48.40216" lon="-3.92859">
        <ele>313.20001220703</ele>
        <time>2021-09-12T10:43:08Z</time>
      </trkpt>
      <trkpt lat="48.40216" lon="-3.92855">
        <ele>313.79998779297</ele>
        <time>2021-09-12T10:43:09Z</time>
      </trkpt>
      <trkpt lat="48.40216" lon="-3.92853">
        <ele>313.79998779297</ele>
        <time>2021-09-12T10:43:10Z</time>
      </trkpt>
      <trkpt lat="48.40216" lon="-3.9285">
        <ele>314</ele>
        <time>2021-09-12T10:43:11Z</time>
      </trkpt>
      <trkpt lat="48.40216" lon="-3.92847">
        <ele>314.39999389648</ele>
        <time>2021-09-12T10:43:12Z</time>
      </trkpt>
      <trkpt lat="48.40216" lon="-3.92845">
        <ele>314.60000610352</ele>
        <time>2021-09-12T10:43:13Z</time>
      </trkpt>
      <trkpt lat="48.40216" lon="-3.92842">
        <ele>314.60000610352</ele>
        <time>2021-09-12T10:43:14Z</time>
      </trkpt>
      <trkpt lat="48.40216" lon="-3.9284">
        <ele>315</ele>
        <time>2021-09-12T10:43:15Z</time>
      </trkpt>
      <trkpt lat="48.40216" lon="-3.92837">
        <ele>315.39999389648</ele>
        <time>2021-09-12T10:43:16Z</time>
      </trkpt>
      <trkpt lat="48.40216" lon="-3.92835">
        <ele>315.60000610352</ele>
        <time>2021-09-12T10:43:17Z</time>
      </trkpt>
      <trkpt lat="48.40216" lon="-3.92832">
        <ele>315.79998779297</ele>
        <time>2021-09-12T10:43:18Z</time>
      </trkpt>
      <trkpt lat="48.40216" lon="-3.9283">
        <ele>316.20001220703</ele>
        <time>2021-09-12T10:43:19Z</time>
      </trkpt>
      <trkpt lat="48.40216" lon="-3.92827">
        <ele>316.20001220703</ele>
        <time>2021-09-12T10:43:20Z</time>
      </trkpt>
      <trkpt lat="48.40216" lon="-3.92825">
        <ele>316.60000610352</ele>
        <time>2021-09-12T10:43:21Z</time>
      </trkpt>
      <trkpt lat="48.40216" lon="-3.92822">
        <ele>316.79998779297</ele>
        <time>2021-09-12T10:43:22Z</time>
      </trkpt>
      <trkpt lat="48.40216" lon="-3.9282">
        <ele>317</ele>
        <time>2021-09-12T10:43:23Z</time>
      </trkpt>
      <trkpt lat="48.40216" lon="-3.92817">
        <ele>317.20001220703</ele>
        <time>2021-09-12T10:43:24Z</time>
      </trkpt>
      <trkpt lat="48.40216" lon="-3.92814">
        <ele>317.39999389648</ele>
        <time>2021-09-12T10:43:25Z</time>
      </trkpt>
      <trkpt lat="48.40215" lon="-3.92811">
        <ele>318</ele>
        <time>2021-09-12T10:43:26Z</time>
      </trkpt>
      <trkpt lat="48.40215" lon="-3.92808">
        <ele>318</ele>
        <time>2021-09-12T10:43:27Z</time>
      </trkpt>
      <trkpt lat="48.40215" lon="-3.92805">
        <ele>318.20001220703</ele>
        <time>2021-09-12T10:43:28Z</time>
      </trkpt>
      <trkpt lat="48.40215" lon="-3.92803">
        <ele>318.20001220703</ele>
        <time>2021-09-12T10:43:29Z</time>
      </trkpt>
      <trkpt lat="48.40215" lon="-3.92801">
        <ele>318.60000610352</ele>
        <time>2021-09-12T10:43:30Z</time>
      </trkpt>
      <trkpt lat="48.40215" lon="-3.92797">
        <ele>318.79998779297</ele>
        <time>2021-09-12T10:43:31Z</time>
      </trkpt>
      <trkpt lat="48.40214" lon="-3.92794">
        <ele>318.79998779297</ele>
        <time>2021-09-12T10:43:32Z</time>
      </trkpt>
      <trkpt lat="48.40214" lon="-3.92791">
        <ele>319.39999389648</ele>
        <time>2021-09-12T10:43:33Z</time>
      </trkpt>
      <trkpt lat="48.40213" lon="-3.92789">
        <ele>319.60000610352</ele>
        <time>2021-09-12T10:43:34Z</time>
      </trkpt>
      <trkpt lat="48.40213" lon="-3.92786">
        <ele>319.60000610352</ele>
        <time>2021-09-12T10:43:35Z</time>
      </trkpt>
      <trkpt lat="48.40213" lon="-3.92783">
        <ele>319.79998779297</ele>
        <time>2021-09-12T10:43:36Z</time>
      </trkpt>
      <trkpt lat="48.40213" lon="-3.92779">
        <ele>320</ele>
        <time>2021-09-12T10:43:37Z</time>
      </trkpt>
      <trkpt lat="48.40213" lon="-3.92776">
        <ele>320.20001220703</ele>
        <time>2021-09-12T10:43:38Z</time>
      </trkpt>
      <trkpt lat="48.40213" lon="-3.92774">
        <ele>320.39999389648</ele>
        <time>2021-09-12T10:43:39Z</time>
      </trkpt>
      <trkpt lat="48.40212" lon="-3.9277">
        <ele>320.60000610352</ele>
        <time>2021-09-12T10:43:40Z</time>
      </trkpt>
      <trkpt lat="48.40212" lon="-3.92767">
        <ele>320.79998779297</ele>
        <time>2021-09-12T10:43:41Z</time>
      </trkpt>
      <trkpt lat="48.40212" lon="-3.92763">
        <ele>320.79998779297</ele>
        <time>2021-09-12T10:43:42Z</time>
      </trkpt>
      <trkpt lat="48.40212" lon="-3.9276">
        <ele>321.20001220703</ele>
        <time>2021-09-12T10:43:43Z</time>
      </trkpt>
      <trkpt lat="48.40212" lon="-3.92757">
        <ele>321.39999389648</ele>
        <time>2021-09-12T10:43:44Z</time>
      </trkpt>
      <trkpt lat="48.40211" lon="-3.92753">
        <ele>321.60000610352</ele>
        <time>2021-09-12T10:43:45Z</time>
      </trkpt>
      <trkpt lat="48.40212" lon="-3.92749">
        <ele>321.60000610352</ele>
        <time>2021-09-12T10:43:46Z</time>
      </trkpt>
      <trkpt lat="48.40212" lon="-3.92746">
        <ele>322</ele>
        <time>2021-09-12T10:43:47Z</time>
      </trkpt>
      <trkpt lat="48.40212" lon="-3.92743">
        <ele>322</ele>
        <time>2021-09-12T10:43:48Z</time>
      </trkpt>
      <trkpt lat="48.40212" lon="-3.92739">
        <ele>322.20001220703</ele>
        <time>2021-09-12T10:43:49Z</time>
      </trkpt>
      <trkpt lat="48.40212" lon="-3.92736">
        <ele>322.39999389648</ele>
        <time>2021-09-12T10:43:50Z</time>
      </trkpt>
      <trkpt lat="48.40212" lon="-3.92732">
        <ele>322.39999389648</ele>
        <time>2021-09-12T10:43:51Z</time>
      </trkpt>
      <trkpt lat="48.40212" lon="-3.92729">
        <ele>322.39999389648</ele>
        <time>2021-09-12T10:43:52Z</time>
      </trkpt>
      <trkpt lat="48.40213" lon="-3.92725">
        <ele>322.60000610352</ele>
        <time>2021-09-12T10:43:53Z</time>
      </trkpt>
      <trkpt lat="48.40213" lon="-3.92721">
        <ele>322.79998779297</ele>
        <time>2021-09-12T10:43:54Z</time>
      </trkpt>
      <trkpt lat="48.40213" lon="-3.92718">
        <ele>323</ele>
        <time>2021-09-12T10:43:55Z</time>
      </trkpt>
      <trkpt lat="48.40213" lon="-3.92715">
        <ele>323.20001220703</ele>
        <time>2021-09-12T10:43:56Z</time>
      </trkpt>
      <trkpt lat="48.40213" lon="-3.92711">
        <ele>323.20001220703</ele>
        <time>2021-09-12T10:43:57Z</time>
      </trkpt>
      <trkpt lat="48.40214" lon="-3.92708">
        <ele>323.39999389648</ele>
        <time>2021-09-12T10:43:58Z</time>
      </trkpt>
      <trkpt lat="48.40214" lon="-3.92704">
        <ele>323.60000610352</ele>
        <time>2021-09-12T10:43:59Z</time>
      </trkpt>
      <trkpt lat="48.40214" lon="-3.927">
        <ele>323.60000610352</ele>
        <time>2021-09-12T10:44:00Z</time>
      </trkpt>
      <trkpt lat="48.40214" lon="-3.92697">
        <ele>324</ele>
        <time>2021-09-12T10:44:01Z</time>
      </trkpt>
      <trkpt lat="48.40214" lon="-3.92693">
        <ele>324.20001220703</ele>
        <time>2021-09-12T10:44:02Z</time>
      </trkpt>
      <trkpt lat="48.40215" lon="-3.92689">
        <ele>324.20001220703</ele>
        <time>2021-09-12T10:44:03Z</time>
      </trkpt>
      <trkpt lat="48.40215" lon="-3.92686">
        <ele>324.20001220703</ele>
        <time>2021-09-12T10:44:04Z</time>
      </trkpt>
      <trkpt lat="48.40215" lon="-3.92681">
        <ele>324.39999389648</ele>
        <time>2021-09-12T10:44:05Z</time>
      </trkpt>
      <trkpt lat="48.40215" lon="-3.92677">
        <ele>324.39999389648</ele>
        <time>2021-09-12T10:44:06Z</time>
      </trkpt>
      <trkpt lat="48.40215" lon="-3.92673">
        <ele>324.60000610352</ele>
        <time>2021-09-12T10:44:07Z</time>
      </trkpt>
      <trkpt lat="48.40215" lon="-3.92669">
        <ele>324.60000610352</ele>
        <time>2021-09-12T10:44:08Z</time>
      </trkpt>
      <trkpt lat="48.40215" lon="-3.92665">
        <ele>325</ele>
        <time>2021-09-12T10:44:09Z</time>
      </trkpt>
      <trkpt lat="48.40215" lon="-3.92661">
        <ele>325.20001220703</ele>
        <time>2021-09-12T10:44:10Z</time>
      </trkpt>
      <trkpt lat="48.40214" lon="-3.92657">
        <ele>325.39999389648</ele>
        <time>2021-09-12T10:44:11Z</time>
      </trkpt>
      <trkpt lat="48.40214" lon="-3.92653">
        <ele>325.60000610352</ele>
        <time>2021-09-12T10:44:12Z</time>
      </trkpt>
      <trkpt lat="48.40214" lon="-3.92649">
        <ele>325.60000610352</ele>
        <time>2021-09-12T10:44:13Z</time>
      </trkpt>
      <trkpt lat="48.40214" lon="-3.92649">
        <ele>325.79998779297</ele>
        <time>2021-09-12T10:44:14Z</time>
      </trkpt>
      <trkpt lat="48.40214" lon="-3.92642">
        <ele>326</ele>
        <time>2021-09-12T10:44:15Z</time>
      </trkpt>
      <trkpt lat="48.40215" lon="-3.92638">
        <ele>326</ele>
        <time>2021-09-12T10:44:16Z</time>
      </trkpt>
      <trkpt lat="48.40215" lon="-3.92634">
        <ele>326</ele>
        <time>2021-09-12T10:44:17Z</time>
      </trkpt>
      <trkpt lat="48.40215" lon="-3.92629">
        <ele>326.20001220703</ele>
        <time>2021-09-12T10:44:18Z</time>
      </trkpt>
      <trkpt lat="48.40215" lon="-3.92625">
        <ele>326.39999389648</ele>
        <time>2021-09-12T10:44:19Z</time>
      </trkpt>
      <trkpt lat="48.40215" lon="-3.92621">
        <ele>326.60000610352</ele>
        <time>2021-09-12T10:44:20Z</time>
      </trkpt>
      <trkpt lat="48.40215" lon="-3.92617">
        <ele>327</ele>
        <time>2021-09-12T10:44:21Z</time>
      </trkpt>
      <trkpt lat="48.40215" lon="-3.92613">
        <ele>327</ele>
        <time>2021-09-12T10:44:22Z</time>
      </trkpt>
      <trkpt lat="48.40215" lon="-3.92609">
        <ele>327</ele>
        <time>2021-09-12T10:44:23Z</time>
      </trkpt>
      <trkpt lat="48.40215" lon="-3.92605">
        <ele>327.20001220703</ele>
        <time>2021-09-12T10:44:24Z</time>
      </trkpt>
      <trkpt lat="48.40215" lon="-3.92601">
        <ele>327.20001220703</ele>
        <time>2021-09-12T10:44:25Z</time>
      </trkpt>
      <trkpt lat="48.40215" lon="-3.92597">
        <ele>327.60000610352</ele>
        <time>2021-09-12T10:44:26Z</time>
      </trkpt>
      <trkpt lat="48.40215" lon="-3.92593">
        <ele>327.79998779297</ele>
        <time>2021-09-12T10:44:27Z</time>
      </trkpt>
      <trkpt lat="48.40215" lon="-3.92588">
        <ele>328</ele>
        <time>2021-09-12T10:44:28Z</time>
      </trkpt>
      <trkpt lat="48.40215" lon="-3.92585">
        <ele>328</ele>
        <time>2021-09-12T10:44:29Z</time>
      </trkpt>
      <trkpt lat="48.40215" lon="-3.9258">
        <ele>328.20001220703</ele>
        <time>2021-09-12T10:44:30Z</time>
      </trkpt>
      <trkpt lat="48.40215" lon="-3.92576">
        <ele>328.39999389648</ele>
        <time>2021-09-12T10:44:31Z</time>
      </trkpt>
      <trkpt lat="48.40215" lon="-3.92572">
        <ele>328.39999389648</ele>
        <time>2021-09-12T10:44:32Z</time>
      </trkpt>
      <trkpt lat="48.40215" lon="-3.92568">
        <ele>328.60000610352</ele>
        <time>2021-09-12T10:44:33Z</time>
      </trkpt>
      <trkpt lat="48.40215" lon="-3.92564">
        <ele>328.60000610352</ele>
        <time>2021-09-12T10:44:34Z</time>
      </trkpt>
      <trkpt lat="48.40215" lon="-3.9256">
        <ele>328.79998779297</ele>
        <time>2021-09-12T10:44:35Z</time>
      </trkpt>
      <trkpt lat="48.40215" lon="-3.92556">
        <ele>328.79998779297</ele>
        <time>2021-09-12T10:44:36Z</time>
      </trkpt>
      <trkpt lat="48.40215" lon="-3.92552">
        <ele>328.79998779297</ele>
        <time>2021-09-12T10:44:37Z</time>
      </trkpt>
      <trkpt lat="48.40215" lon="-3.92548">
        <ele>329</ele>
        <time>2021-09-12T10:44:38Z</time>
      </trkpt>
      <trkpt lat="48.40215" lon="-3.92543">
        <ele>329.20001220703</ele>
        <time>2021-09-12T10:44:39Z</time>
      </trkpt>
      <trkpt lat="48.40215" lon="-3.92539">
        <ele>329.39999389648</ele>
        <time>2021-09-12T10:44:40Z</time>
      </trkpt>
      <trkpt lat="48.40215" lon="-3.92535">
        <ele>329.39999389648</ele>
        <time>2021-09-12T10:44:41Z</time>
      </trkpt>
      <trkpt lat="48.40216" lon="-3.9253">
        <ele>329.60000610352</ele>
        <time>2021-09-12T10:44:42Z</time>
      </trkpt>
      <trkpt lat="48.40216" lon="-3.92526">
        <ele>329.79998779297</ele>
        <time>2021-09-12T10:44:43Z</time>
      </trkpt>
      <trkpt lat="48.40216" lon="-3.92522">
        <ele>329.79998779297</ele>
        <time>2021-09-12T10:44:44Z</time>
      </trkpt>
      <trkpt lat="48.40216" lon="-3.92517">
        <ele>330</ele>
        <time>2021-09-12T10:44:45Z</time>
      </trkpt>
      <trkpt lat="48.40216" lon="-3.92513">
        <ele>330</ele>
        <time>2021-09-12T10:44:46Z</time>
      </trkpt>
      <trkpt lat="48.40216" lon="-3.92509">
        <ele>330.39999389648</ele>
        <time>2021-09-12T10:44:47Z</time>
      </trkpt>
      <trkpt lat="48.40216" lon="-3.92504">
        <ele>330.60000610352</ele>
        <time>2021-09-12T10:44:48Z</time>
      </trkpt>
      <trkpt lat="48.40217" lon="-3.92499">
        <ele>330.60000610352</ele>
        <time>2021-09-12T10:44:49Z</time>
      </trkpt>
      <trkpt lat="48.40217" lon="-3.92494">
        <ele>330.79998779297</ele>
        <time>2021-09-12T10:44:50Z</time>
      </trkpt>
      <trkpt lat="48.40217" lon="-3.9249">
        <ele>330.79998779297</ele>
        <time>2021-09-12T10:44:51Z</time>
      </trkpt>
      <trkpt lat="48.40218" lon="-3.92485">
        <ele>331</ele>
        <time>2021-09-12T10:44:52Z</time>
      </trkpt>
      <trkpt lat="48.40218" lon="-3.9248">
        <ele>331</ele>
        <time>2021-09-12T10:44:53Z</time>
      </trkpt>
      <trkpt lat="48.40219" lon="-3.92475">
        <ele>331.20001220703</ele>
        <time>2021-09-12T10:44:54Z</time>
      </trkpt>
      <trkpt lat="48.40219" lon="-3.92471">
        <ele>331.39999389648</ele>
        <time>2021-09-12T10:44:55Z</time>
      </trkpt>
      <trkpt lat="48.40219" lon="-3.92466">
        <ele>331.60000610352</ele>
        <time>2021-09-12T10:44:56Z</time>
      </trkpt>
      <trkpt lat="48.40219" lon="-3.92461">
        <ele>331.79998779297</ele>
        <time>2021-09-12T10:44:57Z</time>
      </trkpt>
      <trkpt lat="48.40219" lon="-3.92456">
        <ele>332</ele>
        <time>2021-09-12T10:44:58Z</time>
      </trkpt>
      <trkpt lat="48.40219" lon="-3.92452">
        <ele>332.20001220703</ele>
        <time>2021-09-12T10:44:59Z</time>
      </trkpt>
      <trkpt lat="48.4022" lon="-3.92447">
        <ele>332.60000610352</ele>
        <time>2021-09-12T10:45:00Z</time>
      </trkpt>
      <trkpt lat="48.4022" lon="-3.92443">
        <ele>332.79998779297</ele>
        <time>2021-09-12T10:45:01Z</time>
      </trkpt>
      <trkpt lat="48.40221" lon="-3.92438">
        <ele>332.79998779297</ele>
        <time>2021-09-12T10:45:02Z</time>
      </trkpt>
      <trkpt lat="48.40221" lon="-3.92433">
        <ele>333.20001220703</ele>
        <time>2021-09-12T10:45:03Z</time>
      </trkpt>
      <trkpt lat="48.40221" lon="-3.92428">
        <ele>333.39999389648</ele>
        <time>2021-09-12T10:45:04Z</time>
      </trkpt>
      <trkpt lat="48.40222" lon="-3.92425">
        <ele>333.39999389648</ele>
        <time>2021-09-12T10:45:05Z</time>
      </trkpt>
      <trkpt lat="48.40222" lon="-3.9242">
        <ele>333.39999389648</ele>
        <time>2021-09-12T10:45:06Z</time>
      </trkpt>
      <trkpt lat="48.40223" lon="-3.92415">
        <ele>334</ele>
        <time>2021-09-12T10:45:07Z</time>
      </trkpt>
      <trkpt lat="48.40224" lon="-3.9241">
        <ele>334.20001220703</ele>
        <time>2021-09-12T10:45:08Z</time>
      </trkpt>
      <trkpt lat="48.40225" lon="-3.92405">
        <ele>334.20001220703</ele>
        <time>2021-09-12T10:45:09Z</time>
      </trkpt>
      <trkpt lat="48.40225" lon="-3.92401">
        <ele>334.39999389648</ele>
        <time>2021-09-12T10:45:10Z</time>
      </trkpt>
      <trkpt lat="48.40226" lon="-3.92396">
        <ele>334.39999389648</ele>
        <time>2021-09-12T10:45:11Z</time>
      </trkpt>
      <trkpt lat="48.40226" lon="-3.92392">
        <ele>334.60000610352</ele>
        <time>2021-09-12T10:45:12Z</time>
      </trkpt>
      <trkpt lat="48.40227" lon="-3.92386">
        <ele>334.79998779297</ele>
        <time>2021-09-12T10:45:13Z</time>
      </trkpt>
      <trkpt lat="48.40227" lon="-3.92382">
        <ele>334.79998779297</ele>
        <time>2021-09-12T10:45:14Z</time>
      </trkpt>
      <trkpt lat="48.40227" lon="-3.92378">
        <ele>334.79998779297</ele>
        <time>2021-09-12T10:45:15Z</time>
      </trkpt>
      <trkpt lat="48.40228" lon="-3.92374">
        <ele>335.20001220703</ele>
        <time>2021-09-12T10:45:16Z</time>
      </trkpt>
      <trkpt lat="48.40229" lon="-3.9237">
        <ele>335.20001220703</ele>
        <time>2021-09-12T10:45:17Z</time>
      </trkpt>
      <trkpt lat="48.4023" lon="-3.92364">
        <ele>335.39999389648</ele>
        <time>2021-09-12T10:45:18Z</time>
      </trkpt>
      <trkpt lat="48.4023" lon="-3.9236">
        <ele>335.79998779297</ele>
        <time>2021-09-12T10:45:19Z</time>
      </trkpt>
      <trkpt lat="48.4023" lon="-3.92355">
        <ele>335.79998779297</ele>
        <time>2021-09-12T10:45:20Z</time>
      </trkpt>
      <trkpt lat="48.4023" lon="-3.92351">
        <ele>336.20001220703</ele>
        <time>2021-09-12T10:45:21Z</time>
      </trkpt>
      <trkpt lat="48.40231" lon="-3.92347">
        <ele>336.20001220703</ele>
        <time>2021-09-12T10:45:22Z</time>
      </trkpt>
      <trkpt lat="48.40231" lon="-3.92342">
        <ele>336.39999389648</ele>
        <time>2021-09-12T10:45:23Z</time>
      </trkpt>
      <trkpt lat="48.40232" lon="-3.92338">
        <ele>336.39999389648</ele>
        <time>2021-09-12T10:45:24Z</time>
      </trkpt>
      <trkpt lat="48.40232" lon="-3.92333">
        <ele>336.60000610352</ele>
        <time>2021-09-12T10:45:25Z</time>
      </trkpt>
      <trkpt lat="48.40232" lon="-3.9233">
        <ele>336.79998779297</ele>
        <time>2021-09-12T10:45:26Z</time>
      </trkpt>
      <trkpt lat="48.40232" lon="-3.92325">
        <ele>336.79998779297</ele>
        <time>2021-09-12T10:45:27Z</time>
      </trkpt>
      <trkpt lat="48.40232" lon="-3.92319">
        <ele>336.79998779297</ele>
        <time>2021-09-12T10:45:28Z</time>
      </trkpt>
      <trkpt lat="48.40233" lon="-3.92315">
        <ele>337</ele>
        <time>2021-09-12T10:45:29Z</time>
      </trkpt>
      <trkpt lat="48.40233" lon="-3.92311">
        <ele>337.20001220703</ele>
        <time>2021-09-12T10:45:30Z</time>
      </trkpt>
      <trkpt lat="48.40234" lon="-3.92307">
        <ele>337.20001220703</ele>
        <time>2021-09-12T10:45:31Z</time>
      </trkpt>
      <trkpt lat="48.40234" lon="-3.92303">
        <ele>337.39999389648</ele>
        <time>2021-09-12T10:45:32Z</time>
      </trkpt>
      <trkpt lat="48.40235" lon="-3.92297">
        <ele>337.39999389648</ele>
        <time>2021-09-12T10:45:33Z</time>
      </trkpt>
      <trkpt lat="48.40235" lon="-3.92293">
        <ele>337.39999389648</ele>
        <time>2021-09-12T10:45:34Z</time>
      </trkpt>
      <trkpt lat="48.40235" lon="-3.92289">
        <ele>337.60000610352</ele>
        <time>2021-09-12T10:45:35Z</time>
      </trkpt>
      <trkpt lat="48.40235" lon="-3.92287">
        <ele>337.60000610352</ele>
        <time>2021-09-12T10:45:36Z</time>
      </trkpt>
      <trkpt lat="48.40234" lon="-3.92284">
        <ele>337.79998779297</ele>
        <time>2021-09-12T10:45:37Z</time>
      </trkpt>
      <trkpt lat="48.40233" lon="-3.92281">
        <ele>338</ele>
        <time>2021-09-12T10:45:38Z</time>
      </trkpt>
      <trkpt lat="48.40231" lon="-3.9228">
        <ele>338</ele>
        <time>2021-09-12T10:45:39Z</time>
      </trkpt>
      <trkpt lat="48.40229" lon="-3.92279">
        <ele>338</ele>
        <time>2021-09-12T10:45:40Z</time>
      </trkpt>
      <trkpt lat="48.40227" lon="-3.92277">
        <ele>338</ele>
        <time>2021-09-12T10:45:41Z</time>
      </trkpt>
      <trkpt lat="48.40226" lon="-3.92275">
        <ele>338</ele>
        <time>2021-09-12T10:45:42Z</time>
      </trkpt>
      <trkpt lat="48.40225" lon="-3.92273">
        <ele>338.20001220703</ele>
        <time>2021-09-12T10:45:43Z</time>
      </trkpt>
      <trkpt lat="48.40223" lon="-3.92271">
        <ele>338.20001220703</ele>
        <time>2021-09-12T10:45:44Z</time>
      </trkpt>
      <trkpt lat="48.40222" lon="-3.92269">
        <ele>338.39999389648</ele>
        <time>2021-09-12T10:45:45Z</time>
      </trkpt>
      <trkpt lat="48.4022" lon="-3.92266">
        <ele>338.39999389648</ele>
        <time>2021-09-12T10:45:46Z</time>
      </trkpt>
      <trkpt lat="48.40218" lon="-3.92264">
        <ele>338.39999389648</ele>
        <time>2021-09-12T10:45:47Z</time>
      </trkpt>
      <trkpt lat="48.40217" lon="-3.92261">
        <ele>338.60000610352</ele>
        <time>2021-09-12T10:45:48Z</time>
      </trkpt>
      <trkpt lat="48.40215" lon="-3.92259">
        <ele>338.60000610352</ele>
        <time>2021-09-12T10:45:49Z</time>
      </trkpt>
      <trkpt lat="48.40212" lon="-3.92255">
        <ele>338.79998779297</ele>
        <time>2021-09-12T10:45:50Z</time>
      </trkpt>
      <trkpt lat="48.40211" lon="-3.92252">
        <ele>339</ele>
        <time>2021-09-12T10:45:51Z</time>
      </trkpt>
      <trkpt lat="48.40209" lon="-3.92248">
        <ele>339</ele>
        <time>2021-09-12T10:45:52Z</time>
      </trkpt>
      <trkpt lat="48.40207" lon="-3.92244">
        <ele>339</ele>
        <time>2021-09-12T10:45:53Z</time>
      </trkpt>
      <trkpt lat="48.40205" lon="-3.92241">
        <ele>339</ele>
        <time>2021-09-12T10:45:54Z</time>
      </trkpt>
      <trkpt lat="48.40203" lon="-3.92237">
        <ele>339.39999389648</ele>
        <time>2021-09-12T10:45:55Z</time>
      </trkpt>
      <trkpt lat="48.40201" lon="-3.92236">
        <ele>339.60000610352</ele>
        <time>2021-09-12T10:45:56Z</time>
      </trkpt>
      <trkpt lat="48.40199" lon="-3.92235">
        <ele>339.79998779297</ele>
        <time>2021-09-12T10:45:57Z</time>
      </trkpt>
      <trkpt lat="48.40196" lon="-3.92235">
        <ele>340</ele>
        <time>2021-09-12T10:45:58Z</time>
      </trkpt>
      <trkpt lat="48.40193" lon="-3.92237">
        <ele>340</ele>
        <time>2021-09-12T10:45:59Z</time>
      </trkpt>
      <trkpt lat="48.4019" lon="-3.9224">
        <ele>340</ele>
        <time>2021-09-12T10:46:00Z</time>
      </trkpt>
      <trkpt lat="48.40188" lon="-3.92242">
        <ele>340</ele>
        <time>2021-09-12T10:46:01Z</time>
      </trkpt>
      <trkpt lat="48.40186" lon="-3.92245">
        <ele>340.20001220703</ele>
        <time>2021-09-12T10:46:02Z</time>
      </trkpt>
      <trkpt lat="48.40184" lon="-3.92248">
        <ele>340.20001220703</ele>
        <time>2021-09-12T10:46:03Z</time>
      </trkpt>
      <trkpt lat="48.40183" lon="-3.9225">
        <ele>340.20001220703</ele>
        <time>2021-09-12T10:46:04Z</time>
      </trkpt>
      <trkpt lat="48.4018" lon="-3.92254">
        <ele>340.20001220703</ele>
        <time>2021-09-12T10:46:05Z</time>
      </trkpt>
      <trkpt lat="48.40178" lon="-3.92258">
        <ele>340.20001220703</ele>
        <time>2021-09-12T10:46:06Z</time>
      </trkpt>
      <trkpt lat="48.40176" lon="-3.92261">
        <ele>340.20001220703</ele>
        <time>2021-09-12T10:46:07Z</time>
      </trkpt>
      <trkpt lat="48.40173" lon="-3.92265">
        <ele>340</ele>
        <time>2021-09-12T10:46:08Z</time>
      </trkpt>
      <trkpt lat="48.40171" lon="-3.92269">
        <ele>340</ele>
        <time>2021-09-12T10:46:09Z</time>
      </trkpt>
      <trkpt lat="48.40169" lon="-3.92272">
        <ele>340</ele>
        <time>2021-09-12T10:46:10Z</time>
      </trkpt>
      <trkpt lat="48.40167" lon="-3.92275">
        <ele>340</ele>
        <time>2021-09-12T10:46:11Z</time>
      </trkpt>
      <trkpt lat="48.40165" lon="-3.92278">
        <ele>340</ele>
        <time>2021-09-12T10:46:12Z</time>
      </trkpt>
      <trkpt lat="48.40162" lon="-3.92282">
        <ele>340</ele>
        <time>2021-09-12T10:46:13Z</time>
      </trkpt>
      <trkpt lat="48.4016" lon="-3.92286">
        <ele>340</ele>
        <time>2021-09-12T10:46:14Z</time>
      </trkpt>
      <trkpt lat="48.40157" lon="-3.9229">
        <ele>340.20001220703</ele>
        <time>2021-09-12T10:46:15Z</time>
      </trkpt>
      <trkpt lat="48.40155" lon="-3.92294">
        <ele>340.20001220703</ele>
        <time>2021-09-12T10:46:16Z</time>
      </trkpt>
      <trkpt lat="48.40152" lon="-3.923">
        <ele>340.20001220703</ele>
        <time>2021-09-12T10:46:17Z</time>
      </trkpt>
      <trkpt lat="48.40149" lon="-3.92305">
        <ele>340.20001220703</ele>
        <time>2021-09-12T10:46:18Z</time>
      </trkpt>
      <trkpt lat="48.40146" lon="-3.92311">
        <ele>340.20001220703</ele>
        <time>2021-09-12T10:46:19Z</time>
      </trkpt>
      <trkpt lat="48.40143" lon="-3.92317">
        <ele>340.20001220703</ele>
        <time>2021-09-12T10:46:20Z</time>
      </trkpt>
      <trkpt lat="48.40141" lon="-3.92321">
        <ele>340.20001220703</ele>
        <time>2021-09-12T10:46:21Z</time>
      </trkpt>
      <trkpt lat="48.40139" lon="-3.92326">
        <ele>340.20001220703</ele>
        <time>2021-09-12T10:46:22Z</time>
      </trkpt>
      <trkpt lat="48.40136" lon="-3.92332">
        <ele>340.20001220703</ele>
        <time>2021-09-12T10:46:23Z</time>
      </trkpt>
      <trkpt lat="48.40134" lon="-3.92337">
        <ele>340.20001220703</ele>
        <time>2021-09-12T10:46:24Z</time>
      </trkpt>
      <trkpt lat="48.40132" lon="-3.92342">
        <ele>340</ele>
        <time>2021-09-12T10:46:25Z</time>
      </trkpt>
      <trkpt lat="48.4013" lon="-3.92347">
        <ele>340</ele>
        <time>2021-09-12T10:46:26Z</time>
      </trkpt>
      <trkpt lat="48.40128" lon="-3.92352">
        <ele>339.79998779297</ele>
        <time>2021-09-12T10:46:27Z</time>
      </trkpt>
      <trkpt lat="48.40126" lon="-3.92358">
        <ele>339.79998779297</ele>
        <time>2021-09-12T10:46:28Z</time>
      </trkpt>
      <trkpt lat="48.40124" lon="-3.92364">
        <ele>339.79998779297</ele>
        <time>2021-09-12T10:46:29Z</time>
      </trkpt>
      <trkpt lat="48.40123" lon="-3.9237">
        <ele>339.60000610352</ele>
        <time>2021-09-12T10:46:30Z</time>
      </trkpt>
      <trkpt lat="48.40121" lon="-3.92377">
        <ele>339.39999389648</ele>
        <time>2021-09-12T10:46:31Z</time>
      </trkpt>
      <trkpt lat="48.4012" lon="-3.92383">
        <ele>339.39999389648</ele>
        <time>2021-09-12T10:46:32Z</time>
      </trkpt>
      <trkpt lat="48.40118" lon="-3.92389">
        <ele>339.39999389648</ele>
        <time>2021-09-12T10:46:33Z</time>
      </trkpt>
      <trkpt lat="48.40115" lon="-3.92394">
        <ele>339.39999389648</ele>
        <time>2021-09-12T10:46:34Z</time>
      </trkpt>
      <trkpt lat="48.40113" lon="-3.92402">
        <ele>339.20001220703</ele>
        <time>2021-09-12T10:46:35Z</time>
      </trkpt>
      <trkpt lat="48.4011" lon="-3.92407">
        <ele>339.20001220703</ele>
        <time>2021-09-12T10:46:36Z</time>
      </trkpt>
      <trkpt lat="48.40109" lon="-3.92412">
        <ele>339.20001220703</ele>
        <time>2021-09-12T10:46:37Z</time>
      </trkpt>
      <trkpt lat="48.40107" lon="-3.92417">
        <ele>339</ele>
        <time>2021-09-12T10:46:38Z</time>
      </trkpt>
      <trkpt lat="48.40104" lon="-3.92423">
        <ele>338.79998779297</ele>
        <time>2021-09-12T10:46:39Z</time>
      </trkpt>
      <trkpt lat="48.40103" lon="-3.92427">
        <ele>338.79998779297</ele>
        <time>2021-09-12T10:46:40Z</time>
      </trkpt>
      <trkpt lat="48.401" lon="-3.92433">
        <ele>338.60000610352</ele>
        <time>2021-09-12T10:46:41Z</time>
      </trkpt>
      <trkpt lat="48.40098" lon="-3.92438">
        <ele>338.60000610352</ele>
        <time>2021-09-12T10:46:42Z</time>
      </trkpt>
      <trkpt lat="48.40095" lon="-3.92443">
        <ele>338.60000610352</ele>
        <time>2021-09-12T10:46:43Z</time>
      </trkpt>
      <trkpt lat="48.40093" lon="-3.92449">
        <ele>338.60000610352</ele>
        <time>2021-09-12T10:46:44Z</time>
      </trkpt>
      <trkpt lat="48.40091" lon="-3.92454">
        <ele>338.60000610352</ele>
        <time>2021-09-12T10:46:45Z</time>
      </trkpt>
      <trkpt lat="48.40089" lon="-3.92461">
        <ele>338.39999389648</ele>
        <time>2021-09-12T10:46:46Z</time>
      </trkpt>
      <trkpt lat="48.40087" lon="-3.92465">
        <ele>338.39999389648</ele>
        <time>2021-09-12T10:46:47Z</time>
      </trkpt>
      <trkpt lat="48.40086" lon="-3.92471">
        <ele>338.39999389648</ele>
        <time>2021-09-12T10:46:48Z</time>
      </trkpt>
      <trkpt lat="48.40085" lon="-3.92476">
        <ele>338.39999389648</ele>
        <time>2021-09-12T10:46:49Z</time>
      </trkpt>
      <trkpt lat="48.40083" lon="-3.92481">
        <ele>338.39999389648</ele>
        <time>2021-09-12T10:46:50Z</time>
      </trkpt>
      <trkpt lat="48.40081" lon="-3.92486">
        <ele>338.39999389648</ele>
        <time>2021-09-12T10:46:51Z</time>
      </trkpt>
      <trkpt lat="48.40079" lon="-3.92489">
        <ele>338.39999389648</ele>
        <time>2021-09-12T10:46:52Z</time>
      </trkpt>
      <trkpt lat="48.40079" lon="-3.92493">
        <ele>338.20001220703</ele>
        <time>2021-09-12T10:46:53Z</time>
      </trkpt>
      <trkpt lat="48.40078" lon="-3.92497">
        <ele>338.20001220703</ele>
        <time>2021-09-12T10:46:54Z</time>
      </trkpt>
      <trkpt lat="48.40076" lon="-3.92501">
        <ele>338.20001220703</ele>
        <time>2021-09-12T10:46:55Z</time>
      </trkpt>
      <trkpt lat="48.40074" lon="-3.92506">
        <ele>338.20001220703</ele>
        <time>2021-09-12T10:46:56Z</time>
      </trkpt>
      <trkpt lat="48.40073" lon="-3.92511">
        <ele>338.20001220703</ele>
        <time>2021-09-12T10:46:57Z</time>
      </trkpt>
      <trkpt lat="48.40071" lon="-3.92515">
        <ele>338.20001220703</ele>
        <time>2021-09-12T10:46:58Z</time>
      </trkpt>
      <trkpt lat="48.40068" lon="-3.9252">
        <ele>338.20001220703</ele>
        <time>2021-09-12T10:46:59Z</time>
      </trkpt>
      <trkpt lat="48.40065" lon="-3.92525">
        <ele>338.39999389648</ele>
        <time>2021-09-12T10:47:00Z</time>
      </trkpt>
      <trkpt lat="48.40063" lon="-3.92531">
        <ele>338.39999389648</ele>
        <time>2021-09-12T10:47:01Z</time>
      </trkpt>
      <trkpt lat="48.40061" lon="-3.92536">
        <ele>338.39999389648</ele>
        <time>2021-09-12T10:47:02Z</time>
      </trkpt>
      <trkpt lat="48.40059" lon="-3.92541">
        <ele>338.39999389648</ele>
        <time>2021-09-12T10:47:03Z</time>
      </trkpt>
      <trkpt lat="48.40057" lon="-3.92547">
        <ele>338.60000610352</ele>
        <time>2021-09-12T10:47:04Z</time>
      </trkpt>
      <trkpt lat="48.40054" lon="-3.92553">
        <ele>338.60000610352</ele>
        <time>2021-09-12T10:47:05Z</time>
      </trkpt>
      <trkpt lat="48.40053" lon="-3.92558">
        <ele>338.60000610352</ele>
        <time>2021-09-12T10:47:06Z</time>
      </trkpt>
      <trkpt lat="48.40051" lon="-3.92564">
        <ele>338.79998779297</ele>
        <time>2021-09-12T10:47:07Z</time>
      </trkpt>
      <trkpt lat="48.4005" lon="-3.92569">
        <ele>338.79998779297</ele>
        <time>2021-09-12T10:47:08Z</time>
      </trkpt>
      <trkpt lat="48.40048" lon="-3.92575">
        <ele>338.79998779297</ele>
        <time>2021-09-12T10:47:09Z</time>
      </trkpt>
      <trkpt lat="48.40046" lon="-3.9258">
        <ele>338.79998779297</ele>
        <time>2021-09-12T10:47:10Z</time>
      </trkpt>
      <trkpt lat="48.40044" lon="-3.92586">
        <ele>338.79998779297</ele>
        <time>2021-09-12T10:47:11Z</time>
      </trkpt>
      <trkpt lat="48.40042" lon="-3.92591">
        <ele>338.79998779297</ele>
        <time>2021-09-12T10:47:12Z</time>
      </trkpt>
      <trkpt lat="48.40041" lon="-3.92597">
        <ele>338.79998779297</ele>
        <time>2021-09-12T10:47:13Z</time>
      </trkpt>
      <trkpt lat="48.40039" lon="-3.92602">
        <ele>338.79998779297</ele>
        <time>2021-09-12T10:47:14Z</time>
      </trkpt>
      <trkpt lat="48.40038" lon="-3.92607">
        <ele>339</ele>
        <time>2021-09-12T10:47:15Z</time>
      </trkpt>
      <trkpt lat="48.40035" lon="-3.92612">
        <ele>339</ele>
        <time>2021-09-12T10:47:16Z</time>
      </trkpt>
      <trkpt lat="48.40033" lon="-3.92616">
        <ele>338.79998779297</ele>
        <time>2021-09-12T10:47:17Z</time>
      </trkpt>
      <trkpt lat="48.40031" lon="-3.92621">
        <ele>339</ele>
        <time>2021-09-12T10:47:18Z</time>
      </trkpt>
      <trkpt lat="48.40029" lon="-3.92625">
        <ele>339</ele>
        <time>2021-09-12T10:47:19Z</time>
      </trkpt>
      <trkpt lat="48.40028" lon="-3.9263">
        <ele>339</ele>
        <time>2021-09-12T10:47:20Z</time>
      </trkpt>
      <trkpt lat="48.40026" lon="-3.92635">
        <ele>339</ele>
        <time>2021-09-12T10:47:21Z</time>
      </trkpt>
      <trkpt lat="48.40024" lon="-3.92641">
        <ele>339</ele>
        <time>2021-09-12T10:47:22Z</time>
      </trkpt>
      <trkpt lat="48.40023" lon="-3.92646">
        <ele>339</ele>
        <time>2021-09-12T10:47:23Z</time>
      </trkpt>
      <trkpt lat="48.40021" lon="-3.92652">
        <ele>339.39999389648</ele>
        <time>2021-09-12T10:47:24Z</time>
      </trkpt>
      <trkpt lat="48.4002" lon="-3.92657">
        <ele>339.39999389648</ele>
        <time>2021-09-12T10:47:25Z</time>
      </trkpt>
      <trkpt lat="48.40019" lon="-3.92662">
        <ele>339.39999389648</ele>
        <time>2021-09-12T10:47:26Z</time>
      </trkpt>
      <trkpt lat="48.40018" lon="-3.92667">
        <ele>339.39999389648</ele>
        <time>2021-09-12T10:47:27Z</time>
      </trkpt>
      <trkpt lat="48.40017" lon="-3.92673">
        <ele>339.39999389648</ele>
        <time>2021-09-12T10:47:28Z</time>
      </trkpt>
      <trkpt lat="48.40015" lon="-3.92679">
        <ele>339.39999389648</ele>
        <time>2021-09-12T10:47:29Z</time>
      </trkpt>
      <trkpt lat="48.40015" lon="-3.92685">
        <ele>339.39999389648</ele>
        <time>2021-09-12T10:47:30Z</time>
      </trkpt>
      <trkpt lat="48.40014" lon="-3.9269">
        <ele>339.60000610352</ele>
        <time>2021-09-12T10:47:31Z</time>
      </trkpt>
      <trkpt lat="48.40013" lon="-3.92696">
        <ele>339.79998779297</ele>
        <time>2021-09-12T10:47:32Z</time>
      </trkpt>
      <trkpt lat="48.40012" lon="-3.92701">
        <ele>339.79998779297</ele>
        <time>2021-09-12T10:47:33Z</time>
      </trkpt>
      <trkpt lat="48.40011" lon="-3.92707">
        <ele>339.79998779297</ele>
        <time>2021-09-12T10:47:34Z</time>
      </trkpt>
      <trkpt lat="48.40009" lon="-3.92712">
        <ele>339.79998779297</ele>
        <time>2021-09-12T10:47:35Z</time>
      </trkpt>
      <trkpt lat="48.40007" lon="-3.92718">
        <ele>339.79998779297</ele>
        <time>2021-09-12T10:47:36Z</time>
      </trkpt>
      <trkpt lat="48.40004" lon="-3.92723">
        <ele>340</ele>
        <time>2021-09-12T10:47:37Z</time>
      </trkpt>
      <trkpt lat="48.40002" lon="-3.92728">
        <ele>340</ele>
        <time>2021-09-12T10:47:38Z</time>
      </trkpt>
      <trkpt lat="48.39999" lon="-3.92733">
        <ele>340</ele>
        <time>2021-09-12T10:47:39Z</time>
      </trkpt>
      <trkpt lat="48.39997" lon="-3.92738">
        <ele>340.20001220703</ele>
        <time>2021-09-12T10:47:40Z</time>
      </trkpt>
      <trkpt lat="48.39995" lon="-3.92742">
        <ele>340.20001220703</ele>
        <time>2021-09-12T10:47:41Z</time>
      </trkpt>
      <trkpt lat="48.39993" lon="-3.92747">
        <ele>340.20001220703</ele>
        <time>2021-09-12T10:47:42Z</time>
      </trkpt>
      <trkpt lat="48.39991" lon="-3.92752">
        <ele>340.20001220703</ele>
        <time>2021-09-12T10:47:43Z</time>
      </trkpt>
      <trkpt lat="48.39989" lon="-3.92757">
        <ele>340.39999389648</ele>
        <time>2021-09-12T10:47:44Z</time>
      </trkpt>
      <trkpt lat="48.39987" lon="-3.92762">
        <ele>340.60000610352</ele>
        <time>2021-09-12T10:47:45Z</time>
      </trkpt>
      <trkpt lat="48.39986" lon="-3.92767">
        <ele>340.60000610352</ele>
        <time>2021-09-12T10:47:46Z</time>
      </trkpt>
      <trkpt lat="48.39984" lon="-3.92772">
        <ele>340.60000610352</ele>
        <time>2021-09-12T10:47:47Z</time>
      </trkpt>
      <trkpt lat="48.39982" lon="-3.92778">
        <ele>340.60000610352</ele>
        <time>2021-09-12T10:47:48Z</time>
      </trkpt>
      <trkpt lat="48.39981" lon="-3.92783">
        <ele>340.79998779297</ele>
        <time>2021-09-12T10:47:49Z</time>
      </trkpt>
      <trkpt lat="48.39979" lon="-3.92788">
        <ele>340.79998779297</ele>
        <time>2021-09-12T10:47:50Z</time>
      </trkpt>
      <trkpt lat="48.39977" lon="-3.92794">
        <ele>340.79998779297</ele>
        <time>2021-09-12T10:47:51Z</time>
      </trkpt>
      <trkpt lat="48.39975" lon="-3.928">
        <ele>341</ele>
        <time>2021-09-12T10:47:52Z</time>
      </trkpt>
      <trkpt lat="48.39973" lon="-3.92805">
        <ele>341.20001220703</ele>
        <time>2021-09-12T10:47:53Z</time>
      </trkpt>
      <trkpt lat="48.39971" lon="-3.9281">
        <ele>341</ele>
        <time>2021-09-12T10:47:54Z</time>
      </trkpt>
      <trkpt lat="48.39969" lon="-3.92815">
        <ele>341.20001220703</ele>
        <time>2021-09-12T10:47:55Z</time>
      </trkpt>
      <trkpt lat="48.39967" lon="-3.9282">
        <ele>341.20001220703</ele>
        <time>2021-09-12T10:47:56Z</time>
      </trkpt>
      <trkpt lat="48.39965" lon="-3.92824">
        <ele>341.39999389648</ele>
        <time>2021-09-12T10:47:57Z</time>
      </trkpt>
      <trkpt lat="48.39964" lon="-3.92829">
        <ele>341.60000610352</ele>
        <time>2021-09-12T10:47:58Z</time>
      </trkpt>
      <trkpt lat="48.39962" lon="-3.92834">
        <ele>341.79998779297</ele>
        <time>2021-09-12T10:47:59Z</time>
      </trkpt>
      <trkpt lat="48.3996" lon="-3.92838">
        <ele>341.79998779297</ele>
        <time>2021-09-12T10:48:00Z</time>
      </trkpt>
      <trkpt lat="48.39958" lon="-3.92843">
        <ele>342</ele>
        <time>2021-09-12T10:48:01Z</time>
      </trkpt>
      <trkpt lat="48.39955" lon="-3.92848">
        <ele>342</ele>
        <time>2021-09-12T10:48:02Z</time>
      </trkpt>
      <trkpt lat="48.39953" lon="-3.92853">
        <ele>342.20001220703</ele>
        <time>2021-09-12T10:48:03Z</time>
      </trkpt>
      <trkpt lat="48.39951" lon="-3.92857">
        <ele>342.39999389648</ele>
        <time>2021-09-12T10:48:04Z</time>
      </trkpt>
      <trkpt lat="48.3995" lon="-3.92862">
        <ele>342.39999389648</ele>
        <time>2021-09-12T10:48:05Z</time>
      </trkpt>
      <trkpt lat="48.39948" lon="-3.92867">
        <ele>342.39999389648</ele>
        <time>2021-09-12T10:48:06Z</time>
      </trkpt>
      <trkpt lat="48.39946" lon="-3.92872">
        <ele>342.60000610352</ele>
        <time>2021-09-12T10:48:07Z</time>
      </trkpt>
      <trkpt lat="48.39944" lon="-3.92878">
        <ele>342.60000610352</ele>
        <time>2021-09-12T10:48:08Z</time>
      </trkpt>
      <trkpt lat="48.39942" lon="-3.92883">
        <ele>342.60000610352</ele>
        <time>2021-09-12T10:48:09Z</time>
      </trkpt>
      <trkpt lat="48.3994" lon="-3.92888">
        <ele>342.60000610352</ele>
        <time>2021-09-12T10:48:10Z</time>
      </trkpt>
      <trkpt lat="48.39937" lon="-3.92893">
        <ele>342.79998779297</ele>
        <time>2021-09-12T10:48:11Z</time>
      </trkpt>
      <trkpt lat="48.39936" lon="-3.92897">
        <ele>342.79998779297</ele>
        <time>2021-09-12T10:48:12Z</time>
      </trkpt>
      <trkpt lat="48.39934" lon="-3.92901">
        <ele>343</ele>
        <time>2021-09-12T10:48:13Z</time>
      </trkpt>
      <trkpt lat="48.39933" lon="-3.92905">
        <ele>343</ele>
        <time>2021-09-12T10:48:14Z</time>
      </trkpt>
      <trkpt lat="48.39932" lon="-3.92909">
        <ele>343.20001220703</ele>
        <time>2021-09-12T10:48:15Z</time>
      </trkpt>
      <trkpt lat="48.3993" lon="-3.92913">
        <ele>343.20001220703</ele>
        <time>2021-09-12T10:48:16Z</time>
      </trkpt>
      <trkpt lat="48.39929" lon="-3.92916">
        <ele>343.20001220703</ele>
        <time>2021-09-12T10:48:17Z</time>
      </trkpt>
      <trkpt lat="48.39928" lon="-3.92919">
        <ele>343.20001220703</ele>
        <time>2021-09-12T10:48:18Z</time>
      </trkpt>
      <trkpt lat="48.39927" lon="-3.92922">
        <ele>343.20001220703</ele>
        <time>2021-09-12T10:48:19Z</time>
      </trkpt>
      <trkpt lat="48.39925" lon="-3.92925">
        <ele>343.20001220703</ele>
        <time>2021-09-12T10:48:20Z</time>
      </trkpt>
      <trkpt lat="48.39924" lon="-3.92929">
        <ele>343.20001220703</ele>
        <time>2021-09-12T10:48:21Z</time>
      </trkpt>
      <trkpt lat="48.39923" lon="-3.92933">
        <ele>343.20001220703</ele>
        <time>2021-09-12T10:48:22Z</time>
      </trkpt>
      <trkpt lat="48.39922" lon="-3.92938">
        <ele>343.20001220703</ele>
        <time>2021-09-12T10:48:23Z</time>
      </trkpt>
      <trkpt lat="48.39921" lon="-3.92942">
        <ele>343.60000610352</ele>
        <time>2021-09-12T10:48:24Z</time>
      </trkpt>
      <trkpt lat="48.3992" lon="-3.92946">
        <ele>343.60000610352</ele>
        <time>2021-09-12T10:48:25Z</time>
      </trkpt>
      <trkpt lat="48.39919" lon="-3.9295">
        <ele>343.60000610352</ele>
        <time>2021-09-12T10:48:26Z</time>
      </trkpt>
      <trkpt lat="48.39918" lon="-3.92954">
        <ele>343.79998779297</ele>
        <time>2021-09-12T10:48:27Z</time>
      </trkpt>
      <trkpt lat="48.39917" lon="-3.92957">
        <ele>343.60000610352</ele>
        <time>2021-09-12T10:48:28Z</time>
      </trkpt>
      <trkpt lat="48.39916" lon="-3.92959">
        <ele>343.79998779297</ele>
        <time>2021-09-12T10:48:29Z</time>
      </trkpt>
      <trkpt lat="48.39915" lon="-3.92961">
        <ele>343.79998779297</ele>
        <time>2021-09-12T10:48:30Z</time>
      </trkpt>
      <trkpt lat="48.39915" lon="-3.92962">
        <ele>343.79998779297</ele>
        <time>2021-09-12T10:48:31Z</time>
      </trkpt>
      <trkpt lat="48.39915" lon="-3.92962">
        <ele>343.79998779297</ele>
        <time>2021-09-12T10:48:32Z</time>
      </trkpt>
      <trkpt lat="48.39915" lon="-3.92962">
        <ele>343.60000610352</ele>
        <time>2021-09-12T10:48:33Z</time>
      </trkpt>
      <trkpt lat="48.39915" lon="-3.92962">
        <ele>343.60000610352</ele>
        <time>2021-09-12T10:48:34Z</time>
      </trkpt>
      <trkpt lat="48.39914" lon="-3.92965">
        <ele>343.79998779297</ele>
        <time>2021-09-12T10:48:59Z</time>
      </trkpt>
      <trkpt lat="48.39913" lon="-3.92968">
        <ele>344</ele>
        <time>2021-09-12T10:49:00Z</time>
      </trkpt>
      <trkpt lat="48.39912" lon="-3.92971">
        <ele>344</ele>
        <time>2021-09-12T10:49:01Z</time>
      </trkpt>
      <trkpt lat="48.39911" lon="-3.92974">
        <ele>344</ele>
        <time>2021-09-12T10:49:02Z</time>
      </trkpt>
      <trkpt lat="48.3991" lon="-3.92977">
        <ele>344</ele>
        <time>2021-09-12T10:49:03Z</time>
      </trkpt>
      <trkpt lat="48.39908" lon="-3.92981">
        <ele>344</ele>
        <time>2021-09-12T10:49:04Z</time>
      </trkpt>
      <trkpt lat="48.39907" lon="-3.92985">
        <ele>344</ele>
        <time>2021-09-12T10:49:05Z</time>
      </trkpt>
      <trkpt lat="48.39906" lon="-3.9299">
        <ele>344.20001220703</ele>
        <time>2021-09-12T10:49:06Z</time>
      </trkpt>
      <trkpt lat="48.39905" lon="-3.92994">
        <ele>344.20001220703</ele>
        <time>2021-09-12T10:49:07Z</time>
      </trkpt>
      <trkpt lat="48.39904" lon="-3.92997">
        <ele>344.39999389648</ele>
        <time>2021-09-12T10:49:08Z</time>
      </trkpt>
      <trkpt lat="48.39903" lon="-3.93">
        <ele>344.39999389648</ele>
        <time>2021-09-12T10:49:09Z</time>
      </trkpt>
      <trkpt lat="48.39901" lon="-3.93003">
        <ele>344.60000610352</ele>
        <time>2021-09-12T10:49:10Z</time>
      </trkpt>
      <trkpt lat="48.399" lon="-3.93006">
        <ele>344.60000610352</ele>
        <time>2021-09-12T10:49:11Z</time>
      </trkpt>
      <trkpt lat="48.39899" lon="-3.9301">
        <ele>344.79998779297</ele>
        <time>2021-09-12T10:49:12Z</time>
      </trkpt>
      <trkpt lat="48.39898" lon="-3.93012">
        <ele>345</ele>
        <time>2021-09-12T10:49:13Z</time>
      </trkpt>
      <trkpt lat="48.39896" lon="-3.93015">
        <ele>345</ele>
        <time>2021-09-12T10:49:14Z</time>
      </trkpt>
      <trkpt lat="48.39895" lon="-3.93017">
        <ele>345</ele>
        <time>2021-09-12T10:49:15Z</time>
      </trkpt>
      <trkpt lat="48.39893" lon="-3.93018">
        <ele>345.39999389648</ele>
        <time>2021-09-12T10:49:16Z</time>
      </trkpt>
      <trkpt lat="48.39891" lon="-3.93019">
        <ele>345.60000610352</ele>
        <time>2021-09-12T10:49:17Z</time>
      </trkpt>
      <trkpt lat="48.3989" lon="-3.93021">
        <ele>345.79998779297</ele>
        <time>2021-09-12T10:49:18Z</time>
      </trkpt>
      <trkpt lat="48.39889" lon="-3.93022">
        <ele>345.79998779297</ele>
        <time>2021-09-12T10:49:19Z</time>
      </trkpt>
      <trkpt lat="48.39887" lon="-3.93022">
        <ele>345.79998779297</ele>
        <time>2021-09-12T10:49:20Z</time>
      </trkpt>
      <trkpt lat="48.39885" lon="-3.93024">
        <ele>346</ele>
        <time>2021-09-12T10:49:21Z</time>
      </trkpt>
      <trkpt lat="48.39883" lon="-3.93025">
        <ele>346.20001220703</ele>
        <time>2021-09-12T10:49:22Z</time>
      </trkpt>
      <trkpt lat="48.39881" lon="-3.93027">
        <ele>346.20001220703</ele>
        <time>2021-09-12T10:49:23Z</time>
      </trkpt>
      <trkpt lat="48.39879" lon="-3.93029">
        <ele>346.39999389648</ele>
        <time>2021-09-12T10:49:24Z</time>
      </trkpt>
      <trkpt lat="48.39877" lon="-3.93031">
        <ele>346.60000610352</ele>
        <time>2021-09-12T10:49:25Z</time>
      </trkpt>
      <trkpt lat="48.39875" lon="-3.93033">
        <ele>347</ele>
        <time>2021-09-12T10:49:26Z</time>
      </trkpt>
      <trkpt lat="48.39873" lon="-3.93037">
        <ele>347</ele>
        <time>2021-09-12T10:49:27Z</time>
      </trkpt>
      <trkpt lat="48.39871" lon="-3.93039">
        <ele>347.39999389648</ele>
        <time>2021-09-12T10:49:28Z</time>
      </trkpt>
      <trkpt lat="48.39869" lon="-3.93042">
        <ele>347.39999389648</ele>
        <time>2021-09-12T10:49:29Z</time>
      </trkpt>
      <trkpt lat="48.39867" lon="-3.93044">
        <ele>347.79998779297</ele>
        <time>2021-09-12T10:49:30Z</time>
      </trkpt>
      <trkpt lat="48.39865" lon="-3.93048">
        <ele>348</ele>
        <time>2021-09-12T10:49:31Z</time>
      </trkpt>
      <trkpt lat="48.39863" lon="-3.9305">
        <ele>348</ele>
        <time>2021-09-12T10:49:32Z</time>
      </trkpt>
      <trkpt lat="48.39861" lon="-3.93053">
        <ele>348.20001220703</ele>
        <time>2021-09-12T10:49:33Z</time>
      </trkpt>
      <trkpt lat="48.39859" lon="-3.93057">
        <ele>348.20001220703</ele>
        <time>2021-09-12T10:49:34Z</time>
      </trkpt>
      <trkpt lat="48.39858" lon="-3.9306">
        <ele>348.39999389648</ele>
        <time>2021-09-12T10:49:35Z</time>
      </trkpt>
      <trkpt lat="48.39857" lon="-3.93063">
        <ele>348.60000610352</ele>
        <time>2021-09-12T10:49:36Z</time>
      </trkpt>
      <trkpt lat="48.39855" lon="-3.93066">
        <ele>348.60000610352</ele>
        <time>2021-09-12T10:49:37Z</time>
      </trkpt>
      <trkpt lat="48.39853" lon="-3.93069">
        <ele>348.60000610352</ele>
        <time>2021-09-12T10:49:38Z</time>
      </trkpt>
      <trkpt lat="48.39852" lon="-3.93071">
        <ele>348.79998779297</ele>
        <time>2021-09-12T10:49:39Z</time>
      </trkpt>
      <trkpt lat="48.39851" lon="-3.93074">
        <ele>349</ele>
        <time>2021-09-12T10:49:40Z</time>
      </trkpt>
      <trkpt lat="48.39849" lon="-3.93078">
        <ele>349.20001220703</ele>
        <time>2021-09-12T10:49:41Z</time>
      </trkpt>
      <trkpt lat="48.39847" lon="-3.9308">
        <ele>349.39999389648</ele>
        <time>2021-09-12T10:49:42Z</time>
      </trkpt>
      <trkpt lat="48.39846" lon="-3.93082">
        <ele>349.79998779297</ele>
        <time>2021-09-12T10:49:43Z</time>
      </trkpt>
      <trkpt lat="48.39845" lon="-3.93084">
        <ele>349.79998779297</ele>
        <time>2021-09-12T10:49:44Z</time>
      </trkpt>
      <trkpt lat="48.39843" lon="-3.93087">
        <ele>349.79998779297</ele>
        <time>2021-09-12T10:49:45Z</time>
      </trkpt>
      <trkpt lat="48.39842" lon="-3.93089">
        <ele>350.20001220703</ele>
        <time>2021-09-12T10:49:46Z</time>
      </trkpt>
      <trkpt lat="48.3984" lon="-3.93091">
        <ele>350.39999389648</ele>
        <time>2021-09-12T10:49:47Z</time>
      </trkpt>
      <trkpt lat="48.39839" lon="-3.93093">
        <ele>350.60000610352</ele>
        <time>2021-09-12T10:49:48Z</time>
      </trkpt>
      <trkpt lat="48.39838" lon="-3.93094">
        <ele>350.60000610352</ele>
        <time>2021-09-12T10:49:49Z</time>
      </trkpt>
      <trkpt lat="48.39838" lon="-3.93096">
        <ele>350.60000610352</ele>
        <time>2021-09-12T10:49:50Z</time>
      </trkpt>
      <trkpt lat="48.39837" lon="-3.93098">
        <ele>350.79998779297</ele>
        <time>2021-09-12T10:49:51Z</time>
      </trkpt>
      <trkpt lat="48.39836" lon="-3.931">
        <ele>350.79998779297</ele>
        <time>2021-09-12T10:49:52Z</time>
      </trkpt>
      <trkpt lat="48.39835" lon="-3.93102">
        <ele>351</ele>
        <time>2021-09-12T10:49:53Z</time>
      </trkpt>
      <trkpt lat="48.39834" lon="-3.93103">
        <ele>351.20001220703</ele>
        <time>2021-09-12T10:49:54Z</time>
      </trkpt>
      <trkpt lat="48.39833" lon="-3.93104">
        <ele>351.39999389648</ele>
        <time>2021-09-12T10:49:55Z</time>
      </trkpt>
      <trkpt lat="48.39831" lon="-3.93106">
        <ele>351.39999389648</ele>
        <time>2021-09-12T10:49:56Z</time>
      </trkpt>
      <trkpt lat="48.3983" lon="-3.93108">
        <ele>352</ele>
        <time>2021-09-12T10:49:57Z</time>
      </trkpt>
      <trkpt lat="48.39828" lon="-3.9311">
        <ele>352.20001220703</ele>
        <time>2021-09-12T10:49:58Z</time>
      </trkpt>
      <trkpt lat="48.39827" lon="-3.93111">
        <ele>352.20001220703</ele>
        <time>2021-09-12T10:49:59Z</time>
      </trkpt>
      <trkpt lat="48.39825" lon="-3.93112">
        <ele>352.20001220703</ele>
        <time>2021-09-12T10:50:00Z</time>
      </trkpt>
      <trkpt lat="48.39823" lon="-3.93113">
        <ele>352.39999389648</ele>
        <time>2021-09-12T10:50:01Z</time>
      </trkpt>
      <trkpt lat="48.39822" lon="-3.93114">
        <ele>352.79998779297</ele>
        <time>2021-09-12T10:50:02Z</time>
      </trkpt>
      <trkpt lat="48.39821" lon="-3.93116">
        <ele>352.79998779297</ele>
        <time>2021-09-12T10:50:03Z</time>
      </trkpt>
      <trkpt lat="48.39819" lon="-3.93118">
        <ele>353</ele>
        <time>2021-09-12T10:50:04Z</time>
      </trkpt>
      <trkpt lat="48.39817" lon="-3.9312">
        <ele>353.20001220703</ele>
        <time>2021-09-12T10:50:05Z</time>
      </trkpt>
      <trkpt lat="48.39816" lon="-3.93122">
        <ele>353.39999389648</ele>
        <time>2021-09-12T10:50:06Z</time>
      </trkpt>
      <trkpt lat="48.39814" lon="-3.93124">
        <ele>353.39999389648</ele>
        <time>2021-09-12T10:50:07Z</time>
      </trkpt>
      <trkpt lat="48.39812" lon="-3.93126">
        <ele>353.39999389648</ele>
        <time>2021-09-12T10:50:08Z</time>
      </trkpt>
      <trkpt lat="48.39811" lon="-3.93128">
        <ele>353.79998779297</ele>
        <time>2021-09-12T10:50:09Z</time>
      </trkpt>
      <trkpt lat="48.3981" lon="-3.9313">
        <ele>354</ele>
        <time>2021-09-12T10:50:10Z</time>
      </trkpt>
      <trkpt lat="48.39809" lon="-3.93132">
        <ele>354.20001220703</ele>
        <time>2021-09-12T10:50:11Z</time>
      </trkpt>
      <trkpt lat="48.39807" lon="-3.93134">
        <ele>354.20001220703</ele>
        <time>2021-09-12T10:50:12Z</time>
      </trkpt>
      <trkpt lat="48.39806" lon="-3.93137">
        <ele>354.20001220703</ele>
        <time>2021-09-12T10:50:13Z</time>
      </trkpt>
      <trkpt lat="48.39805" lon="-3.93139">
        <ele>354.20001220703</ele>
        <time>2021-09-12T10:50:14Z</time>
      </trkpt>
      <trkpt lat="48.39804" lon="-3.93142">
        <ele>354.39999389648</ele>
        <time>2021-09-12T10:50:15Z</time>
      </trkpt>
      <trkpt lat="48.39803" lon="-3.93145">
        <ele>354.39999389648</ele>
        <time>2021-09-12T10:50:16Z</time>
      </trkpt>
      <trkpt lat="48.39801" lon="-3.93147">
        <ele>354.60000610352</ele>
        <time>2021-09-12T10:50:17Z</time>
      </trkpt>
      <trkpt lat="48.39799" lon="-3.9315">
        <ele>354.60000610352</ele>
        <time>2021-09-12T10:50:18Z</time>
      </trkpt>
      <trkpt lat="48.39797" lon="-3.93151">
        <ele>354.60000610352</ele>
        <time>2021-09-12T10:50:19Z</time>
      </trkpt>
      <trkpt lat="48.39795" lon="-3.93152">
        <ele>354.60000610352</ele>
        <time>2021-09-12T10:50:20Z</time>
      </trkpt>
      <trkpt lat="48.39792" lon="-3.93154">
        <ele>354.60000610352</ele>
        <time>2021-09-12T10:50:21Z</time>
      </trkpt>
      <trkpt lat="48.3979" lon="-3.93157">
        <ele>354.60000610352</ele>
        <time>2021-09-12T10:50:22Z</time>
      </trkpt>
      <trkpt lat="48.39788" lon="-3.93159">
        <ele>354.60000610352</ele>
        <time>2021-09-12T10:50:23Z</time>
      </trkpt>
      <trkpt lat="48.39786" lon="-3.93162">
        <ele>354.60000610352</ele>
        <time>2021-09-12T10:50:24Z</time>
      </trkpt>
      <trkpt lat="48.39785" lon="-3.93165">
        <ele>354.60000610352</ele>
        <time>2021-09-12T10:50:25Z</time>
      </trkpt>
      <trkpt lat="48.39783" lon="-3.93168">
        <ele>354.39999389648</ele>
        <time>2021-09-12T10:50:26Z</time>
      </trkpt>
      <trkpt lat="48.39781" lon="-3.93171">
        <ele>354.39999389648</ele>
        <time>2021-09-12T10:50:27Z</time>
      </trkpt>
      <trkpt lat="48.39779" lon="-3.93173">
        <ele>354.39999389648</ele>
        <time>2021-09-12T10:50:28Z</time>
      </trkpt>
      <trkpt lat="48.39777" lon="-3.93175">
        <ele>354.39999389648</ele>
        <time>2021-09-12T10:50:29Z</time>
      </trkpt>
      <trkpt lat="48.39774" lon="-3.93178">
        <ele>354.20001220703</ele>
        <time>2021-09-12T10:50:30Z</time>
      </trkpt>
      <trkpt lat="48.39772" lon="-3.9318">
        <ele>354.20001220703</ele>
        <time>2021-09-12T10:50:31Z</time>
      </trkpt>
      <trkpt lat="48.39769" lon="-3.93184">
        <ele>354.20001220703</ele>
        <time>2021-09-12T10:50:32Z</time>
      </trkpt>
      <trkpt lat="48.39767" lon="-3.93187">
        <ele>354</ele>
        <time>2021-09-12T10:50:33Z</time>
      </trkpt>
      <trkpt lat="48.39765" lon="-3.9319">
        <ele>354</ele>
        <time>2021-09-12T10:50:34Z</time>
      </trkpt>
      <trkpt lat="48.39762" lon="-3.93195">
        <ele>353.79998779297</ele>
        <time>2021-09-12T10:50:35Z</time>
      </trkpt>
      <trkpt lat="48.3976" lon="-3.93199">
        <ele>353.79998779297</ele>
        <time>2021-09-12T10:50:36Z</time>
      </trkpt>
      <trkpt lat="48.39758" lon="-3.93203">
        <ele>353.79998779297</ele>
        <time>2021-09-12T10:50:37Z</time>
      </trkpt>
      <trkpt lat="48.39756" lon="-3.93207">
        <ele>353.79998779297</ele>
        <time>2021-09-12T10:50:38Z</time>
      </trkpt>
      <trkpt lat="48.39754" lon="-3.9321">
        <ele>353.60000610352</ele>
        <time>2021-09-12T10:50:39Z</time>
      </trkpt>
      <trkpt lat="48.39751" lon="-3.93215">
        <ele>353.60000610352</ele>
        <time>2021-09-12T10:50:40Z</time>
      </trkpt>
      <trkpt lat="48.39749" lon="-3.9322">
        <ele>353.60000610352</ele>
        <time>2021-09-12T10:50:41Z</time>
      </trkpt>
      <trkpt lat="48.39747" lon="-3.93225">
        <ele>353.60000610352</ele>
        <time>2021-09-12T10:50:42Z</time>
      </trkpt>
      <trkpt lat="48.39746" lon="-3.93228">
        <ele>353.39999389648</ele>
        <time>2021-09-12T10:50:43Z</time>
      </trkpt>
      <trkpt lat="48.39744" lon="-3.93232">
        <ele>353.39999389648</ele>
        <time>2021-09-12T10:50:44Z</time>
      </trkpt>
      <trkpt lat="48.39742" lon="-3.93236">
        <ele>353.20001220703</ele>
        <time>2021-09-12T10:50:45Z</time>
      </trkpt>
      <trkpt lat="48.39739" lon="-3.9324">
        <ele>353.20001220703</ele>
        <time>2021-09-12T10:50:46Z</time>
      </trkpt>
      <trkpt lat="48.39737" lon="-3.93244">
        <ele>353.20001220703</ele>
        <time>2021-09-12T10:50:47Z</time>
      </trkpt>
      <trkpt lat="48.39734" lon="-3.93247">
        <ele>353.20001220703</ele>
        <time>2021-09-12T10:50:48Z</time>
      </trkpt>
      <trkpt lat="48.39733" lon="-3.9325">
        <ele>353.20001220703</ele>
        <time>2021-09-12T10:50:49Z</time>
      </trkpt>
      <trkpt lat="48.39731" lon="-3.93255">
        <ele>353.20001220703</ele>
        <time>2021-09-12T10:50:50Z</time>
      </trkpt>
      <trkpt lat="48.39728" lon="-3.9326">
        <ele>353.20001220703</ele>
        <time>2021-09-12T10:50:51Z</time>
      </trkpt>
      <trkpt lat="48.39726" lon="-3.93265">
        <ele>353</ele>
        <time>2021-09-12T10:50:52Z</time>
      </trkpt>
      <trkpt lat="48.39724" lon="-3.93268">
        <ele>353</ele>
        <time>2021-09-12T10:50:53Z</time>
      </trkpt>
      <trkpt lat="48.39722" lon="-3.93273">
        <ele>352.79998779297</ele>
        <time>2021-09-12T10:50:54Z</time>
      </trkpt>
      <trkpt lat="48.3972" lon="-3.93279">
        <ele>352.79998779297</ele>
        <time>2021-09-12T10:50:55Z</time>
      </trkpt>
      <trkpt lat="48.39718" lon="-3.93284">
        <ele>352.79998779297</ele>
        <time>2021-09-12T10:50:56Z</time>
      </trkpt>
      <trkpt lat="48.39715" lon="-3.93289">
        <ele>352.60000610352</ele>
        <time>2021-09-12T10:50:57Z</time>
      </trkpt>
      <trkpt lat="48.39714" lon="-3.93293">
        <ele>352.60000610352</ele>
        <time>2021-09-12T10:50:58Z</time>
      </trkpt>
      <trkpt lat="48.39712" lon="-3.93298">
        <ele>352.39999389648</ele>
        <time>2021-09-12T10:50:59Z</time>
      </trkpt>
      <trkpt lat="48.39709" lon="-3.93305">
        <ele>352.39999389648</ele>
        <time>2021-09-12T10:51:00Z</time>
      </trkpt>
      <trkpt lat="48.39707" lon="-3.9331">
        <ele>352.39999389648</ele>
        <time>2021-09-12T10:51:01Z</time>
      </trkpt>
      <trkpt lat="48.39706" lon="-3.93316">
        <ele>352.39999389648</ele>
        <time>2021-09-12T10:51:02Z</time>
      </trkpt>
      <trkpt lat="48.39705" lon="-3.9332">
        <ele>352</ele>
        <time>2021-09-12T10:51:03Z</time>
      </trkpt>
      <trkpt lat="48.39703" lon="-3.93325">
        <ele>352</ele>
        <time>2021-09-12T10:51:04Z</time>
      </trkpt>
      <trkpt lat="48.39701" lon="-3.93332">
        <ele>352</ele>
        <time>2021-09-12T10:51:05Z</time>
      </trkpt>
      <trkpt lat="48.397" lon="-3.93338">
        <ele>352</ele>
        <time>2021-09-12T10:51:06Z</time>
      </trkpt>
      <trkpt lat="48.39698" lon="-3.93343">
        <ele>351.60000610352</ele>
        <time>2021-09-12T10:51:07Z</time>
      </trkpt>
      <trkpt lat="48.39697" lon="-3.93346">
        <ele>351.20001220703</ele>
        <time>2021-09-12T10:51:08Z</time>
      </trkpt>
      <trkpt lat="48.39695" lon="-3.93351">
        <ele>351.20001220703</ele>
        <time>2021-09-12T10:51:09Z</time>
      </trkpt>
      <trkpt lat="48.39693" lon="-3.93355">
        <ele>351.20001220703</ele>
        <time>2021-09-12T10:51:10Z</time>
      </trkpt>
      <trkpt lat="48.39692" lon="-3.93359">
        <ele>351.20001220703</ele>
        <time>2021-09-12T10:51:11Z</time>
      </trkpt>
      <trkpt lat="48.39691" lon="-3.93363">
        <ele>351.20001220703</ele>
        <time>2021-09-12T10:51:12Z</time>
      </trkpt>
      <trkpt lat="48.39691" lon="-3.93368">
        <ele>351.20001220703</ele>
        <time>2021-09-12T10:51:13Z</time>
      </trkpt>
      <trkpt lat="48.39689" lon="-3.93373">
        <ele>351.20001220703</ele>
        <time>2021-09-12T10:51:14Z</time>
      </trkpt>
      <trkpt lat="48.39688" lon="-3.93378">
        <ele>351.20001220703</ele>
        <time>2021-09-12T10:51:15Z</time>
      </trkpt>
      <trkpt lat="48.39686" lon="-3.93383">
        <ele>351</ele>
        <time>2021-09-12T10:51:16Z</time>
      </trkpt>
      <trkpt lat="48.39685" lon="-3.93388">
        <ele>351</ele>
        <time>2021-09-12T10:51:17Z</time>
      </trkpt>
      <trkpt lat="48.39684" lon="-3.93392">
        <ele>351</ele>
        <time>2021-09-12T10:51:18Z</time>
      </trkpt>
      <trkpt lat="48.39683" lon="-3.93396">
        <ele>351</ele>
        <time>2021-09-12T10:51:19Z</time>
      </trkpt>
      <trkpt lat="48.39682" lon="-3.93403">
        <ele>350.79998779297</ele>
        <time>2021-09-12T10:51:20Z</time>
      </trkpt>
      <trkpt lat="48.3968" lon="-3.93408">
        <ele>350.79998779297</ele>
        <time>2021-09-12T10:51:21Z</time>
      </trkpt>
      <trkpt lat="48.39679" lon="-3.93414">
        <ele>351</ele>
        <time>2021-09-12T10:51:22Z</time>
      </trkpt>
      <trkpt lat="48.39678" lon="-3.93418">
        <ele>351</ele>
        <time>2021-09-12T10:51:23Z</time>
      </trkpt>
      <trkpt lat="48.39677" lon="-3.93424">
        <ele>351</ele>
        <time>2021-09-12T10:51:24Z</time>
      </trkpt>
      <trkpt lat="48.39676" lon="-3.9343">
        <ele>350.79998779297</ele>
        <time>2021-09-12T10:51:25Z</time>
      </trkpt>
      <trkpt lat="48.39675" lon="-3.93436">
        <ele>350.79998779297</ele>
        <time>2021-09-12T10:51:26Z</time>
      </trkpt>
      <trkpt lat="48.39675" lon="-3.93441">
        <ele>350.79998779297</ele>
        <time>2021-09-12T10:51:27Z</time>
      </trkpt>
      <trkpt lat="48.39674" lon="-3.93445">
        <ele>350.60000610352</ele>
        <time>2021-09-12T10:51:28Z</time>
      </trkpt>
      <trkpt lat="48.39673" lon="-3.93451">
        <ele>350.60000610352</ele>
        <time>2021-09-12T10:51:29Z</time>
      </trkpt>
      <trkpt lat="48.39672" lon="-3.93457">
        <ele>350.60000610352</ele>
        <time>2021-09-12T10:51:30Z</time>
      </trkpt>
      <trkpt lat="48.39671" lon="-3.93462">
        <ele>350.20001220703</ele>
        <time>2021-09-12T10:51:31Z</time>
      </trkpt>
      <trkpt lat="48.39671" lon="-3.93467">
        <ele>350.20001220703</ele>
        <time>2021-09-12T10:51:32Z</time>
      </trkpt>
      <trkpt lat="48.3967" lon="-3.93473">
        <ele>350.20001220703</ele>
        <time>2021-09-12T10:51:33Z</time>
      </trkpt>
      <trkpt lat="48.3967" lon="-3.93477">
        <ele>350.20001220703</ele>
        <time>2021-09-12T10:51:34Z</time>
      </trkpt>
      <trkpt lat="48.39669" lon="-3.93483">
        <ele>350.20001220703</ele>
        <time>2021-09-12T10:51:35Z</time>
      </trkpt>
      <trkpt lat="48.39669" lon="-3.93488">
        <ele>350.20001220703</ele>
        <time>2021-09-12T10:51:36Z</time>
      </trkpt>
      <trkpt lat="48.39669" lon="-3.93493">
        <ele>350</ele>
        <time>2021-09-12T10:51:37Z</time>
      </trkpt>
      <trkpt lat="48.39669" lon="-3.93497">
        <ele>350</ele>
        <time>2021-09-12T10:51:38Z</time>
      </trkpt>
      <trkpt lat="48.39669" lon="-3.93501">
        <ele>350</ele>
        <time>2021-09-12T10:51:39Z</time>
      </trkpt>
      <trkpt lat="48.39667" lon="-3.93506">
        <ele>349.79998779297</ele>
        <time>2021-09-12T10:51:40Z</time>
      </trkpt>
      <trkpt lat="48.39666" lon="-3.9351">
        <ele>349.79998779297</ele>
        <time>2021-09-12T10:51:41Z</time>
      </trkpt>
      <trkpt lat="48.39667" lon="-3.93514">
        <ele>349.79998779297</ele>
        <time>2021-09-12T10:51:42Z</time>
      </trkpt>
      <trkpt lat="48.39667" lon="-3.93518">
        <ele>349.79998779297</ele>
        <time>2021-09-12T10:51:43Z</time>
      </trkpt>
      <trkpt lat="48.39667" lon="-3.93524">
        <ele>349.79998779297</ele>
        <time>2021-09-12T10:51:44Z</time>
      </trkpt>
      <trkpt lat="48.39668" lon="-3.93528">
        <ele>349.79998779297</ele>
        <time>2021-09-12T10:51:45Z</time>
      </trkpt>
      <trkpt lat="48.39668" lon="-3.93532">
        <ele>349.79998779297</ele>
        <time>2021-09-12T10:51:46Z</time>
      </trkpt>
      <trkpt lat="48.39668" lon="-3.93535">
        <ele>349.79998779297</ele>
        <time>2021-09-12T10:51:47Z</time>
      </trkpt>
      <trkpt lat="48.39669" lon="-3.93539">
        <ele>349.79998779297</ele>
        <time>2021-09-12T10:51:48Z</time>
      </trkpt>
      <trkpt lat="48.39669" lon="-3.93543">
        <ele>349.79998779297</ele>
        <time>2021-09-12T10:51:49Z</time>
      </trkpt>
      <trkpt lat="48.39668" lon="-3.93547">
        <ele>349.79998779297</ele>
        <time>2021-09-12T10:51:50Z</time>
      </trkpt>
      <trkpt lat="48.39667" lon="-3.93551">
        <ele>349.79998779297</ele>
        <time>2021-09-12T10:51:51Z</time>
      </trkpt>
      <trkpt lat="48.39667" lon="-3.93554">
        <ele>349.79998779297</ele>
        <time>2021-09-12T10:51:52Z</time>
      </trkpt>
      <trkpt lat="48.39667" lon="-3.93558">
        <ele>349.79998779297</ele>
        <time>2021-09-12T10:51:53Z</time>
      </trkpt>
      <trkpt lat="48.39667" lon="-3.93562">
        <ele>349.79998779297</ele>
        <time>2021-09-12T10:51:54Z</time>
      </trkpt>
      <trkpt lat="48.39666" lon="-3.93566">
        <ele>349.79998779297</ele>
        <time>2021-09-12T10:51:55Z</time>
      </trkpt>
      <trkpt lat="48.39666" lon="-3.9357">
        <ele>349.79998779297</ele>
        <time>2021-09-12T10:51:56Z</time>
      </trkpt>
      <trkpt lat="48.39666" lon="-3.93573">
        <ele>349.79998779297</ele>
        <time>2021-09-12T10:51:57Z</time>
      </trkpt>
      <trkpt lat="48.39666" lon="-3.93577">
        <ele>349.79998779297</ele>
        <time>2021-09-12T10:51:58Z</time>
      </trkpt>
      <trkpt lat="48.39666" lon="-3.93581">
        <ele>349.79998779297</ele>
        <time>2021-09-12T10:51:59Z</time>
      </trkpt>
      <trkpt lat="48.39666" lon="-3.93586">
        <ele>350</ele>
        <time>2021-09-12T10:52:00Z</time>
      </trkpt>
      <trkpt lat="48.39666" lon="-3.93591">
        <ele>350</ele>
        <time>2021-09-12T10:52:01Z</time>
      </trkpt>
      <trkpt lat="48.39667" lon="-3.93595">
        <ele>350</ele>
        <time>2021-09-12T10:52:02Z</time>
      </trkpt>
      <trkpt lat="48.39667" lon="-3.936">
        <ele>350</ele>
        <time>2021-09-12T10:52:03Z</time>
      </trkpt>
      <trkpt lat="48.39667" lon="-3.93604">
        <ele>350</ele>
        <time>2021-09-12T10:52:04Z</time>
      </trkpt>
      <trkpt lat="48.39668" lon="-3.93609">
        <ele>350</ele>
        <time>2021-09-12T10:52:05Z</time>
      </trkpt>
      <trkpt lat="48.39669" lon="-3.93613">
        <ele>350</ele>
        <time>2021-09-12T10:52:06Z</time>
      </trkpt>
      <trkpt lat="48.39668" lon="-3.93618">
        <ele>349.79998779297</ele>
        <time>2021-09-12T10:52:07Z</time>
      </trkpt>
      <trkpt lat="48.39667" lon="-3.93623">
        <ele>349.79998779297</ele>
        <time>2021-09-12T10:52:08Z</time>
      </trkpt>
      <trkpt lat="48.39666" lon="-3.93628">
        <ele>349.79998779297</ele>
        <time>2021-09-12T10:52:09Z</time>
      </trkpt>
      <trkpt lat="48.39664" lon="-3.93632">
        <ele>350</ele>
        <time>2021-09-12T10:52:10Z</time>
      </trkpt>
      <trkpt lat="48.39662" lon="-3.93636">
        <ele>350</ele>
        <time>2021-09-12T10:52:11Z</time>
      </trkpt>
      <trkpt lat="48.39661" lon="-3.9364">
        <ele>350</ele>
        <time>2021-09-12T10:52:12Z</time>
      </trkpt>
      <trkpt lat="48.39659" lon="-3.93643">
        <ele>350</ele>
        <time>2021-09-12T10:52:13Z</time>
      </trkpt>
      <trkpt lat="48.39658" lon="-3.93646">
        <ele>350</ele>
        <time>2021-09-12T10:52:14Z</time>
      </trkpt>
      <trkpt lat="48.39656" lon="-3.93649">
        <ele>350.20001220703</ele>
        <time>2021-09-12T10:52:15Z</time>
      </trkpt>
      <trkpt lat="48.39654" lon="-3.93651">
        <ele>350.39999389648</ele>
        <time>2021-09-12T10:52:16Z</time>
      </trkpt>
      <trkpt lat="48.39653" lon="-3.93654">
        <ele>350.60000610352</ele>
        <time>2021-09-12T10:52:17Z</time>
      </trkpt>
      <trkpt lat="48.39651" lon="-3.93656">
        <ele>350.60000610352</ele>
        <time>2021-09-12T10:52:18Z</time>
      </trkpt>
      <trkpt lat="48.39649" lon="-3.93658">
        <ele>350.79998779297</ele>
        <time>2021-09-12T10:52:19Z</time>
      </trkpt>
      <trkpt lat="48.39648" lon="-3.9366">
        <ele>350.79998779297</ele>
        <time>2021-09-12T10:52:20Z</time>
      </trkpt>
      <trkpt lat="48.39646" lon="-3.93662">
        <ele>351</ele>
        <time>2021-09-12T10:52:21Z</time>
      </trkpt>
      <trkpt lat="48.39644" lon="-3.93664">
        <ele>351.20001220703</ele>
        <time>2021-09-12T10:52:22Z</time>
      </trkpt>
      <trkpt lat="48.39642" lon="-3.93666">
        <ele>351.60000610352</ele>
        <time>2021-09-12T10:52:23Z</time>
      </trkpt>
      <trkpt lat="48.39641" lon="-3.93667">
        <ele>351.60000610352</ele>
        <time>2021-09-12T10:52:24Z</time>
      </trkpt>
      <trkpt lat="48.39639" lon="-3.93668">
        <ele>351.60000610352</ele>
        <time>2021-09-12T10:52:25Z</time>
      </trkpt>
      <trkpt lat="48.39638" lon="-3.9367">
        <ele>351.79998779297</ele>
        <time>2021-09-12T10:52:26Z</time>
      </trkpt>
      <trkpt lat="48.39635" lon="-3.93672">
        <ele>352</ele>
        <time>2021-09-12T10:52:27Z</time>
      </trkpt>
      <trkpt lat="48.39633" lon="-3.93675">
        <ele>352.20001220703</ele>
        <time>2021-09-12T10:52:28Z</time>
      </trkpt>
      <trkpt lat="48.39632" lon="-3.93678">
        <ele>352.20001220703</ele>
        <time>2021-09-12T10:52:29Z</time>
      </trkpt>
      <trkpt lat="48.3963" lon="-3.9368">
        <ele>352.20001220703</ele>
        <time>2021-09-12T10:52:30Z</time>
      </trkpt>
      <trkpt lat="48.39629" lon="-3.93683">
        <ele>352.39999389648</ele>
        <time>2021-09-12T10:52:31Z</time>
      </trkpt>
      <trkpt lat="48.39627" lon="-3.93685">
        <ele>352.79998779297</ele>
        <time>2021-09-12T10:52:32Z</time>
      </trkpt>
      <trkpt lat="48.39626" lon="-3.93688">
        <ele>352.79998779297</ele>
        <time>2021-09-12T10:52:33Z</time>
      </trkpt>
      <trkpt lat="48.39625" lon="-3.93688">
        <ele>352.79998779297</ele>
        <time>2021-09-12T10:52:34Z</time>
      </trkpt>
      <trkpt lat="48.39625" lon="-3.93688">
        <ele>352.79998779297</ele>
        <time>2021-09-12T10:52:35Z</time>
      </trkpt>
      <trkpt lat="48.39625" lon="-3.93689">
        <ele>352.79998779297</ele>
        <time>2021-09-12T10:52:36Z</time>
      </trkpt>
      <trkpt lat="48.39624" lon="-3.9369">
        <ele>352.79998779297</ele>
        <time>2021-09-12T10:52:37Z</time>
      </trkpt>
      <trkpt lat="48.39623" lon="-3.93692">
        <ele>352.79998779297</ele>
        <time>2021-09-12T10:52:38Z</time>
      </trkpt>
      <trkpt lat="48.39621" lon="-3.93694">
        <ele>352.79998779297</ele>
        <time>2021-09-12T10:52:39Z</time>
      </trkpt>
      <trkpt lat="48.3962" lon="-3.93696">
        <ele>353.20001220703</ele>
        <time>2021-09-12T10:52:40Z</time>
      </trkpt>
      <trkpt lat="48.39618" lon="-3.93698">
        <ele>353.20001220703</ele>
        <time>2021-09-12T10:52:41Z</time>
      </trkpt>
      <trkpt lat="48.39617" lon="-3.93701">
        <ele>353.39999389648</ele>
        <time>2021-09-12T10:52:42Z</time>
      </trkpt>
      <trkpt lat="48.39615" lon="-3.93704">
        <ele>353.79998779297</ele>
        <time>2021-09-12T10:52:43Z</time>
      </trkpt>
      <trkpt lat="48.39613" lon="-3.93706">
        <ele>353.79998779297</ele>
        <time>2021-09-12T10:52:44Z</time>
      </trkpt>
      <trkpt lat="48.39611" lon="-3.93709">
        <ele>353.79998779297</ele>
        <time>2021-09-12T10:52:45Z</time>
      </trkpt>
      <trkpt lat="48.39609" lon="-3.93713">
        <ele>353.79998779297</ele>
        <time>2021-09-12T10:52:46Z</time>
      </trkpt>
      <trkpt lat="48.39607" lon="-3.93716">
        <ele>354</ele>
        <time>2021-09-12T10:52:47Z</time>
      </trkpt>
      <trkpt lat="48.39605" lon="-3.9372">
        <ele>354</ele>
        <time>2021-09-12T10:52:48Z</time>
      </trkpt>
      <trkpt lat="48.39602" lon="-3.93724">
        <ele>354</ele>
        <time>2021-09-12T10:52:49Z</time>
      </trkpt>
      <trkpt lat="48.396" lon="-3.93728">
        <ele>354.20001220703</ele>
        <time>2021-09-12T10:52:50Z</time>
      </trkpt>
      <trkpt lat="48.39598" lon="-3.93732">
        <ele>354.20001220703</ele>
        <time>2021-09-12T10:52:51Z</time>
      </trkpt>
      <trkpt lat="48.39596" lon="-3.93736">
        <ele>354.20001220703</ele>
        <time>2021-09-12T10:52:52Z</time>
      </trkpt>
      <trkpt lat="48.39593" lon="-3.9374">
        <ele>354.20001220703</ele>
        <time>2021-09-12T10:52:53Z</time>
      </trkpt>
      <trkpt lat="48.39591" lon="-3.93744">
        <ele>354.39999389648</ele>
        <time>2021-09-12T10:52:54Z</time>
      </trkpt>
      <trkpt lat="48.39589" lon="-3.93748">
        <ele>354.60000610352</ele>
        <time>2021-09-12T10:52:55Z</time>
      </trkpt>
      <trkpt lat="48.39587" lon="-3.93752">
        <ele>354.60000610352</ele>
        <time>2021-09-12T10:52:56Z</time>
      </trkpt>
      <trkpt lat="48.39584" lon="-3.93756">
        <ele>354.60000610352</ele>
        <time>2021-09-12T10:52:57Z</time>
      </trkpt>
      <trkpt lat="48.39581" lon="-3.9376">
        <ele>354.79998779297</ele>
        <time>2021-09-12T10:52:58Z</time>
      </trkpt>
      <trkpt lat="48.39579" lon="-3.93764">
        <ele>354.79998779297</ele>
        <time>2021-09-12T10:52:59Z</time>
      </trkpt>
      <trkpt lat="48.39576" lon="-3.93768">
        <ele>354.79998779297</ele>
        <time>2021-09-12T10:53:00Z</time>
      </trkpt>
      <trkpt lat="48.39574" lon="-3.93771">
        <ele>354.79998779297</ele>
        <time>2021-09-12T10:53:01Z</time>
      </trkpt>
      <trkpt lat="48.39572" lon="-3.93775">
        <ele>354.79998779297</ele>
        <time>2021-09-12T10:53:02Z</time>
      </trkpt>
      <trkpt lat="48.39569" lon="-3.93778">
        <ele>355</ele>
        <time>2021-09-12T10:53:03Z</time>
      </trkpt>
      <trkpt lat="48.39567" lon="-3.93781">
        <ele>355</ele>
        <time>2021-09-12T10:53:04Z</time>
      </trkpt>
      <trkpt lat="48.39564" lon="-3.93785">
        <ele>355.20001220703</ele>
        <time>2021-09-12T10:53:05Z</time>
      </trkpt>
      <trkpt lat="48.39562" lon="-3.93789">
        <ele>355.20001220703</ele>
        <time>2021-09-12T10:53:06Z</time>
      </trkpt>
      <trkpt lat="48.39559" lon="-3.93793">
        <ele>355.20001220703</ele>
        <time>2021-09-12T10:53:07Z</time>
      </trkpt>
      <trkpt lat="48.39557" lon="-3.93797">
        <ele>355.39999389648</ele>
        <time>2021-09-12T10:53:08Z</time>
      </trkpt>
      <trkpt lat="48.39555" lon="-3.93801">
        <ele>355.39999389648</ele>
        <time>2021-09-12T10:53:09Z</time>
      </trkpt>
      <trkpt lat="48.39553" lon="-3.93805">
        <ele>355.39999389648</ele>
        <time>2021-09-12T10:53:10Z</time>
      </trkpt>
      <trkpt lat="48.39552" lon="-3.9381">
        <ele>355.39999389648</ele>
        <time>2021-09-12T10:53:11Z</time>
      </trkpt>
      <trkpt lat="48.3955" lon="-3.93815">
        <ele>355.39999389648</ele>
        <time>2021-09-12T10:53:12Z</time>
      </trkpt>
      <trkpt lat="48.39549" lon="-3.9382">
        <ele>355.39999389648</ele>
        <time>2021-09-12T10:53:13Z</time>
      </trkpt>
      <trkpt lat="48.39547" lon="-3.93824">
        <ele>355.60000610352</ele>
        <time>2021-09-12T10:53:14Z</time>
      </trkpt>
      <trkpt lat="48.39544" lon="-3.93829">
        <ele>355.39999389648</ele>
        <time>2021-09-12T10:53:15Z</time>
      </trkpt>
      <trkpt lat="48.39542" lon="-3.93833">
        <ele>355.60000610352</ele>
        <time>2021-09-12T10:53:16Z</time>
      </trkpt>
      <trkpt lat="48.39539" lon="-3.93838">
        <ele>355.79998779297</ele>
        <time>2021-09-12T10:53:17Z</time>
      </trkpt>
      <trkpt lat="48.39537" lon="-3.93842">
        <ele>355.79998779297</ele>
        <time>2021-09-12T10:53:18Z</time>
      </trkpt>
      <trkpt lat="48.39535" lon="-3.93847">
        <ele>355.60000610352</ele>
        <time>2021-09-12T10:53:19Z</time>
      </trkpt>
      <trkpt lat="48.39533" lon="-3.93852">
        <ele>355.79998779297</ele>
        <time>2021-09-12T10:53:20Z</time>
      </trkpt>
      <trkpt lat="48.39531" lon="-3.93857">
        <ele>355.79998779297</ele>
        <time>2021-09-12T10:53:21Z</time>
      </trkpt>
      <trkpt lat="48.39529" lon="-3.93862">
        <ele>355.79998779297</ele>
        <time>2021-09-12T10:53:22Z</time>
      </trkpt>
      <trkpt lat="48.39526" lon="-3.93867">
        <ele>355.79998779297</ele>
        <time>2021-09-12T10:53:23Z</time>
      </trkpt>
      <trkpt lat="48.39524" lon="-3.93871">
        <ele>355.79998779297</ele>
        <time>2021-09-12T10:53:24Z</time>
      </trkpt>
      <trkpt lat="48.39522" lon="-3.93876">
        <ele>355.79998779297</ele>
        <time>2021-09-12T10:53:25Z</time>
      </trkpt>
      <trkpt lat="48.3952" lon="-3.9388">
        <ele>356</ele>
        <time>2021-09-12T10:53:26Z</time>
      </trkpt>
      <trkpt lat="48.39517" lon="-3.93885">
        <ele>355.79998779297</ele>
        <time>2021-09-12T10:53:27Z</time>
      </trkpt>
      <trkpt lat="48.39514" lon="-3.9389">
        <ele>355.79998779297</ele>
        <time>2021-09-12T10:53:28Z</time>
      </trkpt>
      <trkpt lat="48.39512" lon="-3.93895">
        <ele>355.79998779297</ele>
        <time>2021-09-12T10:53:29Z</time>
      </trkpt>
      <trkpt lat="48.39509" lon="-3.939">
        <ele>355.79998779297</ele>
        <time>2021-09-12T10:53:30Z</time>
      </trkpt>
      <trkpt lat="48.39506" lon="-3.93904">
        <ele>355.79998779297</ele>
        <time>2021-09-12T10:53:31Z</time>
      </trkpt>
      <trkpt lat="48.39504" lon="-3.93909">
        <ele>355.79998779297</ele>
        <time>2021-09-12T10:53:32Z</time>
      </trkpt>
      <trkpt lat="48.39501" lon="-3.93913">
        <ele>355.79998779297</ele>
        <time>2021-09-12T10:53:33Z</time>
      </trkpt>
      <trkpt lat="48.39499" lon="-3.93919">
        <ele>355.79998779297</ele>
        <time>2021-09-12T10:53:34Z</time>
      </trkpt>
      <trkpt lat="48.39496" lon="-3.93924">
        <ele>355.60000610352</ele>
        <time>2021-09-12T10:53:35Z</time>
      </trkpt>
      <trkpt lat="48.39493" lon="-3.93929">
        <ele>355.39999389648</ele>
        <time>2021-09-12T10:53:36Z</time>
      </trkpt>
      <trkpt lat="48.3949" lon="-3.93934">
        <ele>355.39999389648</ele>
        <time>2021-09-12T10:53:37Z</time>
      </trkpt>
      <trkpt lat="48.39487" lon="-3.93939">
        <ele>355.39999389648</ele>
        <time>2021-09-12T10:53:38Z</time>
      </trkpt>
      <trkpt lat="48.39484" lon="-3.93944">
        <ele>355.39999389648</ele>
        <time>2021-09-12T10:53:39Z</time>
      </trkpt>
      <trkpt lat="48.39481" lon="-3.9395">
        <ele>355.39999389648</ele>
        <time>2021-09-12T10:53:40Z</time>
      </trkpt>
      <trkpt lat="48.39479" lon="-3.93956">
        <ele>354.79998779297</ele>
        <time>2021-09-12T10:53:41Z</time>
      </trkpt>
      <trkpt lat="48.39476" lon="-3.93962">
        <ele>354.79998779297</ele>
        <time>2021-09-12T10:53:42Z</time>
      </trkpt>
      <trkpt lat="48.39475" lon="-3.93968">
        <ele>354.79998779297</ele>
        <time>2021-09-12T10:53:43Z</time>
      </trkpt>
      <trkpt lat="48.39474" lon="-3.93974">
        <ele>354.79998779297</ele>
        <time>2021-09-12T10:53:44Z</time>
      </trkpt>
      <trkpt lat="48.39474" lon="-3.93981">
        <ele>354.60000610352</ele>
        <time>2021-09-12T10:53:45Z</time>
      </trkpt>
      <trkpt lat="48.39474" lon="-3.93989">
        <ele>354.39999389648</ele>
        <time>2021-09-12T10:53:46Z</time>
      </trkpt>
      <trkpt lat="48.39472" lon="-3.93996">
        <ele>354</ele>
        <time>2021-09-12T10:53:47Z</time>
      </trkpt>
      <trkpt lat="48.3947" lon="-3.94002">
        <ele>353.39999389648</ele>
        <time>2021-09-12T10:53:48Z</time>
      </trkpt>
      <trkpt lat="48.39468" lon="-3.94008">
        <ele>353.20001220703</ele>
        <time>2021-09-12T10:53:49Z</time>
      </trkpt>
      <trkpt lat="48.39465" lon="-3.94014">
        <ele>353</ele>
        <time>2021-09-12T10:53:50Z</time>
      </trkpt>
      <trkpt lat="48.39463" lon="-3.94018">
        <ele>352.60000610352</ele>
        <time>2021-09-12T10:53:51Z</time>
      </trkpt>
      <trkpt lat="48.39461" lon="-3.94023">
        <ele>352.39999389648</ele>
        <time>2021-09-12T10:53:52Z</time>
      </trkpt>
      <trkpt lat="48.3946" lon="-3.94025">
        <ele>352</ele>
        <time>2021-09-12T10:53:53Z</time>
      </trkpt>
      <trkpt lat="48.3946" lon="-3.94028">
        <ele>351.79998779297</ele>
        <time>2021-09-12T10:53:54Z</time>
      </trkpt>
      <trkpt lat="48.39459" lon="-3.94031">
        <ele>351.39999389648</ele>
        <time>2021-09-12T10:53:55Z</time>
      </trkpt>
      <trkpt lat="48.39458" lon="-3.94034">
        <ele>351.39999389648</ele>
        <time>2021-09-12T10:53:56Z</time>
      </trkpt>
      <trkpt lat="48.39458" lon="-3.94038">
        <ele>351.20001220703</ele>
        <time>2021-09-12T10:53:57Z</time>
      </trkpt>
      <trkpt lat="48.39457" lon="-3.94041">
        <ele>351.20001220703</ele>
        <time>2021-09-12T10:53:58Z</time>
      </trkpt>
      <trkpt lat="48.39457" lon="-3.94044">
        <ele>350.79998779297</ele>
        <time>2021-09-12T10:53:59Z</time>
      </trkpt>
      <trkpt lat="48.39456" lon="-3.94048">
        <ele>350.60000610352</ele>
        <time>2021-09-12T10:54:00Z</time>
      </trkpt>
      <trkpt lat="48.39455" lon="-3.94051">
        <ele>350.39999389648</ele>
        <time>2021-09-12T10:54:01Z</time>
      </trkpt>
      <trkpt lat="48.39455" lon="-3.94053">
        <ele>350.20001220703</ele>
        <time>2021-09-12T10:54:02Z</time>
      </trkpt>
      <trkpt lat="48.39455" lon="-3.94056">
        <ele>350.20001220703</ele>
        <time>2021-09-12T10:54:03Z</time>
      </trkpt>
      <trkpt lat="48.39454" lon="-3.94059">
        <ele>350.20001220703</ele>
        <time>2021-09-12T10:54:04Z</time>
      </trkpt>
      <trkpt lat="48.39453" lon="-3.9406">
        <ele>350.20001220703</ele>
        <time>2021-09-12T10:54:05Z</time>
      </trkpt>
      <trkpt lat="48.39452" lon="-3.94061">
        <ele>350</ele>
        <time>2021-09-12T10:54:06Z</time>
      </trkpt>
      <trkpt lat="48.39452" lon="-3.94061">
        <ele>349.60000610352</ele>
        <time>2021-09-12T10:54:07Z</time>
      </trkpt>
      <trkpt lat="48.39452" lon="-3.94061">
        <ele>349.60000610352</ele>
        <time>2021-09-12T10:54:08Z</time>
      </trkpt>
      <trkpt lat="48.39452" lon="-3.94061">
        <ele>349.60000610352</ele>
        <time>2021-09-12T10:54:09Z</time>
      </trkpt>
      <trkpt lat="48.3945" lon="-3.94063">
        <ele>349.39999389648</ele>
        <time>2021-09-12T10:54:30Z</time>
      </trkpt>
      <trkpt lat="48.39448" lon="-3.94064">
        <ele>349.39999389648</ele>
        <time>2021-09-12T10:54:31Z</time>
      </trkpt>
      <trkpt lat="48.39445" lon="-3.94068">
        <ele>349.20001220703</ele>
        <time>2021-09-12T10:54:32Z</time>
      </trkpt>
      <trkpt lat="48.39441" lon="-3.94071">
        <ele>348.79998779297</ele>
        <time>2021-09-12T10:54:33Z</time>
      </trkpt>
      <trkpt lat="48.39437" lon="-3.94075">
        <ele>348.60000610352</ele>
        <time>2021-09-12T10:54:34Z</time>
      </trkpt>
      <trkpt lat="48.39434" lon="-3.94081">
        <ele>348.39999389648</ele>
        <time>2021-09-12T10:54:35Z</time>
      </trkpt>
      <trkpt lat="48.39432" lon="-3.94087">
        <ele>347.20001220703</ele>
        <time>2021-09-12T10:54:36Z</time>
      </trkpt>
      <trkpt lat="48.39429" lon="-3.94093">
        <ele>347</ele>
        <time>2021-09-12T10:54:37Z</time>
      </trkpt>
      <trkpt lat="48.39426" lon="-3.94099">
        <ele>346.79998779297</ele>
        <time>2021-09-12T10:54:38Z</time>
      </trkpt>
      <trkpt lat="48.39424" lon="-3.94105">
        <ele>346.79998779297</ele>
        <time>2021-09-12T10:54:39Z</time>
      </trkpt>
      <trkpt lat="48.39421" lon="-3.94111">
        <ele>345.39999389648</ele>
        <time>2021-09-12T10:54:40Z</time>
      </trkpt>
      <trkpt lat="48.39418" lon="-3.94117">
        <ele>345.39999389648</ele>
        <time>2021-09-12T10:54:41Z</time>
      </trkpt>
      <trkpt lat="48.39415" lon="-3.94123">
        <ele>344.79998779297</ele>
        <time>2021-09-12T10:54:42Z</time>
      </trkpt>
      <trkpt lat="48.39413" lon="-3.94128">
        <ele>344.79998779297</ele>
        <time>2021-09-12T10:54:43Z</time>
      </trkpt>
      <trkpt lat="48.39411" lon="-3.94131">
        <ele>343.60000610352</ele>
        <time>2021-09-12T10:54:44Z</time>
      </trkpt>
      <trkpt lat="48.3941" lon="-3.94134">
        <ele>343.20001220703</ele>
        <time>2021-09-12T10:54:45Z</time>
      </trkpt>
      <trkpt lat="48.39409" lon="-3.94138">
        <ele>342.79998779297</ele>
        <time>2021-09-12T10:54:46Z</time>
      </trkpt>
      <trkpt lat="48.39408" lon="-3.94141">
        <ele>342.39999389648</ele>
        <time>2021-09-12T10:54:47Z</time>
      </trkpt>
      <trkpt lat="48.39406" lon="-3.94144">
        <ele>342.39999389648</ele>
        <time>2021-09-12T10:54:48Z</time>
      </trkpt>
      <trkpt lat="48.39405" lon="-3.94147">
        <ele>341.39999389648</ele>
        <time>2021-09-12T10:54:49Z</time>
      </trkpt>
      <trkpt lat="48.39405" lon="-3.9415">
        <ele>341.20001220703</ele>
        <time>2021-09-12T10:54:50Z</time>
      </trkpt>
      <trkpt lat="48.39404" lon="-3.94152">
        <ele>341.20001220703</ele>
        <time>2021-09-12T10:54:51Z</time>
      </trkpt>
      <trkpt lat="48.39403" lon="-3.94154">
        <ele>341.20001220703</ele>
        <time>2021-09-12T10:54:52Z</time>
      </trkpt>
      <trkpt lat="48.39402" lon="-3.94157">
        <ele>341.20001220703</ele>
        <time>2021-09-12T10:54:53Z</time>
      </trkpt>
      <trkpt lat="48.394" lon="-3.94161">
        <ele>341</ele>
        <time>2021-09-12T10:54:54Z</time>
      </trkpt>
      <trkpt lat="48.39399" lon="-3.94165">
        <ele>340.79998779297</ele>
        <time>2021-09-12T10:54:55Z</time>
      </trkpt>
      <trkpt lat="48.39398" lon="-3.9417">
        <ele>340.20001220703</ele>
        <time>2021-09-12T10:54:56Z</time>
      </trkpt>
      <trkpt lat="48.39397" lon="-3.94175">
        <ele>339.79998779297</ele>
        <time>2021-09-12T10:54:57Z</time>
      </trkpt>
      <trkpt lat="48.39396" lon="-3.9418">
        <ele>339.60000610352</ele>
        <time>2021-09-12T10:54:58Z</time>
      </trkpt>
      <trkpt lat="48.39396" lon="-3.94184">
        <ele>338.79998779297</ele>
        <time>2021-09-12T10:54:59Z</time>
      </trkpt>
      <trkpt lat="48.39395" lon="-3.9419">
        <ele>338.60000610352</ele>
        <time>2021-09-12T10:55:00Z</time>
      </trkpt>
      <trkpt lat="48.39394" lon="-3.94194">
        <ele>338</ele>
        <time>2021-09-12T10:55:01Z</time>
      </trkpt>
      <trkpt lat="48.39393" lon="-3.94199">
        <ele>337.79998779297</ele>
        <time>2021-09-12T10:55:02Z</time>
      </trkpt>
      <trkpt lat="48.39393" lon="-3.94199">
        <ele>337.39999389648</ele>
        <time>2021-09-12T10:55:03Z</time>
      </trkpt>
      <trkpt lat="48.39389" lon="-3.94207">
        <ele>337.20001220703</ele>
        <time>2021-09-12T10:55:04Z</time>
      </trkpt>
      <trkpt lat="48.39387" lon="-3.94213">
        <ele>336.79998779297</ele>
        <time>2021-09-12T10:55:05Z</time>
      </trkpt>
      <trkpt lat="48.39385" lon="-3.94218">
        <ele>336.60000610352</ele>
        <time>2021-09-12T10:55:06Z</time>
      </trkpt>
      <trkpt lat="48.39384" lon="-3.94222">
        <ele>335.39999389648</ele>
        <time>2021-09-12T10:55:07Z</time>
      </trkpt>
      <trkpt lat="48.39382" lon="-3.94226">
        <ele>334.79998779297</ele>
        <time>2021-09-12T10:55:08Z</time>
      </trkpt>
      <trkpt lat="48.39381" lon="-3.94231">
        <ele>334.39999389648</ele>
        <time>2021-09-12T10:55:09Z</time>
      </trkpt>
      <trkpt lat="48.3938" lon="-3.94236">
        <ele>334</ele>
        <time>2021-09-12T10:55:10Z</time>
      </trkpt>
      <trkpt lat="48.39379" lon="-3.94241">
        <ele>333.60000610352</ele>
        <time>2021-09-12T10:55:11Z</time>
      </trkpt>
      <trkpt lat="48.39376" lon="-3.94246">
        <ele>333</ele>
        <time>2021-09-12T10:55:12Z</time>
      </trkpt>
      <trkpt lat="48.39374" lon="-3.94252">
        <ele>332.39999389648</ele>
        <time>2021-09-12T10:55:13Z</time>
      </trkpt>
      <trkpt lat="48.39371" lon="-3.94258">
        <ele>331.79998779297</ele>
        <time>2021-09-12T10:55:14Z</time>
      </trkpt>
      <trkpt lat="48.39368" lon="-3.94264">
        <ele>331.79998779297</ele>
        <time>2021-09-12T10:55:15Z</time>
      </trkpt>
      <trkpt lat="48.39366" lon="-3.94268">
        <ele>330.79998779297</ele>
        <time>2021-09-12T10:55:16Z</time>
      </trkpt>
      <trkpt lat="48.39364" lon="-3.94271">
        <ele>330</ele>
        <time>2021-09-12T10:55:17Z</time>
      </trkpt>
      <trkpt lat="48.39362" lon="-3.94276">
        <ele>330</ele>
        <time>2021-09-12T10:55:18Z</time>
      </trkpt>
      <trkpt lat="48.39359" lon="-3.94281">
        <ele>329.79998779297</ele>
        <time>2021-09-12T10:55:19Z</time>
      </trkpt>
      <trkpt lat="48.39356" lon="-3.94285">
        <ele>329.60000610352</ele>
        <time>2021-09-12T10:55:20Z</time>
      </trkpt>
      <trkpt lat="48.39353" lon="-3.94289">
        <ele>329</ele>
        <time>2021-09-12T10:55:21Z</time>
      </trkpt>
      <trkpt lat="48.3935" lon="-3.94293">
        <ele>328.60000610352</ele>
        <time>2021-09-12T10:55:22Z</time>
      </trkpt>
      <trkpt lat="48.39347" lon="-3.94296">
        <ele>328.39999389648</ele>
        <time>2021-09-12T10:55:23Z</time>
      </trkpt>
      <trkpt lat="48.39344" lon="-3.943">
        <ele>327.79998779297</ele>
        <time>2021-09-12T10:55:24Z</time>
      </trkpt>
      <trkpt lat="48.39341" lon="-3.94304">
        <ele>327.60000610352</ele>
        <time>2021-09-12T10:55:25Z</time>
      </trkpt>
      <trkpt lat="48.3934" lon="-3.94307">
        <ele>327.20001220703</ele>
        <time>2021-09-12T10:55:26Z</time>
      </trkpt>
      <trkpt lat="48.39338" lon="-3.94311">
        <ele>327</ele>
        <time>2021-09-12T10:55:27Z</time>
      </trkpt>
      <trkpt lat="48.39337" lon="-3.94316">
        <ele>326.79998779297</ele>
        <time>2021-09-12T10:55:28Z</time>
      </trkpt>
      <trkpt lat="48.39336" lon="-3.9432">
        <ele>326.60000610352</ele>
        <time>2021-09-12T10:55:29Z</time>
      </trkpt>
      <trkpt lat="48.39335" lon="-3.94326">
        <ele>326.20001220703</ele>
        <time>2021-09-12T10:55:30Z</time>
      </trkpt>
      <trkpt lat="48.39334" lon="-3.94331">
        <ele>326</ele>
        <time>2021-09-12T10:55:31Z</time>
      </trkpt>
      <trkpt lat="48.39334" lon="-3.94336">
        <ele>325.60000610352</ele>
        <time>2021-09-12T10:55:32Z</time>
      </trkpt>
      <trkpt lat="48.39333" lon="-3.94341">
        <ele>325.20001220703</ele>
        <time>2021-09-12T10:55:33Z</time>
      </trkpt>
      <trkpt lat="48.39333" lon="-3.94345">
        <ele>325</ele>
        <time>2021-09-12T10:55:34Z</time>
      </trkpt>
      <trkpt lat="48.39333" lon="-3.94351">
        <ele>325</ele>
        <time>2021-09-12T10:55:35Z</time>
      </trkpt>
      <trkpt lat="48.39332" lon="-3.94356">
        <ele>324.39999389648</ele>
        <time>2021-09-12T10:55:36Z</time>
      </trkpt>
      <trkpt lat="48.3933" lon="-3.94361">
        <ele>324.20001220703</ele>
        <time>2021-09-12T10:55:37Z</time>
      </trkpt>
      <trkpt lat="48.39327" lon="-3.94366">
        <ele>323.79998779297</ele>
        <time>2021-09-12T10:55:38Z</time>
      </trkpt>
      <trkpt lat="48.39324" lon="-3.9437">
        <ele>323.60000610352</ele>
        <time>2021-09-12T10:55:39Z</time>
      </trkpt>
      <trkpt lat="48.39321" lon="-3.94374">
        <ele>323</ele>
        <time>2021-09-12T10:55:40Z</time>
      </trkpt>
      <trkpt lat="48.39318" lon="-3.94378">
        <ele>322.79998779297</ele>
        <time>2021-09-12T10:55:41Z</time>
      </trkpt>
      <trkpt lat="48.39315" lon="-3.94382">
        <ele>322.60000610352</ele>
        <time>2021-09-12T10:55:42Z</time>
      </trkpt>
      <trkpt lat="48.39313" lon="-3.94386">
        <ele>322.39999389648</ele>
        <time>2021-09-12T10:55:43Z</time>
      </trkpt>
      <trkpt lat="48.39311" lon="-3.9439">
        <ele>322.20001220703</ele>
        <time>2021-09-12T10:55:44Z</time>
      </trkpt>
      <trkpt lat="48.3931" lon="-3.94394">
        <ele>322</ele>
        <time>2021-09-12T10:55:45Z</time>
      </trkpt>
      <trkpt lat="48.39309" lon="-3.94399">
        <ele>322</ele>
        <time>2021-09-12T10:55:46Z</time>
      </trkpt>
      <trkpt lat="48.39307" lon="-3.94404">
        <ele>321.60000610352</ele>
        <time>2021-09-12T10:55:47Z</time>
      </trkpt>
      <trkpt lat="48.39305" lon="-3.94409">
        <ele>321.60000610352</ele>
        <time>2021-09-12T10:55:48Z</time>
      </trkpt>
      <trkpt lat="48.39303" lon="-3.94414">
        <ele>321.39999389648</ele>
        <time>2021-09-12T10:55:49Z</time>
      </trkpt>
      <trkpt lat="48.393" lon="-3.94419">
        <ele>321.20001220703</ele>
        <time>2021-09-12T10:55:50Z</time>
      </trkpt>
      <trkpt lat="48.39297" lon="-3.94423">
        <ele>321</ele>
        <time>2021-09-12T10:55:51Z</time>
      </trkpt>
      <trkpt lat="48.39293" lon="-3.94426">
        <ele>320.79998779297</ele>
        <time>2021-09-12T10:55:52Z</time>
      </trkpt>
      <trkpt lat="48.3929" lon="-3.9443">
        <ele>320.60000610352</ele>
        <time>2021-09-12T10:55:53Z</time>
      </trkpt>
      <trkpt lat="48.39287" lon="-3.94433">
        <ele>320.39999389648</ele>
        <time>2021-09-12T10:55:54Z</time>
      </trkpt>
      <trkpt lat="48.39283" lon="-3.94435">
        <ele>320.39999389648</ele>
        <time>2021-09-12T10:55:55Z</time>
      </trkpt>
      <trkpt lat="48.3928" lon="-3.94438">
        <ele>320.39999389648</ele>
        <time>2021-09-12T10:55:56Z</time>
      </trkpt>
      <trkpt lat="48.39277" lon="-3.94442">
        <ele>320.39999389648</ele>
        <time>2021-09-12T10:55:57Z</time>
      </trkpt>
      <trkpt lat="48.39274" lon="-3.94446">
        <ele>320.39999389648</ele>
        <time>2021-09-12T10:55:58Z</time>
      </trkpt>
      <trkpt lat="48.39271" lon="-3.9445">
        <ele>320.20001220703</ele>
        <time>2021-09-12T10:55:59Z</time>
      </trkpt>
      <trkpt lat="48.39268" lon="-3.94455">
        <ele>320.20001220703</ele>
        <time>2021-09-12T10:56:00Z</time>
      </trkpt>
      <trkpt lat="48.39265" lon="-3.94461">
        <ele>320.20001220703</ele>
        <time>2021-09-12T10:56:01Z</time>
      </trkpt>
      <trkpt lat="48.39263" lon="-3.94467">
        <ele>320.20001220703</ele>
        <time>2021-09-12T10:56:02Z</time>
      </trkpt>
      <trkpt lat="48.39262" lon="-3.94473">
        <ele>320.20001220703</ele>
        <time>2021-09-12T10:56:03Z</time>
      </trkpt>
      <trkpt lat="48.3926" lon="-3.9448">
        <ele>319.79998779297</ele>
        <time>2021-09-12T10:56:04Z</time>
      </trkpt>
      <trkpt lat="48.3926" lon="-3.94486">
        <ele>319.60000610352</ele>
        <time>2021-09-12T10:56:05Z</time>
      </trkpt>
      <trkpt lat="48.39259" lon="-3.94491">
        <ele>319.60000610352</ele>
        <time>2021-09-12T10:56:06Z</time>
      </trkpt>
      <trkpt lat="48.39257" lon="-3.94496">
        <ele>319.60000610352</ele>
        <time>2021-09-12T10:56:07Z</time>
      </trkpt>
      <trkpt lat="48.39254" lon="-3.94498">
        <ele>319.60000610352</ele>
        <time>2021-09-12T10:56:08Z</time>
      </trkpt>
      <trkpt lat="48.39252" lon="-3.94498">
        <ele>319.60000610352</ele>
        <time>2021-09-12T10:56:09Z</time>
      </trkpt>
      <trkpt lat="48.39247" lon="-3.94496">
        <ele>319.60000610352</ele>
        <time>2021-09-12T10:56:10Z</time>
      </trkpt>
      <trkpt lat="48.39242" lon="-3.94495">
        <ele>319.60000610352</ele>
        <time>2021-09-12T10:56:11Z</time>
      </trkpt>
      <trkpt lat="48.39238" lon="-3.94495">
        <ele>319.60000610352</ele>
        <time>2021-09-12T10:56:12Z</time>
      </trkpt>
      <trkpt lat="48.39234" lon="-3.94495">
        <ele>319.79998779297</ele>
        <time>2021-09-12T10:56:13Z</time>
      </trkpt>
      <trkpt lat="48.39231" lon="-3.94496">
        <ele>319.79998779297</ele>
        <time>2021-09-12T10:56:14Z</time>
      </trkpt>
      <trkpt lat="48.39226" lon="-3.94497">
        <ele>319.79998779297</ele>
        <time>2021-09-12T10:56:15Z</time>
      </trkpt>
      <trkpt lat="48.39222" lon="-3.94498">
        <ele>319.79998779297</ele>
        <time>2021-09-12T10:56:16Z</time>
      </trkpt>
      <trkpt lat="48.39219" lon="-3.945">
        <ele>319.79998779297</ele>
        <time>2021-09-12T10:56:17Z</time>
      </trkpt>
      <trkpt lat="48.39216" lon="-3.94502">
        <ele>320</ele>
        <time>2021-09-12T10:56:18Z</time>
      </trkpt>
      <trkpt lat="48.39214" lon="-3.94504">
        <ele>320</ele>
        <time>2021-09-12T10:56:19Z</time>
      </trkpt>
      <trkpt lat="48.39212" lon="-3.94506">
        <ele>320</ele>
        <time>2021-09-12T10:56:20Z</time>
      </trkpt>
      <trkpt lat="48.39211" lon="-3.94509">
        <ele>320</ele>
        <time>2021-09-12T10:56:21Z</time>
      </trkpt>
      <trkpt lat="48.39211" lon="-3.94512">
        <ele>320</ele>
        <time>2021-09-12T10:56:22Z</time>
      </trkpt>
      <trkpt lat="48.39212" lon="-3.94515">
        <ele>320</ele>
        <time>2021-09-12T10:56:23Z</time>
      </trkpt>
      <trkpt lat="48.39213" lon="-3.94517">
        <ele>320</ele>
        <time>2021-09-12T10:56:24Z</time>
      </trkpt>
      <trkpt lat="48.39215" lon="-3.94519">
        <ele>320</ele>
        <time>2021-09-12T10:56:25Z</time>
      </trkpt>
      <trkpt lat="48.39218" lon="-3.94521">
        <ele>320</ele>
        <time>2021-09-12T10:56:26Z</time>
      </trkpt>
      <trkpt lat="48.3922" lon="-3.94524">
        <ele>320</ele>
        <time>2021-09-12T10:56:27Z</time>
      </trkpt>
      <trkpt lat="48.39223" lon="-3.94527">
        <ele>320</ele>
        <time>2021-09-12T10:56:28Z</time>
      </trkpt>
      <trkpt lat="48.39225" lon="-3.9453">
        <ele>320</ele>
        <time>2021-09-12T10:56:29Z</time>
      </trkpt>
      <trkpt lat="48.39228" lon="-3.94533">
        <ele>319.79998779297</ele>
        <time>2021-09-12T10:56:30Z</time>
      </trkpt>
      <trkpt lat="48.39231" lon="-3.94536">
        <ele>319.79998779297</ele>
        <time>2021-09-12T10:56:31Z</time>
      </trkpt>
      <trkpt lat="48.39234" lon="-3.94538">
        <ele>319.79998779297</ele>
        <time>2021-09-12T10:56:32Z</time>
      </trkpt>
      <trkpt lat="48.39237" lon="-3.94541">
        <ele>319.60000610352</ele>
        <time>2021-09-12T10:56:33Z</time>
      </trkpt>
      <trkpt lat="48.3924" lon="-3.94543">
        <ele>319.39999389648</ele>
        <time>2021-09-12T10:56:34Z</time>
      </trkpt>
      <trkpt lat="48.39243" lon="-3.94546">
        <ele>319.39999389648</ele>
        <time>2021-09-12T10:56:35Z</time>
      </trkpt>
      <trkpt lat="48.39246" lon="-3.94549">
        <ele>319.20001220703</ele>
        <time>2021-09-12T10:56:36Z</time>
      </trkpt>
      <trkpt lat="48.3925" lon="-3.94552">
        <ele>318.79998779297</ele>
        <time>2021-09-12T10:56:37Z</time>
      </trkpt>
      <trkpt lat="48.39255" lon="-3.94555">
        <ele>318.79998779297</ele>
        <time>2021-09-12T10:56:38Z</time>
      </trkpt>
      <trkpt lat="48.39259" lon="-3.94557">
        <ele>318.60000610352</ele>
        <time>2021-09-12T10:56:39Z</time>
      </trkpt>
      <trkpt lat="48.39264" lon="-3.9456">
        <ele>318.60000610352</ele>
        <time>2021-09-12T10:56:40Z</time>
      </trkpt>
      <trkpt lat="48.39269" lon="-3.94562">
        <ele>318.20001220703</ele>
        <time>2021-09-12T10:56:41Z</time>
      </trkpt>
      <trkpt lat="48.39274" lon="-3.94564">
        <ele>317.79998779297</ele>
        <time>2021-09-12T10:56:42Z</time>
      </trkpt>
      <trkpt lat="48.39282" lon="-3.94567">
        <ele>317.39999389648</ele>
        <time>2021-09-12T10:56:43Z</time>
      </trkpt>
      <trkpt lat="48.39288" lon="-3.94569">
        <ele>317.20001220703</ele>
        <time>2021-09-12T10:56:44Z</time>
      </trkpt>
      <trkpt lat="48.39295" lon="-3.9457">
        <ele>317</ele>
        <time>2021-09-12T10:56:45Z</time>
      </trkpt>
      <trkpt lat="48.39302" lon="-3.94571">
        <ele>316.60000610352</ele>
        <time>2021-09-12T10:56:46Z</time>
      </trkpt>
      <trkpt lat="48.3931" lon="-3.94571">
        <ele>315.79998779297</ele>
        <time>2021-09-12T10:56:47Z</time>
      </trkpt>
      <trkpt lat="48.39318" lon="-3.94571">
        <ele>315.79998779297</ele>
        <time>2021-09-12T10:56:48Z</time>
      </trkpt>
      <trkpt lat="48.39326" lon="-3.9457">
        <ele>315</ele>
        <time>2021-09-12T10:56:49Z</time>
      </trkpt>
      <trkpt lat="48.39334" lon="-3.94569">
        <ele>314.39999389648</ele>
        <time>2021-09-12T10:56:50Z</time>
      </trkpt>
      <trkpt lat="48.3934" lon="-3.94568">
        <ele>314</ele>
        <time>2021-09-12T10:56:51Z</time>
      </trkpt>
      <trkpt lat="48.39348" lon="-3.94567">
        <ele>313.20001220703</ele>
        <time>2021-09-12T10:56:52Z</time>
      </trkpt>
      <trkpt lat="48.39354" lon="-3.94568">
        <ele>313</ele>
        <time>2021-09-12T10:56:53Z</time>
      </trkpt>
      <trkpt lat="48.39358" lon="-3.9457">
        <ele>312.60000610352</ele>
        <time>2021-09-12T10:56:54Z</time>
      </trkpt>
      <trkpt lat="48.3936" lon="-3.94574">
        <ele>312.20001220703</ele>
        <time>2021-09-12T10:56:55Z</time>
      </trkpt>
      <trkpt lat="48.3936" lon="-3.94579">
        <ele>312</ele>
        <time>2021-09-12T10:56:56Z</time>
      </trkpt>
      <trkpt lat="48.39358" lon="-3.94582">
        <ele>311.20001220703</ele>
        <time>2021-09-12T10:56:57Z</time>
      </trkpt>
      <trkpt lat="48.39356" lon="-3.94585">
        <ele>311.20001220703</ele>
        <time>2021-09-12T10:56:58Z</time>
      </trkpt>
      <trkpt lat="48.39352" lon="-3.94588">
        <ele>311</ele>
        <time>2021-09-12T10:56:59Z</time>
      </trkpt>
      <trkpt lat="48.3935" lon="-3.94592">
        <ele>311</ele>
        <time>2021-09-12T10:57:00Z</time>
      </trkpt>
      <trkpt lat="48.39348" lon="-3.94596">
        <ele>311</ele>
        <time>2021-09-12T10:57:01Z</time>
      </trkpt>
      <trkpt lat="48.39347" lon="-3.946">
        <ele>311</ele>
        <time>2021-09-12T10:57:02Z</time>
      </trkpt>
      <trkpt lat="48.39346" lon="-3.94605">
        <ele>311</ele>
        <time>2021-09-12T10:57:03Z</time>
      </trkpt>
      <trkpt lat="48.39345" lon="-3.94609">
        <ele>311</ele>
        <time>2021-09-12T10:57:04Z</time>
      </trkpt>
      <trkpt lat="48.39342" lon="-3.94613">
        <ele>311</ele>
        <time>2021-09-12T10:57:05Z</time>
      </trkpt>
      <trkpt lat="48.3934" lon="-3.94617">
        <ele>311.20001220703</ele>
        <time>2021-09-12T10:57:06Z</time>
      </trkpt>
      <trkpt lat="48.39338" lon="-3.94621">
        <ele>311.20001220703</ele>
        <time>2021-09-12T10:57:07Z</time>
      </trkpt>
      <trkpt lat="48.39336" lon="-3.94626">
        <ele>311.39999389648</ele>
        <time>2021-09-12T10:57:08Z</time>
      </trkpt>
      <trkpt lat="48.39335" lon="-3.9463">
        <ele>311.39999389648</ele>
        <time>2021-09-12T10:57:09Z</time>
      </trkpt>
      <trkpt lat="48.39334" lon="-3.94635">
        <ele>311.60000610352</ele>
        <time>2021-09-12T10:57:10Z</time>
      </trkpt>
      <trkpt lat="48.39333" lon="-3.9464">
        <ele>311.60000610352</ele>
        <time>2021-09-12T10:57:11Z</time>
      </trkpt>
      <trkpt lat="48.39333" lon="-3.94645">
        <ele>311.60000610352</ele>
        <time>2021-09-12T10:57:12Z</time>
      </trkpt>
      <trkpt lat="48.39332" lon="-3.9465">
        <ele>311.79998779297</ele>
        <time>2021-09-12T10:57:13Z</time>
      </trkpt>
      <trkpt lat="48.39331" lon="-3.94656">
        <ele>311.79998779297</ele>
        <time>2021-09-12T10:57:14Z</time>
      </trkpt>
      <trkpt lat="48.3933" lon="-3.94661">
        <ele>311.79998779297</ele>
        <time>2021-09-12T10:57:15Z</time>
      </trkpt>
      <trkpt lat="48.39329" lon="-3.94666">
        <ele>311.79998779297</ele>
        <time>2021-09-12T10:57:16Z</time>
      </trkpt>
      <trkpt lat="48.39328" lon="-3.94672">
        <ele>311.79998779297</ele>
        <time>2021-09-12T10:57:17Z</time>
      </trkpt>
      <trkpt lat="48.39328" lon="-3.94676">
        <ele>311.79998779297</ele>
        <time>2021-09-12T10:57:18Z</time>
      </trkpt>
      <trkpt lat="48.39329" lon="-3.9468">
        <ele>311.79998779297</ele>
        <time>2021-09-12T10:57:19Z</time>
      </trkpt>
      <trkpt lat="48.39331" lon="-3.94686">
        <ele>311.79998779297</ele>
        <time>2021-09-12T10:57:20Z</time>
      </trkpt>
      <trkpt lat="48.39333" lon="-3.9469">
        <ele>311.60000610352</ele>
        <time>2021-09-12T10:57:21Z</time>
      </trkpt>
      <trkpt lat="48.39335" lon="-3.94694">
        <ele>311.39999389648</ele>
        <time>2021-09-12T10:57:22Z</time>
      </trkpt>
      <trkpt lat="48.39338" lon="-3.94698">
        <ele>311.39999389648</ele>
        <time>2021-09-12T10:57:23Z</time>
      </trkpt>
      <trkpt lat="48.39341" lon="-3.94704">
        <ele>310.79998779297</ele>
        <time>2021-09-12T10:57:24Z</time>
      </trkpt>
      <trkpt lat="48.39346" lon="-3.94711">
        <ele>310.79998779297</ele>
        <time>2021-09-12T10:57:25Z</time>
      </trkpt>
      <trkpt lat="48.3935" lon="-3.94716">
        <ele>309.20001220703</ele>
        <time>2021-09-12T10:57:26Z</time>
      </trkpt>
      <trkpt lat="48.39355" lon="-3.94722">
        <ele>308.79998779297</ele>
        <time>2021-09-12T10:57:27Z</time>
      </trkpt>
      <trkpt lat="48.39359" lon="-3.94727">
        <ele>308.20001220703</ele>
        <time>2021-09-12T10:57:28Z</time>
      </trkpt>
      <trkpt lat="48.39364" lon="-3.94732">
        <ele>307.60000610352</ele>
        <time>2021-09-12T10:57:29Z</time>
      </trkpt>
      <trkpt lat="48.39368" lon="-3.94736">
        <ele>305.79998779297</ele>
        <time>2021-09-12T10:57:30Z</time>
      </trkpt>
      <trkpt lat="48.39373" lon="-3.9474">
        <ele>305</ele>
        <time>2021-09-12T10:57:31Z</time>
      </trkpt>
      <trkpt lat="48.39378" lon="-3.94744">
        <ele>304.60000610352</ele>
        <time>2021-09-12T10:57:32Z</time>
      </trkpt>
      <trkpt lat="48.39383" lon="-3.94748">
        <ele>304</ele>
        <time>2021-09-12T10:57:33Z</time>
      </trkpt>
      <trkpt lat="48.39388" lon="-3.9475">
        <ele>303.39999389648</ele>
        <time>2021-09-12T10:57:34Z</time>
      </trkpt>
      <trkpt lat="48.39391" lon="-3.94753">
        <ele>302.60000610352</ele>
        <time>2021-09-12T10:57:35Z</time>
      </trkpt>
      <trkpt lat="48.39394" lon="-3.94758">
        <ele>301.79998779297</ele>
        <time>2021-09-12T10:57:36Z</time>
      </trkpt>
      <trkpt lat="48.39395" lon="-3.94763">
        <ele>301.60000610352</ele>
        <time>2021-09-12T10:57:37Z</time>
      </trkpt>
      <trkpt lat="48.39395" lon="-3.9477">
        <ele>301.39999389648</ele>
        <time>2021-09-12T10:57:38Z</time>
      </trkpt>
      <trkpt lat="48.39396" lon="-3.94776">
        <ele>301.20001220703</ele>
        <time>2021-09-12T10:57:39Z</time>
      </trkpt>
      <trkpt lat="48.39397" lon="-3.94785">
        <ele>301</ele>
        <time>2021-09-12T10:57:40Z</time>
      </trkpt>
      <trkpt lat="48.39399" lon="-3.9479">
        <ele>300.39999389648</ele>
        <time>2021-09-12T10:57:41Z</time>
      </trkpt>
      <trkpt lat="48.39401" lon="-3.94796">
        <ele>300.20001220703</ele>
        <time>2021-09-12T10:57:42Z</time>
      </trkpt>
      <trkpt lat="48.39404" lon="-3.948">
        <ele>300</ele>
        <time>2021-09-12T10:57:43Z</time>
      </trkpt>
      <trkpt lat="48.39407" lon="-3.94802">
        <ele>299</ele>
        <time>2021-09-12T10:57:44Z</time>
      </trkpt>
      <trkpt lat="48.39411" lon="-3.94804">
        <ele>298.79998779297</ele>
        <time>2021-09-12T10:57:45Z</time>
      </trkpt>
      <trkpt lat="48.39414" lon="-3.94807">
        <ele>298.79998779297</ele>
        <time>2021-09-12T10:57:46Z</time>
      </trkpt>
      <trkpt lat="48.39417" lon="-3.94812">
        <ele>297.79998779297</ele>
        <time>2021-09-12T10:57:47Z</time>
      </trkpt>
      <trkpt lat="48.3942" lon="-3.94817">
        <ele>297.39999389648</ele>
        <time>2021-09-12T10:57:48Z</time>
      </trkpt>
      <trkpt lat="48.39424" lon="-3.94822">
        <ele>297.20001220703</ele>
        <time>2021-09-12T10:57:49Z</time>
      </trkpt>
      <trkpt lat="48.39427" lon="-3.94827">
        <ele>296</ele>
        <time>2021-09-12T10:57:50Z</time>
      </trkpt>
      <trkpt lat="48.39431" lon="-3.94832">
        <ele>295</ele>
        <time>2021-09-12T10:57:51Z</time>
      </trkpt>
      <trkpt lat="48.39435" lon="-3.94837">
        <ele>294.60000610352</ele>
        <time>2021-09-12T10:57:52Z</time>
      </trkpt>
      <trkpt lat="48.39439" lon="-3.94842">
        <ele>294.39999389648</ele>
        <time>2021-09-12T10:57:53Z</time>
      </trkpt>
      <trkpt lat="48.39442" lon="-3.94848">
        <ele>293.60000610352</ele>
        <time>2021-09-12T10:57:54Z</time>
      </trkpt>
      <trkpt lat="48.39446" lon="-3.94855">
        <ele>293.39999389648</ele>
        <time>2021-09-12T10:57:55Z</time>
      </trkpt>
      <trkpt lat="48.39451" lon="-3.94861">
        <ele>292.20001220703</ele>
        <time>2021-09-12T10:57:56Z</time>
      </trkpt>
      <trkpt lat="48.39455" lon="-3.94867">
        <ele>291.60000610352</ele>
        <time>2021-09-12T10:57:57Z</time>
      </trkpt>
      <trkpt lat="48.39459" lon="-3.94872">
        <ele>291.39999389648</ele>
        <time>2021-09-12T10:57:58Z</time>
      </trkpt>
      <trkpt lat="48.39462" lon="-3.94877">
        <ele>290.20001220703</ele>
        <time>2021-09-12T10:57:59Z</time>
      </trkpt>
      <trkpt lat="48.39466" lon="-3.94883">
        <ele>289.60000610352</ele>
        <time>2021-09-12T10:58:00Z</time>
      </trkpt>
      <trkpt lat="48.39469" lon="-3.94888">
        <ele>289</ele>
        <time>2021-09-12T10:58:01Z</time>
      </trkpt>
      <trkpt lat="48.39472" lon="-3.94894">
        <ele>288.39999389648</ele>
        <time>2021-09-12T10:58:02Z</time>
      </trkpt>
      <trkpt lat="48.39476" lon="-3.94901">
        <ele>287.79998779297</ele>
        <time>2021-09-12T10:58:03Z</time>
      </trkpt>
      <trkpt lat="48.3948" lon="-3.94908">
        <ele>287.20001220703</ele>
        <time>2021-09-12T10:58:04Z</time>
      </trkpt>
      <trkpt lat="48.39483" lon="-3.94914">
        <ele>287.20001220703</ele>
        <time>2021-09-12T10:58:05Z</time>
      </trkpt>
      <trkpt lat="48.39487" lon="-3.94921">
        <ele>286.20001220703</ele>
        <time>2021-09-12T10:58:06Z</time>
      </trkpt>
      <trkpt lat="48.3949" lon="-3.94929">
        <ele>286.20001220703</ele>
        <time>2021-09-12T10:58:07Z</time>
      </trkpt>
      <trkpt lat="48.39492" lon="-3.94936">
        <ele>285.20001220703</ele>
        <time>2021-09-12T10:58:08Z</time>
      </trkpt>
      <trkpt lat="48.39493" lon="-3.94944">
        <ele>285</ele>
        <time>2021-09-12T10:58:09Z</time>
      </trkpt>
      <trkpt lat="48.39493" lon="-3.94952">
        <ele>284.60000610352</ele>
        <time>2021-09-12T10:58:10Z</time>
      </trkpt>
      <trkpt lat="48.39493" lon="-3.9496">
        <ele>284.39999389648</ele>
        <time>2021-09-12T10:58:11Z</time>
      </trkpt>
      <trkpt lat="48.39492" lon="-3.94967">
        <ele>284.20001220703</ele>
        <time>2021-09-12T10:58:12Z</time>
      </trkpt>
      <trkpt lat="48.39491" lon="-3.94973">
        <ele>284.20001220703</ele>
        <time>2021-09-12T10:58:13Z</time>
      </trkpt>
      <trkpt lat="48.3949" lon="-3.94979">
        <ele>284</ele>
        <time>2021-09-12T10:58:14Z</time>
      </trkpt>
      <trkpt lat="48.39489" lon="-3.94985">
        <ele>283.60000610352</ele>
        <time>2021-09-12T10:58:15Z</time>
      </trkpt>
      <trkpt lat="48.39488" lon="-3.94991">
        <ele>283.39999389648</ele>
        <time>2021-09-12T10:58:16Z</time>
      </trkpt>
      <trkpt lat="48.39487" lon="-3.94996">
        <ele>283.39999389648</ele>
        <time>2021-09-12T10:58:17Z</time>
      </trkpt>
      <trkpt lat="48.39485" lon="-3.95001">
        <ele>283.60000610352</ele>
        <time>2021-09-12T10:58:18Z</time>
      </trkpt>
      <trkpt lat="48.39483" lon="-3.95006">
        <ele>283.60000610352</ele>
        <time>2021-09-12T10:58:19Z</time>
      </trkpt>
      <trkpt lat="48.39481" lon="-3.95011">
        <ele>283.60000610352</ele>
        <time>2021-09-12T10:58:20Z</time>
      </trkpt>
      <trkpt lat="48.39479" lon="-3.95015">
        <ele>284</ele>
        <time>2021-09-12T10:58:21Z</time>
      </trkpt>
      <trkpt lat="48.39477" lon="-3.9502">
        <ele>284</ele>
        <time>2021-09-12T10:58:22Z</time>
      </trkpt>
      <trkpt lat="48.39476" lon="-3.95025">
        <ele>284</ele>
        <time>2021-09-12T10:58:23Z</time>
      </trkpt>
      <trkpt lat="48.39476" lon="-3.9503">
        <ele>284</ele>
        <time>2021-09-12T10:58:24Z</time>
      </trkpt>
      <trkpt lat="48.39477" lon="-3.95035">
        <ele>284</ele>
        <time>2021-09-12T10:58:25Z</time>
      </trkpt>
      <trkpt lat="48.39479" lon="-3.9504">
        <ele>284</ele>
        <time>2021-09-12T10:58:26Z</time>
      </trkpt>
      <trkpt lat="48.39482" lon="-3.95045">
        <ele>284</ele>
        <time>2021-09-12T10:58:27Z</time>
      </trkpt>
      <trkpt lat="48.39485" lon="-3.9505">
        <ele>283.20001220703</ele>
        <time>2021-09-12T10:58:28Z</time>
      </trkpt>
      <trkpt lat="48.39487" lon="-3.95056">
        <ele>282.79998779297</ele>
        <time>2021-09-12T10:58:29Z</time>
      </trkpt>
      <trkpt lat="48.39489" lon="-3.95061">
        <ele>282.39999389648</ele>
        <time>2021-09-12T10:58:30Z</time>
      </trkpt>
      <trkpt lat="48.3949" lon="-3.95066">
        <ele>281.79998779297</ele>
        <time>2021-09-12T10:58:31Z</time>
      </trkpt>
      <trkpt lat="48.39489" lon="-3.95071">
        <ele>281.79998779297</ele>
        <time>2021-09-12T10:58:32Z</time>
      </trkpt>
      <trkpt lat="48.39489" lon="-3.95076">
        <ele>281.79998779297</ele>
        <time>2021-09-12T10:58:33Z</time>
      </trkpt>
      <trkpt lat="48.39488" lon="-3.95082">
        <ele>281.79998779297</ele>
        <time>2021-09-12T10:58:34Z</time>
      </trkpt>
      <trkpt lat="48.39488" lon="-3.95087">
        <ele>281.79998779297</ele>
        <time>2021-09-12T10:58:35Z</time>
      </trkpt>
      <trkpt lat="48.39487" lon="-3.95092">
        <ele>281.79998779297</ele>
        <time>2021-09-12T10:58:36Z</time>
      </trkpt>
      <trkpt lat="48.39487" lon="-3.95097">
        <ele>281.79998779297</ele>
        <time>2021-09-12T10:58:37Z</time>
      </trkpt>
      <trkpt lat="48.39487" lon="-3.95103">
        <ele>282</ele>
        <time>2021-09-12T10:58:38Z</time>
      </trkpt>
      <trkpt lat="48.39486" lon="-3.95108">
        <ele>282</ele>
        <time>2021-09-12T10:58:39Z</time>
      </trkpt>
      <trkpt lat="48.39485" lon="-3.95114">
        <ele>282.20001220703</ele>
        <time>2021-09-12T10:58:40Z</time>
      </trkpt>
      <trkpt lat="48.39485" lon="-3.95119">
        <ele>282.20001220703</ele>
        <time>2021-09-12T10:58:41Z</time>
      </trkpt>
      <trkpt lat="48.39485" lon="-3.95125">
        <ele>282.20001220703</ele>
        <time>2021-09-12T10:58:42Z</time>
      </trkpt>
      <trkpt lat="48.39485" lon="-3.95131">
        <ele>282.20001220703</ele>
        <time>2021-09-12T10:58:43Z</time>
      </trkpt>
      <trkpt lat="48.39485" lon="-3.95136">
        <ele>282.20001220703</ele>
        <time>2021-09-12T10:58:44Z</time>
      </trkpt>
      <trkpt lat="48.39485" lon="-3.95142">
        <ele>282.20001220703</ele>
        <time>2021-09-12T10:58:45Z</time>
      </trkpt>
      <trkpt lat="48.39484" lon="-3.95147">
        <ele>282.20001220703</ele>
        <time>2021-09-12T10:58:46Z</time>
      </trkpt>
      <trkpt lat="48.39484" lon="-3.95151">
        <ele>282</ele>
        <time>2021-09-12T10:58:47Z</time>
      </trkpt>
      <trkpt lat="48.39484" lon="-3.95157">
        <ele>282</ele>
        <time>2021-09-12T10:58:48Z</time>
      </trkpt>
      <trkpt lat="48.39483" lon="-3.95162">
        <ele>281.79998779297</ele>
        <time>2021-09-12T10:58:49Z</time>
      </trkpt>
      <trkpt lat="48.39483" lon="-3.95166">
        <ele>281.79998779297</ele>
        <time>2021-09-12T10:58:50Z</time>
      </trkpt>
      <trkpt lat="48.39483" lon="-3.95171">
        <ele>281.79998779297</ele>
        <time>2021-09-12T10:58:51Z</time>
      </trkpt>
      <trkpt lat="48.39483" lon="-3.95176">
        <ele>281.60000610352</ele>
        <time>2021-09-12T10:58:52Z</time>
      </trkpt>
      <trkpt lat="48.39483" lon="-3.95182">
        <ele>281.60000610352</ele>
        <time>2021-09-12T10:58:53Z</time>
      </trkpt>
      <trkpt lat="48.39483" lon="-3.95188">
        <ele>281.60000610352</ele>
        <time>2021-09-12T10:58:54Z</time>
      </trkpt>
      <trkpt lat="48.39483" lon="-3.95194">
        <ele>281.60000610352</ele>
        <time>2021-09-12T10:58:55Z</time>
      </trkpt>
      <trkpt lat="48.39483" lon="-3.952">
        <ele>281.60000610352</ele>
        <time>2021-09-12T10:58:56Z</time>
      </trkpt>
      <trkpt lat="48.39482" lon="-3.95206">
        <ele>281.39999389648</ele>
        <time>2021-09-12T10:58:57Z</time>
      </trkpt>
      <trkpt lat="48.39482" lon="-3.95212">
        <ele>281.20001220703</ele>
        <time>2021-09-12T10:58:58Z</time>
      </trkpt>
      <trkpt lat="48.39481" lon="-3.95218">
        <ele>281.20001220703</ele>
        <time>2021-09-12T10:58:59Z</time>
      </trkpt>
      <trkpt lat="48.3948" lon="-3.95223">
        <ele>281.20001220703</ele>
        <time>2021-09-12T10:59:00Z</time>
      </trkpt>
      <trkpt lat="48.39479" lon="-3.95229">
        <ele>281.20001220703</ele>
        <time>2021-09-12T10:59:01Z</time>
      </trkpt>
      <trkpt lat="48.39479" lon="-3.95235">
        <ele>281.20001220703</ele>
        <time>2021-09-12T10:59:02Z</time>
      </trkpt>
      <trkpt lat="48.39478" lon="-3.95241">
        <ele>281.20001220703</ele>
        <time>2021-09-12T10:59:03Z</time>
      </trkpt>
      <trkpt lat="48.39477" lon="-3.95247">
        <ele>281</ele>
        <time>2021-09-12T10:59:04Z</time>
      </trkpt>
      <trkpt lat="48.39477" lon="-3.95253">
        <ele>281</ele>
        <time>2021-09-12T10:59:05Z</time>
      </trkpt>
      <trkpt lat="48.39476" lon="-3.95258">
        <ele>281</ele>
        <time>2021-09-12T10:59:06Z</time>
      </trkpt>
      <trkpt lat="48.39476" lon="-3.95264">
        <ele>280.79998779297</ele>
        <time>2021-09-12T10:59:07Z</time>
      </trkpt>
      <trkpt lat="48.39475" lon="-3.95269">
        <ele>280.79998779297</ele>
        <time>2021-09-12T10:59:08Z</time>
      </trkpt>
      <trkpt lat="48.39474" lon="-3.95275">
        <ele>280.60000610352</ele>
        <time>2021-09-12T10:59:09Z</time>
      </trkpt>
      <trkpt lat="48.39474" lon="-3.9528">
        <ele>280.60000610352</ele>
        <time>2021-09-12T10:59:10Z</time>
      </trkpt>
      <trkpt lat="48.39474" lon="-3.95286">
        <ele>280.39999389648</ele>
        <time>2021-09-12T10:59:11Z</time>
      </trkpt>
      <trkpt lat="48.39474" lon="-3.95292">
        <ele>280.39999389648</ele>
        <time>2021-09-12T10:59:12Z</time>
      </trkpt>
      <trkpt lat="48.39474" lon="-3.95298">
        <ele>280.20001220703</ele>
        <time>2021-09-12T10:59:13Z</time>
      </trkpt>
      <trkpt lat="48.39474" lon="-3.95304">
        <ele>280</ele>
        <time>2021-09-12T10:59:14Z</time>
      </trkpt>
      <trkpt lat="48.39474" lon="-3.95309">
        <ele>280</ele>
        <time>2021-09-12T10:59:15Z</time>
      </trkpt>
      <trkpt lat="48.39474" lon="-3.95314">
        <ele>279.79998779297</ele>
        <time>2021-09-12T10:59:16Z</time>
      </trkpt>
      <trkpt lat="48.39473" lon="-3.95319">
        <ele>279.60000610352</ele>
        <time>2021-09-12T10:59:17Z</time>
      </trkpt>
      <trkpt lat="48.39472" lon="-3.95325">
        <ele>279.60000610352</ele>
        <time>2021-09-12T10:59:18Z</time>
      </trkpt>
      <trkpt lat="48.39471" lon="-3.9533">
        <ele>279.60000610352</ele>
        <time>2021-09-12T10:59:19Z</time>
      </trkpt>
      <trkpt lat="48.3947" lon="-3.95335">
        <ele>279.60000610352</ele>
        <time>2021-09-12T10:59:20Z</time>
      </trkpt>
      <trkpt lat="48.39469" lon="-3.9534">
        <ele>279.60000610352</ele>
        <time>2021-09-12T10:59:21Z</time>
      </trkpt>
      <trkpt lat="48.39469" lon="-3.95345">
        <ele>279.60000610352</ele>
        <time>2021-09-12T10:59:22Z</time>
      </trkpt>
      <trkpt lat="48.39468" lon="-3.9535">
        <ele>279.39999389648</ele>
        <time>2021-09-12T10:59:23Z</time>
      </trkpt>
      <trkpt lat="48.39467" lon="-3.95356">
        <ele>279.39999389648</ele>
        <time>2021-09-12T10:59:24Z</time>
      </trkpt>
      <trkpt lat="48.39466" lon="-3.95361">
        <ele>279.39999389648</ele>
        <time>2021-09-12T10:59:25Z</time>
      </trkpt>
      <trkpt lat="48.39465" lon="-3.95366">
        <ele>279.39999389648</ele>
        <time>2021-09-12T10:59:26Z</time>
      </trkpt>
      <trkpt lat="48.39464" lon="-3.95371">
        <ele>279.39999389648</ele>
        <time>2021-09-12T10:59:27Z</time>
      </trkpt>
      <trkpt lat="48.39463" lon="-3.95376">
        <ele>279.39999389648</ele>
        <time>2021-09-12T10:59:28Z</time>
      </trkpt>
      <trkpt lat="48.39461" lon="-3.95383">
        <ele>279.39999389648</ele>
        <time>2021-09-12T10:59:29Z</time>
      </trkpt>
      <trkpt lat="48.3946" lon="-3.95388">
        <ele>279.39999389648</ele>
        <time>2021-09-12T10:59:30Z</time>
      </trkpt>
      <trkpt lat="48.39458" lon="-3.95394">
        <ele>279.60000610352</ele>
        <time>2021-09-12T10:59:31Z</time>
      </trkpt>
      <trkpt lat="48.39457" lon="-3.954">
        <ele>279.60000610352</ele>
        <time>2021-09-12T10:59:32Z</time>
      </trkpt>
      <trkpt lat="48.39456" lon="-3.95408">
        <ele>279.39999389648</ele>
        <time>2021-09-12T10:59:33Z</time>
      </trkpt>
      <trkpt lat="48.39455" lon="-3.95413">
        <ele>279.39999389648</ele>
        <time>2021-09-12T10:59:34Z</time>
      </trkpt>
      <trkpt lat="48.39454" lon="-3.95419">
        <ele>279.39999389648</ele>
        <time>2021-09-12T10:59:35Z</time>
      </trkpt>
      <trkpt lat="48.39453" lon="-3.95425">
        <ele>279.39999389648</ele>
        <time>2021-09-12T10:59:36Z</time>
      </trkpt>
      <trkpt lat="48.39452" lon="-3.95431">
        <ele>279.20001220703</ele>
        <time>2021-09-12T10:59:37Z</time>
      </trkpt>
      <trkpt lat="48.39451" lon="-3.95437">
        <ele>279.20001220703</ele>
        <time>2021-09-12T10:59:38Z</time>
      </trkpt>
      <trkpt lat="48.3945" lon="-3.95443">
        <ele>279.20001220703</ele>
        <time>2021-09-12T10:59:39Z</time>
      </trkpt>
      <trkpt lat="48.39449" lon="-3.95448">
        <ele>278.79998779297</ele>
        <time>2021-09-12T10:59:40Z</time>
      </trkpt>
      <trkpt lat="48.39447" lon="-3.95454">
        <ele>278.79998779297</ele>
        <time>2021-09-12T10:59:41Z</time>
      </trkpt>
      <trkpt lat="48.39445" lon="-3.95461">
        <ele>278.79998779297</ele>
        <time>2021-09-12T10:59:42Z</time>
      </trkpt>
      <trkpt lat="48.39443" lon="-3.95467">
        <ele>278.60000610352</ele>
        <time>2021-09-12T10:59:43Z</time>
      </trkpt>
      <trkpt lat="48.39442" lon="-3.95473">
        <ele>278.60000610352</ele>
        <time>2021-09-12T10:59:44Z</time>
      </trkpt>
      <trkpt lat="48.3944" lon="-3.95479">
        <ele>278.60000610352</ele>
        <time>2021-09-12T10:59:45Z</time>
      </trkpt>
      <trkpt lat="48.39438" lon="-3.95485">
        <ele>278.60000610352</ele>
        <time>2021-09-12T10:59:46Z</time>
      </trkpt>
      <trkpt lat="48.39436" lon="-3.95492">
        <ele>278.60000610352</ele>
        <time>2021-09-12T10:59:47Z</time>
      </trkpt>
      <trkpt lat="48.39435" lon="-3.95499">
        <ele>278.60000610352</ele>
        <time>2021-09-12T10:59:48Z</time>
      </trkpt>
      <trkpt lat="48.39433" lon="-3.95505">
        <ele>278.60000610352</ele>
        <time>2021-09-12T10:59:49Z</time>
      </trkpt>
      <trkpt lat="48.39431" lon="-3.95511">
        <ele>278.60000610352</ele>
        <time>2021-09-12T10:59:50Z</time>
      </trkpt>
      <trkpt lat="48.39429" lon="-3.95517">
        <ele>278.79998779297</ele>
        <time>2021-09-12T10:59:51Z</time>
      </trkpt>
      <trkpt lat="48.39427" lon="-3.95523">
        <ele>279</ele>
        <time>2021-09-12T10:59:52Z</time>
      </trkpt>
      <trkpt lat="48.39426" lon="-3.95528">
        <ele>279</ele>
        <time>2021-09-12T10:59:53Z</time>
      </trkpt>
      <trkpt lat="48.39425" lon="-3.95533">
        <ele>279</ele>
        <time>2021-09-12T10:59:54Z</time>
      </trkpt>
      <trkpt lat="48.39424" lon="-3.95539">
        <ele>279.20001220703</ele>
        <time>2021-09-12T10:59:55Z</time>
      </trkpt>
      <trkpt lat="48.39423" lon="-3.95544">
        <ele>279.39999389648</ele>
        <time>2021-09-12T10:59:56Z</time>
      </trkpt>
      <trkpt lat="48.39421" lon="-3.95549">
        <ele>279.39999389648</ele>
        <time>2021-09-12T10:59:57Z</time>
      </trkpt>
      <trkpt lat="48.39419" lon="-3.95556">
        <ele>279.39999389648</ele>
        <time>2021-09-12T10:59:58Z</time>
      </trkpt>
      <trkpt lat="48.39418" lon="-3.95561">
        <ele>279.79998779297</ele>
        <time>2021-09-12T10:59:59Z</time>
      </trkpt>
      <trkpt lat="48.39415" lon="-3.95566">
        <ele>280</ele>
        <time>2021-09-12T11:00:00Z</time>
      </trkpt>
      <trkpt lat="48.39414" lon="-3.95569">
        <ele>280</ele>
        <time>2021-09-12T11:00:01Z</time>
      </trkpt>
      <trkpt lat="48.39412" lon="-3.95574">
        <ele>280</ele>
        <time>2021-09-12T11:00:02Z</time>
      </trkpt>
      <trkpt lat="48.39409" lon="-3.9558">
        <ele>280.20001220703</ele>
        <time>2021-09-12T11:00:03Z</time>
      </trkpt>
      <trkpt lat="48.39407" lon="-3.95584">
        <ele>280.20001220703</ele>
        <time>2021-09-12T11:00:04Z</time>
      </trkpt>
      <trkpt lat="48.39405" lon="-3.95589">
        <ele>280.20001220703</ele>
        <time>2021-09-12T11:00:05Z</time>
      </trkpt>
      <trkpt lat="48.39403" lon="-3.95595">
        <ele>280.20001220703</ele>
        <time>2021-09-12T11:00:06Z</time>
      </trkpt>
      <trkpt lat="48.39401" lon="-3.956">
        <ele>280.20001220703</ele>
        <time>2021-09-12T11:00:07Z</time>
      </trkpt>
      <trkpt lat="48.394" lon="-3.95605">
        <ele>280.20001220703</ele>
        <time>2021-09-12T11:00:08Z</time>
      </trkpt>
      <trkpt lat="48.39398" lon="-3.9561">
        <ele>280.20001220703</ele>
        <time>2021-09-12T11:00:09Z</time>
      </trkpt>
      <trkpt lat="48.39398" lon="-3.95615">
        <ele>280.20001220703</ele>
        <time>2021-09-12T11:00:10Z</time>
      </trkpt>
      <trkpt lat="48.39397" lon="-3.95621">
        <ele>280.20001220703</ele>
        <time>2021-09-12T11:00:11Z</time>
      </trkpt>
      <trkpt lat="48.39396" lon="-3.95627">
        <ele>279.79998779297</ele>
        <time>2021-09-12T11:00:12Z</time>
      </trkpt>
      <trkpt lat="48.39396" lon="-3.95633">
        <ele>279.60000610352</ele>
        <time>2021-09-12T11:00:13Z</time>
      </trkpt>
      <trkpt lat="48.39396" lon="-3.9564">
        <ele>279.39999389648</ele>
        <time>2021-09-12T11:00:14Z</time>
      </trkpt>
      <trkpt lat="48.39394" lon="-3.95647">
        <ele>279.20001220703</ele>
        <time>2021-09-12T11:00:15Z</time>
      </trkpt>
      <trkpt lat="48.39393" lon="-3.95654">
        <ele>279</ele>
        <time>2021-09-12T11:00:16Z</time>
      </trkpt>
      <trkpt lat="48.39391" lon="-3.95661">
        <ele>278.79998779297</ele>
        <time>2021-09-12T11:00:17Z</time>
      </trkpt>
      <trkpt lat="48.39389" lon="-3.95667">
        <ele>278.60000610352</ele>
        <time>2021-09-12T11:00:18Z</time>
      </trkpt>
      <trkpt lat="48.39388" lon="-3.95673">
        <ele>278.39999389648</ele>
        <time>2021-09-12T11:00:19Z</time>
      </trkpt>
      <trkpt lat="48.39387" lon="-3.95679">
        <ele>278.39999389648</ele>
        <time>2021-09-12T11:00:20Z</time>
      </trkpt>
      <trkpt lat="48.39386" lon="-3.95685">
        <ele>278.20001220703</ele>
        <time>2021-09-12T11:00:21Z</time>
      </trkpt>
      <trkpt lat="48.39385" lon="-3.95693">
        <ele>278</ele>
        <time>2021-09-12T11:00:22Z</time>
      </trkpt>
      <trkpt lat="48.39384" lon="-3.957">
        <ele>277.20001220703</ele>
        <time>2021-09-12T11:00:23Z</time>
      </trkpt>
      <trkpt lat="48.39384" lon="-3.95705">
        <ele>277</ele>
        <time>2021-09-12T11:00:24Z</time>
      </trkpt>
      <trkpt lat="48.39383" lon="-3.95712">
        <ele>277</ele>
        <time>2021-09-12T11:00:25Z</time>
      </trkpt>
      <trkpt lat="48.39381" lon="-3.95718">
        <ele>277</ele>
        <time>2021-09-12T11:00:26Z</time>
      </trkpt>
      <trkpt lat="48.3938" lon="-3.95724">
        <ele>276.79998779297</ele>
        <time>2021-09-12T11:00:27Z</time>
      </trkpt>
      <trkpt lat="48.39378" lon="-3.9573">
        <ele>277</ele>
        <time>2021-09-12T11:00:28Z</time>
      </trkpt>
      <trkpt lat="48.39377" lon="-3.95736">
        <ele>277</ele>
        <time>2021-09-12T11:00:29Z</time>
      </trkpt>
      <trkpt lat="48.39375" lon="-3.95742">
        <ele>277</ele>
        <time>2021-09-12T11:00:30Z</time>
      </trkpt>
      <trkpt lat="48.39372" lon="-3.95748">
        <ele>277</ele>
        <time>2021-09-12T11:00:31Z</time>
      </trkpt>
      <trkpt lat="48.3937" lon="-3.95754">
        <ele>277.20001220703</ele>
        <time>2021-09-12T11:00:32Z</time>
      </trkpt>
      <trkpt lat="48.39368" lon="-3.9576">
        <ele>277.20001220703</ele>
        <time>2021-09-12T11:00:33Z</time>
      </trkpt>
      <trkpt lat="48.39366" lon="-3.95767">
        <ele>277.39999389648</ele>
        <time>2021-09-12T11:00:34Z</time>
      </trkpt>
      <trkpt lat="48.39365" lon="-3.95773">
        <ele>277.39999389648</ele>
        <time>2021-09-12T11:00:35Z</time>
      </trkpt>
      <trkpt lat="48.39363" lon="-3.95779">
        <ele>277.39999389648</ele>
        <time>2021-09-12T11:00:36Z</time>
      </trkpt>
      <trkpt lat="48.39361" lon="-3.95784">
        <ele>277.39999389648</ele>
        <time>2021-09-12T11:00:37Z</time>
      </trkpt>
      <trkpt lat="48.39359" lon="-3.9579">
        <ele>277.39999389648</ele>
        <time>2021-09-12T11:00:38Z</time>
      </trkpt>
      <trkpt lat="48.39357" lon="-3.95796">
        <ele>277.39999389648</ele>
        <time>2021-09-12T11:00:39Z</time>
      </trkpt>
      <trkpt lat="48.39355" lon="-3.95801">
        <ele>277.39999389648</ele>
        <time>2021-09-12T11:00:40Z</time>
      </trkpt>
      <trkpt lat="48.39352" lon="-3.95807">
        <ele>277.39999389648</ele>
        <time>2021-09-12T11:00:41Z</time>
      </trkpt>
      <trkpt lat="48.3935" lon="-3.95812">
        <ele>277.60000610352</ele>
        <time>2021-09-12T11:00:42Z</time>
      </trkpt>
      <trkpt lat="48.39348" lon="-3.95818">
        <ele>278</ele>
        <time>2021-09-12T11:00:43Z</time>
      </trkpt>
      <trkpt lat="48.39345" lon="-3.95822">
        <ele>278</ele>
        <time>2021-09-12T11:00:44Z</time>
      </trkpt>
      <trkpt lat="48.39343" lon="-3.95827">
        <ele>278.20001220703</ele>
        <time>2021-09-12T11:00:45Z</time>
      </trkpt>
      <trkpt lat="48.39341" lon="-3.95831">
        <ele>278.20001220703</ele>
        <time>2021-09-12T11:00:46Z</time>
      </trkpt>
      <trkpt lat="48.39339" lon="-3.95836">
        <ele>278.20001220703</ele>
        <time>2021-09-12T11:00:47Z</time>
      </trkpt>
      <trkpt lat="48.39338" lon="-3.95841">
        <ele>278.20001220703</ele>
        <time>2021-09-12T11:00:48Z</time>
      </trkpt>
      <trkpt lat="48.39336" lon="-3.95846">
        <ele>278.20001220703</ele>
        <time>2021-09-12T11:00:49Z</time>
      </trkpt>
      <trkpt lat="48.39335" lon="-3.9585">
        <ele>278.39999389648</ele>
        <time>2021-09-12T11:00:50Z</time>
      </trkpt>
      <trkpt lat="48.39333" lon="-3.95855">
        <ele>278.39999389648</ele>
        <time>2021-09-12T11:00:51Z</time>
      </trkpt>
      <trkpt lat="48.39332" lon="-3.9586">
        <ele>278.39999389648</ele>
        <time>2021-09-12T11:00:52Z</time>
      </trkpt>
      <trkpt lat="48.39331" lon="-3.95864">
        <ele>278.39999389648</ele>
        <time>2021-09-12T11:00:53Z</time>
      </trkpt>
      <trkpt lat="48.39331" lon="-3.95869">
        <ele>278.39999389648</ele>
        <time>2021-09-12T11:00:54Z</time>
      </trkpt>
      <trkpt lat="48.3933" lon="-3.95874">
        <ele>278.60000610352</ele>
        <time>2021-09-12T11:00:55Z</time>
      </trkpt>
      <trkpt lat="48.39329" lon="-3.95879">
        <ele>278.60000610352</ele>
        <time>2021-09-12T11:00:56Z</time>
      </trkpt>
      <trkpt lat="48.39328" lon="-3.95884">
        <ele>278.60000610352</ele>
        <time>2021-09-12T11:00:57Z</time>
      </trkpt>
      <trkpt lat="48.39326" lon="-3.9589">
        <ele>278.60000610352</ele>
        <time>2021-09-12T11:00:58Z</time>
      </trkpt>
      <trkpt lat="48.39325" lon="-3.95895">
        <ele>278.60000610352</ele>
        <time>2021-09-12T11:00:59Z</time>
      </trkpt>
      <trkpt lat="48.39323" lon="-3.95901">
        <ele>278.60000610352</ele>
        <time>2021-09-12T11:01:00Z</time>
      </trkpt>
      <trkpt lat="48.39321" lon="-3.95906">
        <ele>278.60000610352</ele>
        <time>2021-09-12T11:01:01Z</time>
      </trkpt>
      <trkpt lat="48.39319" lon="-3.95911">
        <ele>278.39999389648</ele>
        <time>2021-09-12T11:01:02Z</time>
      </trkpt>
      <trkpt lat="48.39317" lon="-3.95916">
        <ele>278.39999389648</ele>
        <time>2021-09-12T11:01:03Z</time>
      </trkpt>
      <trkpt lat="48.39315" lon="-3.95921">
        <ele>278.39999389648</ele>
        <time>2021-09-12T11:01:04Z</time>
      </trkpt>
      <trkpt lat="48.39314" lon="-3.95926">
        <ele>278.39999389648</ele>
        <time>2021-09-12T11:01:05Z</time>
      </trkpt>
      <trkpt lat="48.39312" lon="-3.95932">
        <ele>278.39999389648</ele>
        <time>2021-09-12T11:01:06Z</time>
      </trkpt>
      <trkpt lat="48.39311" lon="-3.95937">
        <ele>278.39999389648</ele>
        <time>2021-09-12T11:01:07Z</time>
      </trkpt>
      <trkpt lat="48.3931" lon="-3.95942">
        <ele>278.20001220703</ele>
        <time>2021-09-12T11:01:08Z</time>
      </trkpt>
      <trkpt lat="48.39308" lon="-3.95947">
        <ele>278.39999389648</ele>
        <time>2021-09-12T11:01:09Z</time>
      </trkpt>
      <trkpt lat="48.39306" lon="-3.95953">
        <ele>278.20001220703</ele>
        <time>2021-09-12T11:01:10Z</time>
      </trkpt>
      <trkpt lat="48.39305" lon="-3.95958">
        <ele>278</ele>
        <time>2021-09-12T11:01:11Z</time>
      </trkpt>
      <trkpt lat="48.39303" lon="-3.95964">
        <ele>278</ele>
        <time>2021-09-12T11:01:12Z</time>
      </trkpt>
      <trkpt lat="48.39301" lon="-3.95969">
        <ele>277.79998779297</ele>
        <time>2021-09-12T11:01:13Z</time>
      </trkpt>
      <trkpt lat="48.39299" lon="-3.95974">
        <ele>277.79998779297</ele>
        <time>2021-09-12T11:01:14Z</time>
      </trkpt>
      <trkpt lat="48.39297" lon="-3.95979">
        <ele>277.60000610352</ele>
        <time>2021-09-12T11:01:15Z</time>
      </trkpt>
      <trkpt lat="48.39294" lon="-3.95984">
        <ele>277.20001220703</ele>
        <time>2021-09-12T11:01:16Z</time>
      </trkpt>
      <trkpt lat="48.39292" lon="-3.95988">
        <ele>277.20001220703</ele>
        <time>2021-09-12T11:01:17Z</time>
      </trkpt>
      <trkpt lat="48.3929" lon="-3.95993">
        <ele>277.20001220703</ele>
        <time>2021-09-12T11:01:18Z</time>
      </trkpt>
      <trkpt lat="48.39289" lon="-3.95999">
        <ele>277</ele>
        <time>2021-09-12T11:01:19Z</time>
      </trkpt>
      <trkpt lat="48.39287" lon="-3.96007">
        <ele>276.79998779297</ele>
        <time>2021-09-12T11:01:20Z</time>
      </trkpt>
      <trkpt lat="48.39285" lon="-3.96012">
        <ele>276.20001220703</ele>
        <time>2021-09-12T11:01:21Z</time>
      </trkpt>
      <trkpt lat="48.39283" lon="-3.96018">
        <ele>275.79998779297</ele>
        <time>2021-09-12T11:01:22Z</time>
      </trkpt>
      <trkpt lat="48.3928" lon="-3.96025">
        <ele>275.79998779297</ele>
        <time>2021-09-12T11:01:23Z</time>
      </trkpt>
      <trkpt lat="48.39279" lon="-3.9603">
        <ele>275.60000610352</ele>
        <time>2021-09-12T11:01:24Z</time>
      </trkpt>
      <trkpt lat="48.39278" lon="-3.96034">
        <ele>275.60000610352</ele>
        <time>2021-09-12T11:01:25Z</time>
      </trkpt>
      <trkpt lat="48.39279" lon="-3.96038">
        <ele>275</ele>
        <time>2021-09-12T11:01:26Z</time>
      </trkpt>
      <trkpt lat="48.39281" lon="-3.96042">
        <ele>274.79998779297</ele>
        <time>2021-09-12T11:01:27Z</time>
      </trkpt>
      <trkpt lat="48.39283" lon="-3.96048">
        <ele>274.79998779297</ele>
        <time>2021-09-12T11:01:28Z</time>
      </trkpt>
      <trkpt lat="48.39285" lon="-3.96055">
        <ele>274.20001220703</ele>
        <time>2021-09-12T11:01:29Z</time>
      </trkpt>
      <trkpt lat="48.39287" lon="-3.96062">
        <ele>274</ele>
        <time>2021-09-12T11:01:30Z</time>
      </trkpt>
      <trkpt lat="48.39289" lon="-3.96071">
        <ele>273.20001220703</ele>
        <time>2021-09-12T11:01:31Z</time>
      </trkpt>
      <trkpt lat="48.39291" lon="-3.96079">
        <ele>272</ele>
        <time>2021-09-12T11:01:32Z</time>
      </trkpt>
      <trkpt lat="48.39293" lon="-3.96091">
        <ele>271.20001220703</ele>
        <time>2021-09-12T11:01:33Z</time>
      </trkpt>
      <trkpt lat="48.39294" lon="-3.96099">
        <ele>269.39999389648</ele>
        <time>2021-09-12T11:01:34Z</time>
      </trkpt>
      <trkpt lat="48.39295" lon="-3.96109">
        <ele>269.39999389648</ele>
        <time>2021-09-12T11:01:35Z</time>
      </trkpt>
      <trkpt lat="48.39296" lon="-3.96119">
        <ele>268.20001220703</ele>
        <time>2021-09-12T11:01:36Z</time>
      </trkpt>
      <trkpt lat="48.39296" lon="-3.9613">
        <ele>268</ele>
        <time>2021-09-12T11:01:37Z</time>
      </trkpt>
      <trkpt lat="48.39295" lon="-3.96144">
        <ele>266.39999389648</ele>
        <time>2021-09-12T11:01:38Z</time>
      </trkpt>
      <trkpt lat="48.39294" lon="-3.96155">
        <ele>265.79998779297</ele>
        <time>2021-09-12T11:01:39Z</time>
      </trkpt>
      <trkpt lat="48.39294" lon="-3.96166">
        <ele>265.60000610352</ele>
        <time>2021-09-12T11:01:40Z</time>
      </trkpt>
      <trkpt lat="48.39293" lon="-3.96178">
        <ele>265.20001220703</ele>
        <time>2021-09-12T11:01:41Z</time>
      </trkpt>
      <trkpt lat="48.39293" lon="-3.96187">
        <ele>265.20001220703</ele>
        <time>2021-09-12T11:01:42Z</time>
      </trkpt>
      <trkpt lat="48.39293" lon="-3.96199">
        <ele>263.79998779297</ele>
        <time>2021-09-12T11:01:43Z</time>
      </trkpt>
      <trkpt lat="48.39292" lon="-3.96211">
        <ele>263</ele>
        <time>2021-09-12T11:01:44Z</time>
      </trkpt>
      <trkpt lat="48.39291" lon="-3.96222">
        <ele>262.39999389648</ele>
        <time>2021-09-12T11:01:45Z</time>
      </trkpt>
      <trkpt lat="48.39289" lon="-3.96232">
        <ele>262.39999389648</ele>
        <time>2021-09-12T11:01:46Z</time>
      </trkpt>
      <trkpt lat="48.39287" lon="-3.96241">
        <ele>262</ele>
        <time>2021-09-12T11:01:47Z</time>
      </trkpt>
      <trkpt lat="48.39285" lon="-3.9625">
        <ele>261.79998779297</ele>
        <time>2021-09-12T11:01:48Z</time>
      </trkpt>
      <trkpt lat="48.39286" lon="-3.96257">
        <ele>261.20001220703</ele>
        <time>2021-09-12T11:01:49Z</time>
      </trkpt>
      <trkpt lat="48.39288" lon="-3.96261">
        <ele>260.60000610352</ele>
        <time>2021-09-12T11:01:50Z</time>
      </trkpt>
      <trkpt lat="48.39294" lon="-3.96266">
        <ele>260.39999389648</ele>
        <time>2021-09-12T11:01:51Z</time>
      </trkpt>
      <trkpt lat="48.39298" lon="-3.9627">
        <ele>259.79998779297</ele>
        <time>2021-09-12T11:01:52Z</time>
      </trkpt>
      <trkpt lat="48.39303" lon="-3.96275">
        <ele>259.39999389648</ele>
        <time>2021-09-12T11:01:53Z</time>
      </trkpt>
      <trkpt lat="48.39307" lon="-3.96281">
        <ele>258.79998779297</ele>
        <time>2021-09-12T11:01:54Z</time>
      </trkpt>
      <trkpt lat="48.39312" lon="-3.96289">
        <ele>258.20001220703</ele>
        <time>2021-09-12T11:01:55Z</time>
      </trkpt>
      <trkpt lat="48.39317" lon="-3.96297">
        <ele>257.20001220703</ele>
        <time>2021-09-12T11:01:56Z</time>
      </trkpt>
      <trkpt lat="48.39322" lon="-3.96305">
        <ele>256.39999389648</ele>
        <time>2021-09-12T11:01:57Z</time>
      </trkpt>
      <trkpt lat="48.39327" lon="-3.96313">
        <ele>255.60000610352</ele>
        <time>2021-09-12T11:01:58Z</time>
      </trkpt>
      <trkpt lat="48.39332" lon="-3.96321">
        <ele>255</ele>
        <time>2021-09-12T11:01:59Z</time>
      </trkpt>
      <trkpt lat="48.39337" lon="-3.96329">
        <ele>253.80000305176</ele>
        <time>2021-09-12T11:02:00Z</time>
      </trkpt>
      <trkpt lat="48.39343" lon="-3.96338">
        <ele>253.39999389648</ele>
        <time>2021-09-12T11:02:01Z</time>
      </trkpt>
      <trkpt lat="48.39348" lon="-3.96346">
        <ele>251.80000305176</ele>
        <time>2021-09-12T11:02:02Z</time>
      </trkpt>
      <trkpt lat="48.39354" lon="-3.96355">
        <ele>251</ele>
        <time>2021-09-12T11:02:03Z</time>
      </trkpt>
      <trkpt lat="48.39361" lon="-3.96365">
        <ele>250.60000610352</ele>
        <time>2021-09-12T11:02:04Z</time>
      </trkpt>
      <trkpt lat="48.39365" lon="-3.96371">
        <ele>249.19999694824</ele>
        <time>2021-09-12T11:02:05Z</time>
      </trkpt>
      <trkpt lat="48.3937" lon="-3.96379">
        <ele>248.39999389648</ele>
        <time>2021-09-12T11:02:06Z</time>
      </trkpt>
      <trkpt lat="48.39375" lon="-3.96387">
        <ele>247.60000610352</ele>
        <time>2021-09-12T11:02:07Z</time>
      </trkpt>
      <trkpt lat="48.3938" lon="-3.96395">
        <ele>246.80000305176</ele>
        <time>2021-09-12T11:02:08Z</time>
      </trkpt>
      <trkpt lat="48.39385" lon="-3.96402">
        <ele>246.60000610352</ele>
        <time>2021-09-12T11:02:09Z</time>
      </trkpt>
      <trkpt lat="48.3939" lon="-3.96409">
        <ele>245</ele>
        <time>2021-09-12T11:02:10Z</time>
      </trkpt>
      <trkpt lat="48.39396" lon="-3.96417">
        <ele>244.39999389648</ele>
        <time>2021-09-12T11:02:11Z</time>
      </trkpt>
      <trkpt lat="48.39401" lon="-3.96426">
        <ele>243.60000610352</ele>
        <time>2021-09-12T11:02:12Z</time>
      </trkpt>
      <trkpt lat="48.39406" lon="-3.96435">
        <ele>242.60000610352</ele>
        <time>2021-09-12T11:02:13Z</time>
      </trkpt>
      <trkpt lat="48.39411" lon="-3.96443">
        <ele>242.19999694824</ele>
        <time>2021-09-12T11:02:14Z</time>
      </trkpt>
      <trkpt lat="48.39416" lon="-3.96453">
        <ele>241.39999389648</ele>
        <time>2021-09-12T11:02:15Z</time>
      </trkpt>
      <trkpt lat="48.3942" lon="-3.96461">
        <ele>241.19999694824</ele>
        <time>2021-09-12T11:02:16Z</time>
      </trkpt>
      <trkpt lat="48.39425" lon="-3.96468">
        <ele>239.39999389648</ele>
        <time>2021-09-12T11:02:17Z</time>
      </trkpt>
      <trkpt lat="48.39429" lon="-3.96473">
        <ele>238.19999694824</ele>
        <time>2021-09-12T11:02:18Z</time>
      </trkpt>
      <trkpt lat="48.39433" lon="-3.96479">
        <ele>238.19999694824</ele>
        <time>2021-09-12T11:02:19Z</time>
      </trkpt>
      <trkpt lat="48.39437" lon="-3.96485">
        <ele>237.60000610352</ele>
        <time>2021-09-12T11:02:20Z</time>
      </trkpt>
      <trkpt lat="48.39442" lon="-3.96492">
        <ele>236.80000305176</ele>
        <time>2021-09-12T11:02:21Z</time>
      </trkpt>
      <trkpt lat="48.39446" lon="-3.96501">
        <ele>236.60000610352</ele>
        <time>2021-09-12T11:02:22Z</time>
      </trkpt>
      <trkpt lat="48.39449" lon="-3.96511">
        <ele>235.19999694824</ele>
        <time>2021-09-12T11:02:23Z</time>
      </trkpt>
      <trkpt lat="48.39454" lon="-3.96524">
        <ele>234.80000305176</ele>
        <time>2021-09-12T11:02:24Z</time>
      </trkpt>
      <trkpt lat="48.39459" lon="-3.96534">
        <ele>234.60000610352</ele>
        <time>2021-09-12T11:02:25Z</time>
      </trkpt>
      <trkpt lat="48.39465" lon="-3.96543">
        <ele>234</ele>
        <time>2021-09-12T11:02:26Z</time>
      </trkpt>
      <trkpt lat="48.39472" lon="-3.96551">
        <ele>233</ele>
        <time>2021-09-12T11:02:27Z</time>
      </trkpt>
      <trkpt lat="48.39478" lon="-3.96559">
        <ele>232.19999694824</ele>
        <time>2021-09-12T11:02:28Z</time>
      </trkpt>
      <trkpt lat="48.39485" lon="-3.96568">
        <ele>231.80000305176</ele>
        <time>2021-09-12T11:02:29Z</time>
      </trkpt>
      <trkpt lat="48.39491" lon="-3.96576">
        <ele>231.60000610352</ele>
        <time>2021-09-12T11:02:30Z</time>
      </trkpt>
      <trkpt lat="48.39497" lon="-3.96583">
        <ele>231.19999694824</ele>
        <time>2021-09-12T11:02:31Z</time>
      </trkpt>
      <trkpt lat="48.39504" lon="-3.96593">
        <ele>230.60000610352</ele>
        <time>2021-09-12T11:02:32Z</time>
      </trkpt>
      <trkpt lat="48.39509" lon="-3.966">
        <ele>230.39999389648</ele>
        <time>2021-09-12T11:02:33Z</time>
      </trkpt>
      <trkpt lat="48.39515" lon="-3.96608">
        <ele>230</ele>
        <time>2021-09-12T11:02:34Z</time>
      </trkpt>
      <trkpt lat="48.39522" lon="-3.9662">
        <ele>230</ele>
        <time>2021-09-12T11:02:35Z</time>
      </trkpt>
      <trkpt lat="48.39526" lon="-3.96628">
        <ele>229.19999694824</ele>
        <time>2021-09-12T11:02:36Z</time>
      </trkpt>
      <trkpt lat="48.39531" lon="-3.96637">
        <ele>229</ele>
        <time>2021-09-12T11:02:37Z</time>
      </trkpt>
      <trkpt lat="48.39537" lon="-3.96647">
        <ele>228.19999694824</ele>
        <time>2021-09-12T11:02:38Z</time>
      </trkpt>
      <trkpt lat="48.39543" lon="-3.96658">
        <ele>227.19999694824</ele>
        <time>2021-09-12T11:02:39Z</time>
      </trkpt>
      <trkpt lat="48.39549" lon="-3.96668">
        <ele>227</ele>
        <time>2021-09-12T11:02:40Z</time>
      </trkpt>
      <trkpt lat="48.39555" lon="-3.96678">
        <ele>226</ele>
        <time>2021-09-12T11:02:41Z</time>
      </trkpt>
      <trkpt lat="48.39561" lon="-3.96687">
        <ele>226</ele>
        <time>2021-09-12T11:02:42Z</time>
      </trkpt>
      <trkpt lat="48.39567" lon="-3.96696">
        <ele>225</ele>
        <time>2021-09-12T11:02:43Z</time>
      </trkpt>
      <trkpt lat="48.39571" lon="-3.96703">
        <ele>224.60000610352</ele>
        <time>2021-09-12T11:02:44Z</time>
      </trkpt>
      <trkpt lat="48.39575" lon="-3.9671">
        <ele>224.19999694824</ele>
        <time>2021-09-12T11:02:45Z</time>
      </trkpt>
      <trkpt lat="48.3958" lon="-3.96717">
        <ele>224</ele>
        <time>2021-09-12T11:02:46Z</time>
      </trkpt>
      <trkpt lat="48.39585" lon="-3.96723">
        <ele>223.19999694824</ele>
        <time>2021-09-12T11:02:47Z</time>
      </trkpt>
      <trkpt lat="48.3959" lon="-3.9673">
        <ele>222.80000305176</ele>
        <time>2021-09-12T11:02:48Z</time>
      </trkpt>
      <trkpt lat="48.39596" lon="-3.96737">
        <ele>222.19999694824</ele>
        <time>2021-09-12T11:02:49Z</time>
      </trkpt>
      <trkpt lat="48.39601" lon="-3.96743">
        <ele>221.39999389648</ele>
        <time>2021-09-12T11:02:50Z</time>
      </trkpt>
      <trkpt lat="48.39607" lon="-3.9675">
        <ele>221.39999389648</ele>
        <time>2021-09-12T11:02:51Z</time>
      </trkpt>
      <trkpt lat="48.39612" lon="-3.96756">
        <ele>221</ele>
        <time>2021-09-12T11:02:52Z</time>
      </trkpt>
      <trkpt lat="48.39618" lon="-3.96762">
        <ele>220.80000305176</ele>
        <time>2021-09-12T11:02:53Z</time>
      </trkpt>
      <trkpt lat="48.39624" lon="-3.9677">
        <ele>220.39999389648</ele>
        <time>2021-09-12T11:02:54Z</time>
      </trkpt>
      <trkpt lat="48.3963" lon="-3.96776">
        <ele>219.60000610352</ele>
        <time>2021-09-12T11:02:55Z</time>
      </trkpt>
      <trkpt lat="48.39635" lon="-3.96783">
        <ele>219.39999389648</ele>
        <time>2021-09-12T11:02:56Z</time>
      </trkpt>
      <trkpt lat="48.3964" lon="-3.96788">
        <ele>219.39999389648</ele>
        <time>2021-09-12T11:02:57Z</time>
      </trkpt>
      <trkpt lat="48.39646" lon="-3.96795">
        <ele>218.60000610352</ele>
        <time>2021-09-12T11:02:58Z</time>
      </trkpt>
      <trkpt lat="48.39652" lon="-3.96801">
        <ele>218.19999694824</ele>
        <time>2021-09-12T11:02:59Z</time>
      </trkpt>
      <trkpt lat="48.39659" lon="-3.96808">
        <ele>217.60000610352</ele>
        <time>2021-09-12T11:03:00Z</time>
      </trkpt>
      <trkpt lat="48.39665" lon="-3.96815">
        <ele>217.39999389648</ele>
        <time>2021-09-12T11:03:01Z</time>
      </trkpt>
      <trkpt lat="48.3967" lon="-3.9682">
        <ele>217.39999389648</ele>
        <time>2021-09-12T11:03:02Z</time>
      </trkpt>
      <trkpt lat="48.39675" lon="-3.96827">
        <ele>217</ele>
        <time>2021-09-12T11:03:03Z</time>
      </trkpt>
      <trkpt lat="48.39681" lon="-3.96833">
        <ele>216.39999389648</ele>
        <time>2021-09-12T11:03:04Z</time>
      </trkpt>
      <trkpt lat="48.39687" lon="-3.96841">
        <ele>216.39999389648</ele>
        <time>2021-09-12T11:03:05Z</time>
      </trkpt>
      <trkpt lat="48.39693" lon="-3.96848">
        <ele>216.19999694824</ele>
        <time>2021-09-12T11:03:06Z</time>
      </trkpt>
      <trkpt lat="48.39697" lon="-3.96853">
        <ele>216.19999694824</ele>
        <time>2021-09-12T11:03:07Z</time>
      </trkpt>
      <trkpt lat="48.39702" lon="-3.9686">
        <ele>216.19999694824</ele>
        <time>2021-09-12T11:03:08Z</time>
      </trkpt>
      <trkpt lat="48.39709" lon="-3.96868">
        <ele>215</ele>
        <time>2021-09-12T11:03:09Z</time>
      </trkpt>
      <trkpt lat="48.39714" lon="-3.96875">
        <ele>214.80000305176</ele>
        <time>2021-09-12T11:03:10Z</time>
      </trkpt>
      <trkpt lat="48.39719" lon="-3.96882">
        <ele>214.80000305176</ele>
        <time>2021-09-12T11:03:11Z</time>
      </trkpt>
      <trkpt lat="48.39724" lon="-3.96887">
        <ele>214.39999389648</ele>
        <time>2021-09-12T11:03:12Z</time>
      </trkpt>
      <trkpt lat="48.3973" lon="-3.96892">
        <ele>214.19999694824</ele>
        <time>2021-09-12T11:03:13Z</time>
      </trkpt>
      <trkpt lat="48.39737" lon="-3.96898">
        <ele>214.19999694824</ele>
        <time>2021-09-12T11:03:14Z</time>
      </trkpt>
      <trkpt lat="48.39744" lon="-3.96902">
        <ele>214</ele>
        <time>2021-09-12T11:03:15Z</time>
      </trkpt>
      <trkpt lat="48.3975" lon="-3.96906">
        <ele>213.80000305176</ele>
        <time>2021-09-12T11:03:16Z</time>
      </trkpt>
      <trkpt lat="48.39756" lon="-3.9691">
        <ele>213.60000610352</ele>
        <time>2021-09-12T11:03:17Z</time>
      </trkpt>
      <trkpt lat="48.39759" lon="-3.96913">
        <ele>213.39999389648</ele>
        <time>2021-09-12T11:03:18Z</time>
      </trkpt>
      <trkpt lat="48.39763" lon="-3.96918">
        <ele>212.39999389648</ele>
        <time>2021-09-12T11:03:19Z</time>
      </trkpt>
      <trkpt lat="48.39765" lon="-3.96922">
        <ele>211.60000610352</ele>
        <time>2021-09-12T11:03:20Z</time>
      </trkpt>
      <trkpt lat="48.39767" lon="-3.96926">
        <ele>211.60000610352</ele>
        <time>2021-09-12T11:03:21Z</time>
      </trkpt>
      <trkpt lat="48.39767" lon="-3.96928">
        <ele>211.60000610352</ele>
        <time>2021-09-12T11:03:22Z</time>
      </trkpt>
      <trkpt lat="48.39767" lon="-3.96932">
        <ele>211.60000610352</ele>
        <time>2021-09-12T11:03:23Z</time>
      </trkpt>
      <trkpt lat="48.39766" lon="-3.96935">
        <ele>211.60000610352</ele>
        <time>2021-09-12T11:03:24Z</time>
      </trkpt>
      <trkpt lat="48.39764" lon="-3.96937">
        <ele>211.60000610352</ele>
        <time>2021-09-12T11:03:25Z</time>
      </trkpt>
      <trkpt lat="48.39761" lon="-3.96938">
        <ele>211.60000610352</ele>
        <time>2021-09-12T11:03:26Z</time>
      </trkpt>
      <trkpt lat="48.39759" lon="-3.96939">
        <ele>211.80000305176</ele>
        <time>2021-09-12T11:03:27Z</time>
      </trkpt>
      <trkpt lat="48.39756" lon="-3.96941">
        <ele>211.80000305176</ele>
        <time>2021-09-12T11:03:28Z</time>
      </trkpt>
      <trkpt lat="48.39754" lon="-3.96943">
        <ele>212.39999389648</ele>
        <time>2021-09-12T11:03:29Z</time>
      </trkpt>
      <trkpt lat="48.39752" lon="-3.96946">
        <ele>212.60000610352</ele>
        <time>2021-09-12T11:03:30Z</time>
      </trkpt>
      <trkpt lat="48.39751" lon="-3.96948">
        <ele>212.60000610352</ele>
        <time>2021-09-12T11:03:31Z</time>
      </trkpt>
      <trkpt lat="48.39749" lon="-3.9695">
        <ele>212.60000610352</ele>
        <time>2021-09-12T11:03:32Z</time>
      </trkpt>
      <trkpt lat="48.39747" lon="-3.96952">
        <ele>212.60000610352</ele>
        <time>2021-09-12T11:03:33Z</time>
      </trkpt>
      <trkpt lat="48.39745" lon="-3.96953">
        <ele>212.60000610352</ele>
        <time>2021-09-12T11:03:34Z</time>
      </trkpt>
      <trkpt lat="48.39743" lon="-3.96954">
        <ele>213</ele>
        <time>2021-09-12T11:03:35Z</time>
      </trkpt>
      <trkpt lat="48.39741" lon="-3.96954">
        <ele>213</ele>
        <time>2021-09-12T11:03:36Z</time>
      </trkpt>
      <trkpt lat="48.39739" lon="-3.96956">
        <ele>213.19999694824</ele>
        <time>2021-09-12T11:03:37Z</time>
      </trkpt>
      <trkpt lat="48.39738" lon="-3.96958">
        <ele>213.39999389648</ele>
        <time>2021-09-12T11:03:38Z</time>
      </trkpt>
      <trkpt lat="48.39736" lon="-3.96962">
        <ele>213.39999389648</ele>
        <time>2021-09-12T11:03:39Z</time>
      </trkpt>
      <trkpt lat="48.39734" lon="-3.96964">
        <ele>213.39999389648</ele>
        <time>2021-09-12T11:03:40Z</time>
      </trkpt>
      <trkpt lat="48.39733" lon="-3.96966">
        <ele>213.60000610352</ele>
        <time>2021-09-12T11:03:41Z</time>
      </trkpt>
      <trkpt lat="48.3973" lon="-3.96969">
        <ele>213.80000305176</ele>
        <time>2021-09-12T11:03:42Z</time>
      </trkpt>
      <trkpt lat="48.39728" lon="-3.96972">
        <ele>214</ele>
        <time>2021-09-12T11:03:43Z</time>
      </trkpt>
      <trkpt lat="48.39725" lon="-3.96974">
        <ele>214</ele>
        <time>2021-09-12T11:03:44Z</time>
      </trkpt>
      <trkpt lat="48.39722" lon="-3.96977">
        <ele>214.19999694824</ele>
        <time>2021-09-12T11:03:45Z</time>
      </trkpt>
      <trkpt lat="48.3972" lon="-3.96979">
        <ele>214.39999389648</ele>
        <time>2021-09-12T11:03:46Z</time>
      </trkpt>
      <trkpt lat="48.39718" lon="-3.96982">
        <ele>214.60000610352</ele>
        <time>2021-09-12T11:03:47Z</time>
      </trkpt>
      <trkpt lat="48.39716" lon="-3.96984">
        <ele>214.60000610352</ele>
        <time>2021-09-12T11:03:48Z</time>
      </trkpt>
      <trkpt lat="48.39713" lon="-3.96988">
        <ele>215</ele>
        <time>2021-09-12T11:03:49Z</time>
      </trkpt>
      <trkpt lat="48.3971" lon="-3.96991">
        <ele>215</ele>
        <time>2021-09-12T11:03:50Z</time>
      </trkpt>
      <trkpt lat="48.39708" lon="-3.96994">
        <ele>215.39999389648</ele>
        <time>2021-09-12T11:03:51Z</time>
      </trkpt>
      <trkpt lat="48.39706" lon="-3.96996">
        <ele>215.60000610352</ele>
        <time>2021-09-12T11:03:52Z</time>
      </trkpt>
      <trkpt lat="48.39703" lon="-3.96999">
        <ele>215.60000610352</ele>
        <time>2021-09-12T11:03:53Z</time>
      </trkpt>
      <trkpt lat="48.397" lon="-3.97002">
        <ele>215.80000305176</ele>
        <time>2021-09-12T11:03:54Z</time>
      </trkpt>
      <trkpt lat="48.39698" lon="-3.97005">
        <ele>216</ele>
        <time>2021-09-12T11:03:55Z</time>
      </trkpt>
      <trkpt lat="48.39695" lon="-3.97009">
        <ele>216</ele>
        <time>2021-09-12T11:03:56Z</time>
      </trkpt>
      <trkpt lat="48.39693" lon="-3.97011">
        <ele>216.19999694824</ele>
        <time>2021-09-12T11:03:57Z</time>
      </trkpt>
      <trkpt lat="48.39691" lon="-3.97015">
        <ele>216.19999694824</ele>
        <time>2021-09-12T11:03:58Z</time>
      </trkpt>
      <trkpt lat="48.39688" lon="-3.97019">
        <ele>217</ele>
        <time>2021-09-12T11:03:59Z</time>
      </trkpt>
      <trkpt lat="48.39686" lon="-3.97022">
        <ele>217</ele>
        <time>2021-09-12T11:04:00Z</time>
      </trkpt>
      <trkpt lat="48.39684" lon="-3.97024">
        <ele>217.19999694824</ele>
        <time>2021-09-12T11:04:01Z</time>
      </trkpt>
      <trkpt lat="48.39682" lon="-3.97028">
        <ele>217.19999694824</ele>
        <time>2021-09-12T11:04:02Z</time>
      </trkpt>
      <trkpt lat="48.3968" lon="-3.97031">
        <ele>217.60000610352</ele>
        <time>2021-09-12T11:04:03Z</time>
      </trkpt>
      <trkpt lat="48.39677" lon="-3.97035">
        <ele>217.80000305176</ele>
        <time>2021-09-12T11:04:04Z</time>
      </trkpt>
      <trkpt lat="48.39674" lon="-3.97039">
        <ele>217.80000305176</ele>
        <time>2021-09-12T11:04:05Z</time>
      </trkpt>
      <trkpt lat="48.39673" lon="-3.97042">
        <ele>218</ele>
        <time>2021-09-12T11:04:06Z</time>
      </trkpt>
      <trkpt lat="48.39671" lon="-3.97046">
        <ele>218</ele>
        <time>2021-09-12T11:04:07Z</time>
      </trkpt>
      <trkpt lat="48.39668" lon="-3.97049">
        <ele>218.19999694824</ele>
        <time>2021-09-12T11:04:08Z</time>
      </trkpt>
      <trkpt lat="48.39666" lon="-3.97053">
        <ele>218.39999389648</ele>
        <time>2021-09-12T11:04:09Z</time>
      </trkpt>
      <trkpt lat="48.39664" lon="-3.97057">
        <ele>218.39999389648</ele>
        <time>2021-09-12T11:04:10Z</time>
      </trkpt>
      <trkpt lat="48.39661" lon="-3.97061">
        <ele>218.39999389648</ele>
        <time>2021-09-12T11:04:11Z</time>
      </trkpt>
      <trkpt lat="48.39659" lon="-3.97065">
        <ele>218.60000610352</ele>
        <time>2021-09-12T11:04:12Z</time>
      </trkpt>
      <trkpt lat="48.39657" lon="-3.97069">
        <ele>218.80000305176</ele>
        <time>2021-09-12T11:04:13Z</time>
      </trkpt>
      <trkpt lat="48.39655" lon="-3.97072">
        <ele>218.80000305176</ele>
        <time>2021-09-12T11:04:14Z</time>
      </trkpt>
      <trkpt lat="48.39652" lon="-3.97076">
        <ele>219</ele>
        <time>2021-09-12T11:04:15Z</time>
      </trkpt>
      <trkpt lat="48.3965" lon="-3.9708">
        <ele>219</ele>
        <time>2021-09-12T11:04:16Z</time>
      </trkpt>
      <trkpt lat="48.39648" lon="-3.97084">
        <ele>219</ele>
        <time>2021-09-12T11:04:17Z</time>
      </trkpt>
      <trkpt lat="48.39646" lon="-3.97088">
        <ele>219.39999389648</ele>
        <time>2021-09-12T11:04:18Z</time>
      </trkpt>
      <trkpt lat="48.39643" lon="-3.97093">
        <ele>219.39999389648</ele>
        <time>2021-09-12T11:04:19Z</time>
      </trkpt>
      <trkpt lat="48.3964" lon="-3.97097">
        <ele>219.60000610352</ele>
        <time>2021-09-12T11:04:20Z</time>
      </trkpt>
      <trkpt lat="48.39638" lon="-3.97102">
        <ele>219.80000305176</ele>
        <time>2021-09-12T11:04:21Z</time>
      </trkpt>
      <trkpt lat="48.39635" lon="-3.97106">
        <ele>219.80000305176</ele>
        <time>2021-09-12T11:04:22Z</time>
      </trkpt>
      <trkpt lat="48.39633" lon="-3.9711">
        <ele>220</ele>
        <time>2021-09-12T11:04:23Z</time>
      </trkpt>
      <trkpt lat="48.3963" lon="-3.97115">
        <ele>220.19999694824</ele>
        <time>2021-09-12T11:04:24Z</time>
      </trkpt>
      <trkpt lat="48.39628" lon="-3.97119">
        <ele>220.19999694824</ele>
        <time>2021-09-12T11:04:25Z</time>
      </trkpt>
      <trkpt lat="48.39625" lon="-3.97124">
        <ele>220.39999389648</ele>
        <time>2021-09-12T11:04:26Z</time>
      </trkpt>
      <trkpt lat="48.39623" lon="-3.97129">
        <ele>220.39999389648</ele>
        <time>2021-09-12T11:04:27Z</time>
      </trkpt>
      <trkpt lat="48.3962" lon="-3.97133">
        <ele>220.39999389648</ele>
        <time>2021-09-12T11:04:28Z</time>
      </trkpt>
      <trkpt lat="48.39617" lon="-3.97138">
        <ele>220.39999389648</ele>
        <time>2021-09-12T11:04:29Z</time>
      </trkpt>
      <trkpt lat="48.39614" lon="-3.97143">
        <ele>220.60000610352</ele>
        <time>2021-09-12T11:04:30Z</time>
      </trkpt>
      <trkpt lat="48.39612" lon="-3.97147">
        <ele>220.60000610352</ele>
        <time>2021-09-12T11:04:31Z</time>
      </trkpt>
      <trkpt lat="48.39609" lon="-3.97152">
        <ele>220.60000610352</ele>
        <time>2021-09-12T11:04:32Z</time>
      </trkpt>
      <trkpt lat="48.39606" lon="-3.97158">
        <ele>220.60000610352</ele>
        <time>2021-09-12T11:04:33Z</time>
      </trkpt>
      <trkpt lat="48.39604" lon="-3.97161">
        <ele>220.80000305176</ele>
        <time>2021-09-12T11:04:34Z</time>
      </trkpt>
      <trkpt lat="48.39601" lon="-3.97166">
        <ele>220.80000305176</ele>
        <time>2021-09-12T11:04:35Z</time>
      </trkpt>
      <trkpt lat="48.39599" lon="-3.97171">
        <ele>221</ele>
        <time>2021-09-12T11:04:36Z</time>
      </trkpt>
      <trkpt lat="48.39596" lon="-3.97176">
        <ele>221</ele>
        <time>2021-09-12T11:04:37Z</time>
      </trkpt>
      <trkpt lat="48.39593" lon="-3.97181">
        <ele>221</ele>
        <time>2021-09-12T11:04:38Z</time>
      </trkpt>
      <trkpt lat="48.3959" lon="-3.97186">
        <ele>221</ele>
        <time>2021-09-12T11:04:39Z</time>
      </trkpt>
      <trkpt lat="48.39588" lon="-3.97192">
        <ele>221</ele>
        <time>2021-09-12T11:04:40Z</time>
      </trkpt>
      <trkpt lat="48.39585" lon="-3.97197">
        <ele>221</ele>
        <time>2021-09-12T11:04:41Z</time>
      </trkpt>
      <trkpt lat="48.39582" lon="-3.97202">
        <ele>221</ele>
        <time>2021-09-12T11:04:42Z</time>
      </trkpt>
      <trkpt lat="48.39579" lon="-3.97207">
        <ele>221</ele>
        <time>2021-09-12T11:04:43Z</time>
      </trkpt>
      <trkpt lat="48.39576" lon="-3.97212">
        <ele>221</ele>
        <time>2021-09-12T11:04:44Z</time>
      </trkpt>
      <trkpt lat="48.39573" lon="-3.97218">
        <ele>220.60000610352</ele>
        <time>2021-09-12T11:04:45Z</time>
      </trkpt>
      <trkpt lat="48.39569" lon="-3.97223">
        <ele>220.39999389648</ele>
        <time>2021-09-12T11:04:46Z</time>
      </trkpt>
      <trkpt lat="48.39566" lon="-3.97229">
        <ele>220.39999389648</ele>
        <time>2021-09-12T11:04:47Z</time>
      </trkpt>
      <trkpt lat="48.39563" lon="-3.97235">
        <ele>220.19999694824</ele>
        <time>2021-09-12T11:04:48Z</time>
      </trkpt>
      <trkpt lat="48.3956" lon="-3.9724">
        <ele>220.19999694824</ele>
        <time>2021-09-12T11:04:49Z</time>
      </trkpt>
      <trkpt lat="48.39556" lon="-3.97246">
        <ele>220</ele>
        <time>2021-09-12T11:04:50Z</time>
      </trkpt>
      <trkpt lat="48.39553" lon="-3.97251">
        <ele>220</ele>
        <time>2021-09-12T11:04:51Z</time>
      </trkpt>
      <trkpt lat="48.3955" lon="-3.97258">
        <ele>219.80000305176</ele>
        <time>2021-09-12T11:04:52Z</time>
      </trkpt>
      <trkpt lat="48.39547" lon="-3.97263">
        <ele>219.80000305176</ele>
        <time>2021-09-12T11:04:53Z</time>
      </trkpt>
      <trkpt lat="48.39543" lon="-3.9727">
        <ele>219.80000305176</ele>
        <time>2021-09-12T11:04:54Z</time>
      </trkpt>
      <trkpt lat="48.3954" lon="-3.97274">
        <ele>219.80000305176</ele>
        <time>2021-09-12T11:04:55Z</time>
      </trkpt>
      <trkpt lat="48.39536" lon="-3.97279">
        <ele>220</ele>
        <time>2021-09-12T11:04:56Z</time>
      </trkpt>
      <trkpt lat="48.39532" lon="-3.97282">
        <ele>220</ele>
        <time>2021-09-12T11:04:57Z</time>
      </trkpt>
      <trkpt lat="48.39527" lon="-3.97286">
        <ele>220</ele>
        <time>2021-09-12T11:04:58Z</time>
      </trkpt>
      <trkpt lat="48.39521" lon="-3.9729">
        <ele>220</ele>
        <time>2021-09-12T11:04:59Z</time>
      </trkpt>
      <trkpt lat="48.39517" lon="-3.97293">
        <ele>220</ele>
        <time>2021-09-12T11:05:00Z</time>
      </trkpt>
      <trkpt lat="48.39512" lon="-3.97297">
        <ele>220</ele>
        <time>2021-09-12T11:05:01Z</time>
      </trkpt>
      <trkpt lat="48.39507" lon="-3.97301">
        <ele>220</ele>
        <time>2021-09-12T11:05:02Z</time>
      </trkpt>
      <trkpt lat="48.39503" lon="-3.97306">
        <ele>219.80000305176</ele>
        <time>2021-09-12T11:05:03Z</time>
      </trkpt>
      <trkpt lat="48.39499" lon="-3.9731">
        <ele>219.80000305176</ele>
        <time>2021-09-12T11:05:04Z</time>
      </trkpt>
      <trkpt lat="48.39495" lon="-3.97315">
        <ele>219.60000610352</ele>
        <time>2021-09-12T11:05:05Z</time>
      </trkpt>
      <trkpt lat="48.39492" lon="-3.9732">
        <ele>219.60000610352</ele>
        <time>2021-09-12T11:05:06Z</time>
      </trkpt>
      <trkpt lat="48.39489" lon="-3.97325">
        <ele>219.60000610352</ele>
        <time>2021-09-12T11:05:07Z</time>
      </trkpt>
      <trkpt lat="48.39485" lon="-3.97332">
        <ele>219.60000610352</ele>
        <time>2021-09-12T11:05:08Z</time>
      </trkpt>
      <trkpt lat="48.39481" lon="-3.97339">
        <ele>219.60000610352</ele>
        <time>2021-09-12T11:05:09Z</time>
      </trkpt>
      <trkpt lat="48.39478" lon="-3.97344">
        <ele>219.60000610352</ele>
        <time>2021-09-12T11:05:10Z</time>
      </trkpt>
      <trkpt lat="48.39475" lon="-3.97351">
        <ele>219.60000610352</ele>
        <time>2021-09-12T11:05:11Z</time>
      </trkpt>
      <trkpt lat="48.39472" lon="-3.97358">
        <ele>219.60000610352</ele>
        <time>2021-09-12T11:05:12Z</time>
      </trkpt>
      <trkpt lat="48.39468" lon="-3.97366">
        <ele>219.60000610352</ele>
        <time>2021-09-12T11:05:13Z</time>
      </trkpt>
      <trkpt lat="48.39465" lon="-3.97373">
        <ele>219.60000610352</ele>
        <time>2021-09-12T11:05:14Z</time>
      </trkpt>
      <trkpt lat="48.39462" lon="-3.97378">
        <ele>219.60000610352</ele>
        <time>2021-09-12T11:05:15Z</time>
      </trkpt>
      <trkpt lat="48.3946" lon="-3.97384">
        <ele>219.60000610352</ele>
        <time>2021-09-12T11:05:16Z</time>
      </trkpt>
      <trkpt lat="48.39457" lon="-3.97391">
        <ele>219.60000610352</ele>
        <time>2021-09-12T11:05:17Z</time>
      </trkpt>
      <trkpt lat="48.39454" lon="-3.97397">
        <ele>219.80000305176</ele>
        <time>2021-09-12T11:05:18Z</time>
      </trkpt>
      <trkpt lat="48.3945" lon="-3.97405">
        <ele>219.80000305176</ele>
        <time>2021-09-12T11:05:19Z</time>
      </trkpt>
      <trkpt lat="48.39448" lon="-3.9741">
        <ele>219.80000305176</ele>
        <time>2021-09-12T11:05:20Z</time>
      </trkpt>
      <trkpt lat="48.39445" lon="-3.97416">
        <ele>219.80000305176</ele>
        <time>2021-09-12T11:05:21Z</time>
      </trkpt>
      <trkpt lat="48.39442" lon="-3.97422">
        <ele>219.80000305176</ele>
        <time>2021-09-12T11:05:22Z</time>
      </trkpt>
      <trkpt lat="48.39439" lon="-3.97428">
        <ele>219.80000305176</ele>
        <time>2021-09-12T11:05:23Z</time>
      </trkpt>
      <trkpt lat="48.39437" lon="-3.97435">
        <ele>220</ele>
        <time>2021-09-12T11:05:24Z</time>
      </trkpt>
      <trkpt lat="48.39434" lon="-3.97441">
        <ele>220.19999694824</ele>
        <time>2021-09-12T11:05:25Z</time>
      </trkpt>
      <trkpt lat="48.39432" lon="-3.97448">
        <ele>220.19999694824</ele>
        <time>2021-09-12T11:05:26Z</time>
      </trkpt>
      <trkpt lat="48.3943" lon="-3.97455">
        <ele>220.39999389648</ele>
        <time>2021-09-12T11:05:27Z</time>
      </trkpt>
      <trkpt lat="48.39428" lon="-3.97461">
        <ele>220.39999389648</ele>
        <time>2021-09-12T11:05:28Z</time>
      </trkpt>
      <trkpt lat="48.39426" lon="-3.97468">
        <ele>220.39999389648</ele>
        <time>2021-09-12T11:05:29Z</time>
      </trkpt>
      <trkpt lat="48.39423" lon="-3.97474">
        <ele>220.39999389648</ele>
        <time>2021-09-12T11:05:30Z</time>
      </trkpt>
      <trkpt lat="48.39421" lon="-3.97481">
        <ele>220.39999389648</ele>
        <time>2021-09-12T11:05:31Z</time>
      </trkpt>
      <trkpt lat="48.39419" lon="-3.97487">
        <ele>220.39999389648</ele>
        <time>2021-09-12T11:05:32Z</time>
      </trkpt>
      <trkpt lat="48.39417" lon="-3.97493">
        <ele>220.60000610352</ele>
        <time>2021-09-12T11:05:33Z</time>
      </trkpt>
      <trkpt lat="48.39414" lon="-3.975">
        <ele>220.60000610352</ele>
        <time>2021-09-12T11:05:34Z</time>
      </trkpt>
      <trkpt lat="48.39412" lon="-3.97508">
        <ele>220.80000305176</ele>
        <time>2021-09-12T11:05:35Z</time>
      </trkpt>
      <trkpt lat="48.39409" lon="-3.97515">
        <ele>220.80000305176</ele>
        <time>2021-09-12T11:05:36Z</time>
      </trkpt>
      <trkpt lat="48.39407" lon="-3.97521">
        <ele>220.80000305176</ele>
        <time>2021-09-12T11:05:37Z</time>
      </trkpt>
      <trkpt lat="48.39405" lon="-3.97527">
        <ele>220.80000305176</ele>
        <time>2021-09-12T11:05:38Z</time>
      </trkpt>
      <trkpt lat="48.39402" lon="-3.97533">
        <ele>221</ele>
        <time>2021-09-12T11:05:39Z</time>
      </trkpt>
      <trkpt lat="48.394" lon="-3.97539">
        <ele>221</ele>
        <time>2021-09-12T11:05:40Z</time>
      </trkpt>
      <trkpt lat="48.39397" lon="-3.97544">
        <ele>221</ele>
        <time>2021-09-12T11:05:41Z</time>
      </trkpt>
      <trkpt lat="48.39394" lon="-3.97549">
        <ele>221.19999694824</ele>
        <time>2021-09-12T11:05:42Z</time>
      </trkpt>
      <trkpt lat="48.3939" lon="-3.97554">
        <ele>221.19999694824</ele>
        <time>2021-09-12T11:05:43Z</time>
      </trkpt>
      <trkpt lat="48.39387" lon="-3.97557">
        <ele>221.19999694824</ele>
        <time>2021-09-12T11:05:44Z</time>
      </trkpt>
      <trkpt lat="48.39384" lon="-3.9756">
        <ele>221.19999694824</ele>
        <time>2021-09-12T11:05:45Z</time>
      </trkpt>
      <trkpt lat="48.39381" lon="-3.97562">
        <ele>221.19999694824</ele>
        <time>2021-09-12T11:05:46Z</time>
      </trkpt>
      <trkpt lat="48.39376" lon="-3.97564">
        <ele>221.39999389648</ele>
        <time>2021-09-12T11:05:47Z</time>
      </trkpt>
      <trkpt lat="48.39373" lon="-3.97565">
        <ele>221.60000610352</ele>
        <time>2021-09-12T11:05:48Z</time>
      </trkpt>
      <trkpt lat="48.39369" lon="-3.97568">
        <ele>221.60000610352</ele>
        <time>2021-09-12T11:05:49Z</time>
      </trkpt>
      <trkpt lat="48.39365" lon="-3.9757">
        <ele>221.60000610352</ele>
        <time>2021-09-12T11:05:50Z</time>
      </trkpt>
      <trkpt lat="48.39361" lon="-3.97572">
        <ele>222</ele>
        <time>2021-09-12T11:05:51Z</time>
      </trkpt>
      <trkpt lat="48.39357" lon="-3.97574">
        <ele>222</ele>
        <time>2021-09-12T11:05:52Z</time>
      </trkpt>
      <trkpt lat="48.39353" lon="-3.97575">
        <ele>222.19999694824</ele>
        <time>2021-09-12T11:05:53Z</time>
      </trkpt>
      <trkpt lat="48.39349" lon="-3.97576">
        <ele>222.19999694824</ele>
        <time>2021-09-12T11:05:54Z</time>
      </trkpt>
      <trkpt lat="48.39345" lon="-3.97578">
        <ele>222.60000610352</ele>
        <time>2021-09-12T11:05:55Z</time>
      </trkpt>
      <trkpt lat="48.3934" lon="-3.9758">
        <ele>222.80000305176</ele>
        <time>2021-09-12T11:05:56Z</time>
      </trkpt>
      <trkpt lat="48.39336" lon="-3.97582">
        <ele>222.80000305176</ele>
        <time>2021-09-12T11:05:57Z</time>
      </trkpt>
      <trkpt lat="48.39332" lon="-3.97584">
        <ele>223</ele>
        <time>2021-09-12T11:05:58Z</time>
      </trkpt>
      <trkpt lat="48.39328" lon="-3.97585">
        <ele>223</ele>
        <time>2021-09-12T11:05:59Z</time>
      </trkpt>
      <trkpt lat="48.39325" lon="-3.97586">
        <ele>223.19999694824</ele>
        <time>2021-09-12T11:06:00Z</time>
      </trkpt>
      <trkpt lat="48.39321" lon="-3.97588">
        <ele>223.39999389648</ele>
        <time>2021-09-12T11:06:01Z</time>
      </trkpt>
      <trkpt lat="48.39317" lon="-3.97588">
        <ele>223.39999389648</ele>
        <time>2021-09-12T11:06:02Z</time>
      </trkpt>
      <trkpt lat="48.39313" lon="-3.97589">
        <ele>223.60000610352</ele>
        <time>2021-09-12T11:06:03Z</time>
      </trkpt>
      <trkpt lat="48.3931" lon="-3.9759">
        <ele>224</ele>
        <time>2021-09-12T11:06:04Z</time>
      </trkpt>
      <trkpt lat="48.39306" lon="-3.97591">
        <ele>224</ele>
        <time>2021-09-12T11:06:05Z</time>
      </trkpt>
      <trkpt lat="48.39303" lon="-3.97592">
        <ele>224</ele>
        <time>2021-09-12T11:06:06Z</time>
      </trkpt>
      <trkpt lat="48.39299" lon="-3.97593">
        <ele>224.39999389648</ele>
        <time>2021-09-12T11:06:07Z</time>
      </trkpt>
      <trkpt lat="48.39296" lon="-3.97594">
        <ele>224.80000305176</ele>
        <time>2021-09-12T11:06:08Z</time>
      </trkpt>
      <trkpt lat="48.39292" lon="-3.97594">
        <ele>225</ele>
        <time>2021-09-12T11:06:09Z</time>
      </trkpt>
      <trkpt lat="48.39289" lon="-3.97594">
        <ele>225.19999694824</ele>
        <time>2021-09-12T11:06:10Z</time>
      </trkpt>
      <trkpt lat="48.39286" lon="-3.97595">
        <ele>225.80000305176</ele>
        <time>2021-09-12T11:06:11Z</time>
      </trkpt>
      <trkpt lat="48.39283" lon="-3.97595">
        <ele>225.80000305176</ele>
        <time>2021-09-12T11:06:12Z</time>
      </trkpt>
      <trkpt lat="48.39279" lon="-3.97596">
        <ele>226</ele>
        <time>2021-09-12T11:06:13Z</time>
      </trkpt>
      <trkpt lat="48.39276" lon="-3.97597">
        <ele>226.39999389648</ele>
        <time>2021-09-12T11:06:14Z</time>
      </trkpt>
      <trkpt lat="48.39273" lon="-3.97597">
        <ele>226.39999389648</ele>
        <time>2021-09-12T11:06:15Z</time>
      </trkpt>
      <trkpt lat="48.3927" lon="-3.97597">
        <ele>226.60000610352</ele>
        <time>2021-09-12T11:06:16Z</time>
      </trkpt>
      <trkpt lat="48.39266" lon="-3.97598">
        <ele>226.80000305176</ele>
        <time>2021-09-12T11:06:17Z</time>
      </trkpt>
      <trkpt lat="48.39263" lon="-3.97598">
        <ele>227</ele>
        <time>2021-09-12T11:06:18Z</time>
      </trkpt>
      <trkpt lat="48.3926" lon="-3.97599">
        <ele>227.19999694824</ele>
        <time>2021-09-12T11:06:19Z</time>
      </trkpt>
      <trkpt lat="48.39256" lon="-3.97599">
        <ele>227.39999389648</ele>
        <time>2021-09-12T11:06:20Z</time>
      </trkpt>
      <trkpt lat="48.39253" lon="-3.976">
        <ele>227.80000305176</ele>
        <time>2021-09-12T11:06:21Z</time>
      </trkpt>
      <trkpt lat="48.39249" lon="-3.976">
        <ele>227.80000305176</ele>
        <time>2021-09-12T11:06:22Z</time>
      </trkpt>
      <trkpt lat="48.39246" lon="-3.97601">
        <ele>228.19999694824</ele>
        <time>2021-09-12T11:06:23Z</time>
      </trkpt>
      <trkpt lat="48.39243" lon="-3.97602">
        <ele>228.19999694824</ele>
        <time>2021-09-12T11:06:24Z</time>
      </trkpt>
      <trkpt lat="48.3924" lon="-3.97603">
        <ele>228.39999389648</ele>
        <time>2021-09-12T11:06:25Z</time>
      </trkpt>
      <trkpt lat="48.39237" lon="-3.97604">
        <ele>229</ele>
        <time>2021-09-12T11:06:26Z</time>
      </trkpt>
      <trkpt lat="48.39234" lon="-3.97606">
        <ele>229</ele>
        <time>2021-09-12T11:06:27Z</time>
      </trkpt>
      <trkpt lat="48.39231" lon="-3.97607">
        <ele>229</ele>
        <time>2021-09-12T11:06:28Z</time>
      </trkpt>
      <trkpt lat="48.39228" lon="-3.97609">
        <ele>229</ele>
        <time>2021-09-12T11:06:29Z</time>
      </trkpt>
      <trkpt lat="48.39225" lon="-3.97612">
        <ele>229.60000610352</ele>
        <time>2021-09-12T11:06:30Z</time>
      </trkpt>
      <trkpt lat="48.39222" lon="-3.97614">
        <ele>229.80000305176</ele>
        <time>2021-09-12T11:06:31Z</time>
      </trkpt>
      <trkpt lat="48.39219" lon="-3.97617">
        <ele>230</ele>
        <time>2021-09-12T11:06:32Z</time>
      </trkpt>
      <trkpt lat="48.39217" lon="-3.9762">
        <ele>230.19999694824</ele>
        <time>2021-09-12T11:06:33Z</time>
      </trkpt>
      <trkpt lat="48.39214" lon="-3.97623">
        <ele>230.39999389648</ele>
        <time>2021-09-12T11:06:34Z</time>
      </trkpt>
      <trkpt lat="48.39211" lon="-3.97626">
        <ele>230.39999389648</ele>
        <time>2021-09-12T11:06:35Z</time>
      </trkpt>
      <trkpt lat="48.39208" lon="-3.97629">
        <ele>230.80000305176</ele>
        <time>2021-09-12T11:06:36Z</time>
      </trkpt>
      <trkpt lat="48.39205" lon="-3.97632">
        <ele>231</ele>
        <time>2021-09-12T11:06:37Z</time>
      </trkpt>
      <trkpt lat="48.39203" lon="-3.97635">
        <ele>231</ele>
        <time>2021-09-12T11:06:38Z</time>
      </trkpt>
      <trkpt lat="48.392" lon="-3.97638">
        <ele>231.39999389648</ele>
        <time>2021-09-12T11:06:39Z</time>
      </trkpt>
      <trkpt lat="48.39198" lon="-3.97641">
        <ele>231.39999389648</ele>
        <time>2021-09-12T11:06:40Z</time>
      </trkpt>
      <trkpt lat="48.39195" lon="-3.97644">
        <ele>231.80000305176</ele>
        <time>2021-09-12T11:06:41Z</time>
      </trkpt>
      <trkpt lat="48.39193" lon="-3.97647">
        <ele>232</ele>
        <time>2021-09-12T11:06:42Z</time>
      </trkpt>
      <trkpt lat="48.39191" lon="-3.97649">
        <ele>232</ele>
        <time>2021-09-12T11:06:43Z</time>
      </trkpt>
      <trkpt lat="48.39189" lon="-3.97652">
        <ele>232.19999694824</ele>
        <time>2021-09-12T11:06:44Z</time>
      </trkpt>
      <trkpt lat="48.39186" lon="-3.97655">
        <ele>232.19999694824</ele>
        <time>2021-09-12T11:06:45Z</time>
      </trkpt>
      <trkpt lat="48.39183" lon="-3.97658">
        <ele>232.39999389648</ele>
        <time>2021-09-12T11:06:46Z</time>
      </trkpt>
      <trkpt lat="48.39181" lon="-3.97662">
        <ele>232.60000610352</ele>
        <time>2021-09-12T11:06:47Z</time>
      </trkpt>
      <trkpt lat="48.39178" lon="-3.97665">
        <ele>233</ele>
        <time>2021-09-12T11:06:48Z</time>
      </trkpt>
      <trkpt lat="48.39175" lon="-3.97668">
        <ele>233.19999694824</ele>
        <time>2021-09-12T11:06:49Z</time>
      </trkpt>
      <trkpt lat="48.39173" lon="-3.97671">
        <ele>233.39999389648</ele>
        <time>2021-09-12T11:06:50Z</time>
      </trkpt>
      <trkpt lat="48.3917" lon="-3.97674">
        <ele>233.60000610352</ele>
        <time>2021-09-12T11:06:51Z</time>
      </trkpt>
      <trkpt lat="48.39168" lon="-3.97677">
        <ele>233.60000610352</ele>
        <time>2021-09-12T11:06:52Z</time>
      </trkpt>
      <trkpt lat="48.39165" lon="-3.9768">
        <ele>233.80000305176</ele>
        <time>2021-09-12T11:06:53Z</time>
      </trkpt>
      <trkpt lat="48.39163" lon="-3.97684">
        <ele>233.80000305176</ele>
        <time>2021-09-12T11:06:54Z</time>
      </trkpt>
      <trkpt lat="48.3916" lon="-3.97687">
        <ele>234</ele>
        <time>2021-09-12T11:06:55Z</time>
      </trkpt>
      <trkpt lat="48.39158" lon="-3.9769">
        <ele>234.19999694824</ele>
        <time>2021-09-12T11:06:56Z</time>
      </trkpt>
      <trkpt lat="48.39155" lon="-3.97693">
        <ele>234.19999694824</ele>
        <time>2021-09-12T11:06:57Z</time>
      </trkpt>
      <trkpt lat="48.39153" lon="-3.97697">
        <ele>234.39999389648</ele>
        <time>2021-09-12T11:06:58Z</time>
      </trkpt>
      <trkpt lat="48.3915" lon="-3.977">
        <ele>234.80000305176</ele>
        <time>2021-09-12T11:06:59Z</time>
      </trkpt>
      <trkpt lat="48.39148" lon="-3.97703">
        <ele>234.80000305176</ele>
        <time>2021-09-12T11:07:00Z</time>
      </trkpt>
      <trkpt lat="48.39145" lon="-3.97706">
        <ele>235</ele>
        <time>2021-09-12T11:07:01Z</time>
      </trkpt>
      <trkpt lat="48.39142" lon="-3.97709">
        <ele>235</ele>
        <time>2021-09-12T11:07:02Z</time>
      </trkpt>
      <trkpt lat="48.3914" lon="-3.97712">
        <ele>235.19999694824</ele>
        <time>2021-09-12T11:07:03Z</time>
      </trkpt>
      <trkpt lat="48.39137" lon="-3.97716">
        <ele>235.39999389648</ele>
        <time>2021-09-12T11:07:04Z</time>
      </trkpt>
      <trkpt lat="48.39135" lon="-3.97719">
        <ele>235.39999389648</ele>
        <time>2021-09-12T11:07:05Z</time>
      </trkpt>
      <trkpt lat="48.39133" lon="-3.97722">
        <ele>235.60000610352</ele>
        <time>2021-09-12T11:07:06Z</time>
      </trkpt>
      <trkpt lat="48.3913" lon="-3.97725">
        <ele>235.80000305176</ele>
        <time>2021-09-12T11:07:07Z</time>
      </trkpt>
      <trkpt lat="48.39127" lon="-3.97728">
        <ele>235.80000305176</ele>
        <time>2021-09-12T11:07:08Z</time>
      </trkpt>
      <trkpt lat="48.39124" lon="-3.97731">
        <ele>236</ele>
        <time>2021-09-12T11:07:09Z</time>
      </trkpt>
      <trkpt lat="48.39121" lon="-3.97735">
        <ele>236</ele>
        <time>2021-09-12T11:07:10Z</time>
      </trkpt>
      <trkpt lat="48.39119" lon="-3.97738">
        <ele>236.39999389648</ele>
        <time>2021-09-12T11:07:11Z</time>
      </trkpt>
      <trkpt lat="48.39116" lon="-3.97741">
        <ele>236.39999389648</ele>
        <time>2021-09-12T11:07:12Z</time>
      </trkpt>
      <trkpt lat="48.39113" lon="-3.97744">
        <ele>236.80000305176</ele>
        <time>2021-09-12T11:07:13Z</time>
      </trkpt>
      <trkpt lat="48.3911" lon="-3.97747">
        <ele>237</ele>
        <time>2021-09-12T11:07:14Z</time>
      </trkpt>
      <trkpt lat="48.39107" lon="-3.9775">
        <ele>237.19999694824</ele>
        <time>2021-09-12T11:07:15Z</time>
      </trkpt>
      <trkpt lat="48.39104" lon="-3.97753">
        <ele>237.19999694824</ele>
        <time>2021-09-12T11:07:16Z</time>
      </trkpt>
      <trkpt lat="48.39101" lon="-3.97756">
        <ele>237.39999389648</ele>
        <time>2021-09-12T11:07:17Z</time>
      </trkpt>
      <trkpt lat="48.39099" lon="-3.9776">
        <ele>237.60000610352</ele>
        <time>2021-09-12T11:07:18Z</time>
      </trkpt>
      <trkpt lat="48.39096" lon="-3.97763">
        <ele>237.60000610352</ele>
        <time>2021-09-12T11:07:19Z</time>
      </trkpt>
      <trkpt lat="48.39093" lon="-3.97766">
        <ele>237.80000305176</ele>
        <time>2021-09-12T11:07:20Z</time>
      </trkpt>
      <trkpt lat="48.39091" lon="-3.9777">
        <ele>237.80000305176</ele>
        <time>2021-09-12T11:07:21Z</time>
      </trkpt>
      <trkpt lat="48.39088" lon="-3.97773">
        <ele>238</ele>
        <time>2021-09-12T11:07:22Z</time>
      </trkpt>
      <trkpt lat="48.39086" lon="-3.97776">
        <ele>238</ele>
        <time>2021-09-12T11:07:23Z</time>
      </trkpt>
      <trkpt lat="48.39083" lon="-3.9778">
        <ele>238.19999694824</ele>
        <time>2021-09-12T11:07:24Z</time>
      </trkpt>
      <trkpt lat="48.3908" lon="-3.97784">
        <ele>238.39999389648</ele>
        <time>2021-09-12T11:07:25Z</time>
      </trkpt>
      <trkpt lat="48.39078" lon="-3.97788">
        <ele>238.39999389648</ele>
        <time>2021-09-12T11:07:26Z</time>
      </trkpt>
      <trkpt lat="48.39075" lon="-3.97791">
        <ele>238.39999389648</ele>
        <time>2021-09-12T11:07:27Z</time>
      </trkpt>
      <trkpt lat="48.39072" lon="-3.97795">
        <ele>238.60000610352</ele>
        <time>2021-09-12T11:07:28Z</time>
      </trkpt>
      <trkpt lat="48.39069" lon="-3.97798">
        <ele>238.60000610352</ele>
        <time>2021-09-12T11:07:29Z</time>
      </trkpt>
      <trkpt lat="48.39066" lon="-3.97801">
        <ele>238.60000610352</ele>
        <time>2021-09-12T11:07:30Z</time>
      </trkpt>
      <trkpt lat="48.39063" lon="-3.97804">
        <ele>238.60000610352</ele>
        <time>2021-09-12T11:07:31Z</time>
      </trkpt>
      <trkpt lat="48.3906" lon="-3.97807">
        <ele>238.80000305176</ele>
        <time>2021-09-12T11:07:32Z</time>
      </trkpt>
      <trkpt lat="48.39057" lon="-3.9781">
        <ele>238.80000305176</ele>
        <time>2021-09-12T11:07:33Z</time>
      </trkpt>
      <trkpt lat="48.39054" lon="-3.97813">
        <ele>238.80000305176</ele>
        <time>2021-09-12T11:07:34Z</time>
      </trkpt>
      <trkpt lat="48.39051" lon="-3.97816">
        <ele>239</ele>
        <time>2021-09-12T11:07:35Z</time>
      </trkpt>
      <trkpt lat="48.39047" lon="-3.97819">
        <ele>239</ele>
        <time>2021-09-12T11:07:36Z</time>
      </trkpt>
      <trkpt lat="48.39044" lon="-3.97823">
        <ele>239.19999694824</ele>
        <time>2021-09-12T11:07:37Z</time>
      </trkpt>
      <trkpt lat="48.39041" lon="-3.97826">
        <ele>239.19999694824</ele>
        <time>2021-09-12T11:07:38Z</time>
      </trkpt>
      <trkpt lat="48.39038" lon="-3.97829">
        <ele>239.19999694824</ele>
        <time>2021-09-12T11:07:39Z</time>
      </trkpt>
      <trkpt lat="48.39035" lon="-3.97832">
        <ele>239.19999694824</ele>
        <time>2021-09-12T11:07:40Z</time>
      </trkpt>
      <trkpt lat="48.39032" lon="-3.97835">
        <ele>239.39999389648</ele>
        <time>2021-09-12T11:07:41Z</time>
      </trkpt>
      <trkpt lat="48.39029" lon="-3.97839">
        <ele>239.39999389648</ele>
        <time>2021-09-12T11:07:42Z</time>
      </trkpt>
      <trkpt lat="48.39026" lon="-3.97842">
        <ele>239.39999389648</ele>
        <time>2021-09-12T11:07:43Z</time>
      </trkpt>
      <trkpt lat="48.39023" lon="-3.97846">
        <ele>239.39999389648</ele>
        <time>2021-09-12T11:07:44Z</time>
      </trkpt>
      <trkpt lat="48.3902" lon="-3.97849">
        <ele>239.60000610352</ele>
        <time>2021-09-12T11:07:45Z</time>
      </trkpt>
      <trkpt lat="48.39016" lon="-3.97852">
        <ele>239.60000610352</ele>
        <time>2021-09-12T11:07:46Z</time>
      </trkpt>
      <trkpt lat="48.39013" lon="-3.97855">
        <ele>239.60000610352</ele>
        <time>2021-09-12T11:07:47Z</time>
      </trkpt>
      <trkpt lat="48.3901" lon="-3.97857">
        <ele>239.60000610352</ele>
        <time>2021-09-12T11:07:48Z</time>
      </trkpt>
      <trkpt lat="48.39007" lon="-3.9786">
        <ele>239.60000610352</ele>
        <time>2021-09-12T11:07:49Z</time>
      </trkpt>
      <trkpt lat="48.39004" lon="-3.97862">
        <ele>239.80000305176</ele>
        <time>2021-09-12T11:07:50Z</time>
      </trkpt>
      <trkpt lat="48.39001" lon="-3.97864">
        <ele>239.80000305176</ele>
        <time>2021-09-12T11:07:51Z</time>
      </trkpt>
      <trkpt lat="48.38999" lon="-3.97865">
        <ele>239.80000305176</ele>
        <time>2021-09-12T11:07:52Z</time>
      </trkpt>
      <trkpt lat="48.38996" lon="-3.97867">
        <ele>239.80000305176</ele>
        <time>2021-09-12T11:07:53Z</time>
      </trkpt>
      <trkpt lat="48.38993" lon="-3.97868">
        <ele>239.80000305176</ele>
        <time>2021-09-12T11:07:54Z</time>
      </trkpt>
      <trkpt lat="48.38989" lon="-3.97869">
        <ele>239.80000305176</ele>
        <time>2021-09-12T11:07:55Z</time>
      </trkpt>
      <trkpt lat="48.38986" lon="-3.97871">
        <ele>239.80000305176</ele>
        <time>2021-09-12T11:07:56Z</time>
      </trkpt>
      <trkpt lat="48.38983" lon="-3.97872">
        <ele>239.80000305176</ele>
        <time>2021-09-12T11:07:57Z</time>
      </trkpt>
      <trkpt lat="48.38979" lon="-3.97874">
        <ele>239.80000305176</ele>
        <time>2021-09-12T11:07:58Z</time>
      </trkpt>
      <trkpt lat="48.38976" lon="-3.97876">
        <ele>240</ele>
        <time>2021-09-12T11:07:59Z</time>
      </trkpt>
      <trkpt lat="48.38972" lon="-3.97878">
        <ele>240</ele>
        <time>2021-09-12T11:08:00Z</time>
      </trkpt>
      <trkpt lat="48.38969" lon="-3.97879">
        <ele>240</ele>
        <time>2021-09-12T11:08:01Z</time>
      </trkpt>
      <trkpt lat="48.38965" lon="-3.97881">
        <ele>240</ele>
        <time>2021-09-12T11:08:02Z</time>
      </trkpt>
      <trkpt lat="48.38961" lon="-3.97883">
        <ele>240</ele>
        <time>2021-09-12T11:08:03Z</time>
      </trkpt>
      <trkpt lat="48.38958" lon="-3.97885">
        <ele>240</ele>
        <time>2021-09-12T11:08:04Z</time>
      </trkpt>
      <trkpt lat="48.38954" lon="-3.97886">
        <ele>240.19999694824</ele>
        <time>2021-09-12T11:08:05Z</time>
      </trkpt>
      <trkpt lat="48.38951" lon="-3.97887">
        <ele>240.19999694824</ele>
        <time>2021-09-12T11:08:06Z</time>
      </trkpt>
      <trkpt lat="48.38947" lon="-3.97887">
        <ele>240.19999694824</ele>
        <time>2021-09-12T11:08:07Z</time>
      </trkpt>
      <trkpt lat="48.38943" lon="-3.97888">
        <ele>240.19999694824</ele>
        <time>2021-09-12T11:08:08Z</time>
      </trkpt>
      <trkpt lat="48.38939" lon="-3.97889">
        <ele>240.19999694824</ele>
        <time>2021-09-12T11:08:09Z</time>
      </trkpt>
      <trkpt lat="48.38936" lon="-3.97889">
        <ele>240.19999694824</ele>
        <time>2021-09-12T11:08:10Z</time>
      </trkpt>
      <trkpt lat="48.38932" lon="-3.9789">
        <ele>240.19999694824</ele>
        <time>2021-09-12T11:08:11Z</time>
      </trkpt>
      <trkpt lat="48.38929" lon="-3.97891">
        <ele>240.19999694824</ele>
        <time>2021-09-12T11:08:12Z</time>
      </trkpt>
      <trkpt lat="48.38925" lon="-3.97891">
        <ele>240.39999389648</ele>
        <time>2021-09-12T11:08:13Z</time>
      </trkpt>
      <trkpt lat="48.38922" lon="-3.97892">
        <ele>240.39999389648</ele>
        <time>2021-09-12T11:08:14Z</time>
      </trkpt>
      <trkpt lat="48.38918" lon="-3.97893">
        <ele>240.39999389648</ele>
        <time>2021-09-12T11:08:15Z</time>
      </trkpt>
      <trkpt lat="48.38914" lon="-3.97894">
        <ele>240.39999389648</ele>
        <time>2021-09-12T11:08:16Z</time>
      </trkpt>
      <trkpt lat="48.38911" lon="-3.97894">
        <ele>240.39999389648</ele>
        <time>2021-09-12T11:08:17Z</time>
      </trkpt>
      <trkpt lat="48.38907" lon="-3.97894">
        <ele>240.39999389648</ele>
        <time>2021-09-12T11:08:18Z</time>
      </trkpt>
      <trkpt lat="48.38904" lon="-3.97895">
        <ele>240.39999389648</ele>
        <time>2021-09-12T11:08:19Z</time>
      </trkpt>
      <trkpt lat="48.389" lon="-3.97895">
        <ele>240.39999389648</ele>
        <time>2021-09-12T11:08:20Z</time>
      </trkpt>
      <trkpt lat="48.38896" lon="-3.97895">
        <ele>240.60000610352</ele>
        <time>2021-09-12T11:08:21Z</time>
      </trkpt>
      <trkpt lat="48.38892" lon="-3.97896">
        <ele>240.60000610352</ele>
        <time>2021-09-12T11:08:22Z</time>
      </trkpt>
      <trkpt lat="48.38888" lon="-3.97896">
        <ele>240.80000305176</ele>
        <time>2021-09-12T11:08:23Z</time>
      </trkpt>
      <trkpt lat="48.38885" lon="-3.97897">
        <ele>240.80000305176</ele>
        <time>2021-09-12T11:08:24Z</time>
      </trkpt>
      <trkpt lat="48.38881" lon="-3.97897">
        <ele>240.80000305176</ele>
        <time>2021-09-12T11:08:25Z</time>
      </trkpt>
      <trkpt lat="48.38877" lon="-3.97897">
        <ele>240.80000305176</ele>
        <time>2021-09-12T11:08:26Z</time>
      </trkpt>
      <trkpt lat="48.38874" lon="-3.97897">
        <ele>241</ele>
        <time>2021-09-12T11:08:27Z</time>
      </trkpt>
      <trkpt lat="48.3887" lon="-3.97897">
        <ele>241</ele>
        <time>2021-09-12T11:08:28Z</time>
      </trkpt>
      <trkpt lat="48.38867" lon="-3.97897">
        <ele>241</ele>
        <time>2021-09-12T11:08:29Z</time>
      </trkpt>
      <trkpt lat="48.38863" lon="-3.97897">
        <ele>241.19999694824</ele>
        <time>2021-09-12T11:08:30Z</time>
      </trkpt>
      <trkpt lat="48.3886" lon="-3.97898">
        <ele>241.39999389648</ele>
        <time>2021-09-12T11:08:31Z</time>
      </trkpt>
      <trkpt lat="48.38856" lon="-3.97898">
        <ele>241.60000610352</ele>
        <time>2021-09-12T11:08:32Z</time>
      </trkpt>
      <trkpt lat="48.38852" lon="-3.97899">
        <ele>241.60000610352</ele>
        <time>2021-09-12T11:08:33Z</time>
      </trkpt>
      <trkpt lat="48.38848" lon="-3.979">
        <ele>241.60000610352</ele>
        <time>2021-09-12T11:08:34Z</time>
      </trkpt>
      <trkpt lat="48.38845" lon="-3.97902">
        <ele>242</ele>
        <time>2021-09-12T11:08:35Z</time>
      </trkpt>
      <trkpt lat="48.38842" lon="-3.97902">
        <ele>242</ele>
        <time>2021-09-12T11:08:36Z</time>
      </trkpt>
      <trkpt lat="48.38838" lon="-3.97903">
        <ele>242.19999694824</ele>
        <time>2021-09-12T11:08:37Z</time>
      </trkpt>
      <trkpt lat="48.38835" lon="-3.97904">
        <ele>242.39999389648</ele>
        <time>2021-09-12T11:08:38Z</time>
      </trkpt>
      <trkpt lat="48.38832" lon="-3.97905">
        <ele>242.39999389648</ele>
        <time>2021-09-12T11:08:39Z</time>
      </trkpt>
      <trkpt lat="48.38829" lon="-3.97906">
        <ele>242.60000610352</ele>
        <time>2021-09-12T11:08:40Z</time>
      </trkpt>
      <trkpt lat="48.38825" lon="-3.97907">
        <ele>242.80000305176</ele>
        <time>2021-09-12T11:08:41Z</time>
      </trkpt>
      <trkpt lat="48.38822" lon="-3.97909">
        <ele>242.80000305176</ele>
        <time>2021-09-12T11:08:42Z</time>
      </trkpt>
      <trkpt lat="48.38818" lon="-3.9791">
        <ele>242.80000305176</ele>
        <time>2021-09-12T11:08:43Z</time>
      </trkpt>
      <trkpt lat="48.38815" lon="-3.97911">
        <ele>243.19999694824</ele>
        <time>2021-09-12T11:08:44Z</time>
      </trkpt>
      <trkpt lat="48.38811" lon="-3.97912">
        <ele>243.19999694824</ele>
        <time>2021-09-12T11:08:45Z</time>
      </trkpt>
      <trkpt lat="48.38809" lon="-3.97913">
        <ele>243.19999694824</ele>
        <time>2021-09-12T11:08:46Z</time>
      </trkpt>
      <trkpt lat="48.38805" lon="-3.97915">
        <ele>243.19999694824</ele>
        <time>2021-09-12T11:08:47Z</time>
      </trkpt>
      <trkpt lat="48.38801" lon="-3.97917">
        <ele>243.39999389648</ele>
        <time>2021-09-12T11:08:48Z</time>
      </trkpt>
      <trkpt lat="48.38798" lon="-3.97919">
        <ele>243.39999389648</ele>
        <time>2021-09-12T11:08:49Z</time>
      </trkpt>
      <trkpt lat="48.38796" lon="-3.97921">
        <ele>243.39999389648</ele>
        <time>2021-09-12T11:08:50Z</time>
      </trkpt>
      <trkpt lat="48.38793" lon="-3.97924">
        <ele>243.60000610352</ele>
        <time>2021-09-12T11:08:51Z</time>
      </trkpt>
      <trkpt lat="48.38791" lon="-3.97926">
        <ele>243.60000610352</ele>
        <time>2021-09-12T11:08:52Z</time>
      </trkpt>
      <trkpt lat="48.38788" lon="-3.97928">
        <ele>243.60000610352</ele>
        <time>2021-09-12T11:08:53Z</time>
      </trkpt>
      <trkpt lat="48.38785" lon="-3.97929">
        <ele>244</ele>
        <time>2021-09-12T11:08:54Z</time>
      </trkpt>
      <trkpt lat="48.38782" lon="-3.97929">
        <ele>244</ele>
        <time>2021-09-12T11:08:55Z</time>
      </trkpt>
      <trkpt lat="48.38778" lon="-3.9793">
        <ele>244.19999694824</ele>
        <time>2021-09-12T11:08:56Z</time>
      </trkpt>
      <trkpt lat="48.38774" lon="-3.97931">
        <ele>244.39999389648</ele>
        <time>2021-09-12T11:08:57Z</time>
      </trkpt>
      <trkpt lat="48.3877" lon="-3.97931">
        <ele>244.39999389648</ele>
        <time>2021-09-12T11:08:58Z</time>
      </trkpt>
      <trkpt lat="48.38767" lon="-3.97931">
        <ele>244.60000610352</ele>
        <time>2021-09-12T11:08:59Z</time>
      </trkpt>
      <trkpt lat="48.38765" lon="-3.97931">
        <ele>244.80000305176</ele>
        <time>2021-09-12T11:09:00Z</time>
      </trkpt>
      <trkpt lat="48.38762" lon="-3.97931">
        <ele>244.80000305176</ele>
        <time>2021-09-12T11:09:01Z</time>
      </trkpt>
      <trkpt lat="48.3876" lon="-3.9793">
        <ele>245</ele>
        <time>2021-09-12T11:09:02Z</time>
      </trkpt>
      <trkpt lat="48.38758" lon="-3.9793">
        <ele>245.39999389648</ele>
        <time>2021-09-12T11:09:03Z</time>
      </trkpt>
      <trkpt lat="48.38756" lon="-3.97928">
        <ele>245.39999389648</ele>
        <time>2021-09-12T11:09:04Z</time>
      </trkpt>
      <trkpt lat="48.38754" lon="-3.97927">
        <ele>245.60000610352</ele>
        <time>2021-09-12T11:09:05Z</time>
      </trkpt>
      <trkpt lat="48.38752" lon="-3.97926">
        <ele>246</ele>
        <time>2021-09-12T11:09:06Z</time>
      </trkpt>
      <trkpt lat="48.38749" lon="-3.97926">
        <ele>246</ele>
        <time>2021-09-12T11:09:07Z</time>
      </trkpt>
      <trkpt lat="48.38747" lon="-3.97926">
        <ele>246.19999694824</ele>
        <time>2021-09-12T11:09:08Z</time>
      </trkpt>
      <trkpt lat="48.38746" lon="-3.97925">
        <ele>246.19999694824</ele>
        <time>2021-09-12T11:09:09Z</time>
      </trkpt>
      <trkpt lat="48.38744" lon="-3.97924">
        <ele>246.39999389648</ele>
        <time>2021-09-12T11:09:10Z</time>
      </trkpt>
      <trkpt lat="48.38742" lon="-3.97923">
        <ele>246.80000305176</ele>
        <time>2021-09-12T11:09:11Z</time>
      </trkpt>
      <trkpt lat="48.3874" lon="-3.97922">
        <ele>246.80000305176</ele>
        <time>2021-09-12T11:09:12Z</time>
      </trkpt>
      <trkpt lat="48.38738" lon="-3.9792">
        <ele>246.80000305176</ele>
        <time>2021-09-12T11:09:13Z</time>
      </trkpt>
      <trkpt lat="48.38736" lon="-3.97919">
        <ele>247.19999694824</ele>
        <time>2021-09-12T11:09:14Z</time>
      </trkpt>
      <trkpt lat="48.38734" lon="-3.97918">
        <ele>247.19999694824</ele>
        <time>2021-09-12T11:09:15Z</time>
      </trkpt>
      <trkpt lat="48.38732" lon="-3.97916">
        <ele>247.39999389648</ele>
        <time>2021-09-12T11:09:16Z</time>
      </trkpt>
      <trkpt lat="48.3873" lon="-3.97914">
        <ele>247.60000610352</ele>
        <time>2021-09-12T11:09:17Z</time>
      </trkpt>
      <trkpt lat="48.38728" lon="-3.97911">
        <ele>247.80000305176</ele>
        <time>2021-09-12T11:09:18Z</time>
      </trkpt>
      <trkpt lat="48.38727" lon="-3.97909">
        <ele>248</ele>
        <time>2021-09-12T11:09:19Z</time>
      </trkpt>
      <trkpt lat="48.38725" lon="-3.97907">
        <ele>248.39999389648</ele>
        <time>2021-09-12T11:09:20Z</time>
      </trkpt>
      <trkpt lat="48.38724" lon="-3.97905">
        <ele>248.39999389648</ele>
        <time>2021-09-12T11:09:21Z</time>
      </trkpt>
      <trkpt lat="48.38722" lon="-3.97902">
        <ele>248.60000610352</ele>
        <time>2021-09-12T11:09:22Z</time>
      </trkpt>
      <trkpt lat="48.38721" lon="-3.97899">
        <ele>248.60000610352</ele>
        <time>2021-09-12T11:09:23Z</time>
      </trkpt>
      <trkpt lat="48.38719" lon="-3.97897">
        <ele>249</ele>
        <time>2021-09-12T11:09:24Z</time>
      </trkpt>
      <trkpt lat="48.38718" lon="-3.97895">
        <ele>249.19999694824</ele>
        <time>2021-09-12T11:09:25Z</time>
      </trkpt>
      <trkpt lat="48.38716" lon="-3.97894">
        <ele>249.39999389648</ele>
        <time>2021-09-12T11:09:26Z</time>
      </trkpt>
      <trkpt lat="48.38714" lon="-3.97892">
        <ele>249.39999389648</ele>
        <time>2021-09-12T11:09:27Z</time>
      </trkpt>
      <trkpt lat="48.38712" lon="-3.97891">
        <ele>249.60000610352</ele>
        <time>2021-09-12T11:09:28Z</time>
      </trkpt>
      <trkpt lat="48.3871" lon="-3.9789">
        <ele>249.80000305176</ele>
        <time>2021-09-12T11:09:29Z</time>
      </trkpt>
      <trkpt lat="48.38708" lon="-3.97888">
        <ele>250.19999694824</ele>
        <time>2021-09-12T11:09:30Z</time>
      </trkpt>
      <trkpt lat="48.38706" lon="-3.97886">
        <ele>250.39999389648</ele>
        <time>2021-09-12T11:09:31Z</time>
      </trkpt>
      <trkpt lat="48.38704" lon="-3.97883">
        <ele>250.39999389648</ele>
        <time>2021-09-12T11:09:32Z</time>
      </trkpt>
      <trkpt lat="48.38702" lon="-3.9788">
        <ele>250.60000610352</ele>
        <time>2021-09-12T11:09:33Z</time>
      </trkpt>
      <trkpt lat="48.38701" lon="-3.97877">
        <ele>250.80000305176</ele>
        <time>2021-09-12T11:09:34Z</time>
      </trkpt>
      <trkpt lat="48.38699" lon="-3.97876">
        <ele>250.80000305176</ele>
        <time>2021-09-12T11:09:35Z</time>
      </trkpt>
      <trkpt lat="48.38697" lon="-3.97875">
        <ele>251.19999694824</ele>
        <time>2021-09-12T11:09:36Z</time>
      </trkpt>
      <trkpt lat="48.38695" lon="-3.97874">
        <ele>251.19999694824</ele>
        <time>2021-09-12T11:09:37Z</time>
      </trkpt>
      <trkpt lat="48.38693" lon="-3.97872">
        <ele>251.60000610352</ele>
        <time>2021-09-12T11:09:38Z</time>
      </trkpt>
      <trkpt lat="48.38692" lon="-3.97871">
        <ele>252</ele>
        <time>2021-09-12T11:09:39Z</time>
      </trkpt>
      <trkpt lat="48.3869" lon="-3.97869">
        <ele>252</ele>
        <time>2021-09-12T11:09:40Z</time>
      </trkpt>
      <trkpt lat="48.38689" lon="-3.97868">
        <ele>252</ele>
        <time>2021-09-12T11:09:41Z</time>
      </trkpt>
      <trkpt lat="48.38687" lon="-3.97867">
        <ele>252.19999694824</ele>
        <time>2021-09-12T11:09:42Z</time>
      </trkpt>
      <trkpt lat="48.38685" lon="-3.97866">
        <ele>252.39999389648</ele>
        <time>2021-09-12T11:09:43Z</time>
      </trkpt>
      <trkpt lat="48.38683" lon="-3.97866">
        <ele>252.60000610352</ele>
        <time>2021-09-12T11:09:44Z</time>
      </trkpt>
      <trkpt lat="48.38682" lon="-3.97865">
        <ele>252.80000305176</ele>
        <time>2021-09-12T11:09:45Z</time>
      </trkpt>
      <trkpt lat="48.38681" lon="-3.97863">
        <ele>253.19999694824</ele>
        <time>2021-09-12T11:09:46Z</time>
      </trkpt>
      <trkpt lat="48.38679" lon="-3.97862">
        <ele>253.19999694824</ele>
        <time>2021-09-12T11:09:47Z</time>
      </trkpt>
      <trkpt lat="48.38677" lon="-3.97861">
        <ele>253.19999694824</ele>
        <time>2021-09-12T11:09:48Z</time>
      </trkpt>
      <trkpt lat="48.38676" lon="-3.9786">
        <ele>253.39999389648</ele>
        <time>2021-09-12T11:09:49Z</time>
      </trkpt>
      <trkpt lat="48.38674" lon="-3.97858">
        <ele>253.60000610352</ele>
        <time>2021-09-12T11:09:50Z</time>
      </trkpt>
      <trkpt lat="48.38673" lon="-3.97857">
        <ele>253.60000610352</ele>
        <time>2021-09-12T11:09:51Z</time>
      </trkpt>
      <trkpt lat="48.38672" lon="-3.97856">
        <ele>253.80000305176</ele>
        <time>2021-09-12T11:09:52Z</time>
      </trkpt>
      <trkpt lat="48.3867" lon="-3.97855">
        <ele>253.80000305176</ele>
        <time>2021-09-12T11:09:53Z</time>
      </trkpt>
      <trkpt lat="48.38669" lon="-3.97854">
        <ele>254.19999694824</ele>
        <time>2021-09-12T11:09:54Z</time>
      </trkpt>
      <trkpt lat="48.38667" lon="-3.97853">
        <ele>254.19999694824</ele>
        <time>2021-09-12T11:09:55Z</time>
      </trkpt>
      <trkpt lat="48.38666" lon="-3.97851">
        <ele>254.39999389648</ele>
        <time>2021-09-12T11:09:56Z</time>
      </trkpt>
      <trkpt lat="48.38664" lon="-3.9785">
        <ele>254.39999389648</ele>
        <time>2021-09-12T11:09:57Z</time>
      </trkpt>
      <trkpt lat="48.38662" lon="-3.97849">
        <ele>254.80000305176</ele>
        <time>2021-09-12T11:09:58Z</time>
      </trkpt>
      <trkpt lat="48.38661" lon="-3.97847">
        <ele>255</ele>
        <time>2021-09-12T11:09:59Z</time>
      </trkpt>
      <trkpt lat="48.3866" lon="-3.97845">
        <ele>255.19999694824</ele>
        <time>2021-09-12T11:10:00Z</time>
      </trkpt>
      <trkpt lat="48.38658" lon="-3.97844">
        <ele>255.19999694824</ele>
        <time>2021-09-12T11:10:01Z</time>
      </trkpt>
      <trkpt lat="48.38657" lon="-3.97843">
        <ele>255.19999694824</ele>
        <time>2021-09-12T11:10:02Z</time>
      </trkpt>
      <trkpt lat="48.38656" lon="-3.97842">
        <ele>255.39999389648</ele>
        <time>2021-09-12T11:10:03Z</time>
      </trkpt>
      <trkpt lat="48.38655" lon="-3.97841">
        <ele>255.60000610352</ele>
        <time>2021-09-12T11:10:04Z</time>
      </trkpt>
      <trkpt lat="48.38653" lon="-3.9784">
        <ele>255.60000610352</ele>
        <time>2021-09-12T11:10:05Z</time>
      </trkpt>
      <trkpt lat="48.38652" lon="-3.97839">
        <ele>256</ele>
        <time>2021-09-12T11:10:06Z</time>
      </trkpt>
      <trkpt lat="48.3865" lon="-3.97838">
        <ele>256</ele>
        <time>2021-09-12T11:10:07Z</time>
      </trkpt>
      <trkpt lat="48.38648" lon="-3.97837">
        <ele>256.20001220703</ele>
        <time>2021-09-12T11:10:08Z</time>
      </trkpt>
      <trkpt lat="48.38647" lon="-3.97836">
        <ele>256.20001220703</ele>
        <time>2021-09-12T11:10:09Z</time>
      </trkpt>
      <trkpt lat="48.38645" lon="-3.97835">
        <ele>256.39999389648</ele>
        <time>2021-09-12T11:10:10Z</time>
      </trkpt>
      <trkpt lat="48.38644" lon="-3.97834">
        <ele>256.39999389648</ele>
        <time>2021-09-12T11:10:11Z</time>
      </trkpt>
      <trkpt lat="48.38642" lon="-3.97833">
        <ele>256.60000610352</ele>
        <time>2021-09-12T11:10:12Z</time>
      </trkpt>
      <trkpt lat="48.38641" lon="-3.97832">
        <ele>256.60000610352</ele>
        <time>2021-09-12T11:10:13Z</time>
      </trkpt>
      <trkpt lat="48.38639" lon="-3.97831">
        <ele>256.79998779297</ele>
        <time>2021-09-12T11:10:14Z</time>
      </trkpt>
      <trkpt lat="48.38638" lon="-3.97829">
        <ele>257.20001220703</ele>
        <time>2021-09-12T11:10:15Z</time>
      </trkpt>
      <trkpt lat="48.38637" lon="-3.97828">
        <ele>257.20001220703</ele>
        <time>2021-09-12T11:10:16Z</time>
      </trkpt>
      <trkpt lat="48.38635" lon="-3.97828">
        <ele>257.20001220703</ele>
        <time>2021-09-12T11:10:17Z</time>
      </trkpt>
      <trkpt lat="48.38633" lon="-3.97827">
        <ele>257.39999389648</ele>
        <time>2021-09-12T11:10:18Z</time>
      </trkpt>
      <trkpt lat="48.38632" lon="-3.97826">
        <ele>257.79998779297</ele>
        <time>2021-09-12T11:10:19Z</time>
      </trkpt>
      <trkpt lat="48.3863" lon="-3.97825">
        <ele>257.79998779297</ele>
        <time>2021-09-12T11:10:20Z</time>
      </trkpt>
      <trkpt lat="48.38628" lon="-3.97825">
        <ele>258</ele>
        <time>2021-09-12T11:10:21Z</time>
      </trkpt>
      <trkpt lat="48.38626" lon="-3.97824">
        <ele>258</ele>
        <time>2021-09-12T11:10:22Z</time>
      </trkpt>
      <trkpt lat="48.38625" lon="-3.97824">
        <ele>258</ele>
        <time>2021-09-12T11:10:23Z</time>
      </trkpt>
      <trkpt lat="48.38623" lon="-3.97823">
        <ele>258.39999389648</ele>
        <time>2021-09-12T11:10:24Z</time>
      </trkpt>
      <trkpt lat="48.38622" lon="-3.97822">
        <ele>258.39999389648</ele>
        <time>2021-09-12T11:10:25Z</time>
      </trkpt>
      <trkpt lat="48.38621" lon="-3.97822">
        <ele>258.60000610352</ele>
        <time>2021-09-12T11:10:26Z</time>
      </trkpt>
      <trkpt lat="48.38619" lon="-3.97821">
        <ele>259</ele>
        <time>2021-09-12T11:10:27Z</time>
      </trkpt>
      <trkpt lat="48.38618" lon="-3.97821">
        <ele>259</ele>
        <time>2021-09-12T11:10:28Z</time>
      </trkpt>
      <trkpt lat="48.38617" lon="-3.9782">
        <ele>259.20001220703</ele>
        <time>2021-09-12T11:10:29Z</time>
      </trkpt>
      <trkpt lat="48.38615" lon="-3.97819">
        <ele>259.20001220703</ele>
        <time>2021-09-12T11:10:30Z</time>
      </trkpt>
      <trkpt lat="48.38614" lon="-3.97818">
        <ele>259.39999389648</ele>
        <time>2021-09-12T11:10:31Z</time>
      </trkpt>
      <trkpt lat="48.38612" lon="-3.97818">
        <ele>259.60000610352</ele>
        <time>2021-09-12T11:10:32Z</time>
      </trkpt>
      <trkpt lat="48.3861" lon="-3.97817">
        <ele>259.79998779297</ele>
        <time>2021-09-12T11:10:33Z</time>
      </trkpt>
      <trkpt lat="48.38609" lon="-3.97816">
        <ele>259.79998779297</ele>
        <time>2021-09-12T11:10:34Z</time>
      </trkpt>
      <trkpt lat="48.38607" lon="-3.97816">
        <ele>260</ele>
        <time>2021-09-12T11:10:35Z</time>
      </trkpt>
      <trkpt lat="48.38606" lon="-3.97815">
        <ele>260</ele>
        <time>2021-09-12T11:10:36Z</time>
      </trkpt>
      <trkpt lat="48.38604" lon="-3.97815">
        <ele>260</ele>
        <time>2021-09-12T11:10:37Z</time>
      </trkpt>
      <trkpt lat="48.38603" lon="-3.97814">
        <ele>260.20001220703</ele>
        <time>2021-09-12T11:10:38Z</time>
      </trkpt>
      <trkpt lat="48.38601" lon="-3.97814">
        <ele>260.39999389648</ele>
        <time>2021-09-12T11:10:39Z</time>
      </trkpt>
      <trkpt lat="48.38599" lon="-3.97814">
        <ele>260.60000610352</ele>
        <time>2021-09-12T11:10:40Z</time>
      </trkpt>
      <trkpt lat="48.38598" lon="-3.97813">
        <ele>260.79998779297</ele>
        <time>2021-09-12T11:10:41Z</time>
      </trkpt>
      <trkpt lat="48.38596" lon="-3.97812">
        <ele>260.79998779297</ele>
        <time>2021-09-12T11:10:42Z</time>
      </trkpt>
      <trkpt lat="48.38594" lon="-3.97812">
        <ele>260.79998779297</ele>
        <time>2021-09-12T11:10:43Z</time>
      </trkpt>
      <trkpt lat="48.38593" lon="-3.97811">
        <ele>261.20001220703</ele>
        <time>2021-09-12T11:10:44Z</time>
      </trkpt>
      <trkpt lat="48.38592" lon="-3.9781">
        <ele>261.20001220703</ele>
        <time>2021-09-12T11:10:45Z</time>
      </trkpt>
      <trkpt lat="48.3859" lon="-3.9781">
        <ele>261.39999389648</ele>
        <time>2021-09-12T11:10:46Z</time>
      </trkpt>
      <trkpt lat="48.38588" lon="-3.97809">
        <ele>261.39999389648</ele>
        <time>2021-09-12T11:10:47Z</time>
      </trkpt>
      <trkpt lat="48.38587" lon="-3.97808">
        <ele>261.79998779297</ele>
        <time>2021-09-12T11:10:48Z</time>
      </trkpt>
      <trkpt lat="48.38585" lon="-3.97808">
        <ele>262</ele>
        <time>2021-09-12T11:10:49Z</time>
      </trkpt>
      <trkpt lat="48.38583" lon="-3.97808">
        <ele>262.20001220703</ele>
        <time>2021-09-12T11:10:50Z</time>
      </trkpt>
      <trkpt lat="48.38582" lon="-3.97807">
        <ele>262.60000610352</ele>
        <time>2021-09-12T11:10:51Z</time>
      </trkpt>
      <trkpt lat="48.3858" lon="-3.97807">
        <ele>262.60000610352</ele>
        <time>2021-09-12T11:10:52Z</time>
      </trkpt>
      <trkpt lat="48.38578" lon="-3.97807">
        <ele>262.60000610352</ele>
        <time>2021-09-12T11:10:53Z</time>
      </trkpt>
      <trkpt lat="48.38577" lon="-3.97807">
        <ele>263</ele>
        <time>2021-09-12T11:10:54Z</time>
      </trkpt>
      <trkpt lat="48.38575" lon="-3.97807">
        <ele>263.39999389648</ele>
        <time>2021-09-12T11:10:55Z</time>
      </trkpt>
      <trkpt lat="48.38574" lon="-3.97807">
        <ele>263.39999389648</ele>
        <time>2021-09-12T11:10:56Z</time>
      </trkpt>
      <trkpt lat="48.38572" lon="-3.97806">
        <ele>263.60000610352</ele>
        <time>2021-09-12T11:10:57Z</time>
      </trkpt>
      <trkpt lat="48.3857" lon="-3.97806">
        <ele>263.79998779297</ele>
        <time>2021-09-12T11:10:58Z</time>
      </trkpt>
      <trkpt lat="48.38569" lon="-3.97806">
        <ele>263.79998779297</ele>
        <time>2021-09-12T11:10:59Z</time>
      </trkpt>
      <trkpt lat="48.38567" lon="-3.97806">
        <ele>264.20001220703</ele>
        <time>2021-09-12T11:11:00Z</time>
      </trkpt>
      <trkpt lat="48.38566" lon="-3.97806">
        <ele>264.39999389648</ele>
        <time>2021-09-12T11:11:01Z</time>
      </trkpt>
      <trkpt lat="48.38564" lon="-3.97806">
        <ele>264.60000610352</ele>
        <time>2021-09-12T11:11:02Z</time>
      </trkpt>
      <trkpt lat="48.38563" lon="-3.97805">
        <ele>264.60000610352</ele>
        <time>2021-09-12T11:11:03Z</time>
      </trkpt>
      <trkpt lat="48.38562" lon="-3.97806">
        <ele>265</ele>
        <time>2021-09-12T11:11:04Z</time>
      </trkpt>
      <trkpt lat="48.3856" lon="-3.97806">
        <ele>265.20001220703</ele>
        <time>2021-09-12T11:11:05Z</time>
      </trkpt>
      <trkpt lat="48.38559" lon="-3.97806">
        <ele>265.20001220703</ele>
        <time>2021-09-12T11:11:06Z</time>
      </trkpt>
      <trkpt lat="48.38558" lon="-3.97806">
        <ele>265.39999389648</ele>
        <time>2021-09-12T11:11:07Z</time>
      </trkpt>
      <trkpt lat="48.38557" lon="-3.97806">
        <ele>265.60000610352</ele>
        <time>2021-09-12T11:11:08Z</time>
      </trkpt>
      <trkpt lat="48.38555" lon="-3.97807">
        <ele>265.79998779297</ele>
        <time>2021-09-12T11:11:09Z</time>
      </trkpt>
      <trkpt lat="48.38554" lon="-3.97807">
        <ele>266.20001220703</ele>
        <time>2021-09-12T11:11:10Z</time>
      </trkpt>
      <trkpt lat="48.38552" lon="-3.97807">
        <ele>266.20001220703</ele>
        <time>2021-09-12T11:11:11Z</time>
      </trkpt>
      <trkpt lat="48.38551" lon="-3.97807">
        <ele>266.39999389648</ele>
        <time>2021-09-12T11:11:12Z</time>
      </trkpt>
      <trkpt lat="48.38549" lon="-3.97807">
        <ele>266.79998779297</ele>
        <time>2021-09-12T11:11:13Z</time>
      </trkpt>
      <trkpt lat="48.38548" lon="-3.97807">
        <ele>266.79998779297</ele>
        <time>2021-09-12T11:11:14Z</time>
      </trkpt>
      <trkpt lat="48.38547" lon="-3.97807">
        <ele>267</ele>
        <time>2021-09-12T11:11:15Z</time>
      </trkpt>
      <trkpt lat="48.38545" lon="-3.97807">
        <ele>267</ele>
        <time>2021-09-12T11:11:16Z</time>
      </trkpt>
      <trkpt lat="48.38544" lon="-3.97807">
        <ele>267.39999389648</ele>
        <time>2021-09-12T11:11:17Z</time>
      </trkpt>
      <trkpt lat="48.38543" lon="-3.97808">
        <ele>267.60000610352</ele>
        <time>2021-09-12T11:11:18Z</time>
      </trkpt>
      <trkpt lat="48.38541" lon="-3.97808">
        <ele>267.60000610352</ele>
        <time>2021-09-12T11:11:19Z</time>
      </trkpt>
      <trkpt lat="48.38539" lon="-3.97808">
        <ele>267.79998779297</ele>
        <time>2021-09-12T11:11:20Z</time>
      </trkpt>
      <trkpt lat="48.38538" lon="-3.97808">
        <ele>268</ele>
        <time>2021-09-12T11:11:21Z</time>
      </trkpt>
      <trkpt lat="48.38536" lon="-3.97809">
        <ele>268.20001220703</ele>
        <time>2021-09-12T11:11:22Z</time>
      </trkpt>
      <trkpt lat="48.38535" lon="-3.9781">
        <ele>268.60000610352</ele>
        <time>2021-09-12T11:11:23Z</time>
      </trkpt>
      <trkpt lat="48.38533" lon="-3.9781">
        <ele>268.60000610352</ele>
        <time>2021-09-12T11:11:24Z</time>
      </trkpt>
      <trkpt lat="48.38531" lon="-3.97811">
        <ele>268.79998779297</ele>
        <time>2021-09-12T11:11:25Z</time>
      </trkpt>
      <trkpt lat="48.38529" lon="-3.97812">
        <ele>268.79998779297</ele>
        <time>2021-09-12T11:11:26Z</time>
      </trkpt>
      <trkpt lat="48.38528" lon="-3.97812">
        <ele>269</ele>
        <time>2021-09-12T11:11:27Z</time>
      </trkpt>
      <trkpt lat="48.38526" lon="-3.97812">
        <ele>269.39999389648</ele>
        <time>2021-09-12T11:11:28Z</time>
      </trkpt>
      <trkpt lat="48.38525" lon="-3.97813">
        <ele>269.60000610352</ele>
        <time>2021-09-12T11:11:29Z</time>
      </trkpt>
      <trkpt lat="48.38523" lon="-3.97813">
        <ele>269.60000610352</ele>
        <time>2021-09-12T11:11:30Z</time>
      </trkpt>
      <trkpt lat="48.38522" lon="-3.97814">
        <ele>269.79998779297</ele>
        <time>2021-09-12T11:11:31Z</time>
      </trkpt>
      <trkpt lat="48.3852" lon="-3.97815">
        <ele>270.20001220703</ele>
        <time>2021-09-12T11:11:32Z</time>
      </trkpt>
      <trkpt lat="48.38518" lon="-3.97815">
        <ele>270.20001220703</ele>
        <time>2021-09-12T11:11:33Z</time>
      </trkpt>
      <trkpt lat="48.38517" lon="-3.97815">
        <ele>270.79998779297</ele>
        <time>2021-09-12T11:11:34Z</time>
      </trkpt>
      <trkpt lat="48.38517" lon="-3.97815">
        <ele>270.79998779297</ele>
        <time>2021-09-12T11:11:35Z</time>
      </trkpt>
      <trkpt lat="48.38515" lon="-3.97816">
        <ele>270.79998779297</ele>
        <time>2021-09-12T11:11:36Z</time>
      </trkpt>
      <trkpt lat="48.38514" lon="-3.97816">
        <ele>271.20001220703</ele>
        <time>2021-09-12T11:11:37Z</time>
      </trkpt>
      <trkpt lat="48.38513" lon="-3.97817">
        <ele>271.39999389648</ele>
        <time>2021-09-12T11:11:38Z</time>
      </trkpt>
      <trkpt lat="48.38511" lon="-3.97818">
        <ele>271.39999389648</ele>
        <time>2021-09-12T11:11:39Z</time>
      </trkpt>
      <trkpt lat="48.3851" lon="-3.97818">
        <ele>271.79998779297</ele>
        <time>2021-09-12T11:11:40Z</time>
      </trkpt>
      <trkpt lat="48.38509" lon="-3.97819">
        <ele>272</ele>
        <time>2021-09-12T11:11:41Z</time>
      </trkpt>
      <trkpt lat="48.38507" lon="-3.97819">
        <ele>272</ele>
        <time>2021-09-12T11:11:42Z</time>
      </trkpt>
      <trkpt lat="48.38506" lon="-3.9782">
        <ele>272.20001220703</ele>
        <time>2021-09-12T11:11:43Z</time>
      </trkpt>
      <trkpt lat="48.38504" lon="-3.9782">
        <ele>272.39999389648</ele>
        <time>2021-09-12T11:11:44Z</time>
      </trkpt>
      <trkpt lat="48.38503" lon="-3.9782">
        <ele>272.60000610352</ele>
        <time>2021-09-12T11:11:45Z</time>
      </trkpt>
      <trkpt lat="48.38502" lon="-3.9782">
        <ele>272.79998779297</ele>
        <time>2021-09-12T11:11:46Z</time>
      </trkpt>
      <trkpt lat="48.38501" lon="-3.9782">
        <ele>273</ele>
        <time>2021-09-12T11:11:47Z</time>
      </trkpt>
      <trkpt lat="48.385" lon="-3.9782">
        <ele>273.20001220703</ele>
        <time>2021-09-12T11:11:48Z</time>
      </trkpt>
      <trkpt lat="48.38498" lon="-3.97821">
        <ele>273.60000610352</ele>
        <time>2021-09-12T11:11:49Z</time>
      </trkpt>
      <trkpt lat="48.38497" lon="-3.97822">
        <ele>273.79998779297</ele>
        <time>2021-09-12T11:11:50Z</time>
      </trkpt>
      <trkpt lat="48.38495" lon="-3.97823">
        <ele>273.79998779297</ele>
        <time>2021-09-12T11:11:51Z</time>
      </trkpt>
      <trkpt lat="48.38494" lon="-3.97823">
        <ele>274</ele>
        <time>2021-09-12T11:11:52Z</time>
      </trkpt>
      <trkpt lat="48.38493" lon="-3.97824">
        <ele>274</ele>
        <time>2021-09-12T11:11:53Z</time>
      </trkpt>
      <trkpt lat="48.38491" lon="-3.97824">
        <ele>274.60000610352</ele>
        <time>2021-09-12T11:11:54Z</time>
      </trkpt>
      <trkpt lat="48.3849" lon="-3.97825">
        <ele>274.79998779297</ele>
        <time>2021-09-12T11:11:55Z</time>
      </trkpt>
      <trkpt lat="48.38489" lon="-3.97825">
        <ele>274.79998779297</ele>
        <time>2021-09-12T11:11:56Z</time>
      </trkpt>
      <trkpt lat="48.38487" lon="-3.97825">
        <ele>275</ele>
        <time>2021-09-12T11:11:57Z</time>
      </trkpt>
      <trkpt lat="48.38486" lon="-3.97826">
        <ele>275.39999389648</ele>
        <time>2021-09-12T11:11:58Z</time>
      </trkpt>
      <trkpt lat="48.38485" lon="-3.97826">
        <ele>275.39999389648</ele>
        <time>2021-09-12T11:11:59Z</time>
      </trkpt>
      <trkpt lat="48.38483" lon="-3.97827">
        <ele>275.79998779297</ele>
        <time>2021-09-12T11:12:00Z</time>
      </trkpt>
      <trkpt lat="48.38482" lon="-3.97827">
        <ele>276</ele>
        <time>2021-09-12T11:12:01Z</time>
      </trkpt>
      <trkpt lat="48.38481" lon="-3.97828">
        <ele>276</ele>
        <time>2021-09-12T11:12:02Z</time>
      </trkpt>
      <trkpt lat="48.38479" lon="-3.97828">
        <ele>276</ele>
        <time>2021-09-12T11:12:03Z</time>
      </trkpt>
      <trkpt lat="48.38478" lon="-3.97829">
        <ele>276.39999389648</ele>
        <time>2021-09-12T11:12:04Z</time>
      </trkpt>
      <trkpt lat="48.38477" lon="-3.9783">
        <ele>276.79998779297</ele>
        <time>2021-09-12T11:12:05Z</time>
      </trkpt>
      <trkpt lat="48.38475" lon="-3.9783">
        <ele>277</ele>
        <time>2021-09-12T11:12:06Z</time>
      </trkpt>
      <trkpt lat="48.38474" lon="-3.97831">
        <ele>277</ele>
        <time>2021-09-12T11:12:07Z</time>
      </trkpt>
      <trkpt lat="48.38472" lon="-3.97832">
        <ele>277.20001220703</ele>
        <time>2021-09-12T11:12:08Z</time>
      </trkpt>
      <trkpt lat="48.38471" lon="-3.97833">
        <ele>277.20001220703</ele>
        <time>2021-09-12T11:12:09Z</time>
      </trkpt>
      <trkpt lat="48.38469" lon="-3.97834">
        <ele>277.60000610352</ele>
        <time>2021-09-12T11:12:10Z</time>
      </trkpt>
      <trkpt lat="48.38468" lon="-3.97835">
        <ele>277.79998779297</ele>
        <time>2021-09-12T11:12:11Z</time>
      </trkpt>
      <trkpt lat="48.38467" lon="-3.97835">
        <ele>278</ele>
        <time>2021-09-12T11:12:12Z</time>
      </trkpt>
      <trkpt lat="48.38466" lon="-3.97835">
        <ele>278.20001220703</ele>
        <time>2021-09-12T11:12:13Z</time>
      </trkpt>
      <trkpt lat="48.38465" lon="-3.97836">
        <ele>278.39999389648</ele>
        <time>2021-09-12T11:12:14Z</time>
      </trkpt>
      <trkpt lat="48.38463" lon="-3.97837">
        <ele>278.39999389648</ele>
        <time>2021-09-12T11:12:15Z</time>
      </trkpt>
      <trkpt lat="48.38462" lon="-3.97838">
        <ele>278.79998779297</ele>
        <time>2021-09-12T11:12:16Z</time>
      </trkpt>
      <trkpt lat="48.3846" lon="-3.97838">
        <ele>278.79998779297</ele>
        <time>2021-09-12T11:12:17Z</time>
      </trkpt>
      <trkpt lat="48.38459" lon="-3.97839">
        <ele>279.20001220703</ele>
        <time>2021-09-12T11:12:18Z</time>
      </trkpt>
      <trkpt lat="48.38457" lon="-3.97839">
        <ele>279.39999389648</ele>
        <time>2021-09-12T11:12:19Z</time>
      </trkpt>
      <trkpt lat="48.38456" lon="-3.9784">
        <ele>279.60000610352</ele>
        <time>2021-09-12T11:12:20Z</time>
      </trkpt>
      <trkpt lat="48.38454" lon="-3.9784">
        <ele>279.60000610352</ele>
        <time>2021-09-12T11:12:21Z</time>
      </trkpt>
      <trkpt lat="48.38453" lon="-3.97841">
        <ele>279.79998779297</ele>
        <time>2021-09-12T11:12:22Z</time>
      </trkpt>
      <trkpt lat="48.38451" lon="-3.97841">
        <ele>280</ele>
        <time>2021-09-12T11:12:23Z</time>
      </trkpt>
      <trkpt lat="48.3845" lon="-3.97842">
        <ele>280.20001220703</ele>
        <time>2021-09-12T11:12:24Z</time>
      </trkpt>
      <trkpt lat="48.38448" lon="-3.97842">
        <ele>280.39999389648</ele>
        <time>2021-09-12T11:12:25Z</time>
      </trkpt>
      <trkpt lat="48.38447" lon="-3.97842">
        <ele>280.39999389648</ele>
        <time>2021-09-12T11:12:26Z</time>
      </trkpt>
      <trkpt lat="48.38445" lon="-3.97842">
        <ele>280.60000610352</ele>
        <time>2021-09-12T11:12:27Z</time>
      </trkpt>
      <trkpt lat="48.38444" lon="-3.97842">
        <ele>280.79998779297</ele>
        <time>2021-09-12T11:12:28Z</time>
      </trkpt>
      <trkpt lat="48.38442" lon="-3.97842">
        <ele>281</ele>
        <time>2021-09-12T11:12:29Z</time>
      </trkpt>
      <trkpt lat="48.3844" lon="-3.97841">
        <ele>281</ele>
        <time>2021-09-12T11:12:30Z</time>
      </trkpt>
      <trkpt lat="48.38439" lon="-3.9784">
        <ele>281.39999389648</ele>
        <time>2021-09-12T11:12:31Z</time>
      </trkpt>
      <trkpt lat="48.38437" lon="-3.9784">
        <ele>281.60000610352</ele>
        <time>2021-09-12T11:12:32Z</time>
      </trkpt>
      <trkpt lat="48.38436" lon="-3.97839">
        <ele>281.60000610352</ele>
        <time>2021-09-12T11:12:33Z</time>
      </trkpt>
      <trkpt lat="48.38434" lon="-3.97839">
        <ele>281.60000610352</ele>
        <time>2021-09-12T11:12:34Z</time>
      </trkpt>
      <trkpt lat="48.38433" lon="-3.97838">
        <ele>281.79998779297</ele>
        <time>2021-09-12T11:12:35Z</time>
      </trkpt>
      <trkpt lat="48.38431" lon="-3.97837">
        <ele>282</ele>
        <time>2021-09-12T11:12:36Z</time>
      </trkpt>
      <trkpt lat="48.3843" lon="-3.97836">
        <ele>282.20001220703</ele>
        <time>2021-09-12T11:12:37Z</time>
      </trkpt>
      <trkpt lat="48.38428" lon="-3.97835">
        <ele>282.20001220703</ele>
        <time>2021-09-12T11:12:38Z</time>
      </trkpt>
      <trkpt lat="48.38426" lon="-3.97834">
        <ele>282.39999389648</ele>
        <time>2021-09-12T11:12:39Z</time>
      </trkpt>
      <trkpt lat="48.38424" lon="-3.97833">
        <ele>282.39999389648</ele>
        <time>2021-09-12T11:12:40Z</time>
      </trkpt>
      <trkpt lat="48.38421" lon="-3.97833">
        <ele>282.60000610352</ele>
        <time>2021-09-12T11:12:41Z</time>
      </trkpt>
      <trkpt lat="48.38419" lon="-3.97832">
        <ele>282.79998779297</ele>
        <time>2021-09-12T11:12:42Z</time>
      </trkpt>
      <trkpt lat="48.38417" lon="-3.97832">
        <ele>283</ele>
        <time>2021-09-12T11:12:43Z</time>
      </trkpt>
      <trkpt lat="48.38416" lon="-3.97832">
        <ele>283</ele>
        <time>2021-09-12T11:12:44Z</time>
      </trkpt>
      <trkpt lat="48.38414" lon="-3.97832">
        <ele>283</ele>
        <time>2021-09-12T11:12:45Z</time>
      </trkpt>
      <trkpt lat="48.38413" lon="-3.97831">
        <ele>283</ele>
        <time>2021-09-12T11:12:46Z</time>
      </trkpt>
      <trkpt lat="48.38411" lon="-3.97831">
        <ele>283.20001220703</ele>
        <time>2021-09-12T11:12:47Z</time>
      </trkpt>
      <trkpt lat="48.3841" lon="-3.9783">
        <ele>283.20001220703</ele>
        <time>2021-09-12T11:12:48Z</time>
      </trkpt>
      <trkpt lat="48.3841" lon="-3.97828">
        <ele>283.39999389648</ele>
        <time>2021-09-12T11:12:49Z</time>
      </trkpt>
      <trkpt lat="48.3841" lon="-3.97825">
        <ele>283.39999389648</ele>
        <time>2021-09-12T11:12:50Z</time>
      </trkpt>
      <trkpt lat="48.3841" lon="-3.97822">
        <ele>283.60000610352</ele>
        <time>2021-09-12T11:12:51Z</time>
      </trkpt>
      <trkpt lat="48.38411" lon="-3.9782">
        <ele>284</ele>
        <time>2021-09-12T11:12:52Z</time>
      </trkpt>
      <trkpt lat="48.38411" lon="-3.97817">
        <ele>284</ele>
        <time>2021-09-12T11:12:53Z</time>
      </trkpt>
      <trkpt lat="48.38412" lon="-3.97815">
        <ele>284.60000610352</ele>
        <time>2021-09-12T11:12:54Z</time>
      </trkpt>
      <trkpt lat="48.38412" lon="-3.97812">
        <ele>284.79998779297</ele>
        <time>2021-09-12T11:12:55Z</time>
      </trkpt>
      <trkpt lat="48.38413" lon="-3.9781">
        <ele>285.20001220703</ele>
        <time>2021-09-12T11:12:56Z</time>
      </trkpt>
      <trkpt lat="48.38414" lon="-3.97809">
        <ele>285.60000610352</ele>
        <time>2021-09-12T11:12:57Z</time>
      </trkpt>
      <trkpt lat="48.38414" lon="-3.97807">
        <ele>285.60000610352</ele>
        <time>2021-09-12T11:12:58Z</time>
      </trkpt>
      <trkpt lat="48.38415" lon="-3.97805">
        <ele>285.60000610352</ele>
        <time>2021-09-12T11:12:59Z</time>
      </trkpt>
      <trkpt lat="48.38415" lon="-3.97803">
        <ele>286</ele>
        <time>2021-09-12T11:13:00Z</time>
      </trkpt>
      <trkpt lat="48.38416" lon="-3.97801">
        <ele>286.20001220703</ele>
        <time>2021-09-12T11:13:01Z</time>
      </trkpt>
      <trkpt lat="48.38417" lon="-3.97799">
        <ele>286.39999389648</ele>
        <time>2021-09-12T11:13:02Z</time>
      </trkpt>
      <trkpt lat="48.38417" lon="-3.97797">
        <ele>286.60000610352</ele>
        <time>2021-09-12T11:13:03Z</time>
      </trkpt>
      <trkpt lat="48.38418" lon="-3.97795">
        <ele>286.79998779297</ele>
        <time>2021-09-12T11:13:04Z</time>
      </trkpt>
      <trkpt lat="48.38419" lon="-3.97793">
        <ele>286.79998779297</ele>
        <time>2021-09-12T11:13:05Z</time>
      </trkpt>
      <trkpt lat="48.3842" lon="-3.97791">
        <ele>287</ele>
        <time>2021-09-12T11:13:06Z</time>
      </trkpt>
      <trkpt lat="48.38421" lon="-3.97789">
        <ele>287.39999389648</ele>
        <time>2021-09-12T11:13:07Z</time>
      </trkpt>
      <trkpt lat="48.38422" lon="-3.97788">
        <ele>287.39999389648</ele>
        <time>2021-09-12T11:13:08Z</time>
      </trkpt>
      <trkpt lat="48.38423" lon="-3.97786">
        <ele>287.79998779297</ele>
        <time>2021-09-12T11:13:09Z</time>
      </trkpt>
      <trkpt lat="48.38424" lon="-3.97784">
        <ele>287.79998779297</ele>
        <time>2021-09-12T11:13:10Z</time>
      </trkpt>
      <trkpt lat="48.38425" lon="-3.97782">
        <ele>288</ele>
        <time>2021-09-12T11:13:11Z</time>
      </trkpt>
      <trkpt lat="48.38426" lon="-3.9778">
        <ele>288.20001220703</ele>
        <time>2021-09-12T11:13:12Z</time>
      </trkpt>
      <trkpt lat="48.38426" lon="-3.97778">
        <ele>288.60000610352</ele>
        <time>2021-09-12T11:13:13Z</time>
      </trkpt>
      <trkpt lat="48.38428" lon="-3.97776">
        <ele>288.60000610352</ele>
        <time>2021-09-12T11:13:14Z</time>
      </trkpt>
      <trkpt lat="48.38429" lon="-3.97774">
        <ele>289.20001220703</ele>
        <time>2021-09-12T11:13:15Z</time>
      </trkpt>
      <trkpt lat="48.3843" lon="-3.97772">
        <ele>289.39999389648</ele>
        <time>2021-09-12T11:13:16Z</time>
      </trkpt>
      <trkpt lat="48.38432" lon="-3.9777">
        <ele>289.79998779297</ele>
        <time>2021-09-12T11:13:17Z</time>
      </trkpt>
      <trkpt lat="48.38433" lon="-3.97768">
        <ele>289.79998779297</ele>
        <time>2021-09-12T11:13:18Z</time>
      </trkpt>
      <trkpt lat="48.38434" lon="-3.97766">
        <ele>290</ele>
        <time>2021-09-12T11:13:19Z</time>
      </trkpt>
      <trkpt lat="48.38435" lon="-3.97765">
        <ele>290.39999389648</ele>
        <time>2021-09-12T11:13:20Z</time>
      </trkpt>
      <trkpt lat="48.38436" lon="-3.97763">
        <ele>290.60000610352</ele>
        <time>2021-09-12T11:13:21Z</time>
      </trkpt>
      <trkpt lat="48.38438" lon="-3.97761">
        <ele>290.79998779297</ele>
        <time>2021-09-12T11:13:22Z</time>
      </trkpt>
      <trkpt lat="48.38439" lon="-3.97759">
        <ele>291</ele>
        <time>2021-09-12T11:13:23Z</time>
      </trkpt>
      <trkpt lat="48.3844" lon="-3.97757">
        <ele>291.20001220703</ele>
        <time>2021-09-12T11:13:24Z</time>
      </trkpt>
      <trkpt lat="48.38441" lon="-3.97755">
        <ele>291.20001220703</ele>
        <time>2021-09-12T11:13:25Z</time>
      </trkpt>
      <trkpt lat="48.38442" lon="-3.97754">
        <ele>291.60000610352</ele>
        <time>2021-09-12T11:13:26Z</time>
      </trkpt>
      <trkpt lat="48.38442" lon="-3.97752">
        <ele>291.60000610352</ele>
        <time>2021-09-12T11:13:27Z</time>
      </trkpt>
      <trkpt lat="48.38443" lon="-3.9775">
        <ele>292</ele>
        <time>2021-09-12T11:13:28Z</time>
      </trkpt>
      <trkpt lat="48.38444" lon="-3.97748">
        <ele>292.20001220703</ele>
        <time>2021-09-12T11:13:29Z</time>
      </trkpt>
      <trkpt lat="48.38445" lon="-3.97747">
        <ele>292.20001220703</ele>
        <time>2021-09-12T11:13:30Z</time>
      </trkpt>
      <trkpt lat="48.38446" lon="-3.97744">
        <ele>292.20001220703</ele>
        <time>2021-09-12T11:13:31Z</time>
      </trkpt>
      <trkpt lat="48.38447" lon="-3.97742">
        <ele>292.60000610352</ele>
        <time>2021-09-12T11:13:32Z</time>
      </trkpt>
      <trkpt lat="48.38448" lon="-3.9774">
        <ele>292.79998779297</ele>
        <time>2021-09-12T11:13:33Z</time>
      </trkpt>
      <trkpt lat="48.3845" lon="-3.97738">
        <ele>293.20001220703</ele>
        <time>2021-09-12T11:13:34Z</time>
      </trkpt>
      <trkpt lat="48.38451" lon="-3.97736">
        <ele>293.20001220703</ele>
        <time>2021-09-12T11:13:35Z</time>
      </trkpt>
      <trkpt lat="48.38453" lon="-3.97734">
        <ele>293.39999389648</ele>
        <time>2021-09-12T11:13:36Z</time>
      </trkpt>
      <trkpt lat="48.38454" lon="-3.97732">
        <ele>293.79998779297</ele>
        <time>2021-09-12T11:13:37Z</time>
      </trkpt>
      <trkpt lat="48.38455" lon="-3.9773">
        <ele>294</ele>
        <time>2021-09-12T11:13:38Z</time>
      </trkpt>
      <trkpt lat="48.38457" lon="-3.97728">
        <ele>294.39999389648</ele>
        <time>2021-09-12T11:13:39Z</time>
      </trkpt>
      <trkpt lat="48.38458" lon="-3.97727">
        <ele>294.60000610352</ele>
        <time>2021-09-12T11:13:40Z</time>
      </trkpt>
      <trkpt lat="48.3846" lon="-3.97725">
        <ele>295</ele>
        <time>2021-09-12T11:13:41Z</time>
      </trkpt>
      <trkpt lat="48.38461" lon="-3.97723">
        <ele>295</ele>
        <time>2021-09-12T11:13:42Z</time>
      </trkpt>
      <trkpt lat="48.38463" lon="-3.97721">
        <ele>295.60000610352</ele>
        <time>2021-09-12T11:13:43Z</time>
      </trkpt>
      <trkpt lat="48.38465" lon="-3.97719">
        <ele>295.79998779297</ele>
        <time>2021-09-12T11:13:44Z</time>
      </trkpt>
      <trkpt lat="48.38466" lon="-3.97717">
        <ele>295.79998779297</ele>
        <time>2021-09-12T11:13:45Z</time>
      </trkpt>
      <trkpt lat="48.38467" lon="-3.97715">
        <ele>296</ele>
        <time>2021-09-12T11:13:46Z</time>
      </trkpt>
      <trkpt lat="48.38469" lon="-3.97713">
        <ele>296.39999389648</ele>
        <time>2021-09-12T11:13:47Z</time>
      </trkpt>
      <trkpt lat="48.3847" lon="-3.97711">
        <ele>296.39999389648</ele>
        <time>2021-09-12T11:13:48Z</time>
      </trkpt>
      <trkpt lat="48.38471" lon="-3.97708">
        <ele>296.60000610352</ele>
        <time>2021-09-12T11:13:49Z</time>
      </trkpt>
      <trkpt lat="48.38472" lon="-3.97706">
        <ele>297</ele>
        <time>2021-09-12T11:13:50Z</time>
      </trkpt>
      <trkpt lat="48.38474" lon="-3.97703">
        <ele>297.20001220703</ele>
        <time>2021-09-12T11:13:51Z</time>
      </trkpt>
      <trkpt lat="48.38475" lon="-3.97701">
        <ele>297.20001220703</ele>
        <time>2021-09-12T11:13:52Z</time>
      </trkpt>
      <trkpt lat="48.38476" lon="-3.97698">
        <ele>297.20001220703</ele>
        <time>2021-09-12T11:13:53Z</time>
      </trkpt>
      <trkpt lat="48.38477" lon="-3.97696">
        <ele>297.60000610352</ele>
        <time>2021-09-12T11:13:54Z</time>
      </trkpt>
      <trkpt lat="48.38478" lon="-3.97694">
        <ele>297.60000610352</ele>
        <time>2021-09-12T11:13:55Z</time>
      </trkpt>
      <trkpt lat="48.3848" lon="-3.9769">
        <ele>297.79998779297</ele>
        <time>2021-09-12T11:13:56Z</time>
      </trkpt>
      <trkpt lat="48.38481" lon="-3.97686">
        <ele>297.79998779297</ele>
        <time>2021-09-12T11:13:57Z</time>
      </trkpt>
      <trkpt lat="48.38482" lon="-3.97683">
        <ele>297.79998779297</ele>
        <time>2021-09-12T11:13:58Z</time>
      </trkpt>
      <trkpt lat="48.38483" lon="-3.9768">
        <ele>297.79998779297</ele>
        <time>2021-09-12T11:13:59Z</time>
      </trkpt>
      <trkpt lat="48.38485" lon="-3.97676">
        <ele>298</ele>
        <time>2021-09-12T11:14:00Z</time>
      </trkpt>
      <trkpt lat="48.38485" lon="-3.97673">
        <ele>298</ele>
        <time>2021-09-12T11:14:01Z</time>
      </trkpt>
      <trkpt lat="48.38486" lon="-3.97669">
        <ele>298</ele>
        <time>2021-09-12T11:14:02Z</time>
      </trkpt>
      <trkpt lat="48.38487" lon="-3.97666">
        <ele>298</ele>
        <time>2021-09-12T11:14:03Z</time>
      </trkpt>
      <trkpt lat="48.38488" lon="-3.97662">
        <ele>298.20001220703</ele>
        <time>2021-09-12T11:14:04Z</time>
      </trkpt>
      <trkpt lat="48.38489" lon="-3.97658">
        <ele>298.20001220703</ele>
        <time>2021-09-12T11:14:05Z</time>
      </trkpt>
      <trkpt lat="48.3849" lon="-3.97654">
        <ele>298.20001220703</ele>
        <time>2021-09-12T11:14:06Z</time>
      </trkpt>
      <trkpt lat="48.38492" lon="-3.9765">
        <ele>298.20001220703</ele>
        <time>2021-09-12T11:14:07Z</time>
      </trkpt>
      <trkpt lat="48.38493" lon="-3.97647">
        <ele>298.20001220703</ele>
        <time>2021-09-12T11:14:08Z</time>
      </trkpt>
      <trkpt lat="48.38494" lon="-3.97643">
        <ele>298.39999389648</ele>
        <time>2021-09-12T11:14:09Z</time>
      </trkpt>
      <trkpt lat="48.38495" lon="-3.97639">
        <ele>298.39999389648</ele>
        <time>2021-09-12T11:14:10Z</time>
      </trkpt>
      <trkpt lat="48.38496" lon="-3.97635">
        <ele>298.39999389648</ele>
        <time>2021-09-12T11:14:11Z</time>
      </trkpt>
      <trkpt lat="48.38497" lon="-3.97632">
        <ele>298.60000610352</ele>
        <time>2021-09-12T11:14:12Z</time>
      </trkpt>
      <trkpt lat="48.38498" lon="-3.97628">
        <ele>298.60000610352</ele>
        <time>2021-09-12T11:14:13Z</time>
      </trkpt>
      <trkpt lat="48.38499" lon="-3.97624">
        <ele>298.60000610352</ele>
        <time>2021-09-12T11:14:14Z</time>
      </trkpt>
      <trkpt lat="48.385" lon="-3.97619">
        <ele>298.60000610352</ele>
        <time>2021-09-12T11:14:15Z</time>
      </trkpt>
      <trkpt lat="48.38501" lon="-3.97616">
        <ele>298.79998779297</ele>
        <time>2021-09-12T11:14:16Z</time>
      </trkpt>
      <trkpt lat="48.38502" lon="-3.97612">
        <ele>298.79998779297</ele>
        <time>2021-09-12T11:14:17Z</time>
      </trkpt>
      <trkpt lat="48.38503" lon="-3.97609">
        <ele>299</ele>
        <time>2021-09-12T11:14:18Z</time>
      </trkpt>
      <trkpt lat="48.38504" lon="-3.97605">
        <ele>299</ele>
        <time>2021-09-12T11:14:19Z</time>
      </trkpt>
      <trkpt lat="48.38506" lon="-3.976">
        <ele>299.20001220703</ele>
        <time>2021-09-12T11:14:20Z</time>
      </trkpt>
      <trkpt lat="48.38507" lon="-3.97597">
        <ele>299.39999389648</ele>
        <time>2021-09-12T11:14:21Z</time>
      </trkpt>
      <trkpt lat="48.38508" lon="-3.97593">
        <ele>299.39999389648</ele>
        <time>2021-09-12T11:14:22Z</time>
      </trkpt>
      <trkpt lat="48.38509" lon="-3.97589">
        <ele>299.60000610352</ele>
        <time>2021-09-12T11:14:23Z</time>
      </trkpt>
      <trkpt lat="48.3851" lon="-3.97586">
        <ele>299.79998779297</ele>
        <time>2021-09-12T11:14:24Z</time>
      </trkpt>
      <trkpt lat="48.38512" lon="-3.97582">
        <ele>300</ele>
        <time>2021-09-12T11:14:25Z</time>
      </trkpt>
      <trkpt lat="48.38513" lon="-3.97579">
        <ele>300.20001220703</ele>
        <time>2021-09-12T11:14:26Z</time>
      </trkpt>
      <trkpt lat="48.38515" lon="-3.97575">
        <ele>300.20001220703</ele>
        <time>2021-09-12T11:14:27Z</time>
      </trkpt>
      <trkpt lat="48.38516" lon="-3.97572">
        <ele>300.39999389648</ele>
        <time>2021-09-12T11:14:28Z</time>
      </trkpt>
      <trkpt lat="48.38518" lon="-3.97569">
        <ele>300.60000610352</ele>
        <time>2021-09-12T11:14:29Z</time>
      </trkpt>
      <trkpt lat="48.3852" lon="-3.97565">
        <ele>300.79998779297</ele>
        <time>2021-09-12T11:14:30Z</time>
      </trkpt>
      <trkpt lat="48.38521" lon="-3.97562">
        <ele>301</ele>
        <time>2021-09-12T11:14:31Z</time>
      </trkpt>
      <trkpt lat="48.38522" lon="-3.97558">
        <ele>301</ele>
        <time>2021-09-12T11:14:32Z</time>
      </trkpt>
      <trkpt lat="48.38524" lon="-3.97554">
        <ele>301.20001220703</ele>
        <time>2021-09-12T11:14:33Z</time>
      </trkpt>
      <trkpt lat="48.38525" lon="-3.97551">
        <ele>301.20001220703</ele>
        <time>2021-09-12T11:14:34Z</time>
      </trkpt>
      <trkpt lat="48.38526" lon="-3.97547">
        <ele>301.39999389648</ele>
        <time>2021-09-12T11:14:35Z</time>
      </trkpt>
      <trkpt lat="48.38527" lon="-3.97544">
        <ele>301.79998779297</ele>
        <time>2021-09-12T11:14:36Z</time>
      </trkpt>
      <trkpt lat="48.38527" lon="-3.9754">
        <ele>302</ele>
        <time>2021-09-12T11:14:37Z</time>
      </trkpt>
      <trkpt lat="48.38528" lon="-3.97537">
        <ele>302</ele>
        <time>2021-09-12T11:14:38Z</time>
      </trkpt>
      <trkpt lat="48.38529" lon="-3.97534">
        <ele>302.60000610352</ele>
        <time>2021-09-12T11:14:39Z</time>
      </trkpt>
      <trkpt lat="48.3853" lon="-3.9753">
        <ele>302.60000610352</ele>
        <time>2021-09-12T11:14:40Z</time>
      </trkpt>
      <trkpt lat="48.38532" lon="-3.97527">
        <ele>302.79998779297</ele>
        <time>2021-09-12T11:14:41Z</time>
      </trkpt>
      <trkpt lat="48.38533" lon="-3.97523">
        <ele>302.79998779297</ele>
        <time>2021-09-12T11:14:42Z</time>
      </trkpt>
      <trkpt lat="48.38534" lon="-3.97519">
        <ele>303.39999389648</ele>
        <time>2021-09-12T11:14:43Z</time>
      </trkpt>
      <trkpt lat="48.38534" lon="-3.97515">
        <ele>303.39999389648</ele>
        <time>2021-09-12T11:14:44Z</time>
      </trkpt>
      <trkpt lat="48.38535" lon="-3.97511">
        <ele>303.39999389648</ele>
        <time>2021-09-12T11:14:45Z</time>
      </trkpt>
      <trkpt lat="48.38536" lon="-3.97506">
        <ele>303.60000610352</ele>
        <time>2021-09-12T11:14:46Z</time>
      </trkpt>
      <trkpt lat="48.38537" lon="-3.97502">
        <ele>303.60000610352</ele>
        <time>2021-09-12T11:14:47Z</time>
      </trkpt>
      <trkpt lat="48.38538" lon="-3.97498">
        <ele>303.60000610352</ele>
        <time>2021-09-12T11:14:48Z</time>
      </trkpt>
      <trkpt lat="48.3854" lon="-3.97493">
        <ele>303.60000610352</ele>
        <time>2021-09-12T11:14:49Z</time>
      </trkpt>
      <trkpt lat="48.38541" lon="-3.97489">
        <ele>303.79998779297</ele>
        <time>2021-09-12T11:14:50Z</time>
      </trkpt>
      <trkpt lat="48.38542" lon="-3.97485">
        <ele>303.79998779297</ele>
        <time>2021-09-12T11:14:51Z</time>
      </trkpt>
      <trkpt lat="48.38543" lon="-3.97481">
        <ele>303.79998779297</ele>
        <time>2021-09-12T11:14:52Z</time>
      </trkpt>
      <trkpt lat="48.38544" lon="-3.97477">
        <ele>304.20001220703</ele>
        <time>2021-09-12T11:14:53Z</time>
      </trkpt>
      <trkpt lat="48.38544" lon="-3.97472">
        <ele>304.20001220703</ele>
        <time>2021-09-12T11:14:54Z</time>
      </trkpt>
      <trkpt lat="48.38545" lon="-3.97468">
        <ele>304.39999389648</ele>
        <time>2021-09-12T11:14:55Z</time>
      </trkpt>
      <trkpt lat="48.38546" lon="-3.97463">
        <ele>304.39999389648</ele>
        <time>2021-09-12T11:14:56Z</time>
      </trkpt>
      <trkpt lat="48.38546" lon="-3.97458">
        <ele>304.39999389648</ele>
        <time>2021-09-12T11:14:57Z</time>
      </trkpt>
      <trkpt lat="48.38547" lon="-3.97454">
        <ele>304.39999389648</ele>
        <time>2021-09-12T11:14:58Z</time>
      </trkpt>
      <trkpt lat="48.38548" lon="-3.97449">
        <ele>304.39999389648</ele>
        <time>2021-09-12T11:14:59Z</time>
      </trkpt>
      <trkpt lat="48.38549" lon="-3.97445">
        <ele>304.39999389648</ele>
        <time>2021-09-12T11:15:00Z</time>
      </trkpt>
      <trkpt lat="48.3855" lon="-3.97441">
        <ele>304.60000610352</ele>
        <time>2021-09-12T11:15:01Z</time>
      </trkpt>
      <trkpt lat="48.38551" lon="-3.97437">
        <ele>304.79998779297</ele>
        <time>2021-09-12T11:15:02Z</time>
      </trkpt>
      <trkpt lat="48.38553" lon="-3.97433">
        <ele>304.79998779297</ele>
        <time>2021-09-12T11:15:03Z</time>
      </trkpt>
      <trkpt lat="48.38554" lon="-3.97429">
        <ele>304.79998779297</ele>
        <time>2021-09-12T11:15:04Z</time>
      </trkpt>
      <trkpt lat="48.38556" lon="-3.97425">
        <ele>305</ele>
        <time>2021-09-12T11:15:05Z</time>
      </trkpt>
      <trkpt lat="48.38557" lon="-3.97421">
        <ele>305</ele>
        <time>2021-09-12T11:15:06Z</time>
      </trkpt>
      <trkpt lat="48.38559" lon="-3.97417">
        <ele>305</ele>
        <time>2021-09-12T11:15:07Z</time>
      </trkpt>
      <trkpt lat="48.3856" lon="-3.97413">
        <ele>305.20001220703</ele>
        <time>2021-09-12T11:15:08Z</time>
      </trkpt>
      <trkpt lat="48.38561" lon="-3.97409">
        <ele>305.20001220703</ele>
        <time>2021-09-12T11:15:09Z</time>
      </trkpt>
      <trkpt lat="48.38562" lon="-3.97404">
        <ele>305.20001220703</ele>
        <time>2021-09-12T11:15:10Z</time>
      </trkpt>
      <trkpt lat="48.38563" lon="-3.97399">
        <ele>305.20001220703</ele>
        <time>2021-09-12T11:15:11Z</time>
      </trkpt>
      <trkpt lat="48.38563" lon="-3.97395">
        <ele>305.20001220703</ele>
        <time>2021-09-12T11:15:12Z</time>
      </trkpt>
      <trkpt lat="48.38563" lon="-3.9739">
        <ele>305.39999389648</ele>
        <time>2021-09-12T11:15:13Z</time>
      </trkpt>
      <trkpt lat="48.38563" lon="-3.97386">
        <ele>305.60000610352</ele>
        <time>2021-09-12T11:15:14Z</time>
      </trkpt>
      <trkpt lat="48.38562" lon="-3.97382">
        <ele>305.79998779297</ele>
        <time>2021-09-12T11:15:15Z</time>
      </trkpt>
      <trkpt lat="48.38561" lon="-3.97378">
        <ele>305.79998779297</ele>
        <time>2021-09-12T11:15:16Z</time>
      </trkpt>
      <trkpt lat="48.38561" lon="-3.97374">
        <ele>306</ele>
        <time>2021-09-12T11:15:17Z</time>
      </trkpt>
      <trkpt lat="48.3856" lon="-3.9737">
        <ele>306.39999389648</ele>
        <time>2021-09-12T11:15:18Z</time>
      </trkpt>
      <trkpt lat="48.3856" lon="-3.97366">
        <ele>306.60000610352</ele>
        <time>2021-09-12T11:15:19Z</time>
      </trkpt>
      <trkpt lat="48.3856" lon="-3.97361">
        <ele>306.60000610352</ele>
        <time>2021-09-12T11:15:20Z</time>
      </trkpt>
      <trkpt lat="48.3856" lon="-3.97357">
        <ele>306.60000610352</ele>
        <time>2021-09-12T11:15:21Z</time>
      </trkpt>
      <trkpt lat="48.3856" lon="-3.97352">
        <ele>307.20001220703</ele>
        <time>2021-09-12T11:15:22Z</time>
      </trkpt>
      <trkpt lat="48.38561" lon="-3.97348">
        <ele>307.39999389648</ele>
        <time>2021-09-12T11:15:23Z</time>
      </trkpt>
      <trkpt lat="48.38561" lon="-3.97344">
        <ele>307.60000610352</ele>
        <time>2021-09-12T11:15:24Z</time>
      </trkpt>
      <trkpt lat="48.38561" lon="-3.97339">
        <ele>307.60000610352</ele>
        <time>2021-09-12T11:15:25Z</time>
      </trkpt>
      <trkpt lat="48.3856" lon="-3.97335">
        <ele>307.79998779297</ele>
        <time>2021-09-12T11:15:26Z</time>
      </trkpt>
      <trkpt lat="48.38559" lon="-3.97331">
        <ele>307.79998779297</ele>
        <time>2021-09-12T11:15:27Z</time>
      </trkpt>
      <trkpt lat="48.38558" lon="-3.97327">
        <ele>308.20001220703</ele>
        <time>2021-09-12T11:15:28Z</time>
      </trkpt>
      <trkpt lat="48.38557" lon="-3.97323">
        <ele>308.39999389648</ele>
        <time>2021-09-12T11:15:29Z</time>
      </trkpt>
      <trkpt lat="48.38556" lon="-3.97319">
        <ele>308.60000610352</ele>
        <time>2021-09-12T11:15:30Z</time>
      </trkpt>
      <trkpt lat="48.38555" lon="-3.97314">
        <ele>308.60000610352</ele>
        <time>2021-09-12T11:15:31Z</time>
      </trkpt>
      <trkpt lat="48.38553" lon="-3.9731">
        <ele>308.60000610352</ele>
        <time>2021-09-12T11:15:32Z</time>
      </trkpt>
      <trkpt lat="48.38552" lon="-3.97306">
        <ele>308.79998779297</ele>
        <time>2021-09-12T11:15:33Z</time>
      </trkpt>
      <trkpt lat="48.38551" lon="-3.97302">
        <ele>309</ele>
        <time>2021-09-12T11:15:34Z</time>
      </trkpt>
      <trkpt lat="48.38549" lon="-3.97298">
        <ele>309.39999389648</ele>
        <time>2021-09-12T11:15:35Z</time>
      </trkpt>
      <trkpt lat="48.38548" lon="-3.97294">
        <ele>309.39999389648</ele>
        <time>2021-09-12T11:15:36Z</time>
      </trkpt>
      <trkpt lat="48.38545" lon="-3.97291">
        <ele>309.60000610352</ele>
        <time>2021-09-12T11:15:37Z</time>
      </trkpt>
      <trkpt lat="48.38544" lon="-3.97287">
        <ele>309.79998779297</ele>
        <time>2021-09-12T11:15:38Z</time>
      </trkpt>
      <trkpt lat="48.38542" lon="-3.97283">
        <ele>309.79998779297</ele>
        <time>2021-09-12T11:15:39Z</time>
      </trkpt>
      <trkpt lat="48.38541" lon="-3.97279">
        <ele>310</ele>
        <time>2021-09-12T11:15:40Z</time>
      </trkpt>
      <trkpt lat="48.38539" lon="-3.97275">
        <ele>310.20001220703</ele>
        <time>2021-09-12T11:15:41Z</time>
      </trkpt>
      <trkpt lat="48.38538" lon="-3.97271">
        <ele>310.39999389648</ele>
        <time>2021-09-12T11:15:42Z</time>
      </trkpt>
      <trkpt lat="48.38537" lon="-3.97269">
        <ele>310.60000610352</ele>
        <time>2021-09-12T11:15:43Z</time>
      </trkpt>
      <trkpt lat="48.38535" lon="-3.97264">
        <ele>310.60000610352</ele>
        <time>2021-09-12T11:15:44Z</time>
      </trkpt>
      <trkpt lat="48.38534" lon="-3.97259">
        <ele>310.79998779297</ele>
        <time>2021-09-12T11:15:45Z</time>
      </trkpt>
      <trkpt lat="48.38533" lon="-3.97255">
        <ele>311</ele>
        <time>2021-09-12T11:15:46Z</time>
      </trkpt>
      <trkpt lat="48.38533" lon="-3.97251">
        <ele>311</ele>
        <time>2021-09-12T11:15:47Z</time>
      </trkpt>
      <trkpt lat="48.38532" lon="-3.97246">
        <ele>311.20001220703</ele>
        <time>2021-09-12T11:15:48Z</time>
      </trkpt>
      <trkpt lat="48.38531" lon="-3.97242">
        <ele>311.39999389648</ele>
        <time>2021-09-12T11:15:49Z</time>
      </trkpt>
      <trkpt lat="48.38531" lon="-3.97237">
        <ele>311.39999389648</ele>
        <time>2021-09-12T11:15:50Z</time>
      </trkpt>
      <trkpt lat="48.38531" lon="-3.97232">
        <ele>311.60000610352</ele>
        <time>2021-09-12T11:15:51Z</time>
      </trkpt>
      <trkpt lat="48.38531" lon="-3.97227">
        <ele>311.60000610352</ele>
        <time>2021-09-12T11:15:52Z</time>
      </trkpt>
      <trkpt lat="48.38531" lon="-3.97223">
        <ele>311.79998779297</ele>
        <time>2021-09-12T11:15:53Z</time>
      </trkpt>
      <trkpt lat="48.38532" lon="-3.97218">
        <ele>312.20001220703</ele>
        <time>2021-09-12T11:15:54Z</time>
      </trkpt>
      <trkpt lat="48.38532" lon="-3.97214">
        <ele>312.20001220703</ele>
        <time>2021-09-12T11:15:55Z</time>
      </trkpt>
      <trkpt lat="48.38532" lon="-3.97209">
        <ele>312.39999389648</ele>
        <time>2021-09-12T11:15:56Z</time>
      </trkpt>
      <trkpt lat="48.38532" lon="-3.97204">
        <ele>312.60000610352</ele>
        <time>2021-09-12T11:15:57Z</time>
      </trkpt>
      <trkpt lat="48.38532" lon="-3.97199">
        <ele>312.60000610352</ele>
        <time>2021-09-12T11:15:58Z</time>
      </trkpt>
      <trkpt lat="48.38532" lon="-3.97195">
        <ele>313</ele>
        <time>2021-09-12T11:15:59Z</time>
      </trkpt>
      <trkpt lat="48.38533" lon="-3.9719">
        <ele>313</ele>
        <time>2021-09-12T11:16:00Z</time>
      </trkpt>
      <trkpt lat="48.38533" lon="-3.97185">
        <ele>313.20001220703</ele>
        <time>2021-09-12T11:16:01Z</time>
      </trkpt>
      <trkpt lat="48.38534" lon="-3.9718">
        <ele>313.39999389648</ele>
        <time>2021-09-12T11:16:02Z</time>
      </trkpt>
      <trkpt lat="48.38535" lon="-3.97176">
        <ele>313.39999389648</ele>
        <time>2021-09-12T11:16:03Z</time>
      </trkpt>
      <trkpt lat="48.38536" lon="-3.97171">
        <ele>313.60000610352</ele>
        <time>2021-09-12T11:16:04Z</time>
      </trkpt>
      <trkpt lat="48.38536" lon="-3.97166">
        <ele>313.60000610352</ele>
        <time>2021-09-12T11:16:05Z</time>
      </trkpt>
      <trkpt lat="48.38537" lon="-3.97161">
        <ele>313.60000610352</ele>
        <time>2021-09-12T11:16:06Z</time>
      </trkpt>
      <trkpt lat="48.38537" lon="-3.97156">
        <ele>313.60000610352</ele>
        <time>2021-09-12T11:16:07Z</time>
      </trkpt>
      <trkpt lat="48.38537" lon="-3.97151">
        <ele>313.60000610352</ele>
        <time>2021-09-12T11:16:08Z</time>
      </trkpt>
      <trkpt lat="48.38537" lon="-3.97146">
        <ele>313.79998779297</ele>
        <time>2021-09-12T11:16:09Z</time>
      </trkpt>
      <trkpt lat="48.38537" lon="-3.97142">
        <ele>314</ele>
        <time>2021-09-12T11:16:10Z</time>
      </trkpt>
      <trkpt lat="48.38537" lon="-3.97137">
        <ele>314</ele>
        <time>2021-09-12T11:16:11Z</time>
      </trkpt>
      <trkpt lat="48.38537" lon="-3.97132">
        <ele>314.20001220703</ele>
        <time>2021-09-12T11:16:12Z</time>
      </trkpt>
      <trkpt lat="48.38536" lon="-3.97127">
        <ele>314.20001220703</ele>
        <time>2021-09-12T11:16:13Z</time>
      </trkpt>
      <trkpt lat="48.38537" lon="-3.97122">
        <ele>314.20001220703</ele>
        <time>2021-09-12T11:16:14Z</time>
      </trkpt>
      <trkpt lat="48.38537" lon="-3.97117">
        <ele>314.20001220703</ele>
        <time>2021-09-12T11:16:15Z</time>
      </trkpt>
      <trkpt lat="48.38538" lon="-3.97112">
        <ele>314.39999389648</ele>
        <time>2021-09-12T11:16:16Z</time>
      </trkpt>
      <trkpt lat="48.38538" lon="-3.97108">
        <ele>314.39999389648</ele>
        <time>2021-09-12T11:16:17Z</time>
      </trkpt>
      <trkpt lat="48.38539" lon="-3.97103">
        <ele>314.39999389648</ele>
        <time>2021-09-12T11:16:18Z</time>
      </trkpt>
      <trkpt lat="48.3854" lon="-3.97098">
        <ele>314.60000610352</ele>
        <time>2021-09-12T11:16:19Z</time>
      </trkpt>
      <trkpt lat="48.3854" lon="-3.97094">
        <ele>314.79998779297</ele>
        <time>2021-09-12T11:16:20Z</time>
      </trkpt>
      <trkpt lat="48.38541" lon="-3.97089">
        <ele>314.79998779297</ele>
        <time>2021-09-12T11:16:21Z</time>
      </trkpt>
      <trkpt lat="48.38542" lon="-3.97085">
        <ele>315</ele>
        <time>2021-09-12T11:16:22Z</time>
      </trkpt>
      <trkpt lat="48.38544" lon="-3.97081">
        <ele>315.20001220703</ele>
        <time>2021-09-12T11:16:23Z</time>
      </trkpt>
      <trkpt lat="48.38545" lon="-3.97077">
        <ele>315.20001220703</ele>
        <time>2021-09-12T11:16:24Z</time>
      </trkpt>
      <trkpt lat="48.38546" lon="-3.97072">
        <ele>315.39999389648</ele>
        <time>2021-09-12T11:16:25Z</time>
      </trkpt>
      <trkpt lat="48.38547" lon="-3.97067">
        <ele>315.79998779297</ele>
        <time>2021-09-12T11:16:26Z</time>
      </trkpt>
      <trkpt lat="48.38547" lon="-3.97063">
        <ele>316</ele>
        <time>2021-09-12T11:16:27Z</time>
      </trkpt>
      <trkpt lat="48.38548" lon="-3.97059">
        <ele>316</ele>
        <time>2021-09-12T11:16:28Z</time>
      </trkpt>
      <trkpt lat="48.38548" lon="-3.97054">
        <ele>316.20001220703</ele>
        <time>2021-09-12T11:16:29Z</time>
      </trkpt>
      <trkpt lat="48.38548" lon="-3.9705">
        <ele>316.79998779297</ele>
        <time>2021-09-12T11:16:30Z</time>
      </trkpt>
      <trkpt lat="48.38548" lon="-3.97046">
        <ele>316.79998779297</ele>
        <time>2021-09-12T11:16:31Z</time>
      </trkpt>
      <trkpt lat="48.38548" lon="-3.97041">
        <ele>317</ele>
        <time>2021-09-12T11:16:32Z</time>
      </trkpt>
      <trkpt lat="48.38549" lon="-3.97037">
        <ele>317.20001220703</ele>
        <time>2021-09-12T11:16:33Z</time>
      </trkpt>
      <trkpt lat="48.38549" lon="-3.97032">
        <ele>317.20001220703</ele>
        <time>2021-09-12T11:16:34Z</time>
      </trkpt>
      <trkpt lat="48.38549" lon="-3.97028">
        <ele>317.20001220703</ele>
        <time>2021-09-12T11:16:35Z</time>
      </trkpt>
      <trkpt lat="48.38549" lon="-3.97024">
        <ele>317.60000610352</ele>
        <time>2021-09-12T11:16:36Z</time>
      </trkpt>
      <trkpt lat="48.3855" lon="-3.97019">
        <ele>317.79998779297</ele>
        <time>2021-09-12T11:16:37Z</time>
      </trkpt>
      <trkpt lat="48.3855" lon="-3.97015">
        <ele>318</ele>
        <time>2021-09-12T11:16:38Z</time>
      </trkpt>
      <trkpt lat="48.38549" lon="-3.97011">
        <ele>318.20001220703</ele>
        <time>2021-09-12T11:16:39Z</time>
      </trkpt>
      <trkpt lat="48.38549" lon="-3.97007">
        <ele>318.20001220703</ele>
        <time>2021-09-12T11:16:40Z</time>
      </trkpt>
      <trkpt lat="48.38549" lon="-3.97002">
        <ele>318.20001220703</ele>
        <time>2021-09-12T11:16:41Z</time>
      </trkpt>
      <trkpt lat="48.38548" lon="-3.96998">
        <ele>318.39999389648</ele>
        <time>2021-09-12T11:16:42Z</time>
      </trkpt>
      <trkpt lat="48.38547" lon="-3.96994">
        <ele>318.39999389648</ele>
        <time>2021-09-12T11:16:43Z</time>
      </trkpt>
      <trkpt lat="48.38545" lon="-3.96989">
        <ele>318.60000610352</ele>
        <time>2021-09-12T11:16:44Z</time>
      </trkpt>
      <trkpt lat="48.38544" lon="-3.96985">
        <ele>318.60000610352</ele>
        <time>2021-09-12T11:16:45Z</time>
      </trkpt>
      <trkpt lat="48.38543" lon="-3.96981">
        <ele>318.79998779297</ele>
        <time>2021-09-12T11:16:46Z</time>
      </trkpt>
      <trkpt lat="48.38541" lon="-3.96977">
        <ele>319</ele>
        <time>2021-09-12T11:16:47Z</time>
      </trkpt>
      <trkpt lat="48.38541" lon="-3.96973">
        <ele>319</ele>
        <time>2021-09-12T11:16:48Z</time>
      </trkpt>
      <trkpt lat="48.3854" lon="-3.96969">
        <ele>319</ele>
        <time>2021-09-12T11:16:49Z</time>
      </trkpt>
      <trkpt lat="48.3854" lon="-3.96965">
        <ele>319</ele>
        <time>2021-09-12T11:16:50Z</time>
      </trkpt>
      <trkpt lat="48.3854" lon="-3.96961">
        <ele>319.20001220703</ele>
        <time>2021-09-12T11:16:51Z</time>
      </trkpt>
      <trkpt lat="48.3854" lon="-3.96958">
        <ele>319.39999389648</ele>
        <time>2021-09-12T11:16:52Z</time>
      </trkpt>
      <trkpt lat="48.3854" lon="-3.96954">
        <ele>319.60000610352</ele>
        <time>2021-09-12T11:16:53Z</time>
      </trkpt>
      <trkpt lat="48.3854" lon="-3.9695">
        <ele>319.79998779297</ele>
        <time>2021-09-12T11:16:54Z</time>
      </trkpt>
      <trkpt lat="48.3854" lon="-3.96946">
        <ele>320</ele>
        <time>2021-09-12T11:16:55Z</time>
      </trkpt>
      <trkpt lat="48.3854" lon="-3.96942">
        <ele>320.39999389648</ele>
        <time>2021-09-12T11:16:56Z</time>
      </trkpt>
      <trkpt lat="48.3854" lon="-3.96939">
        <ele>320.39999389648</ele>
        <time>2021-09-12T11:16:57Z</time>
      </trkpt>
      <trkpt lat="48.3854" lon="-3.96937">
        <ele>320.79998779297</ele>
        <time>2021-09-12T11:16:58Z</time>
      </trkpt>
      <trkpt lat="48.3854" lon="-3.96934">
        <ele>321.39999389648</ele>
        <time>2021-09-12T11:16:59Z</time>
      </trkpt>
      <trkpt lat="48.38541" lon="-3.9693">
        <ele>321.60000610352</ele>
        <time>2021-09-12T11:17:00Z</time>
      </trkpt>
      <trkpt lat="48.38541" lon="-3.96927">
        <ele>321.60000610352</ele>
        <time>2021-09-12T11:17:01Z</time>
      </trkpt>
      <trkpt lat="48.38542" lon="-3.96924">
        <ele>321.60000610352</ele>
        <time>2021-09-12T11:17:02Z</time>
      </trkpt>
      <trkpt lat="48.38543" lon="-3.96921">
        <ele>322</ele>
        <time>2021-09-12T11:17:03Z</time>
      </trkpt>
      <trkpt lat="48.38545" lon="-3.96919">
        <ele>322.39999389648</ele>
        <time>2021-09-12T11:17:04Z</time>
      </trkpt>
      <trkpt lat="48.38546" lon="-3.96917">
        <ele>322.39999389648</ele>
        <time>2021-09-12T11:17:05Z</time>
      </trkpt>
      <trkpt lat="48.38548" lon="-3.96915">
        <ele>323</ele>
        <time>2021-09-12T11:17:06Z</time>
      </trkpt>
      <trkpt lat="48.38549" lon="-3.96913">
        <ele>323.20001220703</ele>
        <time>2021-09-12T11:17:07Z</time>
      </trkpt>
      <trkpt lat="48.38551" lon="-3.96911">
        <ele>323.20001220703</ele>
        <time>2021-09-12T11:17:08Z</time>
      </trkpt>
      <trkpt lat="48.38553" lon="-3.96909">
        <ele>323.39999389648</ele>
        <time>2021-09-12T11:17:09Z</time>
      </trkpt>
      <trkpt lat="48.38555" lon="-3.96907">
        <ele>324</ele>
        <time>2021-09-12T11:17:10Z</time>
      </trkpt>
      <trkpt lat="48.38556" lon="-3.96905">
        <ele>324</ele>
        <time>2021-09-12T11:17:11Z</time>
      </trkpt>
      <trkpt lat="48.38558" lon="-3.96902">
        <ele>324.20001220703</ele>
        <time>2021-09-12T11:17:12Z</time>
      </trkpt>
      <trkpt lat="48.38559" lon="-3.96899">
        <ele>324.39999389648</ele>
        <time>2021-09-12T11:17:13Z</time>
      </trkpt>
      <trkpt lat="48.38561" lon="-3.96896">
        <ele>324.79998779297</ele>
        <time>2021-09-12T11:17:14Z</time>
      </trkpt>
      <trkpt lat="48.38562" lon="-3.96893">
        <ele>324.79998779297</ele>
        <time>2021-09-12T11:17:15Z</time>
      </trkpt>
      <trkpt lat="48.38563" lon="-3.9689">
        <ele>325</ele>
        <time>2021-09-12T11:17:16Z</time>
      </trkpt>
      <trkpt lat="48.38564" lon="-3.96886">
        <ele>325</ele>
        <time>2021-09-12T11:17:17Z</time>
      </trkpt>
      <trkpt lat="48.38565" lon="-3.96884">
        <ele>325.20001220703</ele>
        <time>2021-09-12T11:17:18Z</time>
      </trkpt>
      <trkpt lat="48.38567" lon="-3.96881">
        <ele>325.39999389648</ele>
        <time>2021-09-12T11:17:19Z</time>
      </trkpt>
      <trkpt lat="48.38568" lon="-3.96878">
        <ele>325.60000610352</ele>
        <time>2021-09-12T11:17:20Z</time>
      </trkpt>
      <trkpt lat="48.38569" lon="-3.96874">
        <ele>325.79998779297</ele>
        <time>2021-09-12T11:17:21Z</time>
      </trkpt>
      <trkpt lat="48.3857" lon="-3.96871">
        <ele>326</ele>
        <time>2021-09-12T11:17:22Z</time>
      </trkpt>
      <trkpt lat="48.38571" lon="-3.96868">
        <ele>326.20001220703</ele>
        <time>2021-09-12T11:17:23Z</time>
      </trkpt>
      <trkpt lat="48.38572" lon="-3.96865">
        <ele>326.20001220703</ele>
        <time>2021-09-12T11:17:24Z</time>
      </trkpt>
      <trkpt lat="48.38574" lon="-3.96861">
        <ele>326.39999389648</ele>
        <time>2021-09-12T11:17:25Z</time>
      </trkpt>
      <trkpt lat="48.38575" lon="-3.96858">
        <ele>326.39999389648</ele>
        <time>2021-09-12T11:17:26Z</time>
      </trkpt>
      <trkpt lat="48.38577" lon="-3.96855">
        <ele>326.39999389648</ele>
        <time>2021-09-12T11:17:27Z</time>
      </trkpt>
      <trkpt lat="48.38578" lon="-3.96851">
        <ele>326.39999389648</ele>
        <time>2021-09-12T11:17:28Z</time>
      </trkpt>
      <trkpt lat="48.38579" lon="-3.96847">
        <ele>326.39999389648</ele>
        <time>2021-09-12T11:17:29Z</time>
      </trkpt>
      <trkpt lat="48.38581" lon="-3.96844">
        <ele>326.60000610352</ele>
        <time>2021-09-12T11:17:30Z</time>
      </trkpt>
      <trkpt lat="48.38582" lon="-3.96839">
        <ele>326.60000610352</ele>
        <time>2021-09-12T11:17:31Z</time>
      </trkpt>
      <trkpt lat="48.38583" lon="-3.96836">
        <ele>326.60000610352</ele>
        <time>2021-09-12T11:17:32Z</time>
      </trkpt>
      <trkpt lat="48.38584" lon="-3.96832">
        <ele>326.60000610352</ele>
        <time>2021-09-12T11:17:33Z</time>
      </trkpt>
      <trkpt lat="48.38585" lon="-3.96828">
        <ele>326.60000610352</ele>
        <time>2021-09-12T11:17:34Z</time>
      </trkpt>
      <trkpt lat="48.38585" lon="-3.96823">
        <ele>326.60000610352</ele>
        <time>2021-09-12T11:17:35Z</time>
      </trkpt>
      <trkpt lat="48.38586" lon="-3.96818">
        <ele>326.60000610352</ele>
        <time>2021-09-12T11:17:36Z</time>
      </trkpt>
      <trkpt lat="48.38587" lon="-3.96814">
        <ele>326.39999389648</ele>
        <time>2021-09-12T11:17:37Z</time>
      </trkpt>
      <trkpt lat="48.38588" lon="-3.96809">
        <ele>326.39999389648</ele>
        <time>2021-09-12T11:17:38Z</time>
      </trkpt>
      <trkpt lat="48.38589" lon="-3.96806">
        <ele>326.39999389648</ele>
        <time>2021-09-12T11:17:39Z</time>
      </trkpt>
      <trkpt lat="48.3859" lon="-3.96802">
        <ele>326.39999389648</ele>
        <time>2021-09-12T11:17:40Z</time>
      </trkpt>
      <trkpt lat="48.38591" lon="-3.96798">
        <ele>326.60000610352</ele>
        <time>2021-09-12T11:17:41Z</time>
      </trkpt>
      <trkpt lat="48.38591" lon="-3.96794">
        <ele>326.60000610352</ele>
        <time>2021-09-12T11:17:42Z</time>
      </trkpt>
      <trkpt lat="48.38592" lon="-3.96789">
        <ele>326.60000610352</ele>
        <time>2021-09-12T11:17:43Z</time>
      </trkpt>
      <trkpt lat="48.38592" lon="-3.96784">
        <ele>326.60000610352</ele>
        <time>2021-09-12T11:17:44Z</time>
      </trkpt>
      <trkpt lat="48.38592" lon="-3.9678">
        <ele>326.60000610352</ele>
        <time>2021-09-12T11:17:45Z</time>
      </trkpt>
      <trkpt lat="48.38593" lon="-3.96775">
        <ele>326.60000610352</ele>
        <time>2021-09-12T11:17:46Z</time>
      </trkpt>
      <trkpt lat="48.38592" lon="-3.9677">
        <ele>326.60000610352</ele>
        <time>2021-09-12T11:17:47Z</time>
      </trkpt>
      <trkpt lat="48.38591" lon="-3.96765">
        <ele>326.60000610352</ele>
        <time>2021-09-12T11:17:48Z</time>
      </trkpt>
      <trkpt lat="48.3859" lon="-3.9676">
        <ele>326.60000610352</ele>
        <time>2021-09-12T11:17:49Z</time>
      </trkpt>
      <trkpt lat="48.38589" lon="-3.96755">
        <ele>326.60000610352</ele>
        <time>2021-09-12T11:17:50Z</time>
      </trkpt>
      <trkpt lat="48.38587" lon="-3.9675">
        <ele>326.39999389648</ele>
        <time>2021-09-12T11:17:51Z</time>
      </trkpt>
      <trkpt lat="48.38584" lon="-3.96745">
        <ele>326.39999389648</ele>
        <time>2021-09-12T11:17:52Z</time>
      </trkpt>
      <trkpt lat="48.38581" lon="-3.96739">
        <ele>326.39999389648</ele>
        <time>2021-09-12T11:17:53Z</time>
      </trkpt>
      <trkpt lat="48.38579" lon="-3.96733">
        <ele>326</ele>
        <time>2021-09-12T11:17:54Z</time>
      </trkpt>
      <trkpt lat="48.38576" lon="-3.96727">
        <ele>325.60000610352</ele>
        <time>2021-09-12T11:17:55Z</time>
      </trkpt>
      <trkpt lat="48.38573" lon="-3.96721">
        <ele>325.20001220703</ele>
        <time>2021-09-12T11:17:56Z</time>
      </trkpt>
      <trkpt lat="48.38569" lon="-3.96714">
        <ele>324.60000610352</ele>
        <time>2021-09-12T11:17:57Z</time>
      </trkpt>
      <trkpt lat="48.38565" lon="-3.96708">
        <ele>324.60000610352</ele>
        <time>2021-09-12T11:17:58Z</time>
      </trkpt>
      <trkpt lat="48.3856" lon="-3.96703">
        <ele>324.20001220703</ele>
        <time>2021-09-12T11:17:59Z</time>
      </trkpt>
      <trkpt lat="48.38554" lon="-3.96698">
        <ele>324</ele>
        <time>2021-09-12T11:18:00Z</time>
      </trkpt>
      <trkpt lat="48.3855" lon="-3.96691">
        <ele>323.39999389648</ele>
        <time>2021-09-12T11:18:01Z</time>
      </trkpt>
      <trkpt lat="48.38546" lon="-3.96683">
        <ele>323.39999389648</ele>
        <time>2021-09-12T11:18:02Z</time>
      </trkpt>
      <trkpt lat="48.38544" lon="-3.96675">
        <ele>323</ele>
        <time>2021-09-12T11:18:03Z</time>
      </trkpt>
      <trkpt lat="48.38541" lon="-3.96667">
        <ele>322.60000610352</ele>
        <time>2021-09-12T11:18:04Z</time>
      </trkpt>
      <trkpt lat="48.3854" lon="-3.96658">
        <ele>322.60000610352</ele>
        <time>2021-09-12T11:18:05Z</time>
      </trkpt>
      <trkpt lat="48.38538" lon="-3.96649">
        <ele>322.20001220703</ele>
        <time>2021-09-12T11:18:06Z</time>
      </trkpt>
      <trkpt lat="48.38536" lon="-3.96641">
        <ele>322</ele>
        <time>2021-09-12T11:18:07Z</time>
      </trkpt>
      <trkpt lat="48.38535" lon="-3.96634">
        <ele>321.79998779297</ele>
        <time>2021-09-12T11:18:08Z</time>
      </trkpt>
      <trkpt lat="48.38534" lon="-3.96624">
        <ele>321.60000610352</ele>
        <time>2021-09-12T11:18:09Z</time>
      </trkpt>
      <trkpt lat="48.38533" lon="-3.96616">
        <ele>321.60000610352</ele>
        <time>2021-09-12T11:18:10Z</time>
      </trkpt>
      <trkpt lat="48.38532" lon="-3.96609">
        <ele>321.39999389648</ele>
        <time>2021-09-12T11:18:11Z</time>
      </trkpt>
      <trkpt lat="48.38531" lon="-3.96603">
        <ele>321.20001220703</ele>
        <time>2021-09-12T11:18:12Z</time>
      </trkpt>
      <trkpt lat="48.38528" lon="-3.96594">
        <ele>321.20001220703</ele>
        <time>2021-09-12T11:18:13Z</time>
      </trkpt>
      <trkpt lat="48.38526" lon="-3.96587">
        <ele>321.20001220703</ele>
        <time>2021-09-12T11:18:14Z</time>
      </trkpt>
      <trkpt lat="48.38524" lon="-3.96579">
        <ele>320.60000610352</ele>
        <time>2021-09-12T11:18:15Z</time>
      </trkpt>
      <trkpt lat="48.38523" lon="-3.96572">
        <ele>320.60000610352</ele>
        <time>2021-09-12T11:18:16Z</time>
      </trkpt>
      <trkpt lat="48.38523" lon="-3.96562">
        <ele>320.39999389648</ele>
        <time>2021-09-12T11:18:17Z</time>
      </trkpt>
      <trkpt lat="48.38525" lon="-3.96554">
        <ele>319.79998779297</ele>
        <time>2021-09-12T11:18:18Z</time>
      </trkpt>
      <trkpt lat="48.38527" lon="-3.96547">
        <ele>319.79998779297</ele>
        <time>2021-09-12T11:18:19Z</time>
      </trkpt>
      <trkpt lat="48.3853" lon="-3.96542">
        <ele>319.79998779297</ele>
        <time>2021-09-12T11:18:20Z</time>
      </trkpt>
      <trkpt lat="48.38532" lon="-3.96537">
        <ele>319.79998779297</ele>
        <time>2021-09-12T11:18:21Z</time>
      </trkpt>
      <trkpt lat="48.38534" lon="-3.96532">
        <ele>319.79998779297</ele>
        <time>2021-09-12T11:18:22Z</time>
      </trkpt>
      <trkpt lat="48.38535" lon="-3.96527">
        <ele>319.79998779297</ele>
        <time>2021-09-12T11:18:23Z</time>
      </trkpt>
      <trkpt lat="48.38536" lon="-3.96522">
        <ele>319.79998779297</ele>
        <time>2021-09-12T11:18:24Z</time>
      </trkpt>
      <trkpt lat="48.38537" lon="-3.96518">
        <ele>320</ele>
        <time>2021-09-12T11:18:25Z</time>
      </trkpt>
      <trkpt lat="48.38538" lon="-3.96514">
        <ele>320</ele>
        <time>2021-09-12T11:18:26Z</time>
      </trkpt>
      <trkpt lat="48.38539" lon="-3.9651">
        <ele>320.20001220703</ele>
        <time>2021-09-12T11:18:27Z</time>
      </trkpt>
      <trkpt lat="48.3854" lon="-3.96506">
        <ele>320.39999389648</ele>
        <time>2021-09-12T11:18:28Z</time>
      </trkpt>
      <trkpt lat="48.38541" lon="-3.96502">
        <ele>320.39999389648</ele>
        <time>2021-09-12T11:18:29Z</time>
      </trkpt>
      <trkpt lat="48.38542" lon="-3.96497">
        <ele>320.60000610352</ele>
        <time>2021-09-12T11:18:30Z</time>
      </trkpt>
      <trkpt lat="48.38544" lon="-3.96493">
        <ele>320.79998779297</ele>
        <time>2021-09-12T11:18:31Z</time>
      </trkpt>
      <trkpt lat="48.38546" lon="-3.96489">
        <ele>320.79998779297</ele>
        <time>2021-09-12T11:18:32Z</time>
      </trkpt>
      <trkpt lat="48.38547" lon="-3.96485">
        <ele>321</ele>
        <time>2021-09-12T11:18:33Z</time>
      </trkpt>
      <trkpt lat="48.38549" lon="-3.96483">
        <ele>321.20001220703</ele>
        <time>2021-09-12T11:18:34Z</time>
      </trkpt>
      <trkpt lat="48.38551" lon="-3.96481">
        <ele>321.60000610352</ele>
        <time>2021-09-12T11:18:35Z</time>
      </trkpt>
      <trkpt lat="48.38553" lon="-3.96478">
        <ele>321.60000610352</ele>
        <time>2021-09-12T11:18:36Z</time>
      </trkpt>
      <trkpt lat="48.38555" lon="-3.96475">
        <ele>321.60000610352</ele>
        <time>2021-09-12T11:18:37Z</time>
      </trkpt>
      <trkpt lat="48.38556" lon="-3.96472">
        <ele>321.79998779297</ele>
        <time>2021-09-12T11:18:38Z</time>
      </trkpt>
      <trkpt lat="48.38558" lon="-3.96469">
        <ele>322.39999389648</ele>
        <time>2021-09-12T11:18:39Z</time>
      </trkpt>
      <trkpt lat="48.3856" lon="-3.96466">
        <ele>322.39999389648</ele>
        <time>2021-09-12T11:18:40Z</time>
      </trkpt>
      <trkpt lat="48.38562" lon="-3.96463">
        <ele>322.39999389648</ele>
        <time>2021-09-12T11:18:41Z</time>
      </trkpt>
      <trkpt lat="48.38563" lon="-3.9646">
        <ele>322.79998779297</ele>
        <time>2021-09-12T11:18:42Z</time>
      </trkpt>
      <trkpt lat="48.38565" lon="-3.96458">
        <ele>323</ele>
        <time>2021-09-12T11:18:43Z</time>
      </trkpt>
      <trkpt lat="48.38567" lon="-3.96455">
        <ele>323.39999389648</ele>
        <time>2021-09-12T11:18:44Z</time>
      </trkpt>
      <trkpt lat="48.38568" lon="-3.96452">
        <ele>323.39999389648</ele>
        <time>2021-09-12T11:18:45Z</time>
      </trkpt>
      <trkpt lat="48.38569" lon="-3.96448">
        <ele>323.39999389648</ele>
        <time>2021-09-12T11:18:46Z</time>
      </trkpt>
      <trkpt lat="48.3857" lon="-3.96444">
        <ele>323.60000610352</ele>
        <time>2021-09-12T11:18:47Z</time>
      </trkpt>
      <trkpt lat="48.38571" lon="-3.9644">
        <ele>323.79998779297</ele>
        <time>2021-09-12T11:18:48Z</time>
      </trkpt>
      <trkpt lat="48.38572" lon="-3.96437">
        <ele>323.79998779297</ele>
        <time>2021-09-12T11:18:49Z</time>
      </trkpt>
      <trkpt lat="48.38574" lon="-3.96433">
        <ele>324.20001220703</ele>
        <time>2021-09-12T11:18:50Z</time>
      </trkpt>
      <trkpt lat="48.38575" lon="-3.96429">
        <ele>324.20001220703</ele>
        <time>2021-09-12T11:18:51Z</time>
      </trkpt>
      <trkpt lat="48.38576" lon="-3.96425">
        <ele>324.39999389648</ele>
        <time>2021-09-12T11:18:52Z</time>
      </trkpt>
      <trkpt lat="48.38577" lon="-3.96421">
        <ele>324.39999389648</ele>
        <time>2021-09-12T11:18:53Z</time>
      </trkpt>
      <trkpt lat="48.38579" lon="-3.96418">
        <ele>324.39999389648</ele>
        <time>2021-09-12T11:18:54Z</time>
      </trkpt>
      <trkpt lat="48.3858" lon="-3.96414">
        <ele>324.39999389648</ele>
        <time>2021-09-12T11:18:55Z</time>
      </trkpt>
      <trkpt lat="48.38581" lon="-3.9641">
        <ele>324.79998779297</ele>
        <time>2021-09-12T11:18:56Z</time>
      </trkpt>
      <trkpt lat="48.38583" lon="-3.96406">
        <ele>324.79998779297</ele>
        <time>2021-09-12T11:18:57Z</time>
      </trkpt>
      <trkpt lat="48.38584" lon="-3.96402">
        <ele>324.79998779297</ele>
        <time>2021-09-12T11:18:58Z</time>
      </trkpt>
      <trkpt lat="48.38586" lon="-3.96398">
        <ele>324.79998779297</ele>
        <time>2021-09-12T11:18:59Z</time>
      </trkpt>
      <trkpt lat="48.38587" lon="-3.96394">
        <ele>324.79998779297</ele>
        <time>2021-09-12T11:19:00Z</time>
      </trkpt>
      <trkpt lat="48.38589" lon="-3.9639">
        <ele>324.79998779297</ele>
        <time>2021-09-12T11:19:01Z</time>
      </trkpt>
      <trkpt lat="48.38591" lon="-3.96386">
        <ele>324.79998779297</ele>
        <time>2021-09-12T11:19:02Z</time>
      </trkpt>
      <trkpt lat="48.38592" lon="-3.96382">
        <ele>324.79998779297</ele>
        <time>2021-09-12T11:19:03Z</time>
      </trkpt>
      <trkpt lat="48.38594" lon="-3.96378">
        <ele>324.79998779297</ele>
        <time>2021-09-12T11:19:04Z</time>
      </trkpt>
      <trkpt lat="48.38595" lon="-3.96374">
        <ele>324.79998779297</ele>
        <time>2021-09-12T11:19:05Z</time>
      </trkpt>
      <trkpt lat="48.38596" lon="-3.9637">
        <ele>324.79998779297</ele>
        <time>2021-09-12T11:19:06Z</time>
      </trkpt>
      <trkpt lat="48.38598" lon="-3.96365">
        <ele>324.79998779297</ele>
        <time>2021-09-12T11:19:07Z</time>
      </trkpt>
      <trkpt lat="48.38599" lon="-3.9636">
        <ele>324.79998779297</ele>
        <time>2021-09-12T11:19:08Z</time>
      </trkpt>
      <trkpt lat="48.386" lon="-3.96356">
        <ele>324.79998779297</ele>
        <time>2021-09-12T11:19:09Z</time>
      </trkpt>
      <trkpt lat="48.38602" lon="-3.96352">
        <ele>324.60000610352</ele>
        <time>2021-09-12T11:19:10Z</time>
      </trkpt>
      <trkpt lat="48.38605" lon="-3.96348">
        <ele>324.60000610352</ele>
        <time>2021-09-12T11:19:11Z</time>
      </trkpt>
      <trkpt lat="48.38607" lon="-3.96344">
        <ele>324.60000610352</ele>
        <time>2021-09-12T11:19:12Z</time>
      </trkpt>
      <trkpt lat="48.3861" lon="-3.96341">
        <ele>324.60000610352</ele>
        <time>2021-09-12T11:19:13Z</time>
      </trkpt>
      <trkpt lat="48.38612" lon="-3.96338">
        <ele>324.60000610352</ele>
        <time>2021-09-12T11:19:14Z</time>
      </trkpt>
      <trkpt lat="48.38615" lon="-3.96333">
        <ele>324.60000610352</ele>
        <time>2021-09-12T11:19:15Z</time>
      </trkpt>
      <trkpt lat="48.38618" lon="-3.96328">
        <ele>324.39999389648</ele>
        <time>2021-09-12T11:19:16Z</time>
      </trkpt>
      <trkpt lat="48.3862" lon="-3.96323">
        <ele>324.39999389648</ele>
        <time>2021-09-12T11:19:17Z</time>
      </trkpt>
      <trkpt lat="48.38622" lon="-3.96319">
        <ele>324.39999389648</ele>
        <time>2021-09-12T11:19:18Z</time>
      </trkpt>
      <trkpt lat="48.38623" lon="-3.96315">
        <ele>324.39999389648</ele>
        <time>2021-09-12T11:19:19Z</time>
      </trkpt>
      <trkpt lat="48.38625" lon="-3.96311">
        <ele>324.39999389648</ele>
        <time>2021-09-12T11:19:20Z</time>
      </trkpt>
      <trkpt lat="48.38626" lon="-3.96308">
        <ele>324.39999389648</ele>
        <time>2021-09-12T11:19:21Z</time>
      </trkpt>
      <trkpt lat="48.38627" lon="-3.96305">
        <ele>324.20001220703</ele>
        <time>2021-09-12T11:19:22Z</time>
      </trkpt>
      <trkpt lat="48.38627" lon="-3.96302">
        <ele>324.20001220703</ele>
        <time>2021-09-12T11:19:23Z</time>
      </trkpt>
      <trkpt lat="48.38628" lon="-3.96299">
        <ele>324.20001220703</ele>
        <time>2021-09-12T11:19:24Z</time>
      </trkpt>
      <trkpt lat="48.38629" lon="-3.96297">
        <ele>324.20001220703</ele>
        <time>2021-09-12T11:19:25Z</time>
      </trkpt>
      <trkpt lat="48.3863" lon="-3.96296">
        <ele>324.20001220703</ele>
        <time>2021-09-12T11:19:26Z</time>
      </trkpt>
      <trkpt lat="48.38632" lon="-3.96292">
        <ele>324.20001220703</ele>
        <time>2021-09-12T11:19:27Z</time>
      </trkpt>
      <trkpt lat="48.38634" lon="-3.96288">
        <ele>324.20001220703</ele>
        <time>2021-09-12T11:19:28Z</time>
      </trkpt>
      <trkpt lat="48.38635" lon="-3.96283">
        <ele>324.20001220703</ele>
        <time>2021-09-12T11:19:29Z</time>
      </trkpt>
      <trkpt lat="48.38637" lon="-3.96279">
        <ele>324.20001220703</ele>
        <time>2021-09-12T11:19:30Z</time>
      </trkpt>
      <trkpt lat="48.38638" lon="-3.96274">
        <ele>324.20001220703</ele>
        <time>2021-09-12T11:19:31Z</time>
      </trkpt>
      <trkpt lat="48.3864" lon="-3.9627">
        <ele>324.20001220703</ele>
        <time>2021-09-12T11:19:32Z</time>
      </trkpt>
      <trkpt lat="48.38642" lon="-3.96265">
        <ele>324.39999389648</ele>
        <time>2021-09-12T11:19:33Z</time>
      </trkpt>
      <trkpt lat="48.38644" lon="-3.96261">
        <ele>324.39999389648</ele>
        <time>2021-09-12T11:19:34Z</time>
      </trkpt>
      <trkpt lat="48.38645" lon="-3.96256">
        <ele>324.39999389648</ele>
        <time>2021-09-12T11:19:35Z</time>
      </trkpt>
      <trkpt lat="48.38647" lon="-3.96251">
        <ele>324.60000610352</ele>
        <time>2021-09-12T11:19:36Z</time>
      </trkpt>
      <trkpt lat="48.38649" lon="-3.96247">
        <ele>324.79998779297</ele>
        <time>2021-09-12T11:19:37Z</time>
      </trkpt>
      <trkpt lat="48.38651" lon="-3.96243">
        <ele>324.79998779297</ele>
        <time>2021-09-12T11:19:38Z</time>
      </trkpt>
      <trkpt lat="48.38653" lon="-3.9624">
        <ele>324.79998779297</ele>
        <time>2021-09-12T11:19:39Z</time>
      </trkpt>
      <trkpt lat="48.38655" lon="-3.96237">
        <ele>325</ele>
        <time>2021-09-12T11:19:40Z</time>
      </trkpt>
      <trkpt lat="48.38658" lon="-3.96235">
        <ele>325</ele>
        <time>2021-09-12T11:19:41Z</time>
      </trkpt>
      <trkpt lat="48.38661" lon="-3.96234">
        <ele>325.20001220703</ele>
        <time>2021-09-12T11:19:42Z</time>
      </trkpt>
      <trkpt lat="48.38664" lon="-3.96233">
        <ele>325.20001220703</ele>
        <time>2021-09-12T11:19:43Z</time>
      </trkpt>
      <trkpt lat="48.38667" lon="-3.96232">
        <ele>325.39999389648</ele>
        <time>2021-09-12T11:19:44Z</time>
      </trkpt>
      <trkpt lat="48.3867" lon="-3.96231">
        <ele>325.60000610352</ele>
        <time>2021-09-12T11:19:45Z</time>
      </trkpt>
      <trkpt lat="48.38673" lon="-3.9623">
        <ele>325.60000610352</ele>
        <time>2021-09-12T11:19:46Z</time>
      </trkpt>
      <trkpt lat="48.38676" lon="-3.96229">
        <ele>325.79998779297</ele>
        <time>2021-09-12T11:19:47Z</time>
      </trkpt>
      <trkpt lat="48.38679" lon="-3.96227">
        <ele>326.39999389648</ele>
        <time>2021-09-12T11:19:48Z</time>
      </trkpt>
      <trkpt lat="48.38682" lon="-3.96227">
        <ele>326.39999389648</ele>
        <time>2021-09-12T11:19:49Z</time>
      </trkpt>
      <trkpt lat="48.38685" lon="-3.96225">
        <ele>326.39999389648</ele>
        <time>2021-09-12T11:19:50Z</time>
      </trkpt>
      <trkpt lat="48.38687" lon="-3.96223">
        <ele>326.79998779297</ele>
        <time>2021-09-12T11:19:51Z</time>
      </trkpt>
      <trkpt lat="48.38689" lon="-3.9622">
        <ele>327</ele>
        <time>2021-09-12T11:19:52Z</time>
      </trkpt>
      <trkpt lat="48.38692" lon="-3.96216">
        <ele>327</ele>
        <time>2021-09-12T11:19:53Z</time>
      </trkpt>
      <trkpt lat="48.38694" lon="-3.96212">
        <ele>327.20001220703</ele>
        <time>2021-09-12T11:19:54Z</time>
      </trkpt>
      <trkpt lat="48.38695" lon="-3.96208">
        <ele>327.39999389648</ele>
        <time>2021-09-12T11:19:55Z</time>
      </trkpt>
      <trkpt lat="48.38697" lon="-3.96202">
        <ele>327.39999389648</ele>
        <time>2021-09-12T11:19:56Z</time>
      </trkpt>
      <trkpt lat="48.38699" lon="-3.96197">
        <ele>327.39999389648</ele>
        <time>2021-09-12T11:19:57Z</time>
      </trkpt>
      <trkpt lat="48.38701" lon="-3.96193">
        <ele>327.39999389648</ele>
        <time>2021-09-12T11:19:58Z</time>
      </trkpt>
      <trkpt lat="48.38703" lon="-3.96188">
        <ele>327.20001220703</ele>
        <time>2021-09-12T11:19:59Z</time>
      </trkpt>
      <trkpt lat="48.38705" lon="-3.96184">
        <ele>327.20001220703</ele>
        <time>2021-09-12T11:20:00Z</time>
      </trkpt>
      <trkpt lat="48.38708" lon="-3.9618">
        <ele>327.20001220703</ele>
        <time>2021-09-12T11:20:01Z</time>
      </trkpt>
      <trkpt lat="48.38711" lon="-3.96176">
        <ele>327.20001220703</ele>
        <time>2021-09-12T11:20:02Z</time>
      </trkpt>
      <trkpt lat="48.38713" lon="-3.96173">
        <ele>327.20001220703</ele>
        <time>2021-09-12T11:20:03Z</time>
      </trkpt>
      <trkpt lat="48.38716" lon="-3.96169">
        <ele>327.20001220703</ele>
        <time>2021-09-12T11:20:04Z</time>
      </trkpt>
      <trkpt lat="48.38719" lon="-3.96165">
        <ele>327.20001220703</ele>
        <time>2021-09-12T11:20:05Z</time>
      </trkpt>
      <trkpt lat="48.38722" lon="-3.96162">
        <ele>327.39999389648</ele>
        <time>2021-09-12T11:20:06Z</time>
      </trkpt>
      <trkpt lat="48.38725" lon="-3.96158">
        <ele>327.39999389648</ele>
        <time>2021-09-12T11:20:07Z</time>
      </trkpt>
      <trkpt lat="48.38727" lon="-3.96155">
        <ele>327.39999389648</ele>
        <time>2021-09-12T11:20:08Z</time>
      </trkpt>
      <trkpt lat="48.3873" lon="-3.96151">
        <ele>327.60000610352</ele>
        <time>2021-09-12T11:20:09Z</time>
      </trkpt>
      <trkpt lat="48.38732" lon="-3.96147">
        <ele>327.60000610352</ele>
        <time>2021-09-12T11:20:10Z</time>
      </trkpt>
      <trkpt lat="48.38735" lon="-3.96144">
        <ele>327.79998779297</ele>
        <time>2021-09-12T11:20:11Z</time>
      </trkpt>
      <trkpt lat="48.38737" lon="-3.96139">
        <ele>327.79998779297</ele>
        <time>2021-09-12T11:20:12Z</time>
      </trkpt>
      <trkpt lat="48.38739" lon="-3.96135">
        <ele>327.79998779297</ele>
        <time>2021-09-12T11:20:13Z</time>
      </trkpt>
      <trkpt lat="48.38741" lon="-3.96131">
        <ele>328</ele>
        <time>2021-09-12T11:20:14Z</time>
      </trkpt>
      <trkpt lat="48.38744" lon="-3.96126">
        <ele>328</ele>
        <time>2021-09-12T11:20:15Z</time>
      </trkpt>
      <trkpt lat="48.38746" lon="-3.96122">
        <ele>328.20001220703</ele>
        <time>2021-09-12T11:20:16Z</time>
      </trkpt>
      <trkpt lat="48.38748" lon="-3.96117">
        <ele>328.20001220703</ele>
        <time>2021-09-12T11:20:17Z</time>
      </trkpt>
      <trkpt lat="48.38749" lon="-3.96113">
        <ele>328.39999389648</ele>
        <time>2021-09-12T11:20:18Z</time>
      </trkpt>
      <trkpt lat="48.38751" lon="-3.96108">
        <ele>328.60000610352</ele>
        <time>2021-09-12T11:20:19Z</time>
      </trkpt>
      <trkpt lat="48.38751" lon="-3.96102">
        <ele>328.60000610352</ele>
        <time>2021-09-12T11:20:20Z</time>
      </trkpt>
      <trkpt lat="48.38751" lon="-3.96096">
        <ele>328.39999389648</ele>
        <time>2021-09-12T11:20:21Z</time>
      </trkpt>
      <trkpt lat="48.38751" lon="-3.9609">
        <ele>328.39999389648</ele>
        <time>2021-09-12T11:20:22Z</time>
      </trkpt>
      <trkpt lat="48.38751" lon="-3.96084">
        <ele>328.39999389648</ele>
        <time>2021-09-12T11:20:23Z</time>
      </trkpt>
      <trkpt lat="48.38751" lon="-3.96078">
        <ele>328.20001220703</ele>
        <time>2021-09-12T11:20:24Z</time>
      </trkpt>
      <trkpt lat="48.38751" lon="-3.96072">
        <ele>328.20001220703</ele>
        <time>2021-09-12T11:20:25Z</time>
      </trkpt>
      <trkpt lat="48.38752" lon="-3.96067">
        <ele>328.20001220703</ele>
        <time>2021-09-12T11:20:26Z</time>
      </trkpt>
      <trkpt lat="48.38753" lon="-3.96062">
        <ele>328</ele>
        <time>2021-09-12T11:20:27Z</time>
      </trkpt>
      <trkpt lat="48.38754" lon="-3.96058">
        <ele>328</ele>
        <time>2021-09-12T11:20:28Z</time>
      </trkpt>
      <trkpt lat="48.38755" lon="-3.96054">
        <ele>328</ele>
        <time>2021-09-12T11:20:29Z</time>
      </trkpt>
      <trkpt lat="48.38757" lon="-3.9605">
        <ele>328.20001220703</ele>
        <time>2021-09-12T11:20:30Z</time>
      </trkpt>
      <trkpt lat="48.38758" lon="-3.96047">
        <ele>328.20001220703</ele>
        <time>2021-09-12T11:20:31Z</time>
      </trkpt>
      <trkpt lat="48.38759" lon="-3.96042">
        <ele>328.20001220703</ele>
        <time>2021-09-12T11:20:32Z</time>
      </trkpt>
      <trkpt lat="48.3876" lon="-3.96037">
        <ele>328.39999389648</ele>
        <time>2021-09-12T11:20:33Z</time>
      </trkpt>
      <trkpt lat="48.38762" lon="-3.96032">
        <ele>328.39999389648</ele>
        <time>2021-09-12T11:20:34Z</time>
      </trkpt>
      <trkpt lat="48.38762" lon="-3.96027">
        <ele>328.39999389648</ele>
        <time>2021-09-12T11:20:35Z</time>
      </trkpt>
      <trkpt lat="48.38763" lon="-3.96021">
        <ele>328.39999389648</ele>
        <time>2021-09-12T11:20:36Z</time>
      </trkpt>
      <trkpt lat="48.38762" lon="-3.96015">
        <ele>328.39999389648</ele>
        <time>2021-09-12T11:20:37Z</time>
      </trkpt>
      <trkpt lat="48.3876" lon="-3.9601">
        <ele>328.39999389648</ele>
        <time>2021-09-12T11:20:38Z</time>
      </trkpt>
      <trkpt lat="48.38758" lon="-3.96004">
        <ele>328.39999389648</ele>
        <time>2021-09-12T11:20:39Z</time>
      </trkpt>
      <trkpt lat="48.38757" lon="-3.95998">
        <ele>328.39999389648</ele>
        <time>2021-09-12T11:20:40Z</time>
      </trkpt>
      <trkpt lat="48.38755" lon="-3.95991">
        <ele>327.79998779297</ele>
        <time>2021-09-12T11:20:41Z</time>
      </trkpt>
      <trkpt lat="48.38754" lon="-3.95985">
        <ele>327.60000610352</ele>
        <time>2021-09-12T11:20:42Z</time>
      </trkpt>
      <trkpt lat="48.38755" lon="-3.95979">
        <ele>327.39999389648</ele>
        <time>2021-09-12T11:20:43Z</time>
      </trkpt>
      <trkpt lat="48.38756" lon="-3.95974">
        <ele>327.39999389648</ele>
        <time>2021-09-12T11:20:44Z</time>
      </trkpt>
      <trkpt lat="48.38758" lon="-3.95969">
        <ele>327.39999389648</ele>
        <time>2021-09-12T11:20:45Z</time>
      </trkpt>
      <trkpt lat="48.38759" lon="-3.95964">
        <ele>327.39999389648</ele>
        <time>2021-09-12T11:20:46Z</time>
      </trkpt>
      <trkpt lat="48.38761" lon="-3.95958">
        <ele>327.39999389648</ele>
        <time>2021-09-12T11:20:47Z</time>
      </trkpt>
      <trkpt lat="48.38762" lon="-3.95952">
        <ele>327.60000610352</ele>
        <time>2021-09-12T11:20:48Z</time>
      </trkpt>
      <trkpt lat="48.38764" lon="-3.95947">
        <ele>327.60000610352</ele>
        <time>2021-09-12T11:20:49Z</time>
      </trkpt>
      <trkpt lat="48.38766" lon="-3.95942">
        <ele>327.79998779297</ele>
        <time>2021-09-12T11:20:50Z</time>
      </trkpt>
      <trkpt lat="48.38767" lon="-3.95936">
        <ele>327.79998779297</ele>
        <time>2021-09-12T11:20:51Z</time>
      </trkpt>
      <trkpt lat="48.38769" lon="-3.95931">
        <ele>327.79998779297</ele>
        <time>2021-09-12T11:20:52Z</time>
      </trkpt>
      <trkpt lat="48.38771" lon="-3.95926">
        <ele>328</ele>
        <time>2021-09-12T11:20:53Z</time>
      </trkpt>
      <trkpt lat="48.38773" lon="-3.95921">
        <ele>328</ele>
        <time>2021-09-12T11:20:54Z</time>
      </trkpt>
      <trkpt lat="48.38775" lon="-3.95916">
        <ele>327.79998779297</ele>
        <time>2021-09-12T11:20:55Z</time>
      </trkpt>
      <trkpt lat="48.38777" lon="-3.95911">
        <ele>328</ele>
        <time>2021-09-12T11:20:56Z</time>
      </trkpt>
      <trkpt lat="48.38778" lon="-3.95906">
        <ele>328</ele>
        <time>2021-09-12T11:20:57Z</time>
      </trkpt>
      <trkpt lat="48.38779" lon="-3.95902">
        <ele>328</ele>
        <time>2021-09-12T11:20:58Z</time>
      </trkpt>
      <trkpt lat="48.38781" lon="-3.95898">
        <ele>327.79998779297</ele>
        <time>2021-09-12T11:20:59Z</time>
      </trkpt>
      <trkpt lat="48.38782" lon="-3.95895">
        <ele>327.79998779297</ele>
        <time>2021-09-12T11:21:00Z</time>
      </trkpt>
      <trkpt lat="48.38781" lon="-3.95892">
        <ele>327.79998779297</ele>
        <time>2021-09-12T11:21:01Z</time>
      </trkpt>
      <trkpt lat="48.3878" lon="-3.9589">
        <ele>327.60000610352</ele>
        <time>2021-09-12T11:21:02Z</time>
      </trkpt>
      <trkpt lat="48.38779" lon="-3.95887">
        <ele>327.60000610352</ele>
        <time>2021-09-12T11:21:03Z</time>
      </trkpt>
      <trkpt lat="48.38778" lon="-3.95883">
        <ele>327.60000610352</ele>
        <time>2021-09-12T11:21:04Z</time>
      </trkpt>
      <trkpt lat="48.38777" lon="-3.95879">
        <ele>327.39999389648</ele>
        <time>2021-09-12T11:21:05Z</time>
      </trkpt>
      <trkpt lat="48.38775" lon="-3.95874">
        <ele>327.39999389648</ele>
        <time>2021-09-12T11:21:06Z</time>
      </trkpt>
      <trkpt lat="48.38774" lon="-3.95869">
        <ele>327.20001220703</ele>
        <time>2021-09-12T11:21:07Z</time>
      </trkpt>
      <trkpt lat="48.38772" lon="-3.95863">
        <ele>327</ele>
        <time>2021-09-12T11:21:08Z</time>
      </trkpt>
      <trkpt lat="48.38771" lon="-3.95857">
        <ele>326.60000610352</ele>
        <time>2021-09-12T11:21:09Z</time>
      </trkpt>
      <trkpt lat="48.38769" lon="-3.95851">
        <ele>326.39999389648</ele>
        <time>2021-09-12T11:21:10Z</time>
      </trkpt>
      <trkpt lat="48.38767" lon="-3.95845">
        <ele>326</ele>
        <time>2021-09-12T11:21:11Z</time>
      </trkpt>
      <trkpt lat="48.38765" lon="-3.95839">
        <ele>325.79998779297</ele>
        <time>2021-09-12T11:21:12Z</time>
      </trkpt>
      <trkpt lat="48.38762" lon="-3.9583">
        <ele>325.79998779297</ele>
        <time>2021-09-12T11:21:13Z</time>
      </trkpt>
      <trkpt lat="48.3876" lon="-3.95822">
        <ele>325.60000610352</ele>
        <time>2021-09-12T11:21:14Z</time>
      </trkpt>
      <trkpt lat="48.38759" lon="-3.95814">
        <ele>324.60000610352</ele>
        <time>2021-09-12T11:21:15Z</time>
      </trkpt>
      <trkpt lat="48.38757" lon="-3.95808">
        <ele>324.60000610352</ele>
        <time>2021-09-12T11:21:16Z</time>
      </trkpt>
      <trkpt lat="48.38756" lon="-3.958">
        <ele>324</ele>
        <time>2021-09-12T11:21:17Z</time>
      </trkpt>
      <trkpt lat="48.38754" lon="-3.95791">
        <ele>324</ele>
        <time>2021-09-12T11:21:18Z</time>
      </trkpt>
      <trkpt lat="48.38752" lon="-3.95783">
        <ele>323.79998779297</ele>
        <time>2021-09-12T11:21:19Z</time>
      </trkpt>
      <trkpt lat="48.3875" lon="-3.95775">
        <ele>323.20001220703</ele>
        <time>2021-09-12T11:21:20Z</time>
      </trkpt>
      <trkpt lat="48.38748" lon="-3.95769">
        <ele>323</ele>
        <time>2021-09-12T11:21:21Z</time>
      </trkpt>
      <trkpt lat="48.38746" lon="-3.95762">
        <ele>322.79998779297</ele>
        <time>2021-09-12T11:21:22Z</time>
      </trkpt>
      <trkpt lat="48.38744" lon="-3.95753">
        <ele>322.60000610352</ele>
        <time>2021-09-12T11:21:23Z</time>
      </trkpt>
      <trkpt lat="48.38742" lon="-3.95745">
        <ele>322.60000610352</ele>
        <time>2021-09-12T11:21:24Z</time>
      </trkpt>
      <trkpt lat="48.3874" lon="-3.95737">
        <ele>322.39999389648</ele>
        <time>2021-09-12T11:21:25Z</time>
      </trkpt>
      <trkpt lat="48.38739" lon="-3.9573">
        <ele>322.20001220703</ele>
        <time>2021-09-12T11:21:26Z</time>
      </trkpt>
      <trkpt lat="48.38737" lon="-3.9572">
        <ele>322</ele>
        <time>2021-09-12T11:21:27Z</time>
      </trkpt>
      <trkpt lat="48.38734" lon="-3.95712">
        <ele>321.60000610352</ele>
        <time>2021-09-12T11:21:28Z</time>
      </trkpt>
      <trkpt lat="48.38732" lon="-3.95705">
        <ele>321</ele>
        <time>2021-09-12T11:21:29Z</time>
      </trkpt>
      <trkpt lat="48.3873" lon="-3.95699">
        <ele>320.60000610352</ele>
        <time>2021-09-12T11:21:30Z</time>
      </trkpt>
      <trkpt lat="48.38729" lon="-3.95694">
        <ele>320.39999389648</ele>
        <time>2021-09-12T11:21:31Z</time>
      </trkpt>
      <trkpt lat="48.38728" lon="-3.95687">
        <ele>319</ele>
        <time>2021-09-12T11:21:32Z</time>
      </trkpt>
      <trkpt lat="48.38726" lon="-3.95679">
        <ele>319</ele>
        <time>2021-09-12T11:21:33Z</time>
      </trkpt>
      <trkpt lat="48.38724" lon="-3.95673">
        <ele>318.79998779297</ele>
        <time>2021-09-12T11:21:34Z</time>
      </trkpt>
      <trkpt lat="48.38722" lon="-3.95666">
        <ele>318.60000610352</ele>
        <time>2021-09-12T11:21:35Z</time>
      </trkpt>
      <trkpt lat="48.3872" lon="-3.95661">
        <ele>317.39999389648</ele>
        <time>2021-09-12T11:21:36Z</time>
      </trkpt>
      <trkpt lat="48.38719" lon="-3.95655">
        <ele>317.20001220703</ele>
        <time>2021-09-12T11:21:37Z</time>
      </trkpt>
      <trkpt lat="48.38719" lon="-3.95649">
        <ele>316.20001220703</ele>
        <time>2021-09-12T11:21:38Z</time>
      </trkpt>
      <trkpt lat="48.38718" lon="-3.95644">
        <ele>315.60000610352</ele>
        <time>2021-09-12T11:21:39Z</time>
      </trkpt>
      <trkpt lat="48.38716" lon="-3.95639">
        <ele>314.79998779297</ele>
        <time>2021-09-12T11:21:40Z</time>
      </trkpt>
      <trkpt lat="48.38715" lon="-3.95635">
        <ele>314.79998779297</ele>
        <time>2021-09-12T11:21:41Z</time>
      </trkpt>
      <trkpt lat="48.38713" lon="-3.95631">
        <ele>314</ele>
        <time>2021-09-12T11:21:42Z</time>
      </trkpt>
      <trkpt lat="48.38709" lon="-3.95626">
        <ele>312.79998779297</ele>
        <time>2021-09-12T11:21:43Z</time>
      </trkpt>
      <trkpt lat="48.38707" lon="-3.95623">
        <ele>312</ele>
        <time>2021-09-12T11:21:44Z</time>
      </trkpt>
      <trkpt lat="48.38705" lon="-3.9562">
        <ele>311.60000610352</ele>
        <time>2021-09-12T11:21:45Z</time>
      </trkpt>
      <trkpt lat="48.38702" lon="-3.95618">
        <ele>310.79998779297</ele>
        <time>2021-09-12T11:21:46Z</time>
      </trkpt>
      <trkpt lat="48.387" lon="-3.95614">
        <ele>310</ele>
        <time>2021-09-12T11:21:47Z</time>
      </trkpt>
      <trkpt lat="48.38697" lon="-3.95609">
        <ele>309.20001220703</ele>
        <time>2021-09-12T11:21:48Z</time>
      </trkpt>
      <trkpt lat="48.38694" lon="-3.95605">
        <ele>308.79998779297</ele>
        <time>2021-09-12T11:21:49Z</time>
      </trkpt>
      <trkpt lat="48.38692" lon="-3.95601">
        <ele>307.60000610352</ele>
        <time>2021-09-12T11:21:50Z</time>
      </trkpt>
      <trkpt lat="48.3869" lon="-3.95599">
        <ele>306.60000610352</ele>
        <time>2021-09-12T11:21:51Z</time>
      </trkpt>
      <trkpt lat="48.38687" lon="-3.95596">
        <ele>306.39999389648</ele>
        <time>2021-09-12T11:21:52Z</time>
      </trkpt>
      <trkpt lat="48.38683" lon="-3.95592">
        <ele>305.60000610352</ele>
        <time>2021-09-12T11:21:53Z</time>
      </trkpt>
      <trkpt lat="48.38679" lon="-3.95587">
        <ele>305.39999389648</ele>
        <time>2021-09-12T11:21:54Z</time>
      </trkpt>
      <trkpt lat="48.38676" lon="-3.95584">
        <ele>305.20001220703</ele>
        <time>2021-09-12T11:21:55Z</time>
      </trkpt>
      <trkpt lat="48.38672" lon="-3.95578">
        <ele>304</ele>
        <time>2021-09-12T11:21:56Z</time>
      </trkpt>
      <trkpt lat="48.38668" lon="-3.95576">
        <ele>303</ele>
        <time>2021-09-12T11:21:57Z</time>
      </trkpt>
      <trkpt lat="48.38665" lon="-3.95575">
        <ele>303</ele>
        <time>2021-09-12T11:21:58Z</time>
      </trkpt>
      <trkpt lat="48.38662" lon="-3.95573">
        <ele>301.79998779297</ele>
        <time>2021-09-12T11:21:59Z</time>
      </trkpt>
      <trkpt lat="48.38658" lon="-3.9557">
        <ele>301.79998779297</ele>
        <time>2021-09-12T11:22:00Z</time>
      </trkpt>
      <trkpt lat="48.38655" lon="-3.95569">
        <ele>301.20001220703</ele>
        <time>2021-09-12T11:22:01Z</time>
      </trkpt>
      <trkpt lat="48.38652" lon="-3.95568">
        <ele>299.79998779297</ele>
        <time>2021-09-12T11:22:02Z</time>
      </trkpt>
      <trkpt lat="48.38648" lon="-3.95567">
        <ele>299</ele>
        <time>2021-09-12T11:22:03Z</time>
      </trkpt>
      <trkpt lat="48.38645" lon="-3.95564">
        <ele>298.20001220703</ele>
        <time>2021-09-12T11:22:04Z</time>
      </trkpt>
      <trkpt lat="48.38642" lon="-3.95561">
        <ele>298</ele>
        <time>2021-09-12T11:22:05Z</time>
      </trkpt>
      <trkpt lat="48.38639" lon="-3.95559">
        <ele>297.60000610352</ele>
        <time>2021-09-12T11:22:06Z</time>
      </trkpt>
      <trkpt lat="48.38635" lon="-3.95557">
        <ele>297</ele>
        <time>2021-09-12T11:22:07Z</time>
      </trkpt>
      <trkpt lat="48.38631" lon="-3.95555">
        <ele>295.79998779297</ele>
        <time>2021-09-12T11:22:08Z</time>
      </trkpt>
      <trkpt lat="48.38628" lon="-3.95551">
        <ele>295.60000610352</ele>
        <time>2021-09-12T11:22:09Z</time>
      </trkpt>
      <trkpt lat="48.38626" lon="-3.95549">
        <ele>295.39999389648</ele>
        <time>2021-09-12T11:22:10Z</time>
      </trkpt>
      <trkpt lat="48.38624" lon="-3.95547">
        <ele>294.79998779297</ele>
        <time>2021-09-12T11:22:11Z</time>
      </trkpt>
      <trkpt lat="48.38622" lon="-3.95545">
        <ele>294</ele>
        <time>2021-09-12T11:22:12Z</time>
      </trkpt>
      <trkpt lat="48.38619" lon="-3.95543">
        <ele>294</ele>
        <time>2021-09-12T11:22:13Z</time>
      </trkpt>
      <trkpt lat="48.38617" lon="-3.9554">
        <ele>293.39999389648</ele>
        <time>2021-09-12T11:22:14Z</time>
      </trkpt>
      <trkpt lat="48.38616" lon="-3.95537">
        <ele>293.20001220703</ele>
        <time>2021-09-12T11:22:15Z</time>
      </trkpt>
      <trkpt lat="48.38614" lon="-3.95534">
        <ele>292.60000610352</ele>
        <time>2021-09-12T11:22:16Z</time>
      </trkpt>
      <trkpt lat="48.38614" lon="-3.95533">
        <ele>292.20001220703</ele>
        <time>2021-09-12T11:22:17Z</time>
      </trkpt>
      <trkpt lat="48.38613" lon="-3.95532">
        <ele>292.20001220703</ele>
        <time>2021-09-12T11:22:18Z</time>
      </trkpt>
      <trkpt lat="48.38611" lon="-3.95531">
        <ele>292.20001220703</ele>
        <time>2021-09-12T11:22:19Z</time>
      </trkpt>
      <trkpt lat="48.3861" lon="-3.9553">
        <ele>292</ele>
        <time>2021-09-12T11:22:20Z</time>
      </trkpt>
      <trkpt lat="48.38609" lon="-3.95528">
        <ele>291.60000610352</ele>
        <time>2021-09-12T11:22:21Z</time>
      </trkpt>
      <trkpt lat="48.38608" lon="-3.95525">
        <ele>291.39999389648</ele>
        <time>2021-09-12T11:22:22Z</time>
      </trkpt>
      <trkpt lat="48.38607" lon="-3.95522">
        <ele>291.20001220703</ele>
        <time>2021-09-12T11:22:23Z</time>
      </trkpt>
      <trkpt lat="48.38605" lon="-3.95521">
        <ele>291</ele>
        <time>2021-09-12T11:22:24Z</time>
      </trkpt>
      <trkpt lat="48.38602" lon="-3.95518">
        <ele>290.39999389648</ele>
        <time>2021-09-12T11:22:25Z</time>
      </trkpt>
      <trkpt lat="48.386" lon="-3.95516">
        <ele>290</ele>
        <time>2021-09-12T11:22:26Z</time>
      </trkpt>
      <trkpt lat="48.38597" lon="-3.95512">
        <ele>289.79998779297</ele>
        <time>2021-09-12T11:22:27Z</time>
      </trkpt>
      <trkpt lat="48.38593" lon="-3.95508">
        <ele>289.60000610352</ele>
        <time>2021-09-12T11:22:28Z</time>
      </trkpt>
      <trkpt lat="48.3859" lon="-3.95504">
        <ele>289.39999389648</ele>
        <time>2021-09-12T11:22:29Z</time>
      </trkpt>
      <trkpt lat="48.38586" lon="-3.95501">
        <ele>288.60000610352</ele>
        <time>2021-09-12T11:22:30Z</time>
      </trkpt>
      <trkpt lat="48.38582" lon="-3.95497">
        <ele>288.60000610352</ele>
        <time>2021-09-12T11:22:31Z</time>
      </trkpt>
      <trkpt lat="48.38578" lon="-3.95492">
        <ele>288.39999389648</ele>
        <time>2021-09-12T11:22:32Z</time>
      </trkpt>
      <trkpt lat="48.38574" lon="-3.95489">
        <ele>288</ele>
        <time>2021-09-12T11:22:33Z</time>
      </trkpt>
      <trkpt lat="48.3857" lon="-3.95486">
        <ele>287</ele>
        <time>2021-09-12T11:22:34Z</time>
      </trkpt>
      <trkpt lat="48.38568" lon="-3.95482">
        <ele>286.20001220703</ele>
        <time>2021-09-12T11:22:35Z</time>
      </trkpt>
      <trkpt lat="48.38564" lon="-3.95479">
        <ele>285.60000610352</ele>
        <time>2021-09-12T11:22:36Z</time>
      </trkpt>
      <trkpt lat="48.3856" lon="-3.95476">
        <ele>285.39999389648</ele>
        <time>2021-09-12T11:22:37Z</time>
      </trkpt>
      <trkpt lat="48.38556" lon="-3.95474">
        <ele>285.20001220703</ele>
        <time>2021-09-12T11:22:38Z</time>
      </trkpt>
      <trkpt lat="48.38553" lon="-3.95472">
        <ele>285.20001220703</ele>
        <time>2021-09-12T11:22:39Z</time>
      </trkpt>
      <trkpt lat="48.38549" lon="-3.95469">
        <ele>284</ele>
        <time>2021-09-12T11:22:40Z</time>
      </trkpt>
      <trkpt lat="48.38545" lon="-3.95465">
        <ele>284</ele>
        <time>2021-09-12T11:22:41Z</time>
      </trkpt>
      <trkpt lat="48.38541" lon="-3.9546">
        <ele>283.60000610352</ele>
        <time>2021-09-12T11:22:42Z</time>
      </trkpt>
      <trkpt lat="48.38537" lon="-3.95456">
        <ele>282.60000610352</ele>
        <time>2021-09-12T11:22:43Z</time>
      </trkpt>
      <trkpt lat="48.38532" lon="-3.95452">
        <ele>282.39999389648</ele>
        <time>2021-09-12T11:22:44Z</time>
      </trkpt>
      <trkpt lat="48.38527" lon="-3.95449">
        <ele>282.39999389648</ele>
        <time>2021-09-12T11:22:45Z</time>
      </trkpt>
      <trkpt lat="48.38523" lon="-3.95444">
        <ele>281.79998779297</ele>
        <time>2021-09-12T11:22:46Z</time>
      </trkpt>
      <trkpt lat="48.38519" lon="-3.95439">
        <ele>280.79998779297</ele>
        <time>2021-09-12T11:22:47Z</time>
      </trkpt>
      <trkpt lat="48.38515" lon="-3.95434">
        <ele>280.79998779297</ele>
        <time>2021-09-12T11:22:48Z</time>
      </trkpt>
      <trkpt lat="48.38511" lon="-3.95428">
        <ele>280.60000610352</ele>
        <time>2021-09-12T11:22:49Z</time>
      </trkpt>
      <trkpt lat="48.38507" lon="-3.95424">
        <ele>280.39999389648</ele>
        <time>2021-09-12T11:22:50Z</time>
      </trkpt>
      <trkpt lat="48.38504" lon="-3.9542">
        <ele>279.39999389648</ele>
        <time>2021-09-12T11:22:51Z</time>
      </trkpt>
      <trkpt lat="48.38502" lon="-3.95417">
        <ele>279.39999389648</ele>
        <time>2021-09-12T11:22:52Z</time>
      </trkpt>
      <trkpt lat="48.38498" lon="-3.95414">
        <ele>278.60000610352</ele>
        <time>2021-09-12T11:22:53Z</time>
      </trkpt>
      <trkpt lat="48.38496" lon="-3.95413">
        <ele>278.60000610352</ele>
        <time>2021-09-12T11:22:54Z</time>
      </trkpt>
      <trkpt lat="48.38493" lon="-3.9541">
        <ele>278</ele>
        <time>2021-09-12T11:22:55Z</time>
      </trkpt>
      <trkpt lat="48.3849" lon="-3.95407">
        <ele>278</ele>
        <time>2021-09-12T11:22:56Z</time>
      </trkpt>
      <trkpt lat="48.38486" lon="-3.95403">
        <ele>277.79998779297</ele>
        <time>2021-09-12T11:22:57Z</time>
      </trkpt>
      <trkpt lat="48.38482" lon="-3.95401">
        <ele>277.39999389648</ele>
        <time>2021-09-12T11:22:58Z</time>
      </trkpt>
      <trkpt lat="48.38477" lon="-3.95397">
        <ele>277.39999389648</ele>
        <time>2021-09-12T11:22:59Z</time>
      </trkpt>
      <trkpt lat="48.38473" lon="-3.95394">
        <ele>276.79998779297</ele>
        <time>2021-09-12T11:23:00Z</time>
      </trkpt>
      <trkpt lat="48.38468" lon="-3.95392">
        <ele>276.60000610352</ele>
        <time>2021-09-12T11:23:01Z</time>
      </trkpt>
      <trkpt lat="48.38465" lon="-3.95389">
        <ele>276.60000610352</ele>
        <time>2021-09-12T11:23:02Z</time>
      </trkpt>
      <trkpt lat="48.38461" lon="-3.95386">
        <ele>275.79998779297</ele>
        <time>2021-09-12T11:23:03Z</time>
      </trkpt>
      <trkpt lat="48.38459" lon="-3.95384">
        <ele>275.39999389648</ele>
        <time>2021-09-12T11:23:04Z</time>
      </trkpt>
      <trkpt lat="48.38456" lon="-3.95382">
        <ele>275.20001220703</ele>
        <time>2021-09-12T11:23:05Z</time>
      </trkpt>
      <trkpt lat="48.38454" lon="-3.9538">
        <ele>274.79998779297</ele>
        <time>2021-09-12T11:23:06Z</time>
      </trkpt>
      <trkpt lat="48.38452" lon="-3.95378">
        <ele>274.60000610352</ele>
        <time>2021-09-12T11:23:07Z</time>
      </trkpt>
      <trkpt lat="48.3845" lon="-3.95378">
        <ele>274</ele>
        <time>2021-09-12T11:23:08Z</time>
      </trkpt>
      <trkpt lat="48.38448" lon="-3.95377">
        <ele>274</ele>
        <time>2021-09-12T11:23:09Z</time>
      </trkpt>
      <trkpt lat="48.38445" lon="-3.95376">
        <ele>273.79998779297</ele>
        <time>2021-09-12T11:23:10Z</time>
      </trkpt>
      <trkpt lat="48.38442" lon="-3.95376">
        <ele>273.60000610352</ele>
        <time>2021-09-12T11:23:11Z</time>
      </trkpt>
      <trkpt lat="48.38439" lon="-3.95376">
        <ele>273.60000610352</ele>
        <time>2021-09-12T11:23:12Z</time>
      </trkpt>
      <trkpt lat="48.38436" lon="-3.95375">
        <ele>273.60000610352</ele>
        <time>2021-09-12T11:23:13Z</time>
      </trkpt>
      <trkpt lat="48.38433" lon="-3.95372">
        <ele>273.60000610352</ele>
        <time>2021-09-12T11:23:14Z</time>
      </trkpt>
      <trkpt lat="48.38429" lon="-3.95369">
        <ele>273</ele>
        <time>2021-09-12T11:23:15Z</time>
      </trkpt>
      <trkpt lat="48.38425" lon="-3.95367">
        <ele>272.39999389648</ele>
        <time>2021-09-12T11:23:16Z</time>
      </trkpt>
      <trkpt lat="48.38421" lon="-3.95364">
        <ele>272.20001220703</ele>
        <time>2021-09-12T11:23:17Z</time>
      </trkpt>
      <trkpt lat="48.38418" lon="-3.95361">
        <ele>271.79998779297</ele>
        <time>2021-09-12T11:23:18Z</time>
      </trkpt>
      <trkpt lat="48.38416" lon="-3.95356">
        <ele>271.60000610352</ele>
        <time>2021-09-12T11:23:19Z</time>
      </trkpt>
      <trkpt lat="48.38413" lon="-3.9535">
        <ele>271.39999389648</ele>
        <time>2021-09-12T11:23:20Z</time>
      </trkpt>
      <trkpt lat="48.3841" lon="-3.95345">
        <ele>271.20001220703</ele>
        <time>2021-09-12T11:23:21Z</time>
      </trkpt>
      <trkpt lat="48.38407" lon="-3.95341">
        <ele>270.79998779297</ele>
        <time>2021-09-12T11:23:22Z</time>
      </trkpt>
      <trkpt lat="48.38403" lon="-3.9534">
        <ele>270.79998779297</ele>
        <time>2021-09-12T11:23:23Z</time>
      </trkpt>
      <trkpt lat="48.38399" lon="-3.9534">
        <ele>270.60000610352</ele>
        <time>2021-09-12T11:23:24Z</time>
      </trkpt>
      <trkpt lat="48.38396" lon="-3.9534">
        <ele>270.39999389648</ele>
        <time>2021-09-12T11:23:25Z</time>
      </trkpt>
      <trkpt lat="48.38392" lon="-3.95339">
        <ele>270.39999389648</ele>
        <time>2021-09-12T11:23:26Z</time>
      </trkpt>
      <trkpt lat="48.38388" lon="-3.95338">
        <ele>270.39999389648</ele>
        <time>2021-09-12T11:23:27Z</time>
      </trkpt>
      <trkpt lat="48.38385" lon="-3.95337">
        <ele>270.39999389648</ele>
        <time>2021-09-12T11:23:28Z</time>
      </trkpt>
      <trkpt lat="48.38382" lon="-3.95336">
        <ele>270.39999389648</ele>
        <time>2021-09-12T11:23:29Z</time>
      </trkpt>
      <trkpt lat="48.38378" lon="-3.95336">
        <ele>270.60000610352</ele>
        <time>2021-09-12T11:23:30Z</time>
      </trkpt>
      <trkpt lat="48.38375" lon="-3.95334">
        <ele>270.39999389648</ele>
        <time>2021-09-12T11:23:31Z</time>
      </trkpt>
      <trkpt lat="48.38371" lon="-3.95333">
        <ele>270.60000610352</ele>
        <time>2021-09-12T11:23:32Z</time>
      </trkpt>
      <trkpt lat="48.38368" lon="-3.9533">
        <ele>270.60000610352</ele>
        <time>2021-09-12T11:23:33Z</time>
      </trkpt>
      <trkpt lat="48.38364" lon="-3.95329">
        <ele>270.60000610352</ele>
        <time>2021-09-12T11:23:34Z</time>
      </trkpt>
      <trkpt lat="48.38361" lon="-3.95327">
        <ele>270.60000610352</ele>
        <time>2021-09-12T11:23:35Z</time>
      </trkpt>
      <trkpt lat="48.38358" lon="-3.95324">
        <ele>271.20001220703</ele>
        <time>2021-09-12T11:23:36Z</time>
      </trkpt>
      <trkpt lat="48.38355" lon="-3.95322">
        <ele>271.20001220703</ele>
        <time>2021-09-12T11:23:37Z</time>
      </trkpt>
      <trkpt lat="48.38353" lon="-3.95319">
        <ele>271.20001220703</ele>
        <time>2021-09-12T11:23:38Z</time>
      </trkpt>
      <trkpt lat="48.38351" lon="-3.95316">
        <ele>271.20001220703</ele>
        <time>2021-09-12T11:23:39Z</time>
      </trkpt>
      <trkpt lat="48.38349" lon="-3.95313">
        <ele>271.39999389648</ele>
        <time>2021-09-12T11:23:40Z</time>
      </trkpt>
      <trkpt lat="48.38347" lon="-3.9531">
        <ele>271.39999389648</ele>
        <time>2021-09-12T11:23:41Z</time>
      </trkpt>
      <trkpt lat="48.38346" lon="-3.95307">
        <ele>271.60000610352</ele>
        <time>2021-09-12T11:23:42Z</time>
      </trkpt>
      <trkpt lat="48.38345" lon="-3.95304">
        <ele>271.79998779297</ele>
        <time>2021-09-12T11:23:43Z</time>
      </trkpt>
      <trkpt lat="48.38343" lon="-3.95302">
        <ele>272</ele>
        <time>2021-09-12T11:23:44Z</time>
      </trkpt>
      <trkpt lat="48.38342" lon="-3.95299">
        <ele>272.39999389648</ele>
        <time>2021-09-12T11:23:45Z</time>
      </trkpt>
      <trkpt lat="48.38341" lon="-3.95295">
        <ele>272.60000610352</ele>
        <time>2021-09-12T11:23:46Z</time>
      </trkpt>
      <trkpt lat="48.3834" lon="-3.95292">
        <ele>273</ele>
        <time>2021-09-12T11:23:47Z</time>
      </trkpt>
      <trkpt lat="48.3834" lon="-3.95289">
        <ele>273</ele>
        <time>2021-09-12T11:23:48Z</time>
      </trkpt>
      <trkpt lat="48.38339" lon="-3.95286">
        <ele>273.20001220703</ele>
        <time>2021-09-12T11:23:49Z</time>
      </trkpt>
      <trkpt lat="48.38339" lon="-3.95283">
        <ele>273.20001220703</ele>
        <time>2021-09-12T11:23:50Z</time>
      </trkpt>
      <trkpt lat="48.38338" lon="-3.9528">
        <ele>273.20001220703</ele>
        <time>2021-09-12T11:23:51Z</time>
      </trkpt>
      <trkpt lat="48.38337" lon="-3.95277">
        <ele>273.20001220703</ele>
        <time>2021-09-12T11:23:52Z</time>
      </trkpt>
      <trkpt lat="48.38336" lon="-3.95275">
        <ele>273.39999389648</ele>
        <time>2021-09-12T11:23:53Z</time>
      </trkpt>
      <trkpt lat="48.38335" lon="-3.95273">
        <ele>273.39999389648</ele>
        <time>2021-09-12T11:23:54Z</time>
      </trkpt>
      <trkpt lat="48.38334" lon="-3.95271">
        <ele>273.60000610352</ele>
        <time>2021-09-12T11:23:55Z</time>
      </trkpt>
      <trkpt lat="48.38334" lon="-3.95268">
        <ele>274.20001220703</ele>
        <time>2021-09-12T11:23:56Z</time>
      </trkpt>
      <trkpt lat="48.38333" lon="-3.95265">
        <ele>274.20001220703</ele>
        <time>2021-09-12T11:23:57Z</time>
      </trkpt>
      <trkpt lat="48.38333" lon="-3.95262">
        <ele>274.39999389648</ele>
        <time>2021-09-12T11:23:58Z</time>
      </trkpt>
      <trkpt lat="48.38332" lon="-3.95259">
        <ele>274.60000610352</ele>
        <time>2021-09-12T11:23:59Z</time>
      </trkpt>
      <trkpt lat="48.38331" lon="-3.95256">
        <ele>274.60000610352</ele>
        <time>2021-09-12T11:24:00Z</time>
      </trkpt>
      <trkpt lat="48.3833" lon="-3.95254">
        <ele>274.60000610352</ele>
        <time>2021-09-12T11:24:01Z</time>
      </trkpt>
      <trkpt lat="48.38329" lon="-3.95251">
        <ele>274.79998779297</ele>
        <time>2021-09-12T11:24:02Z</time>
      </trkpt>
      <trkpt lat="48.38328" lon="-3.95249">
        <ele>275</ele>
        <time>2021-09-12T11:24:03Z</time>
      </trkpt>
      <trkpt lat="48.38327" lon="-3.95247">
        <ele>275.20001220703</ele>
        <time>2021-09-12T11:24:04Z</time>
      </trkpt>
      <trkpt lat="48.38327" lon="-3.95244">
        <ele>275.39999389648</ele>
        <time>2021-09-12T11:24:05Z</time>
      </trkpt>
      <trkpt lat="48.38326" lon="-3.95242">
        <ele>275.39999389648</ele>
        <time>2021-09-12T11:24:06Z</time>
      </trkpt>
      <trkpt lat="48.38325" lon="-3.9524">
        <ele>275.39999389648</ele>
        <time>2021-09-12T11:24:07Z</time>
      </trkpt>
      <trkpt lat="48.38323" lon="-3.95238">
        <ele>275.39999389648</ele>
        <time>2021-09-12T11:24:08Z</time>
      </trkpt>
      <trkpt lat="48.38322" lon="-3.95236">
        <ele>275.79998779297</ele>
        <time>2021-09-12T11:24:09Z</time>
      </trkpt>
      <trkpt lat="48.38321" lon="-3.95233">
        <ele>275.79998779297</ele>
        <time>2021-09-12T11:24:10Z</time>
      </trkpt>
      <trkpt lat="48.3832" lon="-3.9523">
        <ele>276.20001220703</ele>
        <time>2021-09-12T11:24:11Z</time>
      </trkpt>
      <trkpt lat="48.3832" lon="-3.95228">
        <ele>276.20001220703</ele>
        <time>2021-09-12T11:24:12Z</time>
      </trkpt>
      <trkpt lat="48.38319" lon="-3.95225">
        <ele>276.39999389648</ele>
        <time>2021-09-12T11:24:13Z</time>
      </trkpt>
      <trkpt lat="48.38318" lon="-3.95223">
        <ele>276.39999389648</ele>
        <time>2021-09-12T11:24:14Z</time>
      </trkpt>
      <trkpt lat="48.38317" lon="-3.95221">
        <ele>276.79998779297</ele>
        <time>2021-09-12T11:24:15Z</time>
      </trkpt>
      <trkpt lat="48.38317" lon="-3.95218">
        <ele>277</ele>
        <time>2021-09-12T11:24:16Z</time>
      </trkpt>
      <trkpt lat="48.38316" lon="-3.95215">
        <ele>277</ele>
        <time>2021-09-12T11:24:17Z</time>
      </trkpt>
      <trkpt lat="48.38315" lon="-3.95213">
        <ele>277.20001220703</ele>
        <time>2021-09-12T11:24:18Z</time>
      </trkpt>
      <trkpt lat="48.38314" lon="-3.95211">
        <ele>277.60000610352</ele>
        <time>2021-09-12T11:24:19Z</time>
      </trkpt>
      <trkpt lat="48.38313" lon="-3.95209">
        <ele>277.60000610352</ele>
        <time>2021-09-12T11:24:20Z</time>
      </trkpt>
      <trkpt lat="48.38312" lon="-3.95207">
        <ele>277.79998779297</ele>
        <time>2021-09-12T11:24:21Z</time>
      </trkpt>
      <trkpt lat="48.38311" lon="-3.95204">
        <ele>277.79998779297</ele>
        <time>2021-09-12T11:24:22Z</time>
      </trkpt>
      <trkpt lat="48.3831" lon="-3.95202">
        <ele>277.79998779297</ele>
        <time>2021-09-12T11:24:23Z</time>
      </trkpt>
      <trkpt lat="48.38308" lon="-3.952">
        <ele>277.79998779297</ele>
        <time>2021-09-12T11:24:24Z</time>
      </trkpt>
      <trkpt lat="48.38307" lon="-3.95198">
        <ele>277.79998779297</ele>
        <time>2021-09-12T11:24:25Z</time>
      </trkpt>
      <trkpt lat="48.38306" lon="-3.95196">
        <ele>278.20001220703</ele>
        <time>2021-09-12T11:24:26Z</time>
      </trkpt>
      <trkpt lat="48.38305" lon="-3.95194">
        <ele>278.39999389648</ele>
        <time>2021-09-12T11:24:27Z</time>
      </trkpt>
      <trkpt lat="48.38304" lon="-3.95191">
        <ele>278.60000610352</ele>
        <time>2021-09-12T11:24:28Z</time>
      </trkpt>
      <trkpt lat="48.38303" lon="-3.95189">
        <ele>278.60000610352</ele>
        <time>2021-09-12T11:24:29Z</time>
      </trkpt>
      <trkpt lat="48.38302" lon="-3.95187">
        <ele>279</ele>
        <time>2021-09-12T11:24:30Z</time>
      </trkpt>
      <trkpt lat="48.383" lon="-3.95185">
        <ele>279</ele>
        <time>2021-09-12T11:24:31Z</time>
      </trkpt>
      <trkpt lat="48.38299" lon="-3.95183">
        <ele>279.20001220703</ele>
        <time>2021-09-12T11:24:32Z</time>
      </trkpt>
      <trkpt lat="48.38298" lon="-3.9518">
        <ele>279.20001220703</ele>
        <time>2021-09-12T11:24:33Z</time>
      </trkpt>
      <trkpt lat="48.38297" lon="-3.95178">
        <ele>279.39999389648</ele>
        <time>2021-09-12T11:24:34Z</time>
      </trkpt>
      <trkpt lat="48.38295" lon="-3.95175">
        <ele>279.39999389648</ele>
        <time>2021-09-12T11:24:35Z</time>
      </trkpt>
      <trkpt lat="48.38295" lon="-3.95173">
        <ele>279.60000610352</ele>
        <time>2021-09-12T11:24:36Z</time>
      </trkpt>
      <trkpt lat="48.38294" lon="-3.9517">
        <ele>279.60000610352</ele>
        <time>2021-09-12T11:24:37Z</time>
      </trkpt>
      <trkpt lat="48.38293" lon="-3.95168">
        <ele>279.79998779297</ele>
        <time>2021-09-12T11:24:38Z</time>
      </trkpt>
      <trkpt lat="48.38292" lon="-3.95165">
        <ele>280.20001220703</ele>
        <time>2021-09-12T11:24:39Z</time>
      </trkpt>
      <trkpt lat="48.38291" lon="-3.95163">
        <ele>280.39999389648</ele>
        <time>2021-09-12T11:24:40Z</time>
      </trkpt>
      <trkpt lat="48.38291" lon="-3.9516">
        <ele>280.60000610352</ele>
        <time>2021-09-12T11:24:41Z</time>
      </trkpt>
      <trkpt lat="48.38289" lon="-3.95158">
        <ele>280.79998779297</ele>
        <time>2021-09-12T11:24:42Z</time>
      </trkpt>
      <trkpt lat="48.38288" lon="-3.95156">
        <ele>281.20001220703</ele>
        <time>2021-09-12T11:24:43Z</time>
      </trkpt>
      <trkpt lat="48.38287" lon="-3.95154">
        <ele>281.20001220703</ele>
        <time>2021-09-12T11:24:44Z</time>
      </trkpt>
      <trkpt lat="48.38286" lon="-3.95152">
        <ele>281.39999389648</ele>
        <time>2021-09-12T11:24:45Z</time>
      </trkpt>
      <trkpt lat="48.38284" lon="-3.9515">
        <ele>281.39999389648</ele>
        <time>2021-09-12T11:24:46Z</time>
      </trkpt>
      <trkpt lat="48.38283" lon="-3.95147">
        <ele>281.39999389648</ele>
        <time>2021-09-12T11:24:47Z</time>
      </trkpt>
      <trkpt lat="48.38282" lon="-3.95145">
        <ele>281.60000610352</ele>
        <time>2021-09-12T11:24:48Z</time>
      </trkpt>
      <trkpt lat="48.38281" lon="-3.95143">
        <ele>281.79998779297</ele>
        <time>2021-09-12T11:24:49Z</time>
      </trkpt>
      <trkpt lat="48.38279" lon="-3.95142">
        <ele>281.79998779297</ele>
        <time>2021-09-12T11:24:50Z</time>
      </trkpt>
      <trkpt lat="48.38278" lon="-3.9514">
        <ele>282</ele>
        <time>2021-09-12T11:24:51Z</time>
      </trkpt>
      <trkpt lat="48.38277" lon="-3.95138">
        <ele>282.20001220703</ele>
        <time>2021-09-12T11:24:52Z</time>
      </trkpt>
      <trkpt lat="48.38276" lon="-3.95135">
        <ele>282.39999389648</ele>
        <time>2021-09-12T11:24:53Z</time>
      </trkpt>
      <trkpt lat="48.38274" lon="-3.95133">
        <ele>282.39999389648</ele>
        <time>2021-09-12T11:24:54Z</time>
      </trkpt>
      <trkpt lat="48.38273" lon="-3.95131">
        <ele>282.60000610352</ele>
        <time>2021-09-12T11:24:55Z</time>
      </trkpt>
      <trkpt lat="48.38271" lon="-3.95129">
        <ele>282.79998779297</ele>
        <time>2021-09-12T11:24:56Z</time>
      </trkpt>
      <trkpt lat="48.3827" lon="-3.95127">
        <ele>283.20001220703</ele>
        <time>2021-09-12T11:24:57Z</time>
      </trkpt>
      <trkpt lat="48.38269" lon="-3.95125">
        <ele>283.20001220703</ele>
        <time>2021-09-12T11:24:58Z</time>
      </trkpt>
      <trkpt lat="48.38268" lon="-3.95122">
        <ele>283.39999389648</ele>
        <time>2021-09-12T11:24:59Z</time>
      </trkpt>
      <trkpt lat="48.38267" lon="-3.9512">
        <ele>283.39999389648</ele>
        <time>2021-09-12T11:25:00Z</time>
      </trkpt>
      <trkpt lat="48.38266" lon="-3.95118">
        <ele>283.60000610352</ele>
        <time>2021-09-12T11:25:01Z</time>
      </trkpt>
      <trkpt lat="48.38264" lon="-3.95115">
        <ele>284.20001220703</ele>
        <time>2021-09-12T11:25:02Z</time>
      </trkpt>
      <trkpt lat="48.38263" lon="-3.95113">
        <ele>284.20001220703</ele>
        <time>2021-09-12T11:25:03Z</time>
      </trkpt>
      <trkpt lat="48.38262" lon="-3.9511">
        <ele>284.20001220703</ele>
        <time>2021-09-12T11:25:04Z</time>
      </trkpt>
      <trkpt lat="48.38261" lon="-3.95107">
        <ele>284.60000610352</ele>
        <time>2021-09-12T11:25:05Z</time>
      </trkpt>
      <trkpt lat="48.3826" lon="-3.95105">
        <ele>284.79998779297</ele>
        <time>2021-09-12T11:25:06Z</time>
      </trkpt>
      <trkpt lat="48.38259" lon="-3.95102">
        <ele>284.79998779297</ele>
        <time>2021-09-12T11:25:07Z</time>
      </trkpt>
      <trkpt lat="48.38258" lon="-3.951">
        <ele>285</ele>
        <time>2021-09-12T11:25:08Z</time>
      </trkpt>
      <trkpt lat="48.38256" lon="-3.95097">
        <ele>285</ele>
        <time>2021-09-12T11:25:09Z</time>
      </trkpt>
      <trkpt lat="48.38255" lon="-3.95095">
        <ele>285.20001220703</ele>
        <time>2021-09-12T11:25:10Z</time>
      </trkpt>
      <trkpt lat="48.38254" lon="-3.95093">
        <ele>285.20001220703</ele>
        <time>2021-09-12T11:25:11Z</time>
      </trkpt>
      <trkpt lat="48.38252" lon="-3.95091">
        <ele>285.20001220703</ele>
        <time>2021-09-12T11:25:12Z</time>
      </trkpt>
      <trkpt lat="48.38251" lon="-3.95089">
        <ele>285.60000610352</ele>
        <time>2021-09-12T11:25:13Z</time>
      </trkpt>
      <trkpt lat="48.38249" lon="-3.95087">
        <ele>285.60000610352</ele>
        <time>2021-09-12T11:25:14Z</time>
      </trkpt>
      <trkpt lat="48.38248" lon="-3.95085">
        <ele>285.79998779297</ele>
        <time>2021-09-12T11:25:15Z</time>
      </trkpt>
      <trkpt lat="48.38247" lon="-3.95082">
        <ele>286</ele>
        <time>2021-09-12T11:25:16Z</time>
      </trkpt>
      <trkpt lat="48.38246" lon="-3.95079">
        <ele>286.20001220703</ele>
        <time>2021-09-12T11:25:17Z</time>
      </trkpt>
      <trkpt lat="48.38245" lon="-3.95076">
        <ele>286.39999389648</ele>
        <time>2021-09-12T11:25:18Z</time>
      </trkpt>
      <trkpt lat="48.38244" lon="-3.95075">
        <ele>286.60000610352</ele>
        <time>2021-09-12T11:25:19Z</time>
      </trkpt>
      <trkpt lat="48.38243" lon="-3.95073">
        <ele>286.60000610352</ele>
        <time>2021-09-12T11:25:20Z</time>
      </trkpt>
      <trkpt lat="48.38241" lon="-3.95071">
        <ele>286.79998779297</ele>
        <time>2021-09-12T11:25:21Z</time>
      </trkpt>
      <trkpt lat="48.3824" lon="-3.9507">
        <ele>287</ele>
        <time>2021-09-12T11:25:22Z</time>
      </trkpt>
      <trkpt lat="48.38239" lon="-3.95068">
        <ele>287.39999389648</ele>
        <time>2021-09-12T11:25:23Z</time>
      </trkpt>
      <trkpt lat="48.38237" lon="-3.95065">
        <ele>287.39999389648</ele>
        <time>2021-09-12T11:25:24Z</time>
      </trkpt>
      <trkpt lat="48.38236" lon="-3.95062">
        <ele>287.39999389648</ele>
        <time>2021-09-12T11:25:25Z</time>
      </trkpt>
      <trkpt lat="48.38236" lon="-3.9506">
        <ele>287.39999389648</ele>
        <time>2021-09-12T11:25:26Z</time>
      </trkpt>
      <trkpt lat="48.38234" lon="-3.95057">
        <ele>287.39999389648</ele>
        <time>2021-09-12T11:25:27Z</time>
      </trkpt>
      <trkpt lat="48.38233" lon="-3.95055">
        <ele>287.79998779297</ele>
        <time>2021-09-12T11:25:28Z</time>
      </trkpt>
      <trkpt lat="48.38232" lon="-3.95053">
        <ele>288</ele>
        <time>2021-09-12T11:25:29Z</time>
      </trkpt>
      <trkpt lat="48.3823" lon="-3.95051">
        <ele>288</ele>
        <time>2021-09-12T11:25:30Z</time>
      </trkpt>
      <trkpt lat="48.38229" lon="-3.95049">
        <ele>288</ele>
        <time>2021-09-12T11:25:31Z</time>
      </trkpt>
      <trkpt lat="48.38227" lon="-3.95046">
        <ele>288.20001220703</ele>
        <time>2021-09-12T11:25:32Z</time>
      </trkpt>
      <trkpt lat="48.38226" lon="-3.95044">
        <ele>288.20001220703</ele>
        <time>2021-09-12T11:25:33Z</time>
      </trkpt>
      <trkpt lat="48.38225" lon="-3.95041">
        <ele>288.39999389648</ele>
        <time>2021-09-12T11:25:34Z</time>
      </trkpt>
      <trkpt lat="48.38224" lon="-3.95039">
        <ele>288.79998779297</ele>
        <time>2021-09-12T11:25:35Z</time>
      </trkpt>
      <trkpt lat="48.38223" lon="-3.95036">
        <ele>289</ele>
        <time>2021-09-12T11:25:36Z</time>
      </trkpt>
      <trkpt lat="48.38223" lon="-3.95033">
        <ele>289</ele>
        <time>2021-09-12T11:25:37Z</time>
      </trkpt>
      <trkpt lat="48.38221" lon="-3.95031">
        <ele>289.20001220703</ele>
        <time>2021-09-12T11:25:38Z</time>
      </trkpt>
      <trkpt lat="48.3822" lon="-3.95028">
        <ele>289.39999389648</ele>
        <time>2021-09-12T11:25:39Z</time>
      </trkpt>
      <trkpt lat="48.38219" lon="-3.95026">
        <ele>289.39999389648</ele>
        <time>2021-09-12T11:25:40Z</time>
      </trkpt>
      <trkpt lat="48.38217" lon="-3.95024">
        <ele>289.79998779297</ele>
        <time>2021-09-12T11:25:41Z</time>
      </trkpt>
      <trkpt lat="48.38216" lon="-3.95023">
        <ele>290</ele>
        <time>2021-09-12T11:25:42Z</time>
      </trkpt>
      <trkpt lat="48.38214" lon="-3.9502">
        <ele>290.20001220703</ele>
        <time>2021-09-12T11:25:43Z</time>
      </trkpt>
      <trkpt lat="48.38213" lon="-3.95018">
        <ele>290.20001220703</ele>
        <time>2021-09-12T11:25:44Z</time>
      </trkpt>
      <trkpt lat="48.38212" lon="-3.95015">
        <ele>290.20001220703</ele>
        <time>2021-09-12T11:25:45Z</time>
      </trkpt>
      <trkpt lat="48.3821" lon="-3.95013">
        <ele>290.39999389648</ele>
        <time>2021-09-12T11:25:46Z</time>
      </trkpt>
      <trkpt lat="48.38209" lon="-3.95011">
        <ele>290.39999389648</ele>
        <time>2021-09-12T11:25:47Z</time>
      </trkpt>
      <trkpt lat="48.38208" lon="-3.95009">
        <ele>290.60000610352</ele>
        <time>2021-09-12T11:25:48Z</time>
      </trkpt>
      <trkpt lat="48.38206" lon="-3.95007">
        <ele>291</ele>
        <time>2021-09-12T11:25:49Z</time>
      </trkpt>
      <trkpt lat="48.38205" lon="-3.95005">
        <ele>291.20001220703</ele>
        <time>2021-09-12T11:25:50Z</time>
      </trkpt>
      <trkpt lat="48.38203" lon="-3.95003">
        <ele>291.39999389648</ele>
        <time>2021-09-12T11:25:51Z</time>
      </trkpt>
      <trkpt lat="48.38202" lon="-3.95001">
        <ele>291.39999389648</ele>
        <time>2021-09-12T11:25:52Z</time>
      </trkpt>
      <trkpt lat="48.382" lon="-3.94999">
        <ele>291.39999389648</ele>
        <time>2021-09-12T11:25:53Z</time>
      </trkpt>
      <trkpt lat="48.38199" lon="-3.94997">
        <ele>291.60000610352</ele>
        <time>2021-09-12T11:25:54Z</time>
      </trkpt>
      <trkpt lat="48.38198" lon="-3.94995">
        <ele>291.60000610352</ele>
        <time>2021-09-12T11:25:55Z</time>
      </trkpt>
      <trkpt lat="48.38197" lon="-3.94993">
        <ele>291.79998779297</ele>
        <time>2021-09-12T11:25:56Z</time>
      </trkpt>
      <trkpt lat="48.38195" lon="-3.9499">
        <ele>291.79998779297</ele>
        <time>2021-09-12T11:25:57Z</time>
      </trkpt>
      <trkpt lat="48.38194" lon="-3.94988">
        <ele>292.20001220703</ele>
        <time>2021-09-12T11:25:58Z</time>
      </trkpt>
      <trkpt lat="48.38192" lon="-3.94987">
        <ele>292.20001220703</ele>
        <time>2021-09-12T11:25:59Z</time>
      </trkpt>
      <trkpt lat="48.38191" lon="-3.94984">
        <ele>292.39999389648</ele>
        <time>2021-09-12T11:26:00Z</time>
      </trkpt>
      <trkpt lat="48.3819" lon="-3.94982">
        <ele>292.39999389648</ele>
        <time>2021-09-12T11:26:01Z</time>
      </trkpt>
      <trkpt lat="48.38188" lon="-3.9498">
        <ele>292.60000610352</ele>
        <time>2021-09-12T11:26:02Z</time>
      </trkpt>
      <trkpt lat="48.38187" lon="-3.94979">
        <ele>292.60000610352</ele>
        <time>2021-09-12T11:26:03Z</time>
      </trkpt>
      <trkpt lat="48.38186" lon="-3.94977">
        <ele>292.79998779297</ele>
        <time>2021-09-12T11:26:04Z</time>
      </trkpt>
      <trkpt lat="48.38185" lon="-3.94975">
        <ele>292.79998779297</ele>
        <time>2021-09-12T11:26:05Z</time>
      </trkpt>
      <trkpt lat="48.38184" lon="-3.94973">
        <ele>293</ele>
        <time>2021-09-12T11:26:06Z</time>
      </trkpt>
      <trkpt lat="48.38183" lon="-3.94971">
        <ele>293.20001220703</ele>
        <time>2021-09-12T11:26:07Z</time>
      </trkpt>
      <trkpt lat="48.38181" lon="-3.9497">
        <ele>293.39999389648</ele>
        <time>2021-09-12T11:26:08Z</time>
      </trkpt>
      <trkpt lat="48.3818" lon="-3.94968">
        <ele>293.39999389648</ele>
        <time>2021-09-12T11:26:09Z</time>
      </trkpt>
      <trkpt lat="48.38178" lon="-3.94966">
        <ele>293.39999389648</ele>
        <time>2021-09-12T11:26:10Z</time>
      </trkpt>
      <trkpt lat="48.38177" lon="-3.94964">
        <ele>293.39999389648</ele>
        <time>2021-09-12T11:26:11Z</time>
      </trkpt>
      <trkpt lat="48.38176" lon="-3.94962">
        <ele>293.60000610352</ele>
        <time>2021-09-12T11:26:12Z</time>
      </trkpt>
      <trkpt lat="48.38175" lon="-3.94961">
        <ele>293.79998779297</ele>
        <time>2021-09-12T11:26:13Z</time>
      </trkpt>
      <trkpt lat="48.38174" lon="-3.9496">
        <ele>294</ele>
        <time>2021-09-12T11:26:14Z</time>
      </trkpt>
      <trkpt lat="48.38172" lon="-3.9496">
        <ele>294.20001220703</ele>
        <time>2021-09-12T11:26:15Z</time>
      </trkpt>
      <trkpt lat="48.38171" lon="-3.94958">
        <ele>294.20001220703</ele>
        <time>2021-09-12T11:26:16Z</time>
      </trkpt>
      <trkpt lat="48.38171" lon="-3.94956">
        <ele>294.39999389648</ele>
        <time>2021-09-12T11:26:17Z</time>
      </trkpt>
      <trkpt lat="48.38171" lon="-3.94954">
        <ele>294.60000610352</ele>
        <time>2021-09-12T11:26:18Z</time>
      </trkpt>
      <trkpt lat="48.38171" lon="-3.94954">
        <ele>294.60000610352</ele>
        <time>2021-09-12T11:26:19Z</time>
      </trkpt>
      <trkpt lat="48.3817" lon="-3.94953">
        <ele>294.79998779297</ele>
        <time>2021-09-12T11:26:20Z</time>
      </trkpt>
      <trkpt lat="48.3817" lon="-3.94953">
        <ele>295.20001220703</ele>
        <time>2021-09-12T11:26:21Z</time>
      </trkpt>
      <trkpt lat="48.3817" lon="-3.94953">
        <ele>295.20001220703</ele>
        <time>2021-09-12T11:26:22Z</time>
      </trkpt>
      <trkpt lat="48.3817" lon="-3.94951">
        <ele>295.39999389648</ele>
        <time>2021-09-12T11:26:23Z</time>
      </trkpt>
      <trkpt lat="48.38169" lon="-3.9495">
        <ele>295.39999389648</ele>
        <time>2021-09-12T11:26:24Z</time>
      </trkpt>
      <trkpt lat="48.38167" lon="-3.94949">
        <ele>295.60000610352</ele>
        <time>2021-09-12T11:26:25Z</time>
      </trkpt>
      <trkpt lat="48.38166" lon="-3.94947">
        <ele>296</ele>
        <time>2021-09-12T11:26:26Z</time>
      </trkpt>
      <trkpt lat="48.38165" lon="-3.94946">
        <ele>296</ele>
        <time>2021-09-12T11:26:27Z</time>
      </trkpt>
      <trkpt lat="48.38164" lon="-3.94944">
        <ele>296</ele>
        <time>2021-09-12T11:26:28Z</time>
      </trkpt>
      <trkpt lat="48.38163" lon="-3.94943">
        <ele>296</ele>
        <time>2021-09-12T11:26:29Z</time>
      </trkpt>
      <trkpt lat="48.38162" lon="-3.94943">
        <ele>296.79998779297</ele>
        <time>2021-09-12T11:26:30Z</time>
      </trkpt>
      <trkpt lat="48.38162" lon="-3.94943">
        <ele>297.20001220703</ele>
        <time>2021-09-12T11:26:31Z</time>
      </trkpt>
      <trkpt lat="48.38154" lon="-3.94955">
        <ele>298</ele>
        <time>2021-09-12T11:36:36Z</time>
      </trkpt>
      <trkpt lat="48.38153" lon="-3.94958">
        <ele>298</ele>
        <time>2021-09-12T11:36:37Z</time>
      </trkpt>
      <trkpt lat="48.38152" lon="-3.94961">
        <ele>297.79998779297</ele>
        <time>2021-09-12T11:36:38Z</time>
      </trkpt>
      <trkpt lat="48.38151" lon="-3.94964">
        <ele>297.79998779297</ele>
        <time>2021-09-12T11:36:39Z</time>
      </trkpt>
      <trkpt lat="48.3815" lon="-3.94967">
        <ele>297.79998779297</ele>
        <time>2021-09-12T11:36:40Z</time>
      </trkpt>
      <trkpt lat="48.38148" lon="-3.94971">
        <ele>297.79998779297</ele>
        <time>2021-09-12T11:36:41Z</time>
      </trkpt>
      <trkpt lat="48.38146" lon="-3.94975">
        <ele>297.39999389648</ele>
        <time>2021-09-12T11:36:42Z</time>
      </trkpt>
      <trkpt lat="48.38145" lon="-3.9498">
        <ele>297.39999389648</ele>
        <time>2021-09-12T11:36:43Z</time>
      </trkpt>
      <trkpt lat="48.38143" lon="-3.94984">
        <ele>297.39999389648</ele>
        <time>2021-09-12T11:36:44Z</time>
      </trkpt>
      <trkpt lat="48.38141" lon="-3.94988">
        <ele>297.39999389648</ele>
        <time>2021-09-12T11:36:45Z</time>
      </trkpt>
      <trkpt lat="48.3814" lon="-3.94992">
        <ele>297.20001220703</ele>
        <time>2021-09-12T11:36:46Z</time>
      </trkpt>
      <trkpt lat="48.38138" lon="-3.94997">
        <ele>297</ele>
        <time>2021-09-12T11:36:47Z</time>
      </trkpt>
      <trkpt lat="48.38136" lon="-3.95001">
        <ele>296.79998779297</ele>
        <time>2021-09-12T11:36:48Z</time>
      </trkpt>
      <trkpt lat="48.38134" lon="-3.95006">
        <ele>296.79998779297</ele>
        <time>2021-09-12T11:36:49Z</time>
      </trkpt>
      <trkpt lat="48.38133" lon="-3.9501">
        <ele>296.60000610352</ele>
        <time>2021-09-12T11:36:50Z</time>
      </trkpt>
      <trkpt lat="48.38131" lon="-3.95014">
        <ele>296.60000610352</ele>
        <time>2021-09-12T11:36:51Z</time>
      </trkpt>
      <trkpt lat="48.3813" lon="-3.95018">
        <ele>296.39999389648</ele>
        <time>2021-09-12T11:36:52Z</time>
      </trkpt>
      <trkpt lat="48.38128" lon="-3.95022">
        <ele>296.39999389648</ele>
        <time>2021-09-12T11:36:53Z</time>
      </trkpt>
      <trkpt lat="48.38127" lon="-3.95026">
        <ele>296.39999389648</ele>
        <time>2021-09-12T11:36:54Z</time>
      </trkpt>
      <trkpt lat="48.38125" lon="-3.95031">
        <ele>296.39999389648</ele>
        <time>2021-09-12T11:36:55Z</time>
      </trkpt>
      <trkpt lat="48.38123" lon="-3.95036">
        <ele>296.39999389648</ele>
        <time>2021-09-12T11:36:56Z</time>
      </trkpt>
      <trkpt lat="48.38121" lon="-3.95041">
        <ele>296.39999389648</ele>
        <time>2021-09-12T11:36:57Z</time>
      </trkpt>
      <trkpt lat="48.38119" lon="-3.95046">
        <ele>296.39999389648</ele>
        <time>2021-09-12T11:36:58Z</time>
      </trkpt>
      <trkpt lat="48.38117" lon="-3.95051">
        <ele>296.39999389648</ele>
        <time>2021-09-12T11:36:59Z</time>
      </trkpt>
      <trkpt lat="48.38115" lon="-3.95056">
        <ele>296.39999389648</ele>
        <time>2021-09-12T11:37:00Z</time>
      </trkpt>
      <trkpt lat="48.38113" lon="-3.95061">
        <ele>296.39999389648</ele>
        <time>2021-09-12T11:37:01Z</time>
      </trkpt>
      <trkpt lat="48.38111" lon="-3.95066">
        <ele>296.39999389648</ele>
        <time>2021-09-12T11:37:02Z</time>
      </trkpt>
      <trkpt lat="48.38109" lon="-3.95071">
        <ele>296.20001220703</ele>
        <time>2021-09-12T11:37:03Z</time>
      </trkpt>
      <trkpt lat="48.38107" lon="-3.95076">
        <ele>296.20001220703</ele>
        <time>2021-09-12T11:37:04Z</time>
      </trkpt>
      <trkpt lat="48.38106" lon="-3.9508">
        <ele>296.20001220703</ele>
        <time>2021-09-12T11:37:05Z</time>
      </trkpt>
      <trkpt lat="48.38104" lon="-3.95085">
        <ele>296.20001220703</ele>
        <time>2021-09-12T11:37:06Z</time>
      </trkpt>
      <trkpt lat="48.38102" lon="-3.9509">
        <ele>296.20001220703</ele>
        <time>2021-09-12T11:37:07Z</time>
      </trkpt>
      <trkpt lat="48.38101" lon="-3.95096">
        <ele>296.20001220703</ele>
        <time>2021-09-12T11:37:08Z</time>
      </trkpt>
      <trkpt lat="48.38099" lon="-3.95101">
        <ele>296.20001220703</ele>
        <time>2021-09-12T11:37:09Z</time>
      </trkpt>
      <trkpt lat="48.38097" lon="-3.95107">
        <ele>296.60000610352</ele>
        <time>2021-09-12T11:37:10Z</time>
      </trkpt>
      <trkpt lat="48.38096" lon="-3.95112">
        <ele>296.60000610352</ele>
        <time>2021-09-12T11:37:11Z</time>
      </trkpt>
      <trkpt lat="48.38094" lon="-3.95117">
        <ele>296.60000610352</ele>
        <time>2021-09-12T11:37:12Z</time>
      </trkpt>
      <trkpt lat="48.38093" lon="-3.95123">
        <ele>296.79998779297</ele>
        <time>2021-09-12T11:37:13Z</time>
      </trkpt>
      <trkpt lat="48.38092" lon="-3.95128">
        <ele>297</ele>
        <time>2021-09-12T11:37:14Z</time>
      </trkpt>
      <trkpt lat="48.3809" lon="-3.95133">
        <ele>297.20001220703</ele>
        <time>2021-09-12T11:37:15Z</time>
      </trkpt>
      <trkpt lat="48.38088" lon="-3.95138">
        <ele>297.20001220703</ele>
        <time>2021-09-12T11:37:16Z</time>
      </trkpt>
      <trkpt lat="48.38086" lon="-3.95143">
        <ele>297.60000610352</ele>
        <time>2021-09-12T11:37:17Z</time>
      </trkpt>
      <trkpt lat="48.38083" lon="-3.95148">
        <ele>297.60000610352</ele>
        <time>2021-09-12T11:37:18Z</time>
      </trkpt>
      <trkpt lat="48.38081" lon="-3.95153">
        <ele>297.60000610352</ele>
        <time>2021-09-12T11:37:19Z</time>
      </trkpt>
      <trkpt lat="48.38079" lon="-3.95158">
        <ele>297.60000610352</ele>
        <time>2021-09-12T11:37:20Z</time>
      </trkpt>
      <trkpt lat="48.38077" lon="-3.95163">
        <ele>297.60000610352</ele>
        <time>2021-09-12T11:37:21Z</time>
      </trkpt>
      <trkpt lat="48.38075" lon="-3.95167">
        <ele>297.79998779297</ele>
        <time>2021-09-12T11:37:22Z</time>
      </trkpt>
      <trkpt lat="48.38073" lon="-3.95172">
        <ele>298.20001220703</ele>
        <time>2021-09-12T11:37:23Z</time>
      </trkpt>
      <trkpt lat="48.38071" lon="-3.95177">
        <ele>298.39999389648</ele>
        <time>2021-09-12T11:37:24Z</time>
      </trkpt>
      <trkpt lat="48.38068" lon="-3.95181">
        <ele>298.39999389648</ele>
        <time>2021-09-12T11:37:25Z</time>
      </trkpt>
      <trkpt lat="48.38065" lon="-3.95185">
        <ele>298.39999389648</ele>
        <time>2021-09-12T11:37:26Z</time>
      </trkpt>
      <trkpt lat="48.38063" lon="-3.95189">
        <ele>298.60000610352</ele>
        <time>2021-09-12T11:37:27Z</time>
      </trkpt>
      <trkpt lat="48.3806" lon="-3.95194">
        <ele>298.79998779297</ele>
        <time>2021-09-12T11:37:28Z</time>
      </trkpt>
      <trkpt lat="48.38058" lon="-3.95198">
        <ele>299</ele>
        <time>2021-09-12T11:37:29Z</time>
      </trkpt>
      <trkpt lat="48.38056" lon="-3.95202">
        <ele>299.20001220703</ele>
        <time>2021-09-12T11:37:30Z</time>
      </trkpt>
      <trkpt lat="48.38054" lon="-3.95206">
        <ele>299.20001220703</ele>
        <time>2021-09-12T11:37:31Z</time>
      </trkpt>
      <trkpt lat="48.38053" lon="-3.95211">
        <ele>299.60000610352</ele>
        <time>2021-09-12T11:37:32Z</time>
      </trkpt>
      <trkpt lat="48.38054" lon="-3.95215">
        <ele>299.60000610352</ele>
        <time>2021-09-12T11:37:33Z</time>
      </trkpt>
      <trkpt lat="48.38054" lon="-3.95219">
        <ele>299.60000610352</ele>
        <time>2021-09-12T11:37:34Z</time>
      </trkpt>
      <trkpt lat="48.38054" lon="-3.95223">
        <ele>299.60000610352</ele>
        <time>2021-09-12T11:37:35Z</time>
      </trkpt>
      <trkpt lat="48.38052" lon="-3.95227">
        <ele>299.39999389648</ele>
        <time>2021-09-12T11:37:36Z</time>
      </trkpt>
      <trkpt lat="48.3805" lon="-3.95231">
        <ele>299</ele>
        <time>2021-09-12T11:37:37Z</time>
      </trkpt>
      <trkpt lat="48.38048" lon="-3.95235">
        <ele>299</ele>
        <time>2021-09-12T11:37:38Z</time>
      </trkpt>
      <trkpt lat="48.38044" lon="-3.95238">
        <ele>299</ele>
        <time>2021-09-12T11:37:39Z</time>
      </trkpt>
      <trkpt lat="48.38041" lon="-3.95242">
        <ele>299</ele>
        <time>2021-09-12T11:37:40Z</time>
      </trkpt>
      <trkpt lat="48.38038" lon="-3.95248">
        <ele>299</ele>
        <time>2021-09-12T11:37:41Z</time>
      </trkpt>
      <trkpt lat="48.38036" lon="-3.95253">
        <ele>299</ele>
        <time>2021-09-12T11:37:42Z</time>
      </trkpt>
      <trkpt lat="48.38034" lon="-3.95259">
        <ele>299</ele>
        <time>2021-09-12T11:37:43Z</time>
      </trkpt>
      <trkpt lat="48.38033" lon="-3.95262">
        <ele>299</ele>
        <time>2021-09-12T11:37:44Z</time>
      </trkpt>
      <trkpt lat="48.38032" lon="-3.95267">
        <ele>299</ele>
        <time>2021-09-12T11:37:45Z</time>
      </trkpt>
      <trkpt lat="48.38029" lon="-3.95273">
        <ele>299.20001220703</ele>
        <time>2021-09-12T11:37:46Z</time>
      </trkpt>
      <trkpt lat="48.38027" lon="-3.95277">
        <ele>299.20001220703</ele>
        <time>2021-09-12T11:37:47Z</time>
      </trkpt>
      <trkpt lat="48.38024" lon="-3.9528">
        <ele>299.20001220703</ele>
        <time>2021-09-12T11:37:48Z</time>
      </trkpt>
      <trkpt lat="48.38021" lon="-3.95283">
        <ele>299.20001220703</ele>
        <time>2021-09-12T11:37:49Z</time>
      </trkpt>
      <trkpt lat="48.38019" lon="-3.95286">
        <ele>299.39999389648</ele>
        <time>2021-09-12T11:37:50Z</time>
      </trkpt>
      <trkpt lat="48.38016" lon="-3.95289">
        <ele>299.39999389648</ele>
        <time>2021-09-12T11:37:51Z</time>
      </trkpt>
      <trkpt lat="48.38013" lon="-3.95292">
        <ele>299.60000610352</ele>
        <time>2021-09-12T11:37:52Z</time>
      </trkpt>
      <trkpt lat="48.3801" lon="-3.95295">
        <ele>299.79998779297</ele>
        <time>2021-09-12T11:37:53Z</time>
      </trkpt>
      <trkpt lat="48.38007" lon="-3.95298">
        <ele>299.79998779297</ele>
        <time>2021-09-12T11:37:54Z</time>
      </trkpt>
      <trkpt lat="48.38004" lon="-3.95302">
        <ele>299.79998779297</ele>
        <time>2021-09-12T11:37:55Z</time>
      </trkpt>
      <trkpt lat="48.38002" lon="-3.95305">
        <ele>300</ele>
        <time>2021-09-12T11:37:56Z</time>
      </trkpt>
      <trkpt lat="48.37999" lon="-3.95308">
        <ele>300</ele>
        <time>2021-09-12T11:37:57Z</time>
      </trkpt>
      <trkpt lat="48.37996" lon="-3.95311">
        <ele>300</ele>
        <time>2021-09-12T11:37:58Z</time>
      </trkpt>
      <trkpt lat="48.37993" lon="-3.95314">
        <ele>300.20001220703</ele>
        <time>2021-09-12T11:37:59Z</time>
      </trkpt>
      <trkpt lat="48.3799" lon="-3.95318">
        <ele>300.20001220703</ele>
        <time>2021-09-12T11:38:00Z</time>
      </trkpt>
      <trkpt lat="48.37987" lon="-3.95321">
        <ele>300.20001220703</ele>
        <time>2021-09-12T11:38:01Z</time>
      </trkpt>
      <trkpt lat="48.37984" lon="-3.95325">
        <ele>300.39999389648</ele>
        <time>2021-09-12T11:38:02Z</time>
      </trkpt>
      <trkpt lat="48.37982" lon="-3.95328">
        <ele>300.39999389648</ele>
        <time>2021-09-12T11:38:03Z</time>
      </trkpt>
      <trkpt lat="48.37979" lon="-3.95331">
        <ele>300.60000610352</ele>
        <time>2021-09-12T11:38:04Z</time>
      </trkpt>
      <trkpt lat="48.37976" lon="-3.95335">
        <ele>300.60000610352</ele>
        <time>2021-09-12T11:38:05Z</time>
      </trkpt>
      <trkpt lat="48.37973" lon="-3.95338">
        <ele>300.79998779297</ele>
        <time>2021-09-12T11:38:06Z</time>
      </trkpt>
      <trkpt lat="48.3797" lon="-3.95342">
        <ele>301</ele>
        <time>2021-09-12T11:38:07Z</time>
      </trkpt>
      <trkpt lat="48.37967" lon="-3.95345">
        <ele>301.20001220703</ele>
        <time>2021-09-12T11:38:08Z</time>
      </trkpt>
      <trkpt lat="48.37964" lon="-3.95349">
        <ele>301.20001220703</ele>
        <time>2021-09-12T11:38:09Z</time>
      </trkpt>
      <trkpt lat="48.37961" lon="-3.95352">
        <ele>301.20001220703</ele>
        <time>2021-09-12T11:38:10Z</time>
      </trkpt>
      <trkpt lat="48.37958" lon="-3.95355">
        <ele>301.20001220703</ele>
        <time>2021-09-12T11:38:11Z</time>
      </trkpt>
      <trkpt lat="48.37955" lon="-3.95359">
        <ele>301.20001220703</ele>
        <time>2021-09-12T11:38:12Z</time>
      </trkpt>
      <trkpt lat="48.37952" lon="-3.95362">
        <ele>301.39999389648</ele>
        <time>2021-09-12T11:38:13Z</time>
      </trkpt>
      <trkpt lat="48.37949" lon="-3.95366">
        <ele>301.39999389648</ele>
        <time>2021-09-12T11:38:14Z</time>
      </trkpt>
      <trkpt lat="48.37945" lon="-3.9537">
        <ele>301.39999389648</ele>
        <time>2021-09-12T11:38:15Z</time>
      </trkpt>
      <trkpt lat="48.37941" lon="-3.95373">
        <ele>301.39999389648</ele>
        <time>2021-09-12T11:38:16Z</time>
      </trkpt>
      <trkpt lat="48.37938" lon="-3.95376">
        <ele>301.79998779297</ele>
        <time>2021-09-12T11:38:17Z</time>
      </trkpt>
      <trkpt lat="48.37935" lon="-3.9538">
        <ele>301.79998779297</ele>
        <time>2021-09-12T11:38:18Z</time>
      </trkpt>
      <trkpt lat="48.37933" lon="-3.95384">
        <ele>301.79998779297</ele>
        <time>2021-09-12T11:38:19Z</time>
      </trkpt>
      <trkpt lat="48.3793" lon="-3.95388">
        <ele>301.79998779297</ele>
        <time>2021-09-12T11:38:20Z</time>
      </trkpt>
      <trkpt lat="48.37927" lon="-3.95392">
        <ele>301.60000610352</ele>
        <time>2021-09-12T11:38:21Z</time>
      </trkpt>
      <trkpt lat="48.37924" lon="-3.95395">
        <ele>301.60000610352</ele>
        <time>2021-09-12T11:38:22Z</time>
      </trkpt>
      <trkpt lat="48.37921" lon="-3.95398">
        <ele>301.39999389648</ele>
        <time>2021-09-12T11:38:23Z</time>
      </trkpt>
      <trkpt lat="48.37918" lon="-3.95402">
        <ele>301.39999389648</ele>
        <time>2021-09-12T11:38:24Z</time>
      </trkpt>
      <trkpt lat="48.37915" lon="-3.95405">
        <ele>301.39999389648</ele>
        <time>2021-09-12T11:38:25Z</time>
      </trkpt>
      <trkpt lat="48.37912" lon="-3.95409">
        <ele>301.39999389648</ele>
        <time>2021-09-12T11:38:26Z</time>
      </trkpt>
      <trkpt lat="48.37908" lon="-3.95412">
        <ele>301.20001220703</ele>
        <time>2021-09-12T11:38:27Z</time>
      </trkpt>
      <trkpt lat="48.37904" lon="-3.95416">
        <ele>301.20001220703</ele>
        <time>2021-09-12T11:38:28Z</time>
      </trkpt>
      <trkpt lat="48.37901" lon="-3.9542">
        <ele>301.20001220703</ele>
        <time>2021-09-12T11:38:29Z</time>
      </trkpt>
      <trkpt lat="48.37898" lon="-3.95425">
        <ele>301</ele>
        <time>2021-09-12T11:38:30Z</time>
      </trkpt>
      <trkpt lat="48.37895" lon="-3.9543">
        <ele>301</ele>
        <time>2021-09-12T11:38:31Z</time>
      </trkpt>
      <trkpt lat="48.37893" lon="-3.95436">
        <ele>300.79998779297</ele>
        <time>2021-09-12T11:38:32Z</time>
      </trkpt>
      <trkpt lat="48.37891" lon="-3.95442">
        <ele>300.79998779297</ele>
        <time>2021-09-12T11:38:33Z</time>
      </trkpt>
      <trkpt lat="48.37889" lon="-3.95447">
        <ele>300.60000610352</ele>
        <time>2021-09-12T11:38:34Z</time>
      </trkpt>
      <trkpt lat="48.37886" lon="-3.95453">
        <ele>300.60000610352</ele>
        <time>2021-09-12T11:38:35Z</time>
      </trkpt>
      <trkpt lat="48.37884" lon="-3.95457">
        <ele>300.60000610352</ele>
        <time>2021-09-12T11:38:36Z</time>
      </trkpt>
      <trkpt lat="48.37881" lon="-3.95462">
        <ele>300.60000610352</ele>
        <time>2021-09-12T11:38:37Z</time>
      </trkpt>
      <trkpt lat="48.37878" lon="-3.95467">
        <ele>300.60000610352</ele>
        <time>2021-09-12T11:38:38Z</time>
      </trkpt>
      <trkpt lat="48.37875" lon="-3.95472">
        <ele>300.39999389648</ele>
        <time>2021-09-12T11:38:39Z</time>
      </trkpt>
      <trkpt lat="48.37872" lon="-3.95477">
        <ele>300</ele>
        <time>2021-09-12T11:38:40Z</time>
      </trkpt>
      <trkpt lat="48.3787" lon="-3.95483">
        <ele>299.79998779297</ele>
        <time>2021-09-12T11:38:41Z</time>
      </trkpt>
      <trkpt lat="48.37867" lon="-3.95489">
        <ele>299.60000610352</ele>
        <time>2021-09-12T11:38:42Z</time>
      </trkpt>
      <trkpt lat="48.37864" lon="-3.95495">
        <ele>299.60000610352</ele>
        <time>2021-09-12T11:38:43Z</time>
      </trkpt>
      <trkpt lat="48.37861" lon="-3.95501">
        <ele>299.39999389648</ele>
        <time>2021-09-12T11:38:44Z</time>
      </trkpt>
      <trkpt lat="48.37858" lon="-3.95506">
        <ele>299.39999389648</ele>
        <time>2021-09-12T11:38:45Z</time>
      </trkpt>
      <trkpt lat="48.37855" lon="-3.95512">
        <ele>299.20001220703</ele>
        <time>2021-09-12T11:38:46Z</time>
      </trkpt>
      <trkpt lat="48.37853" lon="-3.95518">
        <ele>299</ele>
        <time>2021-09-12T11:38:47Z</time>
      </trkpt>
      <trkpt lat="48.3785" lon="-3.95523">
        <ele>299</ele>
        <time>2021-09-12T11:38:48Z</time>
      </trkpt>
      <trkpt lat="48.37847" lon="-3.95529">
        <ele>298.60000610352</ele>
        <time>2021-09-12T11:38:49Z</time>
      </trkpt>
      <trkpt lat="48.37844" lon="-3.95534">
        <ele>298.60000610352</ele>
        <time>2021-09-12T11:38:50Z</time>
      </trkpt>
      <trkpt lat="48.37842" lon="-3.95539">
        <ele>298.39999389648</ele>
        <time>2021-09-12T11:38:51Z</time>
      </trkpt>
      <trkpt lat="48.37839" lon="-3.95544">
        <ele>298.39999389648</ele>
        <time>2021-09-12T11:38:52Z</time>
      </trkpt>
      <trkpt lat="48.37836" lon="-3.95549">
        <ele>298</ele>
        <time>2021-09-12T11:38:53Z</time>
      </trkpt>
      <trkpt lat="48.37834" lon="-3.95554">
        <ele>297.60000610352</ele>
        <time>2021-09-12T11:38:54Z</time>
      </trkpt>
      <trkpt lat="48.37831" lon="-3.95559">
        <ele>297.39999389648</ele>
        <time>2021-09-12T11:38:55Z</time>
      </trkpt>
      <trkpt lat="48.37828" lon="-3.95565">
        <ele>297.20001220703</ele>
        <time>2021-09-12T11:38:56Z</time>
      </trkpt>
      <trkpt lat="48.37826" lon="-3.9557">
        <ele>297.20001220703</ele>
        <time>2021-09-12T11:38:57Z</time>
      </trkpt>
      <trkpt lat="48.37823" lon="-3.95576">
        <ele>297.20001220703</ele>
        <time>2021-09-12T11:38:58Z</time>
      </trkpt>
      <trkpt lat="48.3782" lon="-3.95581">
        <ele>297</ele>
        <time>2021-09-12T11:38:59Z</time>
      </trkpt>
      <trkpt lat="48.37818" lon="-3.95586">
        <ele>297</ele>
        <time>2021-09-12T11:39:00Z</time>
      </trkpt>
      <trkpt lat="48.37815" lon="-3.95592">
        <ele>296.79998779297</ele>
        <time>2021-09-12T11:39:01Z</time>
      </trkpt>
      <trkpt lat="48.37813" lon="-3.95597">
        <ele>296.79998779297</ele>
        <time>2021-09-12T11:39:02Z</time>
      </trkpt>
      <trkpt lat="48.3781" lon="-3.95602">
        <ele>296.60000610352</ele>
        <time>2021-09-12T11:39:03Z</time>
      </trkpt>
      <trkpt lat="48.37808" lon="-3.95607">
        <ele>296.60000610352</ele>
        <time>2021-09-12T11:39:04Z</time>
      </trkpt>
      <trkpt lat="48.37805" lon="-3.95613">
        <ele>296.60000610352</ele>
        <time>2021-09-12T11:39:05Z</time>
      </trkpt>
      <trkpt lat="48.37803" lon="-3.95618">
        <ele>296.39999389648</ele>
        <time>2021-09-12T11:39:06Z</time>
      </trkpt>
      <trkpt lat="48.37801" lon="-3.95623">
        <ele>296.39999389648</ele>
        <time>2021-09-12T11:39:07Z</time>
      </trkpt>
      <trkpt lat="48.37798" lon="-3.95628">
        <ele>296.39999389648</ele>
        <time>2021-09-12T11:39:08Z</time>
      </trkpt>
      <trkpt lat="48.37796" lon="-3.95632">
        <ele>295.79998779297</ele>
        <time>2021-09-12T11:39:09Z</time>
      </trkpt>
      <trkpt lat="48.37794" lon="-3.95637">
        <ele>295.79998779297</ele>
        <time>2021-09-12T11:39:10Z</time>
      </trkpt>
      <trkpt lat="48.37792" lon="-3.95641">
        <ele>295.79998779297</ele>
        <time>2021-09-12T11:39:11Z</time>
      </trkpt>
      <trkpt lat="48.3779" lon="-3.95646">
        <ele>295.79998779297</ele>
        <time>2021-09-12T11:39:12Z</time>
      </trkpt>
      <trkpt lat="48.37788" lon="-3.95651">
        <ele>295.60000610352</ele>
        <time>2021-09-12T11:39:13Z</time>
      </trkpt>
      <trkpt lat="48.37785" lon="-3.95656">
        <ele>295.60000610352</ele>
        <time>2021-09-12T11:39:14Z</time>
      </trkpt>
      <trkpt lat="48.37782" lon="-3.9566">
        <ele>295.60000610352</ele>
        <time>2021-09-12T11:39:15Z</time>
      </trkpt>
      <trkpt lat="48.3778" lon="-3.95665">
        <ele>295.60000610352</ele>
        <time>2021-09-12T11:39:16Z</time>
      </trkpt>
      <trkpt lat="48.37777" lon="-3.9567">
        <ele>295.20001220703</ele>
        <time>2021-09-12T11:39:17Z</time>
      </trkpt>
      <trkpt lat="48.37775" lon="-3.95675">
        <ele>295.20001220703</ele>
        <time>2021-09-12T11:39:18Z</time>
      </trkpt>
      <trkpt lat="48.37772" lon="-3.9568">
        <ele>295.20001220703</ele>
        <time>2021-09-12T11:39:19Z</time>
      </trkpt>
      <trkpt lat="48.3777" lon="-3.95685">
        <ele>295.20001220703</ele>
        <time>2021-09-12T11:39:20Z</time>
      </trkpt>
      <trkpt lat="48.37768" lon="-3.9569">
        <ele>295.20001220703</ele>
        <time>2021-09-12T11:39:21Z</time>
      </trkpt>
      <trkpt lat="48.37765" lon="-3.95695">
        <ele>295.20001220703</ele>
        <time>2021-09-12T11:39:22Z</time>
      </trkpt>
      <trkpt lat="48.37763" lon="-3.957">
        <ele>294.79998779297</ele>
        <time>2021-09-12T11:39:23Z</time>
      </trkpt>
      <trkpt lat="48.37761" lon="-3.95705">
        <ele>294.79998779297</ele>
        <time>2021-09-12T11:39:24Z</time>
      </trkpt>
      <trkpt lat="48.37759" lon="-3.9571">
        <ele>294.60000610352</ele>
        <time>2021-09-12T11:39:25Z</time>
      </trkpt>
      <trkpt lat="48.37756" lon="-3.95715">
        <ele>294.39999389648</ele>
        <time>2021-09-12T11:39:26Z</time>
      </trkpt>
      <trkpt lat="48.37753" lon="-3.9572">
        <ele>294.20001220703</ele>
        <time>2021-09-12T11:39:27Z</time>
      </trkpt>
      <trkpt lat="48.3775" lon="-3.95725">
        <ele>294.20001220703</ele>
        <time>2021-09-12T11:39:28Z</time>
      </trkpt>
      <trkpt lat="48.37748" lon="-3.95731">
        <ele>293.79998779297</ele>
        <time>2021-09-12T11:39:29Z</time>
      </trkpt>
      <trkpt lat="48.37745" lon="-3.95736">
        <ele>293.79998779297</ele>
        <time>2021-09-12T11:39:30Z</time>
      </trkpt>
      <trkpt lat="48.37742" lon="-3.95742">
        <ele>293.20001220703</ele>
        <time>2021-09-12T11:39:31Z</time>
      </trkpt>
      <trkpt lat="48.37739" lon="-3.95748">
        <ele>293.20001220703</ele>
        <time>2021-09-12T11:39:32Z</time>
      </trkpt>
      <trkpt lat="48.37736" lon="-3.95754">
        <ele>293</ele>
        <time>2021-09-12T11:39:33Z</time>
      </trkpt>
      <trkpt lat="48.37733" lon="-3.95759">
        <ele>292.60000610352</ele>
        <time>2021-09-12T11:39:34Z</time>
      </trkpt>
      <trkpt lat="48.37731" lon="-3.95765">
        <ele>292.39999389648</ele>
        <time>2021-09-12T11:39:35Z</time>
      </trkpt>
      <trkpt lat="48.37728" lon="-3.9577">
        <ele>292</ele>
        <time>2021-09-12T11:39:36Z</time>
      </trkpt>
      <trkpt lat="48.37725" lon="-3.95776">
        <ele>291.79998779297</ele>
        <time>2021-09-12T11:39:37Z</time>
      </trkpt>
      <trkpt lat="48.37723" lon="-3.95781">
        <ele>291.79998779297</ele>
        <time>2021-09-12T11:39:38Z</time>
      </trkpt>
      <trkpt lat="48.3772" lon="-3.95787">
        <ele>291.60000610352</ele>
        <time>2021-09-12T11:39:39Z</time>
      </trkpt>
      <trkpt lat="48.37718" lon="-3.95792">
        <ele>291.60000610352</ele>
        <time>2021-09-12T11:39:40Z</time>
      </trkpt>
      <trkpt lat="48.37716" lon="-3.95797">
        <ele>291.39999389648</ele>
        <time>2021-09-12T11:39:41Z</time>
      </trkpt>
      <trkpt lat="48.37714" lon="-3.95801">
        <ele>291.20001220703</ele>
        <time>2021-09-12T11:39:42Z</time>
      </trkpt>
      <trkpt lat="48.37712" lon="-3.95806">
        <ele>291.20001220703</ele>
        <time>2021-09-12T11:39:43Z</time>
      </trkpt>
      <trkpt lat="48.37709" lon="-3.95809">
        <ele>290.79998779297</ele>
        <time>2021-09-12T11:39:44Z</time>
      </trkpt>
      <trkpt lat="48.37707" lon="-3.95814">
        <ele>290.39999389648</ele>
        <time>2021-09-12T11:39:45Z</time>
      </trkpt>
      <trkpt lat="48.37704" lon="-3.95818">
        <ele>290.39999389648</ele>
        <time>2021-09-12T11:39:46Z</time>
      </trkpt>
      <trkpt lat="48.37702" lon="-3.95822">
        <ele>290.39999389648</ele>
        <time>2021-09-12T11:39:47Z</time>
      </trkpt>
      <trkpt lat="48.37699" lon="-3.95827">
        <ele>290.39999389648</ele>
        <time>2021-09-12T11:39:48Z</time>
      </trkpt>
      <trkpt lat="48.37696" lon="-3.95832">
        <ele>289.79998779297</ele>
        <time>2021-09-12T11:39:49Z</time>
      </trkpt>
      <trkpt lat="48.37694" lon="-3.95837">
        <ele>289.60000610352</ele>
        <time>2021-09-12T11:39:50Z</time>
      </trkpt>
      <trkpt lat="48.37691" lon="-3.95842">
        <ele>289.60000610352</ele>
        <time>2021-09-12T11:39:51Z</time>
      </trkpt>
      <trkpt lat="48.37689" lon="-3.95847">
        <ele>289.20001220703</ele>
        <time>2021-09-12T11:39:52Z</time>
      </trkpt>
      <trkpt lat="48.37686" lon="-3.95853">
        <ele>289</ele>
        <time>2021-09-12T11:39:53Z</time>
      </trkpt>
      <trkpt lat="48.37684" lon="-3.95858">
        <ele>289</ele>
        <time>2021-09-12T11:39:54Z</time>
      </trkpt>
      <trkpt lat="48.37681" lon="-3.95863">
        <ele>288.60000610352</ele>
        <time>2021-09-12T11:39:55Z</time>
      </trkpt>
      <trkpt lat="48.37679" lon="-3.95868">
        <ele>288.60000610352</ele>
        <time>2021-09-12T11:39:56Z</time>
      </trkpt>
      <trkpt lat="48.37676" lon="-3.95872">
        <ele>288.39999389648</ele>
        <time>2021-09-12T11:39:57Z</time>
      </trkpt>
      <trkpt lat="48.37674" lon="-3.95877">
        <ele>288.39999389648</ele>
        <time>2021-09-12T11:39:58Z</time>
      </trkpt>
      <trkpt lat="48.37672" lon="-3.95881">
        <ele>288.39999389648</ele>
        <time>2021-09-12T11:39:59Z</time>
      </trkpt>
      <trkpt lat="48.3767" lon="-3.95886">
        <ele>288.20001220703</ele>
        <time>2021-09-12T11:40:00Z</time>
      </trkpt>
      <trkpt lat="48.37667" lon="-3.9589">
        <ele>288</ele>
        <time>2021-09-12T11:40:01Z</time>
      </trkpt>
      <trkpt lat="48.37665" lon="-3.95895">
        <ele>287.79998779297</ele>
        <time>2021-09-12T11:40:02Z</time>
      </trkpt>
      <trkpt lat="48.37662" lon="-3.959">
        <ele>287.39999389648</ele>
        <time>2021-09-12T11:40:03Z</time>
      </trkpt>
      <trkpt lat="48.3766" lon="-3.95905">
        <ele>287.20001220703</ele>
        <time>2021-09-12T11:40:04Z</time>
      </trkpt>
      <trkpt lat="48.37657" lon="-3.95911">
        <ele>287</ele>
        <time>2021-09-12T11:40:05Z</time>
      </trkpt>
      <trkpt lat="48.37654" lon="-3.95916">
        <ele>286.79998779297</ele>
        <time>2021-09-12T11:40:06Z</time>
      </trkpt>
      <trkpt lat="48.37651" lon="-3.95921">
        <ele>286.79998779297</ele>
        <time>2021-09-12T11:40:07Z</time>
      </trkpt>
      <trkpt lat="48.37649" lon="-3.95927">
        <ele>286.39999389648</ele>
        <time>2021-09-12T11:40:08Z</time>
      </trkpt>
      <trkpt lat="48.37646" lon="-3.95933">
        <ele>286.39999389648</ele>
        <time>2021-09-12T11:40:09Z</time>
      </trkpt>
      <trkpt lat="48.37643" lon="-3.95939">
        <ele>286</ele>
        <time>2021-09-12T11:40:10Z</time>
      </trkpt>
      <trkpt lat="48.3764" lon="-3.95945">
        <ele>285.79998779297</ele>
        <time>2021-09-12T11:40:11Z</time>
      </trkpt>
      <trkpt lat="48.37637" lon="-3.95951">
        <ele>285.20001220703</ele>
        <time>2021-09-12T11:40:12Z</time>
      </trkpt>
      <trkpt lat="48.37634" lon="-3.95958">
        <ele>285</ele>
        <time>2021-09-12T11:40:13Z</time>
      </trkpt>
      <trkpt lat="48.37631" lon="-3.95964">
        <ele>284.79998779297</ele>
        <time>2021-09-12T11:40:14Z</time>
      </trkpt>
      <trkpt lat="48.37628" lon="-3.95971">
        <ele>284.79998779297</ele>
        <time>2021-09-12T11:40:15Z</time>
      </trkpt>
      <trkpt lat="48.37625" lon="-3.95977">
        <ele>284</ele>
        <time>2021-09-12T11:40:16Z</time>
      </trkpt>
      <trkpt lat="48.37621" lon="-3.95984">
        <ele>283.79998779297</ele>
        <time>2021-09-12T11:40:17Z</time>
      </trkpt>
      <trkpt lat="48.37618" lon="-3.95991">
        <ele>283.60000610352</ele>
        <time>2021-09-12T11:40:18Z</time>
      </trkpt>
      <trkpt lat="48.37615" lon="-3.95998">
        <ele>283.20001220703</ele>
        <time>2021-09-12T11:40:19Z</time>
      </trkpt>
      <trkpt lat="48.37612" lon="-3.96004">
        <ele>282.79998779297</ele>
        <time>2021-09-12T11:40:20Z</time>
      </trkpt>
      <trkpt lat="48.3761" lon="-3.9601">
        <ele>282.39999389648</ele>
        <time>2021-09-12T11:40:21Z</time>
      </trkpt>
      <trkpt lat="48.37607" lon="-3.96015">
        <ele>282.20001220703</ele>
        <time>2021-09-12T11:40:22Z</time>
      </trkpt>
      <trkpt lat="48.37605" lon="-3.9602">
        <ele>281</ele>
        <time>2021-09-12T11:40:23Z</time>
      </trkpt>
      <trkpt lat="48.37602" lon="-3.96026">
        <ele>280.79998779297</ele>
        <time>2021-09-12T11:40:24Z</time>
      </trkpt>
      <trkpt lat="48.37599" lon="-3.96031">
        <ele>280.60000610352</ele>
        <time>2021-09-12T11:40:25Z</time>
      </trkpt>
      <trkpt lat="48.37597" lon="-3.96035">
        <ele>280.60000610352</ele>
        <time>2021-09-12T11:40:26Z</time>
      </trkpt>
      <trkpt lat="48.37595" lon="-3.96038">
        <ele>280.20001220703</ele>
        <time>2021-09-12T11:40:27Z</time>
      </trkpt>
      <trkpt lat="48.37593" lon="-3.96042">
        <ele>280</ele>
        <time>2021-09-12T11:40:28Z</time>
      </trkpt>
      <trkpt lat="48.37592" lon="-3.96045">
        <ele>279.79998779297</ele>
        <time>2021-09-12T11:40:29Z</time>
      </trkpt>
      <trkpt lat="48.3759" lon="-3.96048">
        <ele>279.60000610352</ele>
        <time>2021-09-12T11:40:30Z</time>
      </trkpt>
      <trkpt lat="48.37589" lon="-3.96051">
        <ele>279.39999389648</ele>
        <time>2021-09-12T11:40:31Z</time>
      </trkpt>
      <trkpt lat="48.37587" lon="-3.96054">
        <ele>279.20001220703</ele>
        <time>2021-09-12T11:40:32Z</time>
      </trkpt>
      <trkpt lat="48.37586" lon="-3.96056">
        <ele>279</ele>
        <time>2021-09-12T11:40:33Z</time>
      </trkpt>
      <trkpt lat="48.37585" lon="-3.96059">
        <ele>279</ele>
        <time>2021-09-12T11:40:34Z</time>
      </trkpt>
      <trkpt lat="48.37583" lon="-3.96063">
        <ele>278.60000610352</ele>
        <time>2021-09-12T11:40:35Z</time>
      </trkpt>
      <trkpt lat="48.37581" lon="-3.96067">
        <ele>278.39999389648</ele>
        <time>2021-09-12T11:40:36Z</time>
      </trkpt>
      <trkpt lat="48.37579" lon="-3.96071">
        <ele>278.39999389648</ele>
        <time>2021-09-12T11:40:37Z</time>
      </trkpt>
      <trkpt lat="48.37576" lon="-3.96076">
        <ele>278.20001220703</ele>
        <time>2021-09-12T11:40:38Z</time>
      </trkpt>
      <trkpt lat="48.37574" lon="-3.96081">
        <ele>278</ele>
        <time>2021-09-12T11:40:39Z</time>
      </trkpt>
      <trkpt lat="48.37571" lon="-3.96087">
        <ele>277.60000610352</ele>
        <time>2021-09-12T11:40:40Z</time>
      </trkpt>
      <trkpt lat="48.37568" lon="-3.96091">
        <ele>277.20001220703</ele>
        <time>2021-09-12T11:40:41Z</time>
      </trkpt>
      <trkpt lat="48.37566" lon="-3.96095">
        <ele>276.60000610352</ele>
        <time>2021-09-12T11:40:42Z</time>
      </trkpt>
      <trkpt lat="48.37564" lon="-3.961">
        <ele>276.60000610352</ele>
        <time>2021-09-12T11:40:43Z</time>
      </trkpt>
      <trkpt lat="48.37562" lon="-3.96104">
        <ele>276.39999389648</ele>
        <time>2021-09-12T11:40:44Z</time>
      </trkpt>
      <trkpt lat="48.3756" lon="-3.96108">
        <ele>276</ele>
        <time>2021-09-12T11:40:45Z</time>
      </trkpt>
      <trkpt lat="48.37558" lon="-3.96112">
        <ele>275.79998779297</ele>
        <time>2021-09-12T11:40:46Z</time>
      </trkpt>
      <trkpt lat="48.37557" lon="-3.96115">
        <ele>275.60000610352</ele>
        <time>2021-09-12T11:40:47Z</time>
      </trkpt>
      <trkpt lat="48.37555" lon="-3.96117">
        <ele>275.39999389648</ele>
        <time>2021-09-12T11:40:48Z</time>
      </trkpt>
      <trkpt lat="48.37555" lon="-3.9612">
        <ele>275.20001220703</ele>
        <time>2021-09-12T11:40:49Z</time>
      </trkpt>
      <trkpt lat="48.37554" lon="-3.96122">
        <ele>275.20001220703</ele>
        <time>2021-09-12T11:40:50Z</time>
      </trkpt>
      <trkpt lat="48.37553" lon="-3.96124">
        <ele>275</ele>
        <time>2021-09-12T11:40:51Z</time>
      </trkpt>
      <trkpt lat="48.37552" lon="-3.96126">
        <ele>274.79998779297</ele>
        <time>2021-09-12T11:40:52Z</time>
      </trkpt>
      <trkpt lat="48.37552" lon="-3.96127">
        <ele>274.79998779297</ele>
        <time>2021-09-12T11:40:53Z</time>
      </trkpt>
      <trkpt lat="48.37551" lon="-3.96127">
        <ele>274.79998779297</ele>
        <time>2021-09-12T11:40:54Z</time>
      </trkpt>
      <trkpt lat="48.37551" lon="-3.96127">
        <ele>274.60000610352</ele>
        <time>2021-09-12T11:40:55Z</time>
      </trkpt>
      <trkpt lat="48.37549" lon="-3.9613">
        <ele>274.39999389648</ele>
        <time>2021-09-12T11:41:02Z</time>
      </trkpt>
      <trkpt lat="48.37548" lon="-3.96132">
        <ele>274.39999389648</ele>
        <time>2021-09-12T11:41:03Z</time>
      </trkpt>
      <trkpt lat="48.37547" lon="-3.96133">
        <ele>274.39999389648</ele>
        <time>2021-09-12T11:41:04Z</time>
      </trkpt>
      <trkpt lat="48.37546" lon="-3.96134">
        <ele>274.39999389648</ele>
        <time>2021-09-12T11:41:05Z</time>
      </trkpt>
      <trkpt lat="48.37546" lon="-3.96136">
        <ele>274.20001220703</ele>
        <time>2021-09-12T11:41:06Z</time>
      </trkpt>
      <trkpt lat="48.37546" lon="-3.96137">
        <ele>274.20001220703</ele>
        <time>2021-09-12T11:41:07Z</time>
      </trkpt>
      <trkpt lat="48.37545" lon="-3.96139">
        <ele>274</ele>
        <time>2021-09-12T11:41:08Z</time>
      </trkpt>
      <trkpt lat="48.37545" lon="-3.9614">
        <ele>273.79998779297</ele>
        <time>2021-09-12T11:41:09Z</time>
      </trkpt>
      <trkpt lat="48.37545" lon="-3.96141">
        <ele>273.79998779297</ele>
        <time>2021-09-12T11:41:10Z</time>
      </trkpt>
      <trkpt lat="48.37544" lon="-3.96142">
        <ele>273.79998779297</ele>
        <time>2021-09-12T11:41:11Z</time>
      </trkpt>
      <trkpt lat="48.37544" lon="-3.96142">
        <ele>273.60000610352</ele>
        <time>2021-09-12T11:41:12Z</time>
      </trkpt>
      <trkpt lat="48.37544" lon="-3.96143">
        <ele>273.60000610352</ele>
        <time>2021-09-12T11:41:13Z</time>
      </trkpt>
      <trkpt lat="48.37544" lon="-3.96144">
        <ele>273.60000610352</ele>
        <time>2021-09-12T11:41:14Z</time>
      </trkpt>
      <trkpt lat="48.37543" lon="-3.96145">
        <ele>273.60000610352</ele>
        <time>2021-09-12T11:41:15Z</time>
      </trkpt>
      <trkpt lat="48.37541" lon="-3.96147">
        <ele>273.60000610352</ele>
        <time>2021-09-12T11:41:16Z</time>
      </trkpt>
      <trkpt lat="48.37539" lon="-3.96149">
        <ele>273.60000610352</ele>
        <time>2021-09-12T11:41:17Z</time>
      </trkpt>
      <trkpt lat="48.37539" lon="-3.96151">
        <ele>273.60000610352</ele>
        <time>2021-09-12T11:41:18Z</time>
      </trkpt>
      <trkpt lat="48.37537" lon="-3.96154">
        <ele>273.39999389648</ele>
        <time>2021-09-12T11:41:19Z</time>
      </trkpt>
      <trkpt lat="48.37536" lon="-3.96157">
        <ele>273.39999389648</ele>
        <time>2021-09-12T11:41:20Z</time>
      </trkpt>
      <trkpt lat="48.37536" lon="-3.9616">
        <ele>273.20001220703</ele>
        <time>2021-09-12T11:41:21Z</time>
      </trkpt>
      <trkpt lat="48.37535" lon="-3.96161">
        <ele>273</ele>
        <time>2021-09-12T11:41:22Z</time>
      </trkpt>
      <trkpt lat="48.37535" lon="-3.96162">
        <ele>273</ele>
        <time>2021-09-12T11:41:23Z</time>
      </trkpt>
      <trkpt lat="48.37534" lon="-3.96163">
        <ele>273</ele>
        <time>2021-09-12T11:41:24Z</time>
      </trkpt>
      <trkpt lat="48.37534" lon="-3.96164">
        <ele>273</ele>
        <time>2021-09-12T11:41:25Z</time>
      </trkpt>
      <trkpt lat="48.37533" lon="-3.96165">
        <ele>273</ele>
        <time>2021-09-12T11:41:26Z</time>
      </trkpt>
      <trkpt lat="48.37533" lon="-3.96166">
        <ele>272.79998779297</ele>
        <time>2021-09-12T11:41:27Z</time>
      </trkpt>
      <trkpt lat="48.37532" lon="-3.96167">
        <ele>272.79998779297</ele>
        <time>2021-09-12T11:41:28Z</time>
      </trkpt>
      <trkpt lat="48.37532" lon="-3.96168">
        <ele>272.79998779297</ele>
        <time>2021-09-12T11:41:29Z</time>
      </trkpt>
      <trkpt lat="48.37532" lon="-3.96169">
        <ele>272.60000610352</ele>
        <time>2021-09-12T11:41:30Z</time>
      </trkpt>
      <trkpt lat="48.37532" lon="-3.9617">
        <ele>272.60000610352</ele>
        <time>2021-09-12T11:41:31Z</time>
      </trkpt>
      <trkpt lat="48.37532" lon="-3.96171">
        <ele>272.60000610352</ele>
        <time>2021-09-12T11:41:32Z</time>
      </trkpt>
      <trkpt lat="48.37532" lon="-3.96173">
        <ele>272.20001220703</ele>
        <time>2021-09-12T11:41:33Z</time>
      </trkpt>
      <trkpt lat="48.37532" lon="-3.96173">
        <ele>272.20001220703</ele>
        <time>2021-09-12T11:41:34Z</time>
      </trkpt>
      <trkpt lat="48.37532" lon="-3.96173">
        <ele>272</ele>
        <time>2021-09-12T11:41:35Z</time>
      </trkpt>
      <trkpt lat="48.37532" lon="-3.96173">
        <ele>272</ele>
        <time>2021-09-12T11:41:36Z</time>
      </trkpt>
      <trkpt lat="48.37532" lon="-3.96173">
        <ele>272</ele>
        <time>2021-09-12T11:41:37Z</time>
      </trkpt>
      <trkpt lat="48.37531" lon="-3.96174">
        <ele>272</ele>
        <time>2021-09-12T11:41:38Z</time>
      </trkpt>
      <trkpt lat="48.37531" lon="-3.96176">
        <ele>272</ele>
        <time>2021-09-12T11:41:39Z</time>
      </trkpt>
      <trkpt lat="48.37531" lon="-3.96177">
        <ele>272</ele>
        <time>2021-09-12T11:41:40Z</time>
      </trkpt>
      <trkpt lat="48.3753" lon="-3.96178">
        <ele>272</ele>
        <time>2021-09-12T11:41:41Z</time>
      </trkpt>
      <trkpt lat="48.3753" lon="-3.96179">
        <ele>272</ele>
        <time>2021-09-12T11:41:42Z</time>
      </trkpt>
      <trkpt lat="48.37529" lon="-3.9618">
        <ele>272</ele>
        <time>2021-09-12T11:41:43Z</time>
      </trkpt>
      <trkpt lat="48.37529" lon="-3.96181">
        <ele>272</ele>
        <time>2021-09-12T11:41:44Z</time>
      </trkpt>
      <trkpt lat="48.37528" lon="-3.96182">
        <ele>272</ele>
        <time>2021-09-12T11:41:45Z</time>
      </trkpt>
      <trkpt lat="48.37528" lon="-3.96183">
        <ele>271.79998779297</ele>
        <time>2021-09-12T11:41:46Z</time>
      </trkpt>
      <trkpt lat="48.37528" lon="-3.96185">
        <ele>271.79998779297</ele>
        <time>2021-09-12T11:41:47Z</time>
      </trkpt>
      <trkpt lat="48.37527" lon="-3.96187">
        <ele>271.79998779297</ele>
        <time>2021-09-12T11:41:48Z</time>
      </trkpt>
      <trkpt lat="48.37527" lon="-3.96188">
        <ele>271.79998779297</ele>
        <time>2021-09-12T11:41:49Z</time>
      </trkpt>
      <trkpt lat="48.37527" lon="-3.9619">
        <ele>271.79998779297</ele>
        <time>2021-09-12T11:41:50Z</time>
      </trkpt>
      <trkpt lat="48.37526" lon="-3.96191">
        <ele>271.60000610352</ele>
        <time>2021-09-12T11:41:51Z</time>
      </trkpt>
      <trkpt lat="48.37526" lon="-3.96192">
        <ele>271.79998779297</ele>
        <time>2021-09-12T11:41:52Z</time>
      </trkpt>
      <trkpt lat="48.37526" lon="-3.96194">
        <ele>271.60000610352</ele>
        <time>2021-09-12T11:41:53Z</time>
      </trkpt>
      <trkpt lat="48.37526" lon="-3.96195">
        <ele>271.60000610352</ele>
        <time>2021-09-12T11:41:54Z</time>
      </trkpt>
      <trkpt lat="48.37526" lon="-3.96197">
        <ele>271.60000610352</ele>
        <time>2021-09-12T11:41:55Z</time>
      </trkpt>
      <trkpt lat="48.37526" lon="-3.96198">
        <ele>271.60000610352</ele>
        <time>2021-09-12T11:41:56Z</time>
      </trkpt>
      <trkpt lat="48.37526" lon="-3.96199">
        <ele>271.20001220703</ele>
        <time>2021-09-12T11:41:57Z</time>
      </trkpt>
      <trkpt lat="48.37525" lon="-3.96201">
        <ele>271.20001220703</ele>
        <time>2021-09-12T11:41:58Z</time>
      </trkpt>
      <trkpt lat="48.37524" lon="-3.96202">
        <ele>271.20001220703</ele>
        <time>2021-09-12T11:41:59Z</time>
      </trkpt>
      <trkpt lat="48.37523" lon="-3.96202">
        <ele>271.20001220703</ele>
        <time>2021-09-12T11:42:00Z</time>
      </trkpt>
      <trkpt lat="48.37523" lon="-3.96203">
        <ele>271.20001220703</ele>
        <time>2021-09-12T11:42:01Z</time>
      </trkpt>
      <trkpt lat="48.37523" lon="-3.96204">
        <ele>271.20001220703</ele>
        <time>2021-09-12T11:42:02Z</time>
      </trkpt>
      <trkpt lat="48.37523" lon="-3.96206">
        <ele>271</ele>
        <time>2021-09-12T11:42:03Z</time>
      </trkpt>
      <trkpt lat="48.37523" lon="-3.96207">
        <ele>271</ele>
        <time>2021-09-12T11:42:04Z</time>
      </trkpt>
      <trkpt lat="48.37522" lon="-3.96208">
        <ele>270.79998779297</ele>
        <time>2021-09-12T11:42:05Z</time>
      </trkpt>
      <trkpt lat="48.37522" lon="-3.96209">
        <ele>270.79998779297</ele>
        <time>2021-09-12T11:42:06Z</time>
      </trkpt>
      <trkpt lat="48.37522" lon="-3.96211">
        <ele>270.79998779297</ele>
        <time>2021-09-12T11:42:07Z</time>
      </trkpt>
      <trkpt lat="48.37522" lon="-3.96212">
        <ele>270.60000610352</ele>
        <time>2021-09-12T11:42:08Z</time>
      </trkpt>
      <trkpt lat="48.37522" lon="-3.96214">
        <ele>270.60000610352</ele>
        <time>2021-09-12T11:42:09Z</time>
      </trkpt>
      <trkpt lat="48.37522" lon="-3.96216">
        <ele>270.60000610352</ele>
        <time>2021-09-12T11:42:10Z</time>
      </trkpt>
      <trkpt lat="48.37522" lon="-3.96217">
        <ele>270.20001220703</ele>
        <time>2021-09-12T11:42:11Z</time>
      </trkpt>
      <trkpt lat="48.37522" lon="-3.96218">
        <ele>270.20001220703</ele>
        <time>2021-09-12T11:42:12Z</time>
      </trkpt>
      <trkpt lat="48.37522" lon="-3.96219">
        <ele>270</ele>
        <time>2021-09-12T11:42:13Z</time>
      </trkpt>
      <trkpt lat="48.37521" lon="-3.9622">
        <ele>270</ele>
        <time>2021-09-12T11:42:14Z</time>
      </trkpt>
      <trkpt lat="48.37521" lon="-3.96221">
        <ele>269.79998779297</ele>
        <time>2021-09-12T11:42:15Z</time>
      </trkpt>
      <trkpt lat="48.3752" lon="-3.96221">
        <ele>269.79998779297</ele>
        <time>2021-09-12T11:42:16Z</time>
      </trkpt>
      <trkpt lat="48.37519" lon="-3.96223">
        <ele>269.79998779297</ele>
        <time>2021-09-12T11:42:17Z</time>
      </trkpt>
      <trkpt lat="48.37519" lon="-3.96225">
        <ele>269.79998779297</ele>
        <time>2021-09-12T11:42:18Z</time>
      </trkpt>
      <trkpt lat="48.37518" lon="-3.96226">
        <ele>269.79998779297</ele>
        <time>2021-09-12T11:42:19Z</time>
      </trkpt>
      <trkpt lat="48.37518" lon="-3.96227">
        <ele>269.79998779297</ele>
        <time>2021-09-12T11:42:20Z</time>
      </trkpt>
      <trkpt lat="48.37517" lon="-3.96229">
        <ele>269.79998779297</ele>
        <time>2021-09-12T11:42:21Z</time>
      </trkpt>
      <trkpt lat="48.37517" lon="-3.96232">
        <ele>269.79998779297</ele>
        <time>2021-09-12T11:42:22Z</time>
      </trkpt>
      <trkpt lat="48.37516" lon="-3.96233">
        <ele>269.79998779297</ele>
        <time>2021-09-12T11:42:23Z</time>
      </trkpt>
      <trkpt lat="48.37516" lon="-3.96235">
        <ele>269.60000610352</ele>
        <time>2021-09-12T11:42:24Z</time>
      </trkpt>
      <trkpt lat="48.37515" lon="-3.96236">
        <ele>269.60000610352</ele>
        <time>2021-09-12T11:42:25Z</time>
      </trkpt>
      <trkpt lat="48.37515" lon="-3.96236">
        <ele>269.60000610352</ele>
        <time>2021-09-12T11:42:26Z</time>
      </trkpt>
      <trkpt lat="48.37515" lon="-3.96236">
        <ele>269.60000610352</ele>
        <time>2021-09-12T11:42:27Z</time>
      </trkpt>
      <trkpt lat="48.37515" lon="-3.96238">
        <ele>269.39999389648</ele>
        <time>2021-09-12T11:42:28Z</time>
      </trkpt>
      <trkpt lat="48.37514" lon="-3.9624">
        <ele>269.20001220703</ele>
        <time>2021-09-12T11:42:29Z</time>
      </trkpt>
      <trkpt lat="48.37513" lon="-3.96244">
        <ele>269.20001220703</ele>
        <time>2021-09-12T11:42:30Z</time>
      </trkpt>
      <trkpt lat="48.37512" lon="-3.96248">
        <ele>269.20001220703</ele>
        <time>2021-09-12T11:42:31Z</time>
      </trkpt>
      <trkpt lat="48.37511" lon="-3.96251">
        <ele>269.20001220703</ele>
        <time>2021-09-12T11:42:32Z</time>
      </trkpt>
      <trkpt lat="48.37511" lon="-3.96253">
        <ele>269</ele>
        <time>2021-09-12T11:42:33Z</time>
      </trkpt>
      <trkpt lat="48.3751" lon="-3.96257">
        <ele>269</ele>
        <time>2021-09-12T11:42:34Z</time>
      </trkpt>
      <trkpt lat="48.3751" lon="-3.96261">
        <ele>268.79998779297</ele>
        <time>2021-09-12T11:42:35Z</time>
      </trkpt>
      <trkpt lat="48.37509" lon="-3.96265">
        <ele>268.79998779297</ele>
        <time>2021-09-12T11:42:36Z</time>
      </trkpt>
      <trkpt lat="48.37508" lon="-3.96269">
        <ele>268.79998779297</ele>
        <time>2021-09-12T11:42:37Z</time>
      </trkpt>
      <trkpt lat="48.37508" lon="-3.96273">
        <ele>268.79998779297</ele>
        <time>2021-09-12T11:42:38Z</time>
      </trkpt>
      <trkpt lat="48.37507" lon="-3.96277">
        <ele>268.60000610352</ele>
        <time>2021-09-12T11:42:39Z</time>
      </trkpt>
      <trkpt lat="48.37506" lon="-3.96281">
        <ele>268.39999389648</ele>
        <time>2021-09-12T11:42:40Z</time>
      </trkpt>
      <trkpt lat="48.37505" lon="-3.96284">
        <ele>268.20001220703</ele>
        <time>2021-09-12T11:42:41Z</time>
      </trkpt>
      <trkpt lat="48.37505" lon="-3.96286">
        <ele>268.20001220703</ele>
        <time>2021-09-12T11:42:42Z</time>
      </trkpt>
      <trkpt lat="48.37504" lon="-3.96289">
        <ele>268</ele>
        <time>2021-09-12T11:42:43Z</time>
      </trkpt>
      <trkpt lat="48.37504" lon="-3.96293">
        <ele>268</ele>
        <time>2021-09-12T11:42:44Z</time>
      </trkpt>
      <trkpt lat="48.37503" lon="-3.96297">
        <ele>268</ele>
        <time>2021-09-12T11:42:45Z</time>
      </trkpt>
      <trkpt lat="48.37503" lon="-3.963">
        <ele>267.79998779297</ele>
        <time>2021-09-12T11:42:46Z</time>
      </trkpt>
      <trkpt lat="48.37502" lon="-3.96303">
        <ele>267.79998779297</ele>
        <time>2021-09-12T11:42:47Z</time>
      </trkpt>
      <trkpt lat="48.37502" lon="-3.96307">
        <ele>267.60000610352</ele>
        <time>2021-09-12T11:42:48Z</time>
      </trkpt>
      <trkpt lat="48.37501" lon="-3.96312">
        <ele>267.39999389648</ele>
        <time>2021-09-12T11:42:49Z</time>
      </trkpt>
      <trkpt lat="48.375" lon="-3.96316">
        <ele>267.20001220703</ele>
        <time>2021-09-12T11:42:50Z</time>
      </trkpt>
      <trkpt lat="48.37499" lon="-3.9632">
        <ele>267</ele>
        <time>2021-09-12T11:42:51Z</time>
      </trkpt>
      <trkpt lat="48.37498" lon="-3.96322">
        <ele>267</ele>
        <time>2021-09-12T11:42:52Z</time>
      </trkpt>
      <trkpt lat="48.37498" lon="-3.96326">
        <ele>266.79998779297</ele>
        <time>2021-09-12T11:42:53Z</time>
      </trkpt>
      <trkpt lat="48.37497" lon="-3.9633">
        <ele>266.60000610352</ele>
        <time>2021-09-12T11:42:54Z</time>
      </trkpt>
      <trkpt lat="48.37496" lon="-3.96333">
        <ele>266.60000610352</ele>
        <time>2021-09-12T11:42:55Z</time>
      </trkpt>
      <trkpt lat="48.37495" lon="-3.96335">
        <ele>266.20001220703</ele>
        <time>2021-09-12T11:42:56Z</time>
      </trkpt>
      <trkpt lat="48.37495" lon="-3.96338">
        <ele>266.20001220703</ele>
        <time>2021-09-12T11:42:57Z</time>
      </trkpt>
      <trkpt lat="48.37494" lon="-3.96341">
        <ele>266.20001220703</ele>
        <time>2021-09-12T11:42:58Z</time>
      </trkpt>
      <trkpt lat="48.37493" lon="-3.96344">
        <ele>266</ele>
        <time>2021-09-12T11:42:59Z</time>
      </trkpt>
      <trkpt lat="48.37493" lon="-3.96347">
        <ele>266</ele>
        <time>2021-09-12T11:43:00Z</time>
      </trkpt>
      <trkpt lat="48.37492" lon="-3.96349">
        <ele>266</ele>
        <time>2021-09-12T11:43:01Z</time>
      </trkpt>
      <trkpt lat="48.37491" lon="-3.96352">
        <ele>265.79998779297</ele>
        <time>2021-09-12T11:43:02Z</time>
      </trkpt>
      <trkpt lat="48.3749" lon="-3.96356">
        <ele>265.79998779297</ele>
        <time>2021-09-12T11:43:03Z</time>
      </trkpt>
      <trkpt lat="48.3749" lon="-3.96359">
        <ele>265.79998779297</ele>
        <time>2021-09-12T11:43:04Z</time>
      </trkpt>
      <trkpt lat="48.37489" lon="-3.96362">
        <ele>265.60000610352</ele>
        <time>2021-09-12T11:43:05Z</time>
      </trkpt>
      <trkpt lat="48.37488" lon="-3.96365">
        <ele>265.60000610352</ele>
        <time>2021-09-12T11:43:06Z</time>
      </trkpt>
      <trkpt lat="48.37487" lon="-3.96368">
        <ele>265.60000610352</ele>
        <time>2021-09-12T11:43:07Z</time>
      </trkpt>
      <trkpt lat="48.37486" lon="-3.96372">
        <ele>265.60000610352</ele>
        <time>2021-09-12T11:43:08Z</time>
      </trkpt>
      <trkpt lat="48.37485" lon="-3.96375">
        <ele>265.39999389648</ele>
        <time>2021-09-12T11:43:09Z</time>
      </trkpt>
      <trkpt lat="48.37484" lon="-3.96377">
        <ele>265.39999389648</ele>
        <time>2021-09-12T11:43:10Z</time>
      </trkpt>
      <trkpt lat="48.37483" lon="-3.9638">
        <ele>265.20001220703</ele>
        <time>2021-09-12T11:43:11Z</time>
      </trkpt>
      <trkpt lat="48.37481" lon="-3.96383">
        <ele>265</ele>
        <time>2021-09-12T11:43:12Z</time>
      </trkpt>
      <trkpt lat="48.3748" lon="-3.96386">
        <ele>265</ele>
        <time>2021-09-12T11:43:13Z</time>
      </trkpt>
      <trkpt lat="48.37478" lon="-3.96388">
        <ele>264.79998779297</ele>
        <time>2021-09-12T11:43:14Z</time>
      </trkpt>
      <trkpt lat="48.37477" lon="-3.9639">
        <ele>264.79998779297</ele>
        <time>2021-09-12T11:43:15Z</time>
      </trkpt>
      <trkpt lat="48.37476" lon="-3.96393">
        <ele>264.79998779297</ele>
        <time>2021-09-12T11:43:16Z</time>
      </trkpt>
      <trkpt lat="48.37474" lon="-3.96395">
        <ele>264.79998779297</ele>
        <time>2021-09-12T11:43:17Z</time>
      </trkpt>
      <trkpt lat="48.37473" lon="-3.96397">
        <ele>264.39999389648</ele>
        <time>2021-09-12T11:43:18Z</time>
      </trkpt>
      <trkpt lat="48.37472" lon="-3.96399">
        <ele>264.39999389648</ele>
        <time>2021-09-12T11:43:19Z</time>
      </trkpt>
      <trkpt lat="48.37471" lon="-3.96401">
        <ele>264.39999389648</ele>
        <time>2021-09-12T11:43:20Z</time>
      </trkpt>
      <trkpt lat="48.37469" lon="-3.96404">
        <ele>264.39999389648</ele>
        <time>2021-09-12T11:43:21Z</time>
      </trkpt>
      <trkpt lat="48.37468" lon="-3.96406">
        <ele>264.39999389648</ele>
        <time>2021-09-12T11:43:22Z</time>
      </trkpt>
      <trkpt lat="48.37467" lon="-3.96408">
        <ele>264.60000610352</ele>
        <time>2021-09-12T11:43:23Z</time>
      </trkpt>
      <trkpt lat="48.37466" lon="-3.9641">
        <ele>264.60000610352</ele>
        <time>2021-09-12T11:43:24Z</time>
      </trkpt>
      <trkpt lat="48.37466" lon="-3.96412">
        <ele>264.79998779297</ele>
        <time>2021-09-12T11:43:25Z</time>
      </trkpt>
      <trkpt lat="48.37465" lon="-3.96414">
        <ele>264.79998779297</ele>
        <time>2021-09-12T11:43:26Z</time>
      </trkpt>
      <trkpt lat="48.37464" lon="-3.96417">
        <ele>264.79998779297</ele>
        <time>2021-09-12T11:43:27Z</time>
      </trkpt>
      <trkpt lat="48.37463" lon="-3.9642">
        <ele>264.79998779297</ele>
        <time>2021-09-12T11:43:28Z</time>
      </trkpt>
      <trkpt lat="48.37462" lon="-3.96423">
        <ele>264.79998779297</ele>
        <time>2021-09-12T11:43:29Z</time>
      </trkpt>
      <trkpt lat="48.37461" lon="-3.96426">
        <ele>264.60000610352</ele>
        <time>2021-09-12T11:43:30Z</time>
      </trkpt>
      <trkpt lat="48.37459" lon="-3.9643">
        <ele>264.60000610352</ele>
        <time>2021-09-12T11:43:31Z</time>
      </trkpt>
      <trkpt lat="48.37458" lon="-3.96432">
        <ele>264.39999389648</ele>
        <time>2021-09-12T11:43:32Z</time>
      </trkpt>
      <trkpt lat="48.37456" lon="-3.96435">
        <ele>264.39999389648</ele>
        <time>2021-09-12T11:43:33Z</time>
      </trkpt>
      <trkpt lat="48.37455" lon="-3.96438">
        <ele>264.39999389648</ele>
        <time>2021-09-12T11:43:34Z</time>
      </trkpt>
      <trkpt lat="48.37454" lon="-3.96441">
        <ele>264.39999389648</ele>
        <time>2021-09-12T11:43:35Z</time>
      </trkpt>
      <trkpt lat="48.37452" lon="-3.96444">
        <ele>264.39999389648</ele>
        <time>2021-09-12T11:43:36Z</time>
      </trkpt>
      <trkpt lat="48.3745" lon="-3.96447">
        <ele>264.39999389648</ele>
        <time>2021-09-12T11:43:37Z</time>
      </trkpt>
      <trkpt lat="48.37448" lon="-3.9645">
        <ele>264.39999389648</ele>
        <time>2021-09-12T11:43:38Z</time>
      </trkpt>
      <trkpt lat="48.37447" lon="-3.96453">
        <ele>264.39999389648</ele>
        <time>2021-09-12T11:43:39Z</time>
      </trkpt>
      <trkpt lat="48.37446" lon="-3.96457">
        <ele>264.39999389648</ele>
        <time>2021-09-12T11:43:40Z</time>
      </trkpt>
      <trkpt lat="48.37444" lon="-3.9646">
        <ele>264.20001220703</ele>
        <time>2021-09-12T11:43:41Z</time>
      </trkpt>
      <trkpt lat="48.37442" lon="-3.96465">
        <ele>264.20001220703</ele>
        <time>2021-09-12T11:43:42Z</time>
      </trkpt>
      <trkpt lat="48.37441" lon="-3.96468">
        <ele>264</ele>
        <time>2021-09-12T11:43:43Z</time>
      </trkpt>
      <trkpt lat="48.37439" lon="-3.96472">
        <ele>264</ele>
        <time>2021-09-12T11:43:44Z</time>
      </trkpt>
      <trkpt lat="48.37437" lon="-3.96477">
        <ele>264</ele>
        <time>2021-09-12T11:43:45Z</time>
      </trkpt>
      <trkpt lat="48.37435" lon="-3.96481">
        <ele>264</ele>
        <time>2021-09-12T11:43:46Z</time>
      </trkpt>
      <trkpt lat="48.37433" lon="-3.96485">
        <ele>264</ele>
        <time>2021-09-12T11:43:47Z</time>
      </trkpt>
      <trkpt lat="48.37431" lon="-3.9649">
        <ele>264</ele>
        <time>2021-09-12T11:43:48Z</time>
      </trkpt>
      <trkpt lat="48.37429" lon="-3.96494">
        <ele>264</ele>
        <time>2021-09-12T11:43:49Z</time>
      </trkpt>
      <trkpt lat="48.37427" lon="-3.965">
        <ele>264</ele>
        <time>2021-09-12T11:43:50Z</time>
      </trkpt>
      <trkpt lat="48.37425" lon="-3.96505">
        <ele>263.79998779297</ele>
        <time>2021-09-12T11:43:51Z</time>
      </trkpt>
      <trkpt lat="48.37423" lon="-3.96509">
        <ele>263.79998779297</ele>
        <time>2021-09-12T11:43:52Z</time>
      </trkpt>
      <trkpt lat="48.37421" lon="-3.96513">
        <ele>263.39999389648</ele>
        <time>2021-09-12T11:43:53Z</time>
      </trkpt>
      <trkpt lat="48.37418" lon="-3.96518">
        <ele>263.39999389648</ele>
        <time>2021-09-12T11:43:54Z</time>
      </trkpt>
      <trkpt lat="48.37417" lon="-3.96522">
        <ele>263.20001220703</ele>
        <time>2021-09-12T11:43:55Z</time>
      </trkpt>
      <trkpt lat="48.37415" lon="-3.96527">
        <ele>263.20001220703</ele>
        <time>2021-09-12T11:43:56Z</time>
      </trkpt>
      <trkpt lat="48.37413" lon="-3.9653">
        <ele>263.20001220703</ele>
        <time>2021-09-12T11:43:57Z</time>
      </trkpt>
      <trkpt lat="48.37412" lon="-3.96534">
        <ele>263</ele>
        <time>2021-09-12T11:43:58Z</time>
      </trkpt>
      <trkpt lat="48.3741" lon="-3.96538">
        <ele>262.79998779297</ele>
        <time>2021-09-12T11:43:59Z</time>
      </trkpt>
      <trkpt lat="48.3741" lon="-3.96538">
        <ele>262.79998779297</ele>
        <time>2021-09-12T11:44:00Z</time>
      </trkpt>
      <trkpt lat="48.3741" lon="-3.96538">
        <ele>262.79998779297</ele>
        <time>2021-09-12T11:44:01Z</time>
      </trkpt>
      <trkpt lat="48.3741" lon="-3.96538">
        <ele>262.79998779297</ele>
        <time>2021-09-12T11:44:02Z</time>
      </trkpt>
      <trkpt lat="48.37405" lon="-3.9655">
        <ele>262.39999389648</ele>
        <time>2021-09-12T11:44:10Z</time>
      </trkpt>
      <trkpt lat="48.37404" lon="-3.96553">
        <ele>262.20001220703</ele>
        <time>2021-09-12T11:44:11Z</time>
      </trkpt>
      <trkpt lat="48.37403" lon="-3.96557">
        <ele>262.20001220703</ele>
        <time>2021-09-12T11:44:12Z</time>
      </trkpt>
      <trkpt lat="48.37403" lon="-3.96561">
        <ele>262.20001220703</ele>
        <time>2021-09-12T11:44:13Z</time>
      </trkpt>
      <trkpt lat="48.37401" lon="-3.96565">
        <ele>262.20001220703</ele>
        <time>2021-09-12T11:44:14Z</time>
      </trkpt>
      <trkpt lat="48.374" lon="-3.96569">
        <ele>262</ele>
        <time>2021-09-12T11:44:15Z</time>
      </trkpt>
      <trkpt lat="48.37398" lon="-3.96573">
        <ele>261.79998779297</ele>
        <time>2021-09-12T11:44:16Z</time>
      </trkpt>
      <trkpt lat="48.37396" lon="-3.96577">
        <ele>261.60000610352</ele>
        <time>2021-09-12T11:44:17Z</time>
      </trkpt>
      <trkpt lat="48.37394" lon="-3.96581">
        <ele>261.60000610352</ele>
        <time>2021-09-12T11:44:18Z</time>
      </trkpt>
      <trkpt lat="48.37393" lon="-3.96585">
        <ele>261.39999389648</ele>
        <time>2021-09-12T11:44:19Z</time>
      </trkpt>
      <trkpt lat="48.37391" lon="-3.96588">
        <ele>261.20001220703</ele>
        <time>2021-09-12T11:44:20Z</time>
      </trkpt>
      <trkpt lat="48.37389" lon="-3.96591">
        <ele>261.20001220703</ele>
        <time>2021-09-12T11:44:21Z</time>
      </trkpt>
      <trkpt lat="48.37387" lon="-3.96594">
        <ele>261</ele>
        <time>2021-09-12T11:44:22Z</time>
      </trkpt>
      <trkpt lat="48.37386" lon="-3.96598">
        <ele>260.79998779297</ele>
        <time>2021-09-12T11:44:23Z</time>
      </trkpt>
      <trkpt lat="48.37384" lon="-3.96602">
        <ele>260.79998779297</ele>
        <time>2021-09-12T11:44:24Z</time>
      </trkpt>
      <trkpt lat="48.37383" lon="-3.96606">
        <ele>260.79998779297</ele>
        <time>2021-09-12T11:44:25Z</time>
      </trkpt>
      <trkpt lat="48.37381" lon="-3.9661">
        <ele>260.79998779297</ele>
        <time>2021-09-12T11:44:26Z</time>
      </trkpt>
      <trkpt lat="48.37379" lon="-3.96614">
        <ele>260.79998779297</ele>
        <time>2021-09-12T11:44:27Z</time>
      </trkpt>
      <trkpt lat="48.37376" lon="-3.96619">
        <ele>260.79998779297</ele>
        <time>2021-09-12T11:44:28Z</time>
      </trkpt>
      <trkpt lat="48.37374" lon="-3.96623">
        <ele>260.39999389648</ele>
        <time>2021-09-12T11:44:29Z</time>
      </trkpt>
      <trkpt lat="48.37372" lon="-3.96628">
        <ele>260.39999389648</ele>
        <time>2021-09-12T11:44:30Z</time>
      </trkpt>
      <trkpt lat="48.3737" lon="-3.96632">
        <ele>260.39999389648</ele>
        <time>2021-09-12T11:44:31Z</time>
      </trkpt>
      <trkpt lat="48.37368" lon="-3.96636">
        <ele>260</ele>
        <time>2021-09-12T11:44:32Z</time>
      </trkpt>
      <trkpt lat="48.37365" lon="-3.9664">
        <ele>260</ele>
        <time>2021-09-12T11:44:33Z</time>
      </trkpt>
      <trkpt lat="48.37363" lon="-3.96645">
        <ele>259.79998779297</ele>
        <time>2021-09-12T11:44:34Z</time>
      </trkpt>
      <trkpt lat="48.3736" lon="-3.9665">
        <ele>259.39999389648</ele>
        <time>2021-09-12T11:44:35Z</time>
      </trkpt>
      <trkpt lat="48.37358" lon="-3.96655">
        <ele>259.20001220703</ele>
        <time>2021-09-12T11:44:36Z</time>
      </trkpt>
      <trkpt lat="48.37356" lon="-3.96661">
        <ele>259</ele>
        <time>2021-09-12T11:44:37Z</time>
      </trkpt>
      <trkpt lat="48.37353" lon="-3.96666">
        <ele>259</ele>
        <time>2021-09-12T11:44:38Z</time>
      </trkpt>
      <trkpt lat="48.3735" lon="-3.96671">
        <ele>258.79998779297</ele>
        <time>2021-09-12T11:44:39Z</time>
      </trkpt>
      <trkpt lat="48.37348" lon="-3.96676">
        <ele>258.79998779297</ele>
        <time>2021-09-12T11:44:40Z</time>
      </trkpt>
      <trkpt lat="48.37346" lon="-3.96682">
        <ele>258.79998779297</ele>
        <time>2021-09-12T11:44:41Z</time>
      </trkpt>
      <trkpt lat="48.37345" lon="-3.96687">
        <ele>258</ele>
        <time>2021-09-12T11:44:42Z</time>
      </trkpt>
      <trkpt lat="48.37343" lon="-3.96691">
        <ele>258</ele>
        <time>2021-09-12T11:44:43Z</time>
      </trkpt>
      <trkpt lat="48.37341" lon="-3.96696">
        <ele>258</ele>
        <time>2021-09-12T11:44:44Z</time>
      </trkpt>
      <trkpt lat="48.37339" lon="-3.967">
        <ele>257.79998779297</ele>
        <time>2021-09-12T11:44:45Z</time>
      </trkpt>
      <trkpt lat="48.37336" lon="-3.96704">
        <ele>257.39999389648</ele>
        <time>2021-09-12T11:44:46Z</time>
      </trkpt>
      <trkpt lat="48.37335" lon="-3.96709">
        <ele>257.39999389648</ele>
        <time>2021-09-12T11:44:47Z</time>
      </trkpt>
      <trkpt lat="48.37333" lon="-3.96714">
        <ele>257.20001220703</ele>
        <time>2021-09-12T11:44:48Z</time>
      </trkpt>
      <trkpt lat="48.37331" lon="-3.96719">
        <ele>257</ele>
        <time>2021-09-12T11:44:49Z</time>
      </trkpt>
      <trkpt lat="48.37329" lon="-3.96724">
        <ele>257</ele>
        <time>2021-09-12T11:44:50Z</time>
      </trkpt>
      <trkpt lat="48.37327" lon="-3.96728">
        <ele>256.79998779297</ele>
        <time>2021-09-12T11:44:51Z</time>
      </trkpt>
      <trkpt lat="48.37325" lon="-3.96732">
        <ele>256.60000610352</ele>
        <time>2021-09-12T11:44:52Z</time>
      </trkpt>
      <trkpt lat="48.37323" lon="-3.96737">
        <ele>256.60000610352</ele>
        <time>2021-09-12T11:44:53Z</time>
      </trkpt>
      <trkpt lat="48.3732" lon="-3.96741">
        <ele>256.60000610352</ele>
        <time>2021-09-12T11:44:54Z</time>
      </trkpt>
      <trkpt lat="48.37318" lon="-3.96746">
        <ele>256.20001220703</ele>
        <time>2021-09-12T11:44:55Z</time>
      </trkpt>
      <trkpt lat="48.37316" lon="-3.96751">
        <ele>256.20001220703</ele>
        <time>2021-09-12T11:44:56Z</time>
      </trkpt>
      <trkpt lat="48.37313" lon="-3.96757">
        <ele>256.20001220703</ele>
        <time>2021-09-12T11:44:57Z</time>
      </trkpt>
      <trkpt lat="48.37311" lon="-3.96761">
        <ele>256</ele>
        <time>2021-09-12T11:44:58Z</time>
      </trkpt>
      <trkpt lat="48.37309" lon="-3.96766">
        <ele>256</ele>
        <time>2021-09-12T11:44:59Z</time>
      </trkpt>
      <trkpt lat="48.37306" lon="-3.96771">
        <ele>255.60000610352</ele>
        <time>2021-09-12T11:45:00Z</time>
      </trkpt>
      <trkpt lat="48.37304" lon="-3.96775">
        <ele>255.39999389648</ele>
        <time>2021-09-12T11:45:01Z</time>
      </trkpt>
      <trkpt lat="48.37302" lon="-3.96779">
        <ele>255.39999389648</ele>
        <time>2021-09-12T11:45:02Z</time>
      </trkpt>
      <trkpt lat="48.37299" lon="-3.96784">
        <ele>255.19999694824</ele>
        <time>2021-09-12T11:45:03Z</time>
      </trkpt>
      <trkpt lat="48.37298" lon="-3.96788">
        <ele>255</ele>
        <time>2021-09-12T11:45:04Z</time>
      </trkpt>
      <trkpt lat="48.37296" lon="-3.96793">
        <ele>255</ele>
        <time>2021-09-12T11:45:05Z</time>
      </trkpt>
      <trkpt lat="48.37294" lon="-3.96798">
        <ele>254.80000305176</ele>
        <time>2021-09-12T11:45:06Z</time>
      </trkpt>
      <trkpt lat="48.37291" lon="-3.96802">
        <ele>254.60000610352</ele>
        <time>2021-09-12T11:45:07Z</time>
      </trkpt>
      <trkpt lat="48.37289" lon="-3.96806">
        <ele>254.60000610352</ele>
        <time>2021-09-12T11:45:08Z</time>
      </trkpt>
      <trkpt lat="48.37287" lon="-3.96811">
        <ele>254.39999389648</ele>
        <time>2021-09-12T11:45:09Z</time>
      </trkpt>
      <trkpt lat="48.37285" lon="-3.96817">
        <ele>254.39999389648</ele>
        <time>2021-09-12T11:45:10Z</time>
      </trkpt>
      <trkpt lat="48.37283" lon="-3.96822">
        <ele>254.19999694824</ele>
        <time>2021-09-12T11:45:11Z</time>
      </trkpt>
      <trkpt lat="48.37281" lon="-3.96827">
        <ele>254.19999694824</ele>
        <time>2021-09-12T11:45:12Z</time>
      </trkpt>
      <trkpt lat="48.37279" lon="-3.96832">
        <ele>253.60000610352</ele>
        <time>2021-09-12T11:45:13Z</time>
      </trkpt>
      <trkpt lat="48.37277" lon="-3.96836">
        <ele>253.39999389648</ele>
        <time>2021-09-12T11:45:14Z</time>
      </trkpt>
      <trkpt lat="48.37276" lon="-3.96839">
        <ele>253.39999389648</ele>
        <time>2021-09-12T11:45:15Z</time>
      </trkpt>
      <trkpt lat="48.37274" lon="-3.96841">
        <ele>253.39999389648</ele>
        <time>2021-09-12T11:45:16Z</time>
      </trkpt>
      <trkpt lat="48.37273" lon="-3.96842">
        <ele>253.19999694824</ele>
        <time>2021-09-12T11:45:17Z</time>
      </trkpt>
      <trkpt lat="48.37272" lon="-3.96843">
        <ele>253</ele>
        <time>2021-09-12T11:45:18Z</time>
      </trkpt>
      <trkpt lat="48.37271" lon="-3.96845">
        <ele>252.80000305176</ele>
        <time>2021-09-12T11:45:19Z</time>
      </trkpt>
      <trkpt lat="48.3727" lon="-3.96848">
        <ele>252.80000305176</ele>
        <time>2021-09-12T11:45:20Z</time>
      </trkpt>
      <trkpt lat="48.37268" lon="-3.96851">
        <ele>252.80000305176</ele>
        <time>2021-09-12T11:45:21Z</time>
      </trkpt>
      <trkpt lat="48.37266" lon="-3.96856">
        <ele>252.60000610352</ele>
        <time>2021-09-12T11:45:22Z</time>
      </trkpt>
      <trkpt lat="48.37264" lon="-3.96861">
        <ele>252.60000610352</ele>
        <time>2021-09-12T11:45:23Z</time>
      </trkpt>
      <trkpt lat="48.37262" lon="-3.96866">
        <ele>252.39999389648</ele>
        <time>2021-09-12T11:45:24Z</time>
      </trkpt>
      <trkpt lat="48.37259" lon="-3.96871">
        <ele>252.19999694824</ele>
        <time>2021-09-12T11:45:25Z</time>
      </trkpt>
      <trkpt lat="48.37256" lon="-3.96876">
        <ele>252</ele>
        <time>2021-09-12T11:45:26Z</time>
      </trkpt>
      <trkpt lat="48.37253" lon="-3.96881">
        <ele>252</ele>
        <time>2021-09-12T11:45:27Z</time>
      </trkpt>
      <trkpt lat="48.37251" lon="-3.96886">
        <ele>251.80000305176</ele>
        <time>2021-09-12T11:45:28Z</time>
      </trkpt>
      <trkpt lat="48.37249" lon="-3.96891">
        <ele>251.39999389648</ele>
        <time>2021-09-12T11:45:29Z</time>
      </trkpt>
      <trkpt lat="48.37247" lon="-3.96896">
        <ele>251.39999389648</ele>
        <time>2021-09-12T11:45:30Z</time>
      </trkpt>
      <trkpt lat="48.37245" lon="-3.969">
        <ele>251.19999694824</ele>
        <time>2021-09-12T11:45:31Z</time>
      </trkpt>
      <trkpt lat="48.37243" lon="-3.96904">
        <ele>251.19999694824</ele>
        <time>2021-09-12T11:45:32Z</time>
      </trkpt>
      <trkpt lat="48.3724" lon="-3.96908">
        <ele>250.80000305176</ele>
        <time>2021-09-12T11:45:33Z</time>
      </trkpt>
      <trkpt lat="48.37238" lon="-3.96911">
        <ele>250.80000305176</ele>
        <time>2021-09-12T11:45:34Z</time>
      </trkpt>
      <trkpt lat="48.37236" lon="-3.96915">
        <ele>250.80000305176</ele>
        <time>2021-09-12T11:45:35Z</time>
      </trkpt>
      <trkpt lat="48.37234" lon="-3.96918">
        <ele>250.80000305176</ele>
        <time>2021-09-12T11:45:36Z</time>
      </trkpt>
      <trkpt lat="48.37232" lon="-3.96921">
        <ele>250.60000610352</ele>
        <time>2021-09-12T11:45:37Z</time>
      </trkpt>
      <trkpt lat="48.37229" lon="-3.96925">
        <ele>250.60000610352</ele>
        <time>2021-09-12T11:45:38Z</time>
      </trkpt>
      <trkpt lat="48.37225" lon="-3.96927">
        <ele>250.60000610352</ele>
        <time>2021-09-12T11:45:39Z</time>
      </trkpt>
      <trkpt lat="48.37222" lon="-3.9693">
        <ele>250.60000610352</ele>
        <time>2021-09-12T11:45:40Z</time>
      </trkpt>
      <trkpt lat="48.37219" lon="-3.96933">
        <ele>250.60000610352</ele>
        <time>2021-09-12T11:45:41Z</time>
      </trkpt>
      <trkpt lat="48.37217" lon="-3.96937">
        <ele>250.39999389648</ele>
        <time>2021-09-12T11:45:42Z</time>
      </trkpt>
      <trkpt lat="48.37214" lon="-3.96941">
        <ele>250.60000610352</ele>
        <time>2021-09-12T11:45:43Z</time>
      </trkpt>
      <trkpt lat="48.3721" lon="-3.96944">
        <ele>250.39999389648</ele>
        <time>2021-09-12T11:45:44Z</time>
      </trkpt>
      <trkpt lat="48.37207" lon="-3.96946">
        <ele>250.60000610352</ele>
        <time>2021-09-12T11:45:45Z</time>
      </trkpt>
      <trkpt lat="48.37204" lon="-3.96949">
        <ele>250.60000610352</ele>
        <time>2021-09-12T11:45:46Z</time>
      </trkpt>
      <trkpt lat="48.37201" lon="-3.96952">
        <ele>250.60000610352</ele>
        <time>2021-09-12T11:45:47Z</time>
      </trkpt>
      <trkpt lat="48.37198" lon="-3.96955">
        <ele>250.80000305176</ele>
        <time>2021-09-12T11:45:48Z</time>
      </trkpt>
      <trkpt lat="48.37196" lon="-3.96958">
        <ele>250.80000305176</ele>
        <time>2021-09-12T11:45:49Z</time>
      </trkpt>
      <trkpt lat="48.37193" lon="-3.9696">
        <ele>251</ele>
        <time>2021-09-12T11:45:50Z</time>
      </trkpt>
      <trkpt lat="48.3719" lon="-3.96963">
        <ele>251.19999694824</ele>
        <time>2021-09-12T11:45:51Z</time>
      </trkpt>
      <trkpt lat="48.37188" lon="-3.96966">
        <ele>251.19999694824</ele>
        <time>2021-09-12T11:45:52Z</time>
      </trkpt>
      <trkpt lat="48.37185" lon="-3.96969">
        <ele>251.19999694824</ele>
        <time>2021-09-12T11:45:53Z</time>
      </trkpt>
      <trkpt lat="48.37183" lon="-3.96973">
        <ele>251.39999389648</ele>
        <time>2021-09-12T11:45:54Z</time>
      </trkpt>
      <trkpt lat="48.3718" lon="-3.96977">
        <ele>251.39999389648</ele>
        <time>2021-09-12T11:45:55Z</time>
      </trkpt>
      <trkpt lat="48.37178" lon="-3.9698">
        <ele>251.39999389648</ele>
        <time>2021-09-12T11:45:56Z</time>
      </trkpt>
      <trkpt lat="48.37175" lon="-3.96985">
        <ele>251.39999389648</ele>
        <time>2021-09-12T11:45:57Z</time>
      </trkpt>
      <trkpt lat="48.37172" lon="-3.96989">
        <ele>251.39999389648</ele>
        <time>2021-09-12T11:45:58Z</time>
      </trkpt>
      <trkpt lat="48.3717" lon="-3.96994">
        <ele>251.39999389648</ele>
        <time>2021-09-12T11:45:59Z</time>
      </trkpt>
      <trkpt lat="48.37167" lon="-3.96998">
        <ele>251.39999389648</ele>
        <time>2021-09-12T11:46:00Z</time>
      </trkpt>
      <trkpt lat="48.37165" lon="-3.97002">
        <ele>251.19999694824</ele>
        <time>2021-09-12T11:46:01Z</time>
      </trkpt>
      <trkpt lat="48.37163" lon="-3.97007">
        <ele>251.19999694824</ele>
        <time>2021-09-12T11:46:02Z</time>
      </trkpt>
      <trkpt lat="48.3716" lon="-3.97012">
        <ele>250.80000305176</ele>
        <time>2021-09-12T11:46:03Z</time>
      </trkpt>
      <trkpt lat="48.37158" lon="-3.97016">
        <ele>250.80000305176</ele>
        <time>2021-09-12T11:46:04Z</time>
      </trkpt>
      <trkpt lat="48.37155" lon="-3.97021">
        <ele>250.80000305176</ele>
        <time>2021-09-12T11:46:05Z</time>
      </trkpt>
      <trkpt lat="48.37152" lon="-3.97027">
        <ele>250.60000610352</ele>
        <time>2021-09-12T11:46:06Z</time>
      </trkpt>
      <trkpt lat="48.37149" lon="-3.97032">
        <ele>250.39999389648</ele>
        <time>2021-09-12T11:46:07Z</time>
      </trkpt>
      <trkpt lat="48.37146" lon="-3.97038">
        <ele>250.19999694824</ele>
        <time>2021-09-12T11:46:08Z</time>
      </trkpt>
      <trkpt lat="48.37143" lon="-3.97044">
        <ele>250</ele>
        <time>2021-09-12T11:46:09Z</time>
      </trkpt>
      <trkpt lat="48.3714" lon="-3.97049">
        <ele>249.80000305176</ele>
        <time>2021-09-12T11:46:10Z</time>
      </trkpt>
      <trkpt lat="48.37137" lon="-3.97055">
        <ele>249.80000305176</ele>
        <time>2021-09-12T11:46:11Z</time>
      </trkpt>
      <trkpt lat="48.37135" lon="-3.97061">
        <ele>249.80000305176</ele>
        <time>2021-09-12T11:46:12Z</time>
      </trkpt>
      <trkpt lat="48.37132" lon="-3.97067">
        <ele>249.60000610352</ele>
        <time>2021-09-12T11:46:13Z</time>
      </trkpt>
      <trkpt lat="48.3713" lon="-3.97073">
        <ele>249</ele>
        <time>2021-09-12T11:46:14Z</time>
      </trkpt>
      <trkpt lat="48.37128" lon="-3.97079">
        <ele>249</ele>
        <time>2021-09-12T11:46:15Z</time>
      </trkpt>
      <trkpt lat="48.37125" lon="-3.97086">
        <ele>249</ele>
        <time>2021-09-12T11:46:16Z</time>
      </trkpt>
      <trkpt lat="48.37122" lon="-3.97093">
        <ele>248.39999389648</ele>
        <time>2021-09-12T11:46:17Z</time>
      </trkpt>
      <trkpt lat="48.3712" lon="-3.97099">
        <ele>248.39999389648</ele>
        <time>2021-09-12T11:46:18Z</time>
      </trkpt>
      <trkpt lat="48.37117" lon="-3.97107">
        <ele>248.39999389648</ele>
        <time>2021-09-12T11:46:19Z</time>
      </trkpt>
      <trkpt lat="48.37115" lon="-3.97114">
        <ele>248</ele>
        <time>2021-09-12T11:46:20Z</time>
      </trkpt>
      <trkpt lat="48.37113" lon="-3.97121">
        <ele>247.80000305176</ele>
        <time>2021-09-12T11:46:21Z</time>
      </trkpt>
      <trkpt lat="48.3711" lon="-3.97128">
        <ele>247.60000610352</ele>
        <time>2021-09-12T11:46:22Z</time>
      </trkpt>
      <trkpt lat="48.37108" lon="-3.97136">
        <ele>247.19999694824</ele>
        <time>2021-09-12T11:46:23Z</time>
      </trkpt>
      <trkpt lat="48.37105" lon="-3.97144">
        <ele>247</ele>
        <time>2021-09-12T11:46:24Z</time>
      </trkpt>
      <trkpt lat="48.37101" lon="-3.97151">
        <ele>246.80000305176</ele>
        <time>2021-09-12T11:46:25Z</time>
      </trkpt>
      <trkpt lat="48.37098" lon="-3.97159">
        <ele>246.60000610352</ele>
        <time>2021-09-12T11:46:26Z</time>
      </trkpt>
      <trkpt lat="48.37094" lon="-3.97166">
        <ele>246.19999694824</ele>
        <time>2021-09-12T11:46:27Z</time>
      </trkpt>
      <trkpt lat="48.3709" lon="-3.97173">
        <ele>245.80000305176</ele>
        <time>2021-09-12T11:46:28Z</time>
      </trkpt>
      <trkpt lat="48.37086" lon="-3.97179">
        <ele>245.80000305176</ele>
        <time>2021-09-12T11:46:29Z</time>
      </trkpt>
      <trkpt lat="48.37082" lon="-3.97185">
        <ele>245.60000610352</ele>
        <time>2021-09-12T11:46:30Z</time>
      </trkpt>
      <trkpt lat="48.37077" lon="-3.97191">
        <ele>245.60000610352</ele>
        <time>2021-09-12T11:46:31Z</time>
      </trkpt>
      <trkpt lat="48.37073" lon="-3.97197">
        <ele>245.39999389648</ele>
        <time>2021-09-12T11:46:32Z</time>
      </trkpt>
      <trkpt lat="48.37069" lon="-3.97202">
        <ele>245.19999694824</ele>
        <time>2021-09-12T11:46:33Z</time>
      </trkpt>
      <trkpt lat="48.37064" lon="-3.97206">
        <ele>245.19999694824</ele>
        <time>2021-09-12T11:46:34Z</time>
      </trkpt>
      <trkpt lat="48.37061" lon="-3.9721">
        <ele>244.80000305176</ele>
        <time>2021-09-12T11:46:35Z</time>
      </trkpt>
      <trkpt lat="48.37057" lon="-3.97215">
        <ele>244.60000610352</ele>
        <time>2021-09-12T11:46:36Z</time>
      </trkpt>
      <trkpt lat="48.37054" lon="-3.9722">
        <ele>244.39999389648</ele>
        <time>2021-09-12T11:46:37Z</time>
      </trkpt>
      <trkpt lat="48.37049" lon="-3.97225">
        <ele>244.19999694824</ele>
        <time>2021-09-12T11:46:38Z</time>
      </trkpt>
      <trkpt lat="48.37045" lon="-3.97229">
        <ele>244</ele>
        <time>2021-09-12T11:46:39Z</time>
      </trkpt>
      <trkpt lat="48.37041" lon="-3.97234">
        <ele>243.80000305176</ele>
        <time>2021-09-12T11:46:40Z</time>
      </trkpt>
      <trkpt lat="48.37036" lon="-3.97239">
        <ele>243.80000305176</ele>
        <time>2021-09-12T11:46:41Z</time>
      </trkpt>
      <trkpt lat="48.37032" lon="-3.97243">
        <ele>243.80000305176</ele>
        <time>2021-09-12T11:46:42Z</time>
      </trkpt>
      <trkpt lat="48.37027" lon="-3.97248">
        <ele>243.60000610352</ele>
        <time>2021-09-12T11:46:43Z</time>
      </trkpt>
      <trkpt lat="48.37023" lon="-3.97253">
        <ele>243.39999389648</ele>
        <time>2021-09-12T11:46:44Z</time>
      </trkpt>
      <trkpt lat="48.37019" lon="-3.97258">
        <ele>243.19999694824</ele>
        <time>2021-09-12T11:46:45Z</time>
      </trkpt>
      <trkpt lat="48.37015" lon="-3.97263">
        <ele>242.80000305176</ele>
        <time>2021-09-12T11:46:46Z</time>
      </trkpt>
      <trkpt lat="48.37011" lon="-3.97268">
        <ele>242.60000610352</ele>
        <time>2021-09-12T11:46:47Z</time>
      </trkpt>
      <trkpt lat="48.37006" lon="-3.97273">
        <ele>242.60000610352</ele>
        <time>2021-09-12T11:46:48Z</time>
      </trkpt>
      <trkpt lat="48.37001" lon="-3.97279">
        <ele>242.39999389648</ele>
        <time>2021-09-12T11:46:49Z</time>
      </trkpt>
      <trkpt lat="48.36997" lon="-3.97284">
        <ele>242.19999694824</ele>
        <time>2021-09-12T11:46:50Z</time>
      </trkpt>
      <trkpt lat="48.36992" lon="-3.9729">
        <ele>241.80000305176</ele>
        <time>2021-09-12T11:46:51Z</time>
      </trkpt>
      <trkpt lat="48.36988" lon="-3.97295">
        <ele>241.80000305176</ele>
        <time>2021-09-12T11:46:52Z</time>
      </trkpt>
      <trkpt lat="48.36983" lon="-3.973">
        <ele>241.19999694824</ele>
        <time>2021-09-12T11:46:53Z</time>
      </trkpt>
      <trkpt lat="48.36979" lon="-3.97306">
        <ele>241.19999694824</ele>
        <time>2021-09-12T11:46:54Z</time>
      </trkpt>
      <trkpt lat="48.36974" lon="-3.97311">
        <ele>240.80000305176</ele>
        <time>2021-09-12T11:46:55Z</time>
      </trkpt>
      <trkpt lat="48.36968" lon="-3.97316">
        <ele>240.39999389648</ele>
        <time>2021-09-12T11:46:56Z</time>
      </trkpt>
      <trkpt lat="48.36962" lon="-3.97321">
        <ele>240.19999694824</ele>
        <time>2021-09-12T11:46:57Z</time>
      </trkpt>
      <trkpt lat="48.36957" lon="-3.97327">
        <ele>239.80000305176</ele>
        <time>2021-09-12T11:46:58Z</time>
      </trkpt>
      <trkpt lat="48.36952" lon="-3.97332">
        <ele>239.60000610352</ele>
        <time>2021-09-12T11:46:59Z</time>
      </trkpt>
      <trkpt lat="48.36946" lon="-3.97338">
        <ele>239.39999389648</ele>
        <time>2021-09-12T11:47:00Z</time>
      </trkpt>
      <trkpt lat="48.3694" lon="-3.97344">
        <ele>239.39999389648</ele>
        <time>2021-09-12T11:47:01Z</time>
      </trkpt>
      <trkpt lat="48.36934" lon="-3.97352">
        <ele>238.60000610352</ele>
        <time>2021-09-12T11:47:02Z</time>
      </trkpt>
      <trkpt lat="48.36929" lon="-3.97358">
        <ele>238.60000610352</ele>
        <time>2021-09-12T11:47:03Z</time>
      </trkpt>
      <trkpt lat="48.36924" lon="-3.97365">
        <ele>238.39999389648</ele>
        <time>2021-09-12T11:47:04Z</time>
      </trkpt>
      <trkpt lat="48.36919" lon="-3.97372">
        <ele>238.19999694824</ele>
        <time>2021-09-12T11:47:05Z</time>
      </trkpt>
      <trkpt lat="48.36913" lon="-3.97377">
        <ele>238.19999694824</ele>
        <time>2021-09-12T11:47:06Z</time>
      </trkpt>
      <trkpt lat="48.36908" lon="-3.97382">
        <ele>238.19999694824</ele>
        <time>2021-09-12T11:47:07Z</time>
      </trkpt>
      <trkpt lat="48.36903" lon="-3.97387">
        <ele>238</ele>
        <time>2021-09-12T11:47:08Z</time>
      </trkpt>
      <trkpt lat="48.36898" lon="-3.97391">
        <ele>238</ele>
        <time>2021-09-12T11:47:09Z</time>
      </trkpt>
      <trkpt lat="48.36894" lon="-3.97395">
        <ele>238</ele>
        <time>2021-09-12T11:47:10Z</time>
      </trkpt>
      <trkpt lat="48.3689" lon="-3.97399">
        <ele>238</ele>
        <time>2021-09-12T11:47:11Z</time>
      </trkpt>
      <trkpt lat="48.36887" lon="-3.97403">
        <ele>238</ele>
        <time>2021-09-12T11:47:12Z</time>
      </trkpt>
      <trkpt lat="48.36883" lon="-3.97406">
        <ele>238</ele>
        <time>2021-09-12T11:47:13Z</time>
      </trkpt>
      <trkpt lat="48.36879" lon="-3.97411">
        <ele>238</ele>
        <time>2021-09-12T11:47:14Z</time>
      </trkpt>
      <trkpt lat="48.36875" lon="-3.97414">
        <ele>238.19999694824</ele>
        <time>2021-09-12T11:47:15Z</time>
      </trkpt>
      <trkpt lat="48.36871" lon="-3.97418">
        <ele>238.19999694824</ele>
        <time>2021-09-12T11:47:16Z</time>
      </trkpt>
      <trkpt lat="48.36866" lon="-3.97422">
        <ele>238.39999389648</ele>
        <time>2021-09-12T11:47:17Z</time>
      </trkpt>
      <trkpt lat="48.36863" lon="-3.97425">
        <ele>238.39999389648</ele>
        <time>2021-09-12T11:47:18Z</time>
      </trkpt>
      <trkpt lat="48.36859" lon="-3.97429">
        <ele>238.39999389648</ele>
        <time>2021-09-12T11:47:19Z</time>
      </trkpt>
      <trkpt lat="48.36855" lon="-3.97432">
        <ele>238.80000305176</ele>
        <time>2021-09-12T11:47:20Z</time>
      </trkpt>
      <trkpt lat="48.36852" lon="-3.97435">
        <ele>239</ele>
        <time>2021-09-12T11:47:21Z</time>
      </trkpt>
      <trkpt lat="48.36848" lon="-3.97438">
        <ele>239.19999694824</ele>
        <time>2021-09-12T11:47:22Z</time>
      </trkpt>
      <trkpt lat="48.36844" lon="-3.97442">
        <ele>239.19999694824</ele>
        <time>2021-09-12T11:47:23Z</time>
      </trkpt>
      <trkpt lat="48.36841" lon="-3.97445">
        <ele>239.39999389648</ele>
        <time>2021-09-12T11:47:24Z</time>
      </trkpt>
      <trkpt lat="48.36837" lon="-3.9745">
        <ele>239.39999389648</ele>
        <time>2021-09-12T11:47:25Z</time>
      </trkpt>
      <trkpt lat="48.36833" lon="-3.97453">
        <ele>239.80000305176</ele>
        <time>2021-09-12T11:47:26Z</time>
      </trkpt>
      <trkpt lat="48.36829" lon="-3.97456">
        <ele>239.80000305176</ele>
        <time>2021-09-12T11:47:27Z</time>
      </trkpt>
      <trkpt lat="48.36826" lon="-3.97458">
        <ele>240</ele>
        <time>2021-09-12T11:47:28Z</time>
      </trkpt>
      <trkpt lat="48.36823" lon="-3.97461">
        <ele>240.39999389648</ele>
        <time>2021-09-12T11:47:29Z</time>
      </trkpt>
      <trkpt lat="48.36819" lon="-3.97464">
        <ele>240.39999389648</ele>
        <time>2021-09-12T11:47:30Z</time>
      </trkpt>
      <trkpt lat="48.36816" lon="-3.97467">
        <ele>240.39999389648</ele>
        <time>2021-09-12T11:47:31Z</time>
      </trkpt>
      <trkpt lat="48.36813" lon="-3.9747">
        <ele>240.60000610352</ele>
        <time>2021-09-12T11:47:32Z</time>
      </trkpt>
      <trkpt lat="48.3681" lon="-3.97474">
        <ele>240.60000610352</ele>
        <time>2021-09-12T11:47:33Z</time>
      </trkpt>
      <trkpt lat="48.36807" lon="-3.97477">
        <ele>240.60000610352</ele>
        <time>2021-09-12T11:47:34Z</time>
      </trkpt>
      <trkpt lat="48.36804" lon="-3.9748">
        <ele>240.80000305176</ele>
        <time>2021-09-12T11:47:35Z</time>
      </trkpt>
      <trkpt lat="48.36801" lon="-3.97484">
        <ele>240.80000305176</ele>
        <time>2021-09-12T11:47:36Z</time>
      </trkpt>
      <trkpt lat="48.36799" lon="-3.97487">
        <ele>241</ele>
        <time>2021-09-12T11:47:37Z</time>
      </trkpt>
      <trkpt lat="48.36798" lon="-3.97491">
        <ele>240.80000305176</ele>
        <time>2021-09-12T11:47:38Z</time>
      </trkpt>
      <trkpt lat="48.36796" lon="-3.97495">
        <ele>240.80000305176</ele>
        <time>2021-09-12T11:47:39Z</time>
      </trkpt>
      <trkpt lat="48.36795" lon="-3.97498">
        <ele>241</ele>
        <time>2021-09-12T11:47:40Z</time>
      </trkpt>
      <trkpt lat="48.36795" lon="-3.97501">
        <ele>241</ele>
        <time>2021-09-12T11:47:41Z</time>
      </trkpt>
      <trkpt lat="48.36794" lon="-3.97503">
        <ele>241</ele>
        <time>2021-09-12T11:47:42Z</time>
      </trkpt>
      <trkpt lat="48.36794" lon="-3.97505">
        <ele>240.80000305176</ele>
        <time>2021-09-12T11:47:43Z</time>
      </trkpt>
      <trkpt lat="48.36793" lon="-3.97508">
        <ele>240.80000305176</ele>
        <time>2021-09-12T11:47:44Z</time>
      </trkpt>
      <trkpt lat="48.36792" lon="-3.9751">
        <ele>241</ele>
        <time>2021-09-12T11:47:45Z</time>
      </trkpt>
      <trkpt lat="48.3679" lon="-3.97512">
        <ele>241</ele>
        <time>2021-09-12T11:47:46Z</time>
      </trkpt>
      <trkpt lat="48.36789" lon="-3.97513">
        <ele>241</ele>
        <time>2021-09-12T11:47:47Z</time>
      </trkpt>
      <trkpt lat="48.36787" lon="-3.97516">
        <ele>241</ele>
        <time>2021-09-12T11:47:48Z</time>
      </trkpt>
      <trkpt lat="48.36787" lon="-3.97518">
        <ele>241</ele>
        <time>2021-09-12T11:47:49Z</time>
      </trkpt>
      <trkpt lat="48.36787" lon="-3.97521">
        <ele>241.19999694824</ele>
        <time>2021-09-12T11:47:50Z</time>
      </trkpt>
      <trkpt lat="48.36787" lon="-3.97523">
        <ele>241.19999694824</ele>
        <time>2021-09-12T11:47:51Z</time>
      </trkpt>
      <trkpt lat="48.36787" lon="-3.97526">
        <ele>241</ele>
        <time>2021-09-12T11:47:52Z</time>
      </trkpt>
      <trkpt lat="48.36787" lon="-3.97528">
        <ele>241</ele>
        <time>2021-09-12T11:47:53Z</time>
      </trkpt>
      <trkpt lat="48.36787" lon="-3.9753">
        <ele>241</ele>
        <time>2021-09-12T11:47:54Z</time>
      </trkpt>
      <trkpt lat="48.36786" lon="-3.97533">
        <ele>241</ele>
        <time>2021-09-12T11:47:55Z</time>
      </trkpt>
      <trkpt lat="48.36785" lon="-3.97534">
        <ele>241</ele>
        <time>2021-09-12T11:47:56Z</time>
      </trkpt>
      <trkpt lat="48.36784" lon="-3.97534">
        <ele>241</ele>
        <time>2021-09-12T11:47:57Z</time>
      </trkpt>
      <trkpt lat="48.36783" lon="-3.97535">
        <ele>240.80000305176</ele>
        <time>2021-09-12T11:47:58Z</time>
      </trkpt>
      <trkpt lat="48.36783" lon="-3.97535">
        <ele>241</ele>
        <time>2021-09-12T11:47:59Z</time>
      </trkpt>
      <trkpt lat="48.36783" lon="-3.97535">
        <ele>241</ele>
        <time>2021-09-12T11:48:00Z</time>
      </trkpt>
      <trkpt lat="48.3677" lon="-3.97533">
        <ele>242.39999389648</ele>
        <time>2021-09-12T11:57:34Z</time>
      </trkpt>
      <trkpt lat="48.36767" lon="-3.97533">
        <ele>242.39999389648</ele>
        <time>2021-09-12T11:57:35Z</time>
      </trkpt>
      <trkpt lat="48.36765" lon="-3.97533">
        <ele>242.60000610352</ele>
        <time>2021-09-12T11:57:36Z</time>
      </trkpt>
      <trkpt lat="48.36763" lon="-3.97533">
        <ele>242.60000610352</ele>
        <time>2021-09-12T11:57:37Z</time>
      </trkpt>
      <trkpt lat="48.36761" lon="-3.97533">
        <ele>243</ele>
        <time>2021-09-12T11:57:38Z</time>
      </trkpt>
      <trkpt lat="48.36759" lon="-3.97534">
        <ele>243</ele>
        <time>2021-09-12T11:57:39Z</time>
      </trkpt>
      <trkpt lat="48.36757" lon="-3.97534">
        <ele>243</ele>
        <time>2021-09-12T11:57:40Z</time>
      </trkpt>
      <trkpt lat="48.36754" lon="-3.97534">
        <ele>243.19999694824</ele>
        <time>2021-09-12T11:57:41Z</time>
      </trkpt>
      <trkpt lat="48.36751" lon="-3.97534">
        <ele>243.39999389648</ele>
        <time>2021-09-12T11:57:42Z</time>
      </trkpt>
      <trkpt lat="48.36748" lon="-3.97535">
        <ele>243.39999389648</ele>
        <time>2021-09-12T11:57:43Z</time>
      </trkpt>
      <trkpt lat="48.36746" lon="-3.97536">
        <ele>243.60000610352</ele>
        <time>2021-09-12T11:57:44Z</time>
      </trkpt>
      <trkpt lat="48.36743" lon="-3.97537">
        <ele>243.60000610352</ele>
        <time>2021-09-12T11:57:45Z</time>
      </trkpt>
      <trkpt lat="48.3674" lon="-3.97538">
        <ele>243.60000610352</ele>
        <time>2021-09-12T11:57:46Z</time>
      </trkpt>
      <trkpt lat="48.36738" lon="-3.97538">
        <ele>243.60000610352</ele>
        <time>2021-09-12T11:57:47Z</time>
      </trkpt>
      <trkpt lat="48.36734" lon="-3.97539">
        <ele>244</ele>
        <time>2021-09-12T11:57:48Z</time>
      </trkpt>
      <trkpt lat="48.36731" lon="-3.97539">
        <ele>244.19999694824</ele>
        <time>2021-09-12T11:57:49Z</time>
      </trkpt>
      <trkpt lat="48.36728" lon="-3.97539">
        <ele>244.19999694824</ele>
        <time>2021-09-12T11:57:50Z</time>
      </trkpt>
      <trkpt lat="48.36725" lon="-3.97539">
        <ele>244.19999694824</ele>
        <time>2021-09-12T11:57:51Z</time>
      </trkpt>
      <trkpt lat="48.36722" lon="-3.97539">
        <ele>244.39999389648</ele>
        <time>2021-09-12T11:57:52Z</time>
      </trkpt>
      <trkpt lat="48.36719" lon="-3.9754">
        <ele>244.60000610352</ele>
        <time>2021-09-12T11:57:53Z</time>
      </trkpt>
      <trkpt lat="48.36716" lon="-3.97539">
        <ele>244.60000610352</ele>
        <time>2021-09-12T11:57:54Z</time>
      </trkpt>
      <trkpt lat="48.36713" lon="-3.97539">
        <ele>244.80000305176</ele>
        <time>2021-09-12T11:57:55Z</time>
      </trkpt>
      <trkpt lat="48.36711" lon="-3.97539">
        <ele>245.19999694824</ele>
        <time>2021-09-12T11:57:56Z</time>
      </trkpt>
      <trkpt lat="48.36708" lon="-3.97539">
        <ele>245.19999694824</ele>
        <time>2021-09-12T11:57:57Z</time>
      </trkpt>
      <trkpt lat="48.36705" lon="-3.97539">
        <ele>245.19999694824</ele>
        <time>2021-09-12T11:57:58Z</time>
      </trkpt>
      <trkpt lat="48.36702" lon="-3.97539">
        <ele>245.39999389648</ele>
        <time>2021-09-12T11:57:59Z</time>
      </trkpt>
      <trkpt lat="48.36699" lon="-3.97539">
        <ele>245.60000610352</ele>
        <time>2021-09-12T11:58:00Z</time>
      </trkpt>
      <trkpt lat="48.36697" lon="-3.97539">
        <ele>245.80000305176</ele>
        <time>2021-09-12T11:58:01Z</time>
      </trkpt>
      <trkpt lat="48.36694" lon="-3.97538">
        <ele>245.80000305176</ele>
        <time>2021-09-12T11:58:02Z</time>
      </trkpt>
      <trkpt lat="48.3669" lon="-3.97538">
        <ele>246.19999694824</ele>
        <time>2021-09-12T11:58:03Z</time>
      </trkpt>
      <trkpt lat="48.36687" lon="-3.97538">
        <ele>246.39999389648</ele>
        <time>2021-09-12T11:58:04Z</time>
      </trkpt>
      <trkpt lat="48.36685" lon="-3.97537">
        <ele>246.39999389648</ele>
        <time>2021-09-12T11:58:05Z</time>
      </trkpt>
      <trkpt lat="48.36682" lon="-3.97537">
        <ele>246.60000610352</ele>
        <time>2021-09-12T11:58:06Z</time>
      </trkpt>
      <trkpt lat="48.3668" lon="-3.97536">
        <ele>246.80000305176</ele>
        <time>2021-09-12T11:58:07Z</time>
      </trkpt>
      <trkpt lat="48.36677" lon="-3.97535">
        <ele>247</ele>
        <time>2021-09-12T11:58:08Z</time>
      </trkpt>
      <trkpt lat="48.36675" lon="-3.97534">
        <ele>247.39999389648</ele>
        <time>2021-09-12T11:58:09Z</time>
      </trkpt>
      <trkpt lat="48.36673" lon="-3.97534">
        <ele>247.80000305176</ele>
        <time>2021-09-12T11:58:10Z</time>
      </trkpt>
      <trkpt lat="48.36671" lon="-3.97532">
        <ele>247.80000305176</ele>
        <time>2021-09-12T11:58:11Z</time>
      </trkpt>
      <trkpt lat="48.36668" lon="-3.97532">
        <ele>248</ele>
        <time>2021-09-12T11:58:12Z</time>
      </trkpt>
      <trkpt lat="48.36666" lon="-3.97531">
        <ele>248</ele>
        <time>2021-09-12T11:58:13Z</time>
      </trkpt>
      <trkpt lat="48.36664" lon="-3.9753">
        <ele>248.19999694824</ele>
        <time>2021-09-12T11:58:14Z</time>
      </trkpt>
      <trkpt lat="48.36661" lon="-3.97529">
        <ele>248.60000610352</ele>
        <time>2021-09-12T11:58:15Z</time>
      </trkpt>
      <trkpt lat="48.36659" lon="-3.97528">
        <ele>248.60000610352</ele>
        <time>2021-09-12T11:58:16Z</time>
      </trkpt>
      <trkpt lat="48.36657" lon="-3.97527">
        <ele>249</ele>
        <time>2021-09-12T11:58:17Z</time>
      </trkpt>
      <trkpt lat="48.36654" lon="-3.97527">
        <ele>249</ele>
        <time>2021-09-12T11:58:18Z</time>
      </trkpt>
      <trkpt lat="48.36652" lon="-3.97526">
        <ele>249.19999694824</ele>
        <time>2021-09-12T11:58:19Z</time>
      </trkpt>
      <trkpt lat="48.36649" lon="-3.97526">
        <ele>249.19999694824</ele>
        <time>2021-09-12T11:58:20Z</time>
      </trkpt>
      <trkpt lat="48.36647" lon="-3.97525">
        <ele>249.19999694824</ele>
        <time>2021-09-12T11:58:21Z</time>
      </trkpt>
      <trkpt lat="48.36645" lon="-3.97523">
        <ele>249.19999694824</ele>
        <time>2021-09-12T11:58:22Z</time>
      </trkpt>
      <trkpt lat="48.36642" lon="-3.97522">
        <ele>249.60000610352</ele>
        <time>2021-09-12T11:58:23Z</time>
      </trkpt>
      <trkpt lat="48.3664" lon="-3.97521">
        <ele>250</ele>
        <time>2021-09-12T11:58:24Z</time>
      </trkpt>
      <trkpt lat="48.36638" lon="-3.9752">
        <ele>250.39999389648</ele>
        <time>2021-09-12T11:58:25Z</time>
      </trkpt>
      <trkpt lat="48.36636" lon="-3.97519">
        <ele>250.60000610352</ele>
        <time>2021-09-12T11:58:26Z</time>
      </trkpt>
      <trkpt lat="48.36634" lon="-3.97519">
        <ele>250.80000305176</ele>
        <time>2021-09-12T11:58:27Z</time>
      </trkpt>
      <trkpt lat="48.36632" lon="-3.97518">
        <ele>251.19999694824</ele>
        <time>2021-09-12T11:58:28Z</time>
      </trkpt>
      <trkpt lat="48.3663" lon="-3.97518">
        <ele>251.19999694824</ele>
        <time>2021-09-12T11:58:29Z</time>
      </trkpt>
      <trkpt lat="48.36627" lon="-3.97517">
        <ele>251.39999389648</ele>
        <time>2021-09-12T11:58:30Z</time>
      </trkpt>
      <trkpt lat="48.36625" lon="-3.97517">
        <ele>251.60000610352</ele>
        <time>2021-09-12T11:58:31Z</time>
      </trkpt>
      <trkpt lat="48.36623" lon="-3.97516">
        <ele>252</ele>
        <time>2021-09-12T11:58:32Z</time>
      </trkpt>
      <trkpt lat="48.36621" lon="-3.97516">
        <ele>252</ele>
        <time>2021-09-12T11:58:33Z</time>
      </trkpt>
      <trkpt lat="48.36619" lon="-3.97515">
        <ele>252.60000610352</ele>
        <time>2021-09-12T11:58:34Z</time>
      </trkpt>
      <trkpt lat="48.36616" lon="-3.97515">
        <ele>252.60000610352</ele>
        <time>2021-09-12T11:58:35Z</time>
      </trkpt>
      <trkpt lat="48.36613" lon="-3.97514">
        <ele>253</ele>
        <time>2021-09-12T11:58:36Z</time>
      </trkpt>
      <trkpt lat="48.36611" lon="-3.97514">
        <ele>253.39999389648</ele>
        <time>2021-09-12T11:58:37Z</time>
      </trkpt>
      <trkpt lat="48.36609" lon="-3.97513">
        <ele>253.39999389648</ele>
        <time>2021-09-12T11:58:38Z</time>
      </trkpt>
      <trkpt lat="48.36606" lon="-3.97512">
        <ele>253.39999389648</ele>
        <time>2021-09-12T11:58:39Z</time>
      </trkpt>
      <trkpt lat="48.36603" lon="-3.97512">
        <ele>254</ele>
        <time>2021-09-12T11:58:40Z</time>
      </trkpt>
      <trkpt lat="48.36601" lon="-3.97511">
        <ele>254</ele>
        <time>2021-09-12T11:58:41Z</time>
      </trkpt>
      <trkpt lat="48.36599" lon="-3.9751">
        <ele>254.19999694824</ele>
        <time>2021-09-12T11:58:42Z</time>
      </trkpt>
      <trkpt lat="48.36597" lon="-3.9751">
        <ele>254.60000610352</ele>
        <time>2021-09-12T11:58:43Z</time>
      </trkpt>
      <trkpt lat="48.36594" lon="-3.97509">
        <ele>255</ele>
        <time>2021-09-12T11:58:44Z</time>
      </trkpt>
      <trkpt lat="48.36592" lon="-3.97508">
        <ele>255</ele>
        <time>2021-09-12T11:58:45Z</time>
      </trkpt>
      <trkpt lat="48.3659" lon="-3.97507">
        <ele>255.19999694824</ele>
        <time>2021-09-12T11:58:46Z</time>
      </trkpt>
      <trkpt lat="48.36587" lon="-3.97506">
        <ele>255.39999389648</ele>
        <time>2021-09-12T11:58:47Z</time>
      </trkpt>
      <trkpt lat="48.36585" lon="-3.97505">
        <ele>255.60000610352</ele>
        <time>2021-09-12T11:58:48Z</time>
      </trkpt>
      <trkpt lat="48.36583" lon="-3.97505">
        <ele>255.80000305176</ele>
        <time>2021-09-12T11:58:49Z</time>
      </trkpt>
      <trkpt lat="48.3658" lon="-3.97504">
        <ele>256.20001220703</ele>
        <time>2021-09-12T11:58:50Z</time>
      </trkpt>
      <trkpt lat="48.36578" lon="-3.97503">
        <ele>256.39999389648</ele>
        <time>2021-09-12T11:58:51Z</time>
      </trkpt>
      <trkpt lat="48.36575" lon="-3.97502">
        <ele>256.39999389648</ele>
        <time>2021-09-12T11:58:52Z</time>
      </trkpt>
      <trkpt lat="48.36572" lon="-3.97501">
        <ele>256.39999389648</ele>
        <time>2021-09-12T11:58:53Z</time>
      </trkpt>
      <trkpt lat="48.3657" lon="-3.975">
        <ele>256.79998779297</ele>
        <time>2021-09-12T11:58:54Z</time>
      </trkpt>
      <trkpt lat="48.36568" lon="-3.975">
        <ele>257</ele>
        <time>2021-09-12T11:58:55Z</time>
      </trkpt>
      <trkpt lat="48.36565" lon="-3.97499">
        <ele>257.20001220703</ele>
        <time>2021-09-12T11:58:56Z</time>
      </trkpt>
      <trkpt lat="48.36562" lon="-3.97498">
        <ele>257.39999389648</ele>
        <time>2021-09-12T11:58:57Z</time>
      </trkpt>
      <trkpt lat="48.3656" lon="-3.97498">
        <ele>257.39999389648</ele>
        <time>2021-09-12T11:58:58Z</time>
      </trkpt>
      <trkpt lat="48.36557" lon="-3.97497">
        <ele>257.60000610352</ele>
        <time>2021-09-12T11:58:59Z</time>
      </trkpt>
      <trkpt lat="48.36554" lon="-3.97496">
        <ele>257.79998779297</ele>
        <time>2021-09-12T11:59:00Z</time>
      </trkpt>
      <trkpt lat="48.36551" lon="-3.97496">
        <ele>258</ele>
        <time>2021-09-12T11:59:01Z</time>
      </trkpt>
      <trkpt lat="48.36548" lon="-3.97496">
        <ele>258</ele>
        <time>2021-09-12T11:59:02Z</time>
      </trkpt>
      <trkpt lat="48.36546" lon="-3.97495">
        <ele>258.39999389648</ele>
        <time>2021-09-12T11:59:03Z</time>
      </trkpt>
      <trkpt lat="48.36543" lon="-3.97495">
        <ele>258.39999389648</ele>
        <time>2021-09-12T11:59:04Z</time>
      </trkpt>
      <trkpt lat="48.3654" lon="-3.97495">
        <ele>258.60000610352</ele>
        <time>2021-09-12T11:59:05Z</time>
      </trkpt>
      <trkpt lat="48.36538" lon="-3.97494">
        <ele>259</ele>
        <time>2021-09-12T11:59:06Z</time>
      </trkpt>
      <trkpt lat="48.36535" lon="-3.97494">
        <ele>259</ele>
        <time>2021-09-12T11:59:07Z</time>
      </trkpt>
      <trkpt lat="48.36531" lon="-3.97495">
        <ele>259</ele>
        <time>2021-09-12T11:59:08Z</time>
      </trkpt>
      <trkpt lat="48.36528" lon="-3.97495">
        <ele>259.20001220703</ele>
        <time>2021-09-12T11:59:09Z</time>
      </trkpt>
      <trkpt lat="48.36525" lon="-3.97495">
        <ele>259.39999389648</ele>
        <time>2021-09-12T11:59:10Z</time>
      </trkpt>
      <trkpt lat="48.36522" lon="-3.97496">
        <ele>259.60000610352</ele>
        <time>2021-09-12T11:59:11Z</time>
      </trkpt>
      <trkpt lat="48.36519" lon="-3.97497">
        <ele>259.60000610352</ele>
        <time>2021-09-12T11:59:12Z</time>
      </trkpt>
      <trkpt lat="48.36516" lon="-3.97497">
        <ele>259.79998779297</ele>
        <time>2021-09-12T11:59:13Z</time>
      </trkpt>
      <trkpt lat="48.36513" lon="-3.97497">
        <ele>259.79998779297</ele>
        <time>2021-09-12T11:59:14Z</time>
      </trkpt>
      <trkpt lat="48.3651" lon="-3.97498">
        <ele>260</ele>
        <time>2021-09-12T11:59:15Z</time>
      </trkpt>
      <trkpt lat="48.36507" lon="-3.97498">
        <ele>260</ele>
        <time>2021-09-12T11:59:16Z</time>
      </trkpt>
      <trkpt lat="48.36504" lon="-3.97498">
        <ele>260</ele>
        <time>2021-09-12T11:59:17Z</time>
      </trkpt>
      <trkpt lat="48.36501" lon="-3.97499">
        <ele>260.20001220703</ele>
        <time>2021-09-12T11:59:18Z</time>
      </trkpt>
      <trkpt lat="48.36498" lon="-3.97499">
        <ele>260.20001220703</ele>
        <time>2021-09-12T11:59:19Z</time>
      </trkpt>
      <trkpt lat="48.36494" lon="-3.97499">
        <ele>260.39999389648</ele>
        <time>2021-09-12T11:59:20Z</time>
      </trkpt>
      <trkpt lat="48.36491" lon="-3.975">
        <ele>260.60000610352</ele>
        <time>2021-09-12T11:59:21Z</time>
      </trkpt>
      <trkpt lat="48.36488" lon="-3.975">
        <ele>260.60000610352</ele>
        <time>2021-09-12T11:59:22Z</time>
      </trkpt>
      <trkpt lat="48.36484" lon="-3.975">
        <ele>260.79998779297</ele>
        <time>2021-09-12T11:59:23Z</time>
      </trkpt>
      <trkpt lat="48.36481" lon="-3.97501">
        <ele>260.79998779297</ele>
        <time>2021-09-12T11:59:24Z</time>
      </trkpt>
      <trkpt lat="48.36477" lon="-3.97501">
        <ele>261.20001220703</ele>
        <time>2021-09-12T11:59:25Z</time>
      </trkpt>
      <trkpt lat="48.36474" lon="-3.97502">
        <ele>261.20001220703</ele>
        <time>2021-09-12T11:59:26Z</time>
      </trkpt>
      <trkpt lat="48.3647" lon="-3.97502">
        <ele>261.39999389648</ele>
        <time>2021-09-12T11:59:27Z</time>
      </trkpt>
      <trkpt lat="48.36466" lon="-3.97502">
        <ele>261.39999389648</ele>
        <time>2021-09-12T11:59:28Z</time>
      </trkpt>
      <trkpt lat="48.36463" lon="-3.97503">
        <ele>261.60000610352</ele>
        <time>2021-09-12T11:59:29Z</time>
      </trkpt>
      <trkpt lat="48.36459" lon="-3.97504">
        <ele>261.60000610352</ele>
        <time>2021-09-12T11:59:30Z</time>
      </trkpt>
      <trkpt lat="48.36456" lon="-3.97504">
        <ele>261.60000610352</ele>
        <time>2021-09-12T11:59:31Z</time>
      </trkpt>
      <trkpt lat="48.36452" lon="-3.97505">
        <ele>261.60000610352</ele>
        <time>2021-09-12T11:59:32Z</time>
      </trkpt>
      <trkpt lat="48.36448" lon="-3.97505">
        <ele>262</ele>
        <time>2021-09-12T11:59:33Z</time>
      </trkpt>
      <trkpt lat="48.36444" lon="-3.97507">
        <ele>262</ele>
        <time>2021-09-12T11:59:34Z</time>
      </trkpt>
      <trkpt lat="48.3644" lon="-3.97508">
        <ele>262.20001220703</ele>
        <time>2021-09-12T11:59:35Z</time>
      </trkpt>
      <trkpt lat="48.36437" lon="-3.97509">
        <ele>262.20001220703</ele>
        <time>2021-09-12T11:59:36Z</time>
      </trkpt>
      <trkpt lat="48.36433" lon="-3.97511">
        <ele>262.20001220703</ele>
        <time>2021-09-12T11:59:37Z</time>
      </trkpt>
      <trkpt lat="48.3643" lon="-3.97512">
        <ele>262.20001220703</ele>
        <time>2021-09-12T11:59:38Z</time>
      </trkpt>
      <trkpt lat="48.36426" lon="-3.97514">
        <ele>262.20001220703</ele>
        <time>2021-09-12T11:59:39Z</time>
      </trkpt>
      <trkpt lat="48.36422" lon="-3.97516">
        <ele>262.20001220703</ele>
        <time>2021-09-12T11:59:40Z</time>
      </trkpt>
      <trkpt lat="48.36419" lon="-3.97519">
        <ele>262.20001220703</ele>
        <time>2021-09-12T11:59:41Z</time>
      </trkpt>
      <trkpt lat="48.36415" lon="-3.97521">
        <ele>262.20001220703</ele>
        <time>2021-09-12T11:59:42Z</time>
      </trkpt>
      <trkpt lat="48.36411" lon="-3.97524">
        <ele>262.20001220703</ele>
        <time>2021-09-12T11:59:43Z</time>
      </trkpt>
      <trkpt lat="48.36407" lon="-3.97527">
        <ele>262.20001220703</ele>
        <time>2021-09-12T11:59:44Z</time>
      </trkpt>
      <trkpt lat="48.36403" lon="-3.97529">
        <ele>262.20001220703</ele>
        <time>2021-09-12T11:59:45Z</time>
      </trkpt>
      <trkpt lat="48.36399" lon="-3.97532">
        <ele>262.20001220703</ele>
        <time>2021-09-12T11:59:46Z</time>
      </trkpt>
      <trkpt lat="48.36395" lon="-3.97535">
        <ele>262.20001220703</ele>
        <time>2021-09-12T11:59:47Z</time>
      </trkpt>
      <trkpt lat="48.36391" lon="-3.97538">
        <ele>262</ele>
        <time>2021-09-12T11:59:48Z</time>
      </trkpt>
      <trkpt lat="48.36386" lon="-3.97541">
        <ele>261.79998779297</ele>
        <time>2021-09-12T11:59:49Z</time>
      </trkpt>
      <trkpt lat="48.36382" lon="-3.97544">
        <ele>261.79998779297</ele>
        <time>2021-09-12T11:59:50Z</time>
      </trkpt>
      <trkpt lat="48.36377" lon="-3.97546">
        <ele>261.79998779297</ele>
        <time>2021-09-12T11:59:51Z</time>
      </trkpt>
      <trkpt lat="48.36373" lon="-3.97549">
        <ele>261.60000610352</ele>
        <time>2021-09-12T11:59:52Z</time>
      </trkpt>
      <trkpt lat="48.36368" lon="-3.97552">
        <ele>261.39999389648</ele>
        <time>2021-09-12T11:59:53Z</time>
      </trkpt>
      <trkpt lat="48.36364" lon="-3.97556">
        <ele>261.39999389648</ele>
        <time>2021-09-12T11:59:54Z</time>
      </trkpt>
      <trkpt lat="48.36359" lon="-3.97559">
        <ele>261.20001220703</ele>
        <time>2021-09-12T11:59:55Z</time>
      </trkpt>
      <trkpt lat="48.36354" lon="-3.97561">
        <ele>261.20001220703</ele>
        <time>2021-09-12T11:59:56Z</time>
      </trkpt>
      <trkpt lat="48.3635" lon="-3.97564">
        <ele>261.20001220703</ele>
        <time>2021-09-12T11:59:57Z</time>
      </trkpt>
      <trkpt lat="48.36345" lon="-3.97567">
        <ele>261</ele>
        <time>2021-09-12T11:59:58Z</time>
      </trkpt>
      <trkpt lat="48.36341" lon="-3.97571">
        <ele>260.79998779297</ele>
        <time>2021-09-12T11:59:59Z</time>
      </trkpt>
      <trkpt lat="48.36336" lon="-3.97574">
        <ele>260.79998779297</ele>
        <time>2021-09-12T12:00:00Z</time>
      </trkpt>
      <trkpt lat="48.36332" lon="-3.97577">
        <ele>260.39999389648</ele>
        <time>2021-09-12T12:00:01Z</time>
      </trkpt>
      <trkpt lat="48.36327" lon="-3.97581">
        <ele>260.39999389648</ele>
        <time>2021-09-12T12:00:02Z</time>
      </trkpt>
      <trkpt lat="48.36322" lon="-3.97584">
        <ele>260.39999389648</ele>
        <time>2021-09-12T12:00:03Z</time>
      </trkpt>
      <trkpt lat="48.36317" lon="-3.97588">
        <ele>260.20001220703</ele>
        <time>2021-09-12T12:00:04Z</time>
      </trkpt>
      <trkpt lat="48.36312" lon="-3.97592">
        <ele>259.79998779297</ele>
        <time>2021-09-12T12:00:05Z</time>
      </trkpt>
      <trkpt lat="48.36307" lon="-3.97596">
        <ele>259.79998779297</ele>
        <time>2021-09-12T12:00:06Z</time>
      </trkpt>
      <trkpt lat="48.36302" lon="-3.97599">
        <ele>259.60000610352</ele>
        <time>2021-09-12T12:00:07Z</time>
      </trkpt>
      <trkpt lat="48.36297" lon="-3.97603">
        <ele>259.60000610352</ele>
        <time>2021-09-12T12:00:08Z</time>
      </trkpt>
      <trkpt lat="48.36291" lon="-3.97607">
        <ele>259.39999389648</ele>
        <time>2021-09-12T12:00:09Z</time>
      </trkpt>
      <trkpt lat="48.36286" lon="-3.9761">
        <ele>258.79998779297</ele>
        <time>2021-09-12T12:00:10Z</time>
      </trkpt>
      <trkpt lat="48.3628" lon="-3.97614">
        <ele>258.79998779297</ele>
        <time>2021-09-12T12:00:11Z</time>
      </trkpt>
      <trkpt lat="48.36275" lon="-3.97617">
        <ele>258.39999389648</ele>
        <time>2021-09-12T12:00:12Z</time>
      </trkpt>
      <trkpt lat="48.36269" lon="-3.9762">
        <ele>258.39999389648</ele>
        <time>2021-09-12T12:00:13Z</time>
      </trkpt>
      <trkpt lat="48.36263" lon="-3.97623">
        <ele>258.39999389648</ele>
        <time>2021-09-12T12:00:14Z</time>
      </trkpt>
      <trkpt lat="48.36256" lon="-3.97626">
        <ele>258</ele>
        <time>2021-09-12T12:00:15Z</time>
      </trkpt>
      <trkpt lat="48.36251" lon="-3.97629">
        <ele>258</ele>
        <time>2021-09-12T12:00:16Z</time>
      </trkpt>
      <trkpt lat="48.36245" lon="-3.97631">
        <ele>257.39999389648</ele>
        <time>2021-09-12T12:00:17Z</time>
      </trkpt>
      <trkpt lat="48.36237" lon="-3.97634">
        <ele>257.39999389648</ele>
        <time>2021-09-12T12:00:18Z</time>
      </trkpt>
      <trkpt lat="48.3623" lon="-3.97637">
        <ele>257</ele>
        <time>2021-09-12T12:00:19Z</time>
      </trkpt>
      <trkpt lat="48.36224" lon="-3.97639">
        <ele>256.79998779297</ele>
        <time>2021-09-12T12:00:20Z</time>
      </trkpt>
      <trkpt lat="48.36218" lon="-3.97641">
        <ele>256.60000610352</ele>
        <time>2021-09-12T12:00:21Z</time>
      </trkpt>
      <trkpt lat="48.36211" lon="-3.97643">
        <ele>256.20001220703</ele>
        <time>2021-09-12T12:00:22Z</time>
      </trkpt>
      <trkpt lat="48.36203" lon="-3.97645">
        <ele>256</ele>
        <time>2021-09-12T12:00:23Z</time>
      </trkpt>
      <trkpt lat="48.36196" lon="-3.97646">
        <ele>255.60000610352</ele>
        <time>2021-09-12T12:00:24Z</time>
      </trkpt>
      <trkpt lat="48.3619" lon="-3.97648">
        <ele>255.39999389648</ele>
        <time>2021-09-12T12:00:25Z</time>
      </trkpt>
      <trkpt lat="48.36182" lon="-3.9765">
        <ele>254.80000305176</ele>
        <time>2021-09-12T12:00:26Z</time>
      </trkpt>
      <trkpt lat="48.36173" lon="-3.97653">
        <ele>254.60000610352</ele>
        <time>2021-09-12T12:00:27Z</time>
      </trkpt>
      <trkpt lat="48.36166" lon="-3.97656">
        <ele>253.80000305176</ele>
        <time>2021-09-12T12:00:28Z</time>
      </trkpt>
      <trkpt lat="48.36158" lon="-3.97659">
        <ele>253.80000305176</ele>
        <time>2021-09-12T12:00:29Z</time>
      </trkpt>
      <trkpt lat="48.36152" lon="-3.97662">
        <ele>253</ele>
        <time>2021-09-12T12:00:30Z</time>
      </trkpt>
      <trkpt lat="48.36145" lon="-3.97665">
        <ele>252.19999694824</ele>
        <time>2021-09-12T12:00:31Z</time>
      </trkpt>
      <trkpt lat="48.36138" lon="-3.97668">
        <ele>251.39999389648</ele>
        <time>2021-09-12T12:00:32Z</time>
      </trkpt>
      <trkpt lat="48.36132" lon="-3.97667">
        <ele>250.60000610352</ele>
        <time>2021-09-12T12:00:33Z</time>
      </trkpt>
      <trkpt lat="48.36129" lon="-3.97663">
        <ele>250</ele>
        <time>2021-09-12T12:00:34Z</time>
      </trkpt>
      <trkpt lat="48.36127" lon="-3.97658">
        <ele>249.60000610352</ele>
        <time>2021-09-12T12:00:35Z</time>
      </trkpt>
      <trkpt lat="48.36125" lon="-3.97652">
        <ele>249.60000610352</ele>
        <time>2021-09-12T12:00:36Z</time>
      </trkpt>
      <trkpt lat="48.36124" lon="-3.97646">
        <ele>249.60000610352</ele>
        <time>2021-09-12T12:00:37Z</time>
      </trkpt>
      <trkpt lat="48.36124" lon="-3.9764">
        <ele>249.60000610352</ele>
        <time>2021-09-12T12:00:38Z</time>
      </trkpt>
      <trkpt lat="48.36124" lon="-3.97634">
        <ele>249.60000610352</ele>
        <time>2021-09-12T12:00:39Z</time>
      </trkpt>
      <trkpt lat="48.36123" lon="-3.9763">
        <ele>249.80000305176</ele>
        <time>2021-09-12T12:00:40Z</time>
      </trkpt>
      <trkpt lat="48.36122" lon="-3.97624">
        <ele>249.80000305176</ele>
        <time>2021-09-12T12:00:41Z</time>
      </trkpt>
      <trkpt lat="48.36121" lon="-3.97618">
        <ele>250.19999694824</ele>
        <time>2021-09-12T12:00:42Z</time>
      </trkpt>
      <trkpt lat="48.36121" lon="-3.97614">
        <ele>250.39999389648</ele>
        <time>2021-09-12T12:00:43Z</time>
      </trkpt>
      <trkpt lat="48.3612" lon="-3.9761">
        <ele>250.39999389648</ele>
        <time>2021-09-12T12:00:44Z</time>
      </trkpt>
      <trkpt lat="48.3612" lon="-3.97606">
        <ele>250.39999389648</ele>
        <time>2021-09-12T12:00:45Z</time>
      </trkpt>
      <trkpt lat="48.36119" lon="-3.976">
        <ele>250.60000610352</ele>
        <time>2021-09-12T12:00:46Z</time>
      </trkpt>
      <trkpt lat="48.36118" lon="-3.97594">
        <ele>250.60000610352</ele>
        <time>2021-09-12T12:00:47Z</time>
      </trkpt>
      <trkpt lat="48.36117" lon="-3.97587">
        <ele>250.60000610352</ele>
        <time>2021-09-12T12:00:48Z</time>
      </trkpt>
      <trkpt lat="48.36116" lon="-3.97582">
        <ele>251</ele>
        <time>2021-09-12T12:00:49Z</time>
      </trkpt>
      <trkpt lat="48.36115" lon="-3.97576">
        <ele>251.19999694824</ele>
        <time>2021-09-12T12:00:50Z</time>
      </trkpt>
      <trkpt lat="48.36114" lon="-3.9757">
        <ele>251.39999389648</ele>
        <time>2021-09-12T12:00:51Z</time>
      </trkpt>
      <trkpt lat="48.36114" lon="-3.97564">
        <ele>251.39999389648</ele>
        <time>2021-09-12T12:00:52Z</time>
      </trkpt>
      <trkpt lat="48.36114" lon="-3.97557">
        <ele>251.60000610352</ele>
        <time>2021-09-12T12:00:53Z</time>
      </trkpt>
      <trkpt lat="48.36113" lon="-3.97552">
        <ele>251.60000610352</ele>
        <time>2021-09-12T12:00:54Z</time>
      </trkpt>
      <trkpt lat="48.36112" lon="-3.97546">
        <ele>251.80000305176</ele>
        <time>2021-09-12T12:00:55Z</time>
      </trkpt>
      <trkpt lat="48.36112" lon="-3.9754">
        <ele>251.80000305176</ele>
        <time>2021-09-12T12:00:56Z</time>
      </trkpt>
      <trkpt lat="48.36112" lon="-3.97534">
        <ele>252</ele>
        <time>2021-09-12T12:00:57Z</time>
      </trkpt>
      <trkpt lat="48.36111" lon="-3.97527">
        <ele>252</ele>
        <time>2021-09-12T12:00:58Z</time>
      </trkpt>
      <trkpt lat="48.36111" lon="-3.97522">
        <ele>252</ele>
        <time>2021-09-12T12:00:59Z</time>
      </trkpt>
      <trkpt lat="48.3611" lon="-3.97515">
        <ele>252</ele>
        <time>2021-09-12T12:01:00Z</time>
      </trkpt>
      <trkpt lat="48.36109" lon="-3.97501">
        <ele>251.80000305176</ele>
        <time>2021-09-12T12:01:01Z</time>
      </trkpt>
      <trkpt lat="48.36109" lon="-3.97501">
        <ele>251.80000305176</ele>
        <time>2021-09-12T12:01:02Z</time>
      </trkpt>
      <trkpt lat="48.3611" lon="-3.97496">
        <ele>252</ele>
        <time>2021-09-12T12:01:03Z</time>
      </trkpt>
      <trkpt lat="48.3611" lon="-3.97491">
        <ele>252</ele>
        <time>2021-09-12T12:01:04Z</time>
      </trkpt>
      <trkpt lat="48.3611" lon="-3.97483">
        <ele>252</ele>
        <time>2021-09-12T12:01:05Z</time>
      </trkpt>
      <trkpt lat="48.36109" lon="-3.97477">
        <ele>252</ele>
        <time>2021-09-12T12:01:06Z</time>
      </trkpt>
      <trkpt lat="48.36109" lon="-3.9747">
        <ele>252</ele>
        <time>2021-09-12T12:01:07Z</time>
      </trkpt>
      <trkpt lat="48.36108" lon="-3.97464">
        <ele>252</ele>
        <time>2021-09-12T12:01:08Z</time>
      </trkpt>
      <trkpt lat="48.36108" lon="-3.97458">
        <ele>251.80000305176</ele>
        <time>2021-09-12T12:01:09Z</time>
      </trkpt>
      <trkpt lat="48.36109" lon="-3.9745">
        <ele>251.39999389648</ele>
        <time>2021-09-12T12:01:10Z</time>
      </trkpt>
      <trkpt lat="48.36108" lon="-3.97442">
        <ele>251.39999389648</ele>
        <time>2021-09-12T12:01:11Z</time>
      </trkpt>
      <trkpt lat="48.36109" lon="-3.97433">
        <ele>251</ele>
        <time>2021-09-12T12:01:12Z</time>
      </trkpt>
      <trkpt lat="48.36109" lon="-3.97426">
        <ele>249.80000305176</ele>
        <time>2021-09-12T12:01:13Z</time>
      </trkpt>
      <trkpt lat="48.36108" lon="-3.97418">
        <ele>249</ele>
        <time>2021-09-12T12:01:14Z</time>
      </trkpt>
      <trkpt lat="48.36107" lon="-3.97411">
        <ele>248.60000610352</ele>
        <time>2021-09-12T12:01:15Z</time>
      </trkpt>
      <trkpt lat="48.36104" lon="-3.97406">
        <ele>248</ele>
        <time>2021-09-12T12:01:16Z</time>
      </trkpt>
      <trkpt lat="48.36102" lon="-3.97403">
        <ele>248</ele>
        <time>2021-09-12T12:01:17Z</time>
      </trkpt>
      <trkpt lat="48.36099" lon="-3.97401">
        <ele>248</ele>
        <time>2021-09-12T12:01:18Z</time>
      </trkpt>
      <trkpt lat="48.36098" lon="-3.97397">
        <ele>248</ele>
        <time>2021-09-12T12:01:19Z</time>
      </trkpt>
      <trkpt lat="48.36098" lon="-3.97393">
        <ele>248.19999694824</ele>
        <time>2021-09-12T12:01:20Z</time>
      </trkpt>
      <trkpt lat="48.36097" lon="-3.9739">
        <ele>248.19999694824</ele>
        <time>2021-09-12T12:01:21Z</time>
      </trkpt>
      <trkpt lat="48.36097" lon="-3.97388">
        <ele>248.39999389648</ele>
        <time>2021-09-12T12:01:22Z</time>
      </trkpt>
      <trkpt lat="48.36097" lon="-3.97384">
        <ele>248.39999389648</ele>
        <time>2021-09-12T12:01:23Z</time>
      </trkpt>
      <trkpt lat="48.36096" lon="-3.97381">
        <ele>248.80000305176</ele>
        <time>2021-09-12T12:01:24Z</time>
      </trkpt>
      <trkpt lat="48.36095" lon="-3.97378">
        <ele>248.80000305176</ele>
        <time>2021-09-12T12:01:25Z</time>
      </trkpt>
      <trkpt lat="48.36095" lon="-3.97378">
        <ele>249</ele>
        <time>2021-09-12T12:01:26Z</time>
      </trkpt>
      <trkpt lat="48.36095" lon="-3.97378">
        <ele>249</ele>
        <time>2021-09-12T12:01:27Z</time>
      </trkpt>
      <trkpt lat="48.36095" lon="-3.97378">
        <ele>249</ele>
        <time>2021-09-12T12:01:28Z</time>
      </trkpt>
      <trkpt lat="48.36093" lon="-3.97368">
        <ele>249.60000610352</ele>
        <time>2021-09-12T12:01:33Z</time>
      </trkpt>
      <trkpt lat="48.36093" lon="-3.97365">
        <ele>249.60000610352</ele>
        <time>2021-09-12T12:01:34Z</time>
      </trkpt>
      <trkpt lat="48.36092" lon="-3.97363">
        <ele>249.60000610352</ele>
        <time>2021-09-12T12:01:35Z</time>
      </trkpt>
      <trkpt lat="48.36092" lon="-3.9736">
        <ele>249.80000305176</ele>
        <time>2021-09-12T12:01:36Z</time>
      </trkpt>
      <trkpt lat="48.36092" lon="-3.97358">
        <ele>249.80000305176</ele>
        <time>2021-09-12T12:01:37Z</time>
      </trkpt>
      <trkpt lat="48.36092" lon="-3.97355">
        <ele>250.19999694824</ele>
        <time>2021-09-12T12:01:38Z</time>
      </trkpt>
      <trkpt lat="48.36092" lon="-3.97352">
        <ele>250.80000305176</ele>
        <time>2021-09-12T12:01:39Z</time>
      </trkpt>
      <trkpt lat="48.36092" lon="-3.9735">
        <ele>251.19999694824</ele>
        <time>2021-09-12T12:01:40Z</time>
      </trkpt>
      <trkpt lat="48.36093" lon="-3.97348">
        <ele>251.19999694824</ele>
        <time>2021-09-12T12:01:41Z</time>
      </trkpt>
      <trkpt lat="48.36092" lon="-3.97344">
        <ele>251.39999389648</ele>
        <time>2021-09-12T12:01:42Z</time>
      </trkpt>
      <trkpt lat="48.36091" lon="-3.97341">
        <ele>251.60000610352</ele>
        <time>2021-09-12T12:01:43Z</time>
      </trkpt>
      <trkpt lat="48.3609" lon="-3.97337">
        <ele>251.60000610352</ele>
        <time>2021-09-12T12:01:44Z</time>
      </trkpt>
      <trkpt lat="48.36089" lon="-3.97335">
        <ele>251.80000305176</ele>
        <time>2021-09-12T12:01:45Z</time>
      </trkpt>
      <trkpt lat="48.36088" lon="-3.97332">
        <ele>252</ele>
        <time>2021-09-12T12:01:46Z</time>
      </trkpt>
      <trkpt lat="48.36087" lon="-3.97327">
        <ele>252.39999389648</ele>
        <time>2021-09-12T12:01:47Z</time>
      </trkpt>
      <trkpt lat="48.36086" lon="-3.97325">
        <ele>252.80000305176</ele>
        <time>2021-09-12T12:01:48Z</time>
      </trkpt>
      <trkpt lat="48.36086" lon="-3.97322">
        <ele>252.80000305176</ele>
        <time>2021-09-12T12:01:49Z</time>
      </trkpt>
      <trkpt lat="48.36085" lon="-3.9732">
        <ele>252.80000305176</ele>
        <time>2021-09-12T12:01:50Z</time>
      </trkpt>
      <trkpt lat="48.36085" lon="-3.97317">
        <ele>253.19999694824</ele>
        <time>2021-09-12T12:01:51Z</time>
      </trkpt>
      <trkpt lat="48.36084" lon="-3.97314">
        <ele>253.60000610352</ele>
        <time>2021-09-12T12:01:52Z</time>
      </trkpt>
      <trkpt lat="48.36083" lon="-3.97312">
        <ele>253.80000305176</ele>
        <time>2021-09-12T12:01:53Z</time>
      </trkpt>
      <trkpt lat="48.36082" lon="-3.97309">
        <ele>254.19999694824</ele>
        <time>2021-09-12T12:01:54Z</time>
      </trkpt>
      <trkpt lat="48.36081" lon="-3.97307">
        <ele>254.39999389648</ele>
        <time>2021-09-12T12:01:55Z</time>
      </trkpt>
      <trkpt lat="48.3608" lon="-3.97304">
        <ele>254.60000610352</ele>
        <time>2021-09-12T12:01:56Z</time>
      </trkpt>
      <trkpt lat="48.36079" lon="-3.97301">
        <ele>254.80000305176</ele>
        <time>2021-09-12T12:01:57Z</time>
      </trkpt>
      <trkpt lat="48.36078" lon="-3.97299">
        <ele>255.19999694824</ele>
        <time>2021-09-12T12:01:58Z</time>
      </trkpt>
      <trkpt lat="48.36077" lon="-3.97297">
        <ele>255.39999389648</ele>
        <time>2021-09-12T12:01:59Z</time>
      </trkpt>
      <trkpt lat="48.36077" lon="-3.97295">
        <ele>255.60000610352</ele>
        <time>2021-09-12T12:02:00Z</time>
      </trkpt>
      <trkpt lat="48.36075" lon="-3.97293">
        <ele>256</ele>
        <time>2021-09-12T12:02:01Z</time>
      </trkpt>
      <trkpt lat="48.36073" lon="-3.97288">
        <ele>256</ele>
        <time>2021-09-12T12:02:02Z</time>
      </trkpt>
      <trkpt lat="48.36071" lon="-3.97285">
        <ele>256.39999389648</ele>
        <time>2021-09-12T12:02:03Z</time>
      </trkpt>
      <trkpt lat="48.36071" lon="-3.97282">
        <ele>256.39999389648</ele>
        <time>2021-09-12T12:02:04Z</time>
      </trkpt>
      <trkpt lat="48.36069" lon="-3.97279">
        <ele>256.39999389648</ele>
        <time>2021-09-12T12:02:05Z</time>
      </trkpt>
      <trkpt lat="48.36066" lon="-3.97276">
        <ele>256.60000610352</ele>
        <time>2021-09-12T12:02:06Z</time>
      </trkpt>
      <trkpt lat="48.36065" lon="-3.97274">
        <ele>256.79998779297</ele>
        <time>2021-09-12T12:02:07Z</time>
      </trkpt>
      <trkpt lat="48.36063" lon="-3.97271">
        <ele>256.79998779297</ele>
        <time>2021-09-12T12:02:08Z</time>
      </trkpt>
      <trkpt lat="48.36062" lon="-3.97269">
        <ele>257.20001220703</ele>
        <time>2021-09-12T12:02:09Z</time>
      </trkpt>
      <trkpt lat="48.36062" lon="-3.97266">
        <ele>257.39999389648</ele>
        <time>2021-09-12T12:02:10Z</time>
      </trkpt>
      <trkpt lat="48.36062" lon="-3.97262">
        <ele>257.60000610352</ele>
        <time>2021-09-12T12:02:11Z</time>
      </trkpt>
      <trkpt lat="48.3606" lon="-3.97259">
        <ele>257.60000610352</ele>
        <time>2021-09-12T12:02:12Z</time>
      </trkpt>
      <trkpt lat="48.36059" lon="-3.97257">
        <ele>257.79998779297</ele>
        <time>2021-09-12T12:02:13Z</time>
      </trkpt>
      <trkpt lat="48.36057" lon="-3.97253">
        <ele>258.20001220703</ele>
        <time>2021-09-12T12:02:14Z</time>
      </trkpt>
      <trkpt lat="48.36057" lon="-3.97252">
        <ele>258.20001220703</ele>
        <time>2021-09-12T12:02:15Z</time>
      </trkpt>
      <trkpt lat="48.36057" lon="-3.97251">
        <ele>258.39999389648</ele>
        <time>2021-09-12T12:02:16Z</time>
      </trkpt>
      <trkpt lat="48.36057" lon="-3.9725">
        <ele>258.39999389648</ele>
        <time>2021-09-12T12:02:17Z</time>
      </trkpt>
      <trkpt lat="48.36056" lon="-3.97249">
        <ele>258.79998779297</ele>
        <time>2021-09-12T12:02:18Z</time>
      </trkpt>
      <trkpt lat="48.36054" lon="-3.97248">
        <ele>259</ele>
        <time>2021-09-12T12:02:19Z</time>
      </trkpt>
      <trkpt lat="48.36054" lon="-3.97246">
        <ele>259</ele>
        <time>2021-09-12T12:02:20Z</time>
      </trkpt>
      <trkpt lat="48.36054" lon="-3.97244">
        <ele>259.20001220703</ele>
        <time>2021-09-12T12:02:21Z</time>
      </trkpt>
      <trkpt lat="48.36053" lon="-3.97242">
        <ele>259.20001220703</ele>
        <time>2021-09-12T12:02:22Z</time>
      </trkpt>
      <trkpt lat="48.36052" lon="-3.97241">
        <ele>259.20001220703</ele>
        <time>2021-09-12T12:02:23Z</time>
      </trkpt>
      <trkpt lat="48.36052" lon="-3.97239">
        <ele>259.39999389648</ele>
        <time>2021-09-12T12:02:24Z</time>
      </trkpt>
      <trkpt lat="48.36051" lon="-3.97237">
        <ele>259.79998779297</ele>
        <time>2021-09-12T12:02:25Z</time>
      </trkpt>
      <trkpt lat="48.3605" lon="-3.97234">
        <ele>260</ele>
        <time>2021-09-12T12:02:26Z</time>
      </trkpt>
      <trkpt lat="48.36049" lon="-3.97232">
        <ele>260</ele>
        <time>2021-09-12T12:02:27Z</time>
      </trkpt>
      <trkpt lat="48.36049" lon="-3.9723">
        <ele>260.39999389648</ele>
        <time>2021-09-12T12:02:28Z</time>
      </trkpt>
      <trkpt lat="48.36048" lon="-3.97227">
        <ele>260.79998779297</ele>
        <time>2021-09-12T12:02:29Z</time>
      </trkpt>
      <trkpt lat="48.36047" lon="-3.97224">
        <ele>261</ele>
        <time>2021-09-12T12:02:30Z</time>
      </trkpt>
      <trkpt lat="48.36047" lon="-3.97221">
        <ele>261.39999389648</ele>
        <time>2021-09-12T12:02:31Z</time>
      </trkpt>
      <trkpt lat="48.36047" lon="-3.9722">
        <ele>261.60000610352</ele>
        <time>2021-09-12T12:02:32Z</time>
      </trkpt>
      <trkpt lat="48.36047" lon="-3.97218">
        <ele>261.79998779297</ele>
        <time>2021-09-12T12:02:33Z</time>
      </trkpt>
      <trkpt lat="48.36046" lon="-3.97216">
        <ele>262</ele>
        <time>2021-09-12T12:02:34Z</time>
      </trkpt>
      <trkpt lat="48.36046" lon="-3.97213">
        <ele>262.20001220703</ele>
        <time>2021-09-12T12:02:35Z</time>
      </trkpt>
      <trkpt lat="48.36045" lon="-3.97211">
        <ele>262.60000610352</ele>
        <time>2021-09-12T12:02:36Z</time>
      </trkpt>
      <trkpt lat="48.36044" lon="-3.97207">
        <ele>262.79998779297</ele>
        <time>2021-09-12T12:02:37Z</time>
      </trkpt>
      <trkpt lat="48.36043" lon="-3.97205">
        <ele>263.20001220703</ele>
        <time>2021-09-12T12:02:38Z</time>
      </trkpt>
      <trkpt lat="48.36042" lon="-3.97202">
        <ele>263.39999389648</ele>
        <time>2021-09-12T12:02:39Z</time>
      </trkpt>
      <trkpt lat="48.36042" lon="-3.97199">
        <ele>263.60000610352</ele>
        <time>2021-09-12T12:02:40Z</time>
      </trkpt>
      <trkpt lat="48.36041" lon="-3.97197">
        <ele>263.60000610352</ele>
        <time>2021-09-12T12:02:41Z</time>
      </trkpt>
      <trkpt lat="48.3604" lon="-3.97195">
        <ele>264</ele>
        <time>2021-09-12T12:02:42Z</time>
      </trkpt>
      <trkpt lat="48.3604" lon="-3.97194">
        <ele>264.39999389648</ele>
        <time>2021-09-12T12:02:43Z</time>
      </trkpt>
      <trkpt lat="48.3604" lon="-3.97194">
        <ele>264.39999389648</ele>
        <time>2021-09-12T12:02:44Z</time>
      </trkpt>
      <trkpt lat="48.3604" lon="-3.97194">
        <ele>264.39999389648</ele>
        <time>2021-09-12T12:02:45Z</time>
      </trkpt>
      <trkpt lat="48.3604" lon="-3.97194">
        <ele>264.60000610352</ele>
        <time>2021-09-12T12:02:46Z</time>
      </trkpt>
      <trkpt lat="48.3604" lon="-3.97194">
        <ele>264.60000610352</ele>
        <time>2021-09-12T12:02:47Z</time>
      </trkpt>
      <trkpt lat="48.36039" lon="-3.97192">
        <ele>264.60000610352</ele>
        <time>2021-09-12T12:02:48Z</time>
      </trkpt>
      <trkpt lat="48.36038" lon="-3.9719">
        <ele>264.60000610352</ele>
        <time>2021-09-12T12:02:49Z</time>
      </trkpt>
      <trkpt lat="48.36036" lon="-3.97188">
        <ele>265</ele>
        <time>2021-09-12T12:02:50Z</time>
      </trkpt>
      <trkpt lat="48.36036" lon="-3.97187">
        <ele>265.20001220703</ele>
        <time>2021-09-12T12:02:51Z</time>
      </trkpt>
      <trkpt lat="48.36035" lon="-3.97185">
        <ele>265.60000610352</ele>
        <time>2021-09-12T12:02:52Z</time>
      </trkpt>
      <trkpt lat="48.36034" lon="-3.97184">
        <ele>265.79998779297</ele>
        <time>2021-09-12T12:02:53Z</time>
      </trkpt>
      <trkpt lat="48.36034" lon="-3.97184">
        <ele>266</ele>
        <time>2021-09-12T12:02:54Z</time>
      </trkpt>
      <trkpt lat="48.36032" lon="-3.97182">
        <ele>266</ele>
        <time>2021-09-12T12:02:55Z</time>
      </trkpt>
      <trkpt lat="48.36031" lon="-3.97179">
        <ele>266.20001220703</ele>
        <time>2021-09-12T12:02:56Z</time>
      </trkpt>
      <trkpt lat="48.36031" lon="-3.97175">
        <ele>266.20001220703</ele>
        <time>2021-09-12T12:02:57Z</time>
      </trkpt>
      <trkpt lat="48.3603" lon="-3.97171">
        <ele>266.39999389648</ele>
        <time>2021-09-12T12:02:58Z</time>
      </trkpt>
      <trkpt lat="48.3603" lon="-3.97169">
        <ele>266.60000610352</ele>
        <time>2021-09-12T12:02:59Z</time>
      </trkpt>
      <trkpt lat="48.3603" lon="-3.97168">
        <ele>266.79998779297</ele>
        <time>2021-09-12T12:03:00Z</time>
      </trkpt>
      <trkpt lat="48.3603" lon="-3.97168">
        <ele>267</ele>
        <time>2021-09-12T12:03:01Z</time>
      </trkpt>
      <trkpt lat="48.3603" lon="-3.97168">
        <ele>267.20001220703</ele>
        <time>2021-09-12T12:03:02Z</time>
      </trkpt>
      <trkpt lat="48.36028" lon="-3.97103">
        <ele>274.60000610352</ele>
        <time>2021-09-12T12:03:38Z</time>
      </trkpt>
      <trkpt lat="48.36028" lon="-3.97099">
        <ele>275</ele>
        <time>2021-09-12T12:03:39Z</time>
      </trkpt>
      <trkpt lat="48.36027" lon="-3.97096">
        <ele>275</ele>
        <time>2021-09-12T12:03:40Z</time>
      </trkpt>
      <trkpt lat="48.36026" lon="-3.97094">
        <ele>275</ele>
        <time>2021-09-12T12:03:41Z</time>
      </trkpt>
      <trkpt lat="48.36025" lon="-3.97091">
        <ele>275.60000610352</ele>
        <time>2021-09-12T12:03:42Z</time>
      </trkpt>
      <trkpt lat="48.36024" lon="-3.97087">
        <ele>275.60000610352</ele>
        <time>2021-09-12T12:03:43Z</time>
      </trkpt>
      <trkpt lat="48.36024" lon="-3.97084">
        <ele>276</ele>
        <time>2021-09-12T12:03:44Z</time>
      </trkpt>
      <trkpt lat="48.36024" lon="-3.97082">
        <ele>276.60000610352</ele>
        <time>2021-09-12T12:03:45Z</time>
      </trkpt>
      <trkpt lat="48.36023" lon="-3.97079">
        <ele>276.60000610352</ele>
        <time>2021-09-12T12:03:46Z</time>
      </trkpt>
      <trkpt lat="48.36022" lon="-3.97077">
        <ele>277</ele>
        <time>2021-09-12T12:03:47Z</time>
      </trkpt>
      <trkpt lat="48.36022" lon="-3.97076">
        <ele>277.39999389648</ele>
        <time>2021-09-12T12:03:48Z</time>
      </trkpt>
      <trkpt lat="48.36021" lon="-3.97073">
        <ele>277.79998779297</ele>
        <time>2021-09-12T12:03:49Z</time>
      </trkpt>
      <trkpt lat="48.3602" lon="-3.97071">
        <ele>277.79998779297</ele>
        <time>2021-09-12T12:03:50Z</time>
      </trkpt>
      <trkpt lat="48.36019" lon="-3.97068">
        <ele>278</ele>
        <time>2021-09-12T12:03:51Z</time>
      </trkpt>
      <trkpt lat="48.36018" lon="-3.97067">
        <ele>278</ele>
        <time>2021-09-12T12:03:52Z</time>
      </trkpt>
      <trkpt lat="48.36018" lon="-3.97065">
        <ele>278.20001220703</ele>
        <time>2021-09-12T12:03:53Z</time>
      </trkpt>
      <trkpt lat="48.36019" lon="-3.97062">
        <ele>278.39999389648</ele>
        <time>2021-09-12T12:03:54Z</time>
      </trkpt>
      <trkpt lat="48.36018" lon="-3.9706">
        <ele>278.79998779297</ele>
        <time>2021-09-12T12:03:55Z</time>
      </trkpt>
      <trkpt lat="48.36018" lon="-3.97059">
        <ele>278.79998779297</ele>
        <time>2021-09-12T12:03:56Z</time>
      </trkpt>
      <trkpt lat="48.36018" lon="-3.97057">
        <ele>279</ele>
        <time>2021-09-12T12:03:57Z</time>
      </trkpt>
      <trkpt lat="48.36017" lon="-3.97056">
        <ele>279</ele>
        <time>2021-09-12T12:03:58Z</time>
      </trkpt>
      <trkpt lat="48.36016" lon="-3.97054">
        <ele>279.20001220703</ele>
        <time>2021-09-12T12:03:59Z</time>
      </trkpt>
      <trkpt lat="48.36016" lon="-3.97051">
        <ele>279.20001220703</ele>
        <time>2021-09-12T12:04:00Z</time>
      </trkpt>
      <trkpt lat="48.36016" lon="-3.97049">
        <ele>279.60000610352</ele>
        <time>2021-09-12T12:04:01Z</time>
      </trkpt>
      <trkpt lat="48.36016" lon="-3.97048">
        <ele>280</ele>
        <time>2021-09-12T12:04:02Z</time>
      </trkpt>
      <trkpt lat="48.36016" lon="-3.97046">
        <ele>280.20001220703</ele>
        <time>2021-09-12T12:04:03Z</time>
      </trkpt>
      <trkpt lat="48.36016" lon="-3.97044">
        <ele>280.39999389648</ele>
        <time>2021-09-12T12:04:04Z</time>
      </trkpt>
      <trkpt lat="48.36016" lon="-3.97042">
        <ele>280.39999389648</ele>
        <time>2021-09-12T12:04:05Z</time>
      </trkpt>
      <trkpt lat="48.36015" lon="-3.9704">
        <ele>280.79998779297</ele>
        <time>2021-09-12T12:04:06Z</time>
      </trkpt>
      <trkpt lat="48.36015" lon="-3.97038">
        <ele>281</ele>
        <time>2021-09-12T12:04:07Z</time>
      </trkpt>
      <trkpt lat="48.36016" lon="-3.97035">
        <ele>281</ele>
        <time>2021-09-12T12:04:08Z</time>
      </trkpt>
      <trkpt lat="48.36016" lon="-3.97033">
        <ele>281</ele>
        <time>2021-09-12T12:04:09Z</time>
      </trkpt>
      <trkpt lat="48.36016" lon="-3.97031">
        <ele>281.20001220703</ele>
        <time>2021-09-12T12:04:10Z</time>
      </trkpt>
      <trkpt lat="48.36016" lon="-3.97029">
        <ele>281.60000610352</ele>
        <time>2021-09-12T12:04:11Z</time>
      </trkpt>
      <trkpt lat="48.36016" lon="-3.97027">
        <ele>281.60000610352</ele>
        <time>2021-09-12T12:04:12Z</time>
      </trkpt>
      <trkpt lat="48.36017" lon="-3.97026">
        <ele>281.79998779297</ele>
        <time>2021-09-12T12:04:13Z</time>
      </trkpt>
      <trkpt lat="48.36017" lon="-3.97025">
        <ele>282</ele>
        <time>2021-09-12T12:04:14Z</time>
      </trkpt>
      <trkpt lat="48.36017" lon="-3.97024">
        <ele>282.20001220703</ele>
        <time>2021-09-12T12:04:15Z</time>
      </trkpt>
      <trkpt lat="48.36016" lon="-3.97023">
        <ele>282.20001220703</ele>
        <time>2021-09-12T12:04:16Z</time>
      </trkpt>
      <trkpt lat="48.36016" lon="-3.97022">
        <ele>282.20001220703</ele>
        <time>2021-09-12T12:04:17Z</time>
      </trkpt>
      <trkpt lat="48.36016" lon="-3.97021">
        <ele>282.39999389648</ele>
        <time>2021-09-12T12:04:18Z</time>
      </trkpt>
      <trkpt lat="48.36016" lon="-3.9702">
        <ele>282.39999389648</ele>
        <time>2021-09-12T12:04:19Z</time>
      </trkpt>
      <trkpt lat="48.36016" lon="-3.9702">
        <ele>282.79998779297</ele>
        <time>2021-09-12T12:04:20Z</time>
      </trkpt>
      <trkpt lat="48.36016" lon="-3.9702">
        <ele>282.79998779297</ele>
        <time>2021-09-12T12:04:21Z</time>
      </trkpt>
      <trkpt lat="48.36017" lon="-3.97018">
        <ele>282.79998779297</ele>
        <time>2021-09-12T12:04:22Z</time>
      </trkpt>
      <trkpt lat="48.36017" lon="-3.97017">
        <ele>283</ele>
        <time>2021-09-12T12:04:23Z</time>
      </trkpt>
      <trkpt lat="48.36017" lon="-3.97015">
        <ele>283.20001220703</ele>
        <time>2021-09-12T12:04:24Z</time>
      </trkpt>
      <trkpt lat="48.36017" lon="-3.97014">
        <ele>283.20001220703</ele>
        <time>2021-09-12T12:04:25Z</time>
      </trkpt>
      <trkpt lat="48.36017" lon="-3.97013">
        <ele>283.20001220703</ele>
        <time>2021-09-12T12:04:26Z</time>
      </trkpt>
      <trkpt lat="48.36017" lon="-3.97013">
        <ele>283.39999389648</ele>
        <time>2021-09-12T12:04:27Z</time>
      </trkpt>
      <trkpt lat="48.36017" lon="-3.97011">
        <ele>283.60000610352</ele>
        <time>2021-09-12T12:04:28Z</time>
      </trkpt>
      <trkpt lat="48.36017" lon="-3.97008">
        <ele>283.79998779297</ele>
        <time>2021-09-12T12:04:29Z</time>
      </trkpt>
      <trkpt lat="48.36016" lon="-3.97006">
        <ele>283.79998779297</ele>
        <time>2021-09-12T12:04:30Z</time>
      </trkpt>
      <trkpt lat="48.36017" lon="-3.97004">
        <ele>283.79998779297</ele>
        <time>2021-09-12T12:04:31Z</time>
      </trkpt>
      <trkpt lat="48.36016" lon="-3.97001">
        <ele>283.79998779297</ele>
        <time>2021-09-12T12:04:32Z</time>
      </trkpt>
      <trkpt lat="48.36015" lon="-3.96999">
        <ele>283.79998779297</ele>
        <time>2021-09-12T12:04:33Z</time>
      </trkpt>
      <trkpt lat="48.36013" lon="-3.96995">
        <ele>283.79998779297</ele>
        <time>2021-09-12T12:04:34Z</time>
      </trkpt>
      <trkpt lat="48.36011" lon="-3.96991">
        <ele>284</ele>
        <time>2021-09-12T12:04:35Z</time>
      </trkpt>
      <trkpt lat="48.3601" lon="-3.96988">
        <ele>284.20001220703</ele>
        <time>2021-09-12T12:04:36Z</time>
      </trkpt>
      <trkpt lat="48.36009" lon="-3.96985">
        <ele>284.20001220703</ele>
        <time>2021-09-12T12:04:37Z</time>
      </trkpt>
      <trkpt lat="48.36007" lon="-3.96982">
        <ele>284.20001220703</ele>
        <time>2021-09-12T12:04:38Z</time>
      </trkpt>
      <trkpt lat="48.36007" lon="-3.9698">
        <ele>284.60000610352</ele>
        <time>2021-09-12T12:04:39Z</time>
      </trkpt>
      <trkpt lat="48.36005" lon="-3.96977">
        <ele>284.79998779297</ele>
        <time>2021-09-12T12:04:40Z</time>
      </trkpt>
      <trkpt lat="48.36004" lon="-3.96975">
        <ele>284.79998779297</ele>
        <time>2021-09-12T12:04:41Z</time>
      </trkpt>
      <trkpt lat="48.36003" lon="-3.96972">
        <ele>285</ele>
        <time>2021-09-12T12:04:42Z</time>
      </trkpt>
      <trkpt lat="48.36001" lon="-3.96969">
        <ele>285</ele>
        <time>2021-09-12T12:04:43Z</time>
      </trkpt>
      <trkpt lat="48.36" lon="-3.96965">
        <ele>285.20001220703</ele>
        <time>2021-09-12T12:04:44Z</time>
      </trkpt>
      <trkpt lat="48.36" lon="-3.96963">
        <ele>285.20001220703</ele>
        <time>2021-09-12T12:04:45Z</time>
      </trkpt>
      <trkpt lat="48.36" lon="-3.9696">
        <ele>285.20001220703</ele>
        <time>2021-09-12T12:04:46Z</time>
      </trkpt>
      <trkpt lat="48.36" lon="-3.96958">
        <ele>285.39999389648</ele>
        <time>2021-09-12T12:04:47Z</time>
      </trkpt>
      <trkpt lat="48.35999" lon="-3.96955">
        <ele>286</ele>
        <time>2021-09-12T12:04:48Z</time>
      </trkpt>
      <trkpt lat="48.35999" lon="-3.96953">
        <ele>286</ele>
        <time>2021-09-12T12:04:49Z</time>
      </trkpt>
      <trkpt lat="48.35998" lon="-3.9695">
        <ele>286.20001220703</ele>
        <time>2021-09-12T12:04:50Z</time>
      </trkpt>
      <trkpt lat="48.35997" lon="-3.96948">
        <ele>286.39999389648</ele>
        <time>2021-09-12T12:04:51Z</time>
      </trkpt>
      <trkpt lat="48.35997" lon="-3.96945">
        <ele>286.60000610352</ele>
        <time>2021-09-12T12:04:52Z</time>
      </trkpt>
      <trkpt lat="48.35997" lon="-3.96943">
        <ele>286.79998779297</ele>
        <time>2021-09-12T12:04:53Z</time>
      </trkpt>
      <trkpt lat="48.35996" lon="-3.9694">
        <ele>286.79998779297</ele>
        <time>2021-09-12T12:04:54Z</time>
      </trkpt>
      <trkpt lat="48.35995" lon="-3.96937">
        <ele>286.79998779297</ele>
        <time>2021-09-12T12:04:55Z</time>
      </trkpt>
      <trkpt lat="48.35995" lon="-3.96934">
        <ele>287.20001220703</ele>
        <time>2021-09-12T12:04:56Z</time>
      </trkpt>
      <trkpt lat="48.35994" lon="-3.96932">
        <ele>287.20001220703</ele>
        <time>2021-09-12T12:04:57Z</time>
      </trkpt>
      <trkpt lat="48.35994" lon="-3.96929">
        <ele>287.60000610352</ele>
        <time>2021-09-12T12:04:58Z</time>
      </trkpt>
      <trkpt lat="48.35994" lon="-3.96927">
        <ele>287.60000610352</ele>
        <time>2021-09-12T12:04:59Z</time>
      </trkpt>
      <trkpt lat="48.35994" lon="-3.96924">
        <ele>287.79998779297</ele>
        <time>2021-09-12T12:05:00Z</time>
      </trkpt>
      <trkpt lat="48.35993" lon="-3.96921">
        <ele>288.39999389648</ele>
        <time>2021-09-12T12:05:01Z</time>
      </trkpt>
      <trkpt lat="48.35992" lon="-3.96917">
        <ele>288.39999389648</ele>
        <time>2021-09-12T12:05:02Z</time>
      </trkpt>
      <trkpt lat="48.35991" lon="-3.96914">
        <ele>288.39999389648</ele>
        <time>2021-09-12T12:05:03Z</time>
      </trkpt>
      <trkpt lat="48.3599" lon="-3.96909">
        <ele>288.79998779297</ele>
        <time>2021-09-12T12:05:04Z</time>
      </trkpt>
      <trkpt lat="48.35989" lon="-3.96905">
        <ele>289</ele>
        <time>2021-09-12T12:05:05Z</time>
      </trkpt>
      <trkpt lat="48.35988" lon="-3.96902">
        <ele>289</ele>
        <time>2021-09-12T12:05:06Z</time>
      </trkpt>
      <trkpt lat="48.35987" lon="-3.96898">
        <ele>289</ele>
        <time>2021-09-12T12:05:07Z</time>
      </trkpt>
      <trkpt lat="48.35986" lon="-3.96896">
        <ele>289.20001220703</ele>
        <time>2021-09-12T12:05:08Z</time>
      </trkpt>
      <trkpt lat="48.35985" lon="-3.96892">
        <ele>289.20001220703</ele>
        <time>2021-09-12T12:05:09Z</time>
      </trkpt>
      <trkpt lat="48.35984" lon="-3.96889">
        <ele>289.39999389648</ele>
        <time>2021-09-12T12:05:10Z</time>
      </trkpt>
      <trkpt lat="48.35983" lon="-3.96885">
        <ele>289.60000610352</ele>
        <time>2021-09-12T12:05:11Z</time>
      </trkpt>
      <trkpt lat="48.35982" lon="-3.96882">
        <ele>289.60000610352</ele>
        <time>2021-09-12T12:05:12Z</time>
      </trkpt>
      <trkpt lat="48.35982" lon="-3.96879">
        <ele>290</ele>
        <time>2021-09-12T12:05:13Z</time>
      </trkpt>
      <trkpt lat="48.35981" lon="-3.96876">
        <ele>290.20001220703</ele>
        <time>2021-09-12T12:05:14Z</time>
      </trkpt>
      <trkpt lat="48.3598" lon="-3.96872">
        <ele>290.20001220703</ele>
        <time>2021-09-12T12:05:15Z</time>
      </trkpt>
      <trkpt lat="48.35979" lon="-3.96868">
        <ele>290.39999389648</ele>
        <time>2021-09-12T12:05:16Z</time>
      </trkpt>
      <trkpt lat="48.35979" lon="-3.96864">
        <ele>290.39999389648</ele>
        <time>2021-09-12T12:05:17Z</time>
      </trkpt>
      <trkpt lat="48.35979" lon="-3.96861">
        <ele>291</ele>
        <time>2021-09-12T12:05:18Z</time>
      </trkpt>
      <trkpt lat="48.35979" lon="-3.96859">
        <ele>291</ele>
        <time>2021-09-12T12:05:19Z</time>
      </trkpt>
      <trkpt lat="48.35979" lon="-3.96856">
        <ele>291.20001220703</ele>
        <time>2021-09-12T12:05:20Z</time>
      </trkpt>
      <trkpt lat="48.35978" lon="-3.96852">
        <ele>291.39999389648</ele>
        <time>2021-09-12T12:05:21Z</time>
      </trkpt>
      <trkpt lat="48.35977" lon="-3.96848">
        <ele>291.39999389648</ele>
        <time>2021-09-12T12:05:22Z</time>
      </trkpt>
      <trkpt lat="48.35977" lon="-3.96844">
        <ele>291.60000610352</ele>
        <time>2021-09-12T12:05:23Z</time>
      </trkpt>
      <trkpt lat="48.35977" lon="-3.96841">
        <ele>291.79998779297</ele>
        <time>2021-09-12T12:05:24Z</time>
      </trkpt>
      <trkpt lat="48.35977" lon="-3.96837">
        <ele>292</ele>
        <time>2021-09-12T12:05:25Z</time>
      </trkpt>
      <trkpt lat="48.35977" lon="-3.96835">
        <ele>292.20001220703</ele>
        <time>2021-09-12T12:05:26Z</time>
      </trkpt>
      <trkpt lat="48.35975" lon="-3.96832">
        <ele>292.79998779297</ele>
        <time>2021-09-12T12:05:27Z</time>
      </trkpt>
      <trkpt lat="48.35976" lon="-3.9683">
        <ele>292.79998779297</ele>
        <time>2021-09-12T12:05:28Z</time>
      </trkpt>
      <trkpt lat="48.35976" lon="-3.96827">
        <ele>293</ele>
        <time>2021-09-12T12:05:29Z</time>
      </trkpt>
      <trkpt lat="48.35975" lon="-3.96824">
        <ele>293.20001220703</ele>
        <time>2021-09-12T12:05:30Z</time>
      </trkpt>
      <trkpt lat="48.35974" lon="-3.96821">
        <ele>293.20001220703</ele>
        <time>2021-09-12T12:05:31Z</time>
      </trkpt>
      <trkpt lat="48.35973" lon="-3.96817">
        <ele>293.20001220703</ele>
        <time>2021-09-12T12:05:32Z</time>
      </trkpt>
      <trkpt lat="48.35972" lon="-3.96815">
        <ele>293.39999389648</ele>
        <time>2021-09-12T12:05:33Z</time>
      </trkpt>
      <trkpt lat="48.35971" lon="-3.9681">
        <ele>293.39999389648</ele>
        <time>2021-09-12T12:05:34Z</time>
      </trkpt>
      <trkpt lat="48.3597" lon="-3.96807">
        <ele>293.60000610352</ele>
        <time>2021-09-12T12:05:35Z</time>
      </trkpt>
      <trkpt lat="48.3597" lon="-3.96804">
        <ele>293.60000610352</ele>
        <time>2021-09-12T12:05:36Z</time>
      </trkpt>
      <trkpt lat="48.35969" lon="-3.96803">
        <ele>293.79998779297</ele>
        <time>2021-09-12T12:05:37Z</time>
      </trkpt>
      <trkpt lat="48.35969" lon="-3.968">
        <ele>294</ele>
        <time>2021-09-12T12:05:38Z</time>
      </trkpt>
      <trkpt lat="48.35968" lon="-3.96795">
        <ele>294</ele>
        <time>2021-09-12T12:05:39Z</time>
      </trkpt>
      <trkpt lat="48.35968" lon="-3.96792">
        <ele>294.20001220703</ele>
        <time>2021-09-12T12:05:40Z</time>
      </trkpt>
      <trkpt lat="48.35967" lon="-3.96789">
        <ele>294.39999389648</ele>
        <time>2021-09-12T12:05:41Z</time>
      </trkpt>
      <trkpt lat="48.35967" lon="-3.96788">
        <ele>294.60000610352</ele>
        <time>2021-09-12T12:05:42Z</time>
      </trkpt>
      <trkpt lat="48.35967" lon="-3.96786">
        <ele>294.79998779297</ele>
        <time>2021-09-12T12:05:43Z</time>
      </trkpt>
      <trkpt lat="48.35966" lon="-3.96784">
        <ele>294.79998779297</ele>
        <time>2021-09-12T12:05:44Z</time>
      </trkpt>
      <trkpt lat="48.35965" lon="-3.96781">
        <ele>294.79998779297</ele>
        <time>2021-09-12T12:05:45Z</time>
      </trkpt>
      <trkpt lat="48.35965" lon="-3.96779">
        <ele>295</ele>
        <time>2021-09-12T12:05:46Z</time>
      </trkpt>
      <trkpt lat="48.35964" lon="-3.96776">
        <ele>295</ele>
        <time>2021-09-12T12:05:47Z</time>
      </trkpt>
      <trkpt lat="48.35964" lon="-3.96774">
        <ele>295.20001220703</ele>
        <time>2021-09-12T12:05:48Z</time>
      </trkpt>
      <trkpt lat="48.35963" lon="-3.96771">
        <ele>295.39999389648</ele>
        <time>2021-09-12T12:05:49Z</time>
      </trkpt>
      <trkpt lat="48.35962" lon="-3.96769">
        <ele>295.39999389648</ele>
        <time>2021-09-12T12:05:50Z</time>
      </trkpt>
      <trkpt lat="48.35961" lon="-3.96767">
        <ele>295.39999389648</ele>
        <time>2021-09-12T12:05:51Z</time>
      </trkpt>
      <trkpt lat="48.35961" lon="-3.96766">
        <ele>295.39999389648</ele>
        <time>2021-09-12T12:05:52Z</time>
      </trkpt>
      <trkpt lat="48.35961" lon="-3.96764">
        <ele>295.60000610352</ele>
        <time>2021-09-12T12:05:53Z</time>
      </trkpt>
      <trkpt lat="48.3596" lon="-3.96761">
        <ele>295.60000610352</ele>
        <time>2021-09-12T12:05:54Z</time>
      </trkpt>
      <trkpt lat="48.3596" lon="-3.9676">
        <ele>295.79998779297</ele>
        <time>2021-09-12T12:05:55Z</time>
      </trkpt>
      <trkpt lat="48.35959" lon="-3.96758">
        <ele>295.79998779297</ele>
        <time>2021-09-12T12:05:56Z</time>
      </trkpt>
      <trkpt lat="48.35958" lon="-3.96757">
        <ele>295.79998779297</ele>
        <time>2021-09-12T12:05:57Z</time>
      </trkpt>
      <trkpt lat="48.35958" lon="-3.96755">
        <ele>295.79998779297</ele>
        <time>2021-09-12T12:05:58Z</time>
      </trkpt>
      <trkpt lat="48.35958" lon="-3.96753">
        <ele>296</ele>
        <time>2021-09-12T12:05:59Z</time>
      </trkpt>
      <trkpt lat="48.35957" lon="-3.96751">
        <ele>296.20001220703</ele>
        <time>2021-09-12T12:06:00Z</time>
      </trkpt>
      <trkpt lat="48.35957" lon="-3.96748">
        <ele>296.39999389648</ele>
        <time>2021-09-12T12:06:01Z</time>
      </trkpt>
      <trkpt lat="48.35956" lon="-3.96745">
        <ele>296.39999389648</ele>
        <time>2021-09-12T12:06:02Z</time>
      </trkpt>
      <trkpt lat="48.35956" lon="-3.96741">
        <ele>296.39999389648</ele>
        <time>2021-09-12T12:06:03Z</time>
      </trkpt>
      <trkpt lat="48.35956" lon="-3.96738">
        <ele>296.60000610352</ele>
        <time>2021-09-12T12:06:04Z</time>
      </trkpt>
      <trkpt lat="48.35955" lon="-3.96735">
        <ele>297</ele>
        <time>2021-09-12T12:06:05Z</time>
      </trkpt>
      <trkpt lat="48.35955" lon="-3.96732">
        <ele>297</ele>
        <time>2021-09-12T12:06:06Z</time>
      </trkpt>
      <trkpt lat="48.35955" lon="-3.9673">
        <ele>297.20001220703</ele>
        <time>2021-09-12T12:06:07Z</time>
      </trkpt>
      <trkpt lat="48.35954" lon="-3.96727">
        <ele>297.39999389648</ele>
        <time>2021-09-12T12:06:08Z</time>
      </trkpt>
      <trkpt lat="48.35954" lon="-3.96723">
        <ele>297.60000610352</ele>
        <time>2021-09-12T12:06:09Z</time>
      </trkpt>
      <trkpt lat="48.35953" lon="-3.96721">
        <ele>297.60000610352</ele>
        <time>2021-09-12T12:06:10Z</time>
      </trkpt>
      <trkpt lat="48.35952" lon="-3.96718">
        <ele>297.79998779297</ele>
        <time>2021-09-12T12:06:11Z</time>
      </trkpt>
      <trkpt lat="48.35952" lon="-3.96714">
        <ele>297.79998779297</ele>
        <time>2021-09-12T12:06:12Z</time>
      </trkpt>
      <trkpt lat="48.35951" lon="-3.9671">
        <ele>298</ele>
        <time>2021-09-12T12:06:13Z</time>
      </trkpt>
      <trkpt lat="48.3595" lon="-3.96705">
        <ele>298</ele>
        <time>2021-09-12T12:06:14Z</time>
      </trkpt>
      <trkpt lat="48.35949" lon="-3.96701">
        <ele>298.39999389648</ele>
        <time>2021-09-12T12:06:15Z</time>
      </trkpt>
      <trkpt lat="48.35948" lon="-3.96696">
        <ele>298.39999389648</ele>
        <time>2021-09-12T12:06:16Z</time>
      </trkpt>
      <trkpt lat="48.35947" lon="-3.96692">
        <ele>298.39999389648</ele>
        <time>2021-09-12T12:06:17Z</time>
      </trkpt>
      <trkpt lat="48.35947" lon="-3.96689">
        <ele>298.60000610352</ele>
        <time>2021-09-12T12:06:18Z</time>
      </trkpt>
      <trkpt lat="48.35946" lon="-3.96686">
        <ele>298.79998779297</ele>
        <time>2021-09-12T12:06:19Z</time>
      </trkpt>
      <trkpt lat="48.35944" lon="-3.96683">
        <ele>298.79998779297</ele>
        <time>2021-09-12T12:06:20Z</time>
      </trkpt>
      <trkpt lat="48.35943" lon="-3.96679">
        <ele>298.79998779297</ele>
        <time>2021-09-12T12:06:21Z</time>
      </trkpt>
      <trkpt lat="48.35941" lon="-3.96676">
        <ele>299</ele>
        <time>2021-09-12T12:06:22Z</time>
      </trkpt>
      <trkpt lat="48.3594" lon="-3.96672">
        <ele>299.20001220703</ele>
        <time>2021-09-12T12:06:23Z</time>
      </trkpt>
      <trkpt lat="48.35939" lon="-3.96669">
        <ele>299.39999389648</ele>
        <time>2021-09-12T12:06:24Z</time>
      </trkpt>
      <trkpt lat="48.35938" lon="-3.96664">
        <ele>299.39999389648</ele>
        <time>2021-09-12T12:06:25Z</time>
      </trkpt>
      <trkpt lat="48.35936" lon="-3.9666">
        <ele>299.79998779297</ele>
        <time>2021-09-12T12:06:26Z</time>
      </trkpt>
      <trkpt lat="48.35935" lon="-3.96657">
        <ele>299.79998779297</ele>
        <time>2021-09-12T12:06:27Z</time>
      </trkpt>
      <trkpt lat="48.35933" lon="-3.96653">
        <ele>299.79998779297</ele>
        <time>2021-09-12T12:06:28Z</time>
      </trkpt>
      <trkpt lat="48.35932" lon="-3.96649">
        <ele>299.79998779297</ele>
        <time>2021-09-12T12:06:29Z</time>
      </trkpt>
      <trkpt lat="48.3593" lon="-3.96645">
        <ele>300.20001220703</ele>
        <time>2021-09-12T12:06:30Z</time>
      </trkpt>
      <trkpt lat="48.35929" lon="-3.96641">
        <ele>300.20001220703</ele>
        <time>2021-09-12T12:06:31Z</time>
      </trkpt>
      <trkpt lat="48.35927" lon="-3.96636">
        <ele>300.39999389648</ele>
        <time>2021-09-12T12:06:32Z</time>
      </trkpt>
      <trkpt lat="48.35926" lon="-3.96632">
        <ele>300.39999389648</ele>
        <time>2021-09-12T12:06:33Z</time>
      </trkpt>
      <trkpt lat="48.35925" lon="-3.96627">
        <ele>300.60000610352</ele>
        <time>2021-09-12T12:06:34Z</time>
      </trkpt>
      <trkpt lat="48.35924" lon="-3.96621">
        <ele>300.79998779297</ele>
        <time>2021-09-12T12:06:35Z</time>
      </trkpt>
      <trkpt lat="48.35923" lon="-3.96617">
        <ele>300.79998779297</ele>
        <time>2021-09-12T12:06:36Z</time>
      </trkpt>
      <trkpt lat="48.35922" lon="-3.96614">
        <ele>301</ele>
        <time>2021-09-12T12:06:37Z</time>
      </trkpt>
      <trkpt lat="48.35921" lon="-3.96612">
        <ele>301.20001220703</ele>
        <time>2021-09-12T12:06:38Z</time>
      </trkpt>
      <trkpt lat="48.3592" lon="-3.96609">
        <ele>301.20001220703</ele>
        <time>2021-09-12T12:06:39Z</time>
      </trkpt>
      <trkpt lat="48.35919" lon="-3.96605">
        <ele>301.20001220703</ele>
        <time>2021-09-12T12:06:40Z</time>
      </trkpt>
      <trkpt lat="48.35919" lon="-3.96601">
        <ele>301.39999389648</ele>
        <time>2021-09-12T12:06:41Z</time>
      </trkpt>
      <trkpt lat="48.35918" lon="-3.96597">
        <ele>301.39999389648</ele>
        <time>2021-09-12T12:06:42Z</time>
      </trkpt>
      <trkpt lat="48.35917" lon="-3.96594">
        <ele>302</ele>
        <time>2021-09-12T12:06:43Z</time>
      </trkpt>
      <trkpt lat="48.35916" lon="-3.9659">
        <ele>302.20001220703</ele>
        <time>2021-09-12T12:06:44Z</time>
      </trkpt>
      <trkpt lat="48.35915" lon="-3.96586">
        <ele>302.20001220703</ele>
        <time>2021-09-12T12:06:45Z</time>
      </trkpt>
      <trkpt lat="48.35915" lon="-3.96583">
        <ele>302.39999389648</ele>
        <time>2021-09-12T12:06:46Z</time>
      </trkpt>
      <trkpt lat="48.35915" lon="-3.96579">
        <ele>302.60000610352</ele>
        <time>2021-09-12T12:06:47Z</time>
      </trkpt>
      <trkpt lat="48.35915" lon="-3.96575">
        <ele>302.60000610352</ele>
        <time>2021-09-12T12:06:48Z</time>
      </trkpt>
      <trkpt lat="48.35915" lon="-3.96572">
        <ele>302.79998779297</ele>
        <time>2021-09-12T12:06:49Z</time>
      </trkpt>
      <trkpt lat="48.35915" lon="-3.96568">
        <ele>303</ele>
        <time>2021-09-12T12:06:50Z</time>
      </trkpt>
      <trkpt lat="48.35915" lon="-3.96565">
        <ele>303.20001220703</ele>
        <time>2021-09-12T12:06:51Z</time>
      </trkpt>
      <trkpt lat="48.35915" lon="-3.96561">
        <ele>303.20001220703</ele>
        <time>2021-09-12T12:06:52Z</time>
      </trkpt>
      <trkpt lat="48.35915" lon="-3.96558">
        <ele>303.20001220703</ele>
        <time>2021-09-12T12:06:53Z</time>
      </trkpt>
      <trkpt lat="48.35915" lon="-3.96554">
        <ele>303.39999389648</ele>
        <time>2021-09-12T12:06:54Z</time>
      </trkpt>
      <trkpt lat="48.35915" lon="-3.96552">
        <ele>303.60000610352</ele>
        <time>2021-09-12T12:06:55Z</time>
      </trkpt>
      <trkpt lat="48.35915" lon="-3.96548">
        <ele>303.79998779297</ele>
        <time>2021-09-12T12:06:56Z</time>
      </trkpt>
      <trkpt lat="48.35915" lon="-3.96546">
        <ele>303.79998779297</ele>
        <time>2021-09-12T12:06:57Z</time>
      </trkpt>
      <trkpt lat="48.35915" lon="-3.96543">
        <ele>303.79998779297</ele>
        <time>2021-09-12T12:06:58Z</time>
      </trkpt>
      <trkpt lat="48.35916" lon="-3.96539">
        <ele>304</ele>
        <time>2021-09-12T12:06:59Z</time>
      </trkpt>
      <trkpt lat="48.35916" lon="-3.96536">
        <ele>304</ele>
        <time>2021-09-12T12:07:00Z</time>
      </trkpt>
      <trkpt lat="48.35916" lon="-3.96534">
        <ele>304.20001220703</ele>
        <time>2021-09-12T12:07:01Z</time>
      </trkpt>
      <trkpt lat="48.35916" lon="-3.9653">
        <ele>304.20001220703</ele>
        <time>2021-09-12T12:07:02Z</time>
      </trkpt>
      <trkpt lat="48.35916" lon="-3.96527">
        <ele>304.39999389648</ele>
        <time>2021-09-12T12:07:03Z</time>
      </trkpt>
      <trkpt lat="48.35916" lon="-3.96524">
        <ele>304.79998779297</ele>
        <time>2021-09-12T12:07:04Z</time>
      </trkpt>
      <trkpt lat="48.35916" lon="-3.9652">
        <ele>304.79998779297</ele>
        <time>2021-09-12T12:07:05Z</time>
      </trkpt>
      <trkpt lat="48.35915" lon="-3.96517">
        <ele>305</ele>
        <time>2021-09-12T12:07:06Z</time>
      </trkpt>
      <trkpt lat="48.35916" lon="-3.96513">
        <ele>305.20001220703</ele>
        <time>2021-09-12T12:07:07Z</time>
      </trkpt>
      <trkpt lat="48.35916" lon="-3.9651">
        <ele>305.20001220703</ele>
        <time>2021-09-12T12:07:08Z</time>
      </trkpt>
      <trkpt lat="48.35916" lon="-3.96506">
        <ele>305.39999389648</ele>
        <time>2021-09-12T12:07:09Z</time>
      </trkpt>
      <trkpt lat="48.35916" lon="-3.96502">
        <ele>305.39999389648</ele>
        <time>2021-09-12T12:07:10Z</time>
      </trkpt>
      <trkpt lat="48.35915" lon="-3.96499">
        <ele>305.60000610352</ele>
        <time>2021-09-12T12:07:11Z</time>
      </trkpt>
      <trkpt lat="48.35915" lon="-3.96495">
        <ele>305.60000610352</ele>
        <time>2021-09-12T12:07:12Z</time>
      </trkpt>
      <trkpt lat="48.35916" lon="-3.96492">
        <ele>305.60000610352</ele>
        <time>2021-09-12T12:07:13Z</time>
      </trkpt>
      <trkpt lat="48.35916" lon="-3.96489">
        <ele>305.79998779297</ele>
        <time>2021-09-12T12:07:14Z</time>
      </trkpt>
      <trkpt lat="48.35916" lon="-3.96485">
        <ele>306</ele>
        <time>2021-09-12T12:07:15Z</time>
      </trkpt>
      <trkpt lat="48.35916" lon="-3.96482">
        <ele>306.39999389648</ele>
        <time>2021-09-12T12:07:16Z</time>
      </trkpt>
      <trkpt lat="48.35917" lon="-3.96478">
        <ele>306.60000610352</ele>
        <time>2021-09-12T12:07:17Z</time>
      </trkpt>
      <trkpt lat="48.35918" lon="-3.96475">
        <ele>306.79998779297</ele>
        <time>2021-09-12T12:07:18Z</time>
      </trkpt>
      <trkpt lat="48.35918" lon="-3.96471">
        <ele>306.79998779297</ele>
        <time>2021-09-12T12:07:19Z</time>
      </trkpt>
      <trkpt lat="48.35917" lon="-3.96468">
        <ele>307.39999389648</ele>
        <time>2021-09-12T12:07:20Z</time>
      </trkpt>
      <trkpt lat="48.35915" lon="-3.96465">
        <ele>307.39999389648</ele>
        <time>2021-09-12T12:07:21Z</time>
      </trkpt>
      <trkpt lat="48.35912" lon="-3.96463">
        <ele>307.39999389648</ele>
        <time>2021-09-12T12:07:22Z</time>
      </trkpt>
      <trkpt lat="48.3591" lon="-3.9646">
        <ele>307.60000610352</ele>
        <time>2021-09-12T12:07:23Z</time>
      </trkpt>
      <trkpt lat="48.35907" lon="-3.96458">
        <ele>307.79998779297</ele>
        <time>2021-09-12T12:07:24Z</time>
      </trkpt>
      <trkpt lat="48.35903" lon="-3.96455">
        <ele>307.79998779297</ele>
        <time>2021-09-12T12:07:25Z</time>
      </trkpt>
      <trkpt lat="48.35901" lon="-3.96454">
        <ele>307.79998779297</ele>
        <time>2021-09-12T12:07:26Z</time>
      </trkpt>
      <trkpt lat="48.35899" lon="-3.96451">
        <ele>308</ele>
        <time>2021-09-12T12:07:27Z</time>
      </trkpt>
      <trkpt lat="48.35896" lon="-3.96448">
        <ele>308.20001220703</ele>
        <time>2021-09-12T12:07:28Z</time>
      </trkpt>
      <trkpt lat="48.35893" lon="-3.96445">
        <ele>308.20001220703</ele>
        <time>2021-09-12T12:07:29Z</time>
      </trkpt>
      <trkpt lat="48.35891" lon="-3.96443">
        <ele>308.20001220703</ele>
        <time>2021-09-12T12:07:30Z</time>
      </trkpt>
      <trkpt lat="48.35889" lon="-3.96441">
        <ele>308.20001220703</ele>
        <time>2021-09-12T12:07:31Z</time>
      </trkpt>
      <trkpt lat="48.35886" lon="-3.96438">
        <ele>308.20001220703</ele>
        <time>2021-09-12T12:07:32Z</time>
      </trkpt>
      <trkpt lat="48.35885" lon="-3.96437">
        <ele>308.20001220703</ele>
        <time>2021-09-12T12:07:33Z</time>
      </trkpt>
      <trkpt lat="48.35881" lon="-3.96434">
        <ele>308.20001220703</ele>
        <time>2021-09-12T12:07:34Z</time>
      </trkpt>
      <trkpt lat="48.35879" lon="-3.96431">
        <ele>308.39999389648</ele>
        <time>2021-09-12T12:07:35Z</time>
      </trkpt>
      <trkpt lat="48.35877" lon="-3.96429">
        <ele>308.39999389648</ele>
        <time>2021-09-12T12:07:36Z</time>
      </trkpt>
      <trkpt lat="48.35874" lon="-3.96426">
        <ele>308.39999389648</ele>
        <time>2021-09-12T12:07:37Z</time>
      </trkpt>
      <trkpt lat="48.35872" lon="-3.96423">
        <ele>308.60000610352</ele>
        <time>2021-09-12T12:07:38Z</time>
      </trkpt>
      <trkpt lat="48.3587" lon="-3.96421">
        <ele>308.60000610352</ele>
        <time>2021-09-12T12:07:39Z</time>
      </trkpt>
      <trkpt lat="48.35868" lon="-3.96418">
        <ele>308.60000610352</ele>
        <time>2021-09-12T12:07:40Z</time>
      </trkpt>
      <trkpt lat="48.35866" lon="-3.96415">
        <ele>308.79998779297</ele>
        <time>2021-09-12T12:07:41Z</time>
      </trkpt>
      <trkpt lat="48.35863" lon="-3.96412">
        <ele>308.79998779297</ele>
        <time>2021-09-12T12:07:42Z</time>
      </trkpt>
      <trkpt lat="48.35861" lon="-3.96409">
        <ele>308.79998779297</ele>
        <time>2021-09-12T12:07:43Z</time>
      </trkpt>
      <trkpt lat="48.35858" lon="-3.96406">
        <ele>308.79998779297</ele>
        <time>2021-09-12T12:07:44Z</time>
      </trkpt>
      <trkpt lat="48.35856" lon="-3.96404">
        <ele>308.79998779297</ele>
        <time>2021-09-12T12:07:45Z</time>
      </trkpt>
      <trkpt lat="48.35854" lon="-3.96401">
        <ele>308.79998779297</ele>
        <time>2021-09-12T12:07:46Z</time>
      </trkpt>
      <trkpt lat="48.35851" lon="-3.96398">
        <ele>308.79998779297</ele>
        <time>2021-09-12T12:07:47Z</time>
      </trkpt>
      <trkpt lat="48.35849" lon="-3.96395">
        <ele>308.79998779297</ele>
        <time>2021-09-12T12:07:48Z</time>
      </trkpt>
      <trkpt lat="48.35847" lon="-3.96392">
        <ele>308.79998779297</ele>
        <time>2021-09-12T12:07:49Z</time>
      </trkpt>
      <trkpt lat="48.35845" lon="-3.9639">
        <ele>309</ele>
        <time>2021-09-12T12:07:50Z</time>
      </trkpt>
      <trkpt lat="48.35842" lon="-3.96387">
        <ele>309</ele>
        <time>2021-09-12T12:07:51Z</time>
      </trkpt>
      <trkpt lat="48.3584" lon="-3.96384">
        <ele>309</ele>
        <time>2021-09-12T12:07:52Z</time>
      </trkpt>
      <trkpt lat="48.35837" lon="-3.9638">
        <ele>309</ele>
        <time>2021-09-12T12:07:53Z</time>
      </trkpt>
      <trkpt lat="48.35835" lon="-3.96378">
        <ele>309</ele>
        <time>2021-09-12T12:07:54Z</time>
      </trkpt>
      <trkpt lat="48.35833" lon="-3.96375">
        <ele>309</ele>
        <time>2021-09-12T12:07:55Z</time>
      </trkpt>
      <trkpt lat="48.35831" lon="-3.96373">
        <ele>309</ele>
        <time>2021-09-12T12:07:56Z</time>
      </trkpt>
      <trkpt lat="48.35829" lon="-3.9637">
        <ele>309</ele>
        <time>2021-09-12T12:07:57Z</time>
      </trkpt>
      <trkpt lat="48.35827" lon="-3.96367">
        <ele>309</ele>
        <time>2021-09-12T12:07:58Z</time>
      </trkpt>
      <trkpt lat="48.35825" lon="-3.96364">
        <ele>309</ele>
        <time>2021-09-12T12:07:59Z</time>
      </trkpt>
      <trkpt lat="48.35823" lon="-3.96361">
        <ele>309</ele>
        <time>2021-09-12T12:08:00Z</time>
      </trkpt>
      <trkpt lat="48.35819" lon="-3.96357">
        <ele>309</ele>
        <time>2021-09-12T12:08:01Z</time>
      </trkpt>
      <trkpt lat="48.35816" lon="-3.96355">
        <ele>309</ele>
        <time>2021-09-12T12:08:02Z</time>
      </trkpt>
      <trkpt lat="48.35814" lon="-3.96352">
        <ele>309</ele>
        <time>2021-09-12T12:08:03Z</time>
      </trkpt>
      <trkpt lat="48.35811" lon="-3.9635">
        <ele>309</ele>
        <time>2021-09-12T12:08:04Z</time>
      </trkpt>
      <trkpt lat="48.35809" lon="-3.96347">
        <ele>309</ele>
        <time>2021-09-12T12:08:05Z</time>
      </trkpt>
      <trkpt lat="48.35806" lon="-3.96343">
        <ele>309</ele>
        <time>2021-09-12T12:08:06Z</time>
      </trkpt>
      <trkpt lat="48.35803" lon="-3.96339">
        <ele>309</ele>
        <time>2021-09-12T12:08:07Z</time>
      </trkpt>
      <trkpt lat="48.35801" lon="-3.96336">
        <ele>309</ele>
        <time>2021-09-12T12:08:08Z</time>
      </trkpt>
      <trkpt lat="48.35799" lon="-3.96334">
        <ele>309</ele>
        <time>2021-09-12T12:08:09Z</time>
      </trkpt>
      <trkpt lat="48.35797" lon="-3.96331">
        <ele>309</ele>
        <time>2021-09-12T12:08:10Z</time>
      </trkpt>
      <trkpt lat="48.35794" lon="-3.96327">
        <ele>308.79998779297</ele>
        <time>2021-09-12T12:08:11Z</time>
      </trkpt>
      <trkpt lat="48.35792" lon="-3.96324">
        <ele>308.79998779297</ele>
        <time>2021-09-12T12:08:12Z</time>
      </trkpt>
      <trkpt lat="48.3579" lon="-3.96321">
        <ele>308.79998779297</ele>
        <time>2021-09-12T12:08:13Z</time>
      </trkpt>
      <trkpt lat="48.35788" lon="-3.96317">
        <ele>308.60000610352</ele>
        <time>2021-09-12T12:08:14Z</time>
      </trkpt>
      <trkpt lat="48.35786" lon="-3.96314">
        <ele>308.39999389648</ele>
        <time>2021-09-12T12:08:15Z</time>
      </trkpt>
      <trkpt lat="48.35784" lon="-3.9631">
        <ele>308.39999389648</ele>
        <time>2021-09-12T12:08:16Z</time>
      </trkpt>
      <trkpt lat="48.35782" lon="-3.96307">
        <ele>308.39999389648</ele>
        <time>2021-09-12T12:08:17Z</time>
      </trkpt>
      <trkpt lat="48.35781" lon="-3.96305">
        <ele>308.39999389648</ele>
        <time>2021-09-12T12:08:18Z</time>
      </trkpt>
      <trkpt lat="48.35779" lon="-3.96302">
        <ele>308.39999389648</ele>
        <time>2021-09-12T12:08:19Z</time>
      </trkpt>
      <trkpt lat="48.35777" lon="-3.96298">
        <ele>308.39999389648</ele>
        <time>2021-09-12T12:08:20Z</time>
      </trkpt>
      <trkpt lat="48.35775" lon="-3.96295">
        <ele>308.20001220703</ele>
        <time>2021-09-12T12:08:21Z</time>
      </trkpt>
      <trkpt lat="48.35773" lon="-3.96292">
        <ele>308.20001220703</ele>
        <time>2021-09-12T12:08:22Z</time>
      </trkpt>
      <trkpt lat="48.35772" lon="-3.96289">
        <ele>308.20001220703</ele>
        <time>2021-09-12T12:08:23Z</time>
      </trkpt>
      <trkpt lat="48.3577" lon="-3.96286">
        <ele>308.20001220703</ele>
        <time>2021-09-12T12:08:24Z</time>
      </trkpt>
      <trkpt lat="48.35767" lon="-3.96281">
        <ele>308.20001220703</ele>
        <time>2021-09-12T12:08:25Z</time>
      </trkpt>
      <trkpt lat="48.35765" lon="-3.96278">
        <ele>308.20001220703</ele>
        <time>2021-09-12T12:08:26Z</time>
      </trkpt>
      <trkpt lat="48.35763" lon="-3.96275">
        <ele>308.20001220703</ele>
        <time>2021-09-12T12:08:27Z</time>
      </trkpt>
      <trkpt lat="48.35762" lon="-3.9627">
        <ele>308.20001220703</ele>
        <time>2021-09-12T12:08:28Z</time>
      </trkpt>
      <trkpt lat="48.3576" lon="-3.96264">
        <ele>308.20001220703</ele>
        <time>2021-09-12T12:08:29Z</time>
      </trkpt>
      <trkpt lat="48.35759" lon="-3.9626">
        <ele>308.20001220703</ele>
        <time>2021-09-12T12:08:30Z</time>
      </trkpt>
      <trkpt lat="48.35757" lon="-3.96255">
        <ele>308.20001220703</ele>
        <time>2021-09-12T12:08:31Z</time>
      </trkpt>
      <trkpt lat="48.35756" lon="-3.96252">
        <ele>308.20001220703</ele>
        <time>2021-09-12T12:08:32Z</time>
      </trkpt>
      <trkpt lat="48.35754" lon="-3.96248">
        <ele>308</ele>
        <time>2021-09-12T12:08:33Z</time>
      </trkpt>
      <trkpt lat="48.35752" lon="-3.96245">
        <ele>308</ele>
        <time>2021-09-12T12:08:34Z</time>
      </trkpt>
      <trkpt lat="48.3575" lon="-3.96241">
        <ele>308</ele>
        <time>2021-09-12T12:08:35Z</time>
      </trkpt>
      <trkpt lat="48.35748" lon="-3.96238">
        <ele>308</ele>
        <time>2021-09-12T12:08:36Z</time>
      </trkpt>
      <trkpt lat="48.35745" lon="-3.96234">
        <ele>308</ele>
        <time>2021-09-12T12:08:37Z</time>
      </trkpt>
      <trkpt lat="48.35743" lon="-3.96231">
        <ele>308</ele>
        <time>2021-09-12T12:08:38Z</time>
      </trkpt>
      <trkpt lat="48.35739" lon="-3.96226">
        <ele>307.79998779297</ele>
        <time>2021-09-12T12:08:39Z</time>
      </trkpt>
      <trkpt lat="48.35736" lon="-3.96223">
        <ele>307.60000610352</ele>
        <time>2021-09-12T12:08:40Z</time>
      </trkpt>
      <trkpt lat="48.35734" lon="-3.9622">
        <ele>307.60000610352</ele>
        <time>2021-09-12T12:08:41Z</time>
      </trkpt>
      <trkpt lat="48.35732" lon="-3.96216">
        <ele>307.60000610352</ele>
        <time>2021-09-12T12:08:42Z</time>
      </trkpt>
      <trkpt lat="48.35729" lon="-3.96212">
        <ele>307.60000610352</ele>
        <time>2021-09-12T12:08:43Z</time>
      </trkpt>
      <trkpt lat="48.35726" lon="-3.96208">
        <ele>307.39999389648</ele>
        <time>2021-09-12T12:08:44Z</time>
      </trkpt>
      <trkpt lat="48.35723" lon="-3.96205">
        <ele>307.20001220703</ele>
        <time>2021-09-12T12:08:45Z</time>
      </trkpt>
      <trkpt lat="48.3572" lon="-3.96201">
        <ele>307.20001220703</ele>
        <time>2021-09-12T12:08:46Z</time>
      </trkpt>
      <trkpt lat="48.35718" lon="-3.96198">
        <ele>307</ele>
        <time>2021-09-12T12:08:47Z</time>
      </trkpt>
      <trkpt lat="48.35715" lon="-3.96194">
        <ele>307</ele>
        <time>2021-09-12T12:08:48Z</time>
      </trkpt>
      <trkpt lat="48.35713" lon="-3.9619">
        <ele>307</ele>
        <time>2021-09-12T12:08:49Z</time>
      </trkpt>
      <trkpt lat="48.35711" lon="-3.96187">
        <ele>307</ele>
        <time>2021-09-12T12:08:50Z</time>
      </trkpt>
      <trkpt lat="48.35711" lon="-3.96185">
        <ele>307</ele>
        <time>2021-09-12T12:08:51Z</time>
      </trkpt>
      <trkpt lat="48.35709" lon="-3.96181">
        <ele>307.20001220703</ele>
        <time>2021-09-12T12:08:52Z</time>
      </trkpt>
      <trkpt lat="48.35708" lon="-3.96177">
        <ele>307.20001220703</ele>
        <time>2021-09-12T12:08:53Z</time>
      </trkpt>
      <trkpt lat="48.35706" lon="-3.96172">
        <ele>307.20001220703</ele>
        <time>2021-09-12T12:08:54Z</time>
      </trkpt>
      <trkpt lat="48.35704" lon="-3.96167">
        <ele>307.20001220703</ele>
        <time>2021-09-12T12:08:55Z</time>
      </trkpt>
      <trkpt lat="48.35702" lon="-3.96162">
        <ele>307.20001220703</ele>
        <time>2021-09-12T12:08:56Z</time>
      </trkpt>
      <trkpt lat="48.35699" lon="-3.96155">
        <ele>307</ele>
        <time>2021-09-12T12:08:57Z</time>
      </trkpt>
      <trkpt lat="48.35698" lon="-3.96149">
        <ele>306.79998779297</ele>
        <time>2021-09-12T12:08:58Z</time>
      </trkpt>
      <trkpt lat="48.35696" lon="-3.96143">
        <ele>306.79998779297</ele>
        <time>2021-09-12T12:08:59Z</time>
      </trkpt>
      <trkpt lat="48.35695" lon="-3.96139">
        <ele>306.79998779297</ele>
        <time>2021-09-12T12:09:00Z</time>
      </trkpt>
      <trkpt lat="48.35694" lon="-3.96133">
        <ele>306.39999389648</ele>
        <time>2021-09-12T12:09:01Z</time>
      </trkpt>
      <trkpt lat="48.35692" lon="-3.96127">
        <ele>306.20001220703</ele>
        <time>2021-09-12T12:09:02Z</time>
      </trkpt>
      <trkpt lat="48.35689" lon="-3.96121">
        <ele>306.20001220703</ele>
        <time>2021-09-12T12:09:03Z</time>
      </trkpt>
      <trkpt lat="48.35687" lon="-3.96115">
        <ele>306.20001220703</ele>
        <time>2021-09-12T12:09:04Z</time>
      </trkpt>
      <trkpt lat="48.35687" lon="-3.96111">
        <ele>306</ele>
        <time>2021-09-12T12:09:05Z</time>
      </trkpt>
      <trkpt lat="48.35687" lon="-3.96106">
        <ele>306</ele>
        <time>2021-09-12T12:09:06Z</time>
      </trkpt>
      <trkpt lat="48.3569" lon="-3.96103">
        <ele>306</ele>
        <time>2021-09-12T12:09:07Z</time>
      </trkpt>
      <trkpt lat="48.35693" lon="-3.96102">
        <ele>306</ele>
        <time>2021-09-12T12:09:08Z</time>
      </trkpt>
      <trkpt lat="48.35695" lon="-3.96101">
        <ele>306</ele>
        <time>2021-09-12T12:09:09Z</time>
      </trkpt>
      <trkpt lat="48.35698" lon="-3.961">
        <ele>306</ele>
        <time>2021-09-12T12:09:10Z</time>
      </trkpt>
      <trkpt lat="48.35703" lon="-3.96099">
        <ele>306</ele>
        <time>2021-09-12T12:09:11Z</time>
      </trkpt>
      <trkpt lat="48.35707" lon="-3.96098">
        <ele>306</ele>
        <time>2021-09-12T12:09:12Z</time>
      </trkpt>
      <trkpt lat="48.35711" lon="-3.96097">
        <ele>306</ele>
        <time>2021-09-12T12:09:13Z</time>
      </trkpt>
      <trkpt lat="48.35715" lon="-3.96097">
        <ele>306.20001220703</ele>
        <time>2021-09-12T12:09:14Z</time>
      </trkpt>
      <trkpt lat="48.35719" lon="-3.96097">
        <ele>306.39999389648</ele>
        <time>2021-09-12T12:09:15Z</time>
      </trkpt>
      <trkpt lat="48.35724" lon="-3.96097">
        <ele>306.39999389648</ele>
        <time>2021-09-12T12:09:16Z</time>
      </trkpt>
      <trkpt lat="48.35727" lon="-3.96098">
        <ele>306.60000610352</ele>
        <time>2021-09-12T12:09:17Z</time>
      </trkpt>
      <trkpt lat="48.3573" lon="-3.96098">
        <ele>306.60000610352</ele>
        <time>2021-09-12T12:09:18Z</time>
      </trkpt>
      <trkpt lat="48.35734" lon="-3.96099">
        <ele>306.60000610352</ele>
        <time>2021-09-12T12:09:19Z</time>
      </trkpt>
      <trkpt lat="48.35737" lon="-3.961">
        <ele>306.60000610352</ele>
        <time>2021-09-12T12:09:20Z</time>
      </trkpt>
      <trkpt lat="48.35741" lon="-3.96099">
        <ele>306.79998779297</ele>
        <time>2021-09-12T12:09:21Z</time>
      </trkpt>
      <trkpt lat="48.35744" lon="-3.96099">
        <ele>307</ele>
        <time>2021-09-12T12:09:22Z</time>
      </trkpt>
      <trkpt lat="48.35748" lon="-3.96098">
        <ele>307.20001220703</ele>
        <time>2021-09-12T12:09:23Z</time>
      </trkpt>
      <trkpt lat="48.35751" lon="-3.96097">
        <ele>307.20001220703</ele>
        <time>2021-09-12T12:09:24Z</time>
      </trkpt>
      <trkpt lat="48.35755" lon="-3.96097">
        <ele>307.39999389648</ele>
        <time>2021-09-12T12:09:25Z</time>
      </trkpt>
      <trkpt lat="48.35759" lon="-3.96096">
        <ele>307.39999389648</ele>
        <time>2021-09-12T12:09:26Z</time>
      </trkpt>
      <trkpt lat="48.35763" lon="-3.96095">
        <ele>307.39999389648</ele>
        <time>2021-09-12T12:09:27Z</time>
      </trkpt>
      <trkpt lat="48.35766" lon="-3.96095">
        <ele>307.60000610352</ele>
        <time>2021-09-12T12:09:28Z</time>
      </trkpt>
      <trkpt lat="48.35769" lon="-3.96094">
        <ele>307.60000610352</ele>
        <time>2021-09-12T12:09:29Z</time>
      </trkpt>
      <trkpt lat="48.35774" lon="-3.96094">
        <ele>307.60000610352</ele>
        <time>2021-09-12T12:09:30Z</time>
      </trkpt>
      <trkpt lat="48.35777" lon="-3.96094">
        <ele>308</ele>
        <time>2021-09-12T12:09:31Z</time>
      </trkpt>
      <trkpt lat="48.35781" lon="-3.96094">
        <ele>308</ele>
        <time>2021-09-12T12:09:32Z</time>
      </trkpt>
      <trkpt lat="48.35783" lon="-3.96094">
        <ele>308.20001220703</ele>
        <time>2021-09-12T12:09:33Z</time>
      </trkpt>
      <trkpt lat="48.35787" lon="-3.96094">
        <ele>308.20001220703</ele>
        <time>2021-09-12T12:09:34Z</time>
      </trkpt>
      <trkpt lat="48.35791" lon="-3.96094">
        <ele>308.39999389648</ele>
        <time>2021-09-12T12:09:35Z</time>
      </trkpt>
      <trkpt lat="48.35795" lon="-3.96095">
        <ele>308.79998779297</ele>
        <time>2021-09-12T12:09:36Z</time>
      </trkpt>
      <trkpt lat="48.35798" lon="-3.96095">
        <ele>308.79998779297</ele>
        <time>2021-09-12T12:09:37Z</time>
      </trkpt>
      <trkpt lat="48.35801" lon="-3.96096">
        <ele>309</ele>
        <time>2021-09-12T12:09:38Z</time>
      </trkpt>
      <trkpt lat="48.35805" lon="-3.96095">
        <ele>309</ele>
        <time>2021-09-12T12:09:39Z</time>
      </trkpt>
      <trkpt lat="48.35809" lon="-3.96094">
        <ele>309.20001220703</ele>
        <time>2021-09-12T12:09:40Z</time>
      </trkpt>
      <trkpt lat="48.35812" lon="-3.96093">
        <ele>309.39999389648</ele>
        <time>2021-09-12T12:09:41Z</time>
      </trkpt>
      <trkpt lat="48.35815" lon="-3.96093">
        <ele>309.39999389648</ele>
        <time>2021-09-12T12:09:42Z</time>
      </trkpt>
      <trkpt lat="48.35819" lon="-3.96092">
        <ele>309.60000610352</ele>
        <time>2021-09-12T12:09:43Z</time>
      </trkpt>
      <trkpt lat="48.35822" lon="-3.96091">
        <ele>309.79998779297</ele>
        <time>2021-09-12T12:09:44Z</time>
      </trkpt>
      <trkpt lat="48.35825" lon="-3.96091">
        <ele>310</ele>
        <time>2021-09-12T12:09:45Z</time>
      </trkpt>
      <trkpt lat="48.35827" lon="-3.9609">
        <ele>310</ele>
        <time>2021-09-12T12:09:46Z</time>
      </trkpt>
      <trkpt lat="48.3583" lon="-3.9609">
        <ele>310</ele>
        <time>2021-09-12T12:09:47Z</time>
      </trkpt>
      <trkpt lat="48.35834" lon="-3.9609">
        <ele>310</ele>
        <time>2021-09-12T12:09:48Z</time>
      </trkpt>
      <trkpt lat="48.35837" lon="-3.9609">
        <ele>310.20001220703</ele>
        <time>2021-09-12T12:09:49Z</time>
      </trkpt>
      <trkpt lat="48.35841" lon="-3.9609">
        <ele>310.39999389648</ele>
        <time>2021-09-12T12:09:50Z</time>
      </trkpt>
      <trkpt lat="48.35844" lon="-3.9609">
        <ele>310.79998779297</ele>
        <time>2021-09-12T12:09:51Z</time>
      </trkpt>
      <trkpt lat="48.35847" lon="-3.9609">
        <ele>310.79998779297</ele>
        <time>2021-09-12T12:09:52Z</time>
      </trkpt>
      <trkpt lat="48.35851" lon="-3.96091">
        <ele>311.20001220703</ele>
        <time>2021-09-12T12:09:53Z</time>
      </trkpt>
      <trkpt lat="48.35855" lon="-3.96091">
        <ele>311.20001220703</ele>
        <time>2021-09-12T12:09:54Z</time>
      </trkpt>
      <trkpt lat="48.35858" lon="-3.96092">
        <ele>311.20001220703</ele>
        <time>2021-09-12T12:09:55Z</time>
      </trkpt>
      <trkpt lat="48.35861" lon="-3.96093">
        <ele>311.60000610352</ele>
        <time>2021-09-12T12:09:56Z</time>
      </trkpt>
      <trkpt lat="48.35864" lon="-3.96094">
        <ele>311.79998779297</ele>
        <time>2021-09-12T12:09:57Z</time>
      </trkpt>
      <trkpt lat="48.35868" lon="-3.96094">
        <ele>312</ele>
        <time>2021-09-12T12:09:58Z</time>
      </trkpt>
      <trkpt lat="48.35871" lon="-3.96095">
        <ele>312</ele>
        <time>2021-09-12T12:09:59Z</time>
      </trkpt>
      <trkpt lat="48.35874" lon="-3.96095">
        <ele>312.20001220703</ele>
        <time>2021-09-12T12:10:00Z</time>
      </trkpt>
      <trkpt lat="48.35877" lon="-3.96096">
        <ele>312.60000610352</ele>
        <time>2021-09-12T12:10:01Z</time>
      </trkpt>
      <trkpt lat="48.35881" lon="-3.96097">
        <ele>312.60000610352</ele>
        <time>2021-09-12T12:10:02Z</time>
      </trkpt>
      <trkpt lat="48.35885" lon="-3.96097">
        <ele>312.79998779297</ele>
        <time>2021-09-12T12:10:03Z</time>
      </trkpt>
      <trkpt lat="48.35888" lon="-3.96098">
        <ele>313</ele>
        <time>2021-09-12T12:10:04Z</time>
      </trkpt>
      <trkpt lat="48.35891" lon="-3.96098">
        <ele>313.20001220703</ele>
        <time>2021-09-12T12:10:05Z</time>
      </trkpt>
      <trkpt lat="48.35894" lon="-3.96098">
        <ele>313.20001220703</ele>
        <time>2021-09-12T12:10:06Z</time>
      </trkpt>
      <trkpt lat="48.35897" lon="-3.96099">
        <ele>313.39999389648</ele>
        <time>2021-09-12T12:10:07Z</time>
      </trkpt>
      <trkpt lat="48.359" lon="-3.961">
        <ele>313.60000610352</ele>
        <time>2021-09-12T12:10:08Z</time>
      </trkpt>
      <trkpt lat="48.35903" lon="-3.961">
        <ele>314.20001220703</ele>
        <time>2021-09-12T12:10:09Z</time>
      </trkpt>
      <trkpt lat="48.35906" lon="-3.96101">
        <ele>314.39999389648</ele>
        <time>2021-09-12T12:10:10Z</time>
      </trkpt>
      <trkpt lat="48.35909" lon="-3.96102">
        <ele>314.39999389648</ele>
        <time>2021-09-12T12:10:11Z</time>
      </trkpt>
      <trkpt lat="48.35912" lon="-3.96103">
        <ele>314.60000610352</ele>
        <time>2021-09-12T12:10:12Z</time>
      </trkpt>
      <trkpt lat="48.35915" lon="-3.96105">
        <ele>315.20001220703</ele>
        <time>2021-09-12T12:10:13Z</time>
      </trkpt>
      <trkpt lat="48.35918" lon="-3.96105">
        <ele>315.20001220703</ele>
        <time>2021-09-12T12:10:14Z</time>
      </trkpt>
      <trkpt lat="48.35921" lon="-3.96106">
        <ele>315.20001220703</ele>
        <time>2021-09-12T12:10:15Z</time>
      </trkpt>
      <trkpt lat="48.35923" lon="-3.96107">
        <ele>315.39999389648</ele>
        <time>2021-09-12T12:10:16Z</time>
      </trkpt>
      <trkpt lat="48.35925" lon="-3.96108">
        <ele>315.39999389648</ele>
        <time>2021-09-12T12:10:17Z</time>
      </trkpt>
      <trkpt lat="48.35928" lon="-3.96108">
        <ele>315.39999389648</ele>
        <time>2021-09-12T12:10:18Z</time>
      </trkpt>
      <trkpt lat="48.3593" lon="-3.96109">
        <ele>315.79998779297</ele>
        <time>2021-09-12T12:10:19Z</time>
      </trkpt>
      <trkpt lat="48.35932" lon="-3.96109">
        <ele>315.79998779297</ele>
        <time>2021-09-12T12:10:20Z</time>
      </trkpt>
      <trkpt lat="48.35934" lon="-3.9611">
        <ele>315.79998779297</ele>
        <time>2021-09-12T12:10:21Z</time>
      </trkpt>
      <trkpt lat="48.35936" lon="-3.96111">
        <ele>316.20001220703</ele>
        <time>2021-09-12T12:10:22Z</time>
      </trkpt>
      <trkpt lat="48.35938" lon="-3.96112">
        <ele>316.39999389648</ele>
        <time>2021-09-12T12:10:23Z</time>
      </trkpt>
      <trkpt lat="48.3594" lon="-3.96112">
        <ele>316.39999389648</ele>
        <time>2021-09-12T12:10:24Z</time>
      </trkpt>
      <trkpt lat="48.35943" lon="-3.96112">
        <ele>316.39999389648</ele>
        <time>2021-09-12T12:10:25Z</time>
      </trkpt>
      <trkpt lat="48.35945" lon="-3.9611">
        <ele>316.39999389648</ele>
        <time>2021-09-12T12:10:26Z</time>
      </trkpt>
      <trkpt lat="48.35948" lon="-3.96109">
        <ele>316.60000610352</ele>
        <time>2021-09-12T12:10:27Z</time>
      </trkpt>
      <trkpt lat="48.3595" lon="-3.96107">
        <ele>316.60000610352</ele>
        <time>2021-09-12T12:10:28Z</time>
      </trkpt>
      <trkpt lat="48.35951" lon="-3.96105">
        <ele>316.79998779297</ele>
        <time>2021-09-12T12:10:29Z</time>
      </trkpt>
      <trkpt lat="48.35953" lon="-3.96104">
        <ele>316.79998779297</ele>
        <time>2021-09-12T12:10:30Z</time>
      </trkpt>
      <trkpt lat="48.35956" lon="-3.96102">
        <ele>317</ele>
        <time>2021-09-12T12:10:31Z</time>
      </trkpt>
      <trkpt lat="48.35958" lon="-3.96101">
        <ele>317.20001220703</ele>
        <time>2021-09-12T12:10:32Z</time>
      </trkpt>
      <trkpt lat="48.35961" lon="-3.96099">
        <ele>317.20001220703</ele>
        <time>2021-09-12T12:10:33Z</time>
      </trkpt>
      <trkpt lat="48.35963" lon="-3.96097">
        <ele>317.20001220703</ele>
        <time>2021-09-12T12:10:34Z</time>
      </trkpt>
      <trkpt lat="48.35966" lon="-3.96096">
        <ele>317.39999389648</ele>
        <time>2021-09-12T12:10:35Z</time>
      </trkpt>
      <trkpt lat="48.35969" lon="-3.96094">
        <ele>317.79998779297</ele>
        <time>2021-09-12T12:10:36Z</time>
      </trkpt>
      <trkpt lat="48.35973" lon="-3.96092">
        <ele>317.79998779297</ele>
        <time>2021-09-12T12:10:37Z</time>
      </trkpt>
      <trkpt lat="48.35977" lon="-3.96091">
        <ele>317.79998779297</ele>
        <time>2021-09-12T12:10:38Z</time>
      </trkpt>
      <trkpt lat="48.35979" lon="-3.96089">
        <ele>317.79998779297</ele>
        <time>2021-09-12T12:10:39Z</time>
      </trkpt>
      <trkpt lat="48.35982" lon="-3.96088">
        <ele>317.79998779297</ele>
        <time>2021-09-12T12:10:40Z</time>
      </trkpt>
      <trkpt lat="48.35985" lon="-3.96087">
        <ele>318.20001220703</ele>
        <time>2021-09-12T12:10:41Z</time>
      </trkpt>
      <trkpt lat="48.35988" lon="-3.96085">
        <ele>318.20001220703</ele>
        <time>2021-09-12T12:10:42Z</time>
      </trkpt>
      <trkpt lat="48.35991" lon="-3.96084">
        <ele>318.20001220703</ele>
        <time>2021-09-12T12:10:43Z</time>
      </trkpt>
      <trkpt lat="48.35995" lon="-3.96083">
        <ele>318.39999389648</ele>
        <time>2021-09-12T12:10:44Z</time>
      </trkpt>
      <trkpt lat="48.35999" lon="-3.96083">
        <ele>318.39999389648</ele>
        <time>2021-09-12T12:10:45Z</time>
      </trkpt>
      <trkpt lat="48.36003" lon="-3.96082">
        <ele>318.60000610352</ele>
        <time>2021-09-12T12:10:46Z</time>
      </trkpt>
      <trkpt lat="48.36006" lon="-3.96081">
        <ele>318.60000610352</ele>
        <time>2021-09-12T12:10:47Z</time>
      </trkpt>
      <trkpt lat="48.36009" lon="-3.9608">
        <ele>318.79998779297</ele>
        <time>2021-09-12T12:10:48Z</time>
      </trkpt>
      <trkpt lat="48.36013" lon="-3.9608">
        <ele>318.79998779297</ele>
        <time>2021-09-12T12:10:49Z</time>
      </trkpt>
      <trkpt lat="48.36016" lon="-3.96079">
        <ele>318.79998779297</ele>
        <time>2021-09-12T12:10:50Z</time>
      </trkpt>
      <trkpt lat="48.3602" lon="-3.96079">
        <ele>318.79998779297</ele>
        <time>2021-09-12T12:10:51Z</time>
      </trkpt>
      <trkpt lat="48.36024" lon="-3.96078">
        <ele>319.39999389648</ele>
        <time>2021-09-12T12:10:52Z</time>
      </trkpt>
      <trkpt lat="48.36027" lon="-3.96078">
        <ele>319.39999389648</ele>
        <time>2021-09-12T12:10:53Z</time>
      </trkpt>
      <trkpt lat="48.36031" lon="-3.96077">
        <ele>319.39999389648</ele>
        <time>2021-09-12T12:10:54Z</time>
      </trkpt>
      <trkpt lat="48.36034" lon="-3.96077">
        <ele>319.60000610352</ele>
        <time>2021-09-12T12:10:55Z</time>
      </trkpt>
      <trkpt lat="48.36037" lon="-3.96076">
        <ele>319.79998779297</ele>
        <time>2021-09-12T12:10:56Z</time>
      </trkpt>
      <trkpt lat="48.36041" lon="-3.96075">
        <ele>319.79998779297</ele>
        <time>2021-09-12T12:10:57Z</time>
      </trkpt>
      <trkpt lat="48.36044" lon="-3.96075">
        <ele>319.79998779297</ele>
        <time>2021-09-12T12:10:58Z</time>
      </trkpt>
      <trkpt lat="48.36047" lon="-3.96074">
        <ele>319.79998779297</ele>
        <time>2021-09-12T12:10:59Z</time>
      </trkpt>
      <trkpt lat="48.3605" lon="-3.96073">
        <ele>320.20001220703</ele>
        <time>2021-09-12T12:11:00Z</time>
      </trkpt>
      <trkpt lat="48.36053" lon="-3.96073">
        <ele>320.20001220703</ele>
        <time>2021-09-12T12:11:01Z</time>
      </trkpt>
      <trkpt lat="48.36056" lon="-3.96072">
        <ele>320.39999389648</ele>
        <time>2021-09-12T12:11:02Z</time>
      </trkpt>
      <trkpt lat="48.36059" lon="-3.96072">
        <ele>320.39999389648</ele>
        <time>2021-09-12T12:11:03Z</time>
      </trkpt>
      <trkpt lat="48.36062" lon="-3.96071">
        <ele>320.39999389648</ele>
        <time>2021-09-12T12:11:04Z</time>
      </trkpt>
      <trkpt lat="48.36065" lon="-3.96071">
        <ele>320.39999389648</ele>
        <time>2021-09-12T12:11:05Z</time>
      </trkpt>
      <trkpt lat="48.36068" lon="-3.96071">
        <ele>320.79998779297</ele>
        <time>2021-09-12T12:11:06Z</time>
      </trkpt>
      <trkpt lat="48.36071" lon="-3.96071">
        <ele>320.79998779297</ele>
        <time>2021-09-12T12:11:07Z</time>
      </trkpt>
      <trkpt lat="48.36073" lon="-3.96071">
        <ele>320.79998779297</ele>
        <time>2021-09-12T12:11:08Z</time>
      </trkpt>
      <trkpt lat="48.36076" lon="-3.9607">
        <ele>321</ele>
        <time>2021-09-12T12:11:09Z</time>
      </trkpt>
      <trkpt lat="48.36078" lon="-3.9607">
        <ele>321</ele>
        <time>2021-09-12T12:11:10Z</time>
      </trkpt>
      <trkpt lat="48.36081" lon="-3.96069">
        <ele>321</ele>
        <time>2021-09-12T12:11:11Z</time>
      </trkpt>
      <trkpt lat="48.36083" lon="-3.96069">
        <ele>321</ele>
        <time>2021-09-12T12:11:12Z</time>
      </trkpt>
      <trkpt lat="48.36086" lon="-3.96068">
        <ele>321</ele>
        <time>2021-09-12T12:11:13Z</time>
      </trkpt>
      <trkpt lat="48.36088" lon="-3.96067">
        <ele>321.20001220703</ele>
        <time>2021-09-12T12:11:14Z</time>
      </trkpt>
      <trkpt lat="48.36091" lon="-3.96066">
        <ele>321.39999389648</ele>
        <time>2021-09-12T12:11:15Z</time>
      </trkpt>
      <trkpt lat="48.36094" lon="-3.96065">
        <ele>321.39999389648</ele>
        <time>2021-09-12T12:11:16Z</time>
      </trkpt>
      <trkpt lat="48.36096" lon="-3.96063">
        <ele>321.60000610352</ele>
        <time>2021-09-12T12:11:17Z</time>
      </trkpt>
      <trkpt lat="48.361" lon="-3.96062">
        <ele>321.60000610352</ele>
        <time>2021-09-12T12:11:18Z</time>
      </trkpt>
      <trkpt lat="48.36103" lon="-3.9606">
        <ele>321.79998779297</ele>
        <time>2021-09-12T12:11:19Z</time>
      </trkpt>
      <trkpt lat="48.36106" lon="-3.96059">
        <ele>321.79998779297</ele>
        <time>2021-09-12T12:11:20Z</time>
      </trkpt>
      <trkpt lat="48.3611" lon="-3.96057">
        <ele>322</ele>
        <time>2021-09-12T12:11:21Z</time>
      </trkpt>
      <trkpt lat="48.36113" lon="-3.96055">
        <ele>322.20001220703</ele>
        <time>2021-09-12T12:11:22Z</time>
      </trkpt>
      <trkpt lat="48.36116" lon="-3.96053">
        <ele>322.20001220703</ele>
        <time>2021-09-12T12:11:23Z</time>
      </trkpt>
      <trkpt lat="48.36119" lon="-3.96051">
        <ele>322.20001220703</ele>
        <time>2021-09-12T12:11:24Z</time>
      </trkpt>
      <trkpt lat="48.36122" lon="-3.96049">
        <ele>322.39999389648</ele>
        <time>2021-09-12T12:11:25Z</time>
      </trkpt>
      <trkpt lat="48.36126" lon="-3.96047">
        <ele>322.60000610352</ele>
        <time>2021-09-12T12:11:26Z</time>
      </trkpt>
      <trkpt lat="48.36129" lon="-3.96045">
        <ele>322.60000610352</ele>
        <time>2021-09-12T12:11:27Z</time>
      </trkpt>
      <trkpt lat="48.36132" lon="-3.96043">
        <ele>322.79998779297</ele>
        <time>2021-09-12T12:11:28Z</time>
      </trkpt>
      <trkpt lat="48.36135" lon="-3.9604">
        <ele>322.60000610352</ele>
        <time>2021-09-12T12:11:29Z</time>
      </trkpt>
      <trkpt lat="48.36138" lon="-3.96038">
        <ele>322.79998779297</ele>
        <time>2021-09-12T12:11:30Z</time>
      </trkpt>
      <trkpt lat="48.36141" lon="-3.96035">
        <ele>322.79998779297</ele>
        <time>2021-09-12T12:11:31Z</time>
      </trkpt>
      <trkpt lat="48.36144" lon="-3.96032">
        <ele>322.79998779297</ele>
        <time>2021-09-12T12:11:32Z</time>
      </trkpt>
      <trkpt lat="48.36147" lon="-3.96029">
        <ele>323</ele>
        <time>2021-09-12T12:11:33Z</time>
      </trkpt>
      <trkpt lat="48.36149" lon="-3.96026">
        <ele>323.20001220703</ele>
        <time>2021-09-12T12:11:34Z</time>
      </trkpt>
      <trkpt lat="48.36152" lon="-3.96023">
        <ele>323.20001220703</ele>
        <time>2021-09-12T12:11:35Z</time>
      </trkpt>
      <trkpt lat="48.36155" lon="-3.96021">
        <ele>323.20001220703</ele>
        <time>2021-09-12T12:11:36Z</time>
      </trkpt>
      <trkpt lat="48.36158" lon="-3.96018">
        <ele>323.60000610352</ele>
        <time>2021-09-12T12:11:37Z</time>
      </trkpt>
      <trkpt lat="48.36161" lon="-3.96016">
        <ele>323.60000610352</ele>
        <time>2021-09-12T12:11:38Z</time>
      </trkpt>
      <trkpt lat="48.36164" lon="-3.96014">
        <ele>323.60000610352</ele>
        <time>2021-09-12T12:11:39Z</time>
      </trkpt>
      <trkpt lat="48.36167" lon="-3.96012">
        <ele>323.60000610352</ele>
        <time>2021-09-12T12:11:40Z</time>
      </trkpt>
      <trkpt lat="48.3617" lon="-3.9601">
        <ele>323.79998779297</ele>
        <time>2021-09-12T12:11:41Z</time>
      </trkpt>
      <trkpt lat="48.36173" lon="-3.96008">
        <ele>323.79998779297</ele>
        <time>2021-09-12T12:11:42Z</time>
      </trkpt>
      <trkpt lat="48.36176" lon="-3.96007">
        <ele>324</ele>
        <time>2021-09-12T12:11:43Z</time>
      </trkpt>
      <trkpt lat="48.36179" lon="-3.96005">
        <ele>324.20001220703</ele>
        <time>2021-09-12T12:11:44Z</time>
      </trkpt>
      <trkpt lat="48.36182" lon="-3.96003">
        <ele>324.20001220703</ele>
        <time>2021-09-12T12:11:45Z</time>
      </trkpt>
      <trkpt lat="48.36185" lon="-3.96001">
        <ele>324.20001220703</ele>
        <time>2021-09-12T12:11:46Z</time>
      </trkpt>
      <trkpt lat="48.36188" lon="-3.95999">
        <ele>324.39999389648</ele>
        <time>2021-09-12T12:11:47Z</time>
      </trkpt>
      <trkpt lat="48.36191" lon="-3.95997">
        <ele>324.39999389648</ele>
        <time>2021-09-12T12:11:48Z</time>
      </trkpt>
      <trkpt lat="48.36195" lon="-3.95995">
        <ele>324.39999389648</ele>
        <time>2021-09-12T12:11:49Z</time>
      </trkpt>
      <trkpt lat="48.36198" lon="-3.95992">
        <ele>324.60000610352</ele>
        <time>2021-09-12T12:11:50Z</time>
      </trkpt>
      <trkpt lat="48.36201" lon="-3.9599">
        <ele>324.60000610352</ele>
        <time>2021-09-12T12:11:51Z</time>
      </trkpt>
      <trkpt lat="48.36204" lon="-3.95987">
        <ele>324.79998779297</ele>
        <time>2021-09-12T12:11:52Z</time>
      </trkpt>
      <trkpt lat="48.36206" lon="-3.95985">
        <ele>324.79998779297</ele>
        <time>2021-09-12T12:11:53Z</time>
      </trkpt>
      <trkpt lat="48.36209" lon="-3.95983">
        <ele>325</ele>
        <time>2021-09-12T12:11:54Z</time>
      </trkpt>
      <trkpt lat="48.36212" lon="-3.95981">
        <ele>325.20001220703</ele>
        <time>2021-09-12T12:11:55Z</time>
      </trkpt>
      <trkpt lat="48.36215" lon="-3.95978">
        <ele>325.20001220703</ele>
        <time>2021-09-12T12:11:56Z</time>
      </trkpt>
      <trkpt lat="48.36219" lon="-3.95977">
        <ele>325.39999389648</ele>
        <time>2021-09-12T12:11:57Z</time>
      </trkpt>
      <trkpt lat="48.36222" lon="-3.95974">
        <ele>325.39999389648</ele>
        <time>2021-09-12T12:11:58Z</time>
      </trkpt>
      <trkpt lat="48.36225" lon="-3.95973">
        <ele>325.79998779297</ele>
        <time>2021-09-12T12:11:59Z</time>
      </trkpt>
      <trkpt lat="48.36228" lon="-3.95971">
        <ele>325.79998779297</ele>
        <time>2021-09-12T12:12:00Z</time>
      </trkpt>
      <trkpt lat="48.36231" lon="-3.9597">
        <ele>325.79998779297</ele>
        <time>2021-09-12T12:12:01Z</time>
      </trkpt>
      <trkpt lat="48.36233" lon="-3.95968">
        <ele>325.79998779297</ele>
        <time>2021-09-12T12:12:02Z</time>
      </trkpt>
      <trkpt lat="48.36236" lon="-3.95966">
        <ele>326</ele>
        <time>2021-09-12T12:12:03Z</time>
      </trkpt>
      <trkpt lat="48.36239" lon="-3.95964">
        <ele>326</ele>
        <time>2021-09-12T12:12:04Z</time>
      </trkpt>
      <trkpt lat="48.36242" lon="-3.95962">
        <ele>326.20001220703</ele>
        <time>2021-09-12T12:12:05Z</time>
      </trkpt>
      <trkpt lat="48.36245" lon="-3.9596">
        <ele>326.20001220703</ele>
        <time>2021-09-12T12:12:06Z</time>
      </trkpt>
      <trkpt lat="48.36249" lon="-3.95958">
        <ele>326.39999389648</ele>
        <time>2021-09-12T12:12:07Z</time>
      </trkpt>
      <trkpt lat="48.36252" lon="-3.95957">
        <ele>326.39999389648</ele>
        <time>2021-09-12T12:12:08Z</time>
      </trkpt>
      <trkpt lat="48.36255" lon="-3.95954">
        <ele>326.39999389648</ele>
        <time>2021-09-12T12:12:09Z</time>
      </trkpt>
      <trkpt lat="48.36258" lon="-3.95953">
        <ele>326.60000610352</ele>
        <time>2021-09-12T12:12:10Z</time>
      </trkpt>
      <trkpt lat="48.36261" lon="-3.95951">
        <ele>327</ele>
        <time>2021-09-12T12:12:11Z</time>
      </trkpt>
      <trkpt lat="48.36264" lon="-3.95949">
        <ele>327.20001220703</ele>
        <time>2021-09-12T12:12:12Z</time>
      </trkpt>
      <trkpt lat="48.36268" lon="-3.95947">
        <ele>327.20001220703</ele>
        <time>2021-09-12T12:12:13Z</time>
      </trkpt>
      <trkpt lat="48.36271" lon="-3.95944">
        <ele>327.39999389648</ele>
        <time>2021-09-12T12:12:14Z</time>
      </trkpt>
      <trkpt lat="48.36274" lon="-3.95942">
        <ele>327.39999389648</ele>
        <time>2021-09-12T12:12:15Z</time>
      </trkpt>
      <trkpt lat="48.36277" lon="-3.9594">
        <ele>327.60000610352</ele>
        <time>2021-09-12T12:12:16Z</time>
      </trkpt>
      <trkpt lat="48.3628" lon="-3.95938">
        <ele>327.60000610352</ele>
        <time>2021-09-12T12:12:17Z</time>
      </trkpt>
      <trkpt lat="48.36283" lon="-3.95936">
        <ele>327.79998779297</ele>
        <time>2021-09-12T12:12:18Z</time>
      </trkpt>
      <trkpt lat="48.36286" lon="-3.95934">
        <ele>328</ele>
        <time>2021-09-12T12:12:19Z</time>
      </trkpt>
      <trkpt lat="48.36289" lon="-3.95932">
        <ele>328</ele>
        <time>2021-09-12T12:12:20Z</time>
      </trkpt>
      <trkpt lat="48.36292" lon="-3.9593">
        <ele>328.20001220703</ele>
        <time>2021-09-12T12:12:21Z</time>
      </trkpt>
      <trkpt lat="48.36295" lon="-3.95928">
        <ele>328.20001220703</ele>
        <time>2021-09-12T12:12:22Z</time>
      </trkpt>
      <trkpt lat="48.36298" lon="-3.95926">
        <ele>328.39999389648</ele>
        <time>2021-09-12T12:12:23Z</time>
      </trkpt>
      <trkpt lat="48.36301" lon="-3.95924">
        <ele>328.39999389648</ele>
        <time>2021-09-12T12:12:24Z</time>
      </trkpt>
      <trkpt lat="48.36304" lon="-3.95922">
        <ele>328.39999389648</ele>
        <time>2021-09-12T12:12:25Z</time>
      </trkpt>
      <trkpt lat="48.36307" lon="-3.95919">
        <ele>329.20001220703</ele>
        <time>2021-09-12T12:12:26Z</time>
      </trkpt>
      <trkpt lat="48.3631" lon="-3.95917">
        <ele>329.20001220703</ele>
        <time>2021-09-12T12:12:27Z</time>
      </trkpt>
      <trkpt lat="48.36313" lon="-3.95914">
        <ele>329.39999389648</ele>
        <time>2021-09-12T12:12:28Z</time>
      </trkpt>
      <trkpt lat="48.36316" lon="-3.95912">
        <ele>329.60000610352</ele>
        <time>2021-09-12T12:12:29Z</time>
      </trkpt>
      <trkpt lat="48.36319" lon="-3.95909">
        <ele>329.60000610352</ele>
        <time>2021-09-12T12:12:30Z</time>
      </trkpt>
      <trkpt lat="48.36322" lon="-3.95906">
        <ele>329.79998779297</ele>
        <time>2021-09-12T12:12:31Z</time>
      </trkpt>
      <trkpt lat="48.36324" lon="-3.95903">
        <ele>330</ele>
        <time>2021-09-12T12:12:32Z</time>
      </trkpt>
      <trkpt lat="48.36327" lon="-3.959">
        <ele>330.20001220703</ele>
        <time>2021-09-12T12:12:33Z</time>
      </trkpt>
      <trkpt lat="48.3633" lon="-3.95897">
        <ele>330.20001220703</ele>
        <time>2021-09-12T12:12:34Z</time>
      </trkpt>
      <trkpt lat="48.36332" lon="-3.95894">
        <ele>330.39999389648</ele>
        <time>2021-09-12T12:12:35Z</time>
      </trkpt>
      <trkpt lat="48.36335" lon="-3.95892">
        <ele>330.79998779297</ele>
        <time>2021-09-12T12:12:36Z</time>
      </trkpt>
      <trkpt lat="48.36337" lon="-3.95889">
        <ele>330.79998779297</ele>
        <time>2021-09-12T12:12:37Z</time>
      </trkpt>
      <trkpt lat="48.3634" lon="-3.95887">
        <ele>330.79998779297</ele>
        <time>2021-09-12T12:12:38Z</time>
      </trkpt>
      <trkpt lat="48.36343" lon="-3.95885">
        <ele>331</ele>
        <time>2021-09-12T12:12:39Z</time>
      </trkpt>
      <trkpt lat="48.36346" lon="-3.95883">
        <ele>331.20001220703</ele>
        <time>2021-09-12T12:12:40Z</time>
      </trkpt>
      <trkpt lat="48.36348" lon="-3.95881">
        <ele>331.20001220703</ele>
        <time>2021-09-12T12:12:41Z</time>
      </trkpt>
      <trkpt lat="48.3635" lon="-3.95879">
        <ele>331.20001220703</ele>
        <time>2021-09-12T12:12:42Z</time>
      </trkpt>
      <trkpt lat="48.36352" lon="-3.95877">
        <ele>331.39999389648</ele>
        <time>2021-09-12T12:12:43Z</time>
      </trkpt>
      <trkpt lat="48.36354" lon="-3.95875">
        <ele>331.60000610352</ele>
        <time>2021-09-12T12:12:44Z</time>
      </trkpt>
      <trkpt lat="48.36356" lon="-3.95873">
        <ele>331.79998779297</ele>
        <time>2021-09-12T12:12:45Z</time>
      </trkpt>
      <trkpt lat="48.36358" lon="-3.95871">
        <ele>331.79998779297</ele>
        <time>2021-09-12T12:12:46Z</time>
      </trkpt>
      <trkpt lat="48.3636" lon="-3.95868">
        <ele>332</ele>
        <time>2021-09-12T12:12:47Z</time>
      </trkpt>
      <trkpt lat="48.36362" lon="-3.95866">
        <ele>332</ele>
        <time>2021-09-12T12:12:48Z</time>
      </trkpt>
      <trkpt lat="48.36364" lon="-3.95864">
        <ele>332</ele>
        <time>2021-09-12T12:12:49Z</time>
      </trkpt>
      <trkpt lat="48.36366" lon="-3.95861">
        <ele>332.39999389648</ele>
        <time>2021-09-12T12:12:50Z</time>
      </trkpt>
      <trkpt lat="48.36367" lon="-3.95858">
        <ele>332.39999389648</ele>
        <time>2021-09-12T12:12:51Z</time>
      </trkpt>
      <trkpt lat="48.36369" lon="-3.95855">
        <ele>332.39999389648</ele>
        <time>2021-09-12T12:12:52Z</time>
      </trkpt>
      <trkpt lat="48.36371" lon="-3.95851">
        <ele>332.60000610352</ele>
        <time>2021-09-12T12:12:53Z</time>
      </trkpt>
      <trkpt lat="48.36373" lon="-3.95849">
        <ele>332.60000610352</ele>
        <time>2021-09-12T12:12:54Z</time>
      </trkpt>
      <trkpt lat="48.36375" lon="-3.95846">
        <ele>332.60000610352</ele>
        <time>2021-09-12T12:12:55Z</time>
      </trkpt>
      <trkpt lat="48.36377" lon="-3.95844">
        <ele>332.60000610352</ele>
        <time>2021-09-12T12:12:56Z</time>
      </trkpt>
      <trkpt lat="48.36379" lon="-3.95841">
        <ele>332.79998779297</ele>
        <time>2021-09-12T12:12:57Z</time>
      </trkpt>
      <trkpt lat="48.36382" lon="-3.95838">
        <ele>332.79998779297</ele>
        <time>2021-09-12T12:12:58Z</time>
      </trkpt>
      <trkpt lat="48.36384" lon="-3.95835">
        <ele>333.20001220703</ele>
        <time>2021-09-12T12:12:59Z</time>
      </trkpt>
      <trkpt lat="48.36386" lon="-3.95832">
        <ele>333.39999389648</ele>
        <time>2021-09-12T12:13:00Z</time>
      </trkpt>
      <trkpt lat="48.36388" lon="-3.95829">
        <ele>333.39999389648</ele>
        <time>2021-09-12T12:13:01Z</time>
      </trkpt>
      <trkpt lat="48.36391" lon="-3.95826">
        <ele>333.39999389648</ele>
        <time>2021-09-12T12:13:02Z</time>
      </trkpt>
      <trkpt lat="48.36393" lon="-3.95823">
        <ele>334</ele>
        <time>2021-09-12T12:13:03Z</time>
      </trkpt>
      <trkpt lat="48.36395" lon="-3.95819">
        <ele>334</ele>
        <time>2021-09-12T12:13:04Z</time>
      </trkpt>
      <trkpt lat="48.36397" lon="-3.95816">
        <ele>334</ele>
        <time>2021-09-12T12:13:05Z</time>
      </trkpt>
      <trkpt lat="48.36399" lon="-3.95813">
        <ele>334.39999389648</ele>
        <time>2021-09-12T12:13:06Z</time>
      </trkpt>
      <trkpt lat="48.36401" lon="-3.9581">
        <ele>334.39999389648</ele>
        <time>2021-09-12T12:13:07Z</time>
      </trkpt>
      <trkpt lat="48.36403" lon="-3.95807">
        <ele>334.39999389648</ele>
        <time>2021-09-12T12:13:08Z</time>
      </trkpt>
      <trkpt lat="48.36405" lon="-3.95804">
        <ele>334.60000610352</ele>
        <time>2021-09-12T12:13:09Z</time>
      </trkpt>
      <trkpt lat="48.36407" lon="-3.95801">
        <ele>334.60000610352</ele>
        <time>2021-09-12T12:13:10Z</time>
      </trkpt>
      <trkpt lat="48.36409" lon="-3.95798">
        <ele>334.60000610352</ele>
        <time>2021-09-12T12:13:11Z</time>
      </trkpt>
      <trkpt lat="48.36411" lon="-3.95795">
        <ele>335</ele>
        <time>2021-09-12T12:13:12Z</time>
      </trkpt>
      <trkpt lat="48.36413" lon="-3.95792">
        <ele>335.20001220703</ele>
        <time>2021-09-12T12:13:13Z</time>
      </trkpt>
      <trkpt lat="48.36415" lon="-3.95789">
        <ele>335.20001220703</ele>
        <time>2021-09-12T12:13:14Z</time>
      </trkpt>
      <trkpt lat="48.36417" lon="-3.95786">
        <ele>335.39999389648</ele>
        <time>2021-09-12T12:13:15Z</time>
      </trkpt>
      <trkpt lat="48.36419" lon="-3.95783">
        <ele>335.39999389648</ele>
        <time>2021-09-12T12:13:16Z</time>
      </trkpt>
      <trkpt lat="48.36421" lon="-3.9578">
        <ele>335.39999389648</ele>
        <time>2021-09-12T12:13:17Z</time>
      </trkpt>
      <trkpt lat="48.36422" lon="-3.95777">
        <ele>335.60000610352</ele>
        <time>2021-09-12T12:13:18Z</time>
      </trkpt>
      <trkpt lat="48.36424" lon="-3.95774">
        <ele>335.79998779297</ele>
        <time>2021-09-12T12:13:19Z</time>
      </trkpt>
      <trkpt lat="48.36426" lon="-3.95771">
        <ele>335.79998779297</ele>
        <time>2021-09-12T12:13:20Z</time>
      </trkpt>
      <trkpt lat="48.36427" lon="-3.95769">
        <ele>336</ele>
        <time>2021-09-12T12:13:21Z</time>
      </trkpt>
      <trkpt lat="48.36428" lon="-3.95766">
        <ele>336</ele>
        <time>2021-09-12T12:13:22Z</time>
      </trkpt>
      <trkpt lat="48.36429" lon="-3.95764">
        <ele>336.20001220703</ele>
        <time>2021-09-12T12:13:23Z</time>
      </trkpt>
      <trkpt lat="48.3643" lon="-3.95762">
        <ele>336.20001220703</ele>
        <time>2021-09-12T12:13:24Z</time>
      </trkpt>
      <trkpt lat="48.36431" lon="-3.95761">
        <ele>336.20001220703</ele>
        <time>2021-09-12T12:13:25Z</time>
      </trkpt>
      <trkpt lat="48.36431" lon="-3.9576">
        <ele>336.39999389648</ele>
        <time>2021-09-12T12:13:26Z</time>
      </trkpt>
      <trkpt lat="48.36431" lon="-3.9576">
        <ele>336.39999389648</ele>
        <time>2021-09-12T12:13:27Z</time>
      </trkpt>
      <trkpt lat="48.36431" lon="-3.9576">
        <ele>336.39999389648</ele>
        <time>2021-09-12T12:13:28Z</time>
      </trkpt>
      <trkpt lat="48.36434" lon="-3.95756">
        <ele>336.60000610352</ele>
        <time>2021-09-12T12:13:31Z</time>
      </trkpt>
      <trkpt lat="48.36435" lon="-3.95755">
        <ele>336.79998779297</ele>
        <time>2021-09-12T12:13:32Z</time>
      </trkpt>
      <trkpt lat="48.36437" lon="-3.95753">
        <ele>336.79998779297</ele>
        <time>2021-09-12T12:13:33Z</time>
      </trkpt>
      <trkpt lat="48.36438" lon="-3.95751">
        <ele>336.79998779297</ele>
        <time>2021-09-12T12:13:34Z</time>
      </trkpt>
      <trkpt lat="48.3644" lon="-3.9575">
        <ele>337</ele>
        <time>2021-09-12T12:13:35Z</time>
      </trkpt>
      <trkpt lat="48.36441" lon="-3.95748">
        <ele>337</ele>
        <time>2021-09-12T12:13:36Z</time>
      </trkpt>
      <trkpt lat="48.36443" lon="-3.95746">
        <ele>337.39999389648</ele>
        <time>2021-09-12T12:13:37Z</time>
      </trkpt>
      <trkpt lat="48.36444" lon="-3.95745">
        <ele>337.39999389648</ele>
        <time>2021-09-12T12:13:38Z</time>
      </trkpt>
      <trkpt lat="48.36446" lon="-3.95744">
        <ele>337.39999389648</ele>
        <time>2021-09-12T12:13:39Z</time>
      </trkpt>
      <trkpt lat="48.36448" lon="-3.95743">
        <ele>338</ele>
        <time>2021-09-12T12:13:40Z</time>
      </trkpt>
      <trkpt lat="48.3645" lon="-3.95741">
        <ele>338</ele>
        <time>2021-09-12T12:13:41Z</time>
      </trkpt>
      <trkpt lat="48.36452" lon="-3.95739">
        <ele>338.20001220703</ele>
        <time>2021-09-12T12:13:42Z</time>
      </trkpt>
      <trkpt lat="48.36454" lon="-3.95737">
        <ele>338.20001220703</ele>
        <time>2021-09-12T12:13:43Z</time>
      </trkpt>
      <trkpt lat="48.36457" lon="-3.95736">
        <ele>338.39999389648</ele>
        <time>2021-09-12T12:13:44Z</time>
      </trkpt>
      <trkpt lat="48.36459" lon="-3.95734">
        <ele>338.79998779297</ele>
        <time>2021-09-12T12:13:45Z</time>
      </trkpt>
      <trkpt lat="48.36461" lon="-3.95731">
        <ele>339</ele>
        <time>2021-09-12T12:13:46Z</time>
      </trkpt>
      <trkpt lat="48.36463" lon="-3.95729">
        <ele>339</ele>
        <time>2021-09-12T12:13:47Z</time>
      </trkpt>
      <trkpt lat="48.36466" lon="-3.95728">
        <ele>339.20001220703</ele>
        <time>2021-09-12T12:13:48Z</time>
      </trkpt>
      <trkpt lat="48.36468" lon="-3.95727">
        <ele>339.20001220703</ele>
        <time>2021-09-12T12:13:49Z</time>
      </trkpt>
      <trkpt lat="48.36471" lon="-3.95725">
        <ele>339.39999389648</ele>
        <time>2021-09-12T12:13:50Z</time>
      </trkpt>
      <trkpt lat="48.36474" lon="-3.95724">
        <ele>339.60000610352</ele>
        <time>2021-09-12T12:13:51Z</time>
      </trkpt>
      <trkpt lat="48.36476" lon="-3.95722">
        <ele>339.79998779297</ele>
        <time>2021-09-12T12:13:52Z</time>
      </trkpt>
      <trkpt lat="48.36478" lon="-3.95721">
        <ele>340</ele>
        <time>2021-09-12T12:13:53Z</time>
      </trkpt>
      <trkpt lat="48.36479" lon="-3.9572">
        <ele>340</ele>
        <time>2021-09-12T12:13:54Z</time>
      </trkpt>
      <trkpt lat="48.3648" lon="-3.95719">
        <ele>340.20001220703</ele>
        <time>2021-09-12T12:13:55Z</time>
      </trkpt>
      <trkpt lat="48.36481" lon="-3.95718">
        <ele>340.20001220703</ele>
        <time>2021-09-12T12:13:56Z</time>
      </trkpt>
      <trkpt lat="48.36482" lon="-3.95716">
        <ele>340.20001220703</ele>
        <time>2021-09-12T12:13:57Z</time>
      </trkpt>
      <trkpt lat="48.36483" lon="-3.95715">
        <ele>340.39999389648</ele>
        <time>2021-09-12T12:13:58Z</time>
      </trkpt>
      <trkpt lat="48.36484" lon="-3.95713">
        <ele>340.60000610352</ele>
        <time>2021-09-12T12:13:59Z</time>
      </trkpt>
      <trkpt lat="48.36485" lon="-3.95711">
        <ele>340.79998779297</ele>
        <time>2021-09-12T12:14:00Z</time>
      </trkpt>
      <trkpt lat="48.36487" lon="-3.95709">
        <ele>340.79998779297</ele>
        <time>2021-09-12T12:14:01Z</time>
      </trkpt>
      <trkpt lat="48.36488" lon="-3.95706">
        <ele>341.20001220703</ele>
        <time>2021-09-12T12:14:02Z</time>
      </trkpt>
      <trkpt lat="48.36489" lon="-3.95703">
        <ele>341.20001220703</ele>
        <time>2021-09-12T12:14:03Z</time>
      </trkpt>
      <trkpt lat="48.3649" lon="-3.957">
        <ele>341.20001220703</ele>
        <time>2021-09-12T12:14:04Z</time>
      </trkpt>
      <trkpt lat="48.36492" lon="-3.95697">
        <ele>341.39999389648</ele>
        <time>2021-09-12T12:14:05Z</time>
      </trkpt>
      <trkpt lat="48.36493" lon="-3.95694">
        <ele>341.60000610352</ele>
        <time>2021-09-12T12:14:06Z</time>
      </trkpt>
      <trkpt lat="48.36495" lon="-3.95691">
        <ele>341.60000610352</ele>
        <time>2021-09-12T12:14:07Z</time>
      </trkpt>
      <trkpt lat="48.36496" lon="-3.95688">
        <ele>341.60000610352</ele>
        <time>2021-09-12T12:14:08Z</time>
      </trkpt>
      <trkpt lat="48.36496" lon="-3.95684">
        <ele>341.79998779297</ele>
        <time>2021-09-12T12:14:09Z</time>
      </trkpt>
      <trkpt lat="48.36497" lon="-3.95681">
        <ele>342.39999389648</ele>
        <time>2021-09-12T12:14:10Z</time>
      </trkpt>
      <trkpt lat="48.36496" lon="-3.95678">
        <ele>342.39999389648</ele>
        <time>2021-09-12T12:14:11Z</time>
      </trkpt>
      <trkpt lat="48.36497" lon="-3.95674">
        <ele>342.39999389648</ele>
        <time>2021-09-12T12:14:12Z</time>
      </trkpt>
      <trkpt lat="48.36497" lon="-3.95671">
        <ele>342.60000610352</ele>
        <time>2021-09-12T12:14:13Z</time>
      </trkpt>
      <trkpt lat="48.36497" lon="-3.95668">
        <ele>342.60000610352</ele>
        <time>2021-09-12T12:14:14Z</time>
      </trkpt>
      <trkpt lat="48.36498" lon="-3.95666">
        <ele>342.60000610352</ele>
        <time>2021-09-12T12:14:15Z</time>
      </trkpt>
      <trkpt lat="48.36498" lon="-3.95663">
        <ele>342.79998779297</ele>
        <time>2021-09-12T12:14:16Z</time>
      </trkpt>
      <trkpt lat="48.36498" lon="-3.9566">
        <ele>342.79998779297</ele>
        <time>2021-09-12T12:14:17Z</time>
      </trkpt>
      <trkpt lat="48.36499" lon="-3.95656">
        <ele>343</ele>
        <time>2021-09-12T12:14:18Z</time>
      </trkpt>
      <trkpt lat="48.36499" lon="-3.95653">
        <ele>343</ele>
        <time>2021-09-12T12:14:19Z</time>
      </trkpt>
      <trkpt lat="48.365" lon="-3.95649">
        <ele>343.20001220703</ele>
        <time>2021-09-12T12:14:20Z</time>
      </trkpt>
      <trkpt lat="48.36501" lon="-3.95646">
        <ele>343.39999389648</ele>
        <time>2021-09-12T12:14:21Z</time>
      </trkpt>
      <trkpt lat="48.36502" lon="-3.95643">
        <ele>343.39999389648</ele>
        <time>2021-09-12T12:14:22Z</time>
      </trkpt>
      <trkpt lat="48.36502" lon="-3.95639">
        <ele>343.39999389648</ele>
        <time>2021-09-12T12:14:23Z</time>
      </trkpt>
      <trkpt lat="48.36503" lon="-3.95636">
        <ele>343.60000610352</ele>
        <time>2021-09-12T12:14:24Z</time>
      </trkpt>
      <trkpt lat="48.36503" lon="-3.95632">
        <ele>344</ele>
        <time>2021-09-12T12:14:25Z</time>
      </trkpt>
      <trkpt lat="48.36504" lon="-3.95629">
        <ele>344</ele>
        <time>2021-09-12T12:14:26Z</time>
      </trkpt>
      <trkpt lat="48.36504" lon="-3.95626">
        <ele>344.20001220703</ele>
        <time>2021-09-12T12:14:27Z</time>
      </trkpt>
      <trkpt lat="48.36505" lon="-3.95624">
        <ele>344.39999389648</ele>
        <time>2021-09-12T12:14:28Z</time>
      </trkpt>
      <trkpt lat="48.36506" lon="-3.95622">
        <ele>344.39999389648</ele>
        <time>2021-09-12T12:14:29Z</time>
      </trkpt>
      <trkpt lat="48.36506" lon="-3.9562">
        <ele>344.60000610352</ele>
        <time>2021-09-12T12:14:30Z</time>
      </trkpt>
      <trkpt lat="48.36507" lon="-3.95619">
        <ele>344.60000610352</ele>
        <time>2021-09-12T12:14:31Z</time>
      </trkpt>
      <trkpt lat="48.36509" lon="-3.95618">
        <ele>344.60000610352</ele>
        <time>2021-09-12T12:14:32Z</time>
      </trkpt>
      <trkpt lat="48.3651" lon="-3.95618">
        <ele>344.60000610352</ele>
        <time>2021-09-12T12:14:33Z</time>
      </trkpt>
      <trkpt lat="48.36512" lon="-3.95619">
        <ele>344.60000610352</ele>
        <time>2021-09-12T12:14:34Z</time>
      </trkpt>
      <trkpt lat="48.36514" lon="-3.9562">
        <ele>344.60000610352</ele>
        <time>2021-09-12T12:14:35Z</time>
      </trkpt>
      <trkpt lat="48.36515" lon="-3.9562">
        <ele>344.79998779297</ele>
        <time>2021-09-12T12:14:36Z</time>
      </trkpt>
      <trkpt lat="48.36517" lon="-3.9562">
        <ele>344.79998779297</ele>
        <time>2021-09-12T12:14:37Z</time>
      </trkpt>
      <trkpt lat="48.36517" lon="-3.95619">
        <ele>345</ele>
        <time>2021-09-12T12:14:38Z</time>
      </trkpt>
      <trkpt lat="48.36518" lon="-3.95619">
        <ele>345</ele>
        <time>2021-09-12T12:14:39Z</time>
      </trkpt>
      <trkpt lat="48.36518" lon="-3.95619">
        <ele>345.20001220703</ele>
        <time>2021-09-12T12:14:40Z</time>
      </trkpt>
      <trkpt lat="48.36518" lon="-3.95619">
        <ele>345.20001220703</ele>
        <time>2021-09-12T12:14:41Z</time>
      </trkpt>
      <trkpt lat="48.36523" lon="-3.95617">
        <ele>345.39999389648</ele>
        <time>2021-09-12T12:14:48Z</time>
      </trkpt>
      <trkpt lat="48.36525" lon="-3.95616">
        <ele>345.39999389648</ele>
        <time>2021-09-12T12:14:49Z</time>
      </trkpt>
      <trkpt lat="48.36526" lon="-3.95615">
        <ele>345.60000610352</ele>
        <time>2021-09-12T12:14:50Z</time>
      </trkpt>
      <trkpt lat="48.36527" lon="-3.95613">
        <ele>345.79998779297</ele>
        <time>2021-09-12T12:14:51Z</time>
      </trkpt>
      <trkpt lat="48.36529" lon="-3.95612">
        <ele>346</ele>
        <time>2021-09-12T12:14:52Z</time>
      </trkpt>
      <trkpt lat="48.3653" lon="-3.9561">
        <ele>346.20001220703</ele>
        <time>2021-09-12T12:14:53Z</time>
      </trkpt>
      <trkpt lat="48.36532" lon="-3.95609">
        <ele>346.20001220703</ele>
        <time>2021-09-12T12:14:54Z</time>
      </trkpt>
      <trkpt lat="48.36533" lon="-3.95608">
        <ele>346.20001220703</ele>
        <time>2021-09-12T12:14:55Z</time>
      </trkpt>
      <trkpt lat="48.36534" lon="-3.95607">
        <ele>346.39999389648</ele>
        <time>2021-09-12T12:14:56Z</time>
      </trkpt>
      <trkpt lat="48.36535" lon="-3.95606">
        <ele>346.39999389648</ele>
        <time>2021-09-12T12:14:57Z</time>
      </trkpt>
      <trkpt lat="48.36536" lon="-3.95605">
        <ele>346.39999389648</ele>
        <time>2021-09-12T12:14:58Z</time>
      </trkpt>
      <trkpt lat="48.36537" lon="-3.95604">
        <ele>346.60000610352</ele>
        <time>2021-09-12T12:14:59Z</time>
      </trkpt>
      <trkpt lat="48.36538" lon="-3.95604">
        <ele>346.79998779297</ele>
        <time>2021-09-12T12:15:00Z</time>
      </trkpt>
      <trkpt lat="48.36539" lon="-3.95603">
        <ele>346.79998779297</ele>
        <time>2021-09-12T12:15:01Z</time>
      </trkpt>
      <trkpt lat="48.36541" lon="-3.95602">
        <ele>346.79998779297</ele>
        <time>2021-09-12T12:15:02Z</time>
      </trkpt>
      <trkpt lat="48.36542" lon="-3.95601">
        <ele>347</ele>
        <time>2021-09-12T12:15:03Z</time>
      </trkpt>
      <trkpt lat="48.36543" lon="-3.95601">
        <ele>347</ele>
        <time>2021-09-12T12:15:04Z</time>
      </trkpt>
      <trkpt lat="48.36544" lon="-3.956">
        <ele>347</ele>
        <time>2021-09-12T12:15:05Z</time>
      </trkpt>
      <trkpt lat="48.36546" lon="-3.95599">
        <ele>347.20001220703</ele>
        <time>2021-09-12T12:15:06Z</time>
      </trkpt>
      <trkpt lat="48.36547" lon="-3.95598">
        <ele>347.60000610352</ele>
        <time>2021-09-12T12:15:07Z</time>
      </trkpt>
      <trkpt lat="48.36548" lon="-3.95596">
        <ele>347.60000610352</ele>
        <time>2021-09-12T12:15:08Z</time>
      </trkpt>
      <trkpt lat="48.36549" lon="-3.95595">
        <ele>347.79998779297</ele>
        <time>2021-09-12T12:15:09Z</time>
      </trkpt>
      <trkpt lat="48.3655" lon="-3.95593">
        <ele>347.79998779297</ele>
        <time>2021-09-12T12:15:10Z</time>
      </trkpt>
      <trkpt lat="48.36551" lon="-3.95591">
        <ele>347.79998779297</ele>
        <time>2021-09-12T12:15:11Z</time>
      </trkpt>
      <trkpt lat="48.36552" lon="-3.9559">
        <ele>348</ele>
        <time>2021-09-12T12:15:12Z</time>
      </trkpt>
      <trkpt lat="48.36553" lon="-3.95589">
        <ele>348.39999389648</ele>
        <time>2021-09-12T12:15:13Z</time>
      </trkpt>
      <trkpt lat="48.36553" lon="-3.95589">
        <ele>348.39999389648</ele>
        <time>2021-09-12T12:15:14Z</time>
      </trkpt>
      <trkpt lat="48.36554" lon="-3.95588">
        <ele>348.39999389648</ele>
        <time>2021-09-12T12:15:15Z</time>
      </trkpt>
      <trkpt lat="48.36555" lon="-3.95587">
        <ele>348.39999389648</ele>
        <time>2021-09-12T12:15:16Z</time>
      </trkpt>
      <trkpt lat="48.36556" lon="-3.95586">
        <ele>348.60000610352</ele>
        <time>2021-09-12T12:15:17Z</time>
      </trkpt>
      <trkpt lat="48.36557" lon="-3.95585">
        <ele>348.60000610352</ele>
        <time>2021-09-12T12:15:18Z</time>
      </trkpt>
      <trkpt lat="48.36557" lon="-3.95585">
        <ele>348.60000610352</ele>
        <time>2021-09-12T12:15:19Z</time>
      </trkpt>
      <trkpt lat="48.36562" lon="-3.95587">
        <ele>349.20001220703</ele>
        <time>2021-09-12T12:15:34Z</time>
      </trkpt>
      <trkpt lat="48.36564" lon="-3.95587">
        <ele>349.39999389648</ele>
        <time>2021-09-12T12:15:35Z</time>
      </trkpt>
      <trkpt lat="48.36566" lon="-3.95587">
        <ele>349.79998779297</ele>
        <time>2021-09-12T12:15:36Z</time>
      </trkpt>
      <trkpt lat="48.36567" lon="-3.95586">
        <ele>350.20001220703</ele>
        <time>2021-09-12T12:15:37Z</time>
      </trkpt>
      <trkpt lat="48.36568" lon="-3.95586">
        <ele>350.20001220703</ele>
        <time>2021-09-12T12:15:38Z</time>
      </trkpt>
      <trkpt lat="48.36569" lon="-3.95587">
        <ele>350.39999389648</ele>
        <time>2021-09-12T12:15:39Z</time>
      </trkpt>
      <trkpt lat="48.3657" lon="-3.95586">
        <ele>350.79998779297</ele>
        <time>2021-09-12T12:15:40Z</time>
      </trkpt>
      <trkpt lat="48.3657" lon="-3.95586">
        <ele>351</ele>
        <time>2021-09-12T12:15:41Z</time>
      </trkpt>
      <trkpt lat="48.3657" lon="-3.95586">
        <ele>351</ele>
        <time>2021-09-12T12:15:42Z</time>
      </trkpt>
      <trkpt lat="48.3657" lon="-3.95586">
        <ele>351</ele>
        <time>2021-09-12T12:15:43Z</time>
      </trkpt>
      <trkpt lat="48.36575" lon="-3.95586">
        <ele>351.79998779297</ele>
        <time>2021-09-12T12:15:48Z</time>
      </trkpt>
      <trkpt lat="48.36577" lon="-3.95586">
        <ele>351.79998779297</ele>
        <time>2021-09-12T12:15:49Z</time>
      </trkpt>
      <trkpt lat="48.36578" lon="-3.95585">
        <ele>352</ele>
        <time>2021-09-12T12:15:50Z</time>
      </trkpt>
      <trkpt lat="48.36579" lon="-3.95584">
        <ele>352.39999389648</ele>
        <time>2021-09-12T12:15:51Z</time>
      </trkpt>
      <trkpt lat="48.3658" lon="-3.95584">
        <ele>352.79998779297</ele>
        <time>2021-09-12T12:15:52Z</time>
      </trkpt>
      <trkpt lat="48.36582" lon="-3.95584">
        <ele>352.79998779297</ele>
        <time>2021-09-12T12:15:53Z</time>
      </trkpt>
      <trkpt lat="48.36583" lon="-3.95584">
        <ele>353</ele>
        <time>2021-09-12T12:15:54Z</time>
      </trkpt>
      <trkpt lat="48.36585" lon="-3.95584">
        <ele>353.39999389648</ele>
        <time>2021-09-12T12:15:55Z</time>
      </trkpt>
      <trkpt lat="48.36586" lon="-3.95583">
        <ele>353.39999389648</ele>
        <time>2021-09-12T12:15:56Z</time>
      </trkpt>
      <trkpt lat="48.36587" lon="-3.95583">
        <ele>353.60000610352</ele>
        <time>2021-09-12T12:15:57Z</time>
      </trkpt>
      <trkpt lat="48.36588" lon="-3.95583">
        <ele>354.20001220703</ele>
        <time>2021-09-12T12:15:58Z</time>
      </trkpt>
      <trkpt lat="48.36589" lon="-3.95582">
        <ele>354.20001220703</ele>
        <time>2021-09-12T12:15:59Z</time>
      </trkpt>
      <trkpt lat="48.3659" lon="-3.95581">
        <ele>354.20001220703</ele>
        <time>2021-09-12T12:16:00Z</time>
      </trkpt>
      <trkpt lat="48.36591" lon="-3.95581">
        <ele>354.39999389648</ele>
        <time>2021-09-12T12:16:01Z</time>
      </trkpt>
      <trkpt lat="48.36592" lon="-3.9558">
        <ele>354.79998779297</ele>
        <time>2021-09-12T12:16:02Z</time>
      </trkpt>
      <trkpt lat="48.36594" lon="-3.95579">
        <ele>354.79998779297</ele>
        <time>2021-09-12T12:16:03Z</time>
      </trkpt>
      <trkpt lat="48.36595" lon="-3.95579">
        <ele>355</ele>
        <time>2021-09-12T12:16:04Z</time>
      </trkpt>
      <trkpt lat="48.36596" lon="-3.95578">
        <ele>355.39999389648</ele>
        <time>2021-09-12T12:16:05Z</time>
      </trkpt>
      <trkpt lat="48.36597" lon="-3.95577">
        <ele>355.39999389648</ele>
        <time>2021-09-12T12:16:06Z</time>
      </trkpt>
      <trkpt lat="48.36598" lon="-3.95577">
        <ele>355.60000610352</ele>
        <time>2021-09-12T12:16:07Z</time>
      </trkpt>
      <trkpt lat="48.36599" lon="-3.95577">
        <ele>355.79998779297</ele>
        <time>2021-09-12T12:16:08Z</time>
      </trkpt>
      <trkpt lat="48.36599" lon="-3.95577">
        <ele>356.20001220703</ele>
        <time>2021-09-12T12:16:09Z</time>
      </trkpt>
      <trkpt lat="48.36599" lon="-3.95577">
        <ele>356.20001220703</ele>
        <time>2021-09-12T12:16:10Z</time>
      </trkpt>
      <trkpt lat="48.36607" lon="-3.95574">
        <ele>356.39999389648</ele>
        <time>2021-09-12T12:16:24Z</time>
      </trkpt>
      <trkpt lat="48.36608" lon="-3.95575">
        <ele>356.60000610352</ele>
        <time>2021-09-12T12:16:25Z</time>
      </trkpt>
      <trkpt lat="48.3661" lon="-3.95574">
        <ele>357.39999389648</ele>
        <time>2021-09-12T12:16:26Z</time>
      </trkpt>
      <trkpt lat="48.36611" lon="-3.95574">
        <ele>357.39999389648</ele>
        <time>2021-09-12T12:16:27Z</time>
      </trkpt>
      <trkpt lat="48.36612" lon="-3.95573">
        <ele>357.39999389648</ele>
        <time>2021-09-12T12:16:28Z</time>
      </trkpt>
      <trkpt lat="48.36613" lon="-3.95573">
        <ele>357.60000610352</ele>
        <time>2021-09-12T12:16:29Z</time>
      </trkpt>
      <trkpt lat="48.36613" lon="-3.95573">
        <ele>357.60000610352</ele>
        <time>2021-09-12T12:16:30Z</time>
      </trkpt>
      <trkpt lat="48.36613" lon="-3.95573">
        <ele>358.20001220703</ele>
        <time>2021-09-12T12:16:31Z</time>
      </trkpt>
      <trkpt lat="48.36613" lon="-3.95573">
        <ele>358.39999389648</ele>
        <time>2021-09-12T12:16:32Z</time>
      </trkpt>
      <trkpt lat="48.36685" lon="-3.95566">
        <ele>368.39999389648</ele>
        <time>2021-09-12T12:19:56Z</time>
      </trkpt>
      <trkpt lat="48.36686" lon="-3.95566">
        <ele>368.39999389648</ele>
        <time>2021-09-12T12:19:57Z</time>
      </trkpt>
      <trkpt lat="48.36688" lon="-3.95565">
        <ele>368.60000610352</ele>
        <time>2021-09-12T12:19:58Z</time>
      </trkpt>
      <trkpt lat="48.3669" lon="-3.95564">
        <ele>368.60000610352</ele>
        <time>2021-09-12T12:19:59Z</time>
      </trkpt>
      <trkpt lat="48.36691" lon="-3.95563">
        <ele>368.79998779297</ele>
        <time>2021-09-12T12:20:00Z</time>
      </trkpt>
      <trkpt lat="48.36693" lon="-3.95563">
        <ele>368.79998779297</ele>
        <time>2021-09-12T12:20:01Z</time>
      </trkpt>
      <trkpt lat="48.36695" lon="-3.95562">
        <ele>369</ele>
        <time>2021-09-12T12:20:02Z</time>
      </trkpt>
      <trkpt lat="48.36697" lon="-3.95562">
        <ele>369</ele>
        <time>2021-09-12T12:20:03Z</time>
      </trkpt>
      <trkpt lat="48.36699" lon="-3.9556">
        <ele>369.20001220703</ele>
        <time>2021-09-12T12:20:04Z</time>
      </trkpt>
      <trkpt lat="48.36701" lon="-3.95558">
        <ele>369.39999389648</ele>
        <time>2021-09-12T12:20:05Z</time>
      </trkpt>
      <trkpt lat="48.36704" lon="-3.95557">
        <ele>369.60000610352</ele>
        <time>2021-09-12T12:20:06Z</time>
      </trkpt>
      <trkpt lat="48.36706" lon="-3.95556">
        <ele>369.79998779297</ele>
        <time>2021-09-12T12:20:07Z</time>
      </trkpt>
      <trkpt lat="48.36708" lon="-3.95555">
        <ele>369.79998779297</ele>
        <time>2021-09-12T12:20:08Z</time>
      </trkpt>
      <trkpt lat="48.3671" lon="-3.95553">
        <ele>370.20001220703</ele>
        <time>2021-09-12T12:20:09Z</time>
      </trkpt>
      <trkpt lat="48.36713" lon="-3.95553">
        <ele>370.39999389648</ele>
        <time>2021-09-12T12:20:10Z</time>
      </trkpt>
      <trkpt lat="48.36715" lon="-3.95552">
        <ele>370.39999389648</ele>
        <time>2021-09-12T12:20:11Z</time>
      </trkpt>
      <trkpt lat="48.36716" lon="-3.95552">
        <ele>370.39999389648</ele>
        <time>2021-09-12T12:20:12Z</time>
      </trkpt>
      <trkpt lat="48.36718" lon="-3.95551">
        <ele>370.39999389648</ele>
        <time>2021-09-12T12:20:13Z</time>
      </trkpt>
      <trkpt lat="48.3672" lon="-3.9555">
        <ele>370.39999389648</ele>
        <time>2021-09-12T12:20:14Z</time>
      </trkpt>
      <trkpt lat="48.36722" lon="-3.95549">
        <ele>370.39999389648</ele>
        <time>2021-09-12T12:20:15Z</time>
      </trkpt>
      <trkpt lat="48.36724" lon="-3.95548">
        <ele>370.39999389648</ele>
        <time>2021-09-12T12:20:16Z</time>
      </trkpt>
      <trkpt lat="48.36726" lon="-3.95548">
        <ele>370.39999389648</ele>
        <time>2021-09-12T12:20:17Z</time>
      </trkpt>
      <trkpt lat="48.36728" lon="-3.95548">
        <ele>370.39999389648</ele>
        <time>2021-09-12T12:20:18Z</time>
      </trkpt>
      <trkpt lat="48.36731" lon="-3.95547">
        <ele>370.39999389648</ele>
        <time>2021-09-12T12:20:19Z</time>
      </trkpt>
      <trkpt lat="48.36732" lon="-3.95548">
        <ele>370.60000610352</ele>
        <time>2021-09-12T12:20:20Z</time>
      </trkpt>
      <trkpt lat="48.36735" lon="-3.95548">
        <ele>370.60000610352</ele>
        <time>2021-09-12T12:20:21Z</time>
      </trkpt>
      <trkpt lat="48.36737" lon="-3.95547">
        <ele>370.79998779297</ele>
        <time>2021-09-12T12:20:22Z</time>
      </trkpt>
      <trkpt lat="48.36739" lon="-3.95547">
        <ele>370.79998779297</ele>
        <time>2021-09-12T12:20:23Z</time>
      </trkpt>
      <trkpt lat="48.36741" lon="-3.95548">
        <ele>370.79998779297</ele>
        <time>2021-09-12T12:20:24Z</time>
      </trkpt>
      <trkpt lat="48.36743" lon="-3.95548">
        <ele>370.79998779297</ele>
        <time>2021-09-12T12:20:25Z</time>
      </trkpt>
      <trkpt lat="48.36745" lon="-3.95548">
        <ele>371.39999389648</ele>
        <time>2021-09-12T12:20:26Z</time>
      </trkpt>
      <trkpt lat="48.36747" lon="-3.95548">
        <ele>371.39999389648</ele>
        <time>2021-09-12T12:20:27Z</time>
      </trkpt>
      <trkpt lat="48.36749" lon="-3.95548">
        <ele>371.39999389648</ele>
        <time>2021-09-12T12:20:28Z</time>
      </trkpt>
      <trkpt lat="48.36751" lon="-3.95547">
        <ele>371.39999389648</ele>
        <time>2021-09-12T12:20:29Z</time>
      </trkpt>
      <trkpt lat="48.36753" lon="-3.95546">
        <ele>371.39999389648</ele>
        <time>2021-09-12T12:20:30Z</time>
      </trkpt>
      <trkpt lat="48.36755" lon="-3.95545">
        <ele>371.60000610352</ele>
        <time>2021-09-12T12:20:31Z</time>
      </trkpt>
      <trkpt lat="48.36757" lon="-3.95544">
        <ele>371.60000610352</ele>
        <time>2021-09-12T12:20:32Z</time>
      </trkpt>
      <trkpt lat="48.3676" lon="-3.95543">
        <ele>371.60000610352</ele>
        <time>2021-09-12T12:20:33Z</time>
      </trkpt>
      <trkpt lat="48.36762" lon="-3.95542">
        <ele>371.20001220703</ele>
        <time>2021-09-12T12:20:34Z</time>
      </trkpt>
      <trkpt lat="48.36764" lon="-3.95541">
        <ele>371.20001220703</ele>
        <time>2021-09-12T12:20:35Z</time>
      </trkpt>
      <trkpt lat="48.36766" lon="-3.95541">
        <ele>371.20001220703</ele>
        <time>2021-09-12T12:20:36Z</time>
      </trkpt>
      <trkpt lat="48.36768" lon="-3.95541">
        <ele>371.20001220703</ele>
        <time>2021-09-12T12:20:37Z</time>
      </trkpt>
      <trkpt lat="48.3677" lon="-3.9554">
        <ele>371.20001220703</ele>
        <time>2021-09-12T12:20:38Z</time>
      </trkpt>
      <trkpt lat="48.36772" lon="-3.9554">
        <ele>371.39999389648</ele>
        <time>2021-09-12T12:20:39Z</time>
      </trkpt>
      <trkpt lat="48.36775" lon="-3.95539">
        <ele>371.39999389648</ele>
        <time>2021-09-12T12:20:40Z</time>
      </trkpt>
      <trkpt lat="48.36777" lon="-3.95539">
        <ele>371.39999389648</ele>
        <time>2021-09-12T12:20:41Z</time>
      </trkpt>
      <trkpt lat="48.3678" lon="-3.95539">
        <ele>371.39999389648</ele>
        <time>2021-09-12T12:20:42Z</time>
      </trkpt>
      <trkpt lat="48.36782" lon="-3.95539">
        <ele>371.39999389648</ele>
        <time>2021-09-12T12:20:43Z</time>
      </trkpt>
      <trkpt lat="48.36785" lon="-3.95539">
        <ele>371.39999389648</ele>
        <time>2021-09-12T12:20:44Z</time>
      </trkpt>
      <trkpt lat="48.36787" lon="-3.9554">
        <ele>371.39999389648</ele>
        <time>2021-09-12T12:20:45Z</time>
      </trkpt>
      <trkpt lat="48.3679" lon="-3.9554">
        <ele>371.79998779297</ele>
        <time>2021-09-12T12:20:46Z</time>
      </trkpt>
      <trkpt lat="48.36793" lon="-3.95541">
        <ele>371.79998779297</ele>
        <time>2021-09-12T12:20:47Z</time>
      </trkpt>
      <trkpt lat="48.36796" lon="-3.95541">
        <ele>371.79998779297</ele>
        <time>2021-09-12T12:20:48Z</time>
      </trkpt>
      <trkpt lat="48.36799" lon="-3.95542">
        <ele>371.79998779297</ele>
        <time>2021-09-12T12:20:49Z</time>
      </trkpt>
      <trkpt lat="48.36802" lon="-3.95542">
        <ele>371.79998779297</ele>
        <time>2021-09-12T12:20:50Z</time>
      </trkpt>
      <trkpt lat="48.36805" lon="-3.95542">
        <ele>371.79998779297</ele>
        <time>2021-09-12T12:20:51Z</time>
      </trkpt>
      <trkpt lat="48.36807" lon="-3.95542">
        <ele>371.79998779297</ele>
        <time>2021-09-12T12:20:52Z</time>
      </trkpt>
      <trkpt lat="48.3681" lon="-3.95541">
        <ele>372</ele>
        <time>2021-09-12T12:20:53Z</time>
      </trkpt>
      <trkpt lat="48.36813" lon="-3.95541">
        <ele>372</ele>
        <time>2021-09-12T12:20:54Z</time>
      </trkpt>
      <trkpt lat="48.36815" lon="-3.95541">
        <ele>372</ele>
        <time>2021-09-12T12:20:55Z</time>
      </trkpt>
      <trkpt lat="48.36818" lon="-3.95541">
        <ele>372</ele>
        <time>2021-09-12T12:20:56Z</time>
      </trkpt>
      <trkpt lat="48.36821" lon="-3.95541">
        <ele>372</ele>
        <time>2021-09-12T12:20:57Z</time>
      </trkpt>
      <trkpt lat="48.36824" lon="-3.95541">
        <ele>372.20001220703</ele>
        <time>2021-09-12T12:20:58Z</time>
      </trkpt>
      <trkpt lat="48.36827" lon="-3.95542">
        <ele>372.20001220703</ele>
        <time>2021-09-12T12:20:59Z</time>
      </trkpt>
      <trkpt lat="48.3683" lon="-3.95542">
        <ele>372.39999389648</ele>
        <time>2021-09-12T12:21:00Z</time>
      </trkpt>
      <trkpt lat="48.36832" lon="-3.95542">
        <ele>372.60000610352</ele>
        <time>2021-09-12T12:21:01Z</time>
      </trkpt>
      <trkpt lat="48.36835" lon="-3.95542">
        <ele>372.60000610352</ele>
        <time>2021-09-12T12:21:02Z</time>
      </trkpt>
      <trkpt lat="48.36838" lon="-3.95542">
        <ele>372.79998779297</ele>
        <time>2021-09-12T12:21:03Z</time>
      </trkpt>
      <trkpt lat="48.3684" lon="-3.95541">
        <ele>372.79998779297</ele>
        <time>2021-09-12T12:21:04Z</time>
      </trkpt>
      <trkpt lat="48.36843" lon="-3.9554">
        <ele>373</ele>
        <time>2021-09-12T12:21:05Z</time>
      </trkpt>
      <trkpt lat="48.36845" lon="-3.9554">
        <ele>373.20001220703</ele>
        <time>2021-09-12T12:21:06Z</time>
      </trkpt>
      <trkpt lat="48.36848" lon="-3.95539">
        <ele>373.39999389648</ele>
        <time>2021-09-12T12:21:07Z</time>
      </trkpt>
      <trkpt lat="48.3685" lon="-3.95539">
        <ele>373.39999389648</ele>
        <time>2021-09-12T12:21:08Z</time>
      </trkpt>
      <trkpt lat="48.36854" lon="-3.95538">
        <ele>373.39999389648</ele>
        <time>2021-09-12T12:21:09Z</time>
      </trkpt>
      <trkpt lat="48.36857" lon="-3.95538">
        <ele>373.60000610352</ele>
        <time>2021-09-12T12:21:10Z</time>
      </trkpt>
      <trkpt lat="48.36861" lon="-3.95538">
        <ele>373.60000610352</ele>
        <time>2021-09-12T12:21:11Z</time>
      </trkpt>
      <trkpt lat="48.36864" lon="-3.95537">
        <ele>373.79998779297</ele>
        <time>2021-09-12T12:21:12Z</time>
      </trkpt>
      <trkpt lat="48.36868" lon="-3.95535">
        <ele>374</ele>
        <time>2021-09-12T12:21:13Z</time>
      </trkpt>
      <trkpt lat="48.36871" lon="-3.95534">
        <ele>374.20001220703</ele>
        <time>2021-09-12T12:21:14Z</time>
      </trkpt>
      <trkpt lat="48.36874" lon="-3.95532">
        <ele>374.39999389648</ele>
        <time>2021-09-12T12:21:15Z</time>
      </trkpt>
      <trkpt lat="48.36878" lon="-3.9553">
        <ele>374.39999389648</ele>
        <time>2021-09-12T12:21:16Z</time>
      </trkpt>
      <trkpt lat="48.36881" lon="-3.95528">
        <ele>374.39999389648</ele>
        <time>2021-09-12T12:21:17Z</time>
      </trkpt>
      <trkpt lat="48.36884" lon="-3.95527">
        <ele>374.39999389648</ele>
        <time>2021-09-12T12:21:18Z</time>
      </trkpt>
      <trkpt lat="48.36887" lon="-3.95525">
        <ele>374.60000610352</ele>
        <time>2021-09-12T12:21:19Z</time>
      </trkpt>
      <trkpt lat="48.36889" lon="-3.95524">
        <ele>374.60000610352</ele>
        <time>2021-09-12T12:21:20Z</time>
      </trkpt>
      <trkpt lat="48.36892" lon="-3.95522">
        <ele>374.60000610352</ele>
        <time>2021-09-12T12:21:21Z</time>
      </trkpt>
      <trkpt lat="48.36896" lon="-3.9552">
        <ele>374.79998779297</ele>
        <time>2021-09-12T12:21:22Z</time>
      </trkpt>
      <trkpt lat="48.36899" lon="-3.95518">
        <ele>375.20001220703</ele>
        <time>2021-09-12T12:21:23Z</time>
      </trkpt>
      <trkpt lat="48.36902" lon="-3.95516">
        <ele>375.20001220703</ele>
        <time>2021-09-12T12:21:24Z</time>
      </trkpt>
      <trkpt lat="48.36905" lon="-3.95514">
        <ele>375.39999389648</ele>
        <time>2021-09-12T12:21:25Z</time>
      </trkpt>
      <trkpt lat="48.36908" lon="-3.95512">
        <ele>375.39999389648</ele>
        <time>2021-09-12T12:21:26Z</time>
      </trkpt>
      <trkpt lat="48.36911" lon="-3.95511">
        <ele>375.60000610352</ele>
        <time>2021-09-12T12:21:27Z</time>
      </trkpt>
      <trkpt lat="48.36914" lon="-3.95508">
        <ele>375.79998779297</ele>
        <time>2021-09-12T12:21:28Z</time>
      </trkpt>
      <trkpt lat="48.36916" lon="-3.95506">
        <ele>376</ele>
        <time>2021-09-12T12:21:29Z</time>
      </trkpt>
      <trkpt lat="48.36919" lon="-3.95504">
        <ele>376</ele>
        <time>2021-09-12T12:21:30Z</time>
      </trkpt>
      <trkpt lat="48.36922" lon="-3.95503">
        <ele>376</ele>
        <time>2021-09-12T12:21:31Z</time>
      </trkpt>
      <trkpt lat="48.36924" lon="-3.95503">
        <ele>376</ele>
        <time>2021-09-12T12:21:32Z</time>
      </trkpt>
      <trkpt lat="48.36926" lon="-3.95502">
        <ele>376.20001220703</ele>
        <time>2021-09-12T12:21:33Z</time>
      </trkpt>
      <trkpt lat="48.36927" lon="-3.95501">
        <ele>376</ele>
        <time>2021-09-12T12:21:34Z</time>
      </trkpt>
      <trkpt lat="48.36929" lon="-3.955">
        <ele>376</ele>
        <time>2021-09-12T12:21:35Z</time>
      </trkpt>
      <trkpt lat="48.36932" lon="-3.95499">
        <ele>376</ele>
        <time>2021-09-12T12:21:36Z</time>
      </trkpt>
      <trkpt lat="48.36934" lon="-3.95499">
        <ele>376.20001220703</ele>
        <time>2021-09-12T12:21:37Z</time>
      </trkpt>
      <trkpt lat="48.36937" lon="-3.95498">
        <ele>376.20001220703</ele>
        <time>2021-09-12T12:21:38Z</time>
      </trkpt>
      <trkpt lat="48.36939" lon="-3.95497">
        <ele>376.39999389648</ele>
        <time>2021-09-12T12:21:39Z</time>
      </trkpt>
      <trkpt lat="48.36942" lon="-3.95496">
        <ele>376.39999389648</ele>
        <time>2021-09-12T12:21:40Z</time>
      </trkpt>
      <trkpt lat="48.36944" lon="-3.95495">
        <ele>376.39999389648</ele>
        <time>2021-09-12T12:21:41Z</time>
      </trkpt>
      <trkpt lat="48.36947" lon="-3.95494">
        <ele>376.60000610352</ele>
        <time>2021-09-12T12:21:42Z</time>
      </trkpt>
      <trkpt lat="48.3695" lon="-3.95492">
        <ele>376.60000610352</ele>
        <time>2021-09-12T12:21:43Z</time>
      </trkpt>
      <trkpt lat="48.36953" lon="-3.9549">
        <ele>376.60000610352</ele>
        <time>2021-09-12T12:21:44Z</time>
      </trkpt>
      <trkpt lat="48.36956" lon="-3.95488">
        <ele>376.60000610352</ele>
        <time>2021-09-12T12:21:45Z</time>
      </trkpt>
      <trkpt lat="48.36959" lon="-3.95486">
        <ele>376.79998779297</ele>
        <time>2021-09-12T12:21:46Z</time>
      </trkpt>
      <trkpt lat="48.36962" lon="-3.95484">
        <ele>376.60000610352</ele>
        <time>2021-09-12T12:21:47Z</time>
      </trkpt>
      <trkpt lat="48.36965" lon="-3.95482">
        <ele>376.79998779297</ele>
        <time>2021-09-12T12:21:48Z</time>
      </trkpt>
      <trkpt lat="48.36969" lon="-3.9548">
        <ele>376.79998779297</ele>
        <time>2021-09-12T12:21:49Z</time>
      </trkpt>
      <trkpt lat="48.36972" lon="-3.95478">
        <ele>376.79998779297</ele>
        <time>2021-09-12T12:21:50Z</time>
      </trkpt>
      <trkpt lat="48.36975" lon="-3.95476">
        <ele>376.79998779297</ele>
        <time>2021-09-12T12:21:51Z</time>
      </trkpt>
      <trkpt lat="48.36978" lon="-3.95474">
        <ele>376.79998779297</ele>
        <time>2021-09-12T12:21:52Z</time>
      </trkpt>
      <trkpt lat="48.3698" lon="-3.95473">
        <ele>376.79998779297</ele>
        <time>2021-09-12T12:21:53Z</time>
      </trkpt>
      <trkpt lat="48.36982" lon="-3.95472">
        <ele>377</ele>
        <time>2021-09-12T12:21:54Z</time>
      </trkpt>
      <trkpt lat="48.36984" lon="-3.95471">
        <ele>377</ele>
        <time>2021-09-12T12:21:55Z</time>
      </trkpt>
      <trkpt lat="48.36987" lon="-3.95469">
        <ele>377</ele>
        <time>2021-09-12T12:21:56Z</time>
      </trkpt>
      <trkpt lat="48.3699" lon="-3.95468">
        <ele>377.20001220703</ele>
        <time>2021-09-12T12:21:57Z</time>
      </trkpt>
      <trkpt lat="48.36993" lon="-3.95466">
        <ele>377.20001220703</ele>
        <time>2021-09-12T12:21:58Z</time>
      </trkpt>
      <trkpt lat="48.36996" lon="-3.95464">
        <ele>377.20001220703</ele>
        <time>2021-09-12T12:21:59Z</time>
      </trkpt>
      <trkpt lat="48.36999" lon="-3.95461">
        <ele>377.39999389648</ele>
        <time>2021-09-12T12:22:00Z</time>
      </trkpt>
      <trkpt lat="48.37003" lon="-3.95459">
        <ele>377.39999389648</ele>
        <time>2021-09-12T12:22:01Z</time>
      </trkpt>
      <trkpt lat="48.37006" lon="-3.95457">
        <ele>377.39999389648</ele>
        <time>2021-09-12T12:22:02Z</time>
      </trkpt>
      <trkpt lat="48.3701" lon="-3.95455">
        <ele>377.39999389648</ele>
        <time>2021-09-12T12:22:03Z</time>
      </trkpt>
      <trkpt lat="48.37013" lon="-3.95452">
        <ele>377.39999389648</ele>
        <time>2021-09-12T12:22:04Z</time>
      </trkpt>
      <trkpt lat="48.37016" lon="-3.95451">
        <ele>377.39999389648</ele>
        <time>2021-09-12T12:22:05Z</time>
      </trkpt>
      <trkpt lat="48.3702" lon="-3.95449">
        <ele>377.39999389648</ele>
        <time>2021-09-12T12:22:06Z</time>
      </trkpt>
      <trkpt lat="48.37023" lon="-3.95447">
        <ele>377.39999389648</ele>
        <time>2021-09-12T12:22:07Z</time>
      </trkpt>
      <trkpt lat="48.37027" lon="-3.95447">
        <ele>377.60000610352</ele>
        <time>2021-09-12T12:22:08Z</time>
      </trkpt>
      <trkpt lat="48.37031" lon="-3.95446">
        <ele>377.60000610352</ele>
        <time>2021-09-12T12:22:09Z</time>
      </trkpt>
      <trkpt lat="48.37034" lon="-3.95445">
        <ele>377.60000610352</ele>
        <time>2021-09-12T12:22:10Z</time>
      </trkpt>
      <trkpt lat="48.37038" lon="-3.95443">
        <ele>377.60000610352</ele>
        <time>2021-09-12T12:22:11Z</time>
      </trkpt>
      <trkpt lat="48.37041" lon="-3.95441">
        <ele>377.79998779297</ele>
        <time>2021-09-12T12:22:12Z</time>
      </trkpt>
      <trkpt lat="48.37044" lon="-3.9544">
        <ele>377.79998779297</ele>
        <time>2021-09-12T12:22:13Z</time>
      </trkpt>
      <trkpt lat="48.37048" lon="-3.95439">
        <ele>377.79998779297</ele>
        <time>2021-09-12T12:22:14Z</time>
      </trkpt>
      <trkpt lat="48.37051" lon="-3.95437">
        <ele>377.79998779297</ele>
        <time>2021-09-12T12:22:15Z</time>
      </trkpt>
      <trkpt lat="48.37053" lon="-3.95435">
        <ele>378</ele>
        <time>2021-09-12T12:22:16Z</time>
      </trkpt>
      <trkpt lat="48.37056" lon="-3.95432">
        <ele>378.20001220703</ele>
        <time>2021-09-12T12:22:17Z</time>
      </trkpt>
      <trkpt lat="48.37059" lon="-3.95431">
        <ele>378.39999389648</ele>
        <time>2021-09-12T12:22:18Z</time>
      </trkpt>
      <trkpt lat="48.37062" lon="-3.9543">
        <ele>378.79998779297</ele>
        <time>2021-09-12T12:22:19Z</time>
      </trkpt>
      <trkpt lat="48.37065" lon="-3.95429">
        <ele>379</ele>
        <time>2021-09-12T12:22:20Z</time>
      </trkpt>
      <trkpt lat="48.37069" lon="-3.95429">
        <ele>379</ele>
        <time>2021-09-12T12:22:21Z</time>
      </trkpt>
      <trkpt lat="48.37072" lon="-3.95429">
        <ele>379</ele>
        <time>2021-09-12T12:22:22Z</time>
      </trkpt>
      <trkpt lat="48.37075" lon="-3.95428">
        <ele>379</ele>
        <time>2021-09-12T12:22:23Z</time>
      </trkpt>
      <trkpt lat="48.37078" lon="-3.95427">
        <ele>379</ele>
        <time>2021-09-12T12:22:24Z</time>
      </trkpt>
      <trkpt lat="48.37081" lon="-3.95425">
        <ele>379</ele>
        <time>2021-09-12T12:22:25Z</time>
      </trkpt>
      <trkpt lat="48.37084" lon="-3.95423">
        <ele>379.20001220703</ele>
        <time>2021-09-12T12:22:26Z</time>
      </trkpt>
      <trkpt lat="48.37088" lon="-3.95421">
        <ele>379.39999389648</ele>
        <time>2021-09-12T12:22:27Z</time>
      </trkpt>
      <trkpt lat="48.37091" lon="-3.95419">
        <ele>379.39999389648</ele>
        <time>2021-09-12T12:22:28Z</time>
      </trkpt>
      <trkpt lat="48.37094" lon="-3.95417">
        <ele>379.39999389648</ele>
        <time>2021-09-12T12:22:29Z</time>
      </trkpt>
      <trkpt lat="48.37097" lon="-3.95415">
        <ele>379.79998779297</ele>
        <time>2021-09-12T12:22:30Z</time>
      </trkpt>
      <trkpt lat="48.371" lon="-3.95412">
        <ele>380</ele>
        <time>2021-09-12T12:22:31Z</time>
      </trkpt>
      <trkpt lat="48.37102" lon="-3.9541">
        <ele>380</ele>
        <time>2021-09-12T12:22:32Z</time>
      </trkpt>
      <trkpt lat="48.37105" lon="-3.95407">
        <ele>380.20001220703</ele>
        <time>2021-09-12T12:22:33Z</time>
      </trkpt>
      <trkpt lat="48.37108" lon="-3.95405">
        <ele>380.39999389648</ele>
        <time>2021-09-12T12:22:34Z</time>
      </trkpt>
      <trkpt lat="48.37111" lon="-3.95403">
        <ele>380.60000610352</ele>
        <time>2021-09-12T12:22:35Z</time>
      </trkpt>
      <trkpt lat="48.37114" lon="-3.954">
        <ele>380.60000610352</ele>
        <time>2021-09-12T12:22:36Z</time>
      </trkpt>
      <trkpt lat="48.37117" lon="-3.95397">
        <ele>380.79998779297</ele>
        <time>2021-09-12T12:22:37Z</time>
      </trkpt>
      <trkpt lat="48.37119" lon="-3.95395">
        <ele>381</ele>
        <time>2021-09-12T12:22:38Z</time>
      </trkpt>
      <trkpt lat="48.37122" lon="-3.95393">
        <ele>381.60000610352</ele>
        <time>2021-09-12T12:22:39Z</time>
      </trkpt>
      <trkpt lat="48.37125" lon="-3.95391">
        <ele>381.79998779297</ele>
        <time>2021-09-12T12:22:40Z</time>
      </trkpt>
      <trkpt lat="48.37128" lon="-3.95389">
        <ele>382.20001220703</ele>
        <time>2021-09-12T12:22:41Z</time>
      </trkpt>
      <trkpt lat="48.37131" lon="-3.95388">
        <ele>382.20001220703</ele>
        <time>2021-09-12T12:22:42Z</time>
      </trkpt>
      <trkpt lat="48.37134" lon="-3.95386">
        <ele>382.20001220703</ele>
        <time>2021-09-12T12:22:43Z</time>
      </trkpt>
      <trkpt lat="48.37136" lon="-3.95384">
        <ele>382.20001220703</ele>
        <time>2021-09-12T12:22:44Z</time>
      </trkpt>
      <trkpt lat="48.37139" lon="-3.95383">
        <ele>382.39999389648</ele>
        <time>2021-09-12T12:22:45Z</time>
      </trkpt>
      <trkpt lat="48.37142" lon="-3.95381">
        <ele>382.60000610352</ele>
        <time>2021-09-12T12:22:46Z</time>
      </trkpt>
      <trkpt lat="48.37144" lon="-3.9538">
        <ele>382.79998779297</ele>
        <time>2021-09-12T12:22:47Z</time>
      </trkpt>
      <trkpt lat="48.37146" lon="-3.95378">
        <ele>383</ele>
        <time>2021-09-12T12:22:48Z</time>
      </trkpt>
      <trkpt lat="48.37148" lon="-3.95376">
        <ele>383.20001220703</ele>
        <time>2021-09-12T12:22:49Z</time>
      </trkpt>
      <trkpt lat="48.37151" lon="-3.95374">
        <ele>383.20001220703</ele>
        <time>2021-09-12T12:22:50Z</time>
      </trkpt>
      <trkpt lat="48.37153" lon="-3.95372">
        <ele>383.39999389648</ele>
        <time>2021-09-12T12:22:51Z</time>
      </trkpt>
      <trkpt lat="48.37156" lon="-3.95371">
        <ele>383.39999389648</ele>
        <time>2021-09-12T12:22:52Z</time>
      </trkpt>
      <trkpt lat="48.37159" lon="-3.95369">
        <ele>383.60000610352</ele>
        <time>2021-09-12T12:22:53Z</time>
      </trkpt>
      <trkpt lat="48.37161" lon="-3.95367">
        <ele>383.79998779297</ele>
        <time>2021-09-12T12:22:54Z</time>
      </trkpt>
      <trkpt lat="48.37164" lon="-3.95365">
        <ele>384</ele>
        <time>2021-09-12T12:22:55Z</time>
      </trkpt>
      <trkpt lat="48.37167" lon="-3.95364">
        <ele>384</ele>
        <time>2021-09-12T12:22:56Z</time>
      </trkpt>
      <trkpt lat="48.3717" lon="-3.95363">
        <ele>384.20001220703</ele>
        <time>2021-09-12T12:22:57Z</time>
      </trkpt>
      <trkpt lat="48.37173" lon="-3.95361">
        <ele>384.39999389648</ele>
        <time>2021-09-12T12:22:58Z</time>
      </trkpt>
      <trkpt lat="48.37176" lon="-3.9536">
        <ele>384.60000610352</ele>
        <time>2021-09-12T12:22:59Z</time>
      </trkpt>
      <trkpt lat="48.37179" lon="-3.95358">
        <ele>384.60000610352</ele>
        <time>2021-09-12T12:23:00Z</time>
      </trkpt>
      <trkpt lat="48.37181" lon="-3.95356">
        <ele>384.79998779297</ele>
        <time>2021-09-12T12:23:01Z</time>
      </trkpt>
      <trkpt lat="48.37184" lon="-3.95355">
        <ele>384.79998779297</ele>
        <time>2021-09-12T12:23:02Z</time>
      </trkpt>
      <trkpt lat="48.37187" lon="-3.95354">
        <ele>385</ele>
        <time>2021-09-12T12:23:03Z</time>
      </trkpt>
      <trkpt lat="48.37191" lon="-3.95353">
        <ele>385.20001220703</ele>
        <time>2021-09-12T12:23:04Z</time>
      </trkpt>
      <trkpt lat="48.37194" lon="-3.95351">
        <ele>385.20001220703</ele>
        <time>2021-09-12T12:23:05Z</time>
      </trkpt>
      <trkpt lat="48.37197" lon="-3.95349">
        <ele>385.20001220703</ele>
        <time>2021-09-12T12:23:06Z</time>
      </trkpt>
      <trkpt lat="48.37199" lon="-3.95348">
        <ele>385.60000610352</ele>
        <time>2021-09-12T12:23:07Z</time>
      </trkpt>
      <trkpt lat="48.37203" lon="-3.95347">
        <ele>385.60000610352</ele>
        <time>2021-09-12T12:23:08Z</time>
      </trkpt>
      <trkpt lat="48.37206" lon="-3.95347">
        <ele>385.79998779297</ele>
        <time>2021-09-12T12:23:09Z</time>
      </trkpt>
      <trkpt lat="48.37209" lon="-3.95346">
        <ele>385.79998779297</ele>
        <time>2021-09-12T12:23:10Z</time>
      </trkpt>
      <trkpt lat="48.37212" lon="-3.95346">
        <ele>385.79998779297</ele>
        <time>2021-09-12T12:23:11Z</time>
      </trkpt>
      <trkpt lat="48.37214" lon="-3.95344">
        <ele>386</ele>
        <time>2021-09-12T12:23:12Z</time>
      </trkpt>
      <trkpt lat="48.37217" lon="-3.95343">
        <ele>386</ele>
        <time>2021-09-12T12:23:13Z</time>
      </trkpt>
      <trkpt lat="48.3722" lon="-3.95342">
        <ele>386</ele>
        <time>2021-09-12T12:23:14Z</time>
      </trkpt>
      <trkpt lat="48.37223" lon="-3.95341">
        <ele>386</ele>
        <time>2021-09-12T12:23:15Z</time>
      </trkpt>
      <trkpt lat="48.37226" lon="-3.9534">
        <ele>386.20001220703</ele>
        <time>2021-09-12T12:23:16Z</time>
      </trkpt>
      <trkpt lat="48.37229" lon="-3.9534">
        <ele>386.20001220703</ele>
        <time>2021-09-12T12:23:17Z</time>
      </trkpt>
      <trkpt lat="48.37232" lon="-3.9534">
        <ele>386.20001220703</ele>
        <time>2021-09-12T12:23:18Z</time>
      </trkpt>
      <trkpt lat="48.37235" lon="-3.95339">
        <ele>386.39999389648</ele>
        <time>2021-09-12T12:23:19Z</time>
      </trkpt>
      <trkpt lat="48.37238" lon="-3.95338">
        <ele>386.39999389648</ele>
        <time>2021-09-12T12:23:20Z</time>
      </trkpt>
      <trkpt lat="48.37241" lon="-3.95336">
        <ele>386.39999389648</ele>
        <time>2021-09-12T12:23:21Z</time>
      </trkpt>
      <trkpt lat="48.37244" lon="-3.95333">
        <ele>386.39999389648</ele>
        <time>2021-09-12T12:23:22Z</time>
      </trkpt>
      <trkpt lat="48.37246" lon="-3.95331">
        <ele>386.60000610352</ele>
        <time>2021-09-12T12:23:23Z</time>
      </trkpt>
      <trkpt lat="48.37249" lon="-3.95329">
        <ele>386.60000610352</ele>
        <time>2021-09-12T12:23:24Z</time>
      </trkpt>
      <trkpt lat="48.37252" lon="-3.95328">
        <ele>386.60000610352</ele>
        <time>2021-09-12T12:23:25Z</time>
      </trkpt>
      <trkpt lat="48.37256" lon="-3.95326">
        <ele>386.60000610352</ele>
        <time>2021-09-12T12:23:26Z</time>
      </trkpt>
      <trkpt lat="48.37259" lon="-3.95325">
        <ele>386.60000610352</ele>
        <time>2021-09-12T12:23:27Z</time>
      </trkpt>
      <trkpt lat="48.37261" lon="-3.95324">
        <ele>386.60000610352</ele>
        <time>2021-09-12T12:23:28Z</time>
      </trkpt>
      <trkpt lat="48.37264" lon="-3.95322">
        <ele>386.60000610352</ele>
        <time>2021-09-12T12:23:29Z</time>
      </trkpt>
      <trkpt lat="48.37266" lon="-3.9532">
        <ele>386.39999389648</ele>
        <time>2021-09-12T12:23:30Z</time>
      </trkpt>
      <trkpt lat="48.37269" lon="-3.95317">
        <ele>386.39999389648</ele>
        <time>2021-09-12T12:23:31Z</time>
      </trkpt>
      <trkpt lat="48.37272" lon="-3.95315">
        <ele>386.20001220703</ele>
        <time>2021-09-12T12:23:32Z</time>
      </trkpt>
      <trkpt lat="48.37276" lon="-3.95312">
        <ele>386.20001220703</ele>
        <time>2021-09-12T12:23:33Z</time>
      </trkpt>
      <trkpt lat="48.37279" lon="-3.95309">
        <ele>386</ele>
        <time>2021-09-12T12:23:34Z</time>
      </trkpt>
      <trkpt lat="48.37282" lon="-3.95306">
        <ele>386</ele>
        <time>2021-09-12T12:23:35Z</time>
      </trkpt>
      <trkpt lat="48.37286" lon="-3.95303">
        <ele>385.79998779297</ele>
        <time>2021-09-12T12:23:36Z</time>
      </trkpt>
      <trkpt lat="48.3729" lon="-3.95299">
        <ele>385.39999389648</ele>
        <time>2021-09-12T12:23:37Z</time>
      </trkpt>
      <trkpt lat="48.37294" lon="-3.95295">
        <ele>385</ele>
        <time>2021-09-12T12:23:38Z</time>
      </trkpt>
      <trkpt lat="48.37298" lon="-3.95291">
        <ele>385</ele>
        <time>2021-09-12T12:23:39Z</time>
      </trkpt>
      <trkpt lat="48.37302" lon="-3.95287">
        <ele>385</ele>
        <time>2021-09-12T12:23:40Z</time>
      </trkpt>
      <trkpt lat="48.37307" lon="-3.95283">
        <ele>385</ele>
        <time>2021-09-12T12:23:41Z</time>
      </trkpt>
      <trkpt lat="48.37312" lon="-3.95279">
        <ele>384.60000610352</ele>
        <time>2021-09-12T12:23:42Z</time>
      </trkpt>
      <trkpt lat="48.37318" lon="-3.95273">
        <ele>384</ele>
        <time>2021-09-12T12:23:43Z</time>
      </trkpt>
      <trkpt lat="48.37324" lon="-3.95268">
        <ele>383.79998779297</ele>
        <time>2021-09-12T12:23:44Z</time>
      </trkpt>
      <trkpt lat="48.3733" lon="-3.95263">
        <ele>383.39999389648</ele>
        <time>2021-09-12T12:23:45Z</time>
      </trkpt>
      <trkpt lat="48.37337" lon="-3.95259">
        <ele>382.79998779297</ele>
        <time>2021-09-12T12:23:46Z</time>
      </trkpt>
      <trkpt lat="48.37344" lon="-3.95256">
        <ele>382.39999389648</ele>
        <time>2021-09-12T12:23:47Z</time>
      </trkpt>
      <trkpt lat="48.37351" lon="-3.95252">
        <ele>381.60000610352</ele>
        <time>2021-09-12T12:23:48Z</time>
      </trkpt>
      <trkpt lat="48.37359" lon="-3.9525">
        <ele>380.60000610352</ele>
        <time>2021-09-12T12:23:49Z</time>
      </trkpt>
      <trkpt lat="48.37367" lon="-3.95248">
        <ele>380.60000610352</ele>
        <time>2021-09-12T12:23:50Z</time>
      </trkpt>
      <trkpt lat="48.37375" lon="-3.95245">
        <ele>380</ele>
        <time>2021-09-12T12:23:51Z</time>
      </trkpt>
      <trkpt lat="48.37383" lon="-3.95242">
        <ele>379</ele>
        <time>2021-09-12T12:23:52Z</time>
      </trkpt>
      <trkpt lat="48.37392" lon="-3.95239">
        <ele>378.20001220703</ele>
        <time>2021-09-12T12:23:53Z</time>
      </trkpt>
      <trkpt lat="48.374" lon="-3.95237">
        <ele>377.60000610352</ele>
        <time>2021-09-12T12:23:54Z</time>
      </trkpt>
      <trkpt lat="48.37408" lon="-3.95234">
        <ele>377.39999389648</ele>
        <time>2021-09-12T12:23:55Z</time>
      </trkpt>
      <trkpt lat="48.37416" lon="-3.95231">
        <ele>377.39999389648</ele>
        <time>2021-09-12T12:23:56Z</time>
      </trkpt>
      <trkpt lat="48.37423" lon="-3.95228">
        <ele>377</ele>
        <time>2021-09-12T12:23:57Z</time>
      </trkpt>
      <trkpt lat="48.37431" lon="-3.95224">
        <ele>377</ele>
        <time>2021-09-12T12:23:58Z</time>
      </trkpt>
      <trkpt lat="48.37438" lon="-3.95221">
        <ele>376.39999389648</ele>
        <time>2021-09-12T12:23:59Z</time>
      </trkpt>
      <trkpt lat="48.37445" lon="-3.95219">
        <ele>376.39999389648</ele>
        <time>2021-09-12T12:24:00Z</time>
      </trkpt>
      <trkpt lat="48.37452" lon="-3.95218">
        <ele>376.20001220703</ele>
        <time>2021-09-12T12:24:01Z</time>
      </trkpt>
      <trkpt lat="48.37459" lon="-3.95217">
        <ele>375.20001220703</ele>
        <time>2021-09-12T12:24:02Z</time>
      </trkpt>
      <trkpt lat="48.37467" lon="-3.95215">
        <ele>375.20001220703</ele>
        <time>2021-09-12T12:24:03Z</time>
      </trkpt>
      <trkpt lat="48.37474" lon="-3.95213">
        <ele>374.60000610352</ele>
        <time>2021-09-12T12:24:04Z</time>
      </trkpt>
      <trkpt lat="48.37483" lon="-3.9521">
        <ele>374.60000610352</ele>
        <time>2021-09-12T12:24:05Z</time>
      </trkpt>
      <trkpt lat="48.37489" lon="-3.95207">
        <ele>374.60000610352</ele>
        <time>2021-09-12T12:24:06Z</time>
      </trkpt>
      <trkpt lat="48.37495" lon="-3.95204">
        <ele>374.39999389648</ele>
        <time>2021-09-12T12:24:07Z</time>
      </trkpt>
      <trkpt lat="48.37503" lon="-3.952">
        <ele>373.79998779297</ele>
        <time>2021-09-12T12:24:08Z</time>
      </trkpt>
      <trkpt lat="48.37509" lon="-3.95196">
        <ele>373.79998779297</ele>
        <time>2021-09-12T12:24:09Z</time>
      </trkpt>
      <trkpt lat="48.37516" lon="-3.95191">
        <ele>373.39999389648</ele>
        <time>2021-09-12T12:24:10Z</time>
      </trkpt>
      <trkpt lat="48.37522" lon="-3.95186">
        <ele>372.60000610352</ele>
        <time>2021-09-12T12:24:11Z</time>
      </trkpt>
      <trkpt lat="48.3753" lon="-3.95182">
        <ele>372.20001220703</ele>
        <time>2021-09-12T12:24:12Z</time>
      </trkpt>
      <trkpt lat="48.37535" lon="-3.95179">
        <ele>372</ele>
        <time>2021-09-12T12:24:13Z</time>
      </trkpt>
      <trkpt lat="48.37543" lon="-3.95172">
        <ele>371.20001220703</ele>
        <time>2021-09-12T12:24:14Z</time>
      </trkpt>
      <trkpt lat="48.37548" lon="-3.95164">
        <ele>370.79998779297</ele>
        <time>2021-09-12T12:24:15Z</time>
      </trkpt>
      <trkpt lat="48.37552" lon="-3.95156">
        <ele>370.39999389648</ele>
        <time>2021-09-12T12:24:16Z</time>
      </trkpt>
      <trkpt lat="48.37556" lon="-3.95148">
        <ele>370.20001220703</ele>
        <time>2021-09-12T12:24:17Z</time>
      </trkpt>
      <trkpt lat="48.37561" lon="-3.95141">
        <ele>369.20001220703</ele>
        <time>2021-09-12T12:24:18Z</time>
      </trkpt>
      <trkpt lat="48.37566" lon="-3.95135">
        <ele>369.20001220703</ele>
        <time>2021-09-12T12:24:19Z</time>
      </trkpt>
      <trkpt lat="48.37573" lon="-3.95131">
        <ele>368.60000610352</ele>
        <time>2021-09-12T12:24:20Z</time>
      </trkpt>
      <trkpt lat="48.3758" lon="-3.95127">
        <ele>366.20001220703</ele>
        <time>2021-09-12T12:24:21Z</time>
      </trkpt>
      <trkpt lat="48.37587" lon="-3.95122">
        <ele>364.79998779297</ele>
        <time>2021-09-12T12:24:22Z</time>
      </trkpt>
      <trkpt lat="48.37595" lon="-3.95118">
        <ele>364.60000610352</ele>
        <time>2021-09-12T12:24:23Z</time>
      </trkpt>
      <trkpt lat="48.37603" lon="-3.95112">
        <ele>364</ele>
        <time>2021-09-12T12:24:24Z</time>
      </trkpt>
      <trkpt lat="48.37611" lon="-3.95107">
        <ele>360.60000610352</ele>
        <time>2021-09-12T12:24:25Z</time>
      </trkpt>
      <trkpt lat="48.37619" lon="-3.95102">
        <ele>359.60000610352</ele>
        <time>2021-09-12T12:24:26Z</time>
      </trkpt>
      <trkpt lat="48.37628" lon="-3.95099">
        <ele>358.39999389648</ele>
        <time>2021-09-12T12:24:27Z</time>
      </trkpt>
      <trkpt lat="48.37638" lon="-3.95099">
        <ele>357.60000610352</ele>
        <time>2021-09-12T12:24:28Z</time>
      </trkpt>
      <trkpt lat="48.37647" lon="-3.95099">
        <ele>357.20001220703</ele>
        <time>2021-09-12T12:24:29Z</time>
      </trkpt>
      <trkpt lat="48.37655" lon="-3.951">
        <ele>357</ele>
        <time>2021-09-12T12:24:30Z</time>
      </trkpt>
      <trkpt lat="48.37663" lon="-3.951">
        <ele>356.39999389648</ele>
        <time>2021-09-12T12:24:31Z</time>
      </trkpt>
      <trkpt lat="48.37672" lon="-3.951">
        <ele>356.39999389648</ele>
        <time>2021-09-12T12:24:32Z</time>
      </trkpt>
      <trkpt lat="48.37679" lon="-3.95101">
        <ele>356.39999389648</ele>
        <time>2021-09-12T12:24:33Z</time>
      </trkpt>
      <trkpt lat="48.37685" lon="-3.95103">
        <ele>355.60000610352</ele>
        <time>2021-09-12T12:24:34Z</time>
      </trkpt>
      <trkpt lat="48.3769" lon="-3.95104">
        <ele>355.39999389648</ele>
        <time>2021-09-12T12:24:35Z</time>
      </trkpt>
      <trkpt lat="48.37696" lon="-3.95105">
        <ele>355.39999389648</ele>
        <time>2021-09-12T12:24:36Z</time>
      </trkpt>
      <trkpt lat="48.37702" lon="-3.95105">
        <ele>354.39999389648</ele>
        <time>2021-09-12T12:24:37Z</time>
      </trkpt>
      <trkpt lat="48.37707" lon="-3.95106">
        <ele>353.60000610352</ele>
        <time>2021-09-12T12:24:38Z</time>
      </trkpt>
      <trkpt lat="48.37712" lon="-3.95104">
        <ele>353.60000610352</ele>
        <time>2021-09-12T12:24:39Z</time>
      </trkpt>
      <trkpt lat="48.37715" lon="-3.95102">
        <ele>353.39999389648</ele>
        <time>2021-09-12T12:24:40Z</time>
      </trkpt>
      <trkpt lat="48.37718" lon="-3.95099">
        <ele>353.20001220703</ele>
        <time>2021-09-12T12:24:41Z</time>
      </trkpt>
      <trkpt lat="48.37722" lon="-3.95095">
        <ele>353.20001220703</ele>
        <time>2021-09-12T12:24:42Z</time>
      </trkpt>
      <trkpt lat="48.37725" lon="-3.9509">
        <ele>353.20001220703</ele>
        <time>2021-09-12T12:24:43Z</time>
      </trkpt>
      <trkpt lat="48.37728" lon="-3.95085">
        <ele>353.20001220703</ele>
        <time>2021-09-12T12:24:44Z</time>
      </trkpt>
      <trkpt lat="48.37732" lon="-3.9508">
        <ele>353</ele>
        <time>2021-09-12T12:24:45Z</time>
      </trkpt>
      <trkpt lat="48.37735" lon="-3.95075">
        <ele>352.79998779297</ele>
        <time>2021-09-12T12:24:46Z</time>
      </trkpt>
      <trkpt lat="48.37739" lon="-3.95069">
        <ele>352.79998779297</ele>
        <time>2021-09-12T12:24:47Z</time>
      </trkpt>
      <trkpt lat="48.37744" lon="-3.95064">
        <ele>352.60000610352</ele>
        <time>2021-09-12T12:24:48Z</time>
      </trkpt>
      <trkpt lat="48.37749" lon="-3.95058">
        <ele>352.60000610352</ele>
        <time>2021-09-12T12:24:49Z</time>
      </trkpt>
      <trkpt lat="48.37755" lon="-3.95052">
        <ele>352.60000610352</ele>
        <time>2021-09-12T12:24:50Z</time>
      </trkpt>
      <trkpt lat="48.3776" lon="-3.95046">
        <ele>352.20001220703</ele>
        <time>2021-09-12T12:24:51Z</time>
      </trkpt>
      <trkpt lat="48.37767" lon="-3.95039">
        <ele>352</ele>
        <time>2021-09-12T12:24:52Z</time>
      </trkpt>
      <trkpt lat="48.37773" lon="-3.95033">
        <ele>350.60000610352</ele>
        <time>2021-09-12T12:24:53Z</time>
      </trkpt>
      <trkpt lat="48.3778" lon="-3.95025">
        <ele>349.60000610352</ele>
        <time>2021-09-12T12:24:54Z</time>
      </trkpt>
      <trkpt lat="48.37785" lon="-3.9502">
        <ele>348.79998779297</ele>
        <time>2021-09-12T12:24:55Z</time>
      </trkpt>
      <trkpt lat="48.37793" lon="-3.95013">
        <ele>348.79998779297</ele>
        <time>2021-09-12T12:24:56Z</time>
      </trkpt>
      <trkpt lat="48.378" lon="-3.95007">
        <ele>348.20001220703</ele>
        <time>2021-09-12T12:24:57Z</time>
      </trkpt>
      <trkpt lat="48.37806" lon="-3.95">
        <ele>348.20001220703</ele>
        <time>2021-09-12T12:24:58Z</time>
      </trkpt>
      <trkpt lat="48.37813" lon="-3.94993">
        <ele>348</ele>
        <time>2021-09-12T12:24:59Z</time>
      </trkpt>
      <trkpt lat="48.3782" lon="-3.94986">
        <ele>347.79998779297</ele>
        <time>2021-09-12T12:25:00Z</time>
      </trkpt>
      <trkpt lat="48.37827" lon="-3.94981">
        <ele>346.39999389648</ele>
        <time>2021-09-12T12:25:01Z</time>
      </trkpt>
      <trkpt lat="48.37834" lon="-3.94975">
        <ele>346.20001220703</ele>
        <time>2021-09-12T12:25:02Z</time>
      </trkpt>
      <trkpt lat="48.37842" lon="-3.94971">
        <ele>345.79998779297</ele>
        <time>2021-09-12T12:25:03Z</time>
      </trkpt>
      <trkpt lat="48.3785" lon="-3.94967">
        <ele>344.79998779297</ele>
        <time>2021-09-12T12:25:04Z</time>
      </trkpt>
      <trkpt lat="48.37859" lon="-3.94962">
        <ele>343.79998779297</ele>
        <time>2021-09-12T12:25:05Z</time>
      </trkpt>
      <trkpt lat="48.37867" lon="-3.94957">
        <ele>343.39999389648</ele>
        <time>2021-09-12T12:25:06Z</time>
      </trkpt>
      <trkpt lat="48.37875" lon="-3.9495">
        <ele>342.79998779297</ele>
        <time>2021-09-12T12:25:07Z</time>
      </trkpt>
      <trkpt lat="48.37882" lon="-3.94943">
        <ele>341.39999389648</ele>
        <time>2021-09-12T12:25:08Z</time>
      </trkpt>
      <trkpt lat="48.3789" lon="-3.94936">
        <ele>341.39999389648</ele>
        <time>2021-09-12T12:25:09Z</time>
      </trkpt>
      <trkpt lat="48.37898" lon="-3.9493">
        <ele>340.60000610352</ele>
        <time>2021-09-12T12:25:10Z</time>
      </trkpt>
      <trkpt lat="48.37906" lon="-3.94924">
        <ele>340.20001220703</ele>
        <time>2021-09-12T12:25:11Z</time>
      </trkpt>
      <trkpt lat="48.37914" lon="-3.94919">
        <ele>340</ele>
        <time>2021-09-12T12:25:12Z</time>
      </trkpt>
      <trkpt lat="48.37922" lon="-3.94913">
        <ele>339.20001220703</ele>
        <time>2021-09-12T12:25:13Z</time>
      </trkpt>
      <trkpt lat="48.37928" lon="-3.94906">
        <ele>339</ele>
        <time>2021-09-12T12:25:14Z</time>
      </trkpt>
      <trkpt lat="48.37934" lon="-3.94898">
        <ele>338.20001220703</ele>
        <time>2021-09-12T12:25:15Z</time>
      </trkpt>
      <trkpt lat="48.37938" lon="-3.94889">
        <ele>337.79998779297</ele>
        <time>2021-09-12T12:25:16Z</time>
      </trkpt>
      <trkpt lat="48.37941" lon="-3.94879">
        <ele>337.60000610352</ele>
        <time>2021-09-12T12:25:17Z</time>
      </trkpt>
      <trkpt lat="48.37946" lon="-3.9487">
        <ele>337.20001220703</ele>
        <time>2021-09-12T12:25:18Z</time>
      </trkpt>
      <trkpt lat="48.3795" lon="-3.9486">
        <ele>335.79998779297</ele>
        <time>2021-09-12T12:25:19Z</time>
      </trkpt>
      <trkpt lat="48.37956" lon="-3.94851">
        <ele>335.79998779297</ele>
        <time>2021-09-12T12:25:20Z</time>
      </trkpt>
      <trkpt lat="48.37961" lon="-3.94842">
        <ele>335</ele>
        <time>2021-09-12T12:25:21Z</time>
      </trkpt>
      <trkpt lat="48.37966" lon="-3.94833">
        <ele>334.39999389648</ele>
        <time>2021-09-12T12:25:22Z</time>
      </trkpt>
      <trkpt lat="48.37972" lon="-3.94825">
        <ele>333.60000610352</ele>
        <time>2021-09-12T12:25:23Z</time>
      </trkpt>
      <trkpt lat="48.37977" lon="-3.94816">
        <ele>333.20001220703</ele>
        <time>2021-09-12T12:25:24Z</time>
      </trkpt>
      <trkpt lat="48.37983" lon="-3.94808">
        <ele>333</ele>
        <time>2021-09-12T12:25:25Z</time>
      </trkpt>
      <trkpt lat="48.37989" lon="-3.94799">
        <ele>332.60000610352</ele>
        <time>2021-09-12T12:25:26Z</time>
      </trkpt>
      <trkpt lat="48.37995" lon="-3.94791">
        <ele>332</ele>
        <time>2021-09-12T12:25:27Z</time>
      </trkpt>
      <trkpt lat="48.38" lon="-3.94781">
        <ele>331.39999389648</ele>
        <time>2021-09-12T12:25:28Z</time>
      </trkpt>
      <trkpt lat="48.38006" lon="-3.94771">
        <ele>331.20001220703</ele>
        <time>2021-09-12T12:25:29Z</time>
      </trkpt>
      <trkpt lat="48.38012" lon="-3.94761">
        <ele>330.79998779297</ele>
        <time>2021-09-12T12:25:30Z</time>
      </trkpt>
      <trkpt lat="48.38019" lon="-3.94751">
        <ele>329.79998779297</ele>
        <time>2021-09-12T12:25:31Z</time>
      </trkpt>
      <trkpt lat="48.38026" lon="-3.94741">
        <ele>329.39999389648</ele>
        <time>2021-09-12T12:25:32Z</time>
      </trkpt>
      <trkpt lat="48.38033" lon="-3.94731">
        <ele>328.20001220703</ele>
        <time>2021-09-12T12:25:33Z</time>
      </trkpt>
      <trkpt lat="48.3804" lon="-3.94722">
        <ele>326.79998779297</ele>
        <time>2021-09-12T12:25:34Z</time>
      </trkpt>
      <trkpt lat="48.38048" lon="-3.94713">
        <ele>326.60000610352</ele>
        <time>2021-09-12T12:25:35Z</time>
      </trkpt>
      <trkpt lat="48.38055" lon="-3.94705">
        <ele>326.39999389648</ele>
        <time>2021-09-12T12:25:36Z</time>
      </trkpt>
      <trkpt lat="48.38062" lon="-3.94699">
        <ele>326</ele>
        <time>2021-09-12T12:25:37Z</time>
      </trkpt>
      <trkpt lat="48.38071" lon="-3.9469">
        <ele>325.20001220703</ele>
        <time>2021-09-12T12:25:38Z</time>
      </trkpt>
      <trkpt lat="48.38078" lon="-3.94682">
        <ele>325</ele>
        <time>2021-09-12T12:25:39Z</time>
      </trkpt>
      <trkpt lat="48.38085" lon="-3.94674">
        <ele>324.79998779297</ele>
        <time>2021-09-12T12:25:40Z</time>
      </trkpt>
      <trkpt lat="48.38093" lon="-3.94667">
        <ele>323.60000610352</ele>
        <time>2021-09-12T12:25:41Z</time>
      </trkpt>
      <trkpt lat="48.38101" lon="-3.9466">
        <ele>322.39999389648</ele>
        <time>2021-09-12T12:25:42Z</time>
      </trkpt>
      <trkpt lat="48.38109" lon="-3.94654">
        <ele>321.39999389648</ele>
        <time>2021-09-12T12:25:43Z</time>
      </trkpt>
      <trkpt lat="48.38117" lon="-3.94647">
        <ele>320.39999389648</ele>
        <time>2021-09-12T12:25:44Z</time>
      </trkpt>
      <trkpt lat="48.38124" lon="-3.9464">
        <ele>320.20001220703</ele>
        <time>2021-09-12T12:25:45Z</time>
      </trkpt>
      <trkpt lat="48.3813" lon="-3.94633">
        <ele>319</ele>
        <time>2021-09-12T12:25:46Z</time>
      </trkpt>
      <trkpt lat="48.38137" lon="-3.94627">
        <ele>318.39999389648</ele>
        <time>2021-09-12T12:25:47Z</time>
      </trkpt>
      <trkpt lat="48.38144" lon="-3.94619">
        <ele>318.20001220703</ele>
        <time>2021-09-12T12:25:48Z</time>
      </trkpt>
      <trkpt lat="48.3815" lon="-3.94611">
        <ele>318</ele>
        <time>2021-09-12T12:25:49Z</time>
      </trkpt>
      <trkpt lat="48.38155" lon="-3.94601">
        <ele>317.60000610352</ele>
        <time>2021-09-12T12:25:50Z</time>
      </trkpt>
      <trkpt lat="48.3816" lon="-3.9459">
        <ele>316.60000610352</ele>
        <time>2021-09-12T12:25:51Z</time>
      </trkpt>
      <trkpt lat="48.38164" lon="-3.94579">
        <ele>316.39999389648</ele>
        <time>2021-09-12T12:25:52Z</time>
      </trkpt>
      <trkpt lat="48.38167" lon="-3.94571">
        <ele>316.20001220703</ele>
        <time>2021-09-12T12:25:53Z</time>
      </trkpt>
      <trkpt lat="48.38171" lon="-3.9456">
        <ele>315.79998779297</ele>
        <time>2021-09-12T12:25:54Z</time>
      </trkpt>
      <trkpt lat="48.38177" lon="-3.94552">
        <ele>315.20001220703</ele>
        <time>2021-09-12T12:25:55Z</time>
      </trkpt>
      <trkpt lat="48.38183" lon="-3.94544">
        <ele>314</ele>
        <time>2021-09-12T12:25:56Z</time>
      </trkpt>
      <trkpt lat="48.38191" lon="-3.94537">
        <ele>313.20001220703</ele>
        <time>2021-09-12T12:25:57Z</time>
      </trkpt>
      <trkpt lat="48.38199" lon="-3.9453">
        <ele>312.20001220703</ele>
        <time>2021-09-12T12:25:58Z</time>
      </trkpt>
      <trkpt lat="48.38207" lon="-3.94523">
        <ele>311.39999389648</ele>
        <time>2021-09-12T12:25:59Z</time>
      </trkpt>
      <trkpt lat="48.38214" lon="-3.94515">
        <ele>310.39999389648</ele>
        <time>2021-09-12T12:26:00Z</time>
      </trkpt>
      <trkpt lat="48.38221" lon="-3.94506">
        <ele>310.39999389648</ele>
        <time>2021-09-12T12:26:01Z</time>
      </trkpt>
      <trkpt lat="48.38228" lon="-3.94496">
        <ele>309.60000610352</ele>
        <time>2021-09-12T12:26:02Z</time>
      </trkpt>
      <trkpt lat="48.38234" lon="-3.94486">
        <ele>309.20001220703</ele>
        <time>2021-09-12T12:26:03Z</time>
      </trkpt>
      <trkpt lat="48.3824" lon="-3.94476">
        <ele>308.79998779297</ele>
        <time>2021-09-12T12:26:04Z</time>
      </trkpt>
      <trkpt lat="48.38246" lon="-3.94467">
        <ele>308</ele>
        <time>2021-09-12T12:26:05Z</time>
      </trkpt>
      <trkpt lat="48.38252" lon="-3.94459">
        <ele>307.60000610352</ele>
        <time>2021-09-12T12:26:06Z</time>
      </trkpt>
      <trkpt lat="48.38258" lon="-3.94451">
        <ele>307.60000610352</ele>
        <time>2021-09-12T12:26:07Z</time>
      </trkpt>
      <trkpt lat="48.38264" lon="-3.94444">
        <ele>306.60000610352</ele>
        <time>2021-09-12T12:26:08Z</time>
      </trkpt>
      <trkpt lat="48.3827" lon="-3.94439">
        <ele>306.60000610352</ele>
        <time>2021-09-12T12:26:09Z</time>
      </trkpt>
      <trkpt lat="48.38276" lon="-3.94435">
        <ele>306.39999389648</ele>
        <time>2021-09-12T12:26:10Z</time>
      </trkpt>
      <trkpt lat="48.38282" lon="-3.94431">
        <ele>306</ele>
        <time>2021-09-12T12:26:11Z</time>
      </trkpt>
      <trkpt lat="48.38287" lon="-3.94427">
        <ele>305.79998779297</ele>
        <time>2021-09-12T12:26:12Z</time>
      </trkpt>
      <trkpt lat="48.38292" lon="-3.94424">
        <ele>305.79998779297</ele>
        <time>2021-09-12T12:26:13Z</time>
      </trkpt>
      <trkpt lat="48.38297" lon="-3.94421">
        <ele>305.39999389648</ele>
        <time>2021-09-12T12:26:14Z</time>
      </trkpt>
      <trkpt lat="48.383" lon="-3.94418">
        <ele>305.20001220703</ele>
        <time>2021-09-12T12:26:15Z</time>
      </trkpt>
      <trkpt lat="48.38304" lon="-3.94415">
        <ele>305.20001220703</ele>
        <time>2021-09-12T12:26:16Z</time>
      </trkpt>
      <trkpt lat="48.38308" lon="-3.94411">
        <ele>305</ele>
        <time>2021-09-12T12:26:17Z</time>
      </trkpt>
      <trkpt lat="48.38311" lon="-3.94407">
        <ele>305</ele>
        <time>2021-09-12T12:26:18Z</time>
      </trkpt>
      <trkpt lat="48.38314" lon="-3.94401">
        <ele>305</ele>
        <time>2021-09-12T12:26:19Z</time>
      </trkpt>
      <trkpt lat="48.38316" lon="-3.94395">
        <ele>304.79998779297</ele>
        <time>2021-09-12T12:26:20Z</time>
      </trkpt>
      <trkpt lat="48.38318" lon="-3.94388">
        <ele>304.60000610352</ele>
        <time>2021-09-12T12:26:21Z</time>
      </trkpt>
      <trkpt lat="48.3832" lon="-3.94381">
        <ele>304.39999389648</ele>
        <time>2021-09-12T12:26:22Z</time>
      </trkpt>
      <trkpt lat="48.38321" lon="-3.94374">
        <ele>304.20001220703</ele>
        <time>2021-09-12T12:26:23Z</time>
      </trkpt>
      <trkpt lat="48.38322" lon="-3.94366">
        <ele>303.79998779297</ele>
        <time>2021-09-12T12:26:24Z</time>
      </trkpt>
      <trkpt lat="48.38323" lon="-3.94359">
        <ele>303.79998779297</ele>
        <time>2021-09-12T12:26:25Z</time>
      </trkpt>
      <trkpt lat="48.38322" lon="-3.94353">
        <ele>303.39999389648</ele>
        <time>2021-09-12T12:26:26Z</time>
      </trkpt>
      <trkpt lat="48.38321" lon="-3.94349">
        <ele>303.39999389648</ele>
        <time>2021-09-12T12:26:27Z</time>
      </trkpt>
      <trkpt lat="48.38318" lon="-3.94346">
        <ele>303.20001220703</ele>
        <time>2021-09-12T12:26:28Z</time>
      </trkpt>
      <trkpt lat="48.38315" lon="-3.94344">
        <ele>303</ele>
        <time>2021-09-12T12:26:29Z</time>
      </trkpt>
      <trkpt lat="48.38311" lon="-3.94344">
        <ele>302.79998779297</ele>
        <time>2021-09-12T12:26:30Z</time>
      </trkpt>
      <trkpt lat="48.38307" lon="-3.94346">
        <ele>302.79998779297</ele>
        <time>2021-09-12T12:26:31Z</time>
      </trkpt>
      <trkpt lat="48.38302" lon="-3.94348">
        <ele>302.79998779297</ele>
        <time>2021-09-12T12:26:32Z</time>
      </trkpt>
      <trkpt lat="48.38297" lon="-3.9435">
        <ele>302.60000610352</ele>
        <time>2021-09-12T12:26:33Z</time>
      </trkpt>
      <trkpt lat="48.38293" lon="-3.94353">
        <ele>302.60000610352</ele>
        <time>2021-09-12T12:26:34Z</time>
      </trkpt>
      <trkpt lat="48.38287" lon="-3.94356">
        <ele>302.60000610352</ele>
        <time>2021-09-12T12:26:35Z</time>
      </trkpt>
      <trkpt lat="48.38282" lon="-3.94358">
        <ele>302</ele>
        <time>2021-09-12T12:26:36Z</time>
      </trkpt>
      <trkpt lat="48.38277" lon="-3.94361">
        <ele>301.79998779297</ele>
        <time>2021-09-12T12:26:37Z</time>
      </trkpt>
      <trkpt lat="48.38272" lon="-3.94363">
        <ele>301.79998779297</ele>
        <time>2021-09-12T12:26:38Z</time>
      </trkpt>
      <trkpt lat="48.38267" lon="-3.94365">
        <ele>301.79998779297</ele>
        <time>2021-09-12T12:26:39Z</time>
      </trkpt>
      <trkpt lat="48.38261" lon="-3.94367">
        <ele>301.79998779297</ele>
        <time>2021-09-12T12:26:40Z</time>
      </trkpt>
      <trkpt lat="48.38256" lon="-3.94369">
        <ele>301.79998779297</ele>
        <time>2021-09-12T12:26:41Z</time>
      </trkpt>
      <trkpt lat="48.38251" lon="-3.94372">
        <ele>301.60000610352</ele>
        <time>2021-09-12T12:26:42Z</time>
      </trkpt>
      <trkpt lat="48.38246" lon="-3.94375">
        <ele>301.39999389648</ele>
        <time>2021-09-12T12:26:43Z</time>
      </trkpt>
      <trkpt lat="48.3824" lon="-3.94377">
        <ele>301.20001220703</ele>
        <time>2021-09-12T12:26:44Z</time>
      </trkpt>
      <trkpt lat="48.38235" lon="-3.9438">
        <ele>301.20001220703</ele>
        <time>2021-09-12T12:26:45Z</time>
      </trkpt>
      <trkpt lat="48.38229" lon="-3.94382">
        <ele>301</ele>
        <time>2021-09-12T12:26:46Z</time>
      </trkpt>
      <trkpt lat="48.38224" lon="-3.94383">
        <ele>300.60000610352</ele>
        <time>2021-09-12T12:26:47Z</time>
      </trkpt>
      <trkpt lat="48.38221" lon="-3.94381">
        <ele>300.39999389648</ele>
        <time>2021-09-12T12:26:48Z</time>
      </trkpt>
      <trkpt lat="48.38219" lon="-3.94379">
        <ele>300.39999389648</ele>
        <time>2021-09-12T12:26:49Z</time>
      </trkpt>
      <trkpt lat="48.38219" lon="-3.94377">
        <ele>300.20001220703</ele>
        <time>2021-09-12T12:26:50Z</time>
      </trkpt>
      <trkpt lat="48.38219" lon="-3.94375">
        <ele>299.39999389648</ele>
        <time>2021-09-12T12:26:51Z</time>
      </trkpt>
      <trkpt lat="48.38218" lon="-3.94374">
        <ele>299.20001220703</ele>
        <time>2021-09-12T12:26:52Z</time>
      </trkpt>
      <trkpt lat="48.38218" lon="-3.94372">
        <ele>299.20001220703</ele>
        <time>2021-09-12T12:26:53Z</time>
      </trkpt>
      <trkpt lat="48.38218" lon="-3.94371">
        <ele>299</ele>
        <time>2021-09-12T12:26:54Z</time>
      </trkpt>
      <trkpt lat="48.38217" lon="-3.94367">
        <ele>299</ele>
        <time>2021-09-12T12:26:55Z</time>
      </trkpt>
      <trkpt lat="48.38215" lon="-3.94364">
        <ele>298.79998779297</ele>
        <time>2021-09-12T12:26:56Z</time>
      </trkpt>
      <trkpt lat="48.38212" lon="-3.94363">
        <ele>298.79998779297</ele>
        <time>2021-09-12T12:26:57Z</time>
      </trkpt>
      <trkpt lat="48.38208" lon="-3.94363">
        <ele>298.39999389648</ele>
        <time>2021-09-12T12:26:58Z</time>
      </trkpt>
      <trkpt lat="48.38202" lon="-3.94364">
        <ele>297.79998779297</ele>
        <time>2021-09-12T12:26:59Z</time>
      </trkpt>
      <trkpt lat="48.38197" lon="-3.94365">
        <ele>297</ele>
        <time>2021-09-12T12:27:00Z</time>
      </trkpt>
      <trkpt lat="48.38191" lon="-3.94366">
        <ele>296.20001220703</ele>
        <time>2021-09-12T12:27:01Z</time>
      </trkpt>
      <trkpt lat="48.38184" lon="-3.94367">
        <ele>296.20001220703</ele>
        <time>2021-09-12T12:27:02Z</time>
      </trkpt>
      <trkpt lat="48.38177" lon="-3.94368">
        <ele>295.79998779297</ele>
        <time>2021-09-12T12:27:03Z</time>
      </trkpt>
      <trkpt lat="48.38169" lon="-3.9437">
        <ele>294.39999389648</ele>
        <time>2021-09-12T12:27:04Z</time>
      </trkpt>
      <trkpt lat="48.3816" lon="-3.94372">
        <ele>294</ele>
        <time>2021-09-12T12:27:05Z</time>
      </trkpt>
      <trkpt lat="48.38151" lon="-3.94374">
        <ele>293.20001220703</ele>
        <time>2021-09-12T12:27:06Z</time>
      </trkpt>
      <trkpt lat="48.38142" lon="-3.94377">
        <ele>291.79998779297</ele>
        <time>2021-09-12T12:27:07Z</time>
      </trkpt>
      <trkpt lat="48.38132" lon="-3.9438">
        <ele>291.60000610352</ele>
        <time>2021-09-12T12:27:08Z</time>
      </trkpt>
      <trkpt lat="48.38123" lon="-3.94385">
        <ele>290</ele>
        <time>2021-09-12T12:27:09Z</time>
      </trkpt>
      <trkpt lat="48.38114" lon="-3.9439">
        <ele>289.79998779297</ele>
        <time>2021-09-12T12:27:10Z</time>
      </trkpt>
      <trkpt lat="48.38106" lon="-3.94395">
        <ele>289.20001220703</ele>
        <time>2021-09-12T12:27:11Z</time>
      </trkpt>
      <trkpt lat="48.38099" lon="-3.94399">
        <ele>289</ele>
        <time>2021-09-12T12:27:12Z</time>
      </trkpt>
      <trkpt lat="48.38093" lon="-3.94403">
        <ele>287.60000610352</ele>
        <time>2021-09-12T12:27:13Z</time>
      </trkpt>
      <trkpt lat="48.3809" lon="-3.94405">
        <ele>286.79998779297</ele>
        <time>2021-09-12T12:27:14Z</time>
      </trkpt>
      <trkpt lat="48.38087" lon="-3.94406">
        <ele>286.79998779297</ele>
        <time>2021-09-12T12:27:15Z</time>
      </trkpt>
      <trkpt lat="48.38085" lon="-3.94405">
        <ele>286.79998779297</ele>
        <time>2021-09-12T12:27:16Z</time>
      </trkpt>
      <trkpt lat="48.38082" lon="-3.94402">
        <ele>286.79998779297</ele>
        <time>2021-09-12T12:27:17Z</time>
      </trkpt>
      <trkpt lat="48.38079" lon="-3.94399">
        <ele>286.39999389648</ele>
        <time>2021-09-12T12:27:18Z</time>
      </trkpt>
      <trkpt lat="48.38076" lon="-3.94396">
        <ele>286.39999389648</ele>
        <time>2021-09-12T12:27:19Z</time>
      </trkpt>
      <trkpt lat="48.38072" lon="-3.94393">
        <ele>286</ele>
        <time>2021-09-12T12:27:20Z</time>
      </trkpt>
      <trkpt lat="48.38068" lon="-3.94389">
        <ele>286</ele>
        <time>2021-09-12T12:27:21Z</time>
      </trkpt>
      <trkpt lat="48.38063" lon="-3.94385">
        <ele>285.79998779297</ele>
        <time>2021-09-12T12:27:22Z</time>
      </trkpt>
      <trkpt lat="48.38058" lon="-3.94381">
        <ele>285.79998779297</ele>
        <time>2021-09-12T12:27:23Z</time>
      </trkpt>
      <trkpt lat="48.38054" lon="-3.94376">
        <ele>285.20001220703</ele>
        <time>2021-09-12T12:27:24Z</time>
      </trkpt>
      <trkpt lat="48.38049" lon="-3.94372">
        <ele>285.20001220703</ele>
        <time>2021-09-12T12:27:25Z</time>
      </trkpt>
      <trkpt lat="48.38044" lon="-3.94367">
        <ele>285</ele>
        <time>2021-09-12T12:27:26Z</time>
      </trkpt>
      <trkpt lat="48.38038" lon="-3.94362">
        <ele>284.79998779297</ele>
        <time>2021-09-12T12:27:27Z</time>
      </trkpt>
      <trkpt lat="48.38033" lon="-3.94357">
        <ele>284.79998779297</ele>
        <time>2021-09-12T12:27:28Z</time>
      </trkpt>
      <trkpt lat="48.38027" lon="-3.94351">
        <ele>284.39999389648</ele>
        <time>2021-09-12T12:27:29Z</time>
      </trkpt>
      <trkpt lat="48.38021" lon="-3.94346">
        <ele>284</ele>
        <time>2021-09-12T12:27:30Z</time>
      </trkpt>
      <trkpt lat="48.38016" lon="-3.9434">
        <ele>283.39999389648</ele>
        <time>2021-09-12T12:27:31Z</time>
      </trkpt>
      <trkpt lat="48.38008" lon="-3.94332">
        <ele>283.39999389648</ele>
        <time>2021-09-12T12:27:32Z</time>
      </trkpt>
      <trkpt lat="48.38004" lon="-3.94327">
        <ele>282.39999389648</ele>
        <time>2021-09-12T12:27:33Z</time>
      </trkpt>
      <trkpt lat="48.37996" lon="-3.9432">
        <ele>282</ele>
        <time>2021-09-12T12:27:34Z</time>
      </trkpt>
      <trkpt lat="48.37991" lon="-3.94316">
        <ele>281.79998779297</ele>
        <time>2021-09-12T12:27:35Z</time>
      </trkpt>
      <trkpt lat="48.37985" lon="-3.9431">
        <ele>281.39999389648</ele>
        <time>2021-09-12T12:27:36Z</time>
      </trkpt>
      <trkpt lat="48.3798" lon="-3.94303">
        <ele>280.79998779297</ele>
        <time>2021-09-12T12:27:37Z</time>
      </trkpt>
      <trkpt lat="48.37975" lon="-3.94296">
        <ele>280.39999389648</ele>
        <time>2021-09-12T12:27:38Z</time>
      </trkpt>
      <trkpt lat="48.3797" lon="-3.94289">
        <ele>280</ele>
        <time>2021-09-12T12:27:39Z</time>
      </trkpt>
      <trkpt lat="48.37966" lon="-3.94283">
        <ele>279.60000610352</ele>
        <time>2021-09-12T12:27:40Z</time>
      </trkpt>
      <trkpt lat="48.37962" lon="-3.94277">
        <ele>278.79998779297</ele>
        <time>2021-09-12T12:27:41Z</time>
      </trkpt>
      <trkpt lat="48.37957" lon="-3.94272">
        <ele>278.39999389648</ele>
        <time>2021-09-12T12:27:42Z</time>
      </trkpt>
      <trkpt lat="48.37952" lon="-3.94267">
        <ele>278.39999389648</ele>
        <time>2021-09-12T12:27:43Z</time>
      </trkpt>
      <trkpt lat="48.37948" lon="-3.94262">
        <ele>277.79998779297</ele>
        <time>2021-09-12T12:27:44Z</time>
      </trkpt>
      <trkpt lat="48.37944" lon="-3.94259">
        <ele>276.39999389648</ele>
        <time>2021-09-12T12:27:45Z</time>
      </trkpt>
      <trkpt lat="48.3794" lon="-3.94257">
        <ele>275.79998779297</ele>
        <time>2021-09-12T12:27:46Z</time>
      </trkpt>
      <trkpt lat="48.37937" lon="-3.94254">
        <ele>275.60000610352</ele>
        <time>2021-09-12T12:27:47Z</time>
      </trkpt>
      <trkpt lat="48.37933" lon="-3.94252">
        <ele>275.60000610352</ele>
        <time>2021-09-12T12:27:48Z</time>
      </trkpt>
      <trkpt lat="48.37929" lon="-3.94249">
        <ele>275.60000610352</ele>
        <time>2021-09-12T12:27:49Z</time>
      </trkpt>
      <trkpt lat="48.37925" lon="-3.94246">
        <ele>275.79998779297</ele>
        <time>2021-09-12T12:27:50Z</time>
      </trkpt>
      <trkpt lat="48.37922" lon="-3.94242">
        <ele>275.79998779297</ele>
        <time>2021-09-12T12:27:51Z</time>
      </trkpt>
      <trkpt lat="48.37919" lon="-3.94239">
        <ele>275.79998779297</ele>
        <time>2021-09-12T12:27:52Z</time>
      </trkpt>
      <trkpt lat="48.37916" lon="-3.94236">
        <ele>275.79998779297</ele>
        <time>2021-09-12T12:27:53Z</time>
      </trkpt>
      <trkpt lat="48.37913" lon="-3.94232">
        <ele>276.39999389648</ele>
        <time>2021-09-12T12:27:54Z</time>
      </trkpt>
      <trkpt lat="48.37909" lon="-3.94229">
        <ele>276.39999389648</ele>
        <time>2021-09-12T12:27:55Z</time>
      </trkpt>
      <trkpt lat="48.37906" lon="-3.94224">
        <ele>276.39999389648</ele>
        <time>2021-09-12T12:27:56Z</time>
      </trkpt>
      <trkpt lat="48.37903" lon="-3.94219">
        <ele>276.39999389648</ele>
        <time>2021-09-12T12:27:57Z</time>
      </trkpt>
      <trkpt lat="48.37899" lon="-3.94214">
        <ele>275.79998779297</ele>
        <time>2021-09-12T12:27:58Z</time>
      </trkpt>
      <trkpt lat="48.37895" lon="-3.94209">
        <ele>275.79998779297</ele>
        <time>2021-09-12T12:27:59Z</time>
      </trkpt>
      <trkpt lat="48.37891" lon="-3.94204">
        <ele>275.39999389648</ele>
        <time>2021-09-12T12:28:00Z</time>
      </trkpt>
      <trkpt lat="48.37886" lon="-3.94198">
        <ele>275</ele>
        <time>2021-09-12T12:28:01Z</time>
      </trkpt>
      <trkpt lat="48.37881" lon="-3.94192">
        <ele>274.39999389648</ele>
        <time>2021-09-12T12:28:02Z</time>
      </trkpt>
      <trkpt lat="48.37875" lon="-3.94186">
        <ele>274</ele>
        <time>2021-09-12T12:28:03Z</time>
      </trkpt>
      <trkpt lat="48.37871" lon="-3.94179">
        <ele>274</ele>
        <time>2021-09-12T12:28:04Z</time>
      </trkpt>
      <trkpt lat="48.37866" lon="-3.94173">
        <ele>274</ele>
        <time>2021-09-12T12:28:05Z</time>
      </trkpt>
      <trkpt lat="48.37862" lon="-3.94165">
        <ele>273.79998779297</ele>
        <time>2021-09-12T12:28:06Z</time>
      </trkpt>
      <trkpt lat="48.37858" lon="-3.94159">
        <ele>273.39999389648</ele>
        <time>2021-09-12T12:28:07Z</time>
      </trkpt>
      <trkpt lat="48.37855" lon="-3.94152">
        <ele>273.39999389648</ele>
        <time>2021-09-12T12:28:08Z</time>
      </trkpt>
      <trkpt lat="48.37852" lon="-3.94144">
        <ele>273.20001220703</ele>
        <time>2021-09-12T12:28:09Z</time>
      </trkpt>
      <trkpt lat="48.37848" lon="-3.94137">
        <ele>273</ele>
        <time>2021-09-12T12:28:10Z</time>
      </trkpt>
      <trkpt lat="48.37845" lon="-3.94131">
        <ele>273</ele>
        <time>2021-09-12T12:28:11Z</time>
      </trkpt>
      <trkpt lat="48.37842" lon="-3.94124">
        <ele>272.79998779297</ele>
        <time>2021-09-12T12:28:12Z</time>
      </trkpt>
      <trkpt lat="48.37839" lon="-3.94117">
        <ele>272.79998779297</ele>
        <time>2021-09-12T12:28:13Z</time>
      </trkpt>
      <trkpt lat="48.37836" lon="-3.94111">
        <ele>272.79998779297</ele>
        <time>2021-09-12T12:28:14Z</time>
      </trkpt>
      <trkpt lat="48.37833" lon="-3.94105">
        <ele>272.79998779297</ele>
        <time>2021-09-12T12:28:15Z</time>
      </trkpt>
      <trkpt lat="48.37829" lon="-3.941">
        <ele>272.60000610352</ele>
        <time>2021-09-12T12:28:16Z</time>
      </trkpt>
      <trkpt lat="48.37825" lon="-3.94094">
        <ele>272.60000610352</ele>
        <time>2021-09-12T12:28:17Z</time>
      </trkpt>
      <trkpt lat="48.37821" lon="-3.94089">
        <ele>272.39999389648</ele>
        <time>2021-09-12T12:28:18Z</time>
      </trkpt>
      <trkpt lat="48.37818" lon="-3.94084">
        <ele>272.39999389648</ele>
        <time>2021-09-12T12:28:19Z</time>
      </trkpt>
      <trkpt lat="48.37814" lon="-3.9408">
        <ele>272.39999389648</ele>
        <time>2021-09-12T12:28:20Z</time>
      </trkpt>
      <trkpt lat="48.3781" lon="-3.94074">
        <ele>272.20001220703</ele>
        <time>2021-09-12T12:28:21Z</time>
      </trkpt>
      <trkpt lat="48.37806" lon="-3.94069">
        <ele>272.20001220703</ele>
        <time>2021-09-12T12:28:22Z</time>
      </trkpt>
      <trkpt lat="48.37802" lon="-3.94065">
        <ele>272.39999389648</ele>
        <time>2021-09-12T12:28:23Z</time>
      </trkpt>
      <trkpt lat="48.37799" lon="-3.9406">
        <ele>272.20001220703</ele>
        <time>2021-09-12T12:28:24Z</time>
      </trkpt>
      <trkpt lat="48.37795" lon="-3.94055">
        <ele>272</ele>
        <time>2021-09-12T12:28:25Z</time>
      </trkpt>
      <trkpt lat="48.37791" lon="-3.94049">
        <ele>272</ele>
        <time>2021-09-12T12:28:26Z</time>
      </trkpt>
      <trkpt lat="48.37787" lon="-3.94044">
        <ele>272.20001220703</ele>
        <time>2021-09-12T12:28:27Z</time>
      </trkpt>
      <trkpt lat="48.37784" lon="-3.94039">
        <ele>272.20001220703</ele>
        <time>2021-09-12T12:28:28Z</time>
      </trkpt>
      <trkpt lat="48.3778" lon="-3.94034">
        <ele>272.20001220703</ele>
        <time>2021-09-12T12:28:29Z</time>
      </trkpt>
      <trkpt lat="48.37777" lon="-3.94029">
        <ele>272</ele>
        <time>2021-09-12T12:28:30Z</time>
      </trkpt>
      <trkpt lat="48.37774" lon="-3.94024">
        <ele>272</ele>
        <time>2021-09-12T12:28:31Z</time>
      </trkpt>
      <trkpt lat="48.37771" lon="-3.94019">
        <ele>272</ele>
        <time>2021-09-12T12:28:32Z</time>
      </trkpt>
      <trkpt lat="48.37767" lon="-3.94014">
        <ele>272</ele>
        <time>2021-09-12T12:28:33Z</time>
      </trkpt>
      <trkpt lat="48.37764" lon="-3.94008">
        <ele>272</ele>
        <time>2021-09-12T12:28:34Z</time>
      </trkpt>
      <trkpt lat="48.37761" lon="-3.94004">
        <ele>272</ele>
        <time>2021-09-12T12:28:35Z</time>
      </trkpt>
      <trkpt lat="48.37758" lon="-3.93999">
        <ele>272</ele>
        <time>2021-09-12T12:28:36Z</time>
      </trkpt>
      <trkpt lat="48.37754" lon="-3.93995">
        <ele>272</ele>
        <time>2021-09-12T12:28:37Z</time>
      </trkpt>
      <trkpt lat="48.3775" lon="-3.93992">
        <ele>272</ele>
        <time>2021-09-12T12:28:38Z</time>
      </trkpt>
      <trkpt lat="48.37746" lon="-3.93988">
        <ele>272</ele>
        <time>2021-09-12T12:28:39Z</time>
      </trkpt>
      <trkpt lat="48.37742" lon="-3.93984">
        <ele>272</ele>
        <time>2021-09-12T12:28:40Z</time>
      </trkpt>
      <trkpt lat="48.37738" lon="-3.93981">
        <ele>272</ele>
        <time>2021-09-12T12:28:41Z</time>
      </trkpt>
      <trkpt lat="48.37733" lon="-3.93978">
        <ele>272</ele>
        <time>2021-09-12T12:28:42Z</time>
      </trkpt>
      <trkpt lat="48.37728" lon="-3.93976">
        <ele>272</ele>
        <time>2021-09-12T12:28:43Z</time>
      </trkpt>
      <trkpt lat="48.37723" lon="-3.93974">
        <ele>272</ele>
        <time>2021-09-12T12:28:44Z</time>
      </trkpt>
      <trkpt lat="48.37719" lon="-3.93973">
        <ele>272</ele>
        <time>2021-09-12T12:28:45Z</time>
      </trkpt>
      <trkpt lat="48.37714" lon="-3.93971">
        <ele>272</ele>
        <time>2021-09-12T12:28:46Z</time>
      </trkpt>
      <trkpt lat="48.37709" lon="-3.93969">
        <ele>272.20001220703</ele>
        <time>2021-09-12T12:28:47Z</time>
      </trkpt>
      <trkpt lat="48.37703" lon="-3.93967">
        <ele>272.20001220703</ele>
        <time>2021-09-12T12:28:48Z</time>
      </trkpt>
      <trkpt lat="48.37698" lon="-3.93966">
        <ele>272.20001220703</ele>
        <time>2021-09-12T12:28:49Z</time>
      </trkpt>
      <trkpt lat="48.37693" lon="-3.93966">
        <ele>272.20001220703</ele>
        <time>2021-09-12T12:28:50Z</time>
      </trkpt>
      <trkpt lat="48.37688" lon="-3.93965">
        <ele>272.20001220703</ele>
        <time>2021-09-12T12:28:51Z</time>
      </trkpt>
      <trkpt lat="48.37684" lon="-3.93964">
        <ele>272.20001220703</ele>
        <time>2021-09-12T12:28:52Z</time>
      </trkpt>
      <trkpt lat="48.3768" lon="-3.93964">
        <ele>272.20001220703</ele>
        <time>2021-09-12T12:28:53Z</time>
      </trkpt>
      <trkpt lat="48.37675" lon="-3.93963">
        <ele>272.20001220703</ele>
        <time>2021-09-12T12:28:54Z</time>
      </trkpt>
      <trkpt lat="48.3767" lon="-3.93963">
        <ele>272.20001220703</ele>
        <time>2021-09-12T12:28:55Z</time>
      </trkpt>
      <trkpt lat="48.37666" lon="-3.93962">
        <ele>272.20001220703</ele>
        <time>2021-09-12T12:28:56Z</time>
      </trkpt>
      <trkpt lat="48.37661" lon="-3.93961">
        <ele>272.20001220703</ele>
        <time>2021-09-12T12:28:57Z</time>
      </trkpt>
      <trkpt lat="48.37657" lon="-3.93961">
        <ele>272</ele>
        <time>2021-09-12T12:28:58Z</time>
      </trkpt>
      <trkpt lat="48.37652" lon="-3.93961">
        <ele>271.79998779297</ele>
        <time>2021-09-12T12:28:59Z</time>
      </trkpt>
      <trkpt lat="48.37648" lon="-3.93959">
        <ele>271.79998779297</ele>
        <time>2021-09-12T12:29:00Z</time>
      </trkpt>
      <trkpt lat="48.37644" lon="-3.93956">
        <ele>271.79998779297</ele>
        <time>2021-09-12T12:29:01Z</time>
      </trkpt>
      <trkpt lat="48.37642" lon="-3.93951">
        <ele>271.39999389648</ele>
        <time>2021-09-12T12:29:02Z</time>
      </trkpt>
      <trkpt lat="48.37641" lon="-3.93945">
        <ele>271.20001220703</ele>
        <time>2021-09-12T12:29:03Z</time>
      </trkpt>
      <trkpt lat="48.3764" lon="-3.93939">
        <ele>271</ele>
        <time>2021-09-12T12:29:04Z</time>
      </trkpt>
      <trkpt lat="48.37639" lon="-3.93933">
        <ele>270.79998779297</ele>
        <time>2021-09-12T12:29:05Z</time>
      </trkpt>
      <trkpt lat="48.37639" lon="-3.93926">
        <ele>270.79998779297</ele>
        <time>2021-09-12T12:29:06Z</time>
      </trkpt>
      <trkpt lat="48.37638" lon="-3.93918">
        <ele>270.60000610352</ele>
        <time>2021-09-12T12:29:07Z</time>
      </trkpt>
      <trkpt lat="48.37638" lon="-3.93911">
        <ele>270.20001220703</ele>
        <time>2021-09-12T12:29:08Z</time>
      </trkpt>
      <trkpt lat="48.37638" lon="-3.93903">
        <ele>270</ele>
        <time>2021-09-12T12:29:09Z</time>
      </trkpt>
      <trkpt lat="48.37638" lon="-3.93894">
        <ele>269.79998779297</ele>
        <time>2021-09-12T12:29:10Z</time>
      </trkpt>
      <trkpt lat="48.37638" lon="-3.93885">
        <ele>269.39999389648</ele>
        <time>2021-09-12T12:29:11Z</time>
      </trkpt>
      <trkpt lat="48.37638" lon="-3.93877">
        <ele>269.20001220703</ele>
        <time>2021-09-12T12:29:12Z</time>
      </trkpt>
      <trkpt lat="48.37638" lon="-3.93867">
        <ele>269</ele>
        <time>2021-09-12T12:29:13Z</time>
      </trkpt>
      <trkpt lat="48.37638" lon="-3.93858">
        <ele>269</ele>
        <time>2021-09-12T12:29:14Z</time>
      </trkpt>
      <trkpt lat="48.37638" lon="-3.93848">
        <ele>268.60000610352</ele>
        <time>2021-09-12T12:29:15Z</time>
      </trkpt>
      <trkpt lat="48.37638" lon="-3.93838">
        <ele>268.39999389648</ele>
        <time>2021-09-12T12:29:16Z</time>
      </trkpt>
      <trkpt lat="48.37638" lon="-3.93828">
        <ele>267.79998779297</ele>
        <time>2021-09-12T12:29:17Z</time>
      </trkpt>
      <trkpt lat="48.37639" lon="-3.93819">
        <ele>267.60000610352</ele>
        <time>2021-09-12T12:29:18Z</time>
      </trkpt>
      <trkpt lat="48.37641" lon="-3.9381">
        <ele>267.60000610352</ele>
        <time>2021-09-12T12:29:19Z</time>
      </trkpt>
      <trkpt lat="48.37642" lon="-3.93801">
        <ele>267.60000610352</ele>
        <time>2021-09-12T12:29:20Z</time>
      </trkpt>
      <trkpt lat="48.37643" lon="-3.93791">
        <ele>267.60000610352</ele>
        <time>2021-09-12T12:29:21Z</time>
      </trkpt>
      <trkpt lat="48.37644" lon="-3.93783">
        <ele>267.39999389648</ele>
        <time>2021-09-12T12:29:22Z</time>
      </trkpt>
      <trkpt lat="48.37645" lon="-3.93774">
        <ele>267</ele>
        <time>2021-09-12T12:29:23Z</time>
      </trkpt>
      <trkpt lat="48.37647" lon="-3.93766">
        <ele>266.60000610352</ele>
        <time>2021-09-12T12:29:24Z</time>
      </trkpt>
      <trkpt lat="48.37649" lon="-3.93757">
        <ele>266.39999389648</ele>
        <time>2021-09-12T12:29:25Z</time>
      </trkpt>
      <trkpt lat="48.3765" lon="-3.93748">
        <ele>266.39999389648</ele>
        <time>2021-09-12T12:29:26Z</time>
      </trkpt>
      <trkpt lat="48.37653" lon="-3.9374">
        <ele>266.20001220703</ele>
        <time>2021-09-12T12:29:27Z</time>
      </trkpt>
      <trkpt lat="48.37655" lon="-3.93732">
        <ele>266.20001220703</ele>
        <time>2021-09-12T12:29:28Z</time>
      </trkpt>
      <trkpt lat="48.37658" lon="-3.93723">
        <ele>266.20001220703</ele>
        <time>2021-09-12T12:29:29Z</time>
      </trkpt>
      <trkpt lat="48.37662" lon="-3.93716">
        <ele>265.60000610352</ele>
        <time>2021-09-12T12:29:30Z</time>
      </trkpt>
      <trkpt lat="48.37666" lon="-3.93708">
        <ele>265.20001220703</ele>
        <time>2021-09-12T12:29:31Z</time>
      </trkpt>
      <trkpt lat="48.3767" lon="-3.93701">
        <ele>264.79998779297</ele>
        <time>2021-09-12T12:29:32Z</time>
      </trkpt>
      <trkpt lat="48.37675" lon="-3.93694">
        <ele>264.39999389648</ele>
        <time>2021-09-12T12:29:33Z</time>
      </trkpt>
      <trkpt lat="48.37681" lon="-3.93687">
        <ele>264.39999389648</ele>
        <time>2021-09-12T12:29:34Z</time>
      </trkpt>
      <trkpt lat="48.37686" lon="-3.93681">
        <ele>264</ele>
        <time>2021-09-12T12:29:35Z</time>
      </trkpt>
      <trkpt lat="48.37692" lon="-3.93674">
        <ele>263.79998779297</ele>
        <time>2021-09-12T12:29:36Z</time>
      </trkpt>
      <trkpt lat="48.37697" lon="-3.93668">
        <ele>263.39999389648</ele>
        <time>2021-09-12T12:29:37Z</time>
      </trkpt>
      <trkpt lat="48.37703" lon="-3.93661">
        <ele>262.79998779297</ele>
        <time>2021-09-12T12:29:38Z</time>
      </trkpt>
      <trkpt lat="48.37708" lon="-3.93654">
        <ele>262.60000610352</ele>
        <time>2021-09-12T12:29:39Z</time>
      </trkpt>
      <trkpt lat="48.37714" lon="-3.93647">
        <ele>262.20001220703</ele>
        <time>2021-09-12T12:29:40Z</time>
      </trkpt>
      <trkpt lat="48.3772" lon="-3.93639">
        <ele>262</ele>
        <time>2021-09-12T12:29:41Z</time>
      </trkpt>
      <trkpt lat="48.37726" lon="-3.93632">
        <ele>261.60000610352</ele>
        <time>2021-09-12T12:29:42Z</time>
      </trkpt>
      <trkpt lat="48.37732" lon="-3.93625">
        <ele>261.39999389648</ele>
        <time>2021-09-12T12:29:43Z</time>
      </trkpt>
      <trkpt lat="48.37739" lon="-3.93618">
        <ele>261</ele>
        <time>2021-09-12T12:29:44Z</time>
      </trkpt>
      <trkpt lat="48.37745" lon="-3.93611">
        <ele>260</ele>
        <time>2021-09-12T12:29:45Z</time>
      </trkpt>
      <trkpt lat="48.37751" lon="-3.93603">
        <ele>260</ele>
        <time>2021-09-12T12:29:46Z</time>
      </trkpt>
      <trkpt lat="48.37757" lon="-3.93596">
        <ele>259.60000610352</ele>
        <time>2021-09-12T12:29:47Z</time>
      </trkpt>
      <trkpt lat="48.37763" lon="-3.93588">
        <ele>259.60000610352</ele>
        <time>2021-09-12T12:29:48Z</time>
      </trkpt>
      <trkpt lat="48.37768" lon="-3.93582">
        <ele>259.39999389648</ele>
        <time>2021-09-12T12:29:49Z</time>
      </trkpt>
      <trkpt lat="48.37775" lon="-3.93575">
        <ele>259.20001220703</ele>
        <time>2021-09-12T12:29:50Z</time>
      </trkpt>
      <trkpt lat="48.37782" lon="-3.93567">
        <ele>258.79998779297</ele>
        <time>2021-09-12T12:29:51Z</time>
      </trkpt>
      <trkpt lat="48.37788" lon="-3.9356">
        <ele>258.20001220703</ele>
        <time>2021-09-12T12:29:52Z</time>
      </trkpt>
      <trkpt lat="48.37794" lon="-3.93552">
        <ele>257.60000610352</ele>
        <time>2021-09-12T12:29:53Z</time>
      </trkpt>
      <trkpt lat="48.378" lon="-3.93545">
        <ele>257.20001220703</ele>
        <time>2021-09-12T12:29:54Z</time>
      </trkpt>
      <trkpt lat="48.37807" lon="-3.93538">
        <ele>257</ele>
        <time>2021-09-12T12:29:55Z</time>
      </trkpt>
      <trkpt lat="48.37812" lon="-3.9353">
        <ele>256.79998779297</ele>
        <time>2021-09-12T12:29:56Z</time>
      </trkpt>
      <trkpt lat="48.37818" lon="-3.93523">
        <ele>256.60000610352</ele>
        <time>2021-09-12T12:29:57Z</time>
      </trkpt>
      <trkpt lat="48.37824" lon="-3.93516">
        <ele>256.20001220703</ele>
        <time>2021-09-12T12:29:58Z</time>
      </trkpt>
      <trkpt lat="48.3783" lon="-3.9351">
        <ele>256</ele>
        <time>2021-09-12T12:29:59Z</time>
      </trkpt>
      <trkpt lat="48.37836" lon="-3.93503">
        <ele>255.80000305176</ele>
        <time>2021-09-12T12:30:00Z</time>
      </trkpt>
      <trkpt lat="48.37841" lon="-3.93497">
        <ele>255.60000610352</ele>
        <time>2021-09-12T12:30:01Z</time>
      </trkpt>
      <trkpt lat="48.37847" lon="-3.9349">
        <ele>255.60000610352</ele>
        <time>2021-09-12T12:30:02Z</time>
      </trkpt>
      <trkpt lat="48.37852" lon="-3.93484">
        <ele>255.39999389648</ele>
        <time>2021-09-12T12:30:03Z</time>
      </trkpt>
      <trkpt lat="48.37857" lon="-3.93478">
        <ele>255.19999694824</ele>
        <time>2021-09-12T12:30:04Z</time>
      </trkpt>
      <trkpt lat="48.37862" lon="-3.93472">
        <ele>255.19999694824</ele>
        <time>2021-09-12T12:30:05Z</time>
      </trkpt>
      <trkpt lat="48.37867" lon="-3.93466">
        <ele>255.19999694824</ele>
        <time>2021-09-12T12:30:06Z</time>
      </trkpt>
      <trkpt lat="48.37872" lon="-3.9346">
        <ele>255.19999694824</ele>
        <time>2021-09-12T12:30:07Z</time>
      </trkpt>
      <trkpt lat="48.37877" lon="-3.93454">
        <ele>254.80000305176</ele>
        <time>2021-09-12T12:30:08Z</time>
      </trkpt>
      <trkpt lat="48.37881" lon="-3.93449">
        <ele>254.80000305176</ele>
        <time>2021-09-12T12:30:09Z</time>
      </trkpt>
      <trkpt lat="48.37887" lon="-3.93444">
        <ele>254.80000305176</ele>
        <time>2021-09-12T12:30:10Z</time>
      </trkpt>
      <trkpt lat="48.37893" lon="-3.93436">
        <ele>254.60000610352</ele>
        <time>2021-09-12T12:30:11Z</time>
      </trkpt>
      <trkpt lat="48.37898" lon="-3.9343">
        <ele>254.60000610352</ele>
        <time>2021-09-12T12:30:12Z</time>
      </trkpt>
      <trkpt lat="48.37903" lon="-3.93424">
        <ele>254.39999389648</ele>
        <time>2021-09-12T12:30:13Z</time>
      </trkpt>
      <trkpt lat="48.37907" lon="-3.93418">
        <ele>254.39999389648</ele>
        <time>2021-09-12T12:30:14Z</time>
      </trkpt>
      <trkpt lat="48.37912" lon="-3.93412">
        <ele>254.19999694824</ele>
        <time>2021-09-12T12:30:15Z</time>
      </trkpt>
      <trkpt lat="48.37919" lon="-3.93404">
        <ele>254.19999694824</ele>
        <time>2021-09-12T12:30:16Z</time>
      </trkpt>
      <trkpt lat="48.37924" lon="-3.93398">
        <ele>254.19999694824</ele>
        <time>2021-09-12T12:30:17Z</time>
      </trkpt>
      <trkpt lat="48.37929" lon="-3.93392">
        <ele>254.19999694824</ele>
        <time>2021-09-12T12:30:18Z</time>
      </trkpt>
      <trkpt lat="48.37933" lon="-3.93387">
        <ele>254</ele>
        <time>2021-09-12T12:30:19Z</time>
      </trkpt>
      <trkpt lat="48.37938" lon="-3.93381">
        <ele>254</ele>
        <time>2021-09-12T12:30:20Z</time>
      </trkpt>
      <trkpt lat="48.37944" lon="-3.93373">
        <ele>254.19999694824</ele>
        <time>2021-09-12T12:30:21Z</time>
      </trkpt>
      <trkpt lat="48.3795" lon="-3.93367">
        <ele>254</ele>
        <time>2021-09-12T12:30:22Z</time>
      </trkpt>
      <trkpt lat="48.37954" lon="-3.93362">
        <ele>254.19999694824</ele>
        <time>2021-09-12T12:30:23Z</time>
      </trkpt>
      <trkpt lat="48.37959" lon="-3.93356">
        <ele>254.19999694824</ele>
        <time>2021-09-12T12:30:24Z</time>
      </trkpt>
      <trkpt lat="48.37965" lon="-3.93349">
        <ele>254.19999694824</ele>
        <time>2021-09-12T12:30:25Z</time>
      </trkpt>
      <trkpt lat="48.3797" lon="-3.93343">
        <ele>254.19999694824</ele>
        <time>2021-09-12T12:30:26Z</time>
      </trkpt>
      <trkpt lat="48.37975" lon="-3.93337">
        <ele>254.19999694824</ele>
        <time>2021-09-12T12:30:27Z</time>
      </trkpt>
      <trkpt lat="48.3798" lon="-3.9333">
        <ele>254.19999694824</ele>
        <time>2021-09-12T12:30:28Z</time>
      </trkpt>
      <trkpt lat="48.37985" lon="-3.93324">
        <ele>254.19999694824</ele>
        <time>2021-09-12T12:30:29Z</time>
      </trkpt>
      <trkpt lat="48.3799" lon="-3.93318">
        <ele>254.19999694824</ele>
        <time>2021-09-12T12:30:30Z</time>
      </trkpt>
      <trkpt lat="48.37996" lon="-3.93312">
        <ele>254.19999694824</ele>
        <time>2021-09-12T12:30:31Z</time>
      </trkpt>
      <trkpt lat="48.38001" lon="-3.93306">
        <ele>254.19999694824</ele>
        <time>2021-09-12T12:30:32Z</time>
      </trkpt>
      <trkpt lat="48.38006" lon="-3.93301">
        <ele>254.19999694824</ele>
        <time>2021-09-12T12:30:33Z</time>
      </trkpt>
      <trkpt lat="48.38011" lon="-3.93295">
        <ele>254.19999694824</ele>
        <time>2021-09-12T12:30:34Z</time>
      </trkpt>
      <trkpt lat="48.38016" lon="-3.93289">
        <ele>254.19999694824</ele>
        <time>2021-09-12T12:30:35Z</time>
      </trkpt>
      <trkpt lat="48.38021" lon="-3.93283">
        <ele>254.39999389648</ele>
        <time>2021-09-12T12:30:36Z</time>
      </trkpt>
      <trkpt lat="48.38025" lon="-3.93277">
        <ele>254.60000610352</ele>
        <time>2021-09-12T12:30:37Z</time>
      </trkpt>
      <trkpt lat="48.3803" lon="-3.93271">
        <ele>254.60000610352</ele>
        <time>2021-09-12T12:30:38Z</time>
      </trkpt>
      <trkpt lat="48.38034" lon="-3.93267">
        <ele>254.60000610352</ele>
        <time>2021-09-12T12:30:39Z</time>
      </trkpt>
      <trkpt lat="48.3804" lon="-3.9326">
        <ele>254.60000610352</ele>
        <time>2021-09-12T12:30:40Z</time>
      </trkpt>
      <trkpt lat="48.38044" lon="-3.93255">
        <ele>254.60000610352</ele>
        <time>2021-09-12T12:30:41Z</time>
      </trkpt>
      <trkpt lat="48.38049" lon="-3.93249">
        <ele>254.80000305176</ele>
        <time>2021-09-12T12:30:42Z</time>
      </trkpt>
      <trkpt lat="48.38053" lon="-3.93244">
        <ele>255</ele>
        <time>2021-09-12T12:30:43Z</time>
      </trkpt>
      <trkpt lat="48.38057" lon="-3.93238">
        <ele>255.19999694824</ele>
        <time>2021-09-12T12:30:44Z</time>
      </trkpt>
      <trkpt lat="48.3806" lon="-3.93233">
        <ele>255.19999694824</ele>
        <time>2021-09-12T12:30:45Z</time>
      </trkpt>
      <trkpt lat="48.38065" lon="-3.93225">
        <ele>255.39999389648</ele>
        <time>2021-09-12T12:30:46Z</time>
      </trkpt>
      <trkpt lat="48.38068" lon="-3.93219">
        <ele>255.60000610352</ele>
        <time>2021-09-12T12:30:47Z</time>
      </trkpt>
      <trkpt lat="48.3807" lon="-3.93213">
        <ele>255.60000610352</ele>
        <time>2021-09-12T12:30:48Z</time>
      </trkpt>
      <trkpt lat="48.38072" lon="-3.93206">
        <ele>255.80000305176</ele>
        <time>2021-09-12T12:30:49Z</time>
      </trkpt>
      <trkpt lat="48.38074" lon="-3.93198">
        <ele>255.80000305176</ele>
        <time>2021-09-12T12:30:50Z</time>
      </trkpt>
      <trkpt lat="48.38075" lon="-3.93191">
        <ele>256</ele>
        <time>2021-09-12T12:30:51Z</time>
      </trkpt>
      <trkpt lat="48.38077" lon="-3.93184">
        <ele>256</ele>
        <time>2021-09-12T12:30:52Z</time>
      </trkpt>
      <trkpt lat="48.38079" lon="-3.93177">
        <ele>256</ele>
        <time>2021-09-12T12:30:53Z</time>
      </trkpt>
      <trkpt lat="48.38081" lon="-3.93171">
        <ele>256</ele>
        <time>2021-09-12T12:30:54Z</time>
      </trkpt>
      <trkpt lat="48.38082" lon="-3.93164">
        <ele>256</ele>
        <time>2021-09-12T12:30:55Z</time>
      </trkpt>
      <trkpt lat="48.38084" lon="-3.93156">
        <ele>256</ele>
        <time>2021-09-12T12:30:56Z</time>
      </trkpt>
      <trkpt lat="48.38085" lon="-3.93149">
        <ele>256</ele>
        <time>2021-09-12T12:30:57Z</time>
      </trkpt>
      <trkpt lat="48.38087" lon="-3.93141">
        <ele>256</ele>
        <time>2021-09-12T12:30:58Z</time>
      </trkpt>
      <trkpt lat="48.38088" lon="-3.93134">
        <ele>256</ele>
        <time>2021-09-12T12:30:59Z</time>
      </trkpt>
      <trkpt lat="48.3809" lon="-3.93127">
        <ele>256</ele>
        <time>2021-09-12T12:31:00Z</time>
      </trkpt>
      <trkpt lat="48.38093" lon="-3.93119">
        <ele>256</ele>
        <time>2021-09-12T12:31:01Z</time>
      </trkpt>
      <trkpt lat="48.38094" lon="-3.93112">
        <ele>256</ele>
        <time>2021-09-12T12:31:02Z</time>
      </trkpt>
      <trkpt lat="48.38097" lon="-3.93105">
        <ele>256</ele>
        <time>2021-09-12T12:31:03Z</time>
      </trkpt>
      <trkpt lat="48.38099" lon="-3.93097">
        <ele>256</ele>
        <time>2021-09-12T12:31:04Z</time>
      </trkpt>
      <trkpt lat="48.38102" lon="-3.93091">
        <ele>256</ele>
        <time>2021-09-12T12:31:05Z</time>
      </trkpt>
      <trkpt lat="48.38106" lon="-3.93083">
        <ele>256</ele>
        <time>2021-09-12T12:31:06Z</time>
      </trkpt>
      <trkpt lat="48.3811" lon="-3.93076">
        <ele>256</ele>
        <time>2021-09-12T12:31:07Z</time>
      </trkpt>
      <trkpt lat="48.38113" lon="-3.93069">
        <ele>256</ele>
        <time>2021-09-12T12:31:08Z</time>
      </trkpt>
      <trkpt lat="48.38116" lon="-3.93062">
        <ele>256</ele>
        <time>2021-09-12T12:31:09Z</time>
      </trkpt>
      <trkpt lat="48.38119" lon="-3.93054">
        <ele>256</ele>
        <time>2021-09-12T12:31:10Z</time>
      </trkpt>
      <trkpt lat="48.38123" lon="-3.93047">
        <ele>256</ele>
        <time>2021-09-12T12:31:11Z</time>
      </trkpt>
      <trkpt lat="48.38126" lon="-3.9304">
        <ele>256.20001220703</ele>
        <time>2021-09-12T12:31:12Z</time>
      </trkpt>
      <trkpt lat="48.3813" lon="-3.93033">
        <ele>256.60000610352</ele>
        <time>2021-09-12T12:31:13Z</time>
      </trkpt>
      <trkpt lat="48.38132" lon="-3.93027">
        <ele>256.60000610352</ele>
        <time>2021-09-12T12:31:14Z</time>
      </trkpt>
      <trkpt lat="48.38134" lon="-3.9302">
        <ele>256.60000610352</ele>
        <time>2021-09-12T12:31:15Z</time>
      </trkpt>
      <trkpt lat="48.38137" lon="-3.93011">
        <ele>256.79998779297</ele>
        <time>2021-09-12T12:31:16Z</time>
      </trkpt>
      <trkpt lat="48.3814" lon="-3.93004">
        <ele>256.79998779297</ele>
        <time>2021-09-12T12:31:17Z</time>
      </trkpt>
      <trkpt lat="48.38143" lon="-3.92998">
        <ele>256.79998779297</ele>
        <time>2021-09-12T12:31:18Z</time>
      </trkpt>
      <trkpt lat="48.38146" lon="-3.92992">
        <ele>256.79998779297</ele>
        <time>2021-09-12T12:31:19Z</time>
      </trkpt>
      <trkpt lat="48.3815" lon="-3.92986">
        <ele>257</ele>
        <time>2021-09-12T12:31:20Z</time>
      </trkpt>
      <trkpt lat="48.38153" lon="-3.9298">
        <ele>257</ele>
        <time>2021-09-12T12:31:21Z</time>
      </trkpt>
      <trkpt lat="48.38157" lon="-3.92974">
        <ele>257</ele>
        <time>2021-09-12T12:31:22Z</time>
      </trkpt>
      <trkpt lat="48.38162" lon="-3.92968">
        <ele>257</ele>
        <time>2021-09-12T12:31:23Z</time>
      </trkpt>
      <trkpt lat="48.38166" lon="-3.92964">
        <ele>257.20001220703</ele>
        <time>2021-09-12T12:31:24Z</time>
      </trkpt>
      <trkpt lat="48.38172" lon="-3.92959">
        <ele>257.20001220703</ele>
        <time>2021-09-12T12:31:25Z</time>
      </trkpt>
      <trkpt lat="48.38176" lon="-3.92955">
        <ele>257.20001220703</ele>
        <time>2021-09-12T12:31:26Z</time>
      </trkpt>
      <trkpt lat="48.3818" lon="-3.9295">
        <ele>257.20001220703</ele>
        <time>2021-09-12T12:31:27Z</time>
      </trkpt>
      <trkpt lat="48.38184" lon="-3.92944">
        <ele>257.20001220703</ele>
        <time>2021-09-12T12:31:28Z</time>
      </trkpt>
      <trkpt lat="48.38188" lon="-3.92939">
        <ele>257.20001220703</ele>
        <time>2021-09-12T12:31:29Z</time>
      </trkpt>
      <trkpt lat="48.38192" lon="-3.92933">
        <ele>257.39999389648</ele>
        <time>2021-09-12T12:31:30Z</time>
      </trkpt>
      <trkpt lat="48.38195" lon="-3.92928">
        <ele>257.39999389648</ele>
        <time>2021-09-12T12:31:31Z</time>
      </trkpt>
      <trkpt lat="48.38198" lon="-3.92922">
        <ele>257.60000610352</ele>
        <time>2021-09-12T12:31:32Z</time>
      </trkpt>
      <trkpt lat="48.38201" lon="-3.92916">
        <ele>257.60000610352</ele>
        <time>2021-09-12T12:31:33Z</time>
      </trkpt>
      <trkpt lat="48.38204" lon="-3.9291">
        <ele>257.79998779297</ele>
        <time>2021-09-12T12:31:34Z</time>
      </trkpt>
      <trkpt lat="48.38207" lon="-3.92906">
        <ele>258.20001220703</ele>
        <time>2021-09-12T12:31:35Z</time>
      </trkpt>
      <trkpt lat="48.3821" lon="-3.92901">
        <ele>258.39999389648</ele>
        <time>2021-09-12T12:31:36Z</time>
      </trkpt>
      <trkpt lat="48.38213" lon="-3.92898">
        <ele>258.39999389648</ele>
        <time>2021-09-12T12:31:37Z</time>
      </trkpt>
      <trkpt lat="48.38216" lon="-3.92894">
        <ele>258.79998779297</ele>
        <time>2021-09-12T12:31:38Z</time>
      </trkpt>
      <trkpt lat="48.38218" lon="-3.92889">
        <ele>259</ele>
        <time>2021-09-12T12:31:39Z</time>
      </trkpt>
      <trkpt lat="48.38221" lon="-3.92885">
        <ele>259.20001220703</ele>
        <time>2021-09-12T12:31:40Z</time>
      </trkpt>
      <trkpt lat="48.38223" lon="-3.92881">
        <ele>259.60000610352</ele>
        <time>2021-09-12T12:31:41Z</time>
      </trkpt>
      <trkpt lat="48.38225" lon="-3.92877">
        <ele>259.60000610352</ele>
        <time>2021-09-12T12:31:42Z</time>
      </trkpt>
      <trkpt lat="48.38227" lon="-3.92874">
        <ele>259.79998779297</ele>
        <time>2021-09-12T12:31:43Z</time>
      </trkpt>
      <trkpt lat="48.38229" lon="-3.9287">
        <ele>260</ele>
        <time>2021-09-12T12:31:44Z</time>
      </trkpt>
      <trkpt lat="48.38231" lon="-3.92866">
        <ele>260.20001220703</ele>
        <time>2021-09-12T12:31:45Z</time>
      </trkpt>
      <trkpt lat="48.38233" lon="-3.92861">
        <ele>260.20001220703</ele>
        <time>2021-09-12T12:31:46Z</time>
      </trkpt>
      <trkpt lat="48.38235" lon="-3.92856">
        <ele>260.20001220703</ele>
        <time>2021-09-12T12:31:47Z</time>
      </trkpt>
      <trkpt lat="48.38237" lon="-3.92852">
        <ele>260.20001220703</ele>
        <time>2021-09-12T12:31:48Z</time>
      </trkpt>
      <trkpt lat="48.38239" lon="-3.92847">
        <ele>260.20001220703</ele>
        <time>2021-09-12T12:31:49Z</time>
      </trkpt>
      <trkpt lat="48.38242" lon="-3.92842">
        <ele>260</ele>
        <time>2021-09-12T12:31:50Z</time>
      </trkpt>
      <trkpt lat="48.38245" lon="-3.92839">
        <ele>260</ele>
        <time>2021-09-12T12:31:51Z</time>
      </trkpt>
      <trkpt lat="48.38248" lon="-3.92836">
        <ele>260</ele>
        <time>2021-09-12T12:31:52Z</time>
      </trkpt>
      <trkpt lat="48.38252" lon="-3.92835">
        <ele>259.79998779297</ele>
        <time>2021-09-12T12:31:53Z</time>
      </trkpt>
      <trkpt lat="48.38256" lon="-3.92835">
        <ele>259.79998779297</ele>
        <time>2021-09-12T12:31:54Z</time>
      </trkpt>
      <trkpt lat="48.38259" lon="-3.92836">
        <ele>259.79998779297</ele>
        <time>2021-09-12T12:31:55Z</time>
      </trkpt>
      <trkpt lat="48.38263" lon="-3.92837">
        <ele>259.79998779297</ele>
        <time>2021-09-12T12:31:56Z</time>
      </trkpt>
      <trkpt lat="48.38266" lon="-3.92838">
        <ele>260</ele>
        <time>2021-09-12T12:31:57Z</time>
      </trkpt>
      <trkpt lat="48.38269" lon="-3.92841">
        <ele>260</ele>
        <time>2021-09-12T12:31:58Z</time>
      </trkpt>
      <trkpt lat="48.38273" lon="-3.92844">
        <ele>260</ele>
        <time>2021-09-12T12:31:59Z</time>
      </trkpt>
      <trkpt lat="48.38276" lon="-3.92846">
        <ele>260.20001220703</ele>
        <time>2021-09-12T12:32:00Z</time>
      </trkpt>
      <trkpt lat="48.3828" lon="-3.92849">
        <ele>260.39999389648</ele>
        <time>2021-09-12T12:32:01Z</time>
      </trkpt>
      <trkpt lat="48.38283" lon="-3.92852">
        <ele>260.39999389648</ele>
        <time>2021-09-12T12:32:02Z</time>
      </trkpt>
      <trkpt lat="48.38287" lon="-3.92854">
        <ele>260.60000610352</ele>
        <time>2021-09-12T12:32:03Z</time>
      </trkpt>
      <trkpt lat="48.38291" lon="-3.92856">
        <ele>260.60000610352</ele>
        <time>2021-09-12T12:32:04Z</time>
      </trkpt>
      <trkpt lat="48.38294" lon="-3.92858">
        <ele>261</ele>
        <time>2021-09-12T12:32:05Z</time>
      </trkpt>
      <trkpt lat="48.38298" lon="-3.92861">
        <ele>261</ele>
        <time>2021-09-12T12:32:06Z</time>
      </trkpt>
      <trkpt lat="48.38302" lon="-3.92864">
        <ele>261.20001220703</ele>
        <time>2021-09-12T12:32:07Z</time>
      </trkpt>
      <trkpt lat="48.38305" lon="-3.92866">
        <ele>261.20001220703</ele>
        <time>2021-09-12T12:32:08Z</time>
      </trkpt>
      <trkpt lat="48.38309" lon="-3.92869">
        <ele>261.39999389648</ele>
        <time>2021-09-12T12:32:09Z</time>
      </trkpt>
      <trkpt lat="48.38312" lon="-3.92871">
        <ele>261.60000610352</ele>
        <time>2021-09-12T12:32:10Z</time>
      </trkpt>
      <trkpt lat="48.38315" lon="-3.92874">
        <ele>261.60000610352</ele>
        <time>2021-09-12T12:32:11Z</time>
      </trkpt>
      <trkpt lat="48.38318" lon="-3.92876">
        <ele>262</ele>
        <time>2021-09-12T12:32:12Z</time>
      </trkpt>
      <trkpt lat="48.38321" lon="-3.92878">
        <ele>262</ele>
        <time>2021-09-12T12:32:13Z</time>
      </trkpt>
      <trkpt lat="48.38325" lon="-3.9288">
        <ele>262</ele>
        <time>2021-09-12T12:32:14Z</time>
      </trkpt>
      <trkpt lat="48.38329" lon="-3.92883">
        <ele>262.39999389648</ele>
        <time>2021-09-12T12:32:15Z</time>
      </trkpt>
      <trkpt lat="48.38333" lon="-3.92886">
        <ele>262.39999389648</ele>
        <time>2021-09-12T12:32:16Z</time>
      </trkpt>
      <trkpt lat="48.38337" lon="-3.92888">
        <ele>262.39999389648</ele>
        <time>2021-09-12T12:32:17Z</time>
      </trkpt>
      <trkpt lat="48.38341" lon="-3.9289">
        <ele>262.60000610352</ele>
        <time>2021-09-12T12:32:18Z</time>
      </trkpt>
      <trkpt lat="48.38345" lon="-3.92891">
        <ele>262.60000610352</ele>
        <time>2021-09-12T12:32:19Z</time>
      </trkpt>
      <trkpt lat="48.38349" lon="-3.92889">
        <ele>262.60000610352</ele>
        <time>2021-09-12T12:32:20Z</time>
      </trkpt>
      <trkpt lat="48.38351" lon="-3.92886">
        <ele>263.39999389648</ele>
        <time>2021-09-12T12:32:21Z</time>
      </trkpt>
      <trkpt lat="48.38352" lon="-3.92881">
        <ele>263.60000610352</ele>
        <time>2021-09-12T12:32:22Z</time>
      </trkpt>
      <trkpt lat="48.38353" lon="-3.92876">
        <ele>263.60000610352</ele>
        <time>2021-09-12T12:32:23Z</time>
      </trkpt>
      <trkpt lat="48.38353" lon="-3.9287">
        <ele>263.60000610352</ele>
        <time>2021-09-12T12:32:24Z</time>
      </trkpt>
      <trkpt lat="48.38353" lon="-3.92864">
        <ele>263.60000610352</ele>
        <time>2021-09-12T12:32:25Z</time>
      </trkpt>
      <trkpt lat="48.38353" lon="-3.92858">
        <ele>263.60000610352</ele>
        <time>2021-09-12T12:32:26Z</time>
      </trkpt>
      <trkpt lat="48.38353" lon="-3.92852">
        <ele>263.60000610352</ele>
        <time>2021-09-12T12:32:27Z</time>
      </trkpt>
      <trkpt lat="48.38353" lon="-3.92845">
        <ele>263.60000610352</ele>
        <time>2021-09-12T12:32:28Z</time>
      </trkpt>
      <trkpt lat="48.38353" lon="-3.92839">
        <ele>263.39999389648</ele>
        <time>2021-09-12T12:32:29Z</time>
      </trkpt>
      <trkpt lat="48.38353" lon="-3.92832">
        <ele>263.20001220703</ele>
        <time>2021-09-12T12:32:30Z</time>
      </trkpt>
      <trkpt lat="48.38353" lon="-3.92826">
        <ele>263</ele>
        <time>2021-09-12T12:32:31Z</time>
      </trkpt>
      <trkpt lat="48.38353" lon="-3.92818">
        <ele>263</ele>
        <time>2021-09-12T12:32:32Z</time>
      </trkpt>
      <trkpt lat="48.38353" lon="-3.92811">
        <ele>263</ele>
        <time>2021-09-12T12:32:33Z</time>
      </trkpt>
      <trkpt lat="48.38353" lon="-3.92804">
        <ele>262.39999389648</ele>
        <time>2021-09-12T12:32:34Z</time>
      </trkpt>
      <trkpt lat="48.38353" lon="-3.92797">
        <ele>262.20001220703</ele>
        <time>2021-09-12T12:32:35Z</time>
      </trkpt>
      <trkpt lat="48.38352" lon="-3.92789">
        <ele>262.20001220703</ele>
        <time>2021-09-12T12:32:36Z</time>
      </trkpt>
      <trkpt lat="48.38352" lon="-3.92782">
        <ele>262.20001220703</ele>
        <time>2021-09-12T12:32:37Z</time>
      </trkpt>
      <trkpt lat="48.38352" lon="-3.92775">
        <ele>262.20001220703</ele>
        <time>2021-09-12T12:32:38Z</time>
      </trkpt>
      <trkpt lat="48.38352" lon="-3.92765">
        <ele>262</ele>
        <time>2021-09-12T12:32:39Z</time>
      </trkpt>
      <trkpt lat="48.38352" lon="-3.92757">
        <ele>261.79998779297</ele>
        <time>2021-09-12T12:32:40Z</time>
      </trkpt>
      <trkpt lat="48.38352" lon="-3.92748">
        <ele>261.60000610352</ele>
        <time>2021-09-12T12:32:41Z</time>
      </trkpt>
      <trkpt lat="48.38352" lon="-3.92741">
        <ele>261.60000610352</ele>
        <time>2021-09-12T12:32:42Z</time>
      </trkpt>
      <trkpt lat="48.38352" lon="-3.92731">
        <ele>261.20001220703</ele>
        <time>2021-09-12T12:32:43Z</time>
      </trkpt>
      <trkpt lat="48.38352" lon="-3.92722">
        <ele>261</ele>
        <time>2021-09-12T12:32:44Z</time>
      </trkpt>
      <trkpt lat="48.38352" lon="-3.92713">
        <ele>260.60000610352</ele>
        <time>2021-09-12T12:32:45Z</time>
      </trkpt>
      <trkpt lat="48.38351" lon="-3.92703">
        <ele>260.39999389648</ele>
        <time>2021-09-12T12:32:46Z</time>
      </trkpt>
      <trkpt lat="48.38351" lon="-3.92693">
        <ele>260.39999389648</ele>
        <time>2021-09-12T12:32:47Z</time>
      </trkpt>
      <trkpt lat="48.38351" lon="-3.92684">
        <ele>260.20001220703</ele>
        <time>2021-09-12T12:32:48Z</time>
      </trkpt>
      <trkpt lat="48.38351" lon="-3.92672">
        <ele>259.79998779297</ele>
        <time>2021-09-12T12:32:49Z</time>
      </trkpt>
      <trkpt lat="48.3835" lon="-3.92664">
        <ele>259.79998779297</ele>
        <time>2021-09-12T12:32:50Z</time>
      </trkpt>
      <trkpt lat="48.3835" lon="-3.92655">
        <ele>259.79998779297</ele>
        <time>2021-09-12T12:32:51Z</time>
      </trkpt>
      <trkpt lat="48.3835" lon="-3.92645">
        <ele>259.20001220703</ele>
        <time>2021-09-12T12:32:52Z</time>
      </trkpt>
      <trkpt lat="48.3835" lon="-3.92632">
        <ele>258.79998779297</ele>
        <time>2021-09-12T12:32:53Z</time>
      </trkpt>
      <trkpt lat="48.3835" lon="-3.92624">
        <ele>258.79998779297</ele>
        <time>2021-09-12T12:32:54Z</time>
      </trkpt>
      <trkpt lat="48.3835" lon="-3.92613">
        <ele>258.39999389648</ele>
        <time>2021-09-12T12:32:55Z</time>
      </trkpt>
      <trkpt lat="48.3835" lon="-3.92602">
        <ele>258.20001220703</ele>
        <time>2021-09-12T12:32:56Z</time>
      </trkpt>
      <trkpt lat="48.38349" lon="-3.92592">
        <ele>258</ele>
        <time>2021-09-12T12:32:57Z</time>
      </trkpt>
      <trkpt lat="48.38349" lon="-3.92581">
        <ele>257.79998779297</ele>
        <time>2021-09-12T12:32:58Z</time>
      </trkpt>
      <trkpt lat="48.38348" lon="-3.9257">
        <ele>257.60000610352</ele>
        <time>2021-09-12T12:32:59Z</time>
      </trkpt>
      <trkpt lat="48.38348" lon="-3.92558">
        <ele>257.39999389648</ele>
        <time>2021-09-12T12:33:00Z</time>
      </trkpt>
      <trkpt lat="48.38348" lon="-3.92547">
        <ele>257.20001220703</ele>
        <time>2021-09-12T12:33:01Z</time>
      </trkpt>
      <trkpt lat="48.38348" lon="-3.92539">
        <ele>257</ele>
        <time>2021-09-12T12:33:02Z</time>
      </trkpt>
      <trkpt lat="48.38348" lon="-3.92529">
        <ele>256.79998779297</ele>
        <time>2021-09-12T12:33:03Z</time>
      </trkpt>
      <trkpt lat="48.38348" lon="-3.92519">
        <ele>256.79998779297</ele>
        <time>2021-09-12T12:33:04Z</time>
      </trkpt>
      <trkpt lat="48.38348" lon="-3.92509">
        <ele>256.79998779297</ele>
        <time>2021-09-12T12:33:05Z</time>
      </trkpt>
      <trkpt lat="48.38349" lon="-3.92499">
        <ele>256.79998779297</ele>
        <time>2021-09-12T12:33:06Z</time>
      </trkpt>
      <trkpt lat="48.38349" lon="-3.92488">
        <ele>256.60000610352</ele>
        <time>2021-09-12T12:33:07Z</time>
      </trkpt>
      <trkpt lat="48.38349" lon="-3.9248">
        <ele>256.60000610352</ele>
        <time>2021-09-12T12:33:08Z</time>
      </trkpt>
      <trkpt lat="48.3835" lon="-3.92471">
        <ele>256.60000610352</ele>
        <time>2021-09-12T12:33:09Z</time>
      </trkpt>
      <trkpt lat="48.3835" lon="-3.9246">
        <ele>256.60000610352</ele>
        <time>2021-09-12T12:33:10Z</time>
      </trkpt>
      <trkpt lat="48.3835" lon="-3.9245">
        <ele>256.60000610352</ele>
        <time>2021-09-12T12:33:11Z</time>
      </trkpt>
      <trkpt lat="48.3835" lon="-3.92441">
        <ele>256.60000610352</ele>
        <time>2021-09-12T12:33:12Z</time>
      </trkpt>
      <trkpt lat="48.3835" lon="-3.92433">
        <ele>256.60000610352</ele>
        <time>2021-09-12T12:33:13Z</time>
      </trkpt>
      <trkpt lat="48.38351" lon="-3.92421">
        <ele>256.39999389648</ele>
        <time>2021-09-12T12:33:14Z</time>
      </trkpt>
      <trkpt lat="48.3835" lon="-3.92412">
        <ele>256.39999389648</ele>
        <time>2021-09-12T12:33:15Z</time>
      </trkpt>
      <trkpt lat="48.3835" lon="-3.92402">
        <ele>256.39999389648</ele>
        <time>2021-09-12T12:33:16Z</time>
      </trkpt>
      <trkpt lat="48.3835" lon="-3.92393">
        <ele>256.39999389648</ele>
        <time>2021-09-12T12:33:17Z</time>
      </trkpt>
      <trkpt lat="48.38349" lon="-3.92383">
        <ele>256.60000610352</ele>
        <time>2021-09-12T12:33:18Z</time>
      </trkpt>
      <trkpt lat="48.38349" lon="-3.92374">
        <ele>256.60000610352</ele>
        <time>2021-09-12T12:33:19Z</time>
      </trkpt>
      <trkpt lat="48.38348" lon="-3.92365">
        <ele>256.79998779297</ele>
        <time>2021-09-12T12:33:20Z</time>
      </trkpt>
      <trkpt lat="48.38348" lon="-3.92356">
        <ele>256.79998779297</ele>
        <time>2021-09-12T12:33:21Z</time>
      </trkpt>
      <trkpt lat="48.38348" lon="-3.92347">
        <ele>256.79998779297</ele>
        <time>2021-09-12T12:33:22Z</time>
      </trkpt>
      <trkpt lat="48.38347" lon="-3.92339">
        <ele>256.79998779297</ele>
        <time>2021-09-12T12:33:23Z</time>
      </trkpt>
      <trkpt lat="48.38346" lon="-3.92333">
        <ele>256.79998779297</ele>
        <time>2021-09-12T12:33:24Z</time>
      </trkpt>
      <trkpt lat="48.38343" lon="-3.92328">
        <ele>256.79998779297</ele>
        <time>2021-09-12T12:33:25Z</time>
      </trkpt>
      <trkpt lat="48.38341" lon="-3.92326">
        <ele>256.79998779297</ele>
        <time>2021-09-12T12:33:26Z</time>
      </trkpt>
      <trkpt lat="48.38339" lon="-3.92323">
        <ele>256.79998779297</ele>
        <time>2021-09-12T12:33:27Z</time>
      </trkpt>
      <trkpt lat="48.38337" lon="-3.9232">
        <ele>256.79998779297</ele>
        <time>2021-09-12T12:33:28Z</time>
      </trkpt>
      <trkpt lat="48.38335" lon="-3.92316">
        <ele>256.79998779297</ele>
        <time>2021-09-12T12:33:29Z</time>
      </trkpt>
      <trkpt lat="48.38334" lon="-3.92313">
        <ele>256.60000610352</ele>
        <time>2021-09-12T12:33:30Z</time>
      </trkpt>
      <trkpt lat="48.38334" lon="-3.9231">
        <ele>256.60000610352</ele>
        <time>2021-09-12T12:33:31Z</time>
      </trkpt>
      <trkpt lat="48.38333" lon="-3.92307">
        <ele>256.60000610352</ele>
        <time>2021-09-12T12:33:32Z</time>
      </trkpt>
      <trkpt lat="48.38333" lon="-3.92305">
        <ele>256.39999389648</ele>
        <time>2021-09-12T12:33:33Z</time>
      </trkpt>
      <trkpt lat="48.38332" lon="-3.92303">
        <ele>256.39999389648</ele>
        <time>2021-09-12T12:33:34Z</time>
      </trkpt>
      <trkpt lat="48.38332" lon="-3.92303">
        <ele>256.39999389648</ele>
        <time>2021-09-12T12:33:35Z</time>
      </trkpt>
      <trkpt lat="48.38332" lon="-3.92303">
        <ele>256.20001220703</ele>
        <time>2021-09-12T12:33:36Z</time>
      </trkpt>
      <trkpt lat="48.38332" lon="-3.92303">
        <ele>256.20001220703</ele>
        <time>2021-09-12T12:33:37Z</time>
      </trkpt>
      <trkpt lat="48.38331" lon="-3.92264">
        <ele>256.20001220703</ele>
        <time>2021-09-12T12:44:47Z</time>
      </trkpt>
      <trkpt lat="48.3833" lon="-3.92259">
        <ele>256.20001220703</ele>
        <time>2021-09-12T12:44:48Z</time>
      </trkpt>
      <trkpt lat="48.3833" lon="-3.92256">
        <ele>256.20001220703</ele>
        <time>2021-09-12T12:44:49Z</time>
      </trkpt>
      <trkpt lat="48.38329" lon="-3.9225">
        <ele>256.20001220703</ele>
        <time>2021-09-12T12:44:50Z</time>
      </trkpt>
      <trkpt lat="48.38329" lon="-3.92245">
        <ele>256.20001220703</ele>
        <time>2021-09-12T12:44:51Z</time>
      </trkpt>
      <trkpt lat="48.38329" lon="-3.9224">
        <ele>256.20001220703</ele>
        <time>2021-09-12T12:44:52Z</time>
      </trkpt>
      <trkpt lat="48.3833" lon="-3.92236">
        <ele>256.79998779297</ele>
        <time>2021-09-12T12:44:53Z</time>
      </trkpt>
      <trkpt lat="48.38331" lon="-3.92232">
        <ele>257.20001220703</ele>
        <time>2021-09-12T12:44:54Z</time>
      </trkpt>
      <trkpt lat="48.38332" lon="-3.92229">
        <ele>257.20001220703</ele>
        <time>2021-09-12T12:44:55Z</time>
      </trkpt>
      <trkpt lat="48.38333" lon="-3.92225">
        <ele>257.39999389648</ele>
        <time>2021-09-12T12:44:56Z</time>
      </trkpt>
      <trkpt lat="48.38334" lon="-3.92222">
        <ele>257.60000610352</ele>
        <time>2021-09-12T12:44:57Z</time>
      </trkpt>
      <trkpt lat="48.38335" lon="-3.92218">
        <ele>257.60000610352</ele>
        <time>2021-09-12T12:44:58Z</time>
      </trkpt>
      <trkpt lat="48.38336" lon="-3.92213">
        <ele>257.60000610352</ele>
        <time>2021-09-12T12:44:59Z</time>
      </trkpt>
      <trkpt lat="48.38337" lon="-3.92208">
        <ele>257.60000610352</ele>
        <time>2021-09-12T12:45:00Z</time>
      </trkpt>
      <trkpt lat="48.38338" lon="-3.92203">
        <ele>257.79998779297</ele>
        <time>2021-09-12T12:45:01Z</time>
      </trkpt>
      <trkpt lat="48.38339" lon="-3.92198">
        <ele>257.79998779297</ele>
        <time>2021-09-12T12:45:02Z</time>
      </trkpt>
      <trkpt lat="48.38341" lon="-3.92193">
        <ele>257.79998779297</ele>
        <time>2021-09-12T12:45:03Z</time>
      </trkpt>
      <trkpt lat="48.38342" lon="-3.92188">
        <ele>258</ele>
        <time>2021-09-12T12:45:04Z</time>
      </trkpt>
      <trkpt lat="48.38344" lon="-3.92183">
        <ele>258</ele>
        <time>2021-09-12T12:45:05Z</time>
      </trkpt>
      <trkpt lat="48.38345" lon="-3.92179">
        <ele>258</ele>
        <time>2021-09-12T12:45:06Z</time>
      </trkpt>
      <trkpt lat="48.38347" lon="-3.92174">
        <ele>258</ele>
        <time>2021-09-12T12:45:07Z</time>
      </trkpt>
      <trkpt lat="48.38348" lon="-3.92169">
        <ele>258.20001220703</ele>
        <time>2021-09-12T12:45:08Z</time>
      </trkpt>
      <trkpt lat="48.3835" lon="-3.92164">
        <ele>258.20001220703</ele>
        <time>2021-09-12T12:45:09Z</time>
      </trkpt>
      <trkpt lat="48.38352" lon="-3.9216">
        <ele>258.20001220703</ele>
        <time>2021-09-12T12:45:10Z</time>
      </trkpt>
      <trkpt lat="48.38353" lon="-3.92155">
        <ele>258.20001220703</ele>
        <time>2021-09-12T12:45:11Z</time>
      </trkpt>
      <trkpt lat="48.38355" lon="-3.92149">
        <ele>258.39999389648</ele>
        <time>2021-09-12T12:45:12Z</time>
      </trkpt>
      <trkpt lat="48.38356" lon="-3.92144">
        <ele>258.39999389648</ele>
        <time>2021-09-12T12:45:13Z</time>
      </trkpt>
      <trkpt lat="48.38358" lon="-3.92138">
        <ele>258.20001220703</ele>
        <time>2021-09-12T12:45:14Z</time>
      </trkpt>
      <trkpt lat="48.38359" lon="-3.92132">
        <ele>258.39999389648</ele>
        <time>2021-09-12T12:45:15Z</time>
      </trkpt>
      <trkpt lat="48.3836" lon="-3.92125">
        <ele>258.39999389648</ele>
        <time>2021-09-12T12:45:16Z</time>
      </trkpt>
      <trkpt lat="48.3836" lon="-3.92119">
        <ele>258.39999389648</ele>
        <time>2021-09-12T12:45:17Z</time>
      </trkpt>
      <trkpt lat="48.38361" lon="-3.92112">
        <ele>258</ele>
        <time>2021-09-12T12:45:18Z</time>
      </trkpt>
      <trkpt lat="48.38361" lon="-3.92105">
        <ele>258</ele>
        <time>2021-09-12T12:45:19Z</time>
      </trkpt>
      <trkpt lat="48.3836" lon="-3.92098">
        <ele>258.20001220703</ele>
        <time>2021-09-12T12:45:20Z</time>
      </trkpt>
      <trkpt lat="48.3836" lon="-3.92091">
        <ele>258.20001220703</ele>
        <time>2021-09-12T12:45:21Z</time>
      </trkpt>
      <trkpt lat="48.38359" lon="-3.92085">
        <ele>258</ele>
        <time>2021-09-12T12:45:22Z</time>
      </trkpt>
      <trkpt lat="48.38357" lon="-3.92078">
        <ele>258</ele>
        <time>2021-09-12T12:45:23Z</time>
      </trkpt>
      <trkpt lat="48.38356" lon="-3.92071">
        <ele>258.20001220703</ele>
        <time>2021-09-12T12:45:24Z</time>
      </trkpt>
      <trkpt lat="48.38355" lon="-3.92064">
        <ele>258.20001220703</ele>
        <time>2021-09-12T12:45:25Z</time>
      </trkpt>
      <trkpt lat="48.38354" lon="-3.92058">
        <ele>258.20001220703</ele>
        <time>2021-09-12T12:45:26Z</time>
      </trkpt>
      <trkpt lat="48.38353" lon="-3.92051">
        <ele>258.20001220703</ele>
        <time>2021-09-12T12:45:27Z</time>
      </trkpt>
      <trkpt lat="48.38351" lon="-3.92045">
        <ele>258.20001220703</ele>
        <time>2021-09-12T12:45:28Z</time>
      </trkpt>
      <trkpt lat="48.3835" lon="-3.92039">
        <ele>258.39999389648</ele>
        <time>2021-09-12T12:45:29Z</time>
      </trkpt>
      <trkpt lat="48.3835" lon="-3.92033">
        <ele>258.39999389648</ele>
        <time>2021-09-12T12:45:30Z</time>
      </trkpt>
      <trkpt lat="48.38351" lon="-3.92027">
        <ele>258.39999389648</ele>
        <time>2021-09-12T12:45:31Z</time>
      </trkpt>
      <trkpt lat="48.38353" lon="-3.92023">
        <ele>258.60000610352</ele>
        <time>2021-09-12T12:45:32Z</time>
      </trkpt>
      <trkpt lat="48.38357" lon="-3.92019">
        <ele>258.60000610352</ele>
        <time>2021-09-12T12:45:33Z</time>
      </trkpt>
      <trkpt lat="48.3836" lon="-3.92016">
        <ele>258.79998779297</ele>
        <time>2021-09-12T12:45:34Z</time>
      </trkpt>
      <trkpt lat="48.38363" lon="-3.92014">
        <ele>258.79998779297</ele>
        <time>2021-09-12T12:45:35Z</time>
      </trkpt>
      <trkpt lat="48.38366" lon="-3.92011">
        <ele>258.79998779297</ele>
        <time>2021-09-12T12:45:36Z</time>
      </trkpt>
      <trkpt lat="48.38369" lon="-3.92009">
        <ele>259</ele>
        <time>2021-09-12T12:45:37Z</time>
      </trkpt>
      <trkpt lat="48.38372" lon="-3.92007">
        <ele>259</ele>
        <time>2021-09-12T12:45:38Z</time>
      </trkpt>
      <trkpt lat="48.38376" lon="-3.92005">
        <ele>259</ele>
        <time>2021-09-12T12:45:39Z</time>
      </trkpt>
      <trkpt lat="48.38379" lon="-3.92005">
        <ele>259.20001220703</ele>
        <time>2021-09-12T12:45:40Z</time>
      </trkpt>
      <trkpt lat="48.38383" lon="-3.92004">
        <ele>259.20001220703</ele>
        <time>2021-09-12T12:45:41Z</time>
      </trkpt>
      <trkpt lat="48.38386" lon="-3.92004">
        <ele>259.20001220703</ele>
        <time>2021-09-12T12:45:42Z</time>
      </trkpt>
      <trkpt lat="48.3839" lon="-3.92004">
        <ele>259.20001220703</ele>
        <time>2021-09-12T12:45:43Z</time>
      </trkpt>
      <trkpt lat="48.38392" lon="-3.92003">
        <ele>259</ele>
        <time>2021-09-12T12:45:44Z</time>
      </trkpt>
      <trkpt lat="48.38396" lon="-3.92003">
        <ele>259</ele>
        <time>2021-09-12T12:45:45Z</time>
      </trkpt>
      <trkpt lat="48.384" lon="-3.92">
        <ele>258.79998779297</ele>
        <time>2021-09-12T12:45:46Z</time>
      </trkpt>
      <trkpt lat="48.38405" lon="-3.91998">
        <ele>258.79998779297</ele>
        <time>2021-09-12T12:45:47Z</time>
      </trkpt>
      <trkpt lat="48.3841" lon="-3.91996">
        <ele>258.79998779297</ele>
        <time>2021-09-12T12:45:48Z</time>
      </trkpt>
      <trkpt lat="48.38414" lon="-3.91994">
        <ele>258.79998779297</ele>
        <time>2021-09-12T12:45:49Z</time>
      </trkpt>
      <trkpt lat="48.38419" lon="-3.91992">
        <ele>258.79998779297</ele>
        <time>2021-09-12T12:45:50Z</time>
      </trkpt>
      <trkpt lat="48.38423" lon="-3.9199">
        <ele>259</ele>
        <time>2021-09-12T12:45:51Z</time>
      </trkpt>
      <trkpt lat="48.38427" lon="-3.91989">
        <ele>259</ele>
        <time>2021-09-12T12:45:52Z</time>
      </trkpt>
      <trkpt lat="48.38432" lon="-3.91986">
        <ele>259</ele>
        <time>2021-09-12T12:45:53Z</time>
      </trkpt>
      <trkpt lat="48.38436" lon="-3.91982">
        <ele>259</ele>
        <time>2021-09-12T12:45:54Z</time>
      </trkpt>
      <trkpt lat="48.3844" lon="-3.91978">
        <ele>259</ele>
        <time>2021-09-12T12:45:55Z</time>
      </trkpt>
      <trkpt lat="48.38445" lon="-3.91974">
        <ele>258.79998779297</ele>
        <time>2021-09-12T12:45:56Z</time>
      </trkpt>
      <trkpt lat="48.38449" lon="-3.91969">
        <ele>258.79998779297</ele>
        <time>2021-09-12T12:45:57Z</time>
      </trkpt>
      <trkpt lat="48.38453" lon="-3.91964">
        <ele>258.79998779297</ele>
        <time>2021-09-12T12:45:58Z</time>
      </trkpt>
      <trkpt lat="48.38456" lon="-3.91958">
        <ele>258.60000610352</ele>
        <time>2021-09-12T12:45:59Z</time>
      </trkpt>
      <trkpt lat="48.38461" lon="-3.91953">
        <ele>258.60000610352</ele>
        <time>2021-09-12T12:46:00Z</time>
      </trkpt>
      <trkpt lat="48.38466" lon="-3.91947">
        <ele>258.60000610352</ele>
        <time>2021-09-12T12:46:01Z</time>
      </trkpt>
      <trkpt lat="48.38471" lon="-3.91942">
        <ele>258.60000610352</ele>
        <time>2021-09-12T12:46:02Z</time>
      </trkpt>
      <trkpt lat="48.38475" lon="-3.91937">
        <ele>258.39999389648</ele>
        <time>2021-09-12T12:46:03Z</time>
      </trkpt>
      <trkpt lat="48.38479" lon="-3.91931">
        <ele>258.39999389648</ele>
        <time>2021-09-12T12:46:04Z</time>
      </trkpt>
      <trkpt lat="48.38485" lon="-3.91924">
        <ele>258.39999389648</ele>
        <time>2021-09-12T12:46:05Z</time>
      </trkpt>
      <trkpt lat="48.38488" lon="-3.9192">
        <ele>258.39999389648</ele>
        <time>2021-09-12T12:46:06Z</time>
      </trkpt>
      <trkpt lat="48.38492" lon="-3.91916">
        <ele>258.39999389648</ele>
        <time>2021-09-12T12:46:07Z</time>
      </trkpt>
      <trkpt lat="48.38495" lon="-3.9191">
        <ele>258.60000610352</ele>
        <time>2021-09-12T12:46:08Z</time>
      </trkpt>
      <trkpt lat="48.38499" lon="-3.91905">
        <ele>258.60000610352</ele>
        <time>2021-09-12T12:46:09Z</time>
      </trkpt>
      <trkpt lat="48.38502" lon="-3.91899">
        <ele>258.60000610352</ele>
        <time>2021-09-12T12:46:10Z</time>
      </trkpt>
      <trkpt lat="48.38504" lon="-3.91895">
        <ele>258.60000610352</ele>
        <time>2021-09-12T12:46:11Z</time>
      </trkpt>
      <trkpt lat="48.38508" lon="-3.91892">
        <ele>259</ele>
        <time>2021-09-12T12:46:12Z</time>
      </trkpt>
      <trkpt lat="48.38513" lon="-3.91886">
        <ele>259</ele>
        <time>2021-09-12T12:46:13Z</time>
      </trkpt>
      <trkpt lat="48.38516" lon="-3.9188">
        <ele>259.20001220703</ele>
        <time>2021-09-12T12:46:14Z</time>
      </trkpt>
      <trkpt lat="48.3852" lon="-3.91874">
        <ele>259.20001220703</ele>
        <time>2021-09-12T12:46:15Z</time>
      </trkpt>
      <trkpt lat="48.38522" lon="-3.91872">
        <ele>259.39999389648</ele>
        <time>2021-09-12T12:46:16Z</time>
      </trkpt>
      <trkpt lat="48.38523" lon="-3.9187">
        <ele>259.60000610352</ele>
        <time>2021-09-12T12:46:17Z</time>
      </trkpt>
      <trkpt lat="48.38525" lon="-3.91867">
        <ele>259.60000610352</ele>
        <time>2021-09-12T12:46:18Z</time>
      </trkpt>
      <trkpt lat="48.38527" lon="-3.91864">
        <ele>259.60000610352</ele>
        <time>2021-09-12T12:46:19Z</time>
      </trkpt>
      <trkpt lat="48.3853" lon="-3.9186">
        <ele>259.79998779297</ele>
        <time>2021-09-12T12:46:20Z</time>
      </trkpt>
      <trkpt lat="48.38533" lon="-3.91853">
        <ele>260</ele>
        <time>2021-09-12T12:46:21Z</time>
      </trkpt>
      <trkpt lat="48.38535" lon="-3.91849">
        <ele>260</ele>
        <time>2021-09-12T12:46:22Z</time>
      </trkpt>
      <trkpt lat="48.38536" lon="-3.91844">
        <ele>260.39999389648</ele>
        <time>2021-09-12T12:46:23Z</time>
      </trkpt>
      <trkpt lat="48.38537" lon="-3.91839">
        <ele>260.39999389648</ele>
        <time>2021-09-12T12:46:24Z</time>
      </trkpt>
      <trkpt lat="48.38538" lon="-3.91835">
        <ele>260.60000610352</ele>
        <time>2021-09-12T12:46:25Z</time>
      </trkpt>
      <trkpt lat="48.38537" lon="-3.91829">
        <ele>260.60000610352</ele>
        <time>2021-09-12T12:46:26Z</time>
      </trkpt>
      <trkpt lat="48.38534" lon="-3.91826">
        <ele>260.79998779297</ele>
        <time>2021-09-12T12:46:27Z</time>
      </trkpt>
      <trkpt lat="48.38532" lon="-3.91823">
        <ele>260.79998779297</ele>
        <time>2021-09-12T12:46:28Z</time>
      </trkpt>
      <trkpt lat="48.38531" lon="-3.91821">
        <ele>261</ele>
        <time>2021-09-12T12:46:29Z</time>
      </trkpt>
      <trkpt lat="48.38531" lon="-3.91819">
        <ele>261.39999389648</ele>
        <time>2021-09-12T12:46:30Z</time>
      </trkpt>
      <trkpt lat="48.3853" lon="-3.91817">
        <ele>261.60000610352</ele>
        <time>2021-09-12T12:46:31Z</time>
      </trkpt>
      <trkpt lat="48.3853" lon="-3.91816">
        <ele>261.79998779297</ele>
        <time>2021-09-12T12:46:32Z</time>
      </trkpt>
      <trkpt lat="48.38529" lon="-3.91814">
        <ele>262.20001220703</ele>
        <time>2021-09-12T12:46:33Z</time>
      </trkpt>
      <trkpt lat="48.38529" lon="-3.9181">
        <ele>262.79998779297</ele>
        <time>2021-09-12T12:46:34Z</time>
      </trkpt>
      <trkpt lat="48.38527" lon="-3.91807">
        <ele>262.79998779297</ele>
        <time>2021-09-12T12:46:35Z</time>
      </trkpt>
      <trkpt lat="48.38525" lon="-3.91805">
        <ele>263.20001220703</ele>
        <time>2021-09-12T12:46:36Z</time>
      </trkpt>
      <trkpt lat="48.38525" lon="-3.91803">
        <ele>263.39999389648</ele>
        <time>2021-09-12T12:46:37Z</time>
      </trkpt>
      <trkpt lat="48.38525" lon="-3.918">
        <ele>263.39999389648</ele>
        <time>2021-09-12T12:46:38Z</time>
      </trkpt>
      <trkpt lat="48.38525" lon="-3.91797">
        <ele>263.79998779297</ele>
        <time>2021-09-12T12:46:39Z</time>
      </trkpt>
      <trkpt lat="48.38525" lon="-3.91795">
        <ele>264.20001220703</ele>
        <time>2021-09-12T12:46:40Z</time>
      </trkpt>
      <trkpt lat="48.38525" lon="-3.91792">
        <ele>264.20001220703</ele>
        <time>2021-09-12T12:46:41Z</time>
      </trkpt>
      <trkpt lat="48.38526" lon="-3.9179">
        <ele>264.39999389648</ele>
        <time>2021-09-12T12:46:42Z</time>
      </trkpt>
      <trkpt lat="48.38526" lon="-3.9179">
        <ele>264.39999389648</ele>
        <time>2021-09-12T12:46:43Z</time>
      </trkpt>
      <trkpt lat="48.38525" lon="-3.91788">
        <ele>264.39999389648</ele>
        <time>2021-09-12T12:46:44Z</time>
      </trkpt>
      <trkpt lat="48.38526" lon="-3.91786">
        <ele>264.79998779297</ele>
        <time>2021-09-12T12:46:45Z</time>
      </trkpt>
      <trkpt lat="48.38527" lon="-3.91784">
        <ele>265.39999389648</ele>
        <time>2021-09-12T12:46:46Z</time>
      </trkpt>
      <trkpt lat="48.38528" lon="-3.91783">
        <ele>265.60000610352</ele>
        <time>2021-09-12T12:46:47Z</time>
      </trkpt>
      <trkpt lat="48.38529" lon="-3.91782">
        <ele>265.79998779297</ele>
        <time>2021-09-12T12:46:48Z</time>
      </trkpt>
      <trkpt lat="48.38531" lon="-3.91779">
        <ele>265.79998779297</ele>
        <time>2021-09-12T12:46:49Z</time>
      </trkpt>
      <trkpt lat="48.38532" lon="-3.91776">
        <ele>265.79998779297</ele>
        <time>2021-09-12T12:46:50Z</time>
      </trkpt>
      <trkpt lat="48.38534" lon="-3.91774">
        <ele>265.79998779297</ele>
        <time>2021-09-12T12:46:51Z</time>
      </trkpt>
      <trkpt lat="48.38534" lon="-3.91772">
        <ele>266</ele>
        <time>2021-09-12T12:46:52Z</time>
      </trkpt>
      <trkpt lat="48.38535" lon="-3.91769">
        <ele>266.39999389648</ele>
        <time>2021-09-12T12:46:53Z</time>
      </trkpt>
      <trkpt lat="48.38536" lon="-3.91766">
        <ele>266.60000610352</ele>
        <time>2021-09-12T12:46:54Z</time>
      </trkpt>
      <trkpt lat="48.38537" lon="-3.91763">
        <ele>267</ele>
        <time>2021-09-12T12:46:55Z</time>
      </trkpt>
      <trkpt lat="48.38538" lon="-3.9176">
        <ele>267.39999389648</ele>
        <time>2021-09-12T12:46:56Z</time>
      </trkpt>
      <trkpt lat="48.38538" lon="-3.91758">
        <ele>267.39999389648</ele>
        <time>2021-09-12T12:46:57Z</time>
      </trkpt>
      <trkpt lat="48.38539" lon="-3.91756">
        <ele>267.39999389648</ele>
        <time>2021-09-12T12:46:58Z</time>
      </trkpt>
      <trkpt lat="48.38539" lon="-3.91753">
        <ele>267.39999389648</ele>
        <time>2021-09-12T12:46:59Z</time>
      </trkpt>
      <trkpt lat="48.3854" lon="-3.9175">
        <ele>268</ele>
        <time>2021-09-12T12:47:00Z</time>
      </trkpt>
      <trkpt lat="48.3854" lon="-3.91747">
        <ele>268</ele>
        <time>2021-09-12T12:47:01Z</time>
      </trkpt>
      <trkpt lat="48.38541" lon="-3.91745">
        <ele>268</ele>
        <time>2021-09-12T12:47:02Z</time>
      </trkpt>
      <trkpt lat="48.38542" lon="-3.91742">
        <ele>268.60000610352</ele>
        <time>2021-09-12T12:47:03Z</time>
      </trkpt>
      <trkpt lat="48.38543" lon="-3.9174">
        <ele>268.60000610352</ele>
        <time>2021-09-12T12:47:04Z</time>
      </trkpt>
      <trkpt lat="48.38544" lon="-3.91738">
        <ele>268.79998779297</ele>
        <time>2021-09-12T12:47:05Z</time>
      </trkpt>
      <trkpt lat="48.38545" lon="-3.91734">
        <ele>269</ele>
        <time>2021-09-12T12:47:06Z</time>
      </trkpt>
      <trkpt lat="48.38546" lon="-3.9173">
        <ele>269.20001220703</ele>
        <time>2021-09-12T12:47:07Z</time>
      </trkpt>
      <trkpt lat="48.38547" lon="-3.91727">
        <ele>269.39999389648</ele>
        <time>2021-09-12T12:47:08Z</time>
      </trkpt>
      <trkpt lat="48.38547" lon="-3.91725">
        <ele>269.60000610352</ele>
        <time>2021-09-12T12:47:09Z</time>
      </trkpt>
      <trkpt lat="48.38547" lon="-3.91723">
        <ele>269.60000610352</ele>
        <time>2021-09-12T12:47:10Z</time>
      </trkpt>
      <trkpt lat="48.38548" lon="-3.9172">
        <ele>270</ele>
        <time>2021-09-12T12:47:11Z</time>
      </trkpt>
      <trkpt lat="48.38549" lon="-3.91718">
        <ele>270.20001220703</ele>
        <time>2021-09-12T12:47:12Z</time>
      </trkpt>
      <trkpt lat="48.3855" lon="-3.91715">
        <ele>270.39999389648</ele>
        <time>2021-09-12T12:47:13Z</time>
      </trkpt>
      <trkpt lat="48.38551" lon="-3.91712">
        <ele>270.79998779297</ele>
        <time>2021-09-12T12:47:14Z</time>
      </trkpt>
      <trkpt lat="48.38552" lon="-3.91708">
        <ele>270.79998779297</ele>
        <time>2021-09-12T12:47:15Z</time>
      </trkpt>
      <trkpt lat="48.38553" lon="-3.91706">
        <ele>271</ele>
        <time>2021-09-12T12:47:16Z</time>
      </trkpt>
      <trkpt lat="48.38554" lon="-3.91703">
        <ele>271</ele>
        <time>2021-09-12T12:47:17Z</time>
      </trkpt>
      <trkpt lat="48.38554" lon="-3.917">
        <ele>271.20001220703</ele>
        <time>2021-09-12T12:47:18Z</time>
      </trkpt>
      <trkpt lat="48.38555" lon="-3.91696">
        <ele>271.20001220703</ele>
        <time>2021-09-12T12:47:19Z</time>
      </trkpt>
      <trkpt lat="48.38556" lon="-3.91692">
        <ele>271.20001220703</ele>
        <time>2021-09-12T12:47:20Z</time>
      </trkpt>
      <trkpt lat="48.38556" lon="-3.9169">
        <ele>271.20001220703</ele>
        <time>2021-09-12T12:47:21Z</time>
      </trkpt>
      <trkpt lat="48.38557" lon="-3.91687">
        <ele>271.39999389648</ele>
        <time>2021-09-12T12:47:22Z</time>
      </trkpt>
      <trkpt lat="48.38558" lon="-3.91684">
        <ele>271.60000610352</ele>
        <time>2021-09-12T12:47:23Z</time>
      </trkpt>
      <trkpt lat="48.38559" lon="-3.91681">
        <ele>271.79998779297</ele>
        <time>2021-09-12T12:47:24Z</time>
      </trkpt>
      <trkpt lat="48.38559" lon="-3.91678">
        <ele>272</ele>
        <time>2021-09-12T12:47:25Z</time>
      </trkpt>
      <trkpt lat="48.3856" lon="-3.91675">
        <ele>272.20001220703</ele>
        <time>2021-09-12T12:47:26Z</time>
      </trkpt>
      <trkpt lat="48.3856" lon="-3.91673">
        <ele>272.20001220703</ele>
        <time>2021-09-12T12:47:27Z</time>
      </trkpt>
      <trkpt lat="48.3856" lon="-3.91669">
        <ele>272.60000610352</ele>
        <time>2021-09-12T12:47:28Z</time>
      </trkpt>
      <trkpt lat="48.3856" lon="-3.91667">
        <ele>272.79998779297</ele>
        <time>2021-09-12T12:47:29Z</time>
      </trkpt>
      <trkpt lat="48.38561" lon="-3.91664">
        <ele>273</ele>
        <time>2021-09-12T12:47:30Z</time>
      </trkpt>
      <trkpt lat="48.38561" lon="-3.91662">
        <ele>273</ele>
        <time>2021-09-12T12:47:31Z</time>
      </trkpt>
      <trkpt lat="48.38561" lon="-3.9166">
        <ele>273.39999389648</ele>
        <time>2021-09-12T12:47:32Z</time>
      </trkpt>
      <trkpt lat="48.38561" lon="-3.91657">
        <ele>273.39999389648</ele>
        <time>2021-09-12T12:47:33Z</time>
      </trkpt>
      <trkpt lat="48.38562" lon="-3.91655">
        <ele>273.79998779297</ele>
        <time>2021-09-12T12:47:34Z</time>
      </trkpt>
      <trkpt lat="48.38562" lon="-3.91653">
        <ele>273.79998779297</ele>
        <time>2021-09-12T12:47:35Z</time>
      </trkpt>
      <trkpt lat="48.38562" lon="-3.9165">
        <ele>274.20001220703</ele>
        <time>2021-09-12T12:47:36Z</time>
      </trkpt>
      <trkpt lat="48.38563" lon="-3.91647">
        <ele>274.39999389648</ele>
        <time>2021-09-12T12:47:37Z</time>
      </trkpt>
      <trkpt lat="48.38563" lon="-3.91644">
        <ele>274.60000610352</ele>
        <time>2021-09-12T12:47:38Z</time>
      </trkpt>
      <trkpt lat="48.38563" lon="-3.91641">
        <ele>274.79998779297</ele>
        <time>2021-09-12T12:47:39Z</time>
      </trkpt>
      <trkpt lat="48.38563" lon="-3.91637">
        <ele>274.79998779297</ele>
        <time>2021-09-12T12:47:40Z</time>
      </trkpt>
      <trkpt lat="48.38564" lon="-3.91634">
        <ele>275</ele>
        <time>2021-09-12T12:47:41Z</time>
      </trkpt>
      <trkpt lat="48.38564" lon="-3.91632">
        <ele>275.20001220703</ele>
        <time>2021-09-12T12:47:42Z</time>
      </trkpt>
      <trkpt lat="48.38565" lon="-3.91629">
        <ele>275.39999389648</ele>
        <time>2021-09-12T12:47:43Z</time>
      </trkpt>
      <trkpt lat="48.38565" lon="-3.91626">
        <ele>275.39999389648</ele>
        <time>2021-09-12T12:47:44Z</time>
      </trkpt>
      <trkpt lat="48.38566" lon="-3.91623">
        <ele>275.39999389648</ele>
        <time>2021-09-12T12:47:45Z</time>
      </trkpt>
      <trkpt lat="48.38567" lon="-3.91621">
        <ele>275.60000610352</ele>
        <time>2021-09-12T12:47:46Z</time>
      </trkpt>
      <trkpt lat="48.38567" lon="-3.91617">
        <ele>275.79998779297</ele>
        <time>2021-09-12T12:47:47Z</time>
      </trkpt>
      <trkpt lat="48.38568" lon="-3.91614">
        <ele>276</ele>
        <time>2021-09-12T12:47:48Z</time>
      </trkpt>
      <trkpt lat="48.38569" lon="-3.91611">
        <ele>276.20001220703</ele>
        <time>2021-09-12T12:47:49Z</time>
      </trkpt>
      <trkpt lat="48.38569" lon="-3.91609">
        <ele>276.39999389648</ele>
        <time>2021-09-12T12:47:50Z</time>
      </trkpt>
      <trkpt lat="48.3857" lon="-3.91607">
        <ele>276.79998779297</ele>
        <time>2021-09-12T12:47:51Z</time>
      </trkpt>
      <trkpt lat="48.38571" lon="-3.91605">
        <ele>276.79998779297</ele>
        <time>2021-09-12T12:47:52Z</time>
      </trkpt>
      <trkpt lat="48.38572" lon="-3.91603">
        <ele>277.20001220703</ele>
        <time>2021-09-12T12:47:53Z</time>
      </trkpt>
      <trkpt lat="48.38572" lon="-3.91601">
        <ele>277.60000610352</ele>
        <time>2021-09-12T12:47:54Z</time>
      </trkpt>
      <trkpt lat="48.38573" lon="-3.91599">
        <ele>277.79998779297</ele>
        <time>2021-09-12T12:47:55Z</time>
      </trkpt>
      <trkpt lat="48.38574" lon="-3.91597">
        <ele>278</ele>
        <time>2021-09-12T12:47:56Z</time>
      </trkpt>
      <trkpt lat="48.38576" lon="-3.91595">
        <ele>278.39999389648</ele>
        <time>2021-09-12T12:47:57Z</time>
      </trkpt>
      <trkpt lat="48.38577" lon="-3.91594">
        <ele>278.39999389648</ele>
        <time>2021-09-12T12:47:58Z</time>
      </trkpt>
      <trkpt lat="48.38579" lon="-3.91593">
        <ele>278.60000610352</ele>
        <time>2021-09-12T12:47:59Z</time>
      </trkpt>
      <trkpt lat="48.38581" lon="-3.91592">
        <ele>278.79998779297</ele>
        <time>2021-09-12T12:48:00Z</time>
      </trkpt>
      <trkpt lat="48.38582" lon="-3.91591">
        <ele>279.20001220703</ele>
        <time>2021-09-12T12:48:01Z</time>
      </trkpt>
      <trkpt lat="48.38584" lon="-3.9159">
        <ele>279.39999389648</ele>
        <time>2021-09-12T12:48:02Z</time>
      </trkpt>
      <trkpt lat="48.38587" lon="-3.91589">
        <ele>279.39999389648</ele>
        <time>2021-09-12T12:48:03Z</time>
      </trkpt>
      <trkpt lat="48.38589" lon="-3.91588">
        <ele>279.79998779297</ele>
        <time>2021-09-12T12:48:04Z</time>
      </trkpt>
      <trkpt lat="48.38591" lon="-3.91588">
        <ele>280.20001220703</ele>
        <time>2021-09-12T12:48:05Z</time>
      </trkpt>
      <trkpt lat="48.38593" lon="-3.91587">
        <ele>280.20001220703</ele>
        <time>2021-09-12T12:48:06Z</time>
      </trkpt>
      <trkpt lat="48.38594" lon="-3.91585">
        <ele>280.20001220703</ele>
        <time>2021-09-12T12:48:07Z</time>
      </trkpt>
      <trkpt lat="48.38596" lon="-3.91583">
        <ele>280.20001220703</ele>
        <time>2021-09-12T12:48:08Z</time>
      </trkpt>
      <trkpt lat="48.38597" lon="-3.9158">
        <ele>280.39999389648</ele>
        <time>2021-09-12T12:48:09Z</time>
      </trkpt>
      <trkpt lat="48.38598" lon="-3.91576">
        <ele>280.79998779297</ele>
        <time>2021-09-12T12:48:10Z</time>
      </trkpt>
      <trkpt lat="48.38598" lon="-3.91573">
        <ele>281</ele>
        <time>2021-09-12T12:48:11Z</time>
      </trkpt>
      <trkpt lat="48.38598" lon="-3.91569">
        <ele>281.20001220703</ele>
        <time>2021-09-12T12:48:12Z</time>
      </trkpt>
      <trkpt lat="48.38597" lon="-3.91566">
        <ele>281.20001220703</ele>
        <time>2021-09-12T12:48:13Z</time>
      </trkpt>
      <trkpt lat="48.38595" lon="-3.91563">
        <ele>281.60000610352</ele>
        <time>2021-09-12T12:48:14Z</time>
      </trkpt>
      <trkpt lat="48.38594" lon="-3.9156">
        <ele>281.60000610352</ele>
        <time>2021-09-12T12:48:15Z</time>
      </trkpt>
      <trkpt lat="48.38593" lon="-3.91557">
        <ele>281.79998779297</ele>
        <time>2021-09-12T12:48:16Z</time>
      </trkpt>
      <trkpt lat="48.38592" lon="-3.91554">
        <ele>282</ele>
        <time>2021-09-12T12:48:17Z</time>
      </trkpt>
      <trkpt lat="48.38591" lon="-3.91551">
        <ele>282</ele>
        <time>2021-09-12T12:48:18Z</time>
      </trkpt>
      <trkpt lat="48.38589" lon="-3.91549">
        <ele>282.20001220703</ele>
        <time>2021-09-12T12:48:19Z</time>
      </trkpt>
      <trkpt lat="48.38587" lon="-3.91546">
        <ele>282.60000610352</ele>
        <time>2021-09-12T12:48:20Z</time>
      </trkpt>
      <trkpt lat="48.38586" lon="-3.91543">
        <ele>282.79998779297</ele>
        <time>2021-09-12T12:48:21Z</time>
      </trkpt>
      <trkpt lat="48.38584" lon="-3.9154">
        <ele>282.79998779297</ele>
        <time>2021-09-12T12:48:22Z</time>
      </trkpt>
      <trkpt lat="48.38582" lon="-3.91538">
        <ele>283</ele>
        <time>2021-09-12T12:48:23Z</time>
      </trkpt>
      <trkpt lat="48.3858" lon="-3.91535">
        <ele>283.39999389648</ele>
        <time>2021-09-12T12:48:24Z</time>
      </trkpt>
      <trkpt lat="48.38578" lon="-3.91533">
        <ele>283.79998779297</ele>
        <time>2021-09-12T12:48:25Z</time>
      </trkpt>
      <trkpt lat="48.38577" lon="-3.9153">
        <ele>283.79998779297</ele>
        <time>2021-09-12T12:48:26Z</time>
      </trkpt>
      <trkpt lat="48.38575" lon="-3.91529">
        <ele>284</ele>
        <time>2021-09-12T12:48:27Z</time>
      </trkpt>
      <trkpt lat="48.38574" lon="-3.91527">
        <ele>284.39999389648</ele>
        <time>2021-09-12T12:48:28Z</time>
      </trkpt>
      <trkpt lat="48.38572" lon="-3.91525">
        <ele>284.39999389648</ele>
        <time>2021-09-12T12:48:29Z</time>
      </trkpt>
      <trkpt lat="48.38571" lon="-3.91523">
        <ele>284.79998779297</ele>
        <time>2021-09-12T12:48:30Z</time>
      </trkpt>
      <trkpt lat="48.38569" lon="-3.91521">
        <ele>285.39999389648</ele>
        <time>2021-09-12T12:48:31Z</time>
      </trkpt>
      <trkpt lat="48.38568" lon="-3.91519">
        <ele>285.60000610352</ele>
        <time>2021-09-12T12:48:32Z</time>
      </trkpt>
      <trkpt lat="48.38566" lon="-3.91517">
        <ele>285.60000610352</ele>
        <time>2021-09-12T12:48:33Z</time>
      </trkpt>
      <trkpt lat="48.38564" lon="-3.91515">
        <ele>286</ele>
        <time>2021-09-12T12:48:34Z</time>
      </trkpt>
      <trkpt lat="48.38563" lon="-3.91514">
        <ele>286.20001220703</ele>
        <time>2021-09-12T12:48:35Z</time>
      </trkpt>
      <trkpt lat="48.38561" lon="-3.91513">
        <ele>286.39999389648</ele>
        <time>2021-09-12T12:48:36Z</time>
      </trkpt>
      <trkpt lat="48.38558" lon="-3.91512">
        <ele>286.79998779297</ele>
        <time>2021-09-12T12:48:37Z</time>
      </trkpt>
      <trkpt lat="48.38556" lon="-3.91511">
        <ele>286.79998779297</ele>
        <time>2021-09-12T12:48:38Z</time>
      </trkpt>
      <trkpt lat="48.38553" lon="-3.9151">
        <ele>287</ele>
        <time>2021-09-12T12:48:39Z</time>
      </trkpt>
      <trkpt lat="48.38552" lon="-3.91509">
        <ele>287</ele>
        <time>2021-09-12T12:48:40Z</time>
      </trkpt>
      <trkpt lat="48.3855" lon="-3.91509">
        <ele>287</ele>
        <time>2021-09-12T12:48:41Z</time>
      </trkpt>
      <trkpt lat="48.38547" lon="-3.91508">
        <ele>287.20001220703</ele>
        <time>2021-09-12T12:48:42Z</time>
      </trkpt>
      <trkpt lat="48.38545" lon="-3.91508">
        <ele>287.20001220703</ele>
        <time>2021-09-12T12:48:43Z</time>
      </trkpt>
      <trkpt lat="48.38544" lon="-3.91507">
        <ele>287.20001220703</ele>
        <time>2021-09-12T12:48:44Z</time>
      </trkpt>
      <trkpt lat="48.38543" lon="-3.91506">
        <ele>287.39999389648</ele>
        <time>2021-09-12T12:48:45Z</time>
      </trkpt>
      <trkpt lat="48.38543" lon="-3.91503">
        <ele>287.39999389648</ele>
        <time>2021-09-12T12:48:46Z</time>
      </trkpt>
      <trkpt lat="48.38545" lon="-3.915">
        <ele>287.39999389648</ele>
        <time>2021-09-12T12:48:47Z</time>
      </trkpt>
      <trkpt lat="48.38547" lon="-3.91499">
        <ele>287.60000610352</ele>
        <time>2021-09-12T12:48:48Z</time>
      </trkpt>
      <trkpt lat="48.3855" lon="-3.91499">
        <ele>287.60000610352</ele>
        <time>2021-09-12T12:48:49Z</time>
      </trkpt>
      <trkpt lat="48.38552" lon="-3.91498">
        <ele>287.79998779297</ele>
        <time>2021-09-12T12:48:50Z</time>
      </trkpt>
      <trkpt lat="48.38554" lon="-3.91498">
        <ele>287.79998779297</ele>
        <time>2021-09-12T12:48:51Z</time>
      </trkpt>
      <trkpt lat="48.38557" lon="-3.91497">
        <ele>288</ele>
        <time>2021-09-12T12:48:52Z</time>
      </trkpt>
      <trkpt lat="48.3856" lon="-3.91495">
        <ele>288</ele>
        <time>2021-09-12T12:48:53Z</time>
      </trkpt>
      <trkpt lat="48.38562" lon="-3.91493">
        <ele>288.20001220703</ele>
        <time>2021-09-12T12:48:54Z</time>
      </trkpt>
      <trkpt lat="48.38565" lon="-3.91491">
        <ele>288.39999389648</ele>
        <time>2021-09-12T12:48:55Z</time>
      </trkpt>
      <trkpt lat="48.38568" lon="-3.91489">
        <ele>288.60000610352</ele>
        <time>2021-09-12T12:48:56Z</time>
      </trkpt>
      <trkpt lat="48.38573" lon="-3.91487">
        <ele>288.79998779297</ele>
        <time>2021-09-12T12:48:57Z</time>
      </trkpt>
      <trkpt lat="48.38577" lon="-3.91485">
        <ele>288.79998779297</ele>
        <time>2021-09-12T12:48:58Z</time>
      </trkpt>
      <trkpt lat="48.3858" lon="-3.91483">
        <ele>288.79998779297</ele>
        <time>2021-09-12T12:48:59Z</time>
      </trkpt>
      <trkpt lat="48.38584" lon="-3.91481">
        <ele>288.79998779297</ele>
        <time>2021-09-12T12:49:00Z</time>
      </trkpt>
      <trkpt lat="48.38588" lon="-3.9148">
        <ele>288.79998779297</ele>
        <time>2021-09-12T12:49:01Z</time>
      </trkpt>
      <trkpt lat="48.38592" lon="-3.91478">
        <ele>288.79998779297</ele>
        <time>2021-09-12T12:49:02Z</time>
      </trkpt>
      <trkpt lat="48.38598" lon="-3.91476">
        <ele>288.79998779297</ele>
        <time>2021-09-12T12:49:03Z</time>
      </trkpt>
      <trkpt lat="48.38601" lon="-3.91475">
        <ele>288.79998779297</ele>
        <time>2021-09-12T12:49:04Z</time>
      </trkpt>
      <trkpt lat="48.38606" lon="-3.91473">
        <ele>288.79998779297</ele>
        <time>2021-09-12T12:49:05Z</time>
      </trkpt>
      <trkpt lat="48.38611" lon="-3.91471">
        <ele>288.60000610352</ele>
        <time>2021-09-12T12:49:06Z</time>
      </trkpt>
      <trkpt lat="48.38617" lon="-3.9147">
        <ele>288.60000610352</ele>
        <time>2021-09-12T12:49:07Z</time>
      </trkpt>
      <trkpt lat="48.38623" lon="-3.91467">
        <ele>288.60000610352</ele>
        <time>2021-09-12T12:49:08Z</time>
      </trkpt>
      <trkpt lat="48.38627" lon="-3.91465">
        <ele>288.39999389648</ele>
        <time>2021-09-12T12:49:09Z</time>
      </trkpt>
      <trkpt lat="48.38633" lon="-3.91463">
        <ele>288.39999389648</ele>
        <time>2021-09-12T12:49:10Z</time>
      </trkpt>
      <trkpt lat="48.38639" lon="-3.91461">
        <ele>288.20001220703</ele>
        <time>2021-09-12T12:49:11Z</time>
      </trkpt>
      <trkpt lat="48.38644" lon="-3.91458">
        <ele>288</ele>
        <time>2021-09-12T12:49:12Z</time>
      </trkpt>
      <trkpt lat="48.3865" lon="-3.91456">
        <ele>288</ele>
        <time>2021-09-12T12:49:13Z</time>
      </trkpt>
      <trkpt lat="48.38657" lon="-3.91453">
        <ele>288</ele>
        <time>2021-09-12T12:49:14Z</time>
      </trkpt>
      <trkpt lat="48.38662" lon="-3.91451">
        <ele>287.79998779297</ele>
        <time>2021-09-12T12:49:15Z</time>
      </trkpt>
      <trkpt lat="48.38667" lon="-3.91448">
        <ele>287.79998779297</ele>
        <time>2021-09-12T12:49:16Z</time>
      </trkpt>
      <trkpt lat="48.38673" lon="-3.91445">
        <ele>287.39999389648</ele>
        <time>2021-09-12T12:49:17Z</time>
      </trkpt>
      <trkpt lat="48.38679" lon="-3.91442">
        <ele>287.39999389648</ele>
        <time>2021-09-12T12:49:18Z</time>
      </trkpt>
      <trkpt lat="48.38685" lon="-3.9144">
        <ele>287.20001220703</ele>
        <time>2021-09-12T12:49:19Z</time>
      </trkpt>
      <trkpt lat="48.38691" lon="-3.91438">
        <ele>287</ele>
        <time>2021-09-12T12:49:20Z</time>
      </trkpt>
      <trkpt lat="48.38697" lon="-3.91437">
        <ele>286.79998779297</ele>
        <time>2021-09-12T12:49:21Z</time>
      </trkpt>
      <trkpt lat="48.38702" lon="-3.91435">
        <ele>286.79998779297</ele>
        <time>2021-09-12T12:49:22Z</time>
      </trkpt>
      <trkpt lat="48.38708" lon="-3.91432">
        <ele>286.60000610352</ele>
        <time>2021-09-12T12:49:23Z</time>
      </trkpt>
      <trkpt lat="48.3871" lon="-3.91429">
        <ele>286.60000610352</ele>
        <time>2021-09-12T12:49:24Z</time>
      </trkpt>
      <trkpt lat="48.38711" lon="-3.91425">
        <ele>286.60000610352</ele>
        <time>2021-09-12T12:49:25Z</time>
      </trkpt>
      <trkpt lat="48.3871" lon="-3.9142">
        <ele>286.60000610352</ele>
        <time>2021-09-12T12:49:26Z</time>
      </trkpt>
      <trkpt lat="48.38709" lon="-3.91414">
        <ele>286.79998779297</ele>
        <time>2021-09-12T12:49:27Z</time>
      </trkpt>
      <trkpt lat="48.38707" lon="-3.91408">
        <ele>286.79998779297</ele>
        <time>2021-09-12T12:49:28Z</time>
      </trkpt>
      <trkpt lat="48.38706" lon="-3.91402">
        <ele>286.79998779297</ele>
        <time>2021-09-12T12:49:29Z</time>
      </trkpt>
      <trkpt lat="48.38706" lon="-3.91397">
        <ele>287</ele>
        <time>2021-09-12T12:49:30Z</time>
      </trkpt>
      <trkpt lat="48.38705" lon="-3.9139">
        <ele>287</ele>
        <time>2021-09-12T12:49:31Z</time>
      </trkpt>
      <trkpt lat="48.38705" lon="-3.91386">
        <ele>287.20001220703</ele>
        <time>2021-09-12T12:49:32Z</time>
      </trkpt>
      <trkpt lat="48.38704" lon="-3.91381">
        <ele>287.39999389648</ele>
        <time>2021-09-12T12:49:33Z</time>
      </trkpt>
      <trkpt lat="48.38702" lon="-3.91376">
        <ele>287.39999389648</ele>
        <time>2021-09-12T12:49:34Z</time>
      </trkpt>
      <trkpt lat="48.38701" lon="-3.91371">
        <ele>287.60000610352</ele>
        <time>2021-09-12T12:49:35Z</time>
      </trkpt>
      <trkpt lat="48.387" lon="-3.91366">
        <ele>287.60000610352</ele>
        <time>2021-09-12T12:49:36Z</time>
      </trkpt>
      <trkpt lat="48.38699" lon="-3.91361">
        <ele>287.79998779297</ele>
        <time>2021-09-12T12:49:37Z</time>
      </trkpt>
      <trkpt lat="48.38699" lon="-3.91356">
        <ele>287.79998779297</ele>
        <time>2021-09-12T12:49:38Z</time>
      </trkpt>
      <trkpt lat="48.38698" lon="-3.9135">
        <ele>288</ele>
        <time>2021-09-12T12:49:39Z</time>
      </trkpt>
      <trkpt lat="48.38697" lon="-3.91345">
        <ele>288</ele>
        <time>2021-09-12T12:49:40Z</time>
      </trkpt>
      <trkpt lat="48.38696" lon="-3.9134">
        <ele>288</ele>
        <time>2021-09-12T12:49:41Z</time>
      </trkpt>
      <trkpt lat="48.38695" lon="-3.91335">
        <ele>288.20001220703</ele>
        <time>2021-09-12T12:49:42Z</time>
      </trkpt>
      <trkpt lat="48.38694" lon="-3.9133">
        <ele>288.20001220703</ele>
        <time>2021-09-12T12:49:43Z</time>
      </trkpt>
      <trkpt lat="48.38693" lon="-3.91326">
        <ele>288.60000610352</ele>
        <time>2021-09-12T12:49:44Z</time>
      </trkpt>
      <trkpt lat="48.38693" lon="-3.91322">
        <ele>288.60000610352</ele>
        <time>2021-09-12T12:49:45Z</time>
      </trkpt>
      <trkpt lat="48.38692" lon="-3.91317">
        <ele>289</ele>
        <time>2021-09-12T12:49:46Z</time>
      </trkpt>
      <trkpt lat="48.38691" lon="-3.91312">
        <ele>289</ele>
        <time>2021-09-12T12:49:47Z</time>
      </trkpt>
      <trkpt lat="48.38691" lon="-3.91308">
        <ele>289</ele>
        <time>2021-09-12T12:49:48Z</time>
      </trkpt>
      <trkpt lat="48.3869" lon="-3.91302">
        <ele>289.20001220703</ele>
        <time>2021-09-12T12:49:49Z</time>
      </trkpt>
      <trkpt lat="48.38689" lon="-3.91297">
        <ele>289.39999389648</ele>
        <time>2021-09-12T12:49:50Z</time>
      </trkpt>
      <trkpt lat="48.38689" lon="-3.91293">
        <ele>289.60000610352</ele>
        <time>2021-09-12T12:49:51Z</time>
      </trkpt>
      <trkpt lat="48.38689" lon="-3.91289">
        <ele>289.60000610352</ele>
        <time>2021-09-12T12:49:52Z</time>
      </trkpt>
      <trkpt lat="48.38689" lon="-3.91284">
        <ele>289.79998779297</ele>
        <time>2021-09-12T12:49:53Z</time>
      </trkpt>
      <trkpt lat="48.38688" lon="-3.9128">
        <ele>290</ele>
        <time>2021-09-12T12:49:54Z</time>
      </trkpt>
      <trkpt lat="48.38688" lon="-3.91276">
        <ele>290</ele>
        <time>2021-09-12T12:49:55Z</time>
      </trkpt>
      <trkpt lat="48.38686" lon="-3.9127">
        <ele>290</ele>
        <time>2021-09-12T12:49:56Z</time>
      </trkpt>
      <trkpt lat="48.38686" lon="-3.91265">
        <ele>290.20001220703</ele>
        <time>2021-09-12T12:49:57Z</time>
      </trkpt>
      <trkpt lat="48.38685" lon="-3.91259">
        <ele>290.79998779297</ele>
        <time>2021-09-12T12:49:58Z</time>
      </trkpt>
      <trkpt lat="48.38684" lon="-3.91253">
        <ele>291</ele>
        <time>2021-09-12T12:49:59Z</time>
      </trkpt>
      <trkpt lat="48.38683" lon="-3.91247">
        <ele>291</ele>
        <time>2021-09-12T12:50:00Z</time>
      </trkpt>
      <trkpt lat="48.38681" lon="-3.9124">
        <ele>291</ele>
        <time>2021-09-12T12:50:01Z</time>
      </trkpt>
      <trkpt lat="48.3868" lon="-3.91234">
        <ele>291.20001220703</ele>
        <time>2021-09-12T12:50:02Z</time>
      </trkpt>
      <trkpt lat="48.38679" lon="-3.91227">
        <ele>291.20001220703</ele>
        <time>2021-09-12T12:50:03Z</time>
      </trkpt>
      <trkpt lat="48.38678" lon="-3.91222">
        <ele>291.20001220703</ele>
        <time>2021-09-12T12:50:04Z</time>
      </trkpt>
      <trkpt lat="48.38677" lon="-3.91216">
        <ele>291.60000610352</ele>
        <time>2021-09-12T12:50:05Z</time>
      </trkpt>
      <trkpt lat="48.38676" lon="-3.9121">
        <ele>291.60000610352</ele>
        <time>2021-09-12T12:50:06Z</time>
      </trkpt>
      <trkpt lat="48.38676" lon="-3.91205">
        <ele>291.60000610352</ele>
        <time>2021-09-12T12:50:07Z</time>
      </trkpt>
      <trkpt lat="48.38675" lon="-3.912">
        <ele>291.60000610352</ele>
        <time>2021-09-12T12:50:08Z</time>
      </trkpt>
      <trkpt lat="48.38674" lon="-3.91193">
        <ele>291.60000610352</ele>
        <time>2021-09-12T12:50:09Z</time>
      </trkpt>
      <trkpt lat="48.38673" lon="-3.91187">
        <ele>291.39999389648</ele>
        <time>2021-09-12T12:50:10Z</time>
      </trkpt>
      <trkpt lat="48.38672" lon="-3.91181">
        <ele>291.39999389648</ele>
        <time>2021-09-12T12:50:11Z</time>
      </trkpt>
      <trkpt lat="48.3867" lon="-3.91176">
        <ele>291.39999389648</ele>
        <time>2021-09-12T12:50:12Z</time>
      </trkpt>
      <trkpt lat="48.3867" lon="-3.91171">
        <ele>291.20001220703</ele>
        <time>2021-09-12T12:50:13Z</time>
      </trkpt>
      <trkpt lat="48.38669" lon="-3.91165">
        <ele>291.20001220703</ele>
        <time>2021-09-12T12:50:14Z</time>
      </trkpt>
      <trkpt lat="48.38668" lon="-3.91159">
        <ele>290.60000610352</ele>
        <time>2021-09-12T12:50:15Z</time>
      </trkpt>
      <trkpt lat="48.38669" lon="-3.91153">
        <ele>290.20001220703</ele>
        <time>2021-09-12T12:50:16Z</time>
      </trkpt>
      <trkpt lat="48.38669" lon="-3.91147">
        <ele>289.39999389648</ele>
        <time>2021-09-12T12:50:17Z</time>
      </trkpt>
      <trkpt lat="48.38669" lon="-3.91141">
        <ele>288.79998779297</ele>
        <time>2021-09-12T12:50:18Z</time>
      </trkpt>
      <trkpt lat="48.38668" lon="-3.91136">
        <ele>288.39999389648</ele>
        <time>2021-09-12T12:50:19Z</time>
      </trkpt>
      <trkpt lat="48.38665" lon="-3.91132">
        <ele>287.20001220703</ele>
        <time>2021-09-12T12:50:20Z</time>
      </trkpt>
      <trkpt lat="48.38661" lon="-3.91127">
        <ele>286.20001220703</ele>
        <time>2021-09-12T12:50:21Z</time>
      </trkpt>
      <trkpt lat="48.38657" lon="-3.91122">
        <ele>285.79998779297</ele>
        <time>2021-09-12T12:50:22Z</time>
      </trkpt>
      <trkpt lat="48.38653" lon="-3.91117">
        <ele>285.60000610352</ele>
        <time>2021-09-12T12:50:23Z</time>
      </trkpt>
      <trkpt lat="48.38649" lon="-3.91111">
        <ele>284.79998779297</ele>
        <time>2021-09-12T12:50:24Z</time>
      </trkpt>
      <trkpt lat="48.38645" lon="-3.91104">
        <ele>284.60000610352</ele>
        <time>2021-09-12T12:50:25Z</time>
      </trkpt>
      <trkpt lat="48.38639" lon="-3.91096">
        <ele>284.20001220703</ele>
        <time>2021-09-12T12:50:26Z</time>
      </trkpt>
      <trkpt lat="48.38631" lon="-3.91084">
        <ele>282.79998779297</ele>
        <time>2021-09-12T12:50:27Z</time>
      </trkpt>
      <trkpt lat="48.38624" lon="-3.91072">
        <ele>282.20001220703</ele>
        <time>2021-09-12T12:50:28Z</time>
      </trkpt>
      <trkpt lat="48.38618" lon="-3.91061">
        <ele>281</ele>
        <time>2021-09-12T12:50:29Z</time>
      </trkpt>
      <trkpt lat="48.38613" lon="-3.91049">
        <ele>280.39999389648</ele>
        <time>2021-09-12T12:50:30Z</time>
      </trkpt>
      <trkpt lat="48.38607" lon="-3.91034">
        <ele>279.60000610352</ele>
        <time>2021-09-12T12:50:31Z</time>
      </trkpt>
      <trkpt lat="48.38604" lon="-3.91024">
        <ele>279.60000610352</ele>
        <time>2021-09-12T12:50:32Z</time>
      </trkpt>
      <trkpt lat="48.386" lon="-3.91011">
        <ele>279</ele>
        <time>2021-09-12T12:50:33Z</time>
      </trkpt>
      <trkpt lat="48.38597" lon="-3.91001">
        <ele>277.39999389648</ele>
        <time>2021-09-12T12:50:34Z</time>
      </trkpt>
      <trkpt lat="48.38592" lon="-3.90992">
        <ele>275.39999389648</ele>
        <time>2021-09-12T12:50:35Z</time>
      </trkpt>
      <trkpt lat="48.38588" lon="-3.90985">
        <ele>274</ele>
        <time>2021-09-12T12:50:36Z</time>
      </trkpt>
      <trkpt lat="48.38587" lon="-3.90979">
        <ele>273.79998779297</ele>
        <time>2021-09-12T12:50:37Z</time>
      </trkpt>
      <trkpt lat="48.38589" lon="-3.90972">
        <ele>273.20001220703</ele>
        <time>2021-09-12T12:50:38Z</time>
      </trkpt>
      <trkpt lat="48.38592" lon="-3.90965">
        <ele>272.79998779297</ele>
        <time>2021-09-12T12:50:39Z</time>
      </trkpt>
      <trkpt lat="48.38595" lon="-3.90959">
        <ele>272.39999389648</ele>
        <time>2021-09-12T12:50:40Z</time>
      </trkpt>
      <trkpt lat="48.38599" lon="-3.90951">
        <ele>272</ele>
        <time>2021-09-12T12:50:41Z</time>
      </trkpt>
      <trkpt lat="48.38604" lon="-3.90944">
        <ele>271.79998779297</ele>
        <time>2021-09-12T12:50:42Z</time>
      </trkpt>
      <trkpt lat="48.38608" lon="-3.90937">
        <ele>271.60000610352</ele>
        <time>2021-09-12T12:50:43Z</time>
      </trkpt>
      <trkpt lat="48.38611" lon="-3.90931">
        <ele>271</ele>
        <time>2021-09-12T12:50:44Z</time>
      </trkpt>
      <trkpt lat="48.38615" lon="-3.90922">
        <ele>270.79998779297</ele>
        <time>2021-09-12T12:50:45Z</time>
      </trkpt>
      <trkpt lat="48.3862" lon="-3.90912">
        <ele>270.79998779297</ele>
        <time>2021-09-12T12:50:46Z</time>
      </trkpt>
      <trkpt lat="48.38624" lon="-3.90905">
        <ele>270.60000610352</ele>
        <time>2021-09-12T12:50:47Z</time>
      </trkpt>
      <trkpt lat="48.38626" lon="-3.90898">
        <ele>270.60000610352</ele>
        <time>2021-09-12T12:50:48Z</time>
      </trkpt>
      <trkpt lat="48.38627" lon="-3.90893">
        <ele>270.39999389648</ele>
        <time>2021-09-12T12:50:49Z</time>
      </trkpt>
      <trkpt lat="48.38626" lon="-3.90889">
        <ele>270.20001220703</ele>
        <time>2021-09-12T12:50:50Z</time>
      </trkpt>
      <trkpt lat="48.38623" lon="-3.90888">
        <ele>269.79998779297</ele>
        <time>2021-09-12T12:50:51Z</time>
      </trkpt>
      <trkpt lat="48.38618" lon="-3.90891">
        <ele>269.20001220703</ele>
        <time>2021-09-12T12:50:52Z</time>
      </trkpt>
      <trkpt lat="48.38611" lon="-3.90895">
        <ele>268.60000610352</ele>
        <time>2021-09-12T12:50:53Z</time>
      </trkpt>
      <trkpt lat="48.38606" lon="-3.90898">
        <ele>268.39999389648</ele>
        <time>2021-09-12T12:50:54Z</time>
      </trkpt>
      <trkpt lat="48.38597" lon="-3.90904">
        <ele>267.60000610352</ele>
        <time>2021-09-12T12:50:55Z</time>
      </trkpt>
      <trkpt lat="48.38589" lon="-3.90908">
        <ele>267.20001220703</ele>
        <time>2021-09-12T12:50:56Z</time>
      </trkpt>
      <trkpt lat="48.38581" lon="-3.90911">
        <ele>266.60000610352</ele>
        <time>2021-09-12T12:50:57Z</time>
      </trkpt>
      <trkpt lat="48.38572" lon="-3.90917">
        <ele>265.60000610352</ele>
        <time>2021-09-12T12:50:58Z</time>
      </trkpt>
      <trkpt lat="48.38564" lon="-3.90922">
        <ele>265.60000610352</ele>
        <time>2021-09-12T12:50:59Z</time>
      </trkpt>
      <trkpt lat="48.38555" lon="-3.90925">
        <ele>263.79998779297</ele>
        <time>2021-09-12T12:51:00Z</time>
      </trkpt>
      <trkpt lat="48.38548" lon="-3.90925">
        <ele>263.39999389648</ele>
        <time>2021-09-12T12:51:01Z</time>
      </trkpt>
      <trkpt lat="48.3854" lon="-3.90924">
        <ele>262.20001220703</ele>
        <time>2021-09-12T12:51:02Z</time>
      </trkpt>
      <trkpt lat="48.38533" lon="-3.90919">
        <ele>261</ele>
        <time>2021-09-12T12:51:03Z</time>
      </trkpt>
      <trkpt lat="48.38527" lon="-3.90912">
        <ele>259.20001220703</ele>
        <time>2021-09-12T12:51:04Z</time>
      </trkpt>
      <trkpt lat="48.38522" lon="-3.90901">
        <ele>258.79998779297</ele>
        <time>2021-09-12T12:51:05Z</time>
      </trkpt>
      <trkpt lat="48.38519" lon="-3.90889">
        <ele>257.20001220703</ele>
        <time>2021-09-12T12:51:06Z</time>
      </trkpt>
      <trkpt lat="48.38519" lon="-3.90876">
        <ele>256.79998779297</ele>
        <time>2021-09-12T12:51:07Z</time>
      </trkpt>
      <trkpt lat="48.3852" lon="-3.90864">
        <ele>256.39999389648</ele>
        <time>2021-09-12T12:51:08Z</time>
      </trkpt>
      <trkpt lat="48.38521" lon="-3.90851">
        <ele>256</ele>
        <time>2021-09-12T12:51:09Z</time>
      </trkpt>
      <trkpt lat="48.38524" lon="-3.90839">
        <ele>255.39999389648</ele>
        <time>2021-09-12T12:51:10Z</time>
      </trkpt>
      <trkpt lat="48.38528" lon="-3.90828">
        <ele>255.39999389648</ele>
        <time>2021-09-12T12:51:11Z</time>
      </trkpt>
      <trkpt lat="48.38531" lon="-3.90818">
        <ele>255.39999389648</ele>
        <time>2021-09-12T12:51:12Z</time>
      </trkpt>
      <trkpt lat="48.38533" lon="-3.90807">
        <ele>255.39999389648</ele>
        <time>2021-09-12T12:51:13Z</time>
      </trkpt>
      <trkpt lat="48.38535" lon="-3.90799">
        <ele>255.39999389648</ele>
        <time>2021-09-12T12:51:14Z</time>
      </trkpt>
      <trkpt lat="48.38537" lon="-3.9079">
        <ele>255.60000610352</ele>
        <time>2021-09-12T12:51:15Z</time>
      </trkpt>
      <trkpt lat="48.38541" lon="-3.90784">
        <ele>255.60000610352</ele>
        <time>2021-09-12T12:51:16Z</time>
      </trkpt>
      <trkpt lat="48.38545" lon="-3.90779">
        <ele>255.80000305176</ele>
        <time>2021-09-12T12:51:17Z</time>
      </trkpt>
      <trkpt lat="48.38548" lon="-3.90774">
        <ele>255.80000305176</ele>
        <time>2021-09-12T12:51:18Z</time>
      </trkpt>
      <trkpt lat="48.38552" lon="-3.90771">
        <ele>256</ele>
        <time>2021-09-12T12:51:19Z</time>
      </trkpt>
      <trkpt lat="48.38555" lon="-3.90768">
        <ele>256</ele>
        <time>2021-09-12T12:51:20Z</time>
      </trkpt>
      <trkpt lat="48.38559" lon="-3.90766">
        <ele>256.39999389648</ele>
        <time>2021-09-12T12:51:21Z</time>
      </trkpt>
      <trkpt lat="48.38561" lon="-3.90765">
        <ele>256.39999389648</ele>
        <time>2021-09-12T12:51:22Z</time>
      </trkpt>
      <trkpt lat="48.38564" lon="-3.90765">
        <ele>256.39999389648</ele>
        <time>2021-09-12T12:51:23Z</time>
      </trkpt>
      <trkpt lat="48.38567" lon="-3.90764">
        <ele>256.39999389648</ele>
        <time>2021-09-12T12:51:24Z</time>
      </trkpt>
      <trkpt lat="48.38569" lon="-3.90762">
        <ele>257</ele>
        <time>2021-09-12T12:51:25Z</time>
      </trkpt>
      <trkpt lat="48.38572" lon="-3.90761">
        <ele>257</ele>
        <time>2021-09-12T12:51:26Z</time>
      </trkpt>
      <trkpt lat="48.38575" lon="-3.90758">
        <ele>257.20001220703</ele>
        <time>2021-09-12T12:51:27Z</time>
      </trkpt>
      <trkpt lat="48.38579" lon="-3.90757">
        <ele>257.20001220703</ele>
        <time>2021-09-12T12:51:28Z</time>
      </trkpt>
      <trkpt lat="48.38582" lon="-3.90755">
        <ele>257.60000610352</ele>
        <time>2021-09-12T12:51:29Z</time>
      </trkpt>
      <trkpt lat="48.38585" lon="-3.90753">
        <ele>257.60000610352</ele>
        <time>2021-09-12T12:51:30Z</time>
      </trkpt>
      <trkpt lat="48.38588" lon="-3.9075">
        <ele>257.79998779297</ele>
        <time>2021-09-12T12:51:31Z</time>
      </trkpt>
      <trkpt lat="48.3859" lon="-3.90748">
        <ele>257.79998779297</ele>
        <time>2021-09-12T12:51:32Z</time>
      </trkpt>
      <trkpt lat="48.38593" lon="-3.90745">
        <ele>258</ele>
        <time>2021-09-12T12:51:33Z</time>
      </trkpt>
      <trkpt lat="48.38596" lon="-3.90743">
        <ele>258</ele>
        <time>2021-09-12T12:51:34Z</time>
      </trkpt>
      <trkpt lat="48.38598" lon="-3.90742">
        <ele>258.20001220703</ele>
        <time>2021-09-12T12:51:35Z</time>
      </trkpt>
      <trkpt lat="48.386" lon="-3.9074">
        <ele>258.39999389648</ele>
        <time>2021-09-12T12:51:36Z</time>
      </trkpt>
      <trkpt lat="48.38602" lon="-3.90739">
        <ele>258.39999389648</ele>
        <time>2021-09-12T12:51:37Z</time>
      </trkpt>
      <trkpt lat="48.38604" lon="-3.90737">
        <ele>258.60000610352</ele>
        <time>2021-09-12T12:51:38Z</time>
      </trkpt>
      <trkpt lat="48.38606" lon="-3.90736">
        <ele>258.79998779297</ele>
        <time>2021-09-12T12:51:39Z</time>
      </trkpt>
      <trkpt lat="48.38607" lon="-3.90735">
        <ele>259</ele>
        <time>2021-09-12T12:51:40Z</time>
      </trkpt>
      <trkpt lat="48.38609" lon="-3.90734">
        <ele>259</ele>
        <time>2021-09-12T12:51:41Z</time>
      </trkpt>
      <trkpt lat="48.3861" lon="-3.90733">
        <ele>259</ele>
        <time>2021-09-12T12:51:42Z</time>
      </trkpt>
      <trkpt lat="48.38612" lon="-3.90732">
        <ele>259</ele>
        <time>2021-09-12T12:51:43Z</time>
      </trkpt>
      <trkpt lat="48.38613" lon="-3.90731">
        <ele>259.20001220703</ele>
        <time>2021-09-12T12:51:44Z</time>
      </trkpt>
      <trkpt lat="48.38615" lon="-3.90731">
        <ele>259.20001220703</ele>
        <time>2021-09-12T12:51:45Z</time>
      </trkpt>
      <trkpt lat="48.38616" lon="-3.90731">
        <ele>259.39999389648</ele>
        <time>2021-09-12T12:51:46Z</time>
      </trkpt>
      <trkpt lat="48.38617" lon="-3.9073">
        <ele>259.39999389648</ele>
        <time>2021-09-12T12:51:47Z</time>
      </trkpt>
      <trkpt lat="48.38618" lon="-3.9073">
        <ele>259.60000610352</ele>
        <time>2021-09-12T12:51:48Z</time>
      </trkpt>
      <trkpt lat="48.38619" lon="-3.9073">
        <ele>259.79998779297</ele>
        <time>2021-09-12T12:51:49Z</time>
      </trkpt>
      <trkpt lat="48.38619" lon="-3.9073">
        <ele>259.79998779297</ele>
        <time>2021-09-12T12:51:50Z</time>
      </trkpt>
      <trkpt lat="48.38621" lon="-3.90729">
        <ele>259.79998779297</ele>
        <time>2021-09-12T12:51:51Z</time>
      </trkpt>
      <trkpt lat="48.38621" lon="-3.90728">
        <ele>260</ele>
        <time>2021-09-12T12:51:52Z</time>
      </trkpt>
      <trkpt lat="48.38622" lon="-3.90728">
        <ele>260</ele>
        <time>2021-09-12T12:51:53Z</time>
      </trkpt>
      <trkpt lat="48.38622" lon="-3.90727">
        <ele>260</ele>
        <time>2021-09-12T12:51:54Z</time>
      </trkpt>
      <trkpt lat="48.38622" lon="-3.90727">
        <ele>260</ele>
        <time>2021-09-12T12:51:55Z</time>
      </trkpt>
      <trkpt lat="48.38622" lon="-3.90727">
        <ele>260</ele>
        <time>2021-09-12T12:51:56Z</time>
      </trkpt>
      <trkpt lat="48.38654" lon="-3.90711">
        <ele>261.79998779297</ele>
        <time>2021-09-12T12:52:24Z</time>
      </trkpt>
      <trkpt lat="48.38654" lon="-3.90711">
        <ele>261.79998779297</ele>
        <time>2021-09-12T12:52:25Z</time>
      </trkpt>
      <trkpt lat="48.38654" lon="-3.90712">
        <ele>261.79998779297</ele>
        <time>2021-09-12T12:52:26Z</time>
      </trkpt>
      <trkpt lat="48.38655" lon="-3.90712">
        <ele>261.79998779297</ele>
        <time>2021-09-12T12:52:27Z</time>
      </trkpt>
      <trkpt lat="48.38655" lon="-3.90712">
        <ele>262</ele>
        <time>2021-09-12T12:52:28Z</time>
      </trkpt>
      <trkpt lat="48.38655" lon="-3.90712">
        <ele>262</ele>
        <time>2021-09-12T12:52:29Z</time>
      </trkpt>
      <trkpt lat="48.38656" lon="-3.90712">
        <ele>262.20001220703</ele>
        <time>2021-09-12T12:52:30Z</time>
      </trkpt>
      <trkpt lat="48.38657" lon="-3.90712">
        <ele>262.20001220703</ele>
        <time>2021-09-12T12:52:31Z</time>
      </trkpt>
      <trkpt lat="48.38658" lon="-3.90711">
        <ele>262.39999389648</ele>
        <time>2021-09-12T12:52:32Z</time>
      </trkpt>
      <trkpt lat="48.38659" lon="-3.9071">
        <ele>262.39999389648</ele>
        <time>2021-09-12T12:52:33Z</time>
      </trkpt>
      <trkpt lat="48.3866" lon="-3.90709">
        <ele>262.60000610352</ele>
        <time>2021-09-12T12:52:34Z</time>
      </trkpt>
      <trkpt lat="48.38661" lon="-3.90708">
        <ele>262.60000610352</ele>
        <time>2021-09-12T12:52:35Z</time>
      </trkpt>
      <trkpt lat="48.38662" lon="-3.90708">
        <ele>262.60000610352</ele>
        <time>2021-09-12T12:52:36Z</time>
      </trkpt>
      <trkpt lat="48.38663" lon="-3.90707">
        <ele>262.60000610352</ele>
        <time>2021-09-12T12:52:37Z</time>
      </trkpt>
      <trkpt lat="48.38664" lon="-3.90707">
        <ele>262.60000610352</ele>
        <time>2021-09-12T12:52:38Z</time>
      </trkpt>
      <trkpt lat="48.38666" lon="-3.90706">
        <ele>262.79998779297</ele>
        <time>2021-09-12T12:52:39Z</time>
      </trkpt>
      <trkpt lat="48.38667" lon="-3.90706">
        <ele>263</ele>
        <time>2021-09-12T12:52:40Z</time>
      </trkpt>
      <trkpt lat="48.38668" lon="-3.90706">
        <ele>263</ele>
        <time>2021-09-12T12:52:41Z</time>
      </trkpt>
      <trkpt lat="48.38669" lon="-3.90705">
        <ele>263</ele>
        <time>2021-09-12T12:52:42Z</time>
      </trkpt>
      <trkpt lat="48.38669" lon="-3.90704">
        <ele>263.20001220703</ele>
        <time>2021-09-12T12:52:43Z</time>
      </trkpt>
      <trkpt lat="48.38669" lon="-3.90704">
        <ele>263.39999389648</ele>
        <time>2021-09-12T12:52:44Z</time>
      </trkpt>
      <trkpt lat="48.38669" lon="-3.90704">
        <ele>263.39999389648</ele>
        <time>2021-09-12T12:52:45Z</time>
      </trkpt>
      <trkpt lat="48.38703" lon="-3.90682">
        <ele>266.39999389648</ele>
        <time>2021-09-12T12:53:16Z</time>
      </trkpt>
      <trkpt lat="48.38705" lon="-3.90679">
        <ele>266.60000610352</ele>
        <time>2021-09-12T12:53:17Z</time>
      </trkpt>
      <trkpt lat="48.38708" lon="-3.90677">
        <ele>266.60000610352</ele>
        <time>2021-09-12T12:53:18Z</time>
      </trkpt>
      <trkpt lat="48.38709" lon="-3.90675">
        <ele>267</ele>
        <time>2021-09-12T12:53:19Z</time>
      </trkpt>
      <trkpt lat="48.3871" lon="-3.90674">
        <ele>267.20001220703</ele>
        <time>2021-09-12T12:53:20Z</time>
      </trkpt>
      <trkpt lat="48.38712" lon="-3.90673">
        <ele>267.20001220703</ele>
        <time>2021-09-12T12:53:21Z</time>
      </trkpt>
      <trkpt lat="48.38715" lon="-3.90672">
        <ele>267.39999389648</ele>
        <time>2021-09-12T12:53:22Z</time>
      </trkpt>
      <trkpt lat="48.38717" lon="-3.90671">
        <ele>267.39999389648</ele>
        <time>2021-09-12T12:53:23Z</time>
      </trkpt>
      <trkpt lat="48.38718" lon="-3.9067">
        <ele>267.60000610352</ele>
        <time>2021-09-12T12:53:24Z</time>
      </trkpt>
      <trkpt lat="48.3872" lon="-3.90669">
        <ele>268</ele>
        <time>2021-09-12T12:53:25Z</time>
      </trkpt>
      <trkpt lat="48.38721" lon="-3.90669">
        <ele>268.20001220703</ele>
        <time>2021-09-12T12:53:26Z</time>
      </trkpt>
      <trkpt lat="48.38723" lon="-3.90667">
        <ele>268.39999389648</ele>
        <time>2021-09-12T12:53:27Z</time>
      </trkpt>
      <trkpt lat="48.38724" lon="-3.90667">
        <ele>268.39999389648</ele>
        <time>2021-09-12T12:53:28Z</time>
      </trkpt>
      <trkpt lat="48.38726" lon="-3.90667">
        <ele>268.79998779297</ele>
        <time>2021-09-12T12:53:29Z</time>
      </trkpt>
      <trkpt lat="48.38728" lon="-3.90667">
        <ele>268.79998779297</ele>
        <time>2021-09-12T12:53:30Z</time>
      </trkpt>
      <trkpt lat="48.38729" lon="-3.90666">
        <ele>269</ele>
        <time>2021-09-12T12:53:31Z</time>
      </trkpt>
      <trkpt lat="48.3873" lon="-3.90666">
        <ele>269</ele>
        <time>2021-09-12T12:53:32Z</time>
      </trkpt>
      <trkpt lat="48.38732" lon="-3.90665">
        <ele>269.39999389648</ele>
        <time>2021-09-12T12:53:33Z</time>
      </trkpt>
      <trkpt lat="48.38733" lon="-3.90664">
        <ele>269.39999389648</ele>
        <time>2021-09-12T12:53:34Z</time>
      </trkpt>
      <trkpt lat="48.38734" lon="-3.90663">
        <ele>269.60000610352</ele>
        <time>2021-09-12T12:53:35Z</time>
      </trkpt>
      <trkpt lat="48.38736" lon="-3.90663">
        <ele>270</ele>
        <time>2021-09-12T12:53:36Z</time>
      </trkpt>
      <trkpt lat="48.38738" lon="-3.90662">
        <ele>270.39999389648</ele>
        <time>2021-09-12T12:53:37Z</time>
      </trkpt>
      <trkpt lat="48.38739" lon="-3.90661">
        <ele>270.79998779297</ele>
        <time>2021-09-12T12:53:38Z</time>
      </trkpt>
      <trkpt lat="48.38741" lon="-3.9066">
        <ele>270.79998779297</ele>
        <time>2021-09-12T12:53:39Z</time>
      </trkpt>
      <trkpt lat="48.38742" lon="-3.9066">
        <ele>271</ele>
        <time>2021-09-12T12:53:40Z</time>
      </trkpt>
      <trkpt lat="48.38744" lon="-3.90659">
        <ele>271</ele>
        <time>2021-09-12T12:53:41Z</time>
      </trkpt>
      <trkpt lat="48.38746" lon="-3.90658">
        <ele>271.20001220703</ele>
        <time>2021-09-12T12:53:42Z</time>
      </trkpt>
      <trkpt lat="48.38748" lon="-3.90657">
        <ele>271.39999389648</ele>
        <time>2021-09-12T12:53:43Z</time>
      </trkpt>
      <trkpt lat="48.38749" lon="-3.90655">
        <ele>271.79998779297</ele>
        <time>2021-09-12T12:53:44Z</time>
      </trkpt>
      <trkpt lat="48.38751" lon="-3.90654">
        <ele>272</ele>
        <time>2021-09-12T12:53:45Z</time>
      </trkpt>
      <trkpt lat="48.38753" lon="-3.90653">
        <ele>272</ele>
        <time>2021-09-12T12:53:46Z</time>
      </trkpt>
      <trkpt lat="48.38755" lon="-3.9065">
        <ele>272</ele>
        <time>2021-09-12T12:53:47Z</time>
      </trkpt>
      <trkpt lat="48.38757" lon="-3.90648">
        <ele>272.20001220703</ele>
        <time>2021-09-12T12:53:48Z</time>
      </trkpt>
      <trkpt lat="48.38759" lon="-3.90645">
        <ele>272.39999389648</ele>
        <time>2021-09-12T12:53:49Z</time>
      </trkpt>
      <trkpt lat="48.38761" lon="-3.90643">
        <ele>272.60000610352</ele>
        <time>2021-09-12T12:53:50Z</time>
      </trkpt>
      <trkpt lat="48.38764" lon="-3.9064">
        <ele>272.60000610352</ele>
        <time>2021-09-12T12:53:51Z</time>
      </trkpt>
      <trkpt lat="48.38767" lon="-3.90637">
        <ele>272.60000610352</ele>
        <time>2021-09-12T12:53:52Z</time>
      </trkpt>
      <trkpt lat="48.3877" lon="-3.90634">
        <ele>272.79998779297</ele>
        <time>2021-09-12T12:53:53Z</time>
      </trkpt>
      <trkpt lat="48.38773" lon="-3.9063">
        <ele>272.79998779297</ele>
        <time>2021-09-12T12:53:54Z</time>
      </trkpt>
      <trkpt lat="48.38776" lon="-3.90627">
        <ele>273</ele>
        <time>2021-09-12T12:53:55Z</time>
      </trkpt>
      <trkpt lat="48.38779" lon="-3.90624">
        <ele>273.20001220703</ele>
        <time>2021-09-12T12:53:56Z</time>
      </trkpt>
      <trkpt lat="48.38782" lon="-3.9062">
        <ele>273.39999389648</ele>
        <time>2021-09-12T12:53:57Z</time>
      </trkpt>
      <trkpt lat="48.38786" lon="-3.90616">
        <ele>273.39999389648</ele>
        <time>2021-09-12T12:53:58Z</time>
      </trkpt>
      <trkpt lat="48.38789" lon="-3.90612">
        <ele>273.39999389648</ele>
        <time>2021-09-12T12:53:59Z</time>
      </trkpt>
      <trkpt lat="48.38792" lon="-3.90609">
        <ele>273.39999389648</ele>
        <time>2021-09-12T12:54:00Z</time>
      </trkpt>
      <trkpt lat="48.38796" lon="-3.90604">
        <ele>273.20001220703</ele>
        <time>2021-09-12T12:54:01Z</time>
      </trkpt>
      <trkpt lat="48.38799" lon="-3.906">
        <ele>273.20001220703</ele>
        <time>2021-09-12T12:54:02Z</time>
      </trkpt>
      <trkpt lat="48.38803" lon="-3.90596">
        <ele>273.20001220703</ele>
        <time>2021-09-12T12:54:03Z</time>
      </trkpt>
      <trkpt lat="48.38806" lon="-3.90591">
        <ele>273.20001220703</ele>
        <time>2021-09-12T12:54:04Z</time>
      </trkpt>
      <trkpt lat="48.3881" lon="-3.90587">
        <ele>273</ele>
        <time>2021-09-12T12:54:05Z</time>
      </trkpt>
      <trkpt lat="48.38813" lon="-3.90583">
        <ele>273</ele>
        <time>2021-09-12T12:54:06Z</time>
      </trkpt>
      <trkpt lat="48.38817" lon="-3.90578">
        <ele>273</ele>
        <time>2021-09-12T12:54:07Z</time>
      </trkpt>
      <trkpt lat="48.3882" lon="-3.90574">
        <ele>272.79998779297</ele>
        <time>2021-09-12T12:54:08Z</time>
      </trkpt>
      <trkpt lat="48.38826" lon="-3.90568">
        <ele>272.39999389648</ele>
        <time>2021-09-12T12:54:09Z</time>
      </trkpt>
      <trkpt lat="48.3883" lon="-3.90562">
        <ele>272.20001220703</ele>
        <time>2021-09-12T12:54:10Z</time>
      </trkpt>
      <trkpt lat="48.38834" lon="-3.90556">
        <ele>272</ele>
        <time>2021-09-12T12:54:11Z</time>
      </trkpt>
      <trkpt lat="48.38838" lon="-3.90551">
        <ele>271.39999389648</ele>
        <time>2021-09-12T12:54:12Z</time>
      </trkpt>
      <trkpt lat="48.38843" lon="-3.90545">
        <ele>271</ele>
        <time>2021-09-12T12:54:13Z</time>
      </trkpt>
      <trkpt lat="48.38848" lon="-3.90539">
        <ele>270.79998779297</ele>
        <time>2021-09-12T12:54:14Z</time>
      </trkpt>
      <trkpt lat="48.38854" lon="-3.90531">
        <ele>270.60000610352</ele>
        <time>2021-09-12T12:54:15Z</time>
      </trkpt>
      <trkpt lat="48.38858" lon="-3.90525">
        <ele>270.39999389648</ele>
        <time>2021-09-12T12:54:16Z</time>
      </trkpt>
      <trkpt lat="48.38863" lon="-3.90517">
        <ele>269.79998779297</ele>
        <time>2021-09-12T12:54:17Z</time>
      </trkpt>
      <trkpt lat="48.38867" lon="-3.90507">
        <ele>269.60000610352</ele>
        <time>2021-09-12T12:54:18Z</time>
      </trkpt>
      <trkpt lat="48.38871" lon="-3.90498">
        <ele>269.20001220703</ele>
        <time>2021-09-12T12:54:19Z</time>
      </trkpt>
      <trkpt lat="48.38875" lon="-3.90487">
        <ele>269.20001220703</ele>
        <time>2021-09-12T12:54:20Z</time>
      </trkpt>
      <trkpt lat="48.38878" lon="-3.90476">
        <ele>267.60000610352</ele>
        <time>2021-09-12T12:54:21Z</time>
      </trkpt>
      <trkpt lat="48.3888" lon="-3.90464">
        <ele>267</ele>
        <time>2021-09-12T12:54:22Z</time>
      </trkpt>
      <trkpt lat="48.3888" lon="-3.9045">
        <ele>267</ele>
        <time>2021-09-12T12:54:23Z</time>
      </trkpt>
      <trkpt lat="48.3888" lon="-3.90437">
        <ele>267</ele>
        <time>2021-09-12T12:54:24Z</time>
      </trkpt>
      <trkpt lat="48.38878" lon="-3.9042">
        <ele>265.79998779297</ele>
        <time>2021-09-12T12:54:25Z</time>
      </trkpt>
      <trkpt lat="48.38876" lon="-3.90409">
        <ele>265</ele>
        <time>2021-09-12T12:54:26Z</time>
      </trkpt>
      <trkpt lat="48.38873" lon="-3.90397">
        <ele>264.79998779297</ele>
        <time>2021-09-12T12:54:27Z</time>
      </trkpt>
      <trkpt lat="48.38869" lon="-3.90386">
        <ele>264.39999389648</ele>
        <time>2021-09-12T12:54:28Z</time>
      </trkpt>
      <trkpt lat="48.38864" lon="-3.90372">
        <ele>263.60000610352</ele>
        <time>2021-09-12T12:54:29Z</time>
      </trkpt>
      <trkpt lat="48.38858" lon="-3.9036">
        <ele>262.79998779297</ele>
        <time>2021-09-12T12:54:30Z</time>
      </trkpt>
      <trkpt lat="48.38852" lon="-3.90348">
        <ele>262.39999389648</ele>
        <time>2021-09-12T12:54:31Z</time>
      </trkpt>
      <trkpt lat="48.38846" lon="-3.90336">
        <ele>262</ele>
        <time>2021-09-12T12:54:32Z</time>
      </trkpt>
      <trkpt lat="48.3884" lon="-3.90324">
        <ele>260.39999389648</ele>
        <time>2021-09-12T12:54:33Z</time>
      </trkpt>
      <trkpt lat="48.38835" lon="-3.90311">
        <ele>259.60000610352</ele>
        <time>2021-09-12T12:54:34Z</time>
      </trkpt>
      <trkpt lat="48.3883" lon="-3.90298">
        <ele>259.39999389648</ele>
        <time>2021-09-12T12:54:35Z</time>
      </trkpt>
      <trkpt lat="48.38827" lon="-3.90283">
        <ele>259</ele>
        <time>2021-09-12T12:54:36Z</time>
      </trkpt>
      <trkpt lat="48.38825" lon="-3.90267">
        <ele>258</ele>
        <time>2021-09-12T12:54:37Z</time>
      </trkpt>
      <trkpt lat="48.38825" lon="-3.90252">
        <ele>257</ele>
        <time>2021-09-12T12:54:38Z</time>
      </trkpt>
      <trkpt lat="48.38826" lon="-3.90237">
        <ele>256.60000610352</ele>
        <time>2021-09-12T12:54:39Z</time>
      </trkpt>
      <trkpt lat="48.38828" lon="-3.90223">
        <ele>256</ele>
        <time>2021-09-12T12:54:40Z</time>
      </trkpt>
      <trkpt lat="48.38831" lon="-3.9021">
        <ele>256</ele>
        <time>2021-09-12T12:54:41Z</time>
      </trkpt>
      <trkpt lat="48.38834" lon="-3.90201">
        <ele>256</ele>
        <time>2021-09-12T12:54:42Z</time>
      </trkpt>
      <trkpt lat="48.38837" lon="-3.90189">
        <ele>256</ele>
        <time>2021-09-12T12:54:43Z</time>
      </trkpt>
      <trkpt lat="48.3884" lon="-3.90178">
        <ele>256</ele>
        <time>2021-09-12T12:54:44Z</time>
      </trkpt>
      <trkpt lat="48.38843" lon="-3.90167">
        <ele>256</ele>
        <time>2021-09-12T12:54:45Z</time>
      </trkpt>
      <trkpt lat="48.38846" lon="-3.90159">
        <ele>256</ele>
        <time>2021-09-12T12:54:46Z</time>
      </trkpt>
      <trkpt lat="48.38848" lon="-3.9015">
        <ele>256</ele>
        <time>2021-09-12T12:54:47Z</time>
      </trkpt>
      <trkpt lat="48.3885" lon="-3.90142">
        <ele>256</ele>
        <time>2021-09-12T12:54:48Z</time>
      </trkpt>
      <trkpt lat="48.38852" lon="-3.90131">
        <ele>255.60000610352</ele>
        <time>2021-09-12T12:54:49Z</time>
      </trkpt>
      <trkpt lat="48.38853" lon="-3.90122">
        <ele>255.60000610352</ele>
        <time>2021-09-12T12:54:50Z</time>
      </trkpt>
      <trkpt lat="48.38854" lon="-3.90114">
        <ele>255.60000610352</ele>
        <time>2021-09-12T12:54:51Z</time>
      </trkpt>
      <trkpt lat="48.38855" lon="-3.90104">
        <ele>255.39999389648</ele>
        <time>2021-09-12T12:54:52Z</time>
      </trkpt>
      <trkpt lat="48.38856" lon="-3.90092">
        <ele>255</ele>
        <time>2021-09-12T12:54:53Z</time>
      </trkpt>
      <trkpt lat="48.38857" lon="-3.90082">
        <ele>254.60000610352</ele>
        <time>2021-09-12T12:54:54Z</time>
      </trkpt>
      <trkpt lat="48.38859" lon="-3.90072">
        <ele>254.19999694824</ele>
        <time>2021-09-12T12:54:55Z</time>
      </trkpt>
      <trkpt lat="48.3886" lon="-3.90063">
        <ele>254</ele>
        <time>2021-09-12T12:54:56Z</time>
      </trkpt>
      <trkpt lat="48.38861" lon="-3.90052">
        <ele>253.80000305176</ele>
        <time>2021-09-12T12:54:57Z</time>
      </trkpt>
      <trkpt lat="48.38863" lon="-3.90039">
        <ele>253.19999694824</ele>
        <time>2021-09-12T12:54:58Z</time>
      </trkpt>
      <trkpt lat="48.38863" lon="-3.90027">
        <ele>252.60000610352</ele>
        <time>2021-09-12T12:54:59Z</time>
      </trkpt>
      <trkpt lat="48.38864" lon="-3.90014">
        <ele>252.60000610352</ele>
        <time>2021-09-12T12:55:00Z</time>
      </trkpt>
      <trkpt lat="48.38865" lon="-3.90001">
        <ele>251.80000305176</ele>
        <time>2021-09-12T12:55:01Z</time>
      </trkpt>
      <trkpt lat="48.38866" lon="-3.8999">
        <ele>251.60000610352</ele>
        <time>2021-09-12T12:55:02Z</time>
      </trkpt>
      <trkpt lat="48.38867" lon="-3.89974">
        <ele>251</ele>
        <time>2021-09-12T12:55:03Z</time>
      </trkpt>
      <trkpt lat="48.38867" lon="-3.89961">
        <ele>250.60000610352</ele>
        <time>2021-09-12T12:55:04Z</time>
      </trkpt>
      <trkpt lat="48.38867" lon="-3.89948">
        <ele>250</ele>
        <time>2021-09-12T12:55:05Z</time>
      </trkpt>
      <trkpt lat="48.38868" lon="-3.89937">
        <ele>249.39999389648</ele>
        <time>2021-09-12T12:55:06Z</time>
      </trkpt>
      <trkpt lat="48.38869" lon="-3.89922">
        <ele>248.80000305176</ele>
        <time>2021-09-12T12:55:07Z</time>
      </trkpt>
      <trkpt lat="48.38869" lon="-3.89906">
        <ele>248.19999694824</ele>
        <time>2021-09-12T12:55:08Z</time>
      </trkpt>
      <trkpt lat="48.38869" lon="-3.89892">
        <ele>248</ele>
        <time>2021-09-12T12:55:09Z</time>
      </trkpt>
      <trkpt lat="48.38869" lon="-3.89879">
        <ele>247.80000305176</ele>
        <time>2021-09-12T12:55:10Z</time>
      </trkpt>
      <trkpt lat="48.38868" lon="-3.89867">
        <ele>247.80000305176</ele>
        <time>2021-09-12T12:55:11Z</time>
      </trkpt>
      <trkpt lat="48.38868" lon="-3.89857">
        <ele>247.60000610352</ele>
        <time>2021-09-12T12:55:12Z</time>
      </trkpt>
      <trkpt lat="48.38866" lon="-3.89845">
        <ele>247.39999389648</ele>
        <time>2021-09-12T12:55:13Z</time>
      </trkpt>
      <trkpt lat="48.38864" lon="-3.89832">
        <ele>247.39999389648</ele>
        <time>2021-09-12T12:55:14Z</time>
      </trkpt>
      <trkpt lat="48.38862" lon="-3.89822">
        <ele>247.39999389648</ele>
        <time>2021-09-12T12:55:15Z</time>
      </trkpt>
      <trkpt lat="48.38859" lon="-3.89813">
        <ele>247.39999389648</ele>
        <time>2021-09-12T12:55:16Z</time>
      </trkpt>
      <trkpt lat="48.38857" lon="-3.89806">
        <ele>247.39999389648</ele>
        <time>2021-09-12T12:55:17Z</time>
      </trkpt>
      <trkpt lat="48.38853" lon="-3.89795">
        <ele>247.39999389648</ele>
        <time>2021-09-12T12:55:18Z</time>
      </trkpt>
      <trkpt lat="48.38849" lon="-3.89787">
        <ele>247.39999389648</ele>
        <time>2021-09-12T12:55:19Z</time>
      </trkpt>
      <trkpt lat="48.38846" lon="-3.89779">
        <ele>247.60000610352</ele>
        <time>2021-09-12T12:55:20Z</time>
      </trkpt>
      <trkpt lat="48.38842" lon="-3.8977">
        <ele>247.60000610352</ele>
        <time>2021-09-12T12:55:21Z</time>
      </trkpt>
      <trkpt lat="48.38839" lon="-3.89761">
        <ele>247.39999389648</ele>
        <time>2021-09-12T12:55:22Z</time>
      </trkpt>
      <trkpt lat="48.38836" lon="-3.89754">
        <ele>247.39999389648</ele>
        <time>2021-09-12T12:55:23Z</time>
      </trkpt>
      <trkpt lat="48.38831" lon="-3.89744">
        <ele>247.39999389648</ele>
        <time>2021-09-12T12:55:24Z</time>
      </trkpt>
      <trkpt lat="48.38828" lon="-3.89734">
        <ele>247.39999389648</ele>
        <time>2021-09-12T12:55:25Z</time>
      </trkpt>
      <trkpt lat="48.38824" lon="-3.89725">
        <ele>247.19999694824</ele>
        <time>2021-09-12T12:55:26Z</time>
      </trkpt>
      <trkpt lat="48.38821" lon="-3.89715">
        <ele>247</ele>
        <time>2021-09-12T12:55:27Z</time>
      </trkpt>
      <trkpt lat="48.38818" lon="-3.89703">
        <ele>247</ele>
        <time>2021-09-12T12:55:28Z</time>
      </trkpt>
      <trkpt lat="48.38815" lon="-3.89692">
        <ele>246.60000610352</ele>
        <time>2021-09-12T12:55:29Z</time>
      </trkpt>
      <trkpt lat="48.38812" lon="-3.89682">
        <ele>246.39999389648</ele>
        <time>2021-09-12T12:55:30Z</time>
      </trkpt>
      <trkpt lat="48.38809" lon="-3.89673">
        <ele>246.39999389648</ele>
        <time>2021-09-12T12:55:31Z</time>
      </trkpt>
      <trkpt lat="48.38806" lon="-3.8966">
        <ele>246.39999389648</ele>
        <time>2021-09-12T12:55:32Z</time>
      </trkpt>
      <trkpt lat="48.38803" lon="-3.89649">
        <ele>246.39999389648</ele>
        <time>2021-09-12T12:55:33Z</time>
      </trkpt>
      <trkpt lat="48.388" lon="-3.89638">
        <ele>246.19999694824</ele>
        <time>2021-09-12T12:55:34Z</time>
      </trkpt>
      <trkpt lat="48.38797" lon="-3.89627">
        <ele>246.19999694824</ele>
        <time>2021-09-12T12:55:35Z</time>
      </trkpt>
      <trkpt lat="48.38795" lon="-3.89618">
        <ele>246.19999694824</ele>
        <time>2021-09-12T12:55:36Z</time>
      </trkpt>
      <trkpt lat="48.38792" lon="-3.89608">
        <ele>246</ele>
        <time>2021-09-12T12:55:37Z</time>
      </trkpt>
      <trkpt lat="48.38788" lon="-3.89596">
        <ele>245.80000305176</ele>
        <time>2021-09-12T12:55:38Z</time>
      </trkpt>
      <trkpt lat="48.38786" lon="-3.89586">
        <ele>245.80000305176</ele>
        <time>2021-09-12T12:55:39Z</time>
      </trkpt>
      <trkpt lat="48.38783" lon="-3.89575">
        <ele>245.80000305176</ele>
        <time>2021-09-12T12:55:40Z</time>
      </trkpt>
      <trkpt lat="48.3878" lon="-3.89567">
        <ele>245.80000305176</ele>
        <time>2021-09-12T12:55:41Z</time>
      </trkpt>
      <trkpt lat="48.38777" lon="-3.89556">
        <ele>245.80000305176</ele>
        <time>2021-09-12T12:55:42Z</time>
      </trkpt>
      <trkpt lat="48.38774" lon="-3.89544">
        <ele>245.80000305176</ele>
        <time>2021-09-12T12:55:43Z</time>
      </trkpt>
      <trkpt lat="48.38771" lon="-3.89533">
        <ele>245.80000305176</ele>
        <time>2021-09-12T12:55:44Z</time>
      </trkpt>
      <trkpt lat="48.38768" lon="-3.89523">
        <ele>246</ele>
        <time>2021-09-12T12:55:45Z</time>
      </trkpt>
      <trkpt lat="48.38766" lon="-3.89512">
        <ele>246</ele>
        <time>2021-09-12T12:55:46Z</time>
      </trkpt>
      <trkpt lat="48.38764" lon="-3.89504">
        <ele>246.19999694824</ele>
        <time>2021-09-12T12:55:47Z</time>
      </trkpt>
      <trkpt lat="48.38762" lon="-3.89492">
        <ele>246.19999694824</ele>
        <time>2021-09-12T12:55:48Z</time>
      </trkpt>
      <trkpt lat="48.38761" lon="-3.89483">
        <ele>246.19999694824</ele>
        <time>2021-09-12T12:55:49Z</time>
      </trkpt>
      <trkpt lat="48.38759" lon="-3.89471">
        <ele>246.19999694824</ele>
        <time>2021-09-12T12:55:50Z</time>
      </trkpt>
      <trkpt lat="48.38758" lon="-3.89463">
        <ele>246.19999694824</ele>
        <time>2021-09-12T12:55:51Z</time>
      </trkpt>
      <trkpt lat="48.38757" lon="-3.89453">
        <ele>246.19999694824</ele>
        <time>2021-09-12T12:55:52Z</time>
      </trkpt>
      <trkpt lat="48.38757" lon="-3.89441">
        <ele>246</ele>
        <time>2021-09-12T12:55:53Z</time>
      </trkpt>
      <trkpt lat="48.38757" lon="-3.89431">
        <ele>246</ele>
        <time>2021-09-12T12:55:54Z</time>
      </trkpt>
      <trkpt lat="48.38758" lon="-3.89421">
        <ele>246.19999694824</ele>
        <time>2021-09-12T12:55:55Z</time>
      </trkpt>
      <trkpt lat="48.38758" lon="-3.89413">
        <ele>246.19999694824</ele>
        <time>2021-09-12T12:55:56Z</time>
      </trkpt>
      <trkpt lat="48.38759" lon="-3.89405">
        <ele>246.19999694824</ele>
        <time>2021-09-12T12:55:57Z</time>
      </trkpt>
      <trkpt lat="48.3876" lon="-3.89394">
        <ele>246.19999694824</ele>
        <time>2021-09-12T12:55:58Z</time>
      </trkpt>
      <trkpt lat="48.3876" lon="-3.89386">
        <ele>246.19999694824</ele>
        <time>2021-09-12T12:55:59Z</time>
      </trkpt>
      <trkpt lat="48.38758" lon="-3.89381">
        <ele>246.19999694824</ele>
        <time>2021-09-12T12:56:00Z</time>
      </trkpt>
      <trkpt lat="48.38755" lon="-3.89378">
        <ele>246.19999694824</ele>
        <time>2021-09-12T12:56:01Z</time>
      </trkpt>
      <trkpt lat="48.38751" lon="-3.89376">
        <ele>246.19999694824</ele>
        <time>2021-09-12T12:56:02Z</time>
      </trkpt>
      <trkpt lat="48.38746" lon="-3.89374">
        <ele>246.19999694824</ele>
        <time>2021-09-12T12:56:03Z</time>
      </trkpt>
      <trkpt lat="48.38743" lon="-3.89371">
        <ele>246.19999694824</ele>
        <time>2021-09-12T12:56:04Z</time>
      </trkpt>
      <trkpt lat="48.3874" lon="-3.89369">
        <ele>246.19999694824</ele>
        <time>2021-09-12T12:56:05Z</time>
      </trkpt>
      <trkpt lat="48.38737" lon="-3.89368">
        <ele>246.19999694824</ele>
        <time>2021-09-12T12:56:06Z</time>
      </trkpt>
      <trkpt lat="48.38734" lon="-3.89366">
        <ele>246.19999694824</ele>
        <time>2021-09-12T12:56:07Z</time>
      </trkpt>
      <trkpt lat="48.3873" lon="-3.89364">
        <ele>246.19999694824</ele>
        <time>2021-09-12T12:56:08Z</time>
      </trkpt>
      <trkpt lat="48.38726" lon="-3.89362">
        <ele>246.19999694824</ele>
        <time>2021-09-12T12:56:09Z</time>
      </trkpt>
      <trkpt lat="48.38724" lon="-3.8936">
        <ele>246.39999389648</ele>
        <time>2021-09-12T12:56:10Z</time>
      </trkpt>
      <trkpt lat="48.3872" lon="-3.89358">
        <ele>246.60000610352</ele>
        <time>2021-09-12T12:56:11Z</time>
      </trkpt>
      <trkpt lat="48.38717" lon="-3.89356">
        <ele>246.80000305176</ele>
        <time>2021-09-12T12:56:12Z</time>
      </trkpt>
      <trkpt lat="48.38713" lon="-3.89354">
        <ele>246.80000305176</ele>
        <time>2021-09-12T12:56:13Z</time>
      </trkpt>
      <trkpt lat="48.38711" lon="-3.89352">
        <ele>247</ele>
        <time>2021-09-12T12:56:14Z</time>
      </trkpt>
      <trkpt lat="48.38708" lon="-3.89351">
        <ele>247</ele>
        <time>2021-09-12T12:56:15Z</time>
      </trkpt>
      <trkpt lat="48.38706" lon="-3.8935">
        <ele>247.19999694824</ele>
        <time>2021-09-12T12:56:16Z</time>
      </trkpt>
      <trkpt lat="48.38704" lon="-3.89348">
        <ele>247.39999389648</ele>
        <time>2021-09-12T12:56:17Z</time>
      </trkpt>
      <trkpt lat="48.38701" lon="-3.89346">
        <ele>247.80000305176</ele>
        <time>2021-09-12T12:56:18Z</time>
      </trkpt>
      <trkpt lat="48.38699" lon="-3.89345">
        <ele>248</ele>
        <time>2021-09-12T12:56:19Z</time>
      </trkpt>
      <trkpt lat="48.38696" lon="-3.89344">
        <ele>248.39999389648</ele>
        <time>2021-09-12T12:56:20Z</time>
      </trkpt>
      <trkpt lat="48.38694" lon="-3.89343">
        <ele>248.39999389648</ele>
        <time>2021-09-12T12:56:21Z</time>
      </trkpt>
      <trkpt lat="48.38691" lon="-3.89342">
        <ele>248.80000305176</ele>
        <time>2021-09-12T12:56:22Z</time>
      </trkpt>
      <trkpt lat="48.38689" lon="-3.89341">
        <ele>248.80000305176</ele>
        <time>2021-09-12T12:56:23Z</time>
      </trkpt>
      <trkpt lat="48.38687" lon="-3.8934">
        <ele>249.60000610352</ele>
        <time>2021-09-12T12:56:24Z</time>
      </trkpt>
      <trkpt lat="48.38685" lon="-3.89339">
        <ele>249.80000305176</ele>
        <time>2021-09-12T12:56:25Z</time>
      </trkpt>
      <trkpt lat="48.38682" lon="-3.89337">
        <ele>250.19999694824</ele>
        <time>2021-09-12T12:56:26Z</time>
      </trkpt>
      <trkpt lat="48.3868" lon="-3.89336">
        <ele>250.60000610352</ele>
        <time>2021-09-12T12:56:27Z</time>
      </trkpt>
      <trkpt lat="48.38677" lon="-3.89335">
        <ele>250.80000305176</ele>
        <time>2021-09-12T12:56:28Z</time>
      </trkpt>
      <trkpt lat="48.38675" lon="-3.89334">
        <ele>251.19999694824</ele>
        <time>2021-09-12T12:56:29Z</time>
      </trkpt>
      <trkpt lat="48.38673" lon="-3.89334">
        <ele>251.60000610352</ele>
        <time>2021-09-12T12:56:30Z</time>
      </trkpt>
      <trkpt lat="48.38671" lon="-3.89333">
        <ele>251.60000610352</ele>
        <time>2021-09-12T12:56:31Z</time>
      </trkpt>
      <trkpt lat="48.38668" lon="-3.89332">
        <ele>252</ele>
        <time>2021-09-12T12:56:32Z</time>
      </trkpt>
      <trkpt lat="48.38666" lon="-3.89333">
        <ele>252.19999694824</ele>
        <time>2021-09-12T12:56:33Z</time>
      </trkpt>
      <trkpt lat="48.38664" lon="-3.89333">
        <ele>252.39999389648</ele>
        <time>2021-09-12T12:56:34Z</time>
      </trkpt>
      <trkpt lat="48.38661" lon="-3.89333">
        <ele>252.60000610352</ele>
        <time>2021-09-12T12:56:35Z</time>
      </trkpt>
      <trkpt lat="48.38659" lon="-3.89332">
        <ele>253.19999694824</ele>
        <time>2021-09-12T12:56:36Z</time>
      </trkpt>
      <trkpt lat="48.38658" lon="-3.89332">
        <ele>253.39999389648</ele>
        <time>2021-09-12T12:56:37Z</time>
      </trkpt>
      <trkpt lat="48.38657" lon="-3.89332">
        <ele>253.60000610352</ele>
        <time>2021-09-12T12:56:38Z</time>
      </trkpt>
      <trkpt lat="48.38656" lon="-3.89332">
        <ele>253.80000305176</ele>
        <time>2021-09-12T12:56:39Z</time>
      </trkpt>
      <trkpt lat="48.38654" lon="-3.89331">
        <ele>254.19999694824</ele>
        <time>2021-09-12T12:56:40Z</time>
      </trkpt>
      <trkpt lat="48.38653" lon="-3.89331">
        <ele>254.19999694824</ele>
        <time>2021-09-12T12:56:41Z</time>
      </trkpt>
      <trkpt lat="48.38652" lon="-3.89331">
        <ele>254.39999389648</ele>
        <time>2021-09-12T12:56:42Z</time>
      </trkpt>
      <trkpt lat="48.3865" lon="-3.8933">
        <ele>254.80000305176</ele>
        <time>2021-09-12T12:56:43Z</time>
      </trkpt>
      <trkpt lat="48.38648" lon="-3.89329">
        <ele>255</ele>
        <time>2021-09-12T12:56:44Z</time>
      </trkpt>
      <trkpt lat="48.38647" lon="-3.89329">
        <ele>255</ele>
        <time>2021-09-12T12:56:45Z</time>
      </trkpt>
      <trkpt lat="48.38645" lon="-3.89328">
        <ele>255.39999389648</ele>
        <time>2021-09-12T12:56:46Z</time>
      </trkpt>
      <trkpt lat="48.38644" lon="-3.89328">
        <ele>255.39999389648</ele>
        <time>2021-09-12T12:56:47Z</time>
      </trkpt>
      <trkpt lat="48.38642" lon="-3.89327">
        <ele>255.80000305176</ele>
        <time>2021-09-12T12:56:48Z</time>
      </trkpt>
      <trkpt lat="48.38641" lon="-3.89327">
        <ele>256</ele>
        <time>2021-09-12T12:56:49Z</time>
      </trkpt>
      <trkpt lat="48.38639" lon="-3.89325">
        <ele>256.39999389648</ele>
        <time>2021-09-12T12:56:50Z</time>
      </trkpt>
      <trkpt lat="48.38638" lon="-3.89324">
        <ele>256.60000610352</ele>
        <time>2021-09-12T12:56:51Z</time>
      </trkpt>
      <trkpt lat="48.38636" lon="-3.89323">
        <ele>256.79998779297</ele>
        <time>2021-09-12T12:56:52Z</time>
      </trkpt>
      <trkpt lat="48.38634" lon="-3.89322">
        <ele>256.79998779297</ele>
        <time>2021-09-12T12:56:53Z</time>
      </trkpt>
      <trkpt lat="48.38633" lon="-3.89321">
        <ele>257.20001220703</ele>
        <time>2021-09-12T12:56:54Z</time>
      </trkpt>
      <trkpt lat="48.38631" lon="-3.8932">
        <ele>257.39999389648</ele>
        <time>2021-09-12T12:56:55Z</time>
      </trkpt>
      <trkpt lat="48.3863" lon="-3.89319">
        <ele>257.39999389648</ele>
        <time>2021-09-12T12:56:56Z</time>
      </trkpt>
      <trkpt lat="48.38628" lon="-3.89318">
        <ele>257.39999389648</ele>
        <time>2021-09-12T12:56:57Z</time>
      </trkpt>
      <trkpt lat="48.38626" lon="-3.89317">
        <ele>258</ele>
        <time>2021-09-12T12:56:58Z</time>
      </trkpt>
      <trkpt lat="48.38624" lon="-3.89317">
        <ele>258</ele>
        <time>2021-09-12T12:56:59Z</time>
      </trkpt>
      <trkpt lat="48.38622" lon="-3.89316">
        <ele>258.39999389648</ele>
        <time>2021-09-12T12:57:00Z</time>
      </trkpt>
      <trkpt lat="48.3862" lon="-3.89315">
        <ele>258.39999389648</ele>
        <time>2021-09-12T12:57:01Z</time>
      </trkpt>
      <trkpt lat="48.38618" lon="-3.89315">
        <ele>258.60000610352</ele>
        <time>2021-09-12T12:57:02Z</time>
      </trkpt>
      <trkpt lat="48.38616" lon="-3.89315">
        <ele>258.79998779297</ele>
        <time>2021-09-12T12:57:03Z</time>
      </trkpt>
      <trkpt lat="48.38613" lon="-3.89315">
        <ele>259</ele>
        <time>2021-09-12T12:57:04Z</time>
      </trkpt>
      <trkpt lat="48.38611" lon="-3.89315">
        <ele>259.20001220703</ele>
        <time>2021-09-12T12:57:05Z</time>
      </trkpt>
      <trkpt lat="48.38609" lon="-3.89314">
        <ele>259.20001220703</ele>
        <time>2021-09-12T12:57:06Z</time>
      </trkpt>
      <trkpt lat="48.38607" lon="-3.89314">
        <ele>259.20001220703</ele>
        <time>2021-09-12T12:57:07Z</time>
      </trkpt>
      <trkpt lat="48.38604" lon="-3.89313">
        <ele>259.20001220703</ele>
        <time>2021-09-12T12:57:08Z</time>
      </trkpt>
      <trkpt lat="48.38602" lon="-3.89313">
        <ele>259.39999389648</ele>
        <time>2021-09-12T12:57:09Z</time>
      </trkpt>
      <trkpt lat="48.38599" lon="-3.89313">
        <ele>259.39999389648</ele>
        <time>2021-09-12T12:57:10Z</time>
      </trkpt>
      <trkpt lat="48.38597" lon="-3.89313">
        <ele>259.39999389648</ele>
        <time>2021-09-12T12:57:11Z</time>
      </trkpt>
      <trkpt lat="48.38594" lon="-3.89313">
        <ele>259.39999389648</ele>
        <time>2021-09-12T12:57:12Z</time>
      </trkpt>
      <trkpt lat="48.3859" lon="-3.89312">
        <ele>259.39999389648</ele>
        <time>2021-09-12T12:57:13Z</time>
      </trkpt>
      <trkpt lat="48.38587" lon="-3.89311">
        <ele>259.39999389648</ele>
        <time>2021-09-12T12:57:14Z</time>
      </trkpt>
      <trkpt lat="48.38583" lon="-3.89309">
        <ele>259.20001220703</ele>
        <time>2021-09-12T12:57:15Z</time>
      </trkpt>
      <trkpt lat="48.38579" lon="-3.89308">
        <ele>259.20001220703</ele>
        <time>2021-09-12T12:57:16Z</time>
      </trkpt>
      <trkpt lat="48.38574" lon="-3.89308">
        <ele>259</ele>
        <time>2021-09-12T12:57:17Z</time>
      </trkpt>
      <trkpt lat="48.38569" lon="-3.89307">
        <ele>259</ele>
        <time>2021-09-12T12:57:18Z</time>
      </trkpt>
      <trkpt lat="48.38564" lon="-3.89305">
        <ele>258.60000610352</ele>
        <time>2021-09-12T12:57:19Z</time>
      </trkpt>
      <trkpt lat="48.38559" lon="-3.89303">
        <ele>258.20001220703</ele>
        <time>2021-09-12T12:57:20Z</time>
      </trkpt>
      <trkpt lat="48.38554" lon="-3.893">
        <ele>258.20001220703</ele>
        <time>2021-09-12T12:57:21Z</time>
      </trkpt>
      <trkpt lat="48.38548" lon="-3.89298">
        <ele>257.60000610352</ele>
        <time>2021-09-12T12:57:22Z</time>
      </trkpt>
      <trkpt lat="48.38542" lon="-3.89297">
        <ele>257</ele>
        <time>2021-09-12T12:57:23Z</time>
      </trkpt>
      <trkpt lat="48.38537" lon="-3.89296">
        <ele>256.39999389648</ele>
        <time>2021-09-12T12:57:24Z</time>
      </trkpt>
      <trkpt lat="48.38531" lon="-3.89294">
        <ele>256.20001220703</ele>
        <time>2021-09-12T12:57:25Z</time>
      </trkpt>
      <trkpt lat="48.38525" lon="-3.89292">
        <ele>256</ele>
        <time>2021-09-12T12:57:26Z</time>
      </trkpt>
      <trkpt lat="48.3852" lon="-3.89291">
        <ele>255.19999694824</ele>
        <time>2021-09-12T12:57:27Z</time>
      </trkpt>
      <trkpt lat="48.38513" lon="-3.89289">
        <ele>255.19999694824</ele>
        <time>2021-09-12T12:57:28Z</time>
      </trkpt>
      <trkpt lat="48.38507" lon="-3.89287">
        <ele>254.80000305176</ele>
        <time>2021-09-12T12:57:29Z</time>
      </trkpt>
      <trkpt lat="48.38499" lon="-3.89285">
        <ele>254.39999389648</ele>
        <time>2021-09-12T12:57:30Z</time>
      </trkpt>
      <trkpt lat="48.38492" lon="-3.89283">
        <ele>253.39999389648</ele>
        <time>2021-09-12T12:57:31Z</time>
      </trkpt>
      <trkpt lat="48.38485" lon="-3.89281">
        <ele>253.39999389648</ele>
        <time>2021-09-12T12:57:32Z</time>
      </trkpt>
      <trkpt lat="48.38478" lon="-3.89279">
        <ele>253</ele>
        <time>2021-09-12T12:57:33Z</time>
      </trkpt>
      <trkpt lat="48.3847" lon="-3.89276">
        <ele>252.19999694824</ele>
        <time>2021-09-12T12:57:34Z</time>
      </trkpt>
      <trkpt lat="48.38463" lon="-3.89274">
        <ele>252.19999694824</ele>
        <time>2021-09-12T12:57:35Z</time>
      </trkpt>
      <trkpt lat="48.38456" lon="-3.89271">
        <ele>251.39999389648</ele>
        <time>2021-09-12T12:57:36Z</time>
      </trkpt>
      <trkpt lat="48.38448" lon="-3.89268">
        <ele>251.39999389648</ele>
        <time>2021-09-12T12:57:37Z</time>
      </trkpt>
      <trkpt lat="48.38441" lon="-3.89265">
        <ele>251</ele>
        <time>2021-09-12T12:57:38Z</time>
      </trkpt>
      <trkpt lat="48.38435" lon="-3.89264">
        <ele>251</ele>
        <time>2021-09-12T12:57:39Z</time>
      </trkpt>
      <trkpt lat="48.3843" lon="-3.89263">
        <ele>250.39999389648</ele>
        <time>2021-09-12T12:57:40Z</time>
      </trkpt>
      <trkpt lat="48.38423" lon="-3.8926">
        <ele>250.39999389648</ele>
        <time>2021-09-12T12:57:41Z</time>
      </trkpt>
      <trkpt lat="48.38417" lon="-3.89258">
        <ele>250.19999694824</ele>
        <time>2021-09-12T12:57:42Z</time>
      </trkpt>
      <trkpt lat="48.38411" lon="-3.89255">
        <ele>250.19999694824</ele>
        <time>2021-09-12T12:57:43Z</time>
      </trkpt>
      <trkpt lat="48.38406" lon="-3.89252">
        <ele>250.19999694824</ele>
        <time>2021-09-12T12:57:44Z</time>
      </trkpt>
      <trkpt lat="48.38401" lon="-3.89249">
        <ele>250</ele>
        <time>2021-09-12T12:57:45Z</time>
      </trkpt>
      <trkpt lat="48.38396" lon="-3.89247">
        <ele>250</ele>
        <time>2021-09-12T12:57:46Z</time>
      </trkpt>
      <trkpt lat="48.38391" lon="-3.89244">
        <ele>250</ele>
        <time>2021-09-12T12:57:47Z</time>
      </trkpt>
      <trkpt lat="48.38387" lon="-3.89242">
        <ele>249.80000305176</ele>
        <time>2021-09-12T12:57:48Z</time>
      </trkpt>
      <trkpt lat="48.3838" lon="-3.89239">
        <ele>249.80000305176</ele>
        <time>2021-09-12T12:57:49Z</time>
      </trkpt>
      <trkpt lat="48.38376" lon="-3.89237">
        <ele>249.80000305176</ele>
        <time>2021-09-12T12:57:50Z</time>
      </trkpt>
      <trkpt lat="48.38371" lon="-3.89235">
        <ele>250</ele>
        <time>2021-09-12T12:57:51Z</time>
      </trkpt>
      <trkpt lat="48.38366" lon="-3.89234">
        <ele>250</ele>
        <time>2021-09-12T12:57:52Z</time>
      </trkpt>
      <trkpt lat="48.3836" lon="-3.89232">
        <ele>250</ele>
        <time>2021-09-12T12:57:53Z</time>
      </trkpt>
      <trkpt lat="48.38356" lon="-3.89231">
        <ele>250.19999694824</ele>
        <time>2021-09-12T12:57:54Z</time>
      </trkpt>
      <trkpt lat="48.3835" lon="-3.89229">
        <ele>250.19999694824</ele>
        <time>2021-09-12T12:57:55Z</time>
      </trkpt>
      <trkpt lat="48.38346" lon="-3.89228">
        <ele>250.39999389648</ele>
        <time>2021-09-12T12:57:56Z</time>
      </trkpt>
      <trkpt lat="48.38341" lon="-3.89227">
        <ele>250.60000610352</ele>
        <time>2021-09-12T12:57:57Z</time>
      </trkpt>
      <trkpt lat="48.38336" lon="-3.89226">
        <ele>250.60000610352</ele>
        <time>2021-09-12T12:57:58Z</time>
      </trkpt>
      <trkpt lat="48.38332" lon="-3.89225">
        <ele>250.60000610352</ele>
        <time>2021-09-12T12:57:59Z</time>
      </trkpt>
      <trkpt lat="48.38327" lon="-3.89224">
        <ele>250.60000610352</ele>
        <time>2021-09-12T12:58:00Z</time>
      </trkpt>
      <trkpt lat="48.38323" lon="-3.89223">
        <ele>250.60000610352</ele>
        <time>2021-09-12T12:58:01Z</time>
      </trkpt>
      <trkpt lat="48.38318" lon="-3.89222">
        <ele>250.60000610352</ele>
        <time>2021-09-12T12:58:02Z</time>
      </trkpt>
      <trkpt lat="48.38314" lon="-3.8922">
        <ele>250.60000610352</ele>
        <time>2021-09-12T12:58:03Z</time>
      </trkpt>
      <trkpt lat="48.38309" lon="-3.89219">
        <ele>250.39999389648</ele>
        <time>2021-09-12T12:58:04Z</time>
      </trkpt>
      <trkpt lat="48.38304" lon="-3.89218">
        <ele>250.19999694824</ele>
        <time>2021-09-12T12:58:05Z</time>
      </trkpt>
      <trkpt lat="48.38299" lon="-3.89217">
        <ele>249.39999389648</ele>
        <time>2021-09-12T12:58:06Z</time>
      </trkpt>
      <trkpt lat="48.38294" lon="-3.89217">
        <ele>249</ele>
        <time>2021-09-12T12:58:07Z</time>
      </trkpt>
      <trkpt lat="48.38288" lon="-3.89216">
        <ele>249</ele>
        <time>2021-09-12T12:58:08Z</time>
      </trkpt>
      <trkpt lat="48.38283" lon="-3.89215">
        <ele>248.39999389648</ele>
        <time>2021-09-12T12:58:09Z</time>
      </trkpt>
      <trkpt lat="48.38277" lon="-3.89214">
        <ele>248.19999694824</ele>
        <time>2021-09-12T12:58:10Z</time>
      </trkpt>
      <trkpt lat="48.38272" lon="-3.89211">
        <ele>248</ele>
        <time>2021-09-12T12:58:11Z</time>
      </trkpt>
      <trkpt lat="48.38267" lon="-3.89208">
        <ele>247.80000305176</ele>
        <time>2021-09-12T12:58:12Z</time>
      </trkpt>
      <trkpt lat="48.38261" lon="-3.89205">
        <ele>247.39999389648</ele>
        <time>2021-09-12T12:58:13Z</time>
      </trkpt>
      <trkpt lat="48.38255" lon="-3.89204">
        <ele>247.39999389648</ele>
        <time>2021-09-12T12:58:14Z</time>
      </trkpt>
      <trkpt lat="48.3825" lon="-3.89203">
        <ele>247.39999389648</ele>
        <time>2021-09-12T12:58:15Z</time>
      </trkpt>
      <trkpt lat="48.38244" lon="-3.89202">
        <ele>247.39999389648</ele>
        <time>2021-09-12T12:58:16Z</time>
      </trkpt>
      <trkpt lat="48.38239" lon="-3.89201">
        <ele>247.19999694824</ele>
        <time>2021-09-12T12:58:17Z</time>
      </trkpt>
      <trkpt lat="48.38234" lon="-3.89199">
        <ele>246.80000305176</ele>
        <time>2021-09-12T12:58:18Z</time>
      </trkpt>
      <trkpt lat="48.38229" lon="-3.89198">
        <ele>246.39999389648</ele>
        <time>2021-09-12T12:58:19Z</time>
      </trkpt>
      <trkpt lat="48.38224" lon="-3.89197">
        <ele>246.19999694824</ele>
        <time>2021-09-12T12:58:20Z</time>
      </trkpt>
      <trkpt lat="48.3822" lon="-3.89196">
        <ele>245.80000305176</ele>
        <time>2021-09-12T12:58:21Z</time>
      </trkpt>
      <trkpt lat="48.38217" lon="-3.89194">
        <ele>245.80000305176</ele>
        <time>2021-09-12T12:58:22Z</time>
      </trkpt>
      <trkpt lat="48.38215" lon="-3.89192">
        <ele>245.60000610352</ele>
        <time>2021-09-12T12:58:23Z</time>
      </trkpt>
      <trkpt lat="48.38213" lon="-3.89191">
        <ele>245.60000610352</ele>
        <time>2021-09-12T12:58:24Z</time>
      </trkpt>
      <trkpt lat="48.38211" lon="-3.8919">
        <ele>245.60000610352</ele>
        <time>2021-09-12T12:58:25Z</time>
      </trkpt>
      <trkpt lat="48.38208" lon="-3.89189">
        <ele>245.39999389648</ele>
        <time>2021-09-12T12:58:26Z</time>
      </trkpt>
      <trkpt lat="48.38206" lon="-3.89188">
        <ele>245.39999389648</ele>
        <time>2021-09-12T12:58:27Z</time>
      </trkpt>
      <trkpt lat="48.38204" lon="-3.89188">
        <ele>245.19999694824</ele>
        <time>2021-09-12T12:58:28Z</time>
      </trkpt>
      <trkpt lat="48.38202" lon="-3.89186">
        <ele>245.19999694824</ele>
        <time>2021-09-12T12:58:29Z</time>
      </trkpt>
      <trkpt lat="48.382" lon="-3.89184">
        <ele>245.19999694824</ele>
        <time>2021-09-12T12:58:30Z</time>
      </trkpt>
      <trkpt lat="48.38199" lon="-3.89182">
        <ele>245.19999694824</ele>
        <time>2021-09-12T12:58:31Z</time>
      </trkpt>
      <trkpt lat="48.38199" lon="-3.89178">
        <ele>245.39999389648</ele>
        <time>2021-09-12T12:58:32Z</time>
      </trkpt>
      <trkpt lat="48.38199" lon="-3.89175">
        <ele>245.39999389648</ele>
        <time>2021-09-12T12:58:33Z</time>
      </trkpt>
      <trkpt lat="48.382" lon="-3.89172">
        <ele>245.60000610352</ele>
        <time>2021-09-12T12:58:34Z</time>
      </trkpt>
      <trkpt lat="48.38201" lon="-3.89168">
        <ele>245.80000305176</ele>
        <time>2021-09-12T12:58:35Z</time>
      </trkpt>
      <trkpt lat="48.38201" lon="-3.89163">
        <ele>245.80000305176</ele>
        <time>2021-09-12T12:58:36Z</time>
      </trkpt>
      <trkpt lat="48.38201" lon="-3.89159">
        <ele>245.80000305176</ele>
        <time>2021-09-12T12:58:37Z</time>
      </trkpt>
      <trkpt lat="48.38201" lon="-3.89154">
        <ele>245.80000305176</ele>
        <time>2021-09-12T12:58:38Z</time>
      </trkpt>
      <trkpt lat="48.38201" lon="-3.89149">
        <ele>245.80000305176</ele>
        <time>2021-09-12T12:58:39Z</time>
      </trkpt>
      <trkpt lat="48.38201" lon="-3.89143">
        <ele>245.80000305176</ele>
        <time>2021-09-12T12:58:40Z</time>
      </trkpt>
      <trkpt lat="48.38202" lon="-3.89138">
        <ele>245.80000305176</ele>
        <time>2021-09-12T12:58:41Z</time>
      </trkpt>
      <trkpt lat="48.38202" lon="-3.89133">
        <ele>245.80000305176</ele>
        <time>2021-09-12T12:58:42Z</time>
      </trkpt>
      <trkpt lat="48.38202" lon="-3.89127">
        <ele>246</ele>
        <time>2021-09-12T12:58:43Z</time>
      </trkpt>
      <trkpt lat="48.38202" lon="-3.89122">
        <ele>246</ele>
        <time>2021-09-12T12:58:44Z</time>
      </trkpt>
      <trkpt lat="48.38202" lon="-3.89116">
        <ele>246</ele>
        <time>2021-09-12T12:58:45Z</time>
      </trkpt>
      <trkpt lat="48.38202" lon="-3.89111">
        <ele>246.39999389648</ele>
        <time>2021-09-12T12:58:46Z</time>
      </trkpt>
      <trkpt lat="48.38203" lon="-3.89106">
        <ele>246.60000610352</ele>
        <time>2021-09-12T12:58:47Z</time>
      </trkpt>
      <trkpt lat="48.38203" lon="-3.89101">
        <ele>246.60000610352</ele>
        <time>2021-09-12T12:58:48Z</time>
      </trkpt>
      <trkpt lat="48.38203" lon="-3.89096">
        <ele>246.80000305176</ele>
        <time>2021-09-12T12:58:49Z</time>
      </trkpt>
      <trkpt lat="48.38202" lon="-3.89091">
        <ele>246.80000305176</ele>
        <time>2021-09-12T12:58:50Z</time>
      </trkpt>
      <trkpt lat="48.38202" lon="-3.89086">
        <ele>246.80000305176</ele>
        <time>2021-09-12T12:58:51Z</time>
      </trkpt>
      <trkpt lat="48.38202" lon="-3.89081">
        <ele>246.80000305176</ele>
        <time>2021-09-12T12:58:52Z</time>
      </trkpt>
      <trkpt lat="48.38203" lon="-3.89077">
        <ele>246.80000305176</ele>
        <time>2021-09-12T12:58:53Z</time>
      </trkpt>
      <trkpt lat="48.38203" lon="-3.89072">
        <ele>246.80000305176</ele>
        <time>2021-09-12T12:58:54Z</time>
      </trkpt>
      <trkpt lat="48.38203" lon="-3.89067">
        <ele>247</ele>
        <time>2021-09-12T12:58:55Z</time>
      </trkpt>
      <trkpt lat="48.38203" lon="-3.89062">
        <ele>247.19999694824</ele>
        <time>2021-09-12T12:58:56Z</time>
      </trkpt>
      <trkpt lat="48.38203" lon="-3.89058">
        <ele>247.39999389648</ele>
        <time>2021-09-12T12:58:57Z</time>
      </trkpt>
      <trkpt lat="48.38203" lon="-3.89054">
        <ele>247.60000610352</ele>
        <time>2021-09-12T12:58:58Z</time>
      </trkpt>
      <trkpt lat="48.38203" lon="-3.8905">
        <ele>247.60000610352</ele>
        <time>2021-09-12T12:58:59Z</time>
      </trkpt>
      <trkpt lat="48.38203" lon="-3.89046">
        <ele>247.80000305176</ele>
        <time>2021-09-12T12:59:00Z</time>
      </trkpt>
      <trkpt lat="48.38203" lon="-3.89042">
        <ele>248</ele>
        <time>2021-09-12T12:59:01Z</time>
      </trkpt>
      <trkpt lat="48.38203" lon="-3.89038">
        <ele>248</ele>
        <time>2021-09-12T12:59:02Z</time>
      </trkpt>
      <trkpt lat="48.38203" lon="-3.89034">
        <ele>248.39999389648</ele>
        <time>2021-09-12T12:59:03Z</time>
      </trkpt>
      <trkpt lat="48.38203" lon="-3.8903">
        <ele>248.60000610352</ele>
        <time>2021-09-12T12:59:04Z</time>
      </trkpt>
      <trkpt lat="48.38203" lon="-3.89027">
        <ele>248.80000305176</ele>
        <time>2021-09-12T12:59:05Z</time>
      </trkpt>
      <trkpt lat="48.38203" lon="-3.89023">
        <ele>249</ele>
        <time>2021-09-12T12:59:06Z</time>
      </trkpt>
      <trkpt lat="48.38203" lon="-3.89019">
        <ele>249.19999694824</ele>
        <time>2021-09-12T12:59:07Z</time>
      </trkpt>
      <trkpt lat="48.38203" lon="-3.89015">
        <ele>249.39999389648</ele>
        <time>2021-09-12T12:59:08Z</time>
      </trkpt>
      <trkpt lat="48.38203" lon="-3.89011">
        <ele>249.39999389648</ele>
        <time>2021-09-12T12:59:09Z</time>
      </trkpt>
      <trkpt lat="48.38203" lon="-3.89007">
        <ele>249.60000610352</ele>
        <time>2021-09-12T12:59:10Z</time>
      </trkpt>
      <trkpt lat="48.38203" lon="-3.89003">
        <ele>249.60000610352</ele>
        <time>2021-09-12T12:59:11Z</time>
      </trkpt>
      <trkpt lat="48.38203" lon="-3.88999">
        <ele>250</ele>
        <time>2021-09-12T12:59:12Z</time>
      </trkpt>
      <trkpt lat="48.38203" lon="-3.88994">
        <ele>250.19999694824</ele>
        <time>2021-09-12T12:59:13Z</time>
      </trkpt>
      <trkpt lat="48.38203" lon="-3.8899">
        <ele>250.19999694824</ele>
        <time>2021-09-12T12:59:14Z</time>
      </trkpt>
      <trkpt lat="48.38203" lon="-3.88986">
        <ele>250.39999389648</ele>
        <time>2021-09-12T12:59:15Z</time>
      </trkpt>
      <trkpt lat="48.38203" lon="-3.88981">
        <ele>250.39999389648</ele>
        <time>2021-09-12T12:59:16Z</time>
      </trkpt>
      <trkpt lat="48.38203" lon="-3.88976">
        <ele>250.39999389648</ele>
        <time>2021-09-12T12:59:17Z</time>
      </trkpt>
      <trkpt lat="48.38203" lon="-3.88972">
        <ele>250.39999389648</ele>
        <time>2021-09-12T12:59:18Z</time>
      </trkpt>
      <trkpt lat="48.38203" lon="-3.88968">
        <ele>250.60000610352</ele>
        <time>2021-09-12T12:59:19Z</time>
      </trkpt>
      <trkpt lat="48.38203" lon="-3.88964">
        <ele>250.60000610352</ele>
        <time>2021-09-12T12:59:20Z</time>
      </trkpt>
      <trkpt lat="48.38203" lon="-3.8896">
        <ele>250.80000305176</ele>
        <time>2021-09-12T12:59:21Z</time>
      </trkpt>
      <trkpt lat="48.38203" lon="-3.88955">
        <ele>250.80000305176</ele>
        <time>2021-09-12T12:59:22Z</time>
      </trkpt>
      <trkpt lat="48.38204" lon="-3.88951">
        <ele>251</ele>
        <time>2021-09-12T12:59:23Z</time>
      </trkpt>
      <trkpt lat="48.38204" lon="-3.88947">
        <ele>251</ele>
        <time>2021-09-12T12:59:24Z</time>
      </trkpt>
      <trkpt lat="48.38206" lon="-3.88944">
        <ele>251</ele>
        <time>2021-09-12T12:59:25Z</time>
      </trkpt>
      <trkpt lat="48.38208" lon="-3.88942">
        <ele>251</ele>
        <time>2021-09-12T12:59:26Z</time>
      </trkpt>
      <trkpt lat="48.38211" lon="-3.88942">
        <ele>251.19999694824</ele>
        <time>2021-09-12T12:59:27Z</time>
      </trkpt>
      <trkpt lat="48.38214" lon="-3.88943">
        <ele>251.19999694824</ele>
        <time>2021-09-12T12:59:28Z</time>
      </trkpt>
      <trkpt lat="48.38217" lon="-3.88943">
        <ele>251.39999389648</ele>
        <time>2021-09-12T12:59:29Z</time>
      </trkpt>
      <trkpt lat="48.38219" lon="-3.88944">
        <ele>251.39999389648</ele>
        <time>2021-09-12T12:59:30Z</time>
      </trkpt>
      <trkpt lat="48.38222" lon="-3.88945">
        <ele>251.60000610352</ele>
        <time>2021-09-12T12:59:31Z</time>
      </trkpt>
      <trkpt lat="48.38225" lon="-3.88945">
        <ele>251.80000305176</ele>
        <time>2021-09-12T12:59:32Z</time>
      </trkpt>
      <trkpt lat="48.38227" lon="-3.88946">
        <ele>251.80000305176</ele>
        <time>2021-09-12T12:59:33Z</time>
      </trkpt>
      <trkpt lat="48.3823" lon="-3.88947">
        <ele>252</ele>
        <time>2021-09-12T12:59:34Z</time>
      </trkpt>
      <trkpt lat="48.38233" lon="-3.88948">
        <ele>252.19999694824</ele>
        <time>2021-09-12T12:59:35Z</time>
      </trkpt>
      <trkpt lat="48.38236" lon="-3.88949">
        <ele>252.19999694824</ele>
        <time>2021-09-12T12:59:36Z</time>
      </trkpt>
      <trkpt lat="48.38238" lon="-3.88949">
        <ele>252.60000610352</ele>
        <time>2021-09-12T12:59:37Z</time>
      </trkpt>
      <trkpt lat="48.38241" lon="-3.88949">
        <ele>252.60000610352</ele>
        <time>2021-09-12T12:59:38Z</time>
      </trkpt>
      <trkpt lat="48.38244" lon="-3.8895">
        <ele>252.80000305176</ele>
        <time>2021-09-12T12:59:39Z</time>
      </trkpt>
      <trkpt lat="48.38247" lon="-3.8895">
        <ele>253.19999694824</ele>
        <time>2021-09-12T12:59:40Z</time>
      </trkpt>
      <trkpt lat="48.38249" lon="-3.8895">
        <ele>253.19999694824</ele>
        <time>2021-09-12T12:59:41Z</time>
      </trkpt>
      <trkpt lat="48.38252" lon="-3.88951">
        <ele>253.60000610352</ele>
        <time>2021-09-12T12:59:42Z</time>
      </trkpt>
      <trkpt lat="48.38255" lon="-3.88952">
        <ele>253.60000610352</ele>
        <time>2021-09-12T12:59:43Z</time>
      </trkpt>
      <trkpt lat="48.38257" lon="-3.88952">
        <ele>253.80000305176</ele>
        <time>2021-09-12T12:59:44Z</time>
      </trkpt>
      <trkpt lat="48.3826" lon="-3.88953">
        <ele>254.19999694824</ele>
        <time>2021-09-12T12:59:45Z</time>
      </trkpt>
      <trkpt lat="48.38263" lon="-3.88953">
        <ele>254.60000610352</ele>
        <time>2021-09-12T12:59:46Z</time>
      </trkpt>
      <trkpt lat="48.38266" lon="-3.88954">
        <ele>255</ele>
        <time>2021-09-12T12:59:47Z</time>
      </trkpt>
      <trkpt lat="48.38268" lon="-3.88954">
        <ele>255</ele>
        <time>2021-09-12T12:59:48Z</time>
      </trkpt>
      <trkpt lat="48.38271" lon="-3.88955">
        <ele>255.19999694824</ele>
        <time>2021-09-12T12:59:49Z</time>
      </trkpt>
      <trkpt lat="48.38274" lon="-3.88955">
        <ele>255.19999694824</ele>
        <time>2021-09-12T12:59:50Z</time>
      </trkpt>
      <trkpt lat="48.38277" lon="-3.88956">
        <ele>255.39999389648</ele>
        <time>2021-09-12T12:59:51Z</time>
      </trkpt>
      <trkpt lat="48.3828" lon="-3.88957">
        <ele>255.60000610352</ele>
        <time>2021-09-12T12:59:52Z</time>
      </trkpt>
      <trkpt lat="48.38283" lon="-3.88957">
        <ele>256</ele>
        <time>2021-09-12T12:59:53Z</time>
      </trkpt>
      <trkpt lat="48.38286" lon="-3.88958">
        <ele>256</ele>
        <time>2021-09-12T12:59:54Z</time>
      </trkpt>
      <trkpt lat="48.38289" lon="-3.88958">
        <ele>256.20001220703</ele>
        <time>2021-09-12T12:59:55Z</time>
      </trkpt>
      <trkpt lat="48.38292" lon="-3.88959">
        <ele>256.60000610352</ele>
        <time>2021-09-12T12:59:56Z</time>
      </trkpt>
      <trkpt lat="48.38296" lon="-3.88959">
        <ele>256.60000610352</ele>
        <time>2021-09-12T12:59:57Z</time>
      </trkpt>
      <trkpt lat="48.38299" lon="-3.8896">
        <ele>257.20001220703</ele>
        <time>2021-09-12T12:59:58Z</time>
      </trkpt>
      <trkpt lat="48.38301" lon="-3.8896">
        <ele>257.20001220703</ele>
        <time>2021-09-12T12:59:59Z</time>
      </trkpt>
      <trkpt lat="48.38304" lon="-3.88961">
        <ele>257.20001220703</ele>
        <time>2021-09-12T13:00:00Z</time>
      </trkpt>
      <trkpt lat="48.38307" lon="-3.88961">
        <ele>257.39999389648</ele>
        <time>2021-09-12T13:00:01Z</time>
      </trkpt>
      <trkpt lat="48.38311" lon="-3.88962">
        <ele>257.39999389648</ele>
        <time>2021-09-12T13:00:02Z</time>
      </trkpt>
      <trkpt lat="48.38314" lon="-3.88963">
        <ele>257.39999389648</ele>
        <time>2021-09-12T13:00:03Z</time>
      </trkpt>
      <trkpt lat="48.38317" lon="-3.88963">
        <ele>257.60000610352</ele>
        <time>2021-09-12T13:00:04Z</time>
      </trkpt>
      <trkpt lat="48.3832" lon="-3.88963">
        <ele>257.39999389648</ele>
        <time>2021-09-12T13:00:05Z</time>
      </trkpt>
      <trkpt lat="48.38324" lon="-3.88964">
        <ele>257.60000610352</ele>
        <time>2021-09-12T13:00:06Z</time>
      </trkpt>
      <trkpt lat="48.38327" lon="-3.88965">
        <ele>257.60000610352</ele>
        <time>2021-09-12T13:00:07Z</time>
      </trkpt>
      <trkpt lat="48.38331" lon="-3.88966">
        <ele>257.60000610352</ele>
        <time>2021-09-12T13:00:08Z</time>
      </trkpt>
      <trkpt lat="48.38335" lon="-3.88967">
        <ele>257.60000610352</ele>
        <time>2021-09-12T13:00:09Z</time>
      </trkpt>
      <trkpt lat="48.3834" lon="-3.88967">
        <ele>257.39999389648</ele>
        <time>2021-09-12T13:00:10Z</time>
      </trkpt>
      <trkpt lat="48.38344" lon="-3.88967">
        <ele>257.20001220703</ele>
        <time>2021-09-12T13:00:11Z</time>
      </trkpt>
      <trkpt lat="48.38348" lon="-3.88968">
        <ele>257.20001220703</ele>
        <time>2021-09-12T13:00:12Z</time>
      </trkpt>
      <trkpt lat="48.38352" lon="-3.88968">
        <ele>257.20001220703</ele>
        <time>2021-09-12T13:00:13Z</time>
      </trkpt>
      <trkpt lat="48.38357" lon="-3.88968">
        <ele>257</ele>
        <time>2021-09-12T13:00:14Z</time>
      </trkpt>
      <trkpt lat="48.38361" lon="-3.88969">
        <ele>257</ele>
        <time>2021-09-12T13:00:15Z</time>
      </trkpt>
      <trkpt lat="48.38364" lon="-3.88969">
        <ele>257</ele>
        <time>2021-09-12T13:00:16Z</time>
      </trkpt>
      <trkpt lat="48.38369" lon="-3.8897">
        <ele>257</ele>
        <time>2021-09-12T13:00:17Z</time>
      </trkpt>
      <trkpt lat="48.38373" lon="-3.8897">
        <ele>257.20001220703</ele>
        <time>2021-09-12T13:00:18Z</time>
      </trkpt>
      <trkpt lat="48.38377" lon="-3.88968">
        <ele>257.20001220703</ele>
        <time>2021-09-12T13:00:19Z</time>
      </trkpt>
      <trkpt lat="48.3838" lon="-3.88964">
        <ele>257.20001220703</ele>
        <time>2021-09-12T13:00:20Z</time>
      </trkpt>
      <trkpt lat="48.3838" lon="-3.88959">
        <ele>257.20001220703</ele>
        <time>2021-09-12T13:00:21Z</time>
      </trkpt>
      <trkpt lat="48.3838" lon="-3.88953">
        <ele>257.20001220703</ele>
        <time>2021-09-12T13:00:22Z</time>
      </trkpt>
      <trkpt lat="48.3838" lon="-3.88947">
        <ele>257.20001220703</ele>
        <time>2021-09-12T13:00:23Z</time>
      </trkpt>
      <trkpt lat="48.3838" lon="-3.88941">
        <ele>257.20001220703</ele>
        <time>2021-09-12T13:00:24Z</time>
      </trkpt>
      <trkpt lat="48.38379" lon="-3.88935">
        <ele>257.20001220703</ele>
        <time>2021-09-12T13:00:25Z</time>
      </trkpt>
      <trkpt lat="48.38379" lon="-3.88928">
        <ele>257.39999389648</ele>
        <time>2021-09-12T13:00:26Z</time>
      </trkpt>
      <trkpt lat="48.38378" lon="-3.88922">
        <ele>257.39999389648</ele>
        <time>2021-09-12T13:00:27Z</time>
      </trkpt>
      <trkpt lat="48.38379" lon="-3.88916">
        <ele>257.60000610352</ele>
        <time>2021-09-12T13:00:28Z</time>
      </trkpt>
      <trkpt lat="48.38379" lon="-3.8891">
        <ele>257.60000610352</ele>
        <time>2021-09-12T13:00:29Z</time>
      </trkpt>
      <trkpt lat="48.38379" lon="-3.88903">
        <ele>257.60000610352</ele>
        <time>2021-09-12T13:00:30Z</time>
      </trkpt>
      <trkpt lat="48.38379" lon="-3.88897">
        <ele>257.60000610352</ele>
        <time>2021-09-12T13:00:31Z</time>
      </trkpt>
      <trkpt lat="48.38379" lon="-3.88891">
        <ele>257.60000610352</ele>
        <time>2021-09-12T13:00:32Z</time>
      </trkpt>
      <trkpt lat="48.38379" lon="-3.88885">
        <ele>257.60000610352</ele>
        <time>2021-09-12T13:00:33Z</time>
      </trkpt>
      <trkpt lat="48.38379" lon="-3.88879">
        <ele>257.39999389648</ele>
        <time>2021-09-12T13:00:34Z</time>
      </trkpt>
      <trkpt lat="48.38379" lon="-3.88873">
        <ele>257.39999389648</ele>
        <time>2021-09-12T13:00:35Z</time>
      </trkpt>
      <trkpt lat="48.38379" lon="-3.88867">
        <ele>257.39999389648</ele>
        <time>2021-09-12T13:00:36Z</time>
      </trkpt>
      <trkpt lat="48.38379" lon="-3.8886">
        <ele>257.20001220703</ele>
        <time>2021-09-12T13:00:37Z</time>
      </trkpt>
      <trkpt lat="48.3838" lon="-3.88853">
        <ele>256.79998779297</ele>
        <time>2021-09-12T13:00:38Z</time>
      </trkpt>
      <trkpt lat="48.38383" lon="-3.88847">
        <ele>256.60000610352</ele>
        <time>2021-09-12T13:00:39Z</time>
      </trkpt>
      <trkpt lat="48.38387" lon="-3.88844">
        <ele>256.20001220703</ele>
        <time>2021-09-12T13:00:40Z</time>
      </trkpt>
      <trkpt lat="48.38392" lon="-3.88842">
        <ele>255.80000305176</ele>
        <time>2021-09-12T13:00:41Z</time>
      </trkpt>
      <trkpt lat="48.38397" lon="-3.8884">
        <ele>255.60000610352</ele>
        <time>2021-09-12T13:00:42Z</time>
      </trkpt>
      <trkpt lat="48.38401" lon="-3.88839">
        <ele>255.19999694824</ele>
        <time>2021-09-12T13:00:43Z</time>
      </trkpt>
      <trkpt lat="48.38408" lon="-3.88837">
        <ele>255.19999694824</ele>
        <time>2021-09-12T13:00:44Z</time>
      </trkpt>
      <trkpt lat="48.38414" lon="-3.88835">
        <ele>254.60000610352</ele>
        <time>2021-09-12T13:00:45Z</time>
      </trkpt>
      <trkpt lat="48.3842" lon="-3.88832">
        <ele>254.39999389648</ele>
        <time>2021-09-12T13:00:46Z</time>
      </trkpt>
      <trkpt lat="48.38426" lon="-3.8883">
        <ele>254</ele>
        <time>2021-09-12T13:00:47Z</time>
      </trkpt>
      <trkpt lat="48.38431" lon="-3.88828">
        <ele>253.80000305176</ele>
        <time>2021-09-12T13:00:48Z</time>
      </trkpt>
      <trkpt lat="48.38438" lon="-3.88826">
        <ele>253.80000305176</ele>
        <time>2021-09-12T13:00:49Z</time>
      </trkpt>
      <trkpt lat="48.38444" lon="-3.88824">
        <ele>253.60000610352</ele>
        <time>2021-09-12T13:00:50Z</time>
      </trkpt>
      <trkpt lat="48.38449" lon="-3.88821">
        <ele>253.39999389648</ele>
        <time>2021-09-12T13:00:51Z</time>
      </trkpt>
      <trkpt lat="48.38453" lon="-3.88819">
        <ele>253.39999389648</ele>
        <time>2021-09-12T13:00:52Z</time>
      </trkpt>
      <trkpt lat="48.38459" lon="-3.88817">
        <ele>253.39999389648</ele>
        <time>2021-09-12T13:00:53Z</time>
      </trkpt>
      <trkpt lat="48.38463" lon="-3.88815">
        <ele>253.39999389648</ele>
        <time>2021-09-12T13:00:54Z</time>
      </trkpt>
      <trkpt lat="48.38468" lon="-3.88814">
        <ele>253.60000610352</ele>
        <time>2021-09-12T13:00:55Z</time>
      </trkpt>
      <trkpt lat="48.38472" lon="-3.88813">
        <ele>253.80000305176</ele>
        <time>2021-09-12T13:00:56Z</time>
      </trkpt>
      <trkpt lat="48.38476" lon="-3.8881">
        <ele>254</ele>
        <time>2021-09-12T13:00:57Z</time>
      </trkpt>
      <trkpt lat="48.3848" lon="-3.88808">
        <ele>254.19999694824</ele>
        <time>2021-09-12T13:00:58Z</time>
      </trkpt>
      <trkpt lat="48.38484" lon="-3.88806">
        <ele>254.60000610352</ele>
        <time>2021-09-12T13:00:59Z</time>
      </trkpt>
      <trkpt lat="48.38488" lon="-3.88805">
        <ele>254.80000305176</ele>
        <time>2021-09-12T13:01:00Z</time>
      </trkpt>
      <trkpt lat="48.38492" lon="-3.88803">
        <ele>255</ele>
        <time>2021-09-12T13:01:01Z</time>
      </trkpt>
      <trkpt lat="48.38496" lon="-3.88801">
        <ele>255.19999694824</ele>
        <time>2021-09-12T13:01:02Z</time>
      </trkpt>
      <trkpt lat="48.38501" lon="-3.888">
        <ele>255.60000610352</ele>
        <time>2021-09-12T13:01:03Z</time>
      </trkpt>
      <trkpt lat="48.38505" lon="-3.88798">
        <ele>255.60000610352</ele>
        <time>2021-09-12T13:01:04Z</time>
      </trkpt>
      <trkpt lat="48.3851" lon="-3.88795">
        <ele>255.80000305176</ele>
        <time>2021-09-12T13:01:05Z</time>
      </trkpt>
      <trkpt lat="48.38514" lon="-3.88795">
        <ele>256</ele>
        <time>2021-09-12T13:01:06Z</time>
      </trkpt>
      <trkpt lat="48.38518" lon="-3.88794">
        <ele>256</ele>
        <time>2021-09-12T13:01:07Z</time>
      </trkpt>
      <trkpt lat="48.38522" lon="-3.88794">
        <ele>256</ele>
        <time>2021-09-12T13:01:08Z</time>
      </trkpt>
      <trkpt lat="48.38527" lon="-3.88792">
        <ele>256</ele>
        <time>2021-09-12T13:01:09Z</time>
      </trkpt>
      <trkpt lat="48.38533" lon="-3.8879">
        <ele>256</ele>
        <time>2021-09-12T13:01:10Z</time>
      </trkpt>
      <trkpt lat="48.38539" lon="-3.88787">
        <ele>256</ele>
        <time>2021-09-12T13:01:11Z</time>
      </trkpt>
      <trkpt lat="48.38544" lon="-3.88785">
        <ele>256</ele>
        <time>2021-09-12T13:01:12Z</time>
      </trkpt>
      <trkpt lat="48.38548" lon="-3.88783">
        <ele>256</ele>
        <time>2021-09-12T13:01:13Z</time>
      </trkpt>
      <trkpt lat="48.38553" lon="-3.8878">
        <ele>255.80000305176</ele>
        <time>2021-09-12T13:01:14Z</time>
      </trkpt>
      <trkpt lat="48.38558" lon="-3.88778">
        <ele>255.80000305176</ele>
        <time>2021-09-12T13:01:15Z</time>
      </trkpt>
      <trkpt lat="48.38562" lon="-3.88777">
        <ele>255.80000305176</ele>
        <time>2021-09-12T13:01:16Z</time>
      </trkpt>
      <trkpt lat="48.38567" lon="-3.88776">
        <ele>255.80000305176</ele>
        <time>2021-09-12T13:01:17Z</time>
      </trkpt>
      <trkpt lat="48.38573" lon="-3.88773">
        <ele>255.80000305176</ele>
        <time>2021-09-12T13:01:18Z</time>
      </trkpt>
      <trkpt lat="48.38579" lon="-3.88771">
        <ele>255.60000610352</ele>
        <time>2021-09-12T13:01:19Z</time>
      </trkpt>
      <trkpt lat="48.38586" lon="-3.88768">
        <ele>255.19999694824</ele>
        <time>2021-09-12T13:01:20Z</time>
      </trkpt>
      <trkpt lat="48.38591" lon="-3.88766">
        <ele>254.80000305176</ele>
        <time>2021-09-12T13:01:21Z</time>
      </trkpt>
      <trkpt lat="48.38598" lon="-3.88763">
        <ele>254.80000305176</ele>
        <time>2021-09-12T13:01:22Z</time>
      </trkpt>
      <trkpt lat="48.38606" lon="-3.88761">
        <ele>254.80000305176</ele>
        <time>2021-09-12T13:01:23Z</time>
      </trkpt>
      <trkpt lat="48.38612" lon="-3.88759">
        <ele>254.39999389648</ele>
        <time>2021-09-12T13:01:24Z</time>
      </trkpt>
      <trkpt lat="48.38619" lon="-3.88757">
        <ele>254.39999389648</ele>
        <time>2021-09-12T13:01:25Z</time>
      </trkpt>
      <trkpt lat="48.38623" lon="-3.88754">
        <ele>254.19999694824</ele>
        <time>2021-09-12T13:01:26Z</time>
      </trkpt>
      <trkpt lat="48.38626" lon="-3.8875">
        <ele>254.19999694824</ele>
        <time>2021-09-12T13:01:27Z</time>
      </trkpt>
      <trkpt lat="48.38626" lon="-3.88743">
        <ele>254.19999694824</ele>
        <time>2021-09-12T13:01:28Z</time>
      </trkpt>
      <trkpt lat="48.38624" lon="-3.88737">
        <ele>254.19999694824</ele>
        <time>2021-09-12T13:01:29Z</time>
      </trkpt>
      <trkpt lat="48.38623" lon="-3.88731">
        <ele>254.19999694824</ele>
        <time>2021-09-12T13:01:30Z</time>
      </trkpt>
      <trkpt lat="48.3862" lon="-3.88724">
        <ele>254.19999694824</ele>
        <time>2021-09-12T13:01:31Z</time>
      </trkpt>
      <trkpt lat="48.38619" lon="-3.88717">
        <ele>254.19999694824</ele>
        <time>2021-09-12T13:01:32Z</time>
      </trkpt>
      <trkpt lat="48.38617" lon="-3.8871">
        <ele>254.19999694824</ele>
        <time>2021-09-12T13:01:33Z</time>
      </trkpt>
      <trkpt lat="48.38616" lon="-3.88702">
        <ele>254.19999694824</ele>
        <time>2021-09-12T13:01:34Z</time>
      </trkpt>
      <trkpt lat="48.38615" lon="-3.88694">
        <ele>254.19999694824</ele>
        <time>2021-09-12T13:01:35Z</time>
      </trkpt>
      <trkpt lat="48.38613" lon="-3.88686">
        <ele>254.39999389648</ele>
        <time>2021-09-12T13:01:36Z</time>
      </trkpt>
      <trkpt lat="48.38612" lon="-3.88678">
        <ele>254.39999389648</ele>
        <time>2021-09-12T13:01:37Z</time>
      </trkpt>
      <trkpt lat="48.38611" lon="-3.88669">
        <ele>254.60000610352</ele>
        <time>2021-09-12T13:01:38Z</time>
      </trkpt>
      <trkpt lat="48.3861" lon="-3.8866">
        <ele>254.60000610352</ele>
        <time>2021-09-12T13:01:39Z</time>
      </trkpt>
      <trkpt lat="48.38609" lon="-3.88652">
        <ele>254.60000610352</ele>
        <time>2021-09-12T13:01:40Z</time>
      </trkpt>
      <trkpt lat="48.38607" lon="-3.88644">
        <ele>254.60000610352</ele>
        <time>2021-09-12T13:01:41Z</time>
      </trkpt>
      <trkpt lat="48.38605" lon="-3.88635">
        <ele>254.39999389648</ele>
        <time>2021-09-12T13:01:42Z</time>
      </trkpt>
      <trkpt lat="48.38604" lon="-3.88626">
        <ele>254.19999694824</ele>
        <time>2021-09-12T13:01:43Z</time>
      </trkpt>
      <trkpt lat="48.38602" lon="-3.88617">
        <ele>254.19999694824</ele>
        <time>2021-09-12T13:01:44Z</time>
      </trkpt>
      <trkpt lat="48.38601" lon="-3.88608">
        <ele>254</ele>
        <time>2021-09-12T13:01:45Z</time>
      </trkpt>
      <trkpt lat="48.38599" lon="-3.88598">
        <ele>254</ele>
        <time>2021-09-12T13:01:46Z</time>
      </trkpt>
      <trkpt lat="48.38597" lon="-3.88589">
        <ele>254</ele>
        <time>2021-09-12T13:01:47Z</time>
      </trkpt>
      <trkpt lat="48.38596" lon="-3.8858">
        <ele>254</ele>
        <time>2021-09-12T13:01:48Z</time>
      </trkpt>
      <trkpt lat="48.38593" lon="-3.88571">
        <ele>254</ele>
        <time>2021-09-12T13:01:49Z</time>
      </trkpt>
      <trkpt lat="48.3859" lon="-3.88562">
        <ele>253.80000305176</ele>
        <time>2021-09-12T13:01:50Z</time>
      </trkpt>
      <trkpt lat="48.38588" lon="-3.88553">
        <ele>253.80000305176</ele>
        <time>2021-09-12T13:01:51Z</time>
      </trkpt>
      <trkpt lat="48.38584" lon="-3.88545">
        <ele>253.80000305176</ele>
        <time>2021-09-12T13:01:52Z</time>
      </trkpt>
      <trkpt lat="48.38581" lon="-3.88536">
        <ele>253.39999389648</ele>
        <time>2021-09-12T13:01:53Z</time>
      </trkpt>
      <trkpt lat="48.38578" lon="-3.88528">
        <ele>253.19999694824</ele>
        <time>2021-09-12T13:01:54Z</time>
      </trkpt>
      <trkpt lat="48.38574" lon="-3.88519">
        <ele>253</ele>
        <time>2021-09-12T13:01:55Z</time>
      </trkpt>
      <trkpt lat="48.3857" lon="-3.88511">
        <ele>252.80000305176</ele>
        <time>2021-09-12T13:01:56Z</time>
      </trkpt>
      <trkpt lat="48.38566" lon="-3.88503">
        <ele>252.60000610352</ele>
        <time>2021-09-12T13:01:57Z</time>
      </trkpt>
      <trkpt lat="48.38562" lon="-3.88496">
        <ele>252.60000610352</ele>
        <time>2021-09-12T13:01:58Z</time>
      </trkpt>
      <trkpt lat="48.38558" lon="-3.88488">
        <ele>252.60000610352</ele>
        <time>2021-09-12T13:01:59Z</time>
      </trkpt>
      <trkpt lat="48.38554" lon="-3.8848">
        <ele>252.39999389648</ele>
        <time>2021-09-12T13:02:00Z</time>
      </trkpt>
      <trkpt lat="48.3855" lon="-3.88472">
        <ele>252.39999389648</ele>
        <time>2021-09-12T13:02:01Z</time>
      </trkpt>
      <trkpt lat="48.38546" lon="-3.88465">
        <ele>252.39999389648</ele>
        <time>2021-09-12T13:02:02Z</time>
      </trkpt>
      <trkpt lat="48.38542" lon="-3.88457">
        <ele>252.19999694824</ele>
        <time>2021-09-12T13:02:03Z</time>
      </trkpt>
      <trkpt lat="48.38538" lon="-3.88448">
        <ele>252.19999694824</ele>
        <time>2021-09-12T13:02:04Z</time>
      </trkpt>
      <trkpt lat="48.38534" lon="-3.88441">
        <ele>252</ele>
        <time>2021-09-12T13:02:05Z</time>
      </trkpt>
      <trkpt lat="48.3853" lon="-3.88433">
        <ele>252</ele>
        <time>2021-09-12T13:02:06Z</time>
      </trkpt>
      <trkpt lat="48.38526" lon="-3.88425">
        <ele>251.80000305176</ele>
        <time>2021-09-12T13:02:07Z</time>
      </trkpt>
      <trkpt lat="48.38521" lon="-3.88416">
        <ele>251.80000305176</ele>
        <time>2021-09-12T13:02:08Z</time>
      </trkpt>
      <trkpt lat="48.38517" lon="-3.88409">
        <ele>251.39999389648</ele>
        <time>2021-09-12T13:02:09Z</time>
      </trkpt>
      <trkpt lat="48.38513" lon="-3.88401">
        <ele>251.39999389648</ele>
        <time>2021-09-12T13:02:10Z</time>
      </trkpt>
      <trkpt lat="48.38508" lon="-3.88393">
        <ele>251.39999389648</ele>
        <time>2021-09-12T13:02:11Z</time>
      </trkpt>
      <trkpt lat="48.38503" lon="-3.88384">
        <ele>251.19999694824</ele>
        <time>2021-09-12T13:02:12Z</time>
      </trkpt>
      <trkpt lat="48.38499" lon="-3.88376">
        <ele>251.19999694824</ele>
        <time>2021-09-12T13:02:13Z</time>
      </trkpt>
      <trkpt lat="48.38495" lon="-3.88367">
        <ele>251.19999694824</ele>
        <time>2021-09-12T13:02:14Z</time>
      </trkpt>
      <trkpt lat="48.3849" lon="-3.88359">
        <ele>251.19999694824</ele>
        <time>2021-09-12T13:02:15Z</time>
      </trkpt>
      <trkpt lat="48.38486" lon="-3.8835">
        <ele>251.19999694824</ele>
        <time>2021-09-12T13:02:16Z</time>
      </trkpt>
      <trkpt lat="48.38481" lon="-3.88342">
        <ele>250.80000305176</ele>
        <time>2021-09-12T13:02:17Z</time>
      </trkpt>
      <trkpt lat="48.38477" lon="-3.88334">
        <ele>250.80000305176</ele>
        <time>2021-09-12T13:02:18Z</time>
      </trkpt>
      <trkpt lat="48.38473" lon="-3.88327">
        <ele>250.80000305176</ele>
        <time>2021-09-12T13:02:19Z</time>
      </trkpt>
      <trkpt lat="48.38469" lon="-3.88319">
        <ele>250.80000305176</ele>
        <time>2021-09-12T13:02:20Z</time>
      </trkpt>
      <trkpt lat="48.38465" lon="-3.88312">
        <ele>250.80000305176</ele>
        <time>2021-09-12T13:02:21Z</time>
      </trkpt>
      <trkpt lat="48.38461" lon="-3.88304">
        <ele>250.80000305176</ele>
        <time>2021-09-12T13:02:22Z</time>
      </trkpt>
      <trkpt lat="48.38458" lon="-3.88295">
        <ele>250.80000305176</ele>
        <time>2021-09-12T13:02:23Z</time>
      </trkpt>
      <trkpt lat="48.38455" lon="-3.88286">
        <ele>250.80000305176</ele>
        <time>2021-09-12T13:02:24Z</time>
      </trkpt>
      <trkpt lat="48.38452" lon="-3.88278">
        <ele>251</ele>
        <time>2021-09-12T13:02:25Z</time>
      </trkpt>
      <trkpt lat="48.38449" lon="-3.88269">
        <ele>251</ele>
        <time>2021-09-12T13:02:26Z</time>
      </trkpt>
      <trkpt lat="48.38446" lon="-3.88261">
        <ele>251</ele>
        <time>2021-09-12T13:02:27Z</time>
      </trkpt>
      <trkpt lat="48.38443" lon="-3.88252">
        <ele>251</ele>
        <time>2021-09-12T13:02:28Z</time>
      </trkpt>
      <trkpt lat="48.38441" lon="-3.88243">
        <ele>251.19999694824</ele>
        <time>2021-09-12T13:02:29Z</time>
      </trkpt>
      <trkpt lat="48.38439" lon="-3.88234">
        <ele>251.19999694824</ele>
        <time>2021-09-12T13:02:30Z</time>
      </trkpt>
      <trkpt lat="48.38437" lon="-3.88224">
        <ele>251.39999389648</ele>
        <time>2021-09-12T13:02:31Z</time>
      </trkpt>
      <trkpt lat="48.38435" lon="-3.88215">
        <ele>251.60000610352</ele>
        <time>2021-09-12T13:02:32Z</time>
      </trkpt>
      <trkpt lat="48.38433" lon="-3.88207">
        <ele>251.60000610352</ele>
        <time>2021-09-12T13:02:33Z</time>
      </trkpt>
      <trkpt lat="48.3843" lon="-3.88195">
        <ele>251.60000610352</ele>
        <time>2021-09-12T13:02:34Z</time>
      </trkpt>
      <trkpt lat="48.38428" lon="-3.88185">
        <ele>251.60000610352</ele>
        <time>2021-09-12T13:02:35Z</time>
      </trkpt>
      <trkpt lat="48.38426" lon="-3.88175">
        <ele>251.60000610352</ele>
        <time>2021-09-12T13:02:36Z</time>
      </trkpt>
      <trkpt lat="48.38424" lon="-3.88167">
        <ele>251.60000610352</ele>
        <time>2021-09-12T13:02:37Z</time>
      </trkpt>
      <trkpt lat="48.38421" lon="-3.88156">
        <ele>251.60000610352</ele>
        <time>2021-09-12T13:02:38Z</time>
      </trkpt>
      <trkpt lat="48.38419" lon="-3.88146">
        <ele>251.60000610352</ele>
        <time>2021-09-12T13:02:39Z</time>
      </trkpt>
      <trkpt lat="48.38416" lon="-3.88135">
        <ele>251.60000610352</ele>
        <time>2021-09-12T13:02:40Z</time>
      </trkpt>
      <trkpt lat="48.38414" lon="-3.88125">
        <ele>251.60000610352</ele>
        <time>2021-09-12T13:02:41Z</time>
      </trkpt>
      <trkpt lat="48.38412" lon="-3.88118">
        <ele>251.39999389648</ele>
        <time>2021-09-12T13:02:42Z</time>
      </trkpt>
      <trkpt lat="48.38409" lon="-3.88108">
        <ele>251.39999389648</ele>
        <time>2021-09-12T13:02:43Z</time>
      </trkpt>
      <trkpt lat="48.38406" lon="-3.88096">
        <ele>251.39999389648</ele>
        <time>2021-09-12T13:02:44Z</time>
      </trkpt>
      <trkpt lat="48.38403" lon="-3.88086">
        <ele>251.39999389648</ele>
        <time>2021-09-12T13:02:45Z</time>
      </trkpt>
      <trkpt lat="48.38401" lon="-3.88078">
        <ele>251.39999389648</ele>
        <time>2021-09-12T13:02:46Z</time>
      </trkpt>
      <trkpt lat="48.38398" lon="-3.88068">
        <ele>251.39999389648</ele>
        <time>2021-09-12T13:02:47Z</time>
      </trkpt>
      <trkpt lat="48.38394" lon="-3.88056">
        <ele>251.39999389648</ele>
        <time>2021-09-12T13:02:48Z</time>
      </trkpt>
      <trkpt lat="48.38392" lon="-3.88046">
        <ele>251.39999389648</ele>
        <time>2021-09-12T13:02:49Z</time>
      </trkpt>
      <trkpt lat="48.38389" lon="-3.88036">
        <ele>251.39999389648</ele>
        <time>2021-09-12T13:02:50Z</time>
      </trkpt>
      <trkpt lat="48.38387" lon="-3.88028">
        <ele>251.39999389648</ele>
        <time>2021-09-12T13:02:51Z</time>
      </trkpt>
      <trkpt lat="48.38385" lon="-3.88018">
        <ele>251.39999389648</ele>
        <time>2021-09-12T13:02:52Z</time>
      </trkpt>
      <trkpt lat="48.38383" lon="-3.88009">
        <ele>251.39999389648</ele>
        <time>2021-09-12T13:02:53Z</time>
      </trkpt>
      <trkpt lat="48.3838" lon="-3.87997">
        <ele>251.39999389648</ele>
        <time>2021-09-12T13:02:54Z</time>
      </trkpt>
      <trkpt lat="48.38378" lon="-3.87987">
        <ele>251.19999694824</ele>
        <time>2021-09-12T13:02:55Z</time>
      </trkpt>
      <trkpt lat="48.38377" lon="-3.87978">
        <ele>251.19999694824</ele>
        <time>2021-09-12T13:02:56Z</time>
      </trkpt>
      <trkpt lat="48.38375" lon="-3.87968">
        <ele>251.19999694824</ele>
        <time>2021-09-12T13:02:57Z</time>
      </trkpt>
      <trkpt lat="48.38373" lon="-3.87956">
        <ele>251.19999694824</ele>
        <time>2021-09-12T13:02:58Z</time>
      </trkpt>
      <trkpt lat="48.38371" lon="-3.87946">
        <ele>251.39999389648</ele>
        <time>2021-09-12T13:02:59Z</time>
      </trkpt>
      <trkpt lat="48.3837" lon="-3.87937">
        <ele>251.39999389648</ele>
        <time>2021-09-12T13:03:00Z</time>
      </trkpt>
      <trkpt lat="48.38369" lon="-3.87929">
        <ele>251.60000610352</ele>
        <time>2021-09-12T13:03:01Z</time>
      </trkpt>
      <trkpt lat="48.38368" lon="-3.8792">
        <ele>251.60000610352</ele>
        <time>2021-09-12T13:03:02Z</time>
      </trkpt>
      <trkpt lat="48.38367" lon="-3.8791">
        <ele>251.80000305176</ele>
        <time>2021-09-12T13:03:03Z</time>
      </trkpt>
      <trkpt lat="48.38366" lon="-3.87902">
        <ele>251.80000305176</ele>
        <time>2021-09-12T13:03:04Z</time>
      </trkpt>
      <trkpt lat="48.38366" lon="-3.87894">
        <ele>251.80000305176</ele>
        <time>2021-09-12T13:03:05Z</time>
      </trkpt>
      <trkpt lat="48.38364" lon="-3.87888">
        <ele>251.80000305176</ele>
        <time>2021-09-12T13:03:06Z</time>
      </trkpt>
      <trkpt lat="48.38361" lon="-3.87883">
        <ele>251.80000305176</ele>
        <time>2021-09-12T13:03:07Z</time>
      </trkpt>
      <trkpt lat="48.38357" lon="-3.8788">
        <ele>251.80000305176</ele>
        <time>2021-09-12T13:03:08Z</time>
      </trkpt>
      <trkpt lat="48.38353" lon="-3.8788">
        <ele>251.60000610352</ele>
        <time>2021-09-12T13:03:09Z</time>
      </trkpt>
      <trkpt lat="48.38349" lon="-3.87881">
        <ele>251.19999694824</ele>
        <time>2021-09-12T13:03:10Z</time>
      </trkpt>
      <trkpt lat="48.38345" lon="-3.87882">
        <ele>250.80000305176</ele>
        <time>2021-09-12T13:03:11Z</time>
      </trkpt>
      <trkpt lat="48.3834" lon="-3.87884">
        <ele>250.80000305176</ele>
        <time>2021-09-12T13:03:12Z</time>
      </trkpt>
      <trkpt lat="48.38334" lon="-3.87887">
        <ele>250.60000610352</ele>
        <time>2021-09-12T13:03:13Z</time>
      </trkpt>
      <trkpt lat="48.38328" lon="-3.8789">
        <ele>250</ele>
        <time>2021-09-12T13:03:14Z</time>
      </trkpt>
      <trkpt lat="48.38322" lon="-3.87893">
        <ele>250</ele>
        <time>2021-09-12T13:03:15Z</time>
      </trkpt>
      <trkpt lat="48.38317" lon="-3.87893">
        <ele>249.60000610352</ele>
        <time>2021-09-12T13:03:16Z</time>
      </trkpt>
      <trkpt lat="48.38312" lon="-3.87891">
        <ele>249.60000610352</ele>
        <time>2021-09-12T13:03:17Z</time>
      </trkpt>
      <trkpt lat="48.38309" lon="-3.87887">
        <ele>249.39999389648</ele>
        <time>2021-09-12T13:03:18Z</time>
      </trkpt>
      <trkpt lat="48.38307" lon="-3.87884">
        <ele>249.39999389648</ele>
        <time>2021-09-12T13:03:19Z</time>
      </trkpt>
      <trkpt lat="48.38305" lon="-3.8788">
        <ele>249.19999694824</ele>
        <time>2021-09-12T13:03:20Z</time>
      </trkpt>
      <trkpt lat="48.38302" lon="-3.87876">
        <ele>249.19999694824</ele>
        <time>2021-09-12T13:03:21Z</time>
      </trkpt>
      <trkpt lat="48.38299" lon="-3.87873">
        <ele>249.39999389648</ele>
        <time>2021-09-12T13:03:22Z</time>
      </trkpt>
      <trkpt lat="48.38296" lon="-3.8787">
        <ele>249.19999694824</ele>
        <time>2021-09-12T13:03:23Z</time>
      </trkpt>
      <trkpt lat="48.38292" lon="-3.87866">
        <ele>249.19999694824</ele>
        <time>2021-09-12T13:03:24Z</time>
      </trkpt>
      <trkpt lat="48.38288" lon="-3.87863">
        <ele>249.19999694824</ele>
        <time>2021-09-12T13:03:25Z</time>
      </trkpt>
      <trkpt lat="48.38286" lon="-3.8786">
        <ele>249.39999389648</ele>
        <time>2021-09-12T13:03:26Z</time>
      </trkpt>
      <trkpt lat="48.38283" lon="-3.87855">
        <ele>249.39999389648</ele>
        <time>2021-09-12T13:03:27Z</time>
      </trkpt>
      <trkpt lat="48.3828" lon="-3.8785">
        <ele>249.39999389648</ele>
        <time>2021-09-12T13:03:28Z</time>
      </trkpt>
      <trkpt lat="48.38278" lon="-3.87844">
        <ele>249.60000610352</ele>
        <time>2021-09-12T13:03:29Z</time>
      </trkpt>
      <trkpt lat="48.38274" lon="-3.87839">
        <ele>249.60000610352</ele>
        <time>2021-09-12T13:03:30Z</time>
      </trkpt>
      <trkpt lat="48.38272" lon="-3.87833">
        <ele>250.19999694824</ele>
        <time>2021-09-12T13:03:31Z</time>
      </trkpt>
      <trkpt lat="48.38269" lon="-3.87827">
        <ele>250.19999694824</ele>
        <time>2021-09-12T13:03:32Z</time>
      </trkpt>
      <trkpt lat="48.38267" lon="-3.8782">
        <ele>250.80000305176</ele>
        <time>2021-09-12T13:03:33Z</time>
      </trkpt>
      <trkpt lat="48.38263" lon="-3.87813">
        <ele>251</ele>
        <time>2021-09-12T13:03:34Z</time>
      </trkpt>
      <trkpt lat="48.38261" lon="-3.87808">
        <ele>251.19999694824</ele>
        <time>2021-09-12T13:03:35Z</time>
      </trkpt>
      <trkpt lat="48.38258" lon="-3.87802">
        <ele>251.19999694824</ele>
        <time>2021-09-12T13:03:36Z</time>
      </trkpt>
      <trkpt lat="48.38255" lon="-3.87797">
        <ele>251.19999694824</ele>
        <time>2021-09-12T13:03:37Z</time>
      </trkpt>
      <trkpt lat="48.38251" lon="-3.87791">
        <ele>251.19999694824</ele>
        <time>2021-09-12T13:03:38Z</time>
      </trkpt>
      <trkpt lat="48.38248" lon="-3.87786">
        <ele>251.19999694824</ele>
        <time>2021-09-12T13:03:39Z</time>
      </trkpt>
      <trkpt lat="48.38245" lon="-3.8778">
        <ele>251.19999694824</ele>
        <time>2021-09-12T13:03:40Z</time>
      </trkpt>
      <trkpt lat="48.38243" lon="-3.87774">
        <ele>251.19999694824</ele>
        <time>2021-09-12T13:03:41Z</time>
      </trkpt>
      <trkpt lat="48.3824" lon="-3.87768">
        <ele>251.19999694824</ele>
        <time>2021-09-12T13:03:42Z</time>
      </trkpt>
      <trkpt lat="48.38239" lon="-3.87763">
        <ele>251</ele>
        <time>2021-09-12T13:03:43Z</time>
      </trkpt>
      <trkpt lat="48.38237" lon="-3.87757">
        <ele>250.80000305176</ele>
        <time>2021-09-12T13:03:44Z</time>
      </trkpt>
      <trkpt lat="48.38234" lon="-3.87749">
        <ele>250.80000305176</ele>
        <time>2021-09-12T13:03:45Z</time>
      </trkpt>
      <trkpt lat="48.38231" lon="-3.87742">
        <ele>250.60000610352</ele>
        <time>2021-09-12T13:03:46Z</time>
      </trkpt>
      <trkpt lat="48.38228" lon="-3.87734">
        <ele>250.60000610352</ele>
        <time>2021-09-12T13:03:47Z</time>
      </trkpt>
      <trkpt lat="48.38224" lon="-3.87727">
        <ele>250.39999389648</ele>
        <time>2021-09-12T13:03:48Z</time>
      </trkpt>
      <trkpt lat="48.38221" lon="-3.87719">
        <ele>250</ele>
        <time>2021-09-12T13:03:49Z</time>
      </trkpt>
      <trkpt lat="48.38216" lon="-3.87711">
        <ele>249.60000610352</ele>
        <time>2021-09-12T13:03:50Z</time>
      </trkpt>
      <trkpt lat="48.38212" lon="-3.87704">
        <ele>249.60000610352</ele>
        <time>2021-09-12T13:03:51Z</time>
      </trkpt>
      <trkpt lat="48.38209" lon="-3.87696">
        <ele>249.60000610352</ele>
        <time>2021-09-12T13:03:52Z</time>
      </trkpt>
      <trkpt lat="48.38206" lon="-3.8769">
        <ele>249.39999389648</ele>
        <time>2021-09-12T13:03:53Z</time>
      </trkpt>
      <trkpt lat="48.38204" lon="-3.87685">
        <ele>249.39999389648</ele>
        <time>2021-09-12T13:03:54Z</time>
      </trkpt>
      <trkpt lat="48.38202" lon="-3.87679">
        <ele>249.39999389648</ele>
        <time>2021-09-12T13:03:55Z</time>
      </trkpt>
      <trkpt lat="48.38202" lon="-3.87674">
        <ele>249.39999389648</ele>
        <time>2021-09-12T13:03:56Z</time>
      </trkpt>
      <trkpt lat="48.38202" lon="-3.87669">
        <ele>249.60000610352</ele>
        <time>2021-09-12T13:03:57Z</time>
      </trkpt>
      <trkpt lat="48.38201" lon="-3.87663">
        <ele>249.60000610352</ele>
        <time>2021-09-12T13:03:58Z</time>
      </trkpt>
      <trkpt lat="48.38203" lon="-3.87657">
        <ele>250</ele>
        <time>2021-09-12T13:03:59Z</time>
      </trkpt>
      <trkpt lat="48.38202" lon="-3.87648">
        <ele>250</ele>
        <time>2021-09-12T13:04:00Z</time>
      </trkpt>
      <trkpt lat="48.38201" lon="-3.87641">
        <ele>250</ele>
        <time>2021-09-12T13:04:01Z</time>
      </trkpt>
      <trkpt lat="48.382" lon="-3.87635">
        <ele>250</ele>
        <time>2021-09-12T13:04:02Z</time>
      </trkpt>
      <trkpt lat="48.38198" lon="-3.87627">
        <ele>249.60000610352</ele>
        <time>2021-09-12T13:04:03Z</time>
      </trkpt>
      <trkpt lat="48.38196" lon="-3.87619">
        <ele>249.60000610352</ele>
        <time>2021-09-12T13:04:04Z</time>
      </trkpt>
      <trkpt lat="48.38195" lon="-3.87611">
        <ele>249.60000610352</ele>
        <time>2021-09-12T13:04:05Z</time>
      </trkpt>
      <trkpt lat="48.38194" lon="-3.87602">
        <ele>248.80000305176</ele>
        <time>2021-09-12T13:04:06Z</time>
      </trkpt>
      <trkpt lat="48.38192" lon="-3.87594">
        <ele>248.19999694824</ele>
        <time>2021-09-12T13:04:07Z</time>
      </trkpt>
      <trkpt lat="48.38191" lon="-3.87585">
        <ele>248</ele>
        <time>2021-09-12T13:04:08Z</time>
      </trkpt>
      <trkpt lat="48.38191" lon="-3.87578">
        <ele>247.39999389648</ele>
        <time>2021-09-12T13:04:09Z</time>
      </trkpt>
      <trkpt lat="48.38189" lon="-3.87568">
        <ele>247.39999389648</ele>
        <time>2021-09-12T13:04:10Z</time>
      </trkpt>
      <trkpt lat="48.38188" lon="-3.8756">
        <ele>247.19999694824</ele>
        <time>2021-09-12T13:04:11Z</time>
      </trkpt>
      <trkpt lat="48.38187" lon="-3.87552">
        <ele>247</ele>
        <time>2021-09-12T13:04:12Z</time>
      </trkpt>
      <trkpt lat="48.38186" lon="-3.87544">
        <ele>246.80000305176</ele>
        <time>2021-09-12T13:04:13Z</time>
      </trkpt>
      <trkpt lat="48.38185" lon="-3.87535">
        <ele>245.80000305176</ele>
        <time>2021-09-12T13:04:14Z</time>
      </trkpt>
      <trkpt lat="48.38183" lon="-3.87526">
        <ele>245.60000610352</ele>
        <time>2021-09-12T13:04:15Z</time>
      </trkpt>
      <trkpt lat="48.38182" lon="-3.87517">
        <ele>245.39999389648</ele>
        <time>2021-09-12T13:04:16Z</time>
      </trkpt>
      <trkpt lat="48.3818" lon="-3.87507">
        <ele>245.39999389648</ele>
        <time>2021-09-12T13:04:17Z</time>
      </trkpt>
      <trkpt lat="48.38178" lon="-3.87497">
        <ele>244.80000305176</ele>
        <time>2021-09-12T13:04:18Z</time>
      </trkpt>
      <trkpt lat="48.38176" lon="-3.87488">
        <ele>244.80000305176</ele>
        <time>2021-09-12T13:04:19Z</time>
      </trkpt>
      <trkpt lat="48.38172" lon="-3.87478">
        <ele>244.80000305176</ele>
        <time>2021-09-12T13:04:20Z</time>
      </trkpt>
      <trkpt lat="48.38168" lon="-3.87468">
        <ele>244.60000610352</ele>
        <time>2021-09-12T13:04:21Z</time>
      </trkpt>
      <trkpt lat="48.38162" lon="-3.87457">
        <ele>244.19999694824</ele>
        <time>2021-09-12T13:04:22Z</time>
      </trkpt>
      <trkpt lat="48.38158" lon="-3.87449">
        <ele>244</ele>
        <time>2021-09-12T13:04:23Z</time>
      </trkpt>
      <trkpt lat="48.38153" lon="-3.8744">
        <ele>243.60000610352</ele>
        <time>2021-09-12T13:04:24Z</time>
      </trkpt>
      <trkpt lat="48.38149" lon="-3.87432">
        <ele>243.60000610352</ele>
        <time>2021-09-12T13:04:25Z</time>
      </trkpt>
      <trkpt lat="48.38144" lon="-3.87423">
        <ele>243</ele>
        <time>2021-09-12T13:04:26Z</time>
      </trkpt>
      <trkpt lat="48.3814" lon="-3.87414">
        <ele>243</ele>
        <time>2021-09-12T13:04:27Z</time>
      </trkpt>
      <trkpt lat="48.38135" lon="-3.87405">
        <ele>243</ele>
        <time>2021-09-12T13:04:28Z</time>
      </trkpt>
      <trkpt lat="48.3813" lon="-3.87396">
        <ele>243</ele>
        <time>2021-09-12T13:04:29Z</time>
      </trkpt>
      <trkpt lat="48.38125" lon="-3.87387">
        <ele>243</ele>
        <time>2021-09-12T13:04:30Z</time>
      </trkpt>
      <trkpt lat="48.38121" lon="-3.87377">
        <ele>243</ele>
        <time>2021-09-12T13:04:31Z</time>
      </trkpt>
      <trkpt lat="48.38117" lon="-3.87367">
        <ele>243</ele>
        <time>2021-09-12T13:04:32Z</time>
      </trkpt>
      <trkpt lat="48.38112" lon="-3.87357">
        <ele>243</ele>
        <time>2021-09-12T13:04:33Z</time>
      </trkpt>
      <trkpt lat="48.38106" lon="-3.87346">
        <ele>243</ele>
        <time>2021-09-12T13:04:34Z</time>
      </trkpt>
      <trkpt lat="48.38102" lon="-3.87338">
        <ele>243</ele>
        <time>2021-09-12T13:04:35Z</time>
      </trkpt>
      <trkpt lat="48.38099" lon="-3.87331">
        <ele>243</ele>
        <time>2021-09-12T13:04:36Z</time>
      </trkpt>
      <trkpt lat="48.38096" lon="-3.87323">
        <ele>243</ele>
        <time>2021-09-12T13:04:37Z</time>
      </trkpt>
      <trkpt lat="48.38093" lon="-3.87314">
        <ele>243</ele>
        <time>2021-09-12T13:04:38Z</time>
      </trkpt>
      <trkpt lat="48.38094" lon="-3.8731">
        <ele>243.19999694824</ele>
        <time>2021-09-12T13:04:39Z</time>
      </trkpt>
      <trkpt lat="48.38091" lon="-3.87302">
        <ele>243.19999694824</ele>
        <time>2021-09-12T13:04:40Z</time>
      </trkpt>
      <trkpt lat="48.38089" lon="-3.87294">
        <ele>243.19999694824</ele>
        <time>2021-09-12T13:04:41Z</time>
      </trkpt>
      <trkpt lat="48.38086" lon="-3.87286">
        <ele>243.19999694824</ele>
        <time>2021-09-12T13:04:42Z</time>
      </trkpt>
      <trkpt lat="48.38083" lon="-3.87281">
        <ele>242.80000305176</ele>
        <time>2021-09-12T13:04:43Z</time>
      </trkpt>
      <trkpt lat="48.38079" lon="-3.87276">
        <ele>242.80000305176</ele>
        <time>2021-09-12T13:04:44Z</time>
      </trkpt>
      <trkpt lat="48.38075" lon="-3.87272">
        <ele>243.19999694824</ele>
        <time>2021-09-12T13:04:45Z</time>
      </trkpt>
      <trkpt lat="48.38073" lon="-3.87268">
        <ele>243</ele>
        <time>2021-09-12T13:04:46Z</time>
      </trkpt>
      <trkpt lat="48.38069" lon="-3.87264">
        <ele>243.19999694824</ele>
        <time>2021-09-12T13:04:47Z</time>
      </trkpt>
      <trkpt lat="48.38065" lon="-3.87258">
        <ele>243.19999694824</ele>
        <time>2021-09-12T13:04:48Z</time>
      </trkpt>
      <trkpt lat="48.38062" lon="-3.87254">
        <ele>243.60000610352</ele>
        <time>2021-09-12T13:04:49Z</time>
      </trkpt>
      <trkpt lat="48.38058" lon="-3.8725">
        <ele>243.60000610352</ele>
        <time>2021-09-12T13:04:50Z</time>
      </trkpt>
      <trkpt lat="48.38055" lon="-3.87245">
        <ele>243.60000610352</ele>
        <time>2021-09-12T13:04:51Z</time>
      </trkpt>
      <trkpt lat="48.38051" lon="-3.87239">
        <ele>243.60000610352</ele>
        <time>2021-09-12T13:04:52Z</time>
      </trkpt>
      <trkpt lat="48.38048" lon="-3.87233">
        <ele>243.60000610352</ele>
        <time>2021-09-12T13:04:53Z</time>
      </trkpt>
      <trkpt lat="48.38043" lon="-3.87227">
        <ele>243.60000610352</ele>
        <time>2021-09-12T13:04:54Z</time>
      </trkpt>
      <trkpt lat="48.38038" lon="-3.8722">
        <ele>243.39999389648</ele>
        <time>2021-09-12T13:04:55Z</time>
      </trkpt>
      <trkpt lat="48.38034" lon="-3.87214">
        <ele>242.80000305176</ele>
        <time>2021-09-12T13:04:56Z</time>
      </trkpt>
      <trkpt lat="48.38031" lon="-3.87209">
        <ele>242.80000305176</ele>
        <time>2021-09-12T13:04:57Z</time>
      </trkpt>
      <trkpt lat="48.38026" lon="-3.87203">
        <ele>242.39999389648</ele>
        <time>2021-09-12T13:04:58Z</time>
      </trkpt>
      <trkpt lat="48.38022" lon="-3.87196">
        <ele>242.39999389648</ele>
        <time>2021-09-12T13:04:59Z</time>
      </trkpt>
      <trkpt lat="48.38019" lon="-3.8719">
        <ele>242.19999694824</ele>
        <time>2021-09-12T13:05:00Z</time>
      </trkpt>
      <trkpt lat="48.38014" lon="-3.87183">
        <ele>242</ele>
        <time>2021-09-12T13:05:01Z</time>
      </trkpt>
      <trkpt lat="48.38011" lon="-3.87177">
        <ele>241.80000305176</ele>
        <time>2021-09-12T13:05:02Z</time>
      </trkpt>
      <trkpt lat="48.38007" lon="-3.87172">
        <ele>241.80000305176</ele>
        <time>2021-09-12T13:05:03Z</time>
      </trkpt>
      <trkpt lat="48.38004" lon="-3.87166">
        <ele>241.60000610352</ele>
        <time>2021-09-12T13:05:04Z</time>
      </trkpt>
      <trkpt lat="48.38001" lon="-3.87156">
        <ele>241.39999389648</ele>
        <time>2021-09-12T13:05:05Z</time>
      </trkpt>
      <trkpt lat="48.38" lon="-3.87149">
        <ele>241.39999389648</ele>
        <time>2021-09-12T13:05:06Z</time>
      </trkpt>
      <trkpt lat="48.37999" lon="-3.87142">
        <ele>241.19999694824</ele>
        <time>2021-09-12T13:05:07Z</time>
      </trkpt>
      <trkpt lat="48.37998" lon="-3.87136">
        <ele>241.19999694824</ele>
        <time>2021-09-12T13:05:08Z</time>
      </trkpt>
      <trkpt lat="48.37997" lon="-3.87129">
        <ele>241</ele>
        <time>2021-09-12T13:05:09Z</time>
      </trkpt>
      <trkpt lat="48.37996" lon="-3.87122">
        <ele>241</ele>
        <time>2021-09-12T13:05:10Z</time>
      </trkpt>
      <trkpt lat="48.37996" lon="-3.87117">
        <ele>240.80000305176</ele>
        <time>2021-09-12T13:05:11Z</time>
      </trkpt>
      <trkpt lat="48.37996" lon="-3.8711">
        <ele>240.60000610352</ele>
        <time>2021-09-12T13:05:12Z</time>
      </trkpt>
      <trkpt lat="48.37995" lon="-3.87105">
        <ele>240.60000610352</ele>
        <time>2021-09-12T13:05:13Z</time>
      </trkpt>
      <trkpt lat="48.37994" lon="-3.871">
        <ele>240.39999389648</ele>
        <time>2021-09-12T13:05:14Z</time>
      </trkpt>
      <trkpt lat="48.37995" lon="-3.87097">
        <ele>240.39999389648</ele>
        <time>2021-09-12T13:05:15Z</time>
      </trkpt>
      <trkpt lat="48.37994" lon="-3.87089">
        <ele>240.39999389648</ele>
        <time>2021-09-12T13:05:16Z</time>
      </trkpt>
      <trkpt lat="48.37992" lon="-3.87082">
        <ele>240.39999389648</ele>
        <time>2021-09-12T13:05:17Z</time>
      </trkpt>
      <trkpt lat="48.37992" lon="-3.87075">
        <ele>240.19999694824</ele>
        <time>2021-09-12T13:05:18Z</time>
      </trkpt>
      <trkpt lat="48.37993" lon="-3.8707">
        <ele>240.19999694824</ele>
        <time>2021-09-12T13:05:19Z</time>
      </trkpt>
      <trkpt lat="48.37994" lon="-3.87065">
        <ele>240.19999694824</ele>
        <time>2021-09-12T13:05:20Z</time>
      </trkpt>
      <trkpt lat="48.37993" lon="-3.87059">
        <ele>240</ele>
        <time>2021-09-12T13:05:21Z</time>
      </trkpt>
      <trkpt lat="48.37994" lon="-3.8705">
        <ele>240</ele>
        <time>2021-09-12T13:05:22Z</time>
      </trkpt>
      <trkpt lat="48.37993" lon="-3.87044">
        <ele>239.80000305176</ele>
        <time>2021-09-12T13:05:23Z</time>
      </trkpt>
      <trkpt lat="48.37994" lon="-3.87039">
        <ele>239.80000305176</ele>
        <time>2021-09-12T13:05:24Z</time>
      </trkpt>
      <trkpt lat="48.37994" lon="-3.87035">
        <ele>239.60000610352</ele>
        <time>2021-09-12T13:05:25Z</time>
      </trkpt>
      <trkpt lat="48.37993" lon="-3.87028">
        <ele>239.60000610352</ele>
        <time>2021-09-12T13:05:26Z</time>
      </trkpt>
      <trkpt lat="48.37991" lon="-3.87022">
        <ele>239.19999694824</ele>
        <time>2021-09-12T13:05:27Z</time>
      </trkpt>
      <trkpt lat="48.37992" lon="-3.87017">
        <ele>239</ele>
        <time>2021-09-12T13:05:28Z</time>
      </trkpt>
      <trkpt lat="48.37993" lon="-3.8701">
        <ele>238.80000305176</ele>
        <time>2021-09-12T13:05:29Z</time>
      </trkpt>
      <trkpt lat="48.37993" lon="-3.87005">
        <ele>238.39999389648</ele>
        <time>2021-09-12T13:05:30Z</time>
      </trkpt>
      <trkpt lat="48.37995" lon="-3.86996">
        <ele>238.39999389648</ele>
        <time>2021-09-12T13:05:31Z</time>
      </trkpt>
      <trkpt lat="48.37995" lon="-3.86987">
        <ele>238.39999389648</ele>
        <time>2021-09-12T13:05:32Z</time>
      </trkpt>
      <trkpt lat="48.37994" lon="-3.86977">
        <ele>238</ele>
        <time>2021-09-12T13:05:33Z</time>
      </trkpt>
      <trkpt lat="48.37992" lon="-3.86969">
        <ele>238</ele>
        <time>2021-09-12T13:05:34Z</time>
      </trkpt>
      <trkpt lat="48.37992" lon="-3.86964">
        <ele>237.80000305176</ele>
        <time>2021-09-12T13:05:35Z</time>
      </trkpt>
      <trkpt lat="48.3799" lon="-3.86958">
        <ele>237.60000610352</ele>
        <time>2021-09-12T13:05:36Z</time>
      </trkpt>
      <trkpt lat="48.37987" lon="-3.86953">
        <ele>237.19999694824</ele>
        <time>2021-09-12T13:05:37Z</time>
      </trkpt>
      <trkpt lat="48.37984" lon="-3.86947">
        <ele>237</ele>
        <time>2021-09-12T13:05:38Z</time>
      </trkpt>
      <trkpt lat="48.3798" lon="-3.8694">
        <ele>237</ele>
        <time>2021-09-12T13:05:39Z</time>
      </trkpt>
      <trkpt lat="48.37977" lon="-3.86932">
        <ele>237</ele>
        <time>2021-09-12T13:05:40Z</time>
      </trkpt>
      <trkpt lat="48.37974" lon="-3.86926">
        <ele>236.80000305176</ele>
        <time>2021-09-12T13:05:41Z</time>
      </trkpt>
      <trkpt lat="48.37972" lon="-3.86922">
        <ele>236.80000305176</ele>
        <time>2021-09-12T13:05:42Z</time>
      </trkpt>
      <trkpt lat="48.37971" lon="-3.86918">
        <ele>236.60000610352</ele>
        <time>2021-09-12T13:05:43Z</time>
      </trkpt>
      <trkpt lat="48.37969" lon="-3.86914">
        <ele>236.39999389648</ele>
        <time>2021-09-12T13:05:44Z</time>
      </trkpt>
      <trkpt lat="48.37966" lon="-3.86908">
        <ele>236.39999389648</ele>
        <time>2021-09-12T13:05:45Z</time>
      </trkpt>
      <trkpt lat="48.37963" lon="-3.869">
        <ele>236.39999389648</ele>
        <time>2021-09-12T13:05:46Z</time>
      </trkpt>
      <trkpt lat="48.37962" lon="-3.86895">
        <ele>236.39999389648</ele>
        <time>2021-09-12T13:05:47Z</time>
      </trkpt>
      <trkpt lat="48.37961" lon="-3.8689">
        <ele>236.19999694824</ele>
        <time>2021-09-12T13:05:48Z</time>
      </trkpt>
      <trkpt lat="48.37961" lon="-3.86886">
        <ele>236.19999694824</ele>
        <time>2021-09-12T13:05:49Z</time>
      </trkpt>
      <trkpt lat="48.37962" lon="-3.86881">
        <ele>236</ele>
        <time>2021-09-12T13:05:50Z</time>
      </trkpt>
      <trkpt lat="48.37963" lon="-3.86875">
        <ele>236</ele>
        <time>2021-09-12T13:05:51Z</time>
      </trkpt>
      <trkpt lat="48.37966" lon="-3.86871">
        <ele>235.80000305176</ele>
        <time>2021-09-12T13:05:52Z</time>
      </trkpt>
      <trkpt lat="48.37968" lon="-3.86866">
        <ele>235.80000305176</ele>
        <time>2021-09-12T13:05:53Z</time>
      </trkpt>
      <trkpt lat="48.37969" lon="-3.86861">
        <ele>235.80000305176</ele>
        <time>2021-09-12T13:05:54Z</time>
      </trkpt>
      <trkpt lat="48.37969" lon="-3.86855">
        <ele>235.80000305176</ele>
        <time>2021-09-12T13:05:55Z</time>
      </trkpt>
      <trkpt lat="48.37969" lon="-3.8685">
        <ele>235.80000305176</ele>
        <time>2021-09-12T13:05:56Z</time>
      </trkpt>
      <trkpt lat="48.37969" lon="-3.86846">
        <ele>235.80000305176</ele>
        <time>2021-09-12T13:05:57Z</time>
      </trkpt>
      <trkpt lat="48.37969" lon="-3.86843">
        <ele>235.80000305176</ele>
        <time>2021-09-12T13:05:58Z</time>
      </trkpt>
      <trkpt lat="48.37969" lon="-3.86841">
        <ele>235.80000305176</ele>
        <time>2021-09-12T13:05:59Z</time>
      </trkpt>
      <trkpt lat="48.37969" lon="-3.86837">
        <ele>235.80000305176</ele>
        <time>2021-09-12T13:06:00Z</time>
      </trkpt>
      <trkpt lat="48.37969" lon="-3.86833">
        <ele>235.80000305176</ele>
        <time>2021-09-12T13:06:01Z</time>
      </trkpt>
      <trkpt lat="48.37969" lon="-3.86829">
        <ele>235.80000305176</ele>
        <time>2021-09-12T13:06:02Z</time>
      </trkpt>
      <trkpt lat="48.3797" lon="-3.86825">
        <ele>235.80000305176</ele>
        <time>2021-09-12T13:06:03Z</time>
      </trkpt>
      <trkpt lat="48.37971" lon="-3.86823">
        <ele>235.60000610352</ele>
        <time>2021-09-12T13:06:04Z</time>
      </trkpt>
      <trkpt lat="48.37971" lon="-3.86819">
        <ele>235.60000610352</ele>
        <time>2021-09-12T13:06:05Z</time>
      </trkpt>
      <trkpt lat="48.3797" lon="-3.86817">
        <ele>235.80000305176</ele>
        <time>2021-09-12T13:06:06Z</time>
      </trkpt>
      <trkpt lat="48.3797" lon="-3.86815">
        <ele>235.80000305176</ele>
        <time>2021-09-12T13:06:07Z</time>
      </trkpt>
      <trkpt lat="48.37971" lon="-3.86814">
        <ele>235.60000610352</ele>
        <time>2021-09-12T13:06:08Z</time>
      </trkpt>
      <trkpt lat="48.37971" lon="-3.86813">
        <ele>235.60000610352</ele>
        <time>2021-09-12T13:06:09Z</time>
      </trkpt>
      <trkpt lat="48.37971" lon="-3.86813">
        <ele>235.80000305176</ele>
        <time>2021-09-12T13:06:10Z</time>
      </trkpt>
      <trkpt lat="48.37971" lon="-3.86813">
        <ele>235.80000305176</ele>
        <time>2021-09-12T13:06:11Z</time>
      </trkpt>
      <trkpt lat="48.3797" lon="-3.86813">
        <ele>235.80000305176</ele>
        <time>2021-09-12T13:06:12Z</time>
      </trkpt>
      <trkpt lat="48.3797" lon="-3.86812">
        <ele>235.80000305176</ele>
        <time>2021-09-12T13:06:13Z</time>
      </trkpt>
      <trkpt lat="48.37971" lon="-3.8681">
        <ele>235.80000305176</ele>
        <time>2021-09-12T13:06:14Z</time>
      </trkpt>
      <trkpt lat="48.37971" lon="-3.86808">
        <ele>235.80000305176</ele>
        <time>2021-09-12T13:06:15Z</time>
      </trkpt>
      <trkpt lat="48.37971" lon="-3.86807">
        <ele>235.80000305176</ele>
        <time>2021-09-12T13:06:16Z</time>
      </trkpt>
      <trkpt lat="48.37971" lon="-3.86807">
        <ele>235.60000610352</ele>
        <time>2021-09-12T13:06:17Z</time>
      </trkpt>
      <trkpt lat="48.37972" lon="-3.86807">
        <ele>235.60000610352</ele>
        <time>2021-09-12T13:06:18Z</time>
      </trkpt>
      <trkpt lat="48.37973" lon="-3.86766">
        <ele>237.80000305176</ele>
        <time>2021-09-12T13:06:52Z</time>
      </trkpt>
      <trkpt lat="48.37974" lon="-3.86761">
        <ele>237.80000305176</ele>
        <time>2021-09-12T13:06:53Z</time>
      </trkpt>
      <trkpt lat="48.37974" lon="-3.86757">
        <ele>237.80000305176</ele>
        <time>2021-09-12T13:06:54Z</time>
      </trkpt>
      <trkpt lat="48.37974" lon="-3.86754">
        <ele>238</ele>
        <time>2021-09-12T13:06:55Z</time>
      </trkpt>
      <trkpt lat="48.37976" lon="-3.8675">
        <ele>238</ele>
        <time>2021-09-12T13:06:56Z</time>
      </trkpt>
      <trkpt lat="48.37977" lon="-3.86745">
        <ele>238</ele>
        <time>2021-09-12T13:06:57Z</time>
      </trkpt>
      <trkpt lat="48.37978" lon="-3.8674">
        <ele>238</ele>
        <time>2021-09-12T13:06:58Z</time>
      </trkpt>
      <trkpt lat="48.37979" lon="-3.86736">
        <ele>238.19999694824</ele>
        <time>2021-09-12T13:06:59Z</time>
      </trkpt>
      <trkpt lat="48.37979" lon="-3.86733">
        <ele>238.39999389648</ele>
        <time>2021-09-12T13:07:00Z</time>
      </trkpt>
      <trkpt lat="48.37979" lon="-3.8673">
        <ele>238.60000610352</ele>
        <time>2021-09-12T13:07:01Z</time>
      </trkpt>
      <trkpt lat="48.37979" lon="-3.86727">
        <ele>239.39999389648</ele>
        <time>2021-09-12T13:07:02Z</time>
      </trkpt>
      <trkpt lat="48.37979" lon="-3.86724">
        <ele>239.39999389648</ele>
        <time>2021-09-12T13:07:03Z</time>
      </trkpt>
      <trkpt lat="48.37979" lon="-3.86722">
        <ele>239.60000610352</ele>
        <time>2021-09-12T13:07:04Z</time>
      </trkpt>
      <trkpt lat="48.37979" lon="-3.86719">
        <ele>239.80000305176</ele>
        <time>2021-09-12T13:07:05Z</time>
      </trkpt>
      <trkpt lat="48.37981" lon="-3.86715">
        <ele>240.39999389648</ele>
        <time>2021-09-12T13:07:06Z</time>
      </trkpt>
      <trkpt lat="48.37981" lon="-3.86712">
        <ele>240.60000610352</ele>
        <time>2021-09-12T13:07:07Z</time>
      </trkpt>
      <trkpt lat="48.37982" lon="-3.86708">
        <ele>240.60000610352</ele>
        <time>2021-09-12T13:07:08Z</time>
      </trkpt>
      <trkpt lat="48.37982" lon="-3.86705">
        <ele>241</ele>
        <time>2021-09-12T13:07:09Z</time>
      </trkpt>
      <trkpt lat="48.37982" lon="-3.86702">
        <ele>241</ele>
        <time>2021-09-12T13:07:10Z</time>
      </trkpt>
      <trkpt lat="48.37982" lon="-3.86699">
        <ele>241.19999694824</ele>
        <time>2021-09-12T13:07:11Z</time>
      </trkpt>
      <trkpt lat="48.37982" lon="-3.86696">
        <ele>241.19999694824</ele>
        <time>2021-09-12T13:07:12Z</time>
      </trkpt>
      <trkpt lat="48.37982" lon="-3.86692">
        <ele>241.39999389648</ele>
        <time>2021-09-12T13:07:13Z</time>
      </trkpt>
      <trkpt lat="48.37982" lon="-3.86689">
        <ele>241.60000610352</ele>
        <time>2021-09-12T13:07:14Z</time>
      </trkpt>
      <trkpt lat="48.37983" lon="-3.86687">
        <ele>241.60000610352</ele>
        <time>2021-09-12T13:07:15Z</time>
      </trkpt>
      <trkpt lat="48.37983" lon="-3.86685">
        <ele>242.19999694824</ele>
        <time>2021-09-12T13:07:16Z</time>
      </trkpt>
      <trkpt lat="48.37983" lon="-3.86683">
        <ele>242.39999389648</ele>
        <time>2021-09-12T13:07:17Z</time>
      </trkpt>
      <trkpt lat="48.37983" lon="-3.8668">
        <ele>242.60000610352</ele>
        <time>2021-09-12T13:07:18Z</time>
      </trkpt>
      <trkpt lat="48.37983" lon="-3.86677">
        <ele>242.80000305176</ele>
        <time>2021-09-12T13:07:19Z</time>
      </trkpt>
      <trkpt lat="48.37983" lon="-3.86674">
        <ele>242.80000305176</ele>
        <time>2021-09-12T13:07:20Z</time>
      </trkpt>
      <trkpt lat="48.37982" lon="-3.86669">
        <ele>242.80000305176</ele>
        <time>2021-09-12T13:07:21Z</time>
      </trkpt>
      <trkpt lat="48.37981" lon="-3.86665">
        <ele>243</ele>
        <time>2021-09-12T13:07:22Z</time>
      </trkpt>
      <trkpt lat="48.3798" lon="-3.86663">
        <ele>243</ele>
        <time>2021-09-12T13:07:23Z</time>
      </trkpt>
      <trkpt lat="48.37979" lon="-3.86661">
        <ele>243.60000610352</ele>
        <time>2021-09-12T13:07:24Z</time>
      </trkpt>
      <trkpt lat="48.37978" lon="-3.8666">
        <ele>243.60000610352</ele>
        <time>2021-09-12T13:07:25Z</time>
      </trkpt>
      <trkpt lat="48.37977" lon="-3.86658">
        <ele>243.80000305176</ele>
        <time>2021-09-12T13:07:26Z</time>
      </trkpt>
      <trkpt lat="48.37975" lon="-3.86657">
        <ele>244</ele>
        <time>2021-09-12T13:07:27Z</time>
      </trkpt>
      <trkpt lat="48.37974" lon="-3.86656">
        <ele>244</ele>
        <time>2021-09-12T13:07:28Z</time>
      </trkpt>
      <trkpt lat="48.37973" lon="-3.86655">
        <ele>244.19999694824</ele>
        <time>2021-09-12T13:07:29Z</time>
      </trkpt>
      <trkpt lat="48.37972" lon="-3.86654">
        <ele>244.19999694824</ele>
        <time>2021-09-12T13:07:30Z</time>
      </trkpt>
      <trkpt lat="48.37972" lon="-3.86653">
        <ele>244.39999389648</ele>
        <time>2021-09-12T13:07:31Z</time>
      </trkpt>
      <trkpt lat="48.37971" lon="-3.86652">
        <ele>244.60000610352</ele>
        <time>2021-09-12T13:07:32Z</time>
      </trkpt>
      <trkpt lat="48.3797" lon="-3.86651">
        <ele>244.60000610352</ele>
        <time>2021-09-12T13:07:33Z</time>
      </trkpt>
      <trkpt lat="48.3797" lon="-3.86651">
        <ele>244.60000610352</ele>
        <time>2021-09-12T13:07:34Z</time>
      </trkpt>
      <trkpt lat="48.37969" lon="-3.86651">
        <ele>245</ele>
        <time>2021-09-12T13:07:35Z</time>
      </trkpt>
      <trkpt lat="48.37968" lon="-3.8665">
        <ele>245.19999694824</ele>
        <time>2021-09-12T13:07:36Z</time>
      </trkpt>
      <trkpt lat="48.37968" lon="-3.8665">
        <ele>245.39999389648</ele>
        <time>2021-09-12T13:07:37Z</time>
      </trkpt>
      <trkpt lat="48.37968" lon="-3.8665">
        <ele>245.80000305176</ele>
        <time>2021-09-12T13:07:38Z</time>
      </trkpt>
      <trkpt lat="48.37967" lon="-3.86649">
        <ele>245.80000305176</ele>
        <time>2021-09-12T13:07:39Z</time>
      </trkpt>
      <trkpt lat="48.37937" lon="-3.86627">
        <ele>249.60000610352</ele>
        <time>2021-09-12T13:07:57Z</time>
      </trkpt>
      <trkpt lat="48.37935" lon="-3.86625">
        <ele>249.60000610352</ele>
        <time>2021-09-12T13:07:58Z</time>
      </trkpt>
      <trkpt lat="48.37933" lon="-3.86624">
        <ele>249.80000305176</ele>
        <time>2021-09-12T13:07:59Z</time>
      </trkpt>
      <trkpt lat="48.37931" lon="-3.86622">
        <ele>250</ele>
        <time>2021-09-12T13:08:00Z</time>
      </trkpt>
      <trkpt lat="48.37929" lon="-3.8662">
        <ele>250</ele>
        <time>2021-09-12T13:08:01Z</time>
      </trkpt>
      <trkpt lat="48.37926" lon="-3.86618">
        <ele>250.19999694824</ele>
        <time>2021-09-12T13:08:02Z</time>
      </trkpt>
      <trkpt lat="48.37924" lon="-3.86614">
        <ele>250.39999389648</ele>
        <time>2021-09-12T13:08:03Z</time>
      </trkpt>
      <trkpt lat="48.37923" lon="-3.86611">
        <ele>250.39999389648</ele>
        <time>2021-09-12T13:08:04Z</time>
      </trkpt>
      <trkpt lat="48.37922" lon="-3.86606">
        <ele>250.39999389648</ele>
        <time>2021-09-12T13:08:05Z</time>
      </trkpt>
      <trkpt lat="48.37921" lon="-3.86602">
        <ele>250.60000610352</ele>
        <time>2021-09-12T13:08:06Z</time>
      </trkpt>
      <trkpt lat="48.37921" lon="-3.86599">
        <ele>250.80000305176</ele>
        <time>2021-09-12T13:08:07Z</time>
      </trkpt>
      <trkpt lat="48.3792" lon="-3.86595">
        <ele>250.80000305176</ele>
        <time>2021-09-12T13:08:08Z</time>
      </trkpt>
      <trkpt lat="48.37921" lon="-3.86591">
        <ele>251.19999694824</ele>
        <time>2021-09-12T13:08:09Z</time>
      </trkpt>
      <trkpt lat="48.3792" lon="-3.86584">
        <ele>251.39999389648</ele>
        <time>2021-09-12T13:08:10Z</time>
      </trkpt>
      <trkpt lat="48.37919" lon="-3.86578">
        <ele>251.39999389648</ele>
        <time>2021-09-12T13:08:11Z</time>
      </trkpt>
      <trkpt lat="48.37918" lon="-3.86575">
        <ele>251.80000305176</ele>
        <time>2021-09-12T13:08:12Z</time>
      </trkpt>
      <trkpt lat="48.37917" lon="-3.86571">
        <ele>252</ele>
        <time>2021-09-12T13:08:13Z</time>
      </trkpt>
      <trkpt lat="48.37917" lon="-3.86567">
        <ele>252</ele>
        <time>2021-09-12T13:08:14Z</time>
      </trkpt>
      <trkpt lat="48.37917" lon="-3.86564">
        <ele>252.19999694824</ele>
        <time>2021-09-12T13:08:15Z</time>
      </trkpt>
      <trkpt lat="48.37917" lon="-3.86561">
        <ele>252.19999694824</ele>
        <time>2021-09-12T13:08:16Z</time>
      </trkpt>
      <trkpt lat="48.37917" lon="-3.86557">
        <ele>252.60000610352</ele>
        <time>2021-09-12T13:08:17Z</time>
      </trkpt>
      <trkpt lat="48.37917" lon="-3.86553">
        <ele>252.60000610352</ele>
        <time>2021-09-12T13:08:18Z</time>
      </trkpt>
      <trkpt lat="48.37917" lon="-3.86548">
        <ele>252.60000610352</ele>
        <time>2021-09-12T13:08:19Z</time>
      </trkpt>
      <trkpt lat="48.37916" lon="-3.86542">
        <ele>252.80000305176</ele>
        <time>2021-09-12T13:08:20Z</time>
      </trkpt>
      <trkpt lat="48.37916" lon="-3.86538">
        <ele>252.80000305176</ele>
        <time>2021-09-12T13:08:21Z</time>
      </trkpt>
      <trkpt lat="48.37917" lon="-3.86536">
        <ele>253</ele>
        <time>2021-09-12T13:08:22Z</time>
      </trkpt>
      <trkpt lat="48.37918" lon="-3.86532">
        <ele>253.39999389648</ele>
        <time>2021-09-12T13:08:23Z</time>
      </trkpt>
      <trkpt lat="48.37918" lon="-3.86528">
        <ele>253.60000610352</ele>
        <time>2021-09-12T13:08:24Z</time>
      </trkpt>
      <trkpt lat="48.37918" lon="-3.86526">
        <ele>253.60000610352</ele>
        <time>2021-09-12T13:08:25Z</time>
      </trkpt>
      <trkpt lat="48.37918" lon="-3.86523">
        <ele>254</ele>
        <time>2021-09-12T13:08:26Z</time>
      </trkpt>
      <trkpt lat="48.37918" lon="-3.8652">
        <ele>254.19999694824</ele>
        <time>2021-09-12T13:08:27Z</time>
      </trkpt>
      <trkpt lat="48.37919" lon="-3.86518">
        <ele>254.39999389648</ele>
        <time>2021-09-12T13:08:28Z</time>
      </trkpt>
      <trkpt lat="48.37919" lon="-3.86516">
        <ele>254.80000305176</ele>
        <time>2021-09-12T13:08:29Z</time>
      </trkpt>
      <trkpt lat="48.37919" lon="-3.86513">
        <ele>255</ele>
        <time>2021-09-12T13:08:30Z</time>
      </trkpt>
      <trkpt lat="48.3792" lon="-3.86511">
        <ele>255.19999694824</ele>
        <time>2021-09-12T13:08:31Z</time>
      </trkpt>
      <trkpt lat="48.3792" lon="-3.86508">
        <ele>255.19999694824</ele>
        <time>2021-09-12T13:08:32Z</time>
      </trkpt>
      <trkpt lat="48.3792" lon="-3.86505">
        <ele>255.60000610352</ele>
        <time>2021-09-12T13:08:33Z</time>
      </trkpt>
      <trkpt lat="48.3792" lon="-3.86502">
        <ele>255.80000305176</ele>
        <time>2021-09-12T13:08:34Z</time>
      </trkpt>
      <trkpt lat="48.3792" lon="-3.86499">
        <ele>256</ele>
        <time>2021-09-12T13:08:35Z</time>
      </trkpt>
      <trkpt lat="48.37921" lon="-3.86496">
        <ele>256.20001220703</ele>
        <time>2021-09-12T13:08:36Z</time>
      </trkpt>
      <trkpt lat="48.37921" lon="-3.86493">
        <ele>256.39999389648</ele>
        <time>2021-09-12T13:08:37Z</time>
      </trkpt>
      <trkpt lat="48.37922" lon="-3.8649">
        <ele>256.79998779297</ele>
        <time>2021-09-12T13:08:38Z</time>
      </trkpt>
      <trkpt lat="48.37922" lon="-3.86486">
        <ele>257</ele>
        <time>2021-09-12T13:08:39Z</time>
      </trkpt>
      <trkpt lat="48.37922" lon="-3.86482">
        <ele>257.20001220703</ele>
        <time>2021-09-12T13:08:40Z</time>
      </trkpt>
      <trkpt lat="48.37923" lon="-3.8648">
        <ele>257.20001220703</ele>
        <time>2021-09-12T13:08:41Z</time>
      </trkpt>
      <trkpt lat="48.37924" lon="-3.86478">
        <ele>257.60000610352</ele>
        <time>2021-09-12T13:08:42Z</time>
      </trkpt>
      <trkpt lat="48.37924" lon="-3.86474">
        <ele>257.79998779297</ele>
        <time>2021-09-12T13:08:43Z</time>
      </trkpt>
      <trkpt lat="48.37924" lon="-3.8647">
        <ele>258</ele>
        <time>2021-09-12T13:08:44Z</time>
      </trkpt>
      <trkpt lat="48.37924" lon="-3.86467">
        <ele>258</ele>
        <time>2021-09-12T13:08:45Z</time>
      </trkpt>
      <trkpt lat="48.37923" lon="-3.86464">
        <ele>258.20001220703</ele>
        <time>2021-09-12T13:08:46Z</time>
      </trkpt>
      <trkpt lat="48.37923" lon="-3.86461">
        <ele>258.39999389648</ele>
        <time>2021-09-12T13:08:47Z</time>
      </trkpt>
      <trkpt lat="48.37923" lon="-3.86457">
        <ele>258.60000610352</ele>
        <time>2021-09-12T13:08:48Z</time>
      </trkpt>
      <trkpt lat="48.37923" lon="-3.86453">
        <ele>258.60000610352</ele>
        <time>2021-09-12T13:08:49Z</time>
      </trkpt>
      <trkpt lat="48.37923" lon="-3.86448">
        <ele>258.79998779297</ele>
        <time>2021-09-12T13:08:50Z</time>
      </trkpt>
      <trkpt lat="48.37922" lon="-3.86444">
        <ele>259</ele>
        <time>2021-09-12T13:08:51Z</time>
      </trkpt>
      <trkpt lat="48.37922" lon="-3.86439">
        <ele>259</ele>
        <time>2021-09-12T13:08:52Z</time>
      </trkpt>
      <trkpt lat="48.37922" lon="-3.86435">
        <ele>259</ele>
        <time>2021-09-12T13:08:53Z</time>
      </trkpt>
      <trkpt lat="48.37922" lon="-3.8643">
        <ele>259</ele>
        <time>2021-09-12T13:08:54Z</time>
      </trkpt>
      <trkpt lat="48.37921" lon="-3.86426">
        <ele>259</ele>
        <time>2021-09-12T13:08:55Z</time>
      </trkpt>
      <trkpt lat="48.37921" lon="-3.86421">
        <ele>259.20001220703</ele>
        <time>2021-09-12T13:08:56Z</time>
      </trkpt>
      <trkpt lat="48.37922" lon="-3.86415">
        <ele>259.20001220703</ele>
        <time>2021-09-12T13:08:57Z</time>
      </trkpt>
      <trkpt lat="48.37922" lon="-3.86409">
        <ele>259.20001220703</ele>
        <time>2021-09-12T13:08:58Z</time>
      </trkpt>
      <trkpt lat="48.37922" lon="-3.86403">
        <ele>259.39999389648</ele>
        <time>2021-09-12T13:08:59Z</time>
      </trkpt>
      <trkpt lat="48.37922" lon="-3.86399">
        <ele>259.39999389648</ele>
        <time>2021-09-12T13:09:00Z</time>
      </trkpt>
      <trkpt lat="48.37923" lon="-3.86394">
        <ele>259.39999389648</ele>
        <time>2021-09-12T13:09:01Z</time>
      </trkpt>
      <trkpt lat="48.37923" lon="-3.86389">
        <ele>259.39999389648</ele>
        <time>2021-09-12T13:09:02Z</time>
      </trkpt>
      <trkpt lat="48.37923" lon="-3.86383">
        <ele>259.60000610352</ele>
        <time>2021-09-12T13:09:03Z</time>
      </trkpt>
      <trkpt lat="48.37923" lon="-3.86378">
        <ele>259.79998779297</ele>
        <time>2021-09-12T13:09:04Z</time>
      </trkpt>
      <trkpt lat="48.37923" lon="-3.86374">
        <ele>259.79998779297</ele>
        <time>2021-09-12T13:09:05Z</time>
      </trkpt>
      <trkpt lat="48.37923" lon="-3.86368">
        <ele>260</ele>
        <time>2021-09-12T13:09:06Z</time>
      </trkpt>
      <trkpt lat="48.37922" lon="-3.86362">
        <ele>260</ele>
        <time>2021-09-12T13:09:07Z</time>
      </trkpt>
      <trkpt lat="48.37922" lon="-3.86355">
        <ele>260.20001220703</ele>
        <time>2021-09-12T13:09:08Z</time>
      </trkpt>
      <trkpt lat="48.37921" lon="-3.86349">
        <ele>260.20001220703</ele>
        <time>2021-09-12T13:09:09Z</time>
      </trkpt>
      <trkpt lat="48.37922" lon="-3.86345">
        <ele>260.39999389648</ele>
        <time>2021-09-12T13:09:10Z</time>
      </trkpt>
      <trkpt lat="48.37922" lon="-3.86339">
        <ele>260.39999389648</ele>
        <time>2021-09-12T13:09:11Z</time>
      </trkpt>
      <trkpt lat="48.37923" lon="-3.86334">
        <ele>260.60000610352</ele>
        <time>2021-09-12T13:09:12Z</time>
      </trkpt>
      <trkpt lat="48.37923" lon="-3.86328">
        <ele>260.79998779297</ele>
        <time>2021-09-12T13:09:13Z</time>
      </trkpt>
      <trkpt lat="48.37922" lon="-3.86323">
        <ele>260.79998779297</ele>
        <time>2021-09-12T13:09:14Z</time>
      </trkpt>
      <trkpt lat="48.37922" lon="-3.86318">
        <ele>261</ele>
        <time>2021-09-12T13:09:15Z</time>
      </trkpt>
      <trkpt lat="48.37921" lon="-3.86314">
        <ele>261.20001220703</ele>
        <time>2021-09-12T13:09:16Z</time>
      </trkpt>
      <trkpt lat="48.37921" lon="-3.86307">
        <ele>261.20001220703</ele>
        <time>2021-09-12T13:09:17Z</time>
      </trkpt>
      <trkpt lat="48.3792" lon="-3.86297">
        <ele>261.39999389648</ele>
        <time>2021-09-12T13:09:18Z</time>
      </trkpt>
      <trkpt lat="48.37919" lon="-3.86292">
        <ele>261.39999389648</ele>
        <time>2021-09-12T13:09:19Z</time>
      </trkpt>
      <trkpt lat="48.37918" lon="-3.86286">
        <ele>261.39999389648</ele>
        <time>2021-09-12T13:09:20Z</time>
      </trkpt>
      <trkpt lat="48.37917" lon="-3.86281">
        <ele>261.39999389648</ele>
        <time>2021-09-12T13:09:21Z</time>
      </trkpt>
      <trkpt lat="48.37917" lon="-3.86274">
        <ele>261.60000610352</ele>
        <time>2021-09-12T13:09:22Z</time>
      </trkpt>
      <trkpt lat="48.37916" lon="-3.86269">
        <ele>261.79998779297</ele>
        <time>2021-09-12T13:09:23Z</time>
      </trkpt>
      <trkpt lat="48.37915" lon="-3.86263">
        <ele>261.79998779297</ele>
        <time>2021-09-12T13:09:24Z</time>
      </trkpt>
      <trkpt lat="48.37915" lon="-3.86257">
        <ele>261.79998779297</ele>
        <time>2021-09-12T13:09:25Z</time>
      </trkpt>
      <trkpt lat="48.37916" lon="-3.86253">
        <ele>261.79998779297</ele>
        <time>2021-09-12T13:09:26Z</time>
      </trkpt>
      <trkpt lat="48.37915" lon="-3.86247">
        <ele>261.79998779297</ele>
        <time>2021-09-12T13:09:27Z</time>
      </trkpt>
      <trkpt lat="48.37914" lon="-3.86241">
        <ele>262</ele>
        <time>2021-09-12T13:09:28Z</time>
      </trkpt>
      <trkpt lat="48.37913" lon="-3.86237">
        <ele>262</ele>
        <time>2021-09-12T13:09:29Z</time>
      </trkpt>
      <trkpt lat="48.37913" lon="-3.86232">
        <ele>262.20001220703</ele>
        <time>2021-09-12T13:09:30Z</time>
      </trkpt>
      <trkpt lat="48.37912" lon="-3.86226">
        <ele>262.39999389648</ele>
        <time>2021-09-12T13:09:31Z</time>
      </trkpt>
      <trkpt lat="48.37912" lon="-3.86221">
        <ele>262.60000610352</ele>
        <time>2021-09-12T13:09:32Z</time>
      </trkpt>
      <trkpt lat="48.37911" lon="-3.86216">
        <ele>262.79998779297</ele>
        <time>2021-09-12T13:09:33Z</time>
      </trkpt>
      <trkpt lat="48.37911" lon="-3.86212">
        <ele>262.79998779297</ele>
        <time>2021-09-12T13:09:34Z</time>
      </trkpt>
      <trkpt lat="48.3791" lon="-3.86207">
        <ele>263.20001220703</ele>
        <time>2021-09-12T13:09:35Z</time>
      </trkpt>
      <trkpt lat="48.37908" lon="-3.86201">
        <ele>263.20001220703</ele>
        <time>2021-09-12T13:09:36Z</time>
      </trkpt>
      <trkpt lat="48.37907" lon="-3.86196">
        <ele>263.20001220703</ele>
        <time>2021-09-12T13:09:37Z</time>
      </trkpt>
      <trkpt lat="48.37906" lon="-3.8619">
        <ele>263.20001220703</ele>
        <time>2021-09-12T13:09:38Z</time>
      </trkpt>
      <trkpt lat="48.37904" lon="-3.86185">
        <ele>263.20001220703</ele>
        <time>2021-09-12T13:09:39Z</time>
      </trkpt>
      <trkpt lat="48.37903" lon="-3.86181">
        <ele>263.39999389648</ele>
        <time>2021-09-12T13:09:40Z</time>
      </trkpt>
      <trkpt lat="48.37901" lon="-3.86175">
        <ele>263.60000610352</ele>
        <time>2021-09-12T13:09:41Z</time>
      </trkpt>
      <trkpt lat="48.379" lon="-3.8617">
        <ele>263.79998779297</ele>
        <time>2021-09-12T13:09:42Z</time>
      </trkpt>
      <trkpt lat="48.37898" lon="-3.86165">
        <ele>264</ele>
        <time>2021-09-12T13:09:43Z</time>
      </trkpt>
      <trkpt lat="48.37897" lon="-3.8616">
        <ele>264</ele>
        <time>2021-09-12T13:09:44Z</time>
      </trkpt>
      <trkpt lat="48.37895" lon="-3.86155">
        <ele>264</ele>
        <time>2021-09-12T13:09:45Z</time>
      </trkpt>
      <trkpt lat="48.37893" lon="-3.8615">
        <ele>264.20001220703</ele>
        <time>2021-09-12T13:09:46Z</time>
      </trkpt>
      <trkpt lat="48.37891" lon="-3.86145">
        <ele>264.39999389648</ele>
        <time>2021-09-12T13:09:47Z</time>
      </trkpt>
      <trkpt lat="48.37888" lon="-3.8614">
        <ele>264.60000610352</ele>
        <time>2021-09-12T13:09:48Z</time>
      </trkpt>
      <trkpt lat="48.37886" lon="-3.86136">
        <ele>264.79998779297</ele>
        <time>2021-09-12T13:09:49Z</time>
      </trkpt>
      <trkpt lat="48.37884" lon="-3.86133">
        <ele>265.20001220703</ele>
        <time>2021-09-12T13:09:50Z</time>
      </trkpt>
      <trkpt lat="48.37882" lon="-3.86129">
        <ele>265.20001220703</ele>
        <time>2021-09-12T13:09:51Z</time>
      </trkpt>
      <trkpt lat="48.37879" lon="-3.86125">
        <ele>265.39999389648</ele>
        <time>2021-09-12T13:09:52Z</time>
      </trkpt>
      <trkpt lat="48.37877" lon="-3.86122">
        <ele>265.60000610352</ele>
        <time>2021-09-12T13:09:53Z</time>
      </trkpt>
      <trkpt lat="48.37874" lon="-3.86118">
        <ele>265.79998779297</ele>
        <time>2021-09-12T13:09:54Z</time>
      </trkpt>
      <trkpt lat="48.37872" lon="-3.86113">
        <ele>265.79998779297</ele>
        <time>2021-09-12T13:09:55Z</time>
      </trkpt>
      <trkpt lat="48.37869" lon="-3.86109">
        <ele>266</ele>
        <time>2021-09-12T13:09:56Z</time>
      </trkpt>
      <trkpt lat="48.37866" lon="-3.86104">
        <ele>266</ele>
        <time>2021-09-12T13:09:57Z</time>
      </trkpt>
      <trkpt lat="48.37863" lon="-3.86101">
        <ele>266</ele>
        <time>2021-09-12T13:09:58Z</time>
      </trkpt>
      <trkpt lat="48.3786" lon="-3.86096">
        <ele>266</ele>
        <time>2021-09-12T13:09:59Z</time>
      </trkpt>
      <trkpt lat="48.37857" lon="-3.86092">
        <ele>266.20001220703</ele>
        <time>2021-09-12T13:10:00Z</time>
      </trkpt>
      <trkpt lat="48.37854" lon="-3.86088">
        <ele>266.20001220703</ele>
        <time>2021-09-12T13:10:01Z</time>
      </trkpt>
      <trkpt lat="48.37851" lon="-3.86083">
        <ele>266.20001220703</ele>
        <time>2021-09-12T13:10:02Z</time>
      </trkpt>
      <trkpt lat="48.37849" lon="-3.8608">
        <ele>266.39999389648</ele>
        <time>2021-09-12T13:10:03Z</time>
      </trkpt>
      <trkpt lat="48.37846" lon="-3.86076">
        <ele>266.39999389648</ele>
        <time>2021-09-12T13:10:04Z</time>
      </trkpt>
      <trkpt lat="48.37843" lon="-3.86072">
        <ele>266.60000610352</ele>
        <time>2021-09-12T13:10:05Z</time>
      </trkpt>
      <trkpt lat="48.37839" lon="-3.86068">
        <ele>266.79998779297</ele>
        <time>2021-09-12T13:10:06Z</time>
      </trkpt>
      <trkpt lat="48.37836" lon="-3.86063">
        <ele>266.79998779297</ele>
        <time>2021-09-12T13:10:07Z</time>
      </trkpt>
      <trkpt lat="48.37832" lon="-3.86058">
        <ele>266.79998779297</ele>
        <time>2021-09-12T13:10:08Z</time>
      </trkpt>
      <trkpt lat="48.37829" lon="-3.86054">
        <ele>266.79998779297</ele>
        <time>2021-09-12T13:10:09Z</time>
      </trkpt>
      <trkpt lat="48.37826" lon="-3.8605">
        <ele>266.79998779297</ele>
        <time>2021-09-12T13:10:10Z</time>
      </trkpt>
      <trkpt lat="48.37823" lon="-3.86046">
        <ele>266.79998779297</ele>
        <time>2021-09-12T13:10:11Z</time>
      </trkpt>
      <trkpt lat="48.3782" lon="-3.86043">
        <ele>266.79998779297</ele>
        <time>2021-09-12T13:10:12Z</time>
      </trkpt>
      <trkpt lat="48.37817" lon="-3.86039">
        <ele>266.79998779297</ele>
        <time>2021-09-12T13:10:13Z</time>
      </trkpt>
      <trkpt lat="48.37814" lon="-3.86034">
        <ele>266.79998779297</ele>
        <time>2021-09-12T13:10:14Z</time>
      </trkpt>
      <trkpt lat="48.3781" lon="-3.86029">
        <ele>266.79998779297</ele>
        <time>2021-09-12T13:10:15Z</time>
      </trkpt>
      <trkpt lat="48.37806" lon="-3.86024">
        <ele>266.79998779297</ele>
        <time>2021-09-12T13:10:16Z</time>
      </trkpt>
      <trkpt lat="48.37803" lon="-3.8602">
        <ele>266.79998779297</ele>
        <time>2021-09-12T13:10:17Z</time>
      </trkpt>
      <trkpt lat="48.378" lon="-3.86016">
        <ele>266.79998779297</ele>
        <time>2021-09-12T13:10:18Z</time>
      </trkpt>
      <trkpt lat="48.37797" lon="-3.86012">
        <ele>266.79998779297</ele>
        <time>2021-09-12T13:10:19Z</time>
      </trkpt>
      <trkpt lat="48.37793" lon="-3.86006">
        <ele>266.79998779297</ele>
        <time>2021-09-12T13:10:20Z</time>
      </trkpt>
      <trkpt lat="48.3779" lon="-3.86002">
        <ele>266.79998779297</ele>
        <time>2021-09-12T13:10:21Z</time>
      </trkpt>
      <trkpt lat="48.37787" lon="-3.85998">
        <ele>266.79998779297</ele>
        <time>2021-09-12T13:10:22Z</time>
      </trkpt>
      <trkpt lat="48.37783" lon="-3.85993">
        <ele>266.60000610352</ele>
        <time>2021-09-12T13:10:23Z</time>
      </trkpt>
      <trkpt lat="48.3778" lon="-3.85989">
        <ele>266.60000610352</ele>
        <time>2021-09-12T13:10:24Z</time>
      </trkpt>
      <trkpt lat="48.37777" lon="-3.85984">
        <ele>266.60000610352</ele>
        <time>2021-09-12T13:10:25Z</time>
      </trkpt>
      <trkpt lat="48.37773" lon="-3.85979">
        <ele>266.79998779297</ele>
        <time>2021-09-12T13:10:26Z</time>
      </trkpt>
      <trkpt lat="48.3777" lon="-3.85975">
        <ele>266.79998779297</ele>
        <time>2021-09-12T13:10:27Z</time>
      </trkpt>
      <trkpt lat="48.37767" lon="-3.8597">
        <ele>266.60000610352</ele>
        <time>2021-09-12T13:10:28Z</time>
      </trkpt>
      <trkpt lat="48.37764" lon="-3.85965">
        <ele>266.60000610352</ele>
        <time>2021-09-12T13:10:29Z</time>
      </trkpt>
      <trkpt lat="48.3776" lon="-3.8596">
        <ele>266.79998779297</ele>
        <time>2021-09-12T13:10:30Z</time>
      </trkpt>
      <trkpt lat="48.37757" lon="-3.85955">
        <ele>266.79998779297</ele>
        <time>2021-09-12T13:10:31Z</time>
      </trkpt>
      <trkpt lat="48.37754" lon="-3.85949">
        <ele>266.79998779297</ele>
        <time>2021-09-12T13:10:32Z</time>
      </trkpt>
      <trkpt lat="48.37751" lon="-3.85943">
        <ele>266.79998779297</ele>
        <time>2021-09-12T13:10:33Z</time>
      </trkpt>
      <trkpt lat="48.37747" lon="-3.85938">
        <ele>267</ele>
        <time>2021-09-12T13:10:34Z</time>
      </trkpt>
      <trkpt lat="48.37744" lon="-3.85933">
        <ele>267</ele>
        <time>2021-09-12T13:10:35Z</time>
      </trkpt>
      <trkpt lat="48.3774" lon="-3.85927">
        <ele>267.20001220703</ele>
        <time>2021-09-12T13:10:36Z</time>
      </trkpt>
      <trkpt lat="48.37737" lon="-3.85922">
        <ele>267.20001220703</ele>
        <time>2021-09-12T13:10:37Z</time>
      </trkpt>
      <trkpt lat="48.37734" lon="-3.85917">
        <ele>267.20001220703</ele>
        <time>2021-09-12T13:10:38Z</time>
      </trkpt>
      <trkpt lat="48.3773" lon="-3.85911">
        <ele>267.20001220703</ele>
        <time>2021-09-12T13:10:39Z</time>
      </trkpt>
      <trkpt lat="48.37727" lon="-3.85906">
        <ele>267.20001220703</ele>
        <time>2021-09-12T13:10:40Z</time>
      </trkpt>
      <trkpt lat="48.37724" lon="-3.85899">
        <ele>267.20001220703</ele>
        <time>2021-09-12T13:10:41Z</time>
      </trkpt>
      <trkpt lat="48.37721" lon="-3.85893">
        <ele>267.20001220703</ele>
        <time>2021-09-12T13:10:42Z</time>
      </trkpt>
      <trkpt lat="48.37719" lon="-3.85887">
        <ele>267.20001220703</ele>
        <time>2021-09-12T13:10:43Z</time>
      </trkpt>
      <trkpt lat="48.37716" lon="-3.8588">
        <ele>267.20001220703</ele>
        <time>2021-09-12T13:10:44Z</time>
      </trkpt>
      <trkpt lat="48.37714" lon="-3.85874">
        <ele>267</ele>
        <time>2021-09-12T13:10:45Z</time>
      </trkpt>
      <trkpt lat="48.37712" lon="-3.85867">
        <ele>267</ele>
        <time>2021-09-12T13:10:46Z</time>
      </trkpt>
      <trkpt lat="48.37709" lon="-3.8586">
        <ele>267</ele>
        <time>2021-09-12T13:10:47Z</time>
      </trkpt>
      <trkpt lat="48.37707" lon="-3.85854">
        <ele>267</ele>
        <time>2021-09-12T13:10:48Z</time>
      </trkpt>
      <trkpt lat="48.37704" lon="-3.85848">
        <ele>267</ele>
        <time>2021-09-12T13:10:49Z</time>
      </trkpt>
      <trkpt lat="48.37702" lon="-3.85842">
        <ele>267</ele>
        <time>2021-09-12T13:10:50Z</time>
      </trkpt>
      <trkpt lat="48.37699" lon="-3.85837">
        <ele>267</ele>
        <time>2021-09-12T13:10:51Z</time>
      </trkpt>
      <trkpt lat="48.37696" lon="-3.85831">
        <ele>267.20001220703</ele>
        <time>2021-09-12T13:10:52Z</time>
      </trkpt>
      <trkpt lat="48.37694" lon="-3.85824">
        <ele>267.20001220703</ele>
        <time>2021-09-12T13:10:53Z</time>
      </trkpt>
      <trkpt lat="48.37691" lon="-3.85818">
        <ele>267.20001220703</ele>
        <time>2021-09-12T13:10:54Z</time>
      </trkpt>
      <trkpt lat="48.37689" lon="-3.85812">
        <ele>267.20001220703</ele>
        <time>2021-09-12T13:10:55Z</time>
      </trkpt>
      <trkpt lat="48.37687" lon="-3.85806">
        <ele>267.20001220703</ele>
        <time>2021-09-12T13:10:56Z</time>
      </trkpt>
      <trkpt lat="48.37685" lon="-3.85802">
        <ele>267.20001220703</ele>
        <time>2021-09-12T13:10:57Z</time>
      </trkpt>
      <trkpt lat="48.37683" lon="-3.85797">
        <ele>267.39999389648</ele>
        <time>2021-09-12T13:10:58Z</time>
      </trkpt>
      <trkpt lat="48.37681" lon="-3.85791">
        <ele>267.39999389648</ele>
        <time>2021-09-12T13:10:59Z</time>
      </trkpt>
      <trkpt lat="48.37679" lon="-3.85786">
        <ele>267.39999389648</ele>
        <time>2021-09-12T13:11:00Z</time>
      </trkpt>
      <trkpt lat="48.37677" lon="-3.8578">
        <ele>267.79998779297</ele>
        <time>2021-09-12T13:11:01Z</time>
      </trkpt>
      <trkpt lat="48.37675" lon="-3.85773">
        <ele>267.79998779297</ele>
        <time>2021-09-12T13:11:02Z</time>
      </trkpt>
      <trkpt lat="48.37674" lon="-3.85767">
        <ele>268</ele>
        <time>2021-09-12T13:11:03Z</time>
      </trkpt>
      <trkpt lat="48.37672" lon="-3.85761">
        <ele>268.20001220703</ele>
        <time>2021-09-12T13:11:04Z</time>
      </trkpt>
      <trkpt lat="48.37671" lon="-3.85755">
        <ele>268.39999389648</ele>
        <time>2021-09-12T13:11:05Z</time>
      </trkpt>
      <trkpt lat="48.3767" lon="-3.85748">
        <ele>268.39999389648</ele>
        <time>2021-09-12T13:11:06Z</time>
      </trkpt>
      <trkpt lat="48.37669" lon="-3.85742">
        <ele>268.39999389648</ele>
        <time>2021-09-12T13:11:07Z</time>
      </trkpt>
      <trkpt lat="48.37668" lon="-3.85736">
        <ele>268.60000610352</ele>
        <time>2021-09-12T13:11:08Z</time>
      </trkpt>
      <trkpt lat="48.37668" lon="-3.8573">
        <ele>268.60000610352</ele>
        <time>2021-09-12T13:11:09Z</time>
      </trkpt>
      <trkpt lat="48.37668" lon="-3.85725">
        <ele>268.60000610352</ele>
        <time>2021-09-12T13:11:10Z</time>
      </trkpt>
      <trkpt lat="48.37668" lon="-3.85719">
        <ele>268.60000610352</ele>
        <time>2021-09-12T13:11:11Z</time>
      </trkpt>
      <trkpt lat="48.37668" lon="-3.85712">
        <ele>268.39999389648</ele>
        <time>2021-09-12T13:11:12Z</time>
      </trkpt>
      <trkpt lat="48.37668" lon="-3.85704">
        <ele>268</ele>
        <time>2021-09-12T13:11:13Z</time>
      </trkpt>
      <trkpt lat="48.37667" lon="-3.85696">
        <ele>267.79998779297</ele>
        <time>2021-09-12T13:11:14Z</time>
      </trkpt>
      <trkpt lat="48.37665" lon="-3.85689">
        <ele>267.79998779297</ele>
        <time>2021-09-12T13:11:15Z</time>
      </trkpt>
      <trkpt lat="48.37663" lon="-3.85683">
        <ele>267.60000610352</ele>
        <time>2021-09-12T13:11:16Z</time>
      </trkpt>
      <trkpt lat="48.37661" lon="-3.85677">
        <ele>267.60000610352</ele>
        <time>2021-09-12T13:11:17Z</time>
      </trkpt>
      <trkpt lat="48.37659" lon="-3.85671">
        <ele>267.20001220703</ele>
        <time>2021-09-12T13:11:18Z</time>
      </trkpt>
      <trkpt lat="48.37657" lon="-3.85664">
        <ele>267</ele>
        <time>2021-09-12T13:11:19Z</time>
      </trkpt>
      <trkpt lat="48.37655" lon="-3.85656">
        <ele>267</ele>
        <time>2021-09-12T13:11:20Z</time>
      </trkpt>
      <trkpt lat="48.37652" lon="-3.85648">
        <ele>266.79998779297</ele>
        <time>2021-09-12T13:11:21Z</time>
      </trkpt>
      <trkpt lat="48.3765" lon="-3.8564">
        <ele>266.60000610352</ele>
        <time>2021-09-12T13:11:22Z</time>
      </trkpt>
      <trkpt lat="48.37647" lon="-3.85633">
        <ele>266</ele>
        <time>2021-09-12T13:11:23Z</time>
      </trkpt>
      <trkpt lat="48.37644" lon="-3.85624">
        <ele>265.20001220703</ele>
        <time>2021-09-12T13:11:24Z</time>
      </trkpt>
      <trkpt lat="48.3764" lon="-3.85616">
        <ele>265</ele>
        <time>2021-09-12T13:11:25Z</time>
      </trkpt>
      <trkpt lat="48.37637" lon="-3.85608">
        <ele>264</ele>
        <time>2021-09-12T13:11:26Z</time>
      </trkpt>
      <trkpt lat="48.37634" lon="-3.856">
        <ele>264</ele>
        <time>2021-09-12T13:11:27Z</time>
      </trkpt>
      <trkpt lat="48.3763" lon="-3.85591">
        <ele>264</ele>
        <time>2021-09-12T13:11:28Z</time>
      </trkpt>
      <trkpt lat="48.37626" lon="-3.85582">
        <ele>263.60000610352</ele>
        <time>2021-09-12T13:11:29Z</time>
      </trkpt>
      <trkpt lat="48.37621" lon="-3.85572">
        <ele>263.39999389648</ele>
        <time>2021-09-12T13:11:30Z</time>
      </trkpt>
      <trkpt lat="48.37616" lon="-3.85565">
        <ele>262.60000610352</ele>
        <time>2021-09-12T13:11:31Z</time>
      </trkpt>
      <trkpt lat="48.37611" lon="-3.85557">
        <ele>262.39999389648</ele>
        <time>2021-09-12T13:11:32Z</time>
      </trkpt>
      <trkpt lat="48.37608" lon="-3.85548">
        <ele>262.20001220703</ele>
        <time>2021-09-12T13:11:33Z</time>
      </trkpt>
      <trkpt lat="48.37605" lon="-3.85539">
        <ele>262</ele>
        <time>2021-09-12T13:11:34Z</time>
      </trkpt>
      <trkpt lat="48.37602" lon="-3.8553">
        <ele>261.39999389648</ele>
        <time>2021-09-12T13:11:35Z</time>
      </trkpt>
      <trkpt lat="48.37599" lon="-3.85521">
        <ele>260.79998779297</ele>
        <time>2021-09-12T13:11:36Z</time>
      </trkpt>
      <trkpt lat="48.37594" lon="-3.85508">
        <ele>260.39999389648</ele>
        <time>2021-09-12T13:11:37Z</time>
      </trkpt>
      <trkpt lat="48.3759" lon="-3.85495">
        <ele>259.60000610352</ele>
        <time>2021-09-12T13:11:38Z</time>
      </trkpt>
      <trkpt lat="48.37586" lon="-3.85482">
        <ele>258.60000610352</ele>
        <time>2021-09-12T13:11:39Z</time>
      </trkpt>
      <trkpt lat="48.37583" lon="-3.8547">
        <ele>256.79998779297</ele>
        <time>2021-09-12T13:11:40Z</time>
      </trkpt>
      <trkpt lat="48.37579" lon="-3.85459">
        <ele>256.60000610352</ele>
        <time>2021-09-12T13:11:41Z</time>
      </trkpt>
      <trkpt lat="48.37577" lon="-3.85451">
        <ele>256.39999389648</ele>
        <time>2021-09-12T13:11:42Z</time>
      </trkpt>
      <trkpt lat="48.37577" lon="-3.85443">
        <ele>255.80000305176</ele>
        <time>2021-09-12T13:11:43Z</time>
      </trkpt>
      <trkpt lat="48.37578" lon="-3.85433">
        <ele>255</ele>
        <time>2021-09-12T13:11:44Z</time>
      </trkpt>
      <trkpt lat="48.37578" lon="-3.85422">
        <ele>253.80000305176</ele>
        <time>2021-09-12T13:11:45Z</time>
      </trkpt>
      <trkpt lat="48.37576" lon="-3.85412">
        <ele>253</ele>
        <time>2021-09-12T13:11:46Z</time>
      </trkpt>
      <trkpt lat="48.37573" lon="-3.85403">
        <ele>252.80000305176</ele>
        <time>2021-09-12T13:11:47Z</time>
      </trkpt>
      <trkpt lat="48.3757" lon="-3.85393">
        <ele>252.19999694824</ele>
        <time>2021-09-12T13:11:48Z</time>
      </trkpt>
      <trkpt lat="48.37567" lon="-3.85383">
        <ele>252.19999694824</ele>
        <time>2021-09-12T13:11:49Z</time>
      </trkpt>
      <trkpt lat="48.37562" lon="-3.85373">
        <ele>252</ele>
        <time>2021-09-12T13:11:50Z</time>
      </trkpt>
      <trkpt lat="48.37559" lon="-3.85364">
        <ele>251.19999694824</ele>
        <time>2021-09-12T13:11:51Z</time>
      </trkpt>
      <trkpt lat="48.37556" lon="-3.85355">
        <ele>251.19999694824</ele>
        <time>2021-09-12T13:11:52Z</time>
      </trkpt>
      <trkpt lat="48.37553" lon="-3.85347">
        <ele>251</ele>
        <time>2021-09-12T13:11:53Z</time>
      </trkpt>
      <trkpt lat="48.37549" lon="-3.85338">
        <ele>250.80000305176</ele>
        <time>2021-09-12T13:11:54Z</time>
      </trkpt>
      <trkpt lat="48.37545" lon="-3.85328">
        <ele>250.60000610352</ele>
        <time>2021-09-12T13:11:55Z</time>
      </trkpt>
      <trkpt lat="48.37541" lon="-3.85318">
        <ele>250.39999389648</ele>
        <time>2021-09-12T13:11:56Z</time>
      </trkpt>
      <trkpt lat="48.37538" lon="-3.85307">
        <ele>250.19999694824</ele>
        <time>2021-09-12T13:11:57Z</time>
      </trkpt>
      <trkpt lat="48.37534" lon="-3.85296">
        <ele>249.80000305176</ele>
        <time>2021-09-12T13:11:58Z</time>
      </trkpt>
      <trkpt lat="48.37531" lon="-3.85288">
        <ele>249.80000305176</ele>
        <time>2021-09-12T13:11:59Z</time>
      </trkpt>
      <trkpt lat="48.37527" lon="-3.85277">
        <ele>248.80000305176</ele>
        <time>2021-09-12T13:12:00Z</time>
      </trkpt>
      <trkpt lat="48.37523" lon="-3.85266">
        <ele>248.80000305176</ele>
        <time>2021-09-12T13:12:01Z</time>
      </trkpt>
      <trkpt lat="48.37518" lon="-3.85254">
        <ele>248.19999694824</ele>
        <time>2021-09-12T13:12:02Z</time>
      </trkpt>
      <trkpt lat="48.37513" lon="-3.85244">
        <ele>247.19999694824</ele>
        <time>2021-09-12T13:12:03Z</time>
      </trkpt>
      <trkpt lat="48.37509" lon="-3.85236">
        <ele>247.19999694824</ele>
        <time>2021-09-12T13:12:04Z</time>
      </trkpt>
      <trkpt lat="48.37504" lon="-3.85223">
        <ele>246.19999694824</ele>
        <time>2021-09-12T13:12:05Z</time>
      </trkpt>
      <trkpt lat="48.375" lon="-3.85213">
        <ele>246.19999694824</ele>
        <time>2021-09-12T13:12:06Z</time>
      </trkpt>
      <trkpt lat="48.37496" lon="-3.85202">
        <ele>246.19999694824</ele>
        <time>2021-09-12T13:12:07Z</time>
      </trkpt>
      <trkpt lat="48.37492" lon="-3.85193">
        <ele>245.39999389648</ele>
        <time>2021-09-12T13:12:08Z</time>
      </trkpt>
      <trkpt lat="48.37488" lon="-3.85183">
        <ele>245.39999389648</ele>
        <time>2021-09-12T13:12:09Z</time>
      </trkpt>
      <trkpt lat="48.37485" lon="-3.85174">
        <ele>244.60000610352</ele>
        <time>2021-09-12T13:12:10Z</time>
      </trkpt>
      <trkpt lat="48.3748" lon="-3.85164">
        <ele>244.60000610352</ele>
        <time>2021-09-12T13:12:11Z</time>
      </trkpt>
      <trkpt lat="48.37476" lon="-3.85155">
        <ele>244.19999694824</ele>
        <time>2021-09-12T13:12:12Z</time>
      </trkpt>
      <trkpt lat="48.37472" lon="-3.85146">
        <ele>244</ele>
        <time>2021-09-12T13:12:13Z</time>
      </trkpt>
      <trkpt lat="48.37468" lon="-3.85137">
        <ele>243.80000305176</ele>
        <time>2021-09-12T13:12:14Z</time>
      </trkpt>
      <trkpt lat="48.37464" lon="-3.85129">
        <ele>243.19999694824</ele>
        <time>2021-09-12T13:12:15Z</time>
      </trkpt>
      <trkpt lat="48.3746" lon="-3.8512">
        <ele>242.39999389648</ele>
        <time>2021-09-12T13:12:16Z</time>
      </trkpt>
      <trkpt lat="48.37454" lon="-3.85112">
        <ele>242</ele>
        <time>2021-09-12T13:12:17Z</time>
      </trkpt>
      <trkpt lat="48.3745" lon="-3.85105">
        <ele>241.80000305176</ele>
        <time>2021-09-12T13:12:18Z</time>
      </trkpt>
      <trkpt lat="48.37443" lon="-3.85097">
        <ele>241.80000305176</ele>
        <time>2021-09-12T13:12:19Z</time>
      </trkpt>
      <trkpt lat="48.37436" lon="-3.85091">
        <ele>241.60000610352</ele>
        <time>2021-09-12T13:12:20Z</time>
      </trkpt>
      <trkpt lat="48.3743" lon="-3.85087">
        <ele>241.19999694824</ele>
        <time>2021-09-12T13:12:21Z</time>
      </trkpt>
      <trkpt lat="48.37424" lon="-3.85084">
        <ele>241</ele>
        <time>2021-09-12T13:12:22Z</time>
      </trkpt>
      <trkpt lat="48.37419" lon="-3.85082">
        <ele>240.80000305176</ele>
        <time>2021-09-12T13:12:23Z</time>
      </trkpt>
      <trkpt lat="48.37412" lon="-3.8508">
        <ele>240.80000305176</ele>
        <time>2021-09-12T13:12:24Z</time>
      </trkpt>
      <trkpt lat="48.37407" lon="-3.85078">
        <ele>240.80000305176</ele>
        <time>2021-09-12T13:12:25Z</time>
      </trkpt>
      <trkpt lat="48.37402" lon="-3.85076">
        <ele>240.80000305176</ele>
        <time>2021-09-12T13:12:26Z</time>
      </trkpt>
      <trkpt lat="48.374" lon="-3.85075">
        <ele>240.80000305176</ele>
        <time>2021-09-12T13:12:27Z</time>
      </trkpt>
      <trkpt lat="48.37398" lon="-3.85073">
        <ele>240.80000305176</ele>
        <time>2021-09-12T13:12:28Z</time>
      </trkpt>
      <trkpt lat="48.37397" lon="-3.85072">
        <ele>240.19999694824</ele>
        <time>2021-09-12T13:12:29Z</time>
      </trkpt>
      <trkpt lat="48.37396" lon="-3.85072">
        <ele>240.19999694824</ele>
        <time>2021-09-12T13:12:30Z</time>
      </trkpt>
      <trkpt lat="48.37396" lon="-3.85072">
        <ele>240.19999694824</ele>
        <time>2021-09-12T13:12:31Z</time>
      </trkpt>
      <trkpt lat="48.37395" lon="-3.85073">
        <ele>240.19999694824</ele>
        <time>2021-09-12T13:12:32Z</time>
      </trkpt>
      <trkpt lat="48.37393" lon="-3.85073">
        <ele>240.19999694824</ele>
        <time>2021-09-12T13:12:33Z</time>
      </trkpt>
      <trkpt lat="48.37392" lon="-3.85073">
        <ele>240.60000610352</ele>
        <time>2021-09-12T13:12:34Z</time>
      </trkpt>
      <trkpt lat="48.37389" lon="-3.85073">
        <ele>240.60000610352</ele>
        <time>2021-09-12T13:12:35Z</time>
      </trkpt>
      <trkpt lat="48.37387" lon="-3.85072">
        <ele>240.60000610352</ele>
        <time>2021-09-12T13:12:36Z</time>
      </trkpt>
      <trkpt lat="48.37385" lon="-3.85071">
        <ele>240.60000610352</ele>
        <time>2021-09-12T13:12:37Z</time>
      </trkpt>
      <trkpt lat="48.37382" lon="-3.85069">
        <ele>240.60000610352</ele>
        <time>2021-09-12T13:12:38Z</time>
      </trkpt>
      <trkpt lat="48.3738" lon="-3.85068">
        <ele>240.60000610352</ele>
        <time>2021-09-12T13:12:39Z</time>
      </trkpt>
      <trkpt lat="48.37378" lon="-3.85069">
        <ele>240.60000610352</ele>
        <time>2021-09-12T13:12:40Z</time>
      </trkpt>
      <trkpt lat="48.37377" lon="-3.8507">
        <ele>240.60000610352</ele>
        <time>2021-09-12T13:12:41Z</time>
      </trkpt>
      <trkpt lat="48.37375" lon="-3.8507">
        <ele>240.60000610352</ele>
        <time>2021-09-12T13:12:42Z</time>
      </trkpt>
      <trkpt lat="48.37373" lon="-3.85069">
        <ele>240.80000305176</ele>
        <time>2021-09-12T13:12:43Z</time>
      </trkpt>
      <trkpt lat="48.37371" lon="-3.85069">
        <ele>240.60000610352</ele>
        <time>2021-09-12T13:12:44Z</time>
      </trkpt>
      <trkpt lat="48.37369" lon="-3.85068">
        <ele>240.60000610352</ele>
        <time>2021-09-12T13:12:45Z</time>
      </trkpt>
      <trkpt lat="48.37367" lon="-3.85068">
        <ele>240.60000610352</ele>
        <time>2021-09-12T13:12:46Z</time>
      </trkpt>
      <trkpt lat="48.37364" lon="-3.85068">
        <ele>240.39999389648</ele>
        <time>2021-09-12T13:12:47Z</time>
      </trkpt>
      <trkpt lat="48.37361" lon="-3.8507">
        <ele>240.39999389648</ele>
        <time>2021-09-12T13:12:48Z</time>
      </trkpt>
      <trkpt lat="48.37358" lon="-3.85073">
        <ele>240.39999389648</ele>
        <time>2021-09-12T13:12:49Z</time>
      </trkpt>
      <trkpt lat="48.37356" lon="-3.85075">
        <ele>240.39999389648</ele>
        <time>2021-09-12T13:12:50Z</time>
      </trkpt>
      <trkpt lat="48.37353" lon="-3.85078">
        <ele>240.39999389648</ele>
        <time>2021-09-12T13:12:51Z</time>
      </trkpt>
      <trkpt lat="48.37351" lon="-3.85081">
        <ele>240.39999389648</ele>
        <time>2021-09-12T13:12:52Z</time>
      </trkpt>
      <trkpt lat="48.37348" lon="-3.85085">
        <ele>240.60000610352</ele>
        <time>2021-09-12T13:12:53Z</time>
      </trkpt>
      <trkpt lat="48.37345" lon="-3.85089">
        <ele>240.60000610352</ele>
        <time>2021-09-12T13:12:54Z</time>
      </trkpt>
      <trkpt lat="48.37343" lon="-3.85094">
        <ele>240.60000610352</ele>
        <time>2021-09-12T13:12:55Z</time>
      </trkpt>
      <trkpt lat="48.37341" lon="-3.85097">
        <ele>240.60000610352</ele>
        <time>2021-09-12T13:12:56Z</time>
      </trkpt>
      <trkpt lat="48.37339" lon="-3.85102">
        <ele>240.80000305176</ele>
        <time>2021-09-12T13:12:57Z</time>
      </trkpt>
      <trkpt lat="48.37336" lon="-3.85106">
        <ele>241</ele>
        <time>2021-09-12T13:12:58Z</time>
      </trkpt>
      <trkpt lat="48.37333" lon="-3.85109">
        <ele>241.19999694824</ele>
        <time>2021-09-12T13:12:59Z</time>
      </trkpt>
      <trkpt lat="48.37331" lon="-3.85112">
        <ele>241.39999389648</ele>
        <time>2021-09-12T13:13:00Z</time>
      </trkpt>
      <trkpt lat="48.37328" lon="-3.85114">
        <ele>241.39999389648</ele>
        <time>2021-09-12T13:13:01Z</time>
      </trkpt>
      <trkpt lat="48.37325" lon="-3.85116">
        <ele>241.60000610352</ele>
        <time>2021-09-12T13:13:02Z</time>
      </trkpt>
      <trkpt lat="48.37322" lon="-3.85118">
        <ele>241.80000305176</ele>
        <time>2021-09-12T13:13:03Z</time>
      </trkpt>
      <trkpt lat="48.37319" lon="-3.85119">
        <ele>242</ele>
        <time>2021-09-12T13:13:04Z</time>
      </trkpt>
      <trkpt lat="48.37317" lon="-3.8512">
        <ele>242.39999389648</ele>
        <time>2021-09-12T13:13:05Z</time>
      </trkpt>
      <trkpt lat="48.37314" lon="-3.8512">
        <ele>242.39999389648</ele>
        <time>2021-09-12T13:13:06Z</time>
      </trkpt>
      <trkpt lat="48.37312" lon="-3.8512">
        <ele>242.60000610352</ele>
        <time>2021-09-12T13:13:07Z</time>
      </trkpt>
      <trkpt lat="48.37309" lon="-3.85119">
        <ele>242.80000305176</ele>
        <time>2021-09-12T13:13:08Z</time>
      </trkpt>
      <trkpt lat="48.37307" lon="-3.85117">
        <ele>243</ele>
        <time>2021-09-12T13:13:09Z</time>
      </trkpt>
      <trkpt lat="48.37304" lon="-3.85115">
        <ele>243.19999694824</ele>
        <time>2021-09-12T13:13:10Z</time>
      </trkpt>
      <trkpt lat="48.37302" lon="-3.85113">
        <ele>243.60000610352</ele>
        <time>2021-09-12T13:13:11Z</time>
      </trkpt>
      <trkpt lat="48.373" lon="-3.8511">
        <ele>243.80000305176</ele>
        <time>2021-09-12T13:13:12Z</time>
      </trkpt>
      <trkpt lat="48.37297" lon="-3.85107">
        <ele>243.80000305176</ele>
        <time>2021-09-12T13:13:13Z</time>
      </trkpt>
      <trkpt lat="48.37294" lon="-3.85103">
        <ele>244</ele>
        <time>2021-09-12T13:13:14Z</time>
      </trkpt>
      <trkpt lat="48.37292" lon="-3.851">
        <ele>244</ele>
        <time>2021-09-12T13:13:15Z</time>
      </trkpt>
      <trkpt lat="48.3729" lon="-3.85097">
        <ele>244.19999694824</ele>
        <time>2021-09-12T13:13:16Z</time>
      </trkpt>
      <trkpt lat="48.37288" lon="-3.85094">
        <ele>244.19999694824</ele>
        <time>2021-09-12T13:13:17Z</time>
      </trkpt>
      <trkpt lat="48.37286" lon="-3.85089">
        <ele>244.39999389648</ele>
        <time>2021-09-12T13:13:18Z</time>
      </trkpt>
      <trkpt lat="48.37284" lon="-3.85086">
        <ele>244.60000610352</ele>
        <time>2021-09-12T13:13:19Z</time>
      </trkpt>
      <trkpt lat="48.37283" lon="-3.85081">
        <ele>244.60000610352</ele>
        <time>2021-09-12T13:13:20Z</time>
      </trkpt>
      <trkpt lat="48.37281" lon="-3.85077">
        <ele>244.60000610352</ele>
        <time>2021-09-12T13:13:21Z</time>
      </trkpt>
      <trkpt lat="48.37279" lon="-3.85072">
        <ele>244.60000610352</ele>
        <time>2021-09-12T13:13:22Z</time>
      </trkpt>
      <trkpt lat="48.37278" lon="-3.85068">
        <ele>244.60000610352</ele>
        <time>2021-09-12T13:13:23Z</time>
      </trkpt>
      <trkpt lat="48.37276" lon="-3.85063">
        <ele>244.60000610352</ele>
        <time>2021-09-12T13:13:24Z</time>
      </trkpt>
      <trkpt lat="48.37275" lon="-3.85058">
        <ele>244.39999389648</ele>
        <time>2021-09-12T13:13:25Z</time>
      </trkpt>
      <trkpt lat="48.37273" lon="-3.85053">
        <ele>244.39999389648</ele>
        <time>2021-09-12T13:13:26Z</time>
      </trkpt>
      <trkpt lat="48.37271" lon="-3.85048">
        <ele>244.39999389648</ele>
        <time>2021-09-12T13:13:27Z</time>
      </trkpt>
      <trkpt lat="48.37269" lon="-3.85043">
        <ele>244.39999389648</ele>
        <time>2021-09-12T13:13:28Z</time>
      </trkpt>
      <trkpt lat="48.37268" lon="-3.85038">
        <ele>244.39999389648</ele>
        <time>2021-09-12T13:13:29Z</time>
      </trkpt>
      <trkpt lat="48.37266" lon="-3.85033">
        <ele>244.39999389648</ele>
        <time>2021-09-12T13:13:30Z</time>
      </trkpt>
      <trkpt lat="48.37264" lon="-3.85028">
        <ele>244.60000610352</ele>
        <time>2021-09-12T13:13:31Z</time>
      </trkpt>
      <trkpt lat="48.37263" lon="-3.85023">
        <ele>244.60000610352</ele>
        <time>2021-09-12T13:13:32Z</time>
      </trkpt>
      <trkpt lat="48.37261" lon="-3.85019">
        <ele>244.60000610352</ele>
        <time>2021-09-12T13:13:33Z</time>
      </trkpt>
      <trkpt lat="48.3726" lon="-3.85016">
        <ele>244.60000610352</ele>
        <time>2021-09-12T13:13:34Z</time>
      </trkpt>
      <trkpt lat="48.37258" lon="-3.85011">
        <ele>244.60000610352</ele>
        <time>2021-09-12T13:13:35Z</time>
      </trkpt>
      <trkpt lat="48.37255" lon="-3.85005">
        <ele>244.80000305176</ele>
        <time>2021-09-12T13:13:36Z</time>
      </trkpt>
      <trkpt lat="48.37253" lon="-3.85">
        <ele>244.80000305176</ele>
        <time>2021-09-12T13:13:37Z</time>
      </trkpt>
      <trkpt lat="48.37251" lon="-3.84996">
        <ele>245</ele>
        <time>2021-09-12T13:13:38Z</time>
      </trkpt>
      <trkpt lat="48.37249" lon="-3.84992">
        <ele>245</ele>
        <time>2021-09-12T13:13:39Z</time>
      </trkpt>
      <trkpt lat="48.37247" lon="-3.84987">
        <ele>245</ele>
        <time>2021-09-12T13:13:40Z</time>
      </trkpt>
      <trkpt lat="48.37245" lon="-3.84982">
        <ele>245</ele>
        <time>2021-09-12T13:13:41Z</time>
      </trkpt>
      <trkpt lat="48.37243" lon="-3.84976">
        <ele>245</ele>
        <time>2021-09-12T13:13:42Z</time>
      </trkpt>
      <trkpt lat="48.37241" lon="-3.84971">
        <ele>245</ele>
        <time>2021-09-12T13:13:43Z</time>
      </trkpt>
      <trkpt lat="48.3724" lon="-3.84967">
        <ele>245</ele>
        <time>2021-09-12T13:13:44Z</time>
      </trkpt>
      <trkpt lat="48.37238" lon="-3.84961">
        <ele>245</ele>
        <time>2021-09-12T13:13:45Z</time>
      </trkpt>
      <trkpt lat="48.37237" lon="-3.84956">
        <ele>245</ele>
        <time>2021-09-12T13:13:46Z</time>
      </trkpt>
      <trkpt lat="48.37234" lon="-3.8495">
        <ele>245.19999694824</ele>
        <time>2021-09-12T13:13:47Z</time>
      </trkpt>
      <trkpt lat="48.37232" lon="-3.84946">
        <ele>245.19999694824</ele>
        <time>2021-09-12T13:13:48Z</time>
      </trkpt>
      <trkpt lat="48.3723" lon="-3.84942">
        <ele>245.19999694824</ele>
        <time>2021-09-12T13:13:49Z</time>
      </trkpt>
      <trkpt lat="48.37228" lon="-3.84938">
        <ele>245.19999694824</ele>
        <time>2021-09-12T13:13:50Z</time>
      </trkpt>
      <trkpt lat="48.37225" lon="-3.84933">
        <ele>245.39999389648</ele>
        <time>2021-09-12T13:13:51Z</time>
      </trkpt>
      <trkpt lat="48.37223" lon="-3.84929">
        <ele>245.39999389648</ele>
        <time>2021-09-12T13:13:52Z</time>
      </trkpt>
      <trkpt lat="48.3722" lon="-3.84925">
        <ele>245.60000610352</ele>
        <time>2021-09-12T13:13:53Z</time>
      </trkpt>
      <trkpt lat="48.37217" lon="-3.84922">
        <ele>245.80000305176</ele>
        <time>2021-09-12T13:13:54Z</time>
      </trkpt>
      <trkpt lat="48.37214" lon="-3.84919">
        <ele>245.80000305176</ele>
        <time>2021-09-12T13:13:55Z</time>
      </trkpt>
      <trkpt lat="48.37211" lon="-3.84915">
        <ele>246</ele>
        <time>2021-09-12T13:13:56Z</time>
      </trkpt>
      <trkpt lat="48.37208" lon="-3.84911">
        <ele>246</ele>
        <time>2021-09-12T13:13:57Z</time>
      </trkpt>
      <trkpt lat="48.37205" lon="-3.84908">
        <ele>246</ele>
        <time>2021-09-12T13:13:58Z</time>
      </trkpt>
      <trkpt lat="48.37202" lon="-3.84904">
        <ele>246.19999694824</ele>
        <time>2021-09-12T13:13:59Z</time>
      </trkpt>
      <trkpt lat="48.37199" lon="-3.84898">
        <ele>246.39999389648</ele>
        <time>2021-09-12T13:14:00Z</time>
      </trkpt>
      <trkpt lat="48.37196" lon="-3.84894">
        <ele>246.60000610352</ele>
        <time>2021-09-12T13:14:01Z</time>
      </trkpt>
      <trkpt lat="48.37193" lon="-3.8489">
        <ele>246.60000610352</ele>
        <time>2021-09-12T13:14:02Z</time>
      </trkpt>
      <trkpt lat="48.37191" lon="-3.84886">
        <ele>246.80000305176</ele>
        <time>2021-09-12T13:14:03Z</time>
      </trkpt>
      <trkpt lat="48.37188" lon="-3.84882">
        <ele>246.80000305176</ele>
        <time>2021-09-12T13:14:04Z</time>
      </trkpt>
      <trkpt lat="48.37184" lon="-3.84877">
        <ele>247</ele>
        <time>2021-09-12T13:14:05Z</time>
      </trkpt>
      <trkpt lat="48.37182" lon="-3.84873">
        <ele>247.19999694824</ele>
        <time>2021-09-12T13:14:06Z</time>
      </trkpt>
      <trkpt lat="48.37179" lon="-3.84869">
        <ele>247.39999389648</ele>
        <time>2021-09-12T13:14:07Z</time>
      </trkpt>
      <trkpt lat="48.37177" lon="-3.84866">
        <ele>247.39999389648</ele>
        <time>2021-09-12T13:14:08Z</time>
      </trkpt>
      <trkpt lat="48.37174" lon="-3.84862">
        <ele>247.60000610352</ele>
        <time>2021-09-12T13:14:09Z</time>
      </trkpt>
      <trkpt lat="48.3717" lon="-3.84857">
        <ele>247.80000305176</ele>
        <time>2021-09-12T13:14:10Z</time>
      </trkpt>
      <trkpt lat="48.37167" lon="-3.84852">
        <ele>248</ele>
        <time>2021-09-12T13:14:11Z</time>
      </trkpt>
      <trkpt lat="48.37165" lon="-3.84848">
        <ele>248</ele>
        <time>2021-09-12T13:14:12Z</time>
      </trkpt>
      <trkpt lat="48.37163" lon="-3.84844">
        <ele>248.39999389648</ele>
        <time>2021-09-12T13:14:13Z</time>
      </trkpt>
      <trkpt lat="48.3716" lon="-3.8484">
        <ele>248.39999389648</ele>
        <time>2021-09-12T13:14:14Z</time>
      </trkpt>
      <trkpt lat="48.37157" lon="-3.84836">
        <ele>248.60000610352</ele>
        <time>2021-09-12T13:14:15Z</time>
      </trkpt>
      <trkpt lat="48.37154" lon="-3.84832">
        <ele>249</ele>
        <time>2021-09-12T13:14:16Z</time>
      </trkpt>
      <trkpt lat="48.37151" lon="-3.84828">
        <ele>249</ele>
        <time>2021-09-12T13:14:17Z</time>
      </trkpt>
      <trkpt lat="48.37149" lon="-3.84824">
        <ele>249.39999389648</ele>
        <time>2021-09-12T13:14:18Z</time>
      </trkpt>
      <trkpt lat="48.37147" lon="-3.84821">
        <ele>249.39999389648</ele>
        <time>2021-09-12T13:14:19Z</time>
      </trkpt>
      <trkpt lat="48.37144" lon="-3.84816">
        <ele>249.60000610352</ele>
        <time>2021-09-12T13:14:20Z</time>
      </trkpt>
      <trkpt lat="48.37141" lon="-3.84812">
        <ele>249.80000305176</ele>
        <time>2021-09-12T13:14:21Z</time>
      </trkpt>
      <trkpt lat="48.37138" lon="-3.84807">
        <ele>250.19999694824</ele>
        <time>2021-09-12T13:14:22Z</time>
      </trkpt>
      <trkpt lat="48.37136" lon="-3.84804">
        <ele>250.19999694824</ele>
        <time>2021-09-12T13:14:23Z</time>
      </trkpt>
      <trkpt lat="48.37134" lon="-3.848">
        <ele>250.39999389648</ele>
        <time>2021-09-12T13:14:24Z</time>
      </trkpt>
      <trkpt lat="48.37131" lon="-3.84796">
        <ele>250.39999389648</ele>
        <time>2021-09-12T13:14:25Z</time>
      </trkpt>
      <trkpt lat="48.37129" lon="-3.84792">
        <ele>250.80000305176</ele>
        <time>2021-09-12T13:14:26Z</time>
      </trkpt>
      <trkpt lat="48.37127" lon="-3.84788">
        <ele>250.80000305176</ele>
        <time>2021-09-12T13:14:27Z</time>
      </trkpt>
      <trkpt lat="48.37124" lon="-3.84783">
        <ele>251.19999694824</ele>
        <time>2021-09-12T13:14:28Z</time>
      </trkpt>
      <trkpt lat="48.37122" lon="-3.84779">
        <ele>251.39999389648</ele>
        <time>2021-09-12T13:14:29Z</time>
      </trkpt>
      <trkpt lat="48.3712" lon="-3.84774">
        <ele>252</ele>
        <time>2021-09-12T13:14:30Z</time>
      </trkpt>
      <trkpt lat="48.37117" lon="-3.84769">
        <ele>252</ele>
        <time>2021-09-12T13:14:31Z</time>
      </trkpt>
      <trkpt lat="48.37115" lon="-3.84766">
        <ele>252</ele>
        <time>2021-09-12T13:14:32Z</time>
      </trkpt>
      <trkpt lat="48.37113" lon="-3.84761">
        <ele>252.19999694824</ele>
        <time>2021-09-12T13:14:33Z</time>
      </trkpt>
      <trkpt lat="48.3711" lon="-3.84757">
        <ele>252.19999694824</ele>
        <time>2021-09-12T13:14:34Z</time>
      </trkpt>
      <trkpt lat="48.37108" lon="-3.84753">
        <ele>252.60000610352</ele>
        <time>2021-09-12T13:14:35Z</time>
      </trkpt>
      <trkpt lat="48.37106" lon="-3.84748">
        <ele>252.80000305176</ele>
        <time>2021-09-12T13:14:36Z</time>
      </trkpt>
      <trkpt lat="48.37104" lon="-3.84744">
        <ele>252.80000305176</ele>
        <time>2021-09-12T13:14:37Z</time>
      </trkpt>
      <trkpt lat="48.37102" lon="-3.8474">
        <ele>253</ele>
        <time>2021-09-12T13:14:38Z</time>
      </trkpt>
      <trkpt lat="48.37099" lon="-3.84735">
        <ele>253</ele>
        <time>2021-09-12T13:14:39Z</time>
      </trkpt>
      <trkpt lat="48.37096" lon="-3.84731">
        <ele>253</ele>
        <time>2021-09-12T13:14:40Z</time>
      </trkpt>
      <trkpt lat="48.37093" lon="-3.84727">
        <ele>253.39999389648</ele>
        <time>2021-09-12T13:14:41Z</time>
      </trkpt>
      <trkpt lat="48.37091" lon="-3.84723">
        <ele>253.39999389648</ele>
        <time>2021-09-12T13:14:42Z</time>
      </trkpt>
      <trkpt lat="48.37089" lon="-3.84719">
        <ele>253.60000610352</ele>
        <time>2021-09-12T13:14:43Z</time>
      </trkpt>
      <trkpt lat="48.37087" lon="-3.84715">
        <ele>253.60000610352</ele>
        <time>2021-09-12T13:14:44Z</time>
      </trkpt>
      <trkpt lat="48.37085" lon="-3.84711">
        <ele>253.80000305176</ele>
        <time>2021-09-12T13:14:45Z</time>
      </trkpt>
      <trkpt lat="48.37083" lon="-3.84708">
        <ele>253.80000305176</ele>
        <time>2021-09-12T13:14:46Z</time>
      </trkpt>
      <trkpt lat="48.37081" lon="-3.84705">
        <ele>253.80000305176</ele>
        <time>2021-09-12T13:14:47Z</time>
      </trkpt>
      <trkpt lat="48.37079" lon="-3.84703">
        <ele>254</ele>
        <time>2021-09-12T13:14:48Z</time>
      </trkpt>
      <trkpt lat="48.37078" lon="-3.84701">
        <ele>254.19999694824</ele>
        <time>2021-09-12T13:14:49Z</time>
      </trkpt>
      <trkpt lat="48.37077" lon="-3.847">
        <ele>254.19999694824</ele>
        <time>2021-09-12T13:14:50Z</time>
      </trkpt>
      <trkpt lat="48.37076" lon="-3.84699">
        <ele>254.19999694824</ele>
        <time>2021-09-12T13:14:51Z</time>
      </trkpt>
      <trkpt lat="48.37075" lon="-3.84698">
        <ele>254.39999389648</ele>
        <time>2021-09-12T13:14:52Z</time>
      </trkpt>
      <trkpt lat="48.37073" lon="-3.84697">
        <ele>254.39999389648</ele>
        <time>2021-09-12T13:14:53Z</time>
      </trkpt>
      <trkpt lat="48.37071" lon="-3.84696">
        <ele>254.39999389648</ele>
        <time>2021-09-12T13:14:54Z</time>
      </trkpt>
      <trkpt lat="48.37069" lon="-3.84695">
        <ele>254.39999389648</ele>
        <time>2021-09-12T13:14:55Z</time>
      </trkpt>
      <trkpt lat="48.37068" lon="-3.84693">
        <ele>254.80000305176</ele>
        <time>2021-09-12T13:14:56Z</time>
      </trkpt>
      <trkpt lat="48.37067" lon="-3.8469">
        <ele>254.80000305176</ele>
        <time>2021-09-12T13:14:57Z</time>
      </trkpt>
      <trkpt lat="48.37066" lon="-3.84685">
        <ele>254.80000305176</ele>
        <time>2021-09-12T13:14:58Z</time>
      </trkpt>
      <trkpt lat="48.37065" lon="-3.8468">
        <ele>254.60000610352</ele>
        <time>2021-09-12T13:14:59Z</time>
      </trkpt>
      <trkpt lat="48.37064" lon="-3.84675">
        <ele>254.60000610352</ele>
        <time>2021-09-12T13:15:00Z</time>
      </trkpt>
      <trkpt lat="48.37063" lon="-3.84671">
        <ele>254.39999389648</ele>
        <time>2021-09-12T13:15:01Z</time>
      </trkpt>
      <trkpt lat="48.37061" lon="-3.84665">
        <ele>254</ele>
        <time>2021-09-12T13:15:02Z</time>
      </trkpt>
      <trkpt lat="48.37058" lon="-3.84658">
        <ele>254</ele>
        <time>2021-09-12T13:15:03Z</time>
      </trkpt>
      <trkpt lat="48.37055" lon="-3.84652">
        <ele>253.39999389648</ele>
        <time>2021-09-12T13:15:04Z</time>
      </trkpt>
      <trkpt lat="48.37051" lon="-3.84645">
        <ele>252.80000305176</ele>
        <time>2021-09-12T13:15:05Z</time>
      </trkpt>
      <trkpt lat="48.37047" lon="-3.84639">
        <ele>252.80000305176</ele>
        <time>2021-09-12T13:15:06Z</time>
      </trkpt>
      <trkpt lat="48.37043" lon="-3.84633">
        <ele>252.60000610352</ele>
        <time>2021-09-12T13:15:07Z</time>
      </trkpt>
      <trkpt lat="48.37039" lon="-3.84626">
        <ele>252.39999389648</ele>
        <time>2021-09-12T13:15:08Z</time>
      </trkpt>
      <trkpt lat="48.37035" lon="-3.8462">
        <ele>252.19999694824</ele>
        <time>2021-09-12T13:15:09Z</time>
      </trkpt>
      <trkpt lat="48.37032" lon="-3.84614">
        <ele>252.19999694824</ele>
        <time>2021-09-12T13:15:10Z</time>
      </trkpt>
      <trkpt lat="48.37028" lon="-3.84609">
        <ele>252.19999694824</ele>
        <time>2021-09-12T13:15:11Z</time>
      </trkpt>
      <trkpt lat="48.37024" lon="-3.84603">
        <ele>252</ele>
        <time>2021-09-12T13:15:12Z</time>
      </trkpt>
      <trkpt lat="48.3702" lon="-3.84598">
        <ele>251.60000610352</ele>
        <time>2021-09-12T13:15:13Z</time>
      </trkpt>
      <trkpt lat="48.37017" lon="-3.84593">
        <ele>251.60000610352</ele>
        <time>2021-09-12T13:15:14Z</time>
      </trkpt>
      <trkpt lat="48.37014" lon="-3.84588">
        <ele>251.39999389648</ele>
        <time>2021-09-12T13:15:15Z</time>
      </trkpt>
      <trkpt lat="48.37011" lon="-3.84584">
        <ele>251.39999389648</ele>
        <time>2021-09-12T13:15:16Z</time>
      </trkpt>
      <trkpt lat="48.37009" lon="-3.84582">
        <ele>251</ele>
        <time>2021-09-12T13:15:17Z</time>
      </trkpt>
      <trkpt lat="48.37008" lon="-3.84581">
        <ele>251</ele>
        <time>2021-09-12T13:15:18Z</time>
      </trkpt>
      <trkpt lat="48.37008" lon="-3.84581">
        <ele>250.80000305176</ele>
        <time>2021-09-12T13:15:19Z</time>
      </trkpt>
      <trkpt lat="48.37008" lon="-3.84581">
        <ele>250.80000305176</ele>
        <time>2021-09-12T13:15:20Z</time>
      </trkpt>
      <trkpt lat="48.37006" lon="-3.84579">
        <ele>250.80000305176</ele>
        <time>2021-09-12T13:15:39Z</time>
      </trkpt>
      <trkpt lat="48.37004" lon="-3.84577">
        <ele>250.80000305176</ele>
        <time>2021-09-12T13:15:40Z</time>
      </trkpt>
      <trkpt lat="48.37001" lon="-3.84574">
        <ele>250.80000305176</ele>
        <time>2021-09-12T13:15:41Z</time>
      </trkpt>
      <trkpt lat="48.36999" lon="-3.84571">
        <ele>250.80000305176</ele>
        <time>2021-09-12T13:15:42Z</time>
      </trkpt>
      <trkpt lat="48.36997" lon="-3.84567">
        <ele>251</ele>
        <time>2021-09-12T13:15:43Z</time>
      </trkpt>
      <trkpt lat="48.36994" lon="-3.84563">
        <ele>251.19999694824</ele>
        <time>2021-09-12T13:15:44Z</time>
      </trkpt>
      <trkpt lat="48.36992" lon="-3.84559">
        <ele>251.19999694824</ele>
        <time>2021-09-12T13:15:45Z</time>
      </trkpt>
      <trkpt lat="48.36989" lon="-3.84555">
        <ele>251.19999694824</ele>
        <time>2021-09-12T13:15:46Z</time>
      </trkpt>
      <trkpt lat="48.36986" lon="-3.84551">
        <ele>251.19999694824</ele>
        <time>2021-09-12T13:15:47Z</time>
      </trkpt>
      <trkpt lat="48.36983" lon="-3.84547">
        <ele>251.19999694824</ele>
        <time>2021-09-12T13:15:48Z</time>
      </trkpt>
      <trkpt lat="48.3698" lon="-3.84543">
        <ele>251.39999389648</ele>
        <time>2021-09-12T13:15:49Z</time>
      </trkpt>
      <trkpt lat="48.36977" lon="-3.84539">
        <ele>251.39999389648</ele>
        <time>2021-09-12T13:15:50Z</time>
      </trkpt>
      <trkpt lat="48.36974" lon="-3.84535">
        <ele>251.39999389648</ele>
        <time>2021-09-12T13:15:51Z</time>
      </trkpt>
      <trkpt lat="48.36971" lon="-3.84531">
        <ele>251.60000610352</ele>
        <time>2021-09-12T13:15:52Z</time>
      </trkpt>
      <trkpt lat="48.36968" lon="-3.84527">
        <ele>251.60000610352</ele>
        <time>2021-09-12T13:15:53Z</time>
      </trkpt>
      <trkpt lat="48.36965" lon="-3.84523">
        <ele>251.80000305176</ele>
        <time>2021-09-12T13:15:54Z</time>
      </trkpt>
      <trkpt lat="48.36962" lon="-3.84519">
        <ele>252</ele>
        <time>2021-09-12T13:15:55Z</time>
      </trkpt>
      <trkpt lat="48.36958" lon="-3.84515">
        <ele>252.19999694824</ele>
        <time>2021-09-12T13:15:56Z</time>
      </trkpt>
      <trkpt lat="48.36956" lon="-3.84512">
        <ele>252.39999389648</ele>
        <time>2021-09-12T13:15:57Z</time>
      </trkpt>
      <trkpt lat="48.36953" lon="-3.8451">
        <ele>252.39999389648</ele>
        <time>2021-09-12T13:15:58Z</time>
      </trkpt>
      <trkpt lat="48.36949" lon="-3.84506">
        <ele>252.39999389648</ele>
        <time>2021-09-12T13:15:59Z</time>
      </trkpt>
      <trkpt lat="48.36945" lon="-3.84503">
        <ele>252.39999389648</ele>
        <time>2021-09-12T13:16:00Z</time>
      </trkpt>
      <trkpt lat="48.36941" lon="-3.845">
        <ele>252.39999389648</ele>
        <time>2021-09-12T13:16:01Z</time>
      </trkpt>
      <trkpt lat="48.36937" lon="-3.84497">
        <ele>252.19999694824</ele>
        <time>2021-09-12T13:16:02Z</time>
      </trkpt>
      <trkpt lat="48.36932" lon="-3.84494">
        <ele>251.80000305176</ele>
        <time>2021-09-12T13:16:03Z</time>
      </trkpt>
      <trkpt lat="48.36926" lon="-3.84491">
        <ele>251.60000610352</ele>
        <time>2021-09-12T13:16:04Z</time>
      </trkpt>
      <trkpt lat="48.36921" lon="-3.84486">
        <ele>251.39999389648</ele>
        <time>2021-09-12T13:16:05Z</time>
      </trkpt>
      <trkpt lat="48.36918" lon="-3.84479">
        <ele>250</ele>
        <time>2021-09-12T13:16:06Z</time>
      </trkpt>
      <trkpt lat="48.36915" lon="-3.8447">
        <ele>249.80000305176</ele>
        <time>2021-09-12T13:16:07Z</time>
      </trkpt>
      <trkpt lat="48.36912" lon="-3.8446">
        <ele>249.19999694824</ele>
        <time>2021-09-12T13:16:08Z</time>
      </trkpt>
      <trkpt lat="48.36909" lon="-3.84451">
        <ele>248.80000305176</ele>
        <time>2021-09-12T13:16:09Z</time>
      </trkpt>
      <trkpt lat="48.36905" lon="-3.84441">
        <ele>248.39999389648</ele>
        <time>2021-09-12T13:16:10Z</time>
      </trkpt>
      <trkpt lat="48.36902" lon="-3.84432">
        <ele>248.19999694824</ele>
        <time>2021-09-12T13:16:11Z</time>
      </trkpt>
      <trkpt lat="48.36898" lon="-3.84422">
        <ele>248</ele>
        <time>2021-09-12T13:16:12Z</time>
      </trkpt>
      <trkpt lat="48.36894" lon="-3.84412">
        <ele>247.80000305176</ele>
        <time>2021-09-12T13:16:13Z</time>
      </trkpt>
      <trkpt lat="48.3689" lon="-3.84403">
        <ele>247.80000305176</ele>
        <time>2021-09-12T13:16:14Z</time>
      </trkpt>
      <trkpt lat="48.36884" lon="-3.84393">
        <ele>247.19999694824</ele>
        <time>2021-09-12T13:16:15Z</time>
      </trkpt>
      <trkpt lat="48.36879" lon="-3.84387">
        <ele>247.19999694824</ele>
        <time>2021-09-12T13:16:16Z</time>
      </trkpt>
      <trkpt lat="48.36875" lon="-3.84379">
        <ele>247.19999694824</ele>
        <time>2021-09-12T13:16:17Z</time>
      </trkpt>
      <trkpt lat="48.3687" lon="-3.8437">
        <ele>246.80000305176</ele>
        <time>2021-09-12T13:16:18Z</time>
      </trkpt>
      <trkpt lat="48.36867" lon="-3.84363">
        <ele>246.80000305176</ele>
        <time>2021-09-12T13:16:19Z</time>
      </trkpt>
      <trkpt lat="48.36863" lon="-3.84355">
        <ele>246.80000305176</ele>
        <time>2021-09-12T13:16:20Z</time>
      </trkpt>
      <trkpt lat="48.36859" lon="-3.84347">
        <ele>246.60000610352</ele>
        <time>2021-09-12T13:16:21Z</time>
      </trkpt>
      <trkpt lat="48.36854" lon="-3.84341">
        <ele>246.60000610352</ele>
        <time>2021-09-12T13:16:22Z</time>
      </trkpt>
      <trkpt lat="48.3685" lon="-3.84335">
        <ele>246.60000610352</ele>
        <time>2021-09-12T13:16:23Z</time>
      </trkpt>
      <trkpt lat="48.36844" lon="-3.84327">
        <ele>246.60000610352</ele>
        <time>2021-09-12T13:16:24Z</time>
      </trkpt>
      <trkpt lat="48.36841" lon="-3.84321">
        <ele>246.60000610352</ele>
        <time>2021-09-12T13:16:25Z</time>
      </trkpt>
      <trkpt lat="48.36836" lon="-3.84314">
        <ele>246.60000610352</ele>
        <time>2021-09-12T13:16:26Z</time>
      </trkpt>
      <trkpt lat="48.36832" lon="-3.84308">
        <ele>246.60000610352</ele>
        <time>2021-09-12T13:16:27Z</time>
      </trkpt>
      <trkpt lat="48.36827" lon="-3.84302">
        <ele>246.80000305176</ele>
        <time>2021-09-12T13:16:28Z</time>
      </trkpt>
      <trkpt lat="48.36823" lon="-3.84297">
        <ele>246.80000305176</ele>
        <time>2021-09-12T13:16:29Z</time>
      </trkpt>
      <trkpt lat="48.36819" lon="-3.84291">
        <ele>246.80000305176</ele>
        <time>2021-09-12T13:16:30Z</time>
      </trkpt>
      <trkpt lat="48.36815" lon="-3.84285">
        <ele>246.80000305176</ele>
        <time>2021-09-12T13:16:31Z</time>
      </trkpt>
      <trkpt lat="48.36811" lon="-3.8428">
        <ele>246.80000305176</ele>
        <time>2021-09-12T13:16:32Z</time>
      </trkpt>
      <trkpt lat="48.36806" lon="-3.84273">
        <ele>247</ele>
        <time>2021-09-12T13:16:33Z</time>
      </trkpt>
      <trkpt lat="48.36803" lon="-3.84268">
        <ele>247</ele>
        <time>2021-09-12T13:16:34Z</time>
      </trkpt>
      <trkpt lat="48.36798" lon="-3.84261">
        <ele>247</ele>
        <time>2021-09-12T13:16:35Z</time>
      </trkpt>
      <trkpt lat="48.36794" lon="-3.84255">
        <ele>247</ele>
        <time>2021-09-12T13:16:36Z</time>
      </trkpt>
      <trkpt lat="48.3679" lon="-3.84249">
        <ele>247.19999694824</ele>
        <time>2021-09-12T13:16:37Z</time>
      </trkpt>
      <trkpt lat="48.36788" lon="-3.84243">
        <ele>247.39999389648</ele>
        <time>2021-09-12T13:16:38Z</time>
      </trkpt>
      <trkpt lat="48.36784" lon="-3.84237">
        <ele>247.39999389648</ele>
        <time>2021-09-12T13:16:39Z</time>
      </trkpt>
      <trkpt lat="48.36781" lon="-3.8423">
        <ele>247.60000610352</ele>
        <time>2021-09-12T13:16:40Z</time>
      </trkpt>
      <trkpt lat="48.36777" lon="-3.84224">
        <ele>247.60000610352</ele>
        <time>2021-09-12T13:16:41Z</time>
      </trkpt>
      <trkpt lat="48.36774" lon="-3.84217">
        <ele>247.80000305176</ele>
        <time>2021-09-12T13:16:42Z</time>
      </trkpt>
      <trkpt lat="48.36772" lon="-3.8421">
        <ele>248</ele>
        <time>2021-09-12T13:16:43Z</time>
      </trkpt>
      <trkpt lat="48.36769" lon="-3.84203">
        <ele>248.19999694824</ele>
        <time>2021-09-12T13:16:44Z</time>
      </trkpt>
      <trkpt lat="48.36767" lon="-3.84196">
        <ele>248.19999694824</ele>
        <time>2021-09-12T13:16:45Z</time>
      </trkpt>
      <trkpt lat="48.36765" lon="-3.84189">
        <ele>248.39999389648</ele>
        <time>2021-09-12T13:16:46Z</time>
      </trkpt>
      <trkpt lat="48.36763" lon="-3.84183">
        <ele>248.39999389648</ele>
        <time>2021-09-12T13:16:47Z</time>
      </trkpt>
      <trkpt lat="48.36761" lon="-3.84175">
        <ele>248.60000610352</ele>
        <time>2021-09-12T13:16:48Z</time>
      </trkpt>
      <trkpt lat="48.36759" lon="-3.84169">
        <ele>248.80000305176</ele>
        <time>2021-09-12T13:16:49Z</time>
      </trkpt>
      <trkpt lat="48.36756" lon="-3.84164">
        <ele>249</ele>
        <time>2021-09-12T13:16:50Z</time>
      </trkpt>
      <trkpt lat="48.36753" lon="-3.84159">
        <ele>249.39999389648</ele>
        <time>2021-09-12T13:16:51Z</time>
      </trkpt>
      <trkpt lat="48.36751" lon="-3.84155">
        <ele>249.39999389648</ele>
        <time>2021-09-12T13:16:52Z</time>
      </trkpt>
      <trkpt lat="48.36748" lon="-3.84151">
        <ele>249.39999389648</ele>
        <time>2021-09-12T13:16:53Z</time>
      </trkpt>
      <trkpt lat="48.36746" lon="-3.84147">
        <ele>250</ele>
        <time>2021-09-12T13:16:54Z</time>
      </trkpt>
      <trkpt lat="48.36743" lon="-3.84143">
        <ele>250</ele>
        <time>2021-09-12T13:16:55Z</time>
      </trkpt>
      <trkpt lat="48.36741" lon="-3.8414">
        <ele>250.19999694824</ele>
        <time>2021-09-12T13:16:56Z</time>
      </trkpt>
      <trkpt lat="48.3674" lon="-3.84137">
        <ele>250.39999389648</ele>
        <time>2021-09-12T13:16:57Z</time>
      </trkpt>
      <trkpt lat="48.36737" lon="-3.84132">
        <ele>250.60000610352</ele>
        <time>2021-09-12T13:16:58Z</time>
      </trkpt>
      <trkpt lat="48.36734" lon="-3.84128">
        <ele>250.60000610352</ele>
        <time>2021-09-12T13:16:59Z</time>
      </trkpt>
      <trkpt lat="48.36732" lon="-3.84125">
        <ele>251</ele>
        <time>2021-09-12T13:17:00Z</time>
      </trkpt>
      <trkpt lat="48.3673" lon="-3.84122">
        <ele>251.39999389648</ele>
        <time>2021-09-12T13:17:01Z</time>
      </trkpt>
      <trkpt lat="48.36728" lon="-3.84119">
        <ele>251.60000610352</ele>
        <time>2021-09-12T13:17:02Z</time>
      </trkpt>
      <trkpt lat="48.36726" lon="-3.84114">
        <ele>251.80000305176</ele>
        <time>2021-09-12T13:17:03Z</time>
      </trkpt>
      <trkpt lat="48.36724" lon="-3.84111">
        <ele>252</ele>
        <time>2021-09-12T13:17:04Z</time>
      </trkpt>
      <trkpt lat="48.36722" lon="-3.84108">
        <ele>252.39999389648</ele>
        <time>2021-09-12T13:17:05Z</time>
      </trkpt>
      <trkpt lat="48.36721" lon="-3.84105">
        <ele>252.60000610352</ele>
        <time>2021-09-12T13:17:06Z</time>
      </trkpt>
      <trkpt lat="48.36718" lon="-3.84102">
        <ele>252.60000610352</ele>
        <time>2021-09-12T13:17:07Z</time>
      </trkpt>
      <trkpt lat="48.36715" lon="-3.84098">
        <ele>252.80000305176</ele>
        <time>2021-09-12T13:17:08Z</time>
      </trkpt>
      <trkpt lat="48.36713" lon="-3.84095">
        <ele>252.80000305176</ele>
        <time>2021-09-12T13:17:09Z</time>
      </trkpt>
      <trkpt lat="48.36711" lon="-3.84092">
        <ele>253.19999694824</ele>
        <time>2021-09-12T13:17:10Z</time>
      </trkpt>
      <trkpt lat="48.36709" lon="-3.84087">
        <ele>253.19999694824</ele>
        <time>2021-09-12T13:17:11Z</time>
      </trkpt>
      <trkpt lat="48.36707" lon="-3.84083">
        <ele>253.39999389648</ele>
        <time>2021-09-12T13:17:12Z</time>
      </trkpt>
      <trkpt lat="48.36705" lon="-3.84079">
        <ele>253.80000305176</ele>
        <time>2021-09-12T13:17:13Z</time>
      </trkpt>
      <trkpt lat="48.36703" lon="-3.84077">
        <ele>254</ele>
        <time>2021-09-12T13:17:14Z</time>
      </trkpt>
      <trkpt lat="48.36701" lon="-3.84073">
        <ele>254</ele>
        <time>2021-09-12T13:17:15Z</time>
      </trkpt>
      <trkpt lat="48.367" lon="-3.84069">
        <ele>254.19999694824</ele>
        <time>2021-09-12T13:17:16Z</time>
      </trkpt>
      <trkpt lat="48.36698" lon="-3.84064">
        <ele>254.39999389648</ele>
        <time>2021-09-12T13:17:17Z</time>
      </trkpt>
      <trkpt lat="48.36696" lon="-3.84061">
        <ele>254.60000610352</ele>
        <time>2021-09-12T13:17:18Z</time>
      </trkpt>
      <trkpt lat="48.36694" lon="-3.84057">
        <ele>254.80000305176</ele>
        <time>2021-09-12T13:17:19Z</time>
      </trkpt>
      <trkpt lat="48.36693" lon="-3.84054">
        <ele>254.80000305176</ele>
        <time>2021-09-12T13:17:20Z</time>
      </trkpt>
      <trkpt lat="48.36691" lon="-3.8405">
        <ele>255</ele>
        <time>2021-09-12T13:17:21Z</time>
      </trkpt>
      <trkpt lat="48.3669" lon="-3.84047">
        <ele>255.39999389648</ele>
        <time>2021-09-12T13:17:22Z</time>
      </trkpt>
      <trkpt lat="48.36688" lon="-3.84045">
        <ele>255.39999389648</ele>
        <time>2021-09-12T13:17:23Z</time>
      </trkpt>
      <trkpt lat="48.36688" lon="-3.84043">
        <ele>255.60000610352</ele>
        <time>2021-09-12T13:17:24Z</time>
      </trkpt>
      <trkpt lat="48.36687" lon="-3.84041">
        <ele>255.60000610352</ele>
        <time>2021-09-12T13:17:25Z</time>
      </trkpt>
      <trkpt lat="48.36685" lon="-3.84037">
        <ele>255.60000610352</ele>
        <time>2021-09-12T13:17:26Z</time>
      </trkpt>
      <trkpt lat="48.36684" lon="-3.84034">
        <ele>256</ele>
        <time>2021-09-12T13:17:27Z</time>
      </trkpt>
      <trkpt lat="48.36682" lon="-3.8403">
        <ele>256</ele>
        <time>2021-09-12T13:17:28Z</time>
      </trkpt>
      <trkpt lat="48.36679" lon="-3.84026">
        <ele>256.20001220703</ele>
        <time>2021-09-12T13:17:29Z</time>
      </trkpt>
      <trkpt lat="48.36676" lon="-3.84023">
        <ele>256.20001220703</ele>
        <time>2021-09-12T13:17:30Z</time>
      </trkpt>
      <trkpt lat="48.36674" lon="-3.84018">
        <ele>256.20001220703</ele>
        <time>2021-09-12T13:17:31Z</time>
      </trkpt>
      <trkpt lat="48.36671" lon="-3.84013">
        <ele>256.20001220703</ele>
        <time>2021-09-12T13:17:32Z</time>
      </trkpt>
      <trkpt lat="48.36668" lon="-3.84007">
        <ele>255.80000305176</ele>
        <time>2021-09-12T13:17:33Z</time>
      </trkpt>
      <trkpt lat="48.36664" lon="-3.84002">
        <ele>255.39999389648</ele>
        <time>2021-09-12T13:17:34Z</time>
      </trkpt>
      <trkpt lat="48.36661" lon="-3.83996">
        <ele>254.80000305176</ele>
        <time>2021-09-12T13:17:35Z</time>
      </trkpt>
      <trkpt lat="48.36657" lon="-3.83989">
        <ele>254.60000610352</ele>
        <time>2021-09-12T13:17:36Z</time>
      </trkpt>
      <trkpt lat="48.36654" lon="-3.83984">
        <ele>254.39999389648</ele>
        <time>2021-09-12T13:17:37Z</time>
      </trkpt>
      <trkpt lat="48.3665" lon="-3.83978">
        <ele>254.19999694824</ele>
        <time>2021-09-12T13:17:38Z</time>
      </trkpt>
      <trkpt lat="48.36646" lon="-3.8397">
        <ele>254</ele>
        <time>2021-09-12T13:17:39Z</time>
      </trkpt>
      <trkpt lat="48.36643" lon="-3.83963">
        <ele>253.80000305176</ele>
        <time>2021-09-12T13:17:40Z</time>
      </trkpt>
      <trkpt lat="48.36639" lon="-3.83958">
        <ele>253.60000610352</ele>
        <time>2021-09-12T13:17:41Z</time>
      </trkpt>
      <trkpt lat="48.36635" lon="-3.83951">
        <ele>253.39999389648</ele>
        <time>2021-09-12T13:17:42Z</time>
      </trkpt>
      <trkpt lat="48.36631" lon="-3.83945">
        <ele>253.39999389648</ele>
        <time>2021-09-12T13:17:43Z</time>
      </trkpt>
      <trkpt lat="48.36627" lon="-3.83939">
        <ele>253.19999694824</ele>
        <time>2021-09-12T13:17:44Z</time>
      </trkpt>
      <trkpt lat="48.36621" lon="-3.83932">
        <ele>253</ele>
        <time>2021-09-12T13:17:45Z</time>
      </trkpt>
      <trkpt lat="48.36617" lon="-3.83928">
        <ele>252.60000610352</ele>
        <time>2021-09-12T13:17:46Z</time>
      </trkpt>
      <trkpt lat="48.36611" lon="-3.83923">
        <ele>252.60000610352</ele>
        <time>2021-09-12T13:17:47Z</time>
      </trkpt>
      <trkpt lat="48.36606" lon="-3.83919">
        <ele>252.19999694824</ele>
        <time>2021-09-12T13:17:48Z</time>
      </trkpt>
      <trkpt lat="48.36601" lon="-3.83915">
        <ele>252.19999694824</ele>
        <time>2021-09-12T13:17:49Z</time>
      </trkpt>
      <trkpt lat="48.36596" lon="-3.8391">
        <ele>251.80000305176</ele>
        <time>2021-09-12T13:17:50Z</time>
      </trkpt>
      <trkpt lat="48.36591" lon="-3.83906">
        <ele>251.80000305176</ele>
        <time>2021-09-12T13:17:51Z</time>
      </trkpt>
      <trkpt lat="48.36586" lon="-3.83903">
        <ele>251.80000305176</ele>
        <time>2021-09-12T13:17:52Z</time>
      </trkpt>
      <trkpt lat="48.36581" lon="-3.83899">
        <ele>251.60000610352</ele>
        <time>2021-09-12T13:17:53Z</time>
      </trkpt>
      <trkpt lat="48.36574" lon="-3.83895">
        <ele>251.60000610352</ele>
        <time>2021-09-12T13:17:54Z</time>
      </trkpt>
      <trkpt lat="48.36569" lon="-3.83893">
        <ele>251.39999389648</ele>
        <time>2021-09-12T13:17:55Z</time>
      </trkpt>
      <trkpt lat="48.36563" lon="-3.8389">
        <ele>251.39999389648</ele>
        <time>2021-09-12T13:17:56Z</time>
      </trkpt>
      <trkpt lat="48.36556" lon="-3.83886">
        <ele>250.60000610352</ele>
        <time>2021-09-12T13:17:57Z</time>
      </trkpt>
      <trkpt lat="48.3655" lon="-3.83883">
        <ele>250.60000610352</ele>
        <time>2021-09-12T13:17:58Z</time>
      </trkpt>
      <trkpt lat="48.36544" lon="-3.83879">
        <ele>250.60000610352</ele>
        <time>2021-09-12T13:17:59Z</time>
      </trkpt>
      <trkpt lat="48.36537" lon="-3.83875">
        <ele>250.19999694824</ele>
        <time>2021-09-12T13:18:00Z</time>
      </trkpt>
      <trkpt lat="48.3653" lon="-3.83872">
        <ele>250</ele>
        <time>2021-09-12T13:18:01Z</time>
      </trkpt>
      <trkpt lat="48.36524" lon="-3.83869">
        <ele>250</ele>
        <time>2021-09-12T13:18:02Z</time>
      </trkpt>
      <trkpt lat="48.36518" lon="-3.83866">
        <ele>250</ele>
        <time>2021-09-12T13:18:03Z</time>
      </trkpt>
      <trkpt lat="48.36513" lon="-3.83863">
        <ele>249.80000305176</ele>
        <time>2021-09-12T13:18:04Z</time>
      </trkpt>
      <trkpt lat="48.36508" lon="-3.83861">
        <ele>250</ele>
        <time>2021-09-12T13:18:05Z</time>
      </trkpt>
      <trkpt lat="48.36503" lon="-3.83858">
        <ele>249.60000610352</ele>
        <time>2021-09-12T13:18:06Z</time>
      </trkpt>
      <trkpt lat="48.36498" lon="-3.83855">
        <ele>249.60000610352</ele>
        <time>2021-09-12T13:18:07Z</time>
      </trkpt>
      <trkpt lat="48.36492" lon="-3.83852">
        <ele>249.60000610352</ele>
        <time>2021-09-12T13:18:08Z</time>
      </trkpt>
      <trkpt lat="48.36487" lon="-3.8385">
        <ele>249.60000610352</ele>
        <time>2021-09-12T13:18:09Z</time>
      </trkpt>
      <trkpt lat="48.36482" lon="-3.83848">
        <ele>249.60000610352</ele>
        <time>2021-09-12T13:18:10Z</time>
      </trkpt>
      <trkpt lat="48.36475" lon="-3.83844">
        <ele>249.80000305176</ele>
        <time>2021-09-12T13:18:11Z</time>
      </trkpt>
      <trkpt lat="48.36468" lon="-3.83841">
        <ele>249.80000305176</ele>
        <time>2021-09-12T13:18:12Z</time>
      </trkpt>
      <trkpt lat="48.36462" lon="-3.83837">
        <ele>249.80000305176</ele>
        <time>2021-09-12T13:18:13Z</time>
      </trkpt>
      <trkpt lat="48.36456" lon="-3.83834">
        <ele>250</ele>
        <time>2021-09-12T13:18:14Z</time>
      </trkpt>
      <trkpt lat="48.36449" lon="-3.83831">
        <ele>250</ele>
        <time>2021-09-12T13:18:15Z</time>
      </trkpt>
      <trkpt lat="48.36444" lon="-3.83829">
        <ele>250.19999694824</ele>
        <time>2021-09-12T13:18:16Z</time>
      </trkpt>
      <trkpt lat="48.36439" lon="-3.83827">
        <ele>250.19999694824</ele>
        <time>2021-09-12T13:18:17Z</time>
      </trkpt>
      <trkpt lat="48.36434" lon="-3.83825">
        <ele>250.19999694824</ele>
        <time>2021-09-12T13:18:18Z</time>
      </trkpt>
      <trkpt lat="48.3643" lon="-3.83825">
        <ele>250.19999694824</ele>
        <time>2021-09-12T13:18:19Z</time>
      </trkpt>
      <trkpt lat="48.36424" lon="-3.83824">
        <ele>250.39999389648</ele>
        <time>2021-09-12T13:18:20Z</time>
      </trkpt>
      <trkpt lat="48.3642" lon="-3.83824">
        <ele>250.39999389648</ele>
        <time>2021-09-12T13:18:21Z</time>
      </trkpt>
      <trkpt lat="48.36416" lon="-3.83824">
        <ele>250.60000610352</ele>
        <time>2021-09-12T13:18:22Z</time>
      </trkpt>
      <trkpt lat="48.36412" lon="-3.83824">
        <ele>250.80000305176</ele>
        <time>2021-09-12T13:18:23Z</time>
      </trkpt>
      <trkpt lat="48.36408" lon="-3.83823">
        <ele>251.19999694824</ele>
        <time>2021-09-12T13:18:24Z</time>
      </trkpt>
      <trkpt lat="48.36404" lon="-3.83824">
        <ele>251.19999694824</ele>
        <time>2021-09-12T13:18:25Z</time>
      </trkpt>
      <trkpt lat="48.364" lon="-3.83824">
        <ele>251.60000610352</ele>
        <time>2021-09-12T13:18:26Z</time>
      </trkpt>
      <trkpt lat="48.36396" lon="-3.83824">
        <ele>251.60000610352</ele>
        <time>2021-09-12T13:18:27Z</time>
      </trkpt>
      <trkpt lat="48.36392" lon="-3.83824">
        <ele>251.60000610352</ele>
        <time>2021-09-12T13:18:28Z</time>
      </trkpt>
      <trkpt lat="48.36387" lon="-3.83824">
        <ele>251.60000610352</ele>
        <time>2021-09-12T13:18:29Z</time>
      </trkpt>
      <trkpt lat="48.36383" lon="-3.83825">
        <ele>251.80000305176</ele>
        <time>2021-09-12T13:18:30Z</time>
      </trkpt>
      <trkpt lat="48.3638" lon="-3.83825">
        <ele>251.80000305176</ele>
        <time>2021-09-12T13:18:31Z</time>
      </trkpt>
      <trkpt lat="48.36376" lon="-3.83825">
        <ele>252</ele>
        <time>2021-09-12T13:18:32Z</time>
      </trkpt>
      <trkpt lat="48.36372" lon="-3.83825">
        <ele>252.19999694824</ele>
        <time>2021-09-12T13:18:33Z</time>
      </trkpt>
      <trkpt lat="48.36369" lon="-3.83825">
        <ele>252.39999389648</ele>
        <time>2021-09-12T13:18:34Z</time>
      </trkpt>
      <trkpt lat="48.36364" lon="-3.83825">
        <ele>252.39999389648</ele>
        <time>2021-09-12T13:18:35Z</time>
      </trkpt>
      <trkpt lat="48.3636" lon="-3.83825">
        <ele>252.60000610352</ele>
        <time>2021-09-12T13:18:36Z</time>
      </trkpt>
      <trkpt lat="48.36357" lon="-3.83825">
        <ele>252.80000305176</ele>
        <time>2021-09-12T13:18:37Z</time>
      </trkpt>
      <trkpt lat="48.36353" lon="-3.83825">
        <ele>252.80000305176</ele>
        <time>2021-09-12T13:18:38Z</time>
      </trkpt>
      <trkpt lat="48.3635" lon="-3.83825">
        <ele>253</ele>
        <time>2021-09-12T13:18:39Z</time>
      </trkpt>
      <trkpt lat="48.36346" lon="-3.83825">
        <ele>253.19999694824</ele>
        <time>2021-09-12T13:18:40Z</time>
      </trkpt>
      <trkpt lat="48.36343" lon="-3.83825">
        <ele>253.39999389648</ele>
        <time>2021-09-12T13:18:41Z</time>
      </trkpt>
      <trkpt lat="48.3634" lon="-3.83826">
        <ele>253.60000610352</ele>
        <time>2021-09-12T13:18:42Z</time>
      </trkpt>
      <trkpt lat="48.36337" lon="-3.83826">
        <ele>254</ele>
        <time>2021-09-12T13:18:43Z</time>
      </trkpt>
      <trkpt lat="48.36333" lon="-3.83826">
        <ele>254</ele>
        <time>2021-09-12T13:18:44Z</time>
      </trkpt>
      <trkpt lat="48.36329" lon="-3.83827">
        <ele>254.19999694824</ele>
        <time>2021-09-12T13:18:45Z</time>
      </trkpt>
      <trkpt lat="48.36326" lon="-3.83827">
        <ele>254.19999694824</ele>
        <time>2021-09-12T13:18:46Z</time>
      </trkpt>
      <trkpt lat="48.36322" lon="-3.83827">
        <ele>254.19999694824</ele>
        <time>2021-09-12T13:18:47Z</time>
      </trkpt>
      <trkpt lat="48.36318" lon="-3.83827">
        <ele>254.80000305176</ele>
        <time>2021-09-12T13:18:48Z</time>
      </trkpt>
      <trkpt lat="48.36314" lon="-3.83826">
        <ele>254.80000305176</ele>
        <time>2021-09-12T13:18:49Z</time>
      </trkpt>
      <trkpt lat="48.36311" lon="-3.83825">
        <ele>254.80000305176</ele>
        <time>2021-09-12T13:18:50Z</time>
      </trkpt>
      <trkpt lat="48.36307" lon="-3.83824">
        <ele>255</ele>
        <time>2021-09-12T13:18:51Z</time>
      </trkpt>
      <trkpt lat="48.36303" lon="-3.83824">
        <ele>255</ele>
        <time>2021-09-12T13:18:52Z</time>
      </trkpt>
      <trkpt lat="48.36299" lon="-3.83823">
        <ele>255.39999389648</ele>
        <time>2021-09-12T13:18:53Z</time>
      </trkpt>
      <trkpt lat="48.36295" lon="-3.83822">
        <ele>255.39999389648</ele>
        <time>2021-09-12T13:18:54Z</time>
      </trkpt>
      <trkpt lat="48.36291" lon="-3.83821">
        <ele>255.39999389648</ele>
        <time>2021-09-12T13:18:55Z</time>
      </trkpt>
      <trkpt lat="48.36287" lon="-3.83819">
        <ele>255.39999389648</ele>
        <time>2021-09-12T13:18:56Z</time>
      </trkpt>
      <trkpt lat="48.36283" lon="-3.83818">
        <ele>255.60000610352</ele>
        <time>2021-09-12T13:18:57Z</time>
      </trkpt>
      <trkpt lat="48.36279" lon="-3.83817">
        <ele>255.60000610352</ele>
        <time>2021-09-12T13:18:58Z</time>
      </trkpt>
      <trkpt lat="48.36274" lon="-3.83815">
        <ele>255.60000610352</ele>
        <time>2021-09-12T13:18:59Z</time>
      </trkpt>
      <trkpt lat="48.3627" lon="-3.83813">
        <ele>255.80000305176</ele>
        <time>2021-09-12T13:19:00Z</time>
      </trkpt>
      <trkpt lat="48.36266" lon="-3.83811">
        <ele>255.80000305176</ele>
        <time>2021-09-12T13:19:01Z</time>
      </trkpt>
      <trkpt lat="48.36262" lon="-3.83808">
        <ele>255.80000305176</ele>
        <time>2021-09-12T13:19:02Z</time>
      </trkpt>
      <trkpt lat="48.36258" lon="-3.83805">
        <ele>255.80000305176</ele>
        <time>2021-09-12T13:19:03Z</time>
      </trkpt>
      <trkpt lat="48.36254" lon="-3.83801">
        <ele>256</ele>
        <time>2021-09-12T13:19:04Z</time>
      </trkpt>
      <trkpt lat="48.36251" lon="-3.83797">
        <ele>256</ele>
        <time>2021-09-12T13:19:05Z</time>
      </trkpt>
      <trkpt lat="48.36248" lon="-3.83793">
        <ele>256</ele>
        <time>2021-09-12T13:19:06Z</time>
      </trkpt>
      <trkpt lat="48.36245" lon="-3.83788">
        <ele>256</ele>
        <time>2021-09-12T13:19:07Z</time>
      </trkpt>
      <trkpt lat="48.36242" lon="-3.83784">
        <ele>256</ele>
        <time>2021-09-12T13:19:08Z</time>
      </trkpt>
      <trkpt lat="48.36239" lon="-3.83779">
        <ele>256.20001220703</ele>
        <time>2021-09-12T13:19:09Z</time>
      </trkpt>
      <trkpt lat="48.36236" lon="-3.83775">
        <ele>256.20001220703</ele>
        <time>2021-09-12T13:19:10Z</time>
      </trkpt>
      <trkpt lat="48.36233" lon="-3.8377">
        <ele>256.20001220703</ele>
        <time>2021-09-12T13:19:11Z</time>
      </trkpt>
      <trkpt lat="48.3623" lon="-3.83765">
        <ele>256.39999389648</ele>
        <time>2021-09-12T13:19:12Z</time>
      </trkpt>
      <trkpt lat="48.36228" lon="-3.8376">
        <ele>256.39999389648</ele>
        <time>2021-09-12T13:19:13Z</time>
      </trkpt>
      <trkpt lat="48.36226" lon="-3.83756">
        <ele>256.39999389648</ele>
        <time>2021-09-12T13:19:14Z</time>
      </trkpt>
      <trkpt lat="48.36224" lon="-3.8375">
        <ele>256.39999389648</ele>
        <time>2021-09-12T13:19:15Z</time>
      </trkpt>
      <trkpt lat="48.36222" lon="-3.83743">
        <ele>256.39999389648</ele>
        <time>2021-09-12T13:19:16Z</time>
      </trkpt>
      <trkpt lat="48.3622" lon="-3.83737">
        <ele>256.39999389648</ele>
        <time>2021-09-12T13:19:17Z</time>
      </trkpt>
      <trkpt lat="48.36218" lon="-3.83732">
        <ele>256.39999389648</ele>
        <time>2021-09-12T13:19:18Z</time>
      </trkpt>
      <trkpt lat="48.36217" lon="-3.83727">
        <ele>256.39999389648</ele>
        <time>2021-09-12T13:19:19Z</time>
      </trkpt>
      <trkpt lat="48.36216" lon="-3.8372">
        <ele>256.60000610352</ele>
        <time>2021-09-12T13:19:20Z</time>
      </trkpt>
      <trkpt lat="48.36215" lon="-3.83714">
        <ele>256.60000610352</ele>
        <time>2021-09-12T13:19:21Z</time>
      </trkpt>
      <trkpt lat="48.36213" lon="-3.83709">
        <ele>256.60000610352</ele>
        <time>2021-09-12T13:19:22Z</time>
      </trkpt>
      <trkpt lat="48.36212" lon="-3.83703">
        <ele>256.79998779297</ele>
        <time>2021-09-12T13:19:23Z</time>
      </trkpt>
      <trkpt lat="48.36211" lon="-3.83698">
        <ele>256.79998779297</ele>
        <time>2021-09-12T13:19:24Z</time>
      </trkpt>
      <trkpt lat="48.36209" lon="-3.83692">
        <ele>256.79998779297</ele>
        <time>2021-09-12T13:19:25Z</time>
      </trkpt>
      <trkpt lat="48.36208" lon="-3.83686">
        <ele>256.79998779297</ele>
        <time>2021-09-12T13:19:26Z</time>
      </trkpt>
      <trkpt lat="48.36207" lon="-3.8368">
        <ele>256.79998779297</ele>
        <time>2021-09-12T13:19:27Z</time>
      </trkpt>
      <trkpt lat="48.36206" lon="-3.83674">
        <ele>256.79998779297</ele>
        <time>2021-09-12T13:19:28Z</time>
      </trkpt>
      <trkpt lat="48.36205" lon="-3.83668">
        <ele>256.79998779297</ele>
        <time>2021-09-12T13:19:29Z</time>
      </trkpt>
      <trkpt lat="48.36204" lon="-3.83662">
        <ele>256.79998779297</ele>
        <time>2021-09-12T13:19:30Z</time>
      </trkpt>
      <trkpt lat="48.36202" lon="-3.83656">
        <ele>256.79998779297</ele>
        <time>2021-09-12T13:19:31Z</time>
      </trkpt>
      <trkpt lat="48.36201" lon="-3.8365">
        <ele>257</ele>
        <time>2021-09-12T13:19:32Z</time>
      </trkpt>
      <trkpt lat="48.362" lon="-3.83645">
        <ele>257</ele>
        <time>2021-09-12T13:19:33Z</time>
      </trkpt>
      <trkpt lat="48.36199" lon="-3.83638">
        <ele>257.20001220703</ele>
        <time>2021-09-12T13:19:34Z</time>
      </trkpt>
      <trkpt lat="48.36199" lon="-3.83633">
        <ele>257.20001220703</ele>
        <time>2021-09-12T13:19:35Z</time>
      </trkpt>
      <trkpt lat="48.36198" lon="-3.83627">
        <ele>257.20001220703</ele>
        <time>2021-09-12T13:19:36Z</time>
      </trkpt>
      <trkpt lat="48.36198" lon="-3.83622">
        <ele>257.39999389648</ele>
        <time>2021-09-12T13:19:37Z</time>
      </trkpt>
      <trkpt lat="48.36197" lon="-3.83617">
        <ele>257.39999389648</ele>
        <time>2021-09-12T13:19:38Z</time>
      </trkpt>
      <trkpt lat="48.36196" lon="-3.8361">
        <ele>257.39999389648</ele>
        <time>2021-09-12T13:19:39Z</time>
      </trkpt>
      <trkpt lat="48.36196" lon="-3.83603">
        <ele>257.39999389648</ele>
        <time>2021-09-12T13:19:40Z</time>
      </trkpt>
      <trkpt lat="48.36195" lon="-3.83597">
        <ele>257.60000610352</ele>
        <time>2021-09-12T13:19:41Z</time>
      </trkpt>
      <trkpt lat="48.36195" lon="-3.8359">
        <ele>257.60000610352</ele>
        <time>2021-09-12T13:19:42Z</time>
      </trkpt>
      <trkpt lat="48.36195" lon="-3.83583">
        <ele>257.79998779297</ele>
        <time>2021-09-12T13:19:43Z</time>
      </trkpt>
      <trkpt lat="48.36195" lon="-3.83576">
        <ele>257.79998779297</ele>
        <time>2021-09-12T13:19:44Z</time>
      </trkpt>
      <trkpt lat="48.36194" lon="-3.83569">
        <ele>258</ele>
        <time>2021-09-12T13:19:45Z</time>
      </trkpt>
      <trkpt lat="48.36193" lon="-3.83562">
        <ele>258</ele>
        <time>2021-09-12T13:19:46Z</time>
      </trkpt>
      <trkpt lat="48.36192" lon="-3.83555">
        <ele>258</ele>
        <time>2021-09-12T13:19:47Z</time>
      </trkpt>
      <trkpt lat="48.36192" lon="-3.83549">
        <ele>258.20001220703</ele>
        <time>2021-09-12T13:19:48Z</time>
      </trkpt>
      <trkpt lat="48.3619" lon="-3.83543">
        <ele>258.20001220703</ele>
        <time>2021-09-12T13:19:49Z</time>
      </trkpt>
      <trkpt lat="48.36189" lon="-3.83537">
        <ele>258.39999389648</ele>
        <time>2021-09-12T13:19:50Z</time>
      </trkpt>
      <trkpt lat="48.36188" lon="-3.83532">
        <ele>258.39999389648</ele>
        <time>2021-09-12T13:19:51Z</time>
      </trkpt>
      <trkpt lat="48.36187" lon="-3.83526">
        <ele>258.39999389648</ele>
        <time>2021-09-12T13:19:52Z</time>
      </trkpt>
      <trkpt lat="48.36186" lon="-3.83519">
        <ele>258.39999389648</ele>
        <time>2021-09-12T13:19:53Z</time>
      </trkpt>
      <trkpt lat="48.36184" lon="-3.83513">
        <ele>258.60000610352</ele>
        <time>2021-09-12T13:19:54Z</time>
      </trkpt>
      <trkpt lat="48.36183" lon="-3.83507">
        <ele>258.60000610352</ele>
        <time>2021-09-12T13:19:55Z</time>
      </trkpt>
      <trkpt lat="48.36181" lon="-3.83502">
        <ele>258.60000610352</ele>
        <time>2021-09-12T13:19:56Z</time>
      </trkpt>
      <trkpt lat="48.36179" lon="-3.83496">
        <ele>258.79998779297</ele>
        <time>2021-09-12T13:19:57Z</time>
      </trkpt>
      <trkpt lat="48.36178" lon="-3.83489">
        <ele>259</ele>
        <time>2021-09-12T13:19:58Z</time>
      </trkpt>
      <trkpt lat="48.36176" lon="-3.83481">
        <ele>259</ele>
        <time>2021-09-12T13:19:59Z</time>
      </trkpt>
      <trkpt lat="48.36175" lon="-3.83475">
        <ele>259.20001220703</ele>
        <time>2021-09-12T13:20:00Z</time>
      </trkpt>
      <trkpt lat="48.36173" lon="-3.8347">
        <ele>259.20001220703</ele>
        <time>2021-09-12T13:20:01Z</time>
      </trkpt>
      <trkpt lat="48.36172" lon="-3.83465">
        <ele>259</ele>
        <time>2021-09-12T13:20:02Z</time>
      </trkpt>
      <trkpt lat="48.36171" lon="-3.83459">
        <ele>259</ele>
        <time>2021-09-12T13:20:03Z</time>
      </trkpt>
      <trkpt lat="48.3617" lon="-3.83451">
        <ele>259</ele>
        <time>2021-09-12T13:20:04Z</time>
      </trkpt>
      <trkpt lat="48.36169" lon="-3.83445">
        <ele>258.60000610352</ele>
        <time>2021-09-12T13:20:05Z</time>
      </trkpt>
      <trkpt lat="48.36167" lon="-3.83439">
        <ele>258.39999389648</ele>
        <time>2021-09-12T13:20:06Z</time>
      </trkpt>
      <trkpt lat="48.36166" lon="-3.83432">
        <ele>258.39999389648</ele>
        <time>2021-09-12T13:20:07Z</time>
      </trkpt>
      <trkpt lat="48.36165" lon="-3.83424">
        <ele>258.39999389648</ele>
        <time>2021-09-12T13:20:08Z</time>
      </trkpt>
      <trkpt lat="48.36165" lon="-3.83418">
        <ele>258.39999389648</ele>
        <time>2021-09-12T13:20:09Z</time>
      </trkpt>
      <trkpt lat="48.36164" lon="-3.83412">
        <ele>258.20001220703</ele>
        <time>2021-09-12T13:20:10Z</time>
      </trkpt>
      <trkpt lat="48.36163" lon="-3.83404">
        <ele>258.20001220703</ele>
        <time>2021-09-12T13:20:11Z</time>
      </trkpt>
      <trkpt lat="48.36161" lon="-3.83398">
        <ele>258.20001220703</ele>
        <time>2021-09-12T13:20:12Z</time>
      </trkpt>
      <trkpt lat="48.36159" lon="-3.83391">
        <ele>258.20001220703</ele>
        <time>2021-09-12T13:20:13Z</time>
      </trkpt>
      <trkpt lat="48.36158" lon="-3.83386">
        <ele>258.20001220703</ele>
        <time>2021-09-12T13:20:14Z</time>
      </trkpt>
      <trkpt lat="48.36156" lon="-3.83379">
        <ele>258</ele>
        <time>2021-09-12T13:20:15Z</time>
      </trkpt>
      <trkpt lat="48.36155" lon="-3.8337">
        <ele>258</ele>
        <time>2021-09-12T13:20:16Z</time>
      </trkpt>
      <trkpt lat="48.36153" lon="-3.83363">
        <ele>258</ele>
        <time>2021-09-12T13:20:17Z</time>
      </trkpt>
      <trkpt lat="48.36152" lon="-3.83357">
        <ele>258</ele>
        <time>2021-09-12T13:20:18Z</time>
      </trkpt>
      <trkpt lat="48.36151" lon="-3.8335">
        <ele>258.20001220703</ele>
        <time>2021-09-12T13:20:19Z</time>
      </trkpt>
      <trkpt lat="48.3615" lon="-3.83346">
        <ele>258</ele>
        <time>2021-09-12T13:20:20Z</time>
      </trkpt>
      <trkpt lat="48.36148" lon="-3.83339">
        <ele>258.20001220703</ele>
        <time>2021-09-12T13:20:21Z</time>
      </trkpt>
      <trkpt lat="48.36145" lon="-3.83332">
        <ele>258.20001220703</ele>
        <time>2021-09-12T13:20:22Z</time>
      </trkpt>
      <trkpt lat="48.36143" lon="-3.83328">
        <ele>258.20001220703</ele>
        <time>2021-09-12T13:20:23Z</time>
      </trkpt>
      <trkpt lat="48.36141" lon="-3.83322">
        <ele>258.60000610352</ele>
        <time>2021-09-12T13:20:24Z</time>
      </trkpt>
      <trkpt lat="48.36139" lon="-3.83316">
        <ele>258.60000610352</ele>
        <time>2021-09-12T13:20:25Z</time>
      </trkpt>
      <trkpt lat="48.36137" lon="-3.8331">
        <ele>258.60000610352</ele>
        <time>2021-09-12T13:20:26Z</time>
      </trkpt>
      <trkpt lat="48.36136" lon="-3.83305">
        <ele>258.60000610352</ele>
        <time>2021-09-12T13:20:27Z</time>
      </trkpt>
      <trkpt lat="48.36135" lon="-3.83299">
        <ele>258.79998779297</ele>
        <time>2021-09-12T13:20:28Z</time>
      </trkpt>
      <trkpt lat="48.36134" lon="-3.83294">
        <ele>259</ele>
        <time>2021-09-12T13:20:29Z</time>
      </trkpt>
      <trkpt lat="48.36134" lon="-3.83288">
        <ele>259.39999389648</ele>
        <time>2021-09-12T13:20:30Z</time>
      </trkpt>
      <trkpt lat="48.36133" lon="-3.83281">
        <ele>259.60000610352</ele>
        <time>2021-09-12T13:20:31Z</time>
      </trkpt>
      <trkpt lat="48.36132" lon="-3.83276">
        <ele>259.79998779297</ele>
        <time>2021-09-12T13:20:32Z</time>
      </trkpt>
      <trkpt lat="48.36131" lon="-3.83271">
        <ele>260</ele>
        <time>2021-09-12T13:20:33Z</time>
      </trkpt>
      <trkpt lat="48.3613" lon="-3.83265">
        <ele>260.20001220703</ele>
        <time>2021-09-12T13:20:34Z</time>
      </trkpt>
      <trkpt lat="48.36129" lon="-3.83259">
        <ele>260.20001220703</ele>
        <time>2021-09-12T13:20:35Z</time>
      </trkpt>
      <trkpt lat="48.36129" lon="-3.83255">
        <ele>260.39999389648</ele>
        <time>2021-09-12T13:20:36Z</time>
      </trkpt>
      <trkpt lat="48.36128" lon="-3.83249">
        <ele>260.39999389648</ele>
        <time>2021-09-12T13:20:37Z</time>
      </trkpt>
      <trkpt lat="48.36127" lon="-3.83242">
        <ele>260.60000610352</ele>
        <time>2021-09-12T13:20:38Z</time>
      </trkpt>
      <trkpt lat="48.36126" lon="-3.83238">
        <ele>260.79998779297</ele>
        <time>2021-09-12T13:20:39Z</time>
      </trkpt>
      <trkpt lat="48.36126" lon="-3.83232">
        <ele>261</ele>
        <time>2021-09-12T13:20:40Z</time>
      </trkpt>
      <trkpt lat="48.36125" lon="-3.83228">
        <ele>261</ele>
        <time>2021-09-12T13:20:41Z</time>
      </trkpt>
      <trkpt lat="48.36125" lon="-3.83223">
        <ele>261.20001220703</ele>
        <time>2021-09-12T13:20:42Z</time>
      </trkpt>
      <trkpt lat="48.36124" lon="-3.83218">
        <ele>261.60000610352</ele>
        <time>2021-09-12T13:20:43Z</time>
      </trkpt>
      <trkpt lat="48.36123" lon="-3.83213">
        <ele>261.60000610352</ele>
        <time>2021-09-12T13:20:44Z</time>
      </trkpt>
      <trkpt lat="48.36123" lon="-3.83208">
        <ele>262</ele>
        <time>2021-09-12T13:20:45Z</time>
      </trkpt>
      <trkpt lat="48.36122" lon="-3.83202">
        <ele>262</ele>
        <time>2021-09-12T13:20:46Z</time>
      </trkpt>
      <trkpt lat="48.36121" lon="-3.83196">
        <ele>262</ele>
        <time>2021-09-12T13:20:47Z</time>
      </trkpt>
      <trkpt lat="48.36121" lon="-3.83191">
        <ele>262.39999389648</ele>
        <time>2021-09-12T13:20:48Z</time>
      </trkpt>
      <trkpt lat="48.3612" lon="-3.83185">
        <ele>262.39999389648</ele>
        <time>2021-09-12T13:20:49Z</time>
      </trkpt>
      <trkpt lat="48.36119" lon="-3.83179">
        <ele>262.39999389648</ele>
        <time>2021-09-12T13:20:50Z</time>
      </trkpt>
      <trkpt lat="48.36118" lon="-3.83173">
        <ele>262.39999389648</ele>
        <time>2021-09-12T13:20:51Z</time>
      </trkpt>
      <trkpt lat="48.36118" lon="-3.83168">
        <ele>262.60000610352</ele>
        <time>2021-09-12T13:20:52Z</time>
      </trkpt>
      <trkpt lat="48.36117" lon="-3.83162">
        <ele>262.79998779297</ele>
        <time>2021-09-12T13:20:53Z</time>
      </trkpt>
      <trkpt lat="48.36116" lon="-3.83156">
        <ele>262.79998779297</ele>
        <time>2021-09-12T13:20:54Z</time>
      </trkpt>
      <trkpt lat="48.36115" lon="-3.83151">
        <ele>263.20001220703</ele>
        <time>2021-09-12T13:20:55Z</time>
      </trkpt>
      <trkpt lat="48.36114" lon="-3.83146">
        <ele>263.20001220703</ele>
        <time>2021-09-12T13:20:56Z</time>
      </trkpt>
      <trkpt lat="48.36113" lon="-3.8314">
        <ele>263.20001220703</ele>
        <time>2021-09-12T13:20:57Z</time>
      </trkpt>
      <trkpt lat="48.36113" lon="-3.83135">
        <ele>263.39999389648</ele>
        <time>2021-09-12T13:20:58Z</time>
      </trkpt>
      <trkpt lat="48.36113" lon="-3.8313">
        <ele>263.60000610352</ele>
        <time>2021-09-12T13:20:59Z</time>
      </trkpt>
      <trkpt lat="48.36112" lon="-3.83125">
        <ele>264</ele>
        <time>2021-09-12T13:21:00Z</time>
      </trkpt>
      <trkpt lat="48.36111" lon="-3.8312">
        <ele>264.20001220703</ele>
        <time>2021-09-12T13:21:01Z</time>
      </trkpt>
      <trkpt lat="48.36111" lon="-3.83116">
        <ele>264.39999389648</ele>
        <time>2021-09-12T13:21:02Z</time>
      </trkpt>
      <trkpt lat="48.3611" lon="-3.83111">
        <ele>264.39999389648</ele>
        <time>2021-09-12T13:21:03Z</time>
      </trkpt>
      <trkpt lat="48.3611" lon="-3.83106">
        <ele>265</ele>
        <time>2021-09-12T13:21:04Z</time>
      </trkpt>
      <trkpt lat="48.36109" lon="-3.83101">
        <ele>265.39999389648</ele>
        <time>2021-09-12T13:21:05Z</time>
      </trkpt>
      <trkpt lat="48.36109" lon="-3.83096">
        <ele>265.39999389648</ele>
        <time>2021-09-12T13:21:06Z</time>
      </trkpt>
      <trkpt lat="48.36109" lon="-3.83091">
        <ele>265.60000610352</ele>
        <time>2021-09-12T13:21:07Z</time>
      </trkpt>
      <trkpt lat="48.36108" lon="-3.83086">
        <ele>265.79998779297</ele>
        <time>2021-09-12T13:21:08Z</time>
      </trkpt>
      <trkpt lat="48.36108" lon="-3.83081">
        <ele>265.79998779297</ele>
        <time>2021-09-12T13:21:09Z</time>
      </trkpt>
      <trkpt lat="48.36107" lon="-3.83077">
        <ele>266</ele>
        <time>2021-09-12T13:21:10Z</time>
      </trkpt>
      <trkpt lat="48.36107" lon="-3.83072">
        <ele>266.20001220703</ele>
        <time>2021-09-12T13:21:11Z</time>
      </trkpt>
      <trkpt lat="48.36107" lon="-3.83068">
        <ele>266.20001220703</ele>
        <time>2021-09-12T13:21:12Z</time>
      </trkpt>
      <trkpt lat="48.36107" lon="-3.83063">
        <ele>266.60000610352</ele>
        <time>2021-09-12T13:21:13Z</time>
      </trkpt>
      <trkpt lat="48.36106" lon="-3.83058">
        <ele>266.79998779297</ele>
        <time>2021-09-12T13:21:14Z</time>
      </trkpt>
      <trkpt lat="48.36106" lon="-3.83053">
        <ele>267</ele>
        <time>2021-09-12T13:21:15Z</time>
      </trkpt>
      <trkpt lat="48.36106" lon="-3.83047">
        <ele>267.20001220703</ele>
        <time>2021-09-12T13:21:16Z</time>
      </trkpt>
      <trkpt lat="48.36105" lon="-3.83042">
        <ele>267.20001220703</ele>
        <time>2021-09-12T13:21:17Z</time>
      </trkpt>
      <trkpt lat="48.36104" lon="-3.83037">
        <ele>267.39999389648</ele>
        <time>2021-09-12T13:21:18Z</time>
      </trkpt>
      <trkpt lat="48.36104" lon="-3.83031">
        <ele>267.39999389648</ele>
        <time>2021-09-12T13:21:19Z</time>
      </trkpt>
      <trkpt lat="48.36103" lon="-3.83026">
        <ele>267.60000610352</ele>
        <time>2021-09-12T13:21:20Z</time>
      </trkpt>
      <trkpt lat="48.36103" lon="-3.83021">
        <ele>267.60000610352</ele>
        <time>2021-09-12T13:21:21Z</time>
      </trkpt>
      <trkpt lat="48.36103" lon="-3.83015">
        <ele>267.79998779297</ele>
        <time>2021-09-12T13:21:22Z</time>
      </trkpt>
      <trkpt lat="48.36103" lon="-3.8301">
        <ele>267.79998779297</ele>
        <time>2021-09-12T13:21:23Z</time>
      </trkpt>
      <trkpt lat="48.36102" lon="-3.83005">
        <ele>267.79998779297</ele>
        <time>2021-09-12T13:21:24Z</time>
      </trkpt>
      <trkpt lat="48.36102" lon="-3.82999">
        <ele>267.79998779297</ele>
        <time>2021-09-12T13:21:25Z</time>
      </trkpt>
      <trkpt lat="48.36101" lon="-3.82993">
        <ele>267.79998779297</ele>
        <time>2021-09-12T13:21:26Z</time>
      </trkpt>
      <trkpt lat="48.36101" lon="-3.82987">
        <ele>267.79998779297</ele>
        <time>2021-09-12T13:21:27Z</time>
      </trkpt>
      <trkpt lat="48.361" lon="-3.82982">
        <ele>268</ele>
        <time>2021-09-12T13:21:28Z</time>
      </trkpt>
      <trkpt lat="48.36099" lon="-3.82976">
        <ele>268</ele>
        <time>2021-09-12T13:21:29Z</time>
      </trkpt>
      <trkpt lat="48.36099" lon="-3.8297">
        <ele>268.20001220703</ele>
        <time>2021-09-12T13:21:30Z</time>
      </trkpt>
      <trkpt lat="48.36098" lon="-3.82965">
        <ele>268.20001220703</ele>
        <time>2021-09-12T13:21:31Z</time>
      </trkpt>
      <trkpt lat="48.36097" lon="-3.82959">
        <ele>268.20001220703</ele>
        <time>2021-09-12T13:21:32Z</time>
      </trkpt>
      <trkpt lat="48.36097" lon="-3.82954">
        <ele>268.20001220703</ele>
        <time>2021-09-12T13:21:33Z</time>
      </trkpt>
      <trkpt lat="48.36096" lon="-3.82949">
        <ele>268.20001220703</ele>
        <time>2021-09-12T13:21:34Z</time>
      </trkpt>
      <trkpt lat="48.36096" lon="-3.82943">
        <ele>268.39999389648</ele>
        <time>2021-09-12T13:21:35Z</time>
      </trkpt>
      <trkpt lat="48.36096" lon="-3.82938">
        <ele>268.20001220703</ele>
        <time>2021-09-12T13:21:36Z</time>
      </trkpt>
      <trkpt lat="48.36095" lon="-3.82932">
        <ele>268.20001220703</ele>
        <time>2021-09-12T13:21:37Z</time>
      </trkpt>
      <trkpt lat="48.36095" lon="-3.82925">
        <ele>268.20001220703</ele>
        <time>2021-09-12T13:21:38Z</time>
      </trkpt>
      <trkpt lat="48.36094" lon="-3.82919">
        <ele>268.20001220703</ele>
        <time>2021-09-12T13:21:39Z</time>
      </trkpt>
      <trkpt lat="48.36094" lon="-3.82912">
        <ele>268.20001220703</ele>
        <time>2021-09-12T13:21:40Z</time>
      </trkpt>
      <trkpt lat="48.36093" lon="-3.82906">
        <ele>268.20001220703</ele>
        <time>2021-09-12T13:21:41Z</time>
      </trkpt>
      <trkpt lat="48.36093" lon="-3.829">
        <ele>268.20001220703</ele>
        <time>2021-09-12T13:21:42Z</time>
      </trkpt>
      <trkpt lat="48.36092" lon="-3.82894">
        <ele>268.20001220703</ele>
        <time>2021-09-12T13:21:43Z</time>
      </trkpt>
      <trkpt lat="48.36092" lon="-3.82888">
        <ele>268.20001220703</ele>
        <time>2021-09-12T13:21:44Z</time>
      </trkpt>
      <trkpt lat="48.36091" lon="-3.82881">
        <ele>268.20001220703</ele>
        <time>2021-09-12T13:21:45Z</time>
      </trkpt>
      <trkpt lat="48.3609" lon="-3.82875">
        <ele>268.20001220703</ele>
        <time>2021-09-12T13:21:46Z</time>
      </trkpt>
      <trkpt lat="48.36089" lon="-3.82869">
        <ele>268.20001220703</ele>
        <time>2021-09-12T13:21:47Z</time>
      </trkpt>
      <trkpt lat="48.36088" lon="-3.82862">
        <ele>268.39999389648</ele>
        <time>2021-09-12T13:21:48Z</time>
      </trkpt>
      <trkpt lat="48.36087" lon="-3.82856">
        <ele>268.39999389648</ele>
        <time>2021-09-12T13:21:49Z</time>
      </trkpt>
      <trkpt lat="48.36086" lon="-3.82848">
        <ele>268.39999389648</ele>
        <time>2021-09-12T13:21:50Z</time>
      </trkpt>
      <trkpt lat="48.36086" lon="-3.82843">
        <ele>268.39999389648</ele>
        <time>2021-09-12T13:21:51Z</time>
      </trkpt>
      <trkpt lat="48.36085" lon="-3.82837">
        <ele>268.39999389648</ele>
        <time>2021-09-12T13:21:52Z</time>
      </trkpt>
      <trkpt lat="48.36085" lon="-3.8283">
        <ele>268.39999389648</ele>
        <time>2021-09-12T13:21:53Z</time>
      </trkpt>
      <trkpt lat="48.36085" lon="-3.82823">
        <ele>268.60000610352</ele>
        <time>2021-09-12T13:21:54Z</time>
      </trkpt>
      <trkpt lat="48.36085" lon="-3.82817">
        <ele>268.60000610352</ele>
        <time>2021-09-12T13:21:55Z</time>
      </trkpt>
      <trkpt lat="48.36085" lon="-3.8281">
        <ele>268.60000610352</ele>
        <time>2021-09-12T13:21:56Z</time>
      </trkpt>
      <trkpt lat="48.36085" lon="-3.82803">
        <ele>268.79998779297</ele>
        <time>2021-09-12T13:21:57Z</time>
      </trkpt>
      <trkpt lat="48.36085" lon="-3.82796">
        <ele>268.79998779297</ele>
        <time>2021-09-12T13:21:58Z</time>
      </trkpt>
      <trkpt lat="48.36085" lon="-3.82789">
        <ele>268.79998779297</ele>
        <time>2021-09-12T13:21:59Z</time>
      </trkpt>
      <trkpt lat="48.36085" lon="-3.82782">
        <ele>269</ele>
        <time>2021-09-12T13:22:00Z</time>
      </trkpt>
      <trkpt lat="48.36083" lon="-3.82775">
        <ele>269</ele>
        <time>2021-09-12T13:22:01Z</time>
      </trkpt>
      <trkpt lat="48.36082" lon="-3.82768">
        <ele>269</ele>
        <time>2021-09-12T13:22:02Z</time>
      </trkpt>
      <trkpt lat="48.3608" lon="-3.82762">
        <ele>269</ele>
        <time>2021-09-12T13:22:03Z</time>
      </trkpt>
      <trkpt lat="48.36078" lon="-3.82756">
        <ele>269</ele>
        <time>2021-09-12T13:22:04Z</time>
      </trkpt>
      <trkpt lat="48.36076" lon="-3.82749">
        <ele>269</ele>
        <time>2021-09-12T13:22:05Z</time>
      </trkpt>
      <trkpt lat="48.36074" lon="-3.82743">
        <ele>269.20001220703</ele>
        <time>2021-09-12T13:22:06Z</time>
      </trkpt>
      <trkpt lat="48.36072" lon="-3.82737">
        <ele>269.39999389648</ele>
        <time>2021-09-12T13:22:07Z</time>
      </trkpt>
      <trkpt lat="48.3607" lon="-3.82731">
        <ele>269.39999389648</ele>
        <time>2021-09-12T13:22:08Z</time>
      </trkpt>
      <trkpt lat="48.36069" lon="-3.82726">
        <ele>269.39999389648</ele>
        <time>2021-09-12T13:22:09Z</time>
      </trkpt>
      <trkpt lat="48.36067" lon="-3.8272">
        <ele>269.60000610352</ele>
        <time>2021-09-12T13:22:10Z</time>
      </trkpt>
      <trkpt lat="48.36065" lon="-3.82714">
        <ele>269.60000610352</ele>
        <time>2021-09-12T13:22:11Z</time>
      </trkpt>
      <trkpt lat="48.36064" lon="-3.8271">
        <ele>270</ele>
        <time>2021-09-12T13:22:12Z</time>
      </trkpt>
      <trkpt lat="48.36062" lon="-3.82704">
        <ele>270</ele>
        <time>2021-09-12T13:22:13Z</time>
      </trkpt>
      <trkpt lat="48.36061" lon="-3.827">
        <ele>270.39999389648</ele>
        <time>2021-09-12T13:22:14Z</time>
      </trkpt>
      <trkpt lat="48.3606" lon="-3.82695">
        <ele>270.39999389648</ele>
        <time>2021-09-12T13:22:15Z</time>
      </trkpt>
      <trkpt lat="48.36058" lon="-3.8269">
        <ele>270.60000610352</ele>
        <time>2021-09-12T13:22:16Z</time>
      </trkpt>
      <trkpt lat="48.36056" lon="-3.82686">
        <ele>270.60000610352</ele>
        <time>2021-09-12T13:22:17Z</time>
      </trkpt>
      <trkpt lat="48.36055" lon="-3.82681">
        <ele>270.79998779297</ele>
        <time>2021-09-12T13:22:18Z</time>
      </trkpt>
      <trkpt lat="48.36054" lon="-3.82676">
        <ele>270.79998779297</ele>
        <time>2021-09-12T13:22:19Z</time>
      </trkpt>
      <trkpt lat="48.36053" lon="-3.8267">
        <ele>270.79998779297</ele>
        <time>2021-09-12T13:22:20Z</time>
      </trkpt>
      <trkpt lat="48.36051" lon="-3.82665">
        <ele>271</ele>
        <time>2021-09-12T13:22:21Z</time>
      </trkpt>
      <trkpt lat="48.3605" lon="-3.82659">
        <ele>271</ele>
        <time>2021-09-12T13:22:22Z</time>
      </trkpt>
      <trkpt lat="48.3605" lon="-3.82653">
        <ele>271.39999389648</ele>
        <time>2021-09-12T13:22:23Z</time>
      </trkpt>
      <trkpt lat="48.36049" lon="-3.82647">
        <ele>271.39999389648</ele>
        <time>2021-09-12T13:22:24Z</time>
      </trkpt>
      <trkpt lat="48.36048" lon="-3.82641">
        <ele>271.60000610352</ele>
        <time>2021-09-12T13:22:25Z</time>
      </trkpt>
      <trkpt lat="48.36047" lon="-3.82635">
        <ele>271.60000610352</ele>
        <time>2021-09-12T13:22:26Z</time>
      </trkpt>
      <trkpt lat="48.36047" lon="-3.82629">
        <ele>272</ele>
        <time>2021-09-12T13:22:27Z</time>
      </trkpt>
      <trkpt lat="48.36046" lon="-3.82623">
        <ele>272</ele>
        <time>2021-09-12T13:22:28Z</time>
      </trkpt>
      <trkpt lat="48.36046" lon="-3.82617">
        <ele>272.20001220703</ele>
        <time>2021-09-12T13:22:29Z</time>
      </trkpt>
      <trkpt lat="48.36045" lon="-3.82611">
        <ele>272.20001220703</ele>
        <time>2021-09-12T13:22:30Z</time>
      </trkpt>
      <trkpt lat="48.36045" lon="-3.82605">
        <ele>272.39999389648</ele>
        <time>2021-09-12T13:22:31Z</time>
      </trkpt>
      <trkpt lat="48.36044" lon="-3.82599">
        <ele>272.79998779297</ele>
        <time>2021-09-12T13:22:32Z</time>
      </trkpt>
      <trkpt lat="48.36043" lon="-3.82593">
        <ele>272.79998779297</ele>
        <time>2021-09-12T13:22:33Z</time>
      </trkpt>
      <trkpt lat="48.36042" lon="-3.82587">
        <ele>272.79998779297</ele>
        <time>2021-09-12T13:22:34Z</time>
      </trkpt>
      <trkpt lat="48.36042" lon="-3.82582">
        <ele>273</ele>
        <time>2021-09-12T13:22:35Z</time>
      </trkpt>
      <trkpt lat="48.36041" lon="-3.82576">
        <ele>273.20001220703</ele>
        <time>2021-09-12T13:22:36Z</time>
      </trkpt>
      <trkpt lat="48.3604" lon="-3.8257">
        <ele>273.20001220703</ele>
        <time>2021-09-12T13:22:37Z</time>
      </trkpt>
      <trkpt lat="48.3604" lon="-3.82565">
        <ele>273.39999389648</ele>
        <time>2021-09-12T13:22:38Z</time>
      </trkpt>
      <trkpt lat="48.36039" lon="-3.82559">
        <ele>273.60000610352</ele>
        <time>2021-09-12T13:22:39Z</time>
      </trkpt>
      <trkpt lat="48.36038" lon="-3.82553">
        <ele>273.79998779297</ele>
        <time>2021-09-12T13:22:40Z</time>
      </trkpt>
      <trkpt lat="48.36037" lon="-3.82548">
        <ele>273.79998779297</ele>
        <time>2021-09-12T13:22:41Z</time>
      </trkpt>
      <trkpt lat="48.36036" lon="-3.82542">
        <ele>274</ele>
        <time>2021-09-12T13:22:42Z</time>
      </trkpt>
      <trkpt lat="48.36035" lon="-3.82537">
        <ele>274.20001220703</ele>
        <time>2021-09-12T13:22:43Z</time>
      </trkpt>
      <trkpt lat="48.36035" lon="-3.82532">
        <ele>274.20001220703</ele>
        <time>2021-09-12T13:22:44Z</time>
      </trkpt>
      <trkpt lat="48.36034" lon="-3.82526">
        <ele>274.60000610352</ele>
        <time>2021-09-12T13:22:45Z</time>
      </trkpt>
      <trkpt lat="48.36034" lon="-3.82521">
        <ele>274.60000610352</ele>
        <time>2021-09-12T13:22:46Z</time>
      </trkpt>
      <trkpt lat="48.36033" lon="-3.82516">
        <ele>274.79998779297</ele>
        <time>2021-09-12T13:22:47Z</time>
      </trkpt>
      <trkpt lat="48.36033" lon="-3.82511">
        <ele>275</ele>
        <time>2021-09-12T13:22:48Z</time>
      </trkpt>
      <trkpt lat="48.36033" lon="-3.82506">
        <ele>275.39999389648</ele>
        <time>2021-09-12T13:22:49Z</time>
      </trkpt>
      <trkpt lat="48.36033" lon="-3.82501">
        <ele>275.79998779297</ele>
        <time>2021-09-12T13:22:50Z</time>
      </trkpt>
      <trkpt lat="48.36033" lon="-3.82496">
        <ele>275.79998779297</ele>
        <time>2021-09-12T13:22:51Z</time>
      </trkpt>
      <trkpt lat="48.36033" lon="-3.82491">
        <ele>276.20001220703</ele>
        <time>2021-09-12T13:22:52Z</time>
      </trkpt>
      <trkpt lat="48.36033" lon="-3.82486">
        <ele>276.20001220703</ele>
        <time>2021-09-12T13:22:53Z</time>
      </trkpt>
      <trkpt lat="48.36033" lon="-3.82481">
        <ele>276.39999389648</ele>
        <time>2021-09-12T13:22:54Z</time>
      </trkpt>
      <trkpt lat="48.36034" lon="-3.82476">
        <ele>276.39999389648</ele>
        <time>2021-09-12T13:22:55Z</time>
      </trkpt>
      <trkpt lat="48.36034" lon="-3.82472">
        <ele>277</ele>
        <time>2021-09-12T13:22:56Z</time>
      </trkpt>
      <trkpt lat="48.36034" lon="-3.82467">
        <ele>277</ele>
        <time>2021-09-12T13:22:57Z</time>
      </trkpt>
      <trkpt lat="48.36034" lon="-3.82462">
        <ele>277</ele>
        <time>2021-09-12T13:22:58Z</time>
      </trkpt>
      <trkpt lat="48.36034" lon="-3.82457">
        <ele>277.20001220703</ele>
        <time>2021-09-12T13:22:59Z</time>
      </trkpt>
      <trkpt lat="48.36034" lon="-3.82451">
        <ele>277.39999389648</ele>
        <time>2021-09-12T13:23:00Z</time>
      </trkpt>
      <trkpt lat="48.36034" lon="-3.82446">
        <ele>277.39999389648</ele>
        <time>2021-09-12T13:23:01Z</time>
      </trkpt>
      <trkpt lat="48.36034" lon="-3.8244">
        <ele>277.60000610352</ele>
        <time>2021-09-12T13:23:02Z</time>
      </trkpt>
      <trkpt lat="48.36034" lon="-3.82434">
        <ele>277.79998779297</ele>
        <time>2021-09-12T13:23:03Z</time>
      </trkpt>
      <trkpt lat="48.36034" lon="-3.82429">
        <ele>277.79998779297</ele>
        <time>2021-09-12T13:23:04Z</time>
      </trkpt>
      <trkpt lat="48.36034" lon="-3.82424">
        <ele>277.79998779297</ele>
        <time>2021-09-12T13:23:05Z</time>
      </trkpt>
      <trkpt lat="48.36034" lon="-3.82419">
        <ele>278</ele>
        <time>2021-09-12T13:23:06Z</time>
      </trkpt>
      <trkpt lat="48.36034" lon="-3.82413">
        <ele>278.20001220703</ele>
        <time>2021-09-12T13:23:07Z</time>
      </trkpt>
      <trkpt lat="48.36034" lon="-3.82408">
        <ele>278.20001220703</ele>
        <time>2021-09-12T13:23:08Z</time>
      </trkpt>
      <trkpt lat="48.36034" lon="-3.82403">
        <ele>278.60000610352</ele>
        <time>2021-09-12T13:23:09Z</time>
      </trkpt>
      <trkpt lat="48.36035" lon="-3.82397">
        <ele>278.60000610352</ele>
        <time>2021-09-12T13:23:10Z</time>
      </trkpt>
      <trkpt lat="48.36035" lon="-3.82392">
        <ele>278.79998779297</ele>
        <time>2021-09-12T13:23:11Z</time>
      </trkpt>
      <trkpt lat="48.36036" lon="-3.82386">
        <ele>278.79998779297</ele>
        <time>2021-09-12T13:23:12Z</time>
      </trkpt>
      <trkpt lat="48.36036" lon="-3.82381">
        <ele>279</ele>
        <time>2021-09-12T13:23:13Z</time>
      </trkpt>
      <trkpt lat="48.36037" lon="-3.82375">
        <ele>279</ele>
        <time>2021-09-12T13:23:14Z</time>
      </trkpt>
      <trkpt lat="48.36038" lon="-3.82369">
        <ele>279.20001220703</ele>
        <time>2021-09-12T13:23:15Z</time>
      </trkpt>
      <trkpt lat="48.36038" lon="-3.82364">
        <ele>279.20001220703</ele>
        <time>2021-09-12T13:23:16Z</time>
      </trkpt>
      <trkpt lat="48.36039" lon="-3.82358">
        <ele>279.20001220703</ele>
        <time>2021-09-12T13:23:17Z</time>
      </trkpt>
      <trkpt lat="48.3604" lon="-3.82353">
        <ele>279.39999389648</ele>
        <time>2021-09-12T13:23:18Z</time>
      </trkpt>
      <trkpt lat="48.36041" lon="-3.82347">
        <ele>279.39999389648</ele>
        <time>2021-09-12T13:23:19Z</time>
      </trkpt>
      <trkpt lat="48.36042" lon="-3.82342">
        <ele>279.39999389648</ele>
        <time>2021-09-12T13:23:20Z</time>
      </trkpt>
      <trkpt lat="48.36044" lon="-3.82336">
        <ele>279.39999389648</ele>
        <time>2021-09-12T13:23:21Z</time>
      </trkpt>
      <trkpt lat="48.36045" lon="-3.82331">
        <ele>279.39999389648</ele>
        <time>2021-09-12T13:23:22Z</time>
      </trkpt>
      <trkpt lat="48.36046" lon="-3.82325">
        <ele>279.39999389648</ele>
        <time>2021-09-12T13:23:23Z</time>
      </trkpt>
      <trkpt lat="48.36047" lon="-3.8232">
        <ele>279.20001220703</ele>
        <time>2021-09-12T13:23:24Z</time>
      </trkpt>
      <trkpt lat="48.36048" lon="-3.82315">
        <ele>279.20001220703</ele>
        <time>2021-09-12T13:23:25Z</time>
      </trkpt>
      <trkpt lat="48.36049" lon="-3.82309">
        <ele>279.20001220703</ele>
        <time>2021-09-12T13:23:26Z</time>
      </trkpt>
      <trkpt lat="48.3605" lon="-3.82303">
        <ele>279.20001220703</ele>
        <time>2021-09-12T13:23:27Z</time>
      </trkpt>
      <trkpt lat="48.36052" lon="-3.82296">
        <ele>279.20001220703</ele>
        <time>2021-09-12T13:23:28Z</time>
      </trkpt>
      <trkpt lat="48.36053" lon="-3.82291">
        <ele>279.20001220703</ele>
        <time>2021-09-12T13:23:29Z</time>
      </trkpt>
      <trkpt lat="48.36054" lon="-3.82284">
        <ele>279.20001220703</ele>
        <time>2021-09-12T13:23:30Z</time>
      </trkpt>
      <trkpt lat="48.36055" lon="-3.82278">
        <ele>279.20001220703</ele>
        <time>2021-09-12T13:23:31Z</time>
      </trkpt>
      <trkpt lat="48.36057" lon="-3.82271">
        <ele>279</ele>
        <time>2021-09-12T13:23:32Z</time>
      </trkpt>
      <trkpt lat="48.36058" lon="-3.82264">
        <ele>278.79998779297</ele>
        <time>2021-09-12T13:23:33Z</time>
      </trkpt>
      <trkpt lat="48.36059" lon="-3.82258">
        <ele>278.79998779297</ele>
        <time>2021-09-12T13:23:34Z</time>
      </trkpt>
      <trkpt lat="48.36061" lon="-3.8225">
        <ele>278.60000610352</ele>
        <time>2021-09-12T13:23:35Z</time>
      </trkpt>
      <trkpt lat="48.36062" lon="-3.82243">
        <ele>278.20001220703</ele>
        <time>2021-09-12T13:23:36Z</time>
      </trkpt>
      <trkpt lat="48.36064" lon="-3.82236">
        <ele>278</ele>
        <time>2021-09-12T13:23:37Z</time>
      </trkpt>
      <trkpt lat="48.36066" lon="-3.82228">
        <ele>277.79998779297</ele>
        <time>2021-09-12T13:23:38Z</time>
      </trkpt>
      <trkpt lat="48.36068" lon="-3.82221">
        <ele>277.20001220703</ele>
        <time>2021-09-12T13:23:39Z</time>
      </trkpt>
      <trkpt lat="48.3607" lon="-3.82213">
        <ele>277.20001220703</ele>
        <time>2021-09-12T13:23:40Z</time>
      </trkpt>
      <trkpt lat="48.36071" lon="-3.82206">
        <ele>277.20001220703</ele>
        <time>2021-09-12T13:23:41Z</time>
      </trkpt>
      <trkpt lat="48.36072" lon="-3.82199">
        <ele>277.20001220703</ele>
        <time>2021-09-12T13:23:42Z</time>
      </trkpt>
      <trkpt lat="48.36073" lon="-3.82191">
        <ele>277.20001220703</ele>
        <time>2021-09-12T13:23:43Z</time>
      </trkpt>
      <trkpt lat="48.36074" lon="-3.82184">
        <ele>277.20001220703</ele>
        <time>2021-09-12T13:23:44Z</time>
      </trkpt>
      <trkpt lat="48.36075" lon="-3.82176">
        <ele>277</ele>
        <time>2021-09-12T13:23:45Z</time>
      </trkpt>
      <trkpt lat="48.36076" lon="-3.82168">
        <ele>277</ele>
        <time>2021-09-12T13:23:46Z</time>
      </trkpt>
      <trkpt lat="48.36078" lon="-3.8216">
        <ele>276.60000610352</ele>
        <time>2021-09-12T13:23:47Z</time>
      </trkpt>
      <trkpt lat="48.36079" lon="-3.82152">
        <ele>276.60000610352</ele>
        <time>2021-09-12T13:23:48Z</time>
      </trkpt>
      <trkpt lat="48.36081" lon="-3.82143">
        <ele>276.20001220703</ele>
        <time>2021-09-12T13:23:49Z</time>
      </trkpt>
      <trkpt lat="48.36082" lon="-3.82135">
        <ele>276</ele>
        <time>2021-09-12T13:23:50Z</time>
      </trkpt>
      <trkpt lat="48.36084" lon="-3.82126">
        <ele>275.79998779297</ele>
        <time>2021-09-12T13:23:51Z</time>
      </trkpt>
      <trkpt lat="48.36086" lon="-3.82118">
        <ele>275.60000610352</ele>
        <time>2021-09-12T13:23:52Z</time>
      </trkpt>
      <trkpt lat="48.36088" lon="-3.8211">
        <ele>275.60000610352</ele>
        <time>2021-09-12T13:23:53Z</time>
      </trkpt>
      <trkpt lat="48.36089" lon="-3.82101">
        <ele>275.39999389648</ele>
        <time>2021-09-12T13:23:54Z</time>
      </trkpt>
      <trkpt lat="48.36091" lon="-3.82093">
        <ele>275.39999389648</ele>
        <time>2021-09-12T13:23:55Z</time>
      </trkpt>
      <trkpt lat="48.36093" lon="-3.82084">
        <ele>274.79998779297</ele>
        <time>2021-09-12T13:23:56Z</time>
      </trkpt>
      <trkpt lat="48.36095" lon="-3.82076">
        <ele>274.79998779297</ele>
        <time>2021-09-12T13:23:57Z</time>
      </trkpt>
      <trkpt lat="48.36098" lon="-3.82067">
        <ele>274.60000610352</ele>
        <time>2021-09-12T13:23:58Z</time>
      </trkpt>
      <trkpt lat="48.361" lon="-3.82059">
        <ele>274.60000610352</ele>
        <time>2021-09-12T13:23:59Z</time>
      </trkpt>
      <trkpt lat="48.36102" lon="-3.82051">
        <ele>274.39999389648</ele>
        <time>2021-09-12T13:24:00Z</time>
      </trkpt>
      <trkpt lat="48.36104" lon="-3.82044">
        <ele>274</ele>
        <time>2021-09-12T13:24:01Z</time>
      </trkpt>
      <trkpt lat="48.36106" lon="-3.82037">
        <ele>273.79998779297</ele>
        <time>2021-09-12T13:24:02Z</time>
      </trkpt>
      <trkpt lat="48.36109" lon="-3.8203">
        <ele>273.79998779297</ele>
        <time>2021-09-12T13:24:03Z</time>
      </trkpt>
      <trkpt lat="48.36111" lon="-3.82023">
        <ele>273.79998779297</ele>
        <time>2021-09-12T13:24:04Z</time>
      </trkpt>
      <trkpt lat="48.36113" lon="-3.82017">
        <ele>274</ele>
        <time>2021-09-12T13:24:05Z</time>
      </trkpt>
      <trkpt lat="48.36115" lon="-3.82011">
        <ele>274.20001220703</ele>
        <time>2021-09-12T13:24:06Z</time>
      </trkpt>
      <trkpt lat="48.36118" lon="-3.82005">
        <ele>274.20001220703</ele>
        <time>2021-09-12T13:24:07Z</time>
      </trkpt>
      <trkpt lat="48.3612" lon="-3.81999">
        <ele>274.20001220703</ele>
        <time>2021-09-12T13:24:08Z</time>
      </trkpt>
      <trkpt lat="48.36121" lon="-3.81992">
        <ele>274.20001220703</ele>
        <time>2021-09-12T13:24:09Z</time>
      </trkpt>
      <trkpt lat="48.36122" lon="-3.81985">
        <ele>274.20001220703</ele>
        <time>2021-09-12T13:24:10Z</time>
      </trkpt>
      <trkpt lat="48.36122" lon="-3.81979">
        <ele>274.20001220703</ele>
        <time>2021-09-12T13:24:11Z</time>
      </trkpt>
      <trkpt lat="48.36123" lon="-3.81972">
        <ele>274.20001220703</ele>
        <time>2021-09-12T13:24:12Z</time>
      </trkpt>
      <trkpt lat="48.36125" lon="-3.81966">
        <ele>274.20001220703</ele>
        <time>2021-09-12T13:24:13Z</time>
      </trkpt>
      <trkpt lat="48.36126" lon="-3.81959">
        <ele>274.20001220703</ele>
        <time>2021-09-12T13:24:14Z</time>
      </trkpt>
      <trkpt lat="48.36128" lon="-3.81952">
        <ele>274.20001220703</ele>
        <time>2021-09-12T13:24:15Z</time>
      </trkpt>
      <trkpt lat="48.36129" lon="-3.81946">
        <ele>274.39999389648</ele>
        <time>2021-09-12T13:24:16Z</time>
      </trkpt>
      <trkpt lat="48.36131" lon="-3.81939">
        <ele>274.39999389648</ele>
        <time>2021-09-12T13:24:17Z</time>
      </trkpt>
      <trkpt lat="48.36132" lon="-3.81932">
        <ele>274.39999389648</ele>
        <time>2021-09-12T13:24:18Z</time>
      </trkpt>
      <trkpt lat="48.36134" lon="-3.81926">
        <ele>274.39999389648</ele>
        <time>2021-09-12T13:24:19Z</time>
      </trkpt>
      <trkpt lat="48.36135" lon="-3.81919">
        <ele>274.39999389648</ele>
        <time>2021-09-12T13:24:20Z</time>
      </trkpt>
      <trkpt lat="48.36137" lon="-3.81913">
        <ele>274.60000610352</ele>
        <time>2021-09-12T13:24:21Z</time>
      </trkpt>
      <trkpt lat="48.36139" lon="-3.81907">
        <ele>274.60000610352</ele>
        <time>2021-09-12T13:24:22Z</time>
      </trkpt>
      <trkpt lat="48.3614" lon="-3.819">
        <ele>274.60000610352</ele>
        <time>2021-09-12T13:24:23Z</time>
      </trkpt>
      <trkpt lat="48.36142" lon="-3.81894">
        <ele>274.79998779297</ele>
        <time>2021-09-12T13:24:24Z</time>
      </trkpt>
      <trkpt lat="48.36143" lon="-3.81887">
        <ele>274.79998779297</ele>
        <time>2021-09-12T13:24:25Z</time>
      </trkpt>
      <trkpt lat="48.36145" lon="-3.8188">
        <ele>274.79998779297</ele>
        <time>2021-09-12T13:24:26Z</time>
      </trkpt>
      <trkpt lat="48.36146" lon="-3.81874">
        <ele>275</ele>
        <time>2021-09-12T13:24:27Z</time>
      </trkpt>
      <trkpt lat="48.36148" lon="-3.81868">
        <ele>275.20001220703</ele>
        <time>2021-09-12T13:24:28Z</time>
      </trkpt>
      <trkpt lat="48.36149" lon="-3.81861">
        <ele>275.20001220703</ele>
        <time>2021-09-12T13:24:29Z</time>
      </trkpt>
      <trkpt lat="48.3615" lon="-3.81855">
        <ele>275.20001220703</ele>
        <time>2021-09-12T13:24:30Z</time>
      </trkpt>
      <trkpt lat="48.36151" lon="-3.81849">
        <ele>275.39999389648</ele>
        <time>2021-09-12T13:24:31Z</time>
      </trkpt>
      <trkpt lat="48.36152" lon="-3.81844">
        <ele>275.39999389648</ele>
        <time>2021-09-12T13:24:32Z</time>
      </trkpt>
      <trkpt lat="48.36154" lon="-3.81838">
        <ele>275.39999389648</ele>
        <time>2021-09-12T13:24:33Z</time>
      </trkpt>
      <trkpt lat="48.36155" lon="-3.81832">
        <ele>275.60000610352</ele>
        <time>2021-09-12T13:24:34Z</time>
      </trkpt>
      <trkpt lat="48.36157" lon="-3.81826">
        <ele>275.60000610352</ele>
        <time>2021-09-12T13:24:35Z</time>
      </trkpt>
      <trkpt lat="48.36159" lon="-3.81821">
        <ele>275.79998779297</ele>
        <time>2021-09-12T13:24:36Z</time>
      </trkpt>
      <trkpt lat="48.3616" lon="-3.81815">
        <ele>275.79998779297</ele>
        <time>2021-09-12T13:24:37Z</time>
      </trkpt>
      <trkpt lat="48.36162" lon="-3.81809">
        <ele>275.79998779297</ele>
        <time>2021-09-12T13:24:38Z</time>
      </trkpt>
      <trkpt lat="48.36163" lon="-3.81804">
        <ele>275.79998779297</ele>
        <time>2021-09-12T13:24:39Z</time>
      </trkpt>
      <trkpt lat="48.36164" lon="-3.81799">
        <ele>276</ele>
        <time>2021-09-12T13:24:40Z</time>
      </trkpt>
      <trkpt lat="48.36166" lon="-3.81794">
        <ele>276.39999389648</ele>
        <time>2021-09-12T13:24:41Z</time>
      </trkpt>
      <trkpt lat="48.36167" lon="-3.81789">
        <ele>276.39999389648</ele>
        <time>2021-09-12T13:24:42Z</time>
      </trkpt>
      <trkpt lat="48.36169" lon="-3.81784">
        <ele>276.60000610352</ele>
        <time>2021-09-12T13:24:43Z</time>
      </trkpt>
      <trkpt lat="48.3617" lon="-3.81778">
        <ele>276.79998779297</ele>
        <time>2021-09-12T13:24:44Z</time>
      </trkpt>
      <trkpt lat="48.36171" lon="-3.81773">
        <ele>277</ele>
        <time>2021-09-12T13:24:45Z</time>
      </trkpt>
      <trkpt lat="48.36172" lon="-3.81768">
        <ele>277.20001220703</ele>
        <time>2021-09-12T13:24:46Z</time>
      </trkpt>
      <trkpt lat="48.36173" lon="-3.81763">
        <ele>277.20001220703</ele>
        <time>2021-09-12T13:24:47Z</time>
      </trkpt>
      <trkpt lat="48.36175" lon="-3.81759">
        <ele>277.60000610352</ele>
        <time>2021-09-12T13:24:48Z</time>
      </trkpt>
      <trkpt lat="48.36176" lon="-3.81754">
        <ele>277.79998779297</ele>
        <time>2021-09-12T13:24:49Z</time>
      </trkpt>
      <trkpt lat="48.36177" lon="-3.81749">
        <ele>278</ele>
        <time>2021-09-12T13:24:50Z</time>
      </trkpt>
      <trkpt lat="48.36178" lon="-3.81744">
        <ele>278.20001220703</ele>
        <time>2021-09-12T13:24:51Z</time>
      </trkpt>
      <trkpt lat="48.36179" lon="-3.81739">
        <ele>278.39999389648</ele>
        <time>2021-09-12T13:24:52Z</time>
      </trkpt>
      <trkpt lat="48.3618" lon="-3.81734">
        <ele>278.60000610352</ele>
        <time>2021-09-12T13:24:53Z</time>
      </trkpt>
      <trkpt lat="48.36181" lon="-3.81729">
        <ele>278.79998779297</ele>
        <time>2021-09-12T13:24:54Z</time>
      </trkpt>
      <trkpt lat="48.36182" lon="-3.81723">
        <ele>278.79998779297</ele>
        <time>2021-09-12T13:24:55Z</time>
      </trkpt>
      <trkpt lat="48.36183" lon="-3.81717">
        <ele>278.79998779297</ele>
        <time>2021-09-12T13:24:56Z</time>
      </trkpt>
      <trkpt lat="48.36184" lon="-3.81712">
        <ele>278.79998779297</ele>
        <time>2021-09-12T13:24:57Z</time>
      </trkpt>
      <trkpt lat="48.36185" lon="-3.81707">
        <ele>279</ele>
        <time>2021-09-12T13:24:58Z</time>
      </trkpt>
      <trkpt lat="48.36185" lon="-3.81702">
        <ele>279.20001220703</ele>
        <time>2021-09-12T13:24:59Z</time>
      </trkpt>
      <trkpt lat="48.36187" lon="-3.81696">
        <ele>279.39999389648</ele>
        <time>2021-09-12T13:25:00Z</time>
      </trkpt>
      <trkpt lat="48.36187" lon="-3.81691">
        <ele>279.60000610352</ele>
        <time>2021-09-12T13:25:01Z</time>
      </trkpt>
      <trkpt lat="48.36188" lon="-3.81685">
        <ele>280.20001220703</ele>
        <time>2021-09-12T13:25:02Z</time>
      </trkpt>
      <trkpt lat="48.3619" lon="-3.8168">
        <ele>280.20001220703</ele>
        <time>2021-09-12T13:25:03Z</time>
      </trkpt>
      <trkpt lat="48.36191" lon="-3.81675">
        <ele>280.20001220703</ele>
        <time>2021-09-12T13:25:04Z</time>
      </trkpt>
      <trkpt lat="48.36192" lon="-3.81669">
        <ele>280.39999389648</ele>
        <time>2021-09-12T13:25:05Z</time>
      </trkpt>
      <trkpt lat="48.36193" lon="-3.81664">
        <ele>280.60000610352</ele>
        <time>2021-09-12T13:25:06Z</time>
      </trkpt>
      <trkpt lat="48.36194" lon="-3.81658">
        <ele>281</ele>
        <time>2021-09-12T13:25:07Z</time>
      </trkpt>
      <trkpt lat="48.36195" lon="-3.81653">
        <ele>281</ele>
        <time>2021-09-12T13:25:08Z</time>
      </trkpt>
      <trkpt lat="48.36196" lon="-3.81647">
        <ele>281.39999389648</ele>
        <time>2021-09-12T13:25:09Z</time>
      </trkpt>
      <trkpt lat="48.36197" lon="-3.81641">
        <ele>281.39999389648</ele>
        <time>2021-09-12T13:25:10Z</time>
      </trkpt>
      <trkpt lat="48.36198" lon="-3.81635">
        <ele>281.39999389648</ele>
        <time>2021-09-12T13:25:11Z</time>
      </trkpt>
      <trkpt lat="48.36199" lon="-3.81628">
        <ele>281.39999389648</ele>
        <time>2021-09-12T13:25:12Z</time>
      </trkpt>
      <trkpt lat="48.36199" lon="-3.81622">
        <ele>281.39999389648</ele>
        <time>2021-09-12T13:25:13Z</time>
      </trkpt>
      <trkpt lat="48.36199" lon="-3.81615">
        <ele>281.39999389648</ele>
        <time>2021-09-12T13:25:14Z</time>
      </trkpt>
      <trkpt lat="48.36199" lon="-3.81609">
        <ele>281.39999389648</ele>
        <time>2021-09-12T13:25:15Z</time>
      </trkpt>
      <trkpt lat="48.36198" lon="-3.81602">
        <ele>281.20001220703</ele>
        <time>2021-09-12T13:25:16Z</time>
      </trkpt>
      <trkpt lat="48.36198" lon="-3.81595">
        <ele>281.39999389648</ele>
        <time>2021-09-12T13:25:17Z</time>
      </trkpt>
      <trkpt lat="48.36198" lon="-3.81587">
        <ele>281.39999389648</ele>
        <time>2021-09-12T13:25:18Z</time>
      </trkpt>
      <trkpt lat="48.36198" lon="-3.8158">
        <ele>281.20001220703</ele>
        <time>2021-09-12T13:25:19Z</time>
      </trkpt>
      <trkpt lat="48.36197" lon="-3.81572">
        <ele>280.79998779297</ele>
        <time>2021-09-12T13:25:20Z</time>
      </trkpt>
      <trkpt lat="48.36197" lon="-3.81564">
        <ele>280.60000610352</ele>
        <time>2021-09-12T13:25:21Z</time>
      </trkpt>
      <trkpt lat="48.36197" lon="-3.81557">
        <ele>280.39999389648</ele>
        <time>2021-09-12T13:25:22Z</time>
      </trkpt>
      <trkpt lat="48.36197" lon="-3.81548">
        <ele>280.39999389648</ele>
        <time>2021-09-12T13:25:23Z</time>
      </trkpt>
      <trkpt lat="48.36197" lon="-3.8154">
        <ele>280.39999389648</ele>
        <time>2021-09-12T13:25:24Z</time>
      </trkpt>
      <trkpt lat="48.36197" lon="-3.81532">
        <ele>280.20001220703</ele>
        <time>2021-09-12T13:25:25Z</time>
      </trkpt>
      <trkpt lat="48.36197" lon="-3.81524">
        <ele>280</ele>
        <time>2021-09-12T13:25:26Z</time>
      </trkpt>
      <trkpt lat="48.36197" lon="-3.81515">
        <ele>279.79998779297</ele>
        <time>2021-09-12T13:25:27Z</time>
      </trkpt>
      <trkpt lat="48.36197" lon="-3.81506">
        <ele>279.79998779297</ele>
        <time>2021-09-12T13:25:28Z</time>
      </trkpt>
      <trkpt lat="48.36197" lon="-3.81497">
        <ele>279.60000610352</ele>
        <time>2021-09-12T13:25:29Z</time>
      </trkpt>
      <trkpt lat="48.36198" lon="-3.81488">
        <ele>279.20001220703</ele>
        <time>2021-09-12T13:25:30Z</time>
      </trkpt>
      <trkpt lat="48.36198" lon="-3.81479">
        <ele>278.60000610352</ele>
        <time>2021-09-12T13:25:31Z</time>
      </trkpt>
      <trkpt lat="48.36199" lon="-3.81469">
        <ele>278.60000610352</ele>
        <time>2021-09-12T13:25:32Z</time>
      </trkpt>
      <trkpt lat="48.362" lon="-3.8146">
        <ele>278.39999389648</ele>
        <time>2021-09-12T13:25:33Z</time>
      </trkpt>
      <trkpt lat="48.36201" lon="-3.81452">
        <ele>278.20001220703</ele>
        <time>2021-09-12T13:25:34Z</time>
      </trkpt>
      <trkpt lat="48.36202" lon="-3.81443">
        <ele>278</ele>
        <time>2021-09-12T13:25:35Z</time>
      </trkpt>
      <trkpt lat="48.36202" lon="-3.81435">
        <ele>277.79998779297</ele>
        <time>2021-09-12T13:25:36Z</time>
      </trkpt>
      <trkpt lat="48.36203" lon="-3.81426">
        <ele>277.79998779297</ele>
        <time>2021-09-12T13:25:37Z</time>
      </trkpt>
      <trkpt lat="48.36202" lon="-3.81418">
        <ele>277.79998779297</ele>
        <time>2021-09-12T13:25:38Z</time>
      </trkpt>
      <trkpt lat="48.36202" lon="-3.81409">
        <ele>277.39999389648</ele>
        <time>2021-09-12T13:25:39Z</time>
      </trkpt>
      <trkpt lat="48.36201" lon="-3.81401">
        <ele>277.39999389648</ele>
        <time>2021-09-12T13:25:40Z</time>
      </trkpt>
      <trkpt lat="48.362" lon="-3.81392">
        <ele>277.39999389648</ele>
        <time>2021-09-12T13:25:41Z</time>
      </trkpt>
      <trkpt lat="48.36198" lon="-3.81383">
        <ele>277.20001220703</ele>
        <time>2021-09-12T13:25:42Z</time>
      </trkpt>
      <trkpt lat="48.36196" lon="-3.81375">
        <ele>277.20001220703</ele>
        <time>2021-09-12T13:25:43Z</time>
      </trkpt>
      <trkpt lat="48.36195" lon="-3.81366">
        <ele>277.20001220703</ele>
        <time>2021-09-12T13:25:44Z</time>
      </trkpt>
      <trkpt lat="48.36194" lon="-3.81358">
        <ele>277.20001220703</ele>
        <time>2021-09-12T13:25:45Z</time>
      </trkpt>
      <trkpt lat="48.36193" lon="-3.8135">
        <ele>277.20001220703</ele>
        <time>2021-09-12T13:25:46Z</time>
      </trkpt>
      <trkpt lat="48.36192" lon="-3.81342">
        <ele>277.20001220703</ele>
        <time>2021-09-12T13:25:47Z</time>
      </trkpt>
      <trkpt lat="48.3619" lon="-3.81334">
        <ele>277.20001220703</ele>
        <time>2021-09-12T13:25:48Z</time>
      </trkpt>
      <trkpt lat="48.36189" lon="-3.81326">
        <ele>277</ele>
        <time>2021-09-12T13:25:49Z</time>
      </trkpt>
      <trkpt lat="48.36189" lon="-3.81318">
        <ele>277</ele>
        <time>2021-09-12T13:25:50Z</time>
      </trkpt>
      <trkpt lat="48.36188" lon="-3.81309">
        <ele>277</ele>
        <time>2021-09-12T13:25:51Z</time>
      </trkpt>
      <trkpt lat="48.36189" lon="-3.81301">
        <ele>276.79998779297</ele>
        <time>2021-09-12T13:25:52Z</time>
      </trkpt>
      <trkpt lat="48.3619" lon="-3.81292">
        <ele>276.79998779297</ele>
        <time>2021-09-12T13:25:53Z</time>
      </trkpt>
      <trkpt lat="48.36192" lon="-3.81284">
        <ele>276.60000610352</ele>
        <time>2021-09-12T13:25:54Z</time>
      </trkpt>
      <trkpt lat="48.36195" lon="-3.81276">
        <ele>276.39999389648</ele>
        <time>2021-09-12T13:25:55Z</time>
      </trkpt>
      <trkpt lat="48.36198" lon="-3.81268">
        <ele>276.39999389648</ele>
        <time>2021-09-12T13:25:56Z</time>
      </trkpt>
      <trkpt lat="48.36201" lon="-3.8126">
        <ele>276.20001220703</ele>
        <time>2021-09-12T13:25:57Z</time>
      </trkpt>
      <trkpt lat="48.36204" lon="-3.81251">
        <ele>275.79998779297</ele>
        <time>2021-09-12T13:25:58Z</time>
      </trkpt>
      <trkpt lat="48.36206" lon="-3.81242">
        <ele>275.79998779297</ele>
        <time>2021-09-12T13:25:59Z</time>
      </trkpt>
      <trkpt lat="48.36208" lon="-3.81233">
        <ele>275.60000610352</ele>
        <time>2021-09-12T13:26:00Z</time>
      </trkpt>
      <trkpt lat="48.36209" lon="-3.81223">
        <ele>275.60000610352</ele>
        <time>2021-09-12T13:26:01Z</time>
      </trkpt>
      <trkpt lat="48.36209" lon="-3.81214">
        <ele>275.60000610352</ele>
        <time>2021-09-12T13:26:02Z</time>
      </trkpt>
      <trkpt lat="48.36209" lon="-3.81207">
        <ele>275.60000610352</ele>
        <time>2021-09-12T13:26:03Z</time>
      </trkpt>
      <trkpt lat="48.36208" lon="-3.81199">
        <ele>275.60000610352</ele>
        <time>2021-09-12T13:26:04Z</time>
      </trkpt>
      <trkpt lat="48.36207" lon="-3.81193">
        <ele>275.60000610352</ele>
        <time>2021-09-12T13:26:05Z</time>
      </trkpt>
      <trkpt lat="48.36207" lon="-3.81186">
        <ele>276</ele>
        <time>2021-09-12T13:26:06Z</time>
      </trkpt>
      <trkpt lat="48.36206" lon="-3.8118">
        <ele>276</ele>
        <time>2021-09-12T13:26:07Z</time>
      </trkpt>
      <trkpt lat="48.36206" lon="-3.81172">
        <ele>276</ele>
        <time>2021-09-12T13:26:08Z</time>
      </trkpt>
      <trkpt lat="48.36206" lon="-3.81166">
        <ele>276.20001220703</ele>
        <time>2021-09-12T13:26:09Z</time>
      </trkpt>
      <trkpt lat="48.36206" lon="-3.81161">
        <ele>276.39999389648</ele>
        <time>2021-09-12T13:26:10Z</time>
      </trkpt>
      <trkpt lat="48.36206" lon="-3.81155">
        <ele>276.79998779297</ele>
        <time>2021-09-12T13:26:11Z</time>
      </trkpt>
      <trkpt lat="48.36205" lon="-3.81149">
        <ele>277</ele>
        <time>2021-09-12T13:26:12Z</time>
      </trkpt>
      <trkpt lat="48.36204" lon="-3.81142">
        <ele>277.20001220703</ele>
        <time>2021-09-12T13:26:13Z</time>
      </trkpt>
      <trkpt lat="48.36203" lon="-3.81136">
        <ele>277.20001220703</ele>
        <time>2021-09-12T13:26:14Z</time>
      </trkpt>
      <trkpt lat="48.36202" lon="-3.81129">
        <ele>277.39999389648</ele>
        <time>2021-09-12T13:26:15Z</time>
      </trkpt>
      <trkpt lat="48.36202" lon="-3.81123">
        <ele>277.79998779297</ele>
        <time>2021-09-12T13:26:16Z</time>
      </trkpt>
      <trkpt lat="48.36203" lon="-3.81118">
        <ele>277.79998779297</ele>
        <time>2021-09-12T13:26:17Z</time>
      </trkpt>
      <trkpt lat="48.36203" lon="-3.81112">
        <ele>277.79998779297</ele>
        <time>2021-09-12T13:26:18Z</time>
      </trkpt>
      <trkpt lat="48.36204" lon="-3.81106">
        <ele>278</ele>
        <time>2021-09-12T13:26:19Z</time>
      </trkpt>
      <trkpt lat="48.36203" lon="-3.811">
        <ele>278.20001220703</ele>
        <time>2021-09-12T13:26:20Z</time>
      </trkpt>
      <trkpt lat="48.36203" lon="-3.81094">
        <ele>278.39999389648</ele>
        <time>2021-09-12T13:26:21Z</time>
      </trkpt>
      <trkpt lat="48.36202" lon="-3.81088">
        <ele>278.60000610352</ele>
        <time>2021-09-12T13:26:22Z</time>
      </trkpt>
      <trkpt lat="48.36201" lon="-3.81083">
        <ele>278.79998779297</ele>
        <time>2021-09-12T13:26:23Z</time>
      </trkpt>
      <trkpt lat="48.36201" lon="-3.81076">
        <ele>278.79998779297</ele>
        <time>2021-09-12T13:26:24Z</time>
      </trkpt>
      <trkpt lat="48.36201" lon="-3.81069">
        <ele>279</ele>
        <time>2021-09-12T13:26:25Z</time>
      </trkpt>
      <trkpt lat="48.362" lon="-3.81062">
        <ele>279</ele>
        <time>2021-09-12T13:26:26Z</time>
      </trkpt>
      <trkpt lat="48.362" lon="-3.81055">
        <ele>279.39999389648</ele>
        <time>2021-09-12T13:26:27Z</time>
      </trkpt>
      <trkpt lat="48.36199" lon="-3.81048">
        <ele>279.39999389648</ele>
        <time>2021-09-12T13:26:28Z</time>
      </trkpt>
      <trkpt lat="48.36198" lon="-3.81041">
        <ele>279.39999389648</ele>
        <time>2021-09-12T13:26:29Z</time>
      </trkpt>
      <trkpt lat="48.36197" lon="-3.81034">
        <ele>279.60000610352</ele>
        <time>2021-09-12T13:26:30Z</time>
      </trkpt>
      <trkpt lat="48.36195" lon="-3.81026">
        <ele>279.79998779297</ele>
        <time>2021-09-12T13:26:31Z</time>
      </trkpt>
      <trkpt lat="48.36194" lon="-3.81019">
        <ele>279.79998779297</ele>
        <time>2021-09-12T13:26:32Z</time>
      </trkpt>
      <trkpt lat="48.36192" lon="-3.81012">
        <ele>279.79998779297</ele>
        <time>2021-09-12T13:26:33Z</time>
      </trkpt>
      <trkpt lat="48.3619" lon="-3.81005">
        <ele>280</ele>
        <time>2021-09-12T13:26:34Z</time>
      </trkpt>
      <trkpt lat="48.36189" lon="-3.80999">
        <ele>280.20001220703</ele>
        <time>2021-09-12T13:26:35Z</time>
      </trkpt>
      <trkpt lat="48.36188" lon="-3.80992">
        <ele>280.20001220703</ele>
        <time>2021-09-12T13:26:36Z</time>
      </trkpt>
      <trkpt lat="48.36187" lon="-3.80985">
        <ele>280.79998779297</ele>
        <time>2021-09-12T13:26:37Z</time>
      </trkpt>
      <trkpt lat="48.36187" lon="-3.80978">
        <ele>280.79998779297</ele>
        <time>2021-09-12T13:26:38Z</time>
      </trkpt>
      <trkpt lat="48.36186" lon="-3.80971">
        <ele>281</ele>
        <time>2021-09-12T13:26:39Z</time>
      </trkpt>
      <trkpt lat="48.36185" lon="-3.80963">
        <ele>281</ele>
        <time>2021-09-12T13:26:40Z</time>
      </trkpt>
      <trkpt lat="48.36184" lon="-3.80956">
        <ele>281</ele>
        <time>2021-09-12T13:26:41Z</time>
      </trkpt>
      <trkpt lat="48.36183" lon="-3.80947">
        <ele>281</ele>
        <time>2021-09-12T13:26:42Z</time>
      </trkpt>
      <trkpt lat="48.36183" lon="-3.80937">
        <ele>281</ele>
        <time>2021-09-12T13:26:43Z</time>
      </trkpt>
      <trkpt lat="48.36184" lon="-3.80929">
        <ele>281</ele>
        <time>2021-09-12T13:26:44Z</time>
      </trkpt>
      <trkpt lat="48.36184" lon="-3.8092">
        <ele>280.79998779297</ele>
        <time>2021-09-12T13:26:45Z</time>
      </trkpt>
      <trkpt lat="48.36183" lon="-3.80912">
        <ele>280.79998779297</ele>
        <time>2021-09-12T13:26:46Z</time>
      </trkpt>
      <trkpt lat="48.36183" lon="-3.80905">
        <ele>280.79998779297</ele>
        <time>2021-09-12T13:26:47Z</time>
      </trkpt>
      <trkpt lat="48.36182" lon="-3.80898">
        <ele>280.79998779297</ele>
        <time>2021-09-12T13:26:48Z</time>
      </trkpt>
      <trkpt lat="48.36182" lon="-3.8089">
        <ele>280.79998779297</ele>
        <time>2021-09-12T13:26:49Z</time>
      </trkpt>
      <trkpt lat="48.36181" lon="-3.80884">
        <ele>280.79998779297</ele>
        <time>2021-09-12T13:26:50Z</time>
      </trkpt>
      <trkpt lat="48.36181" lon="-3.80876">
        <ele>281</ele>
        <time>2021-09-12T13:26:51Z</time>
      </trkpt>
      <trkpt lat="48.36181" lon="-3.80869">
        <ele>281</ele>
        <time>2021-09-12T13:26:52Z</time>
      </trkpt>
      <trkpt lat="48.3618" lon="-3.80862">
        <ele>281.20001220703</ele>
        <time>2021-09-12T13:26:53Z</time>
      </trkpt>
      <trkpt lat="48.3618" lon="-3.80855">
        <ele>281.20001220703</ele>
        <time>2021-09-12T13:26:54Z</time>
      </trkpt>
      <trkpt lat="48.36179" lon="-3.80848">
        <ele>281.20001220703</ele>
        <time>2021-09-12T13:26:55Z</time>
      </trkpt>
      <trkpt lat="48.36178" lon="-3.8084">
        <ele>281.20001220703</ele>
        <time>2021-09-12T13:26:56Z</time>
      </trkpt>
      <trkpt lat="48.36178" lon="-3.80832">
        <ele>281.20001220703</ele>
        <time>2021-09-12T13:26:57Z</time>
      </trkpt>
      <trkpt lat="48.36177" lon="-3.80824">
        <ele>281.20001220703</ele>
        <time>2021-09-12T13:26:58Z</time>
      </trkpt>
      <trkpt lat="48.36177" lon="-3.80816">
        <ele>281.20001220703</ele>
        <time>2021-09-12T13:26:59Z</time>
      </trkpt>
      <trkpt lat="48.36177" lon="-3.80807">
        <ele>281</ele>
        <time>2021-09-12T13:27:00Z</time>
      </trkpt>
      <trkpt lat="48.36176" lon="-3.80799">
        <ele>280.79998779297</ele>
        <time>2021-09-12T13:27:01Z</time>
      </trkpt>
      <trkpt lat="48.36176" lon="-3.80792">
        <ele>280.60000610352</ele>
        <time>2021-09-12T13:27:02Z</time>
      </trkpt>
      <trkpt lat="48.36176" lon="-3.80785">
        <ele>280.60000610352</ele>
        <time>2021-09-12T13:27:03Z</time>
      </trkpt>
      <trkpt lat="48.36177" lon="-3.80777">
        <ele>280.39999389648</ele>
        <time>2021-09-12T13:27:04Z</time>
      </trkpt>
      <trkpt lat="48.36178" lon="-3.80769">
        <ele>280.39999389648</ele>
        <time>2021-09-12T13:27:05Z</time>
      </trkpt>
      <trkpt lat="48.36179" lon="-3.80762">
        <ele>280.60000610352</ele>
        <time>2021-09-12T13:27:06Z</time>
      </trkpt>
      <trkpt lat="48.36181" lon="-3.80754">
        <ele>280.60000610352</ele>
        <time>2021-09-12T13:27:07Z</time>
      </trkpt>
      <trkpt lat="48.36183" lon="-3.80747">
        <ele>280.60000610352</ele>
        <time>2021-09-12T13:27:08Z</time>
      </trkpt>
      <trkpt lat="48.36185" lon="-3.80739">
        <ele>280.60000610352</ele>
        <time>2021-09-12T13:27:09Z</time>
      </trkpt>
      <trkpt lat="48.36186" lon="-3.80731">
        <ele>280.60000610352</ele>
        <time>2021-09-12T13:27:10Z</time>
      </trkpt>
      <trkpt lat="48.36187" lon="-3.80723">
        <ele>280.79998779297</ele>
        <time>2021-09-12T13:27:11Z</time>
      </trkpt>
      <trkpt lat="48.36189" lon="-3.80715">
        <ele>280.79998779297</ele>
        <time>2021-09-12T13:27:12Z</time>
      </trkpt>
      <trkpt lat="48.36191" lon="-3.80707">
        <ele>281</ele>
        <time>2021-09-12T13:27:13Z</time>
      </trkpt>
      <trkpt lat="48.36193" lon="-3.80699">
        <ele>281</ele>
        <time>2021-09-12T13:27:14Z</time>
      </trkpt>
      <trkpt lat="48.36195" lon="-3.80692">
        <ele>281</ele>
        <time>2021-09-12T13:27:15Z</time>
      </trkpt>
      <trkpt lat="48.36197" lon="-3.80685">
        <ele>281.20001220703</ele>
        <time>2021-09-12T13:27:16Z</time>
      </trkpt>
      <trkpt lat="48.36199" lon="-3.80676">
        <ele>281.39999389648</ele>
        <time>2021-09-12T13:27:17Z</time>
      </trkpt>
      <trkpt lat="48.36201" lon="-3.80669">
        <ele>281.39999389648</ele>
        <time>2021-09-12T13:27:18Z</time>
      </trkpt>
      <trkpt lat="48.36203" lon="-3.80662">
        <ele>281.60000610352</ele>
        <time>2021-09-12T13:27:19Z</time>
      </trkpt>
      <trkpt lat="48.36205" lon="-3.80656">
        <ele>282</ele>
        <time>2021-09-12T13:27:20Z</time>
      </trkpt>
      <trkpt lat="48.36208" lon="-3.8065">
        <ele>282</ele>
        <time>2021-09-12T13:27:21Z</time>
      </trkpt>
      <trkpt lat="48.3621" lon="-3.80643">
        <ele>282</ele>
        <time>2021-09-12T13:27:22Z</time>
      </trkpt>
      <trkpt lat="48.36213" lon="-3.80637">
        <ele>282.20001220703</ele>
        <time>2021-09-12T13:27:23Z</time>
      </trkpt>
      <trkpt lat="48.36217" lon="-3.80632">
        <ele>282.39999389648</ele>
        <time>2021-09-12T13:27:24Z</time>
      </trkpt>
      <trkpt lat="48.3622" lon="-3.80627">
        <ele>282.60000610352</ele>
        <time>2021-09-12T13:27:25Z</time>
      </trkpt>
      <trkpt lat="48.36223" lon="-3.80622">
        <ele>282.79998779297</ele>
        <time>2021-09-12T13:27:26Z</time>
      </trkpt>
      <trkpt lat="48.36226" lon="-3.80617">
        <ele>283</ele>
        <time>2021-09-12T13:27:27Z</time>
      </trkpt>
      <trkpt lat="48.36229" lon="-3.80611">
        <ele>283</ele>
        <time>2021-09-12T13:27:28Z</time>
      </trkpt>
      <trkpt lat="48.36232" lon="-3.80605">
        <ele>283.20001220703</ele>
        <time>2021-09-12T13:27:29Z</time>
      </trkpt>
      <trkpt lat="48.36235" lon="-3.80599">
        <ele>283.20001220703</ele>
        <time>2021-09-12T13:27:30Z</time>
      </trkpt>
      <trkpt lat="48.36239" lon="-3.80593">
        <ele>283.20001220703</ele>
        <time>2021-09-12T13:27:31Z</time>
      </trkpt>
      <trkpt lat="48.36242" lon="-3.80588">
        <ele>283.60000610352</ele>
        <time>2021-09-12T13:27:32Z</time>
      </trkpt>
      <trkpt lat="48.36244" lon="-3.80581">
        <ele>283.60000610352</ele>
        <time>2021-09-12T13:27:33Z</time>
      </trkpt>
      <trkpt lat="48.36247" lon="-3.80575">
        <ele>284</ele>
        <time>2021-09-12T13:27:34Z</time>
      </trkpt>
      <trkpt lat="48.3625" lon="-3.80569">
        <ele>284</ele>
        <time>2021-09-12T13:27:35Z</time>
      </trkpt>
      <trkpt lat="48.36252" lon="-3.80563">
        <ele>284</ele>
        <time>2021-09-12T13:27:36Z</time>
      </trkpt>
      <trkpt lat="48.36255" lon="-3.80556">
        <ele>284.20001220703</ele>
        <time>2021-09-12T13:27:37Z</time>
      </trkpt>
      <trkpt lat="48.36257" lon="-3.8055">
        <ele>284.20001220703</ele>
        <time>2021-09-12T13:27:38Z</time>
      </trkpt>
      <trkpt lat="48.36259" lon="-3.80544">
        <ele>284.39999389648</ele>
        <time>2021-09-12T13:27:39Z</time>
      </trkpt>
      <trkpt lat="48.36261" lon="-3.80537">
        <ele>284.39999389648</ele>
        <time>2021-09-12T13:27:40Z</time>
      </trkpt>
      <trkpt lat="48.36264" lon="-3.80531">
        <ele>284.60000610352</ele>
        <time>2021-09-12T13:27:41Z</time>
      </trkpt>
      <trkpt lat="48.36266" lon="-3.80524">
        <ele>284.60000610352</ele>
        <time>2021-09-12T13:27:42Z</time>
      </trkpt>
      <trkpt lat="48.36268" lon="-3.80517">
        <ele>284.60000610352</ele>
        <time>2021-09-12T13:27:43Z</time>
      </trkpt>
      <trkpt lat="48.36269" lon="-3.8051">
        <ele>284.60000610352</ele>
        <time>2021-09-12T13:27:44Z</time>
      </trkpt>
      <trkpt lat="48.36271" lon="-3.80503">
        <ele>284.60000610352</ele>
        <time>2021-09-12T13:27:45Z</time>
      </trkpt>
      <trkpt lat="48.36272" lon="-3.80496">
        <ele>284.79998779297</ele>
        <time>2021-09-12T13:27:46Z</time>
      </trkpt>
      <trkpt lat="48.36274" lon="-3.80489">
        <ele>284.79998779297</ele>
        <time>2021-09-12T13:27:47Z</time>
      </trkpt>
      <trkpt lat="48.36275" lon="-3.80482">
        <ele>284.79998779297</ele>
        <time>2021-09-12T13:27:48Z</time>
      </trkpt>
      <trkpt lat="48.36276" lon="-3.80474">
        <ele>284.79998779297</ele>
        <time>2021-09-12T13:27:49Z</time>
      </trkpt>
      <trkpt lat="48.36276" lon="-3.80466">
        <ele>284.79998779297</ele>
        <time>2021-09-12T13:27:50Z</time>
      </trkpt>
      <trkpt lat="48.36276" lon="-3.80458">
        <ele>284.60000610352</ele>
        <time>2021-09-12T13:27:51Z</time>
      </trkpt>
      <trkpt lat="48.36278" lon="-3.80449">
        <ele>284.60000610352</ele>
        <time>2021-09-12T13:27:52Z</time>
      </trkpt>
      <trkpt lat="48.36279" lon="-3.80441">
        <ele>284.20001220703</ele>
        <time>2021-09-12T13:27:53Z</time>
      </trkpt>
      <trkpt lat="48.36281" lon="-3.80433">
        <ele>284</ele>
        <time>2021-09-12T13:27:54Z</time>
      </trkpt>
      <trkpt lat="48.36283" lon="-3.80424">
        <ele>283.60000610352</ele>
        <time>2021-09-12T13:27:55Z</time>
      </trkpt>
      <trkpt lat="48.36286" lon="-3.80415">
        <ele>283</ele>
        <time>2021-09-12T13:27:56Z</time>
      </trkpt>
      <trkpt lat="48.36288" lon="-3.80405">
        <ele>282.60000610352</ele>
        <time>2021-09-12T13:27:57Z</time>
      </trkpt>
      <trkpt lat="48.3629" lon="-3.80394">
        <ele>281.79998779297</ele>
        <time>2021-09-12T13:27:58Z</time>
      </trkpt>
      <trkpt lat="48.36292" lon="-3.80383">
        <ele>281.20001220703</ele>
        <time>2021-09-12T13:27:59Z</time>
      </trkpt>
      <trkpt lat="48.36294" lon="-3.80371">
        <ele>280.20001220703</ele>
        <time>2021-09-12T13:28:00Z</time>
      </trkpt>
      <trkpt lat="48.36296" lon="-3.8036">
        <ele>280</ele>
        <time>2021-09-12T13:28:01Z</time>
      </trkpt>
      <trkpt lat="48.36297" lon="-3.80348">
        <ele>280</ele>
        <time>2021-09-12T13:28:02Z</time>
      </trkpt>
      <trkpt lat="48.36298" lon="-3.80336">
        <ele>279.20001220703</ele>
        <time>2021-09-12T13:28:03Z</time>
      </trkpt>
      <trkpt lat="48.363" lon="-3.80327">
        <ele>278.79998779297</ele>
        <time>2021-09-12T13:28:04Z</time>
      </trkpt>
      <trkpt lat="48.36302" lon="-3.80312">
        <ele>277.79998779297</ele>
        <time>2021-09-12T13:28:05Z</time>
      </trkpt>
      <trkpt lat="48.36303" lon="-3.80299">
        <ele>277.79998779297</ele>
        <time>2021-09-12T13:28:06Z</time>
      </trkpt>
      <trkpt lat="48.36304" lon="-3.80285">
        <ele>276.79998779297</ele>
        <time>2021-09-12T13:28:07Z</time>
      </trkpt>
      <trkpt lat="48.36303" lon="-3.80272">
        <ele>276</ele>
        <time>2021-09-12T13:28:08Z</time>
      </trkpt>
      <trkpt lat="48.36301" lon="-3.8026">
        <ele>276</ele>
        <time>2021-09-12T13:28:09Z</time>
      </trkpt>
      <trkpt lat="48.36296" lon="-3.80249">
        <ele>276</ele>
        <time>2021-09-12T13:28:10Z</time>
      </trkpt>
      <trkpt lat="48.3629" lon="-3.80239">
        <ele>276</ele>
        <time>2021-09-12T13:28:11Z</time>
      </trkpt>
      <trkpt lat="48.36285" lon="-3.80232">
        <ele>276</ele>
        <time>2021-09-12T13:28:12Z</time>
      </trkpt>
      <trkpt lat="48.36281" lon="-3.80224">
        <ele>276</ele>
        <time>2021-09-12T13:28:13Z</time>
      </trkpt>
      <trkpt lat="48.36278" lon="-3.80216">
        <ele>276.20001220703</ele>
        <time>2021-09-12T13:28:14Z</time>
      </trkpt>
      <trkpt lat="48.36277" lon="-3.80208">
        <ele>276.20001220703</ele>
        <time>2021-09-12T13:28:15Z</time>
      </trkpt>
      <trkpt lat="48.36278" lon="-3.80201">
        <ele>276.20001220703</ele>
        <time>2021-09-12T13:28:16Z</time>
      </trkpt>
      <trkpt lat="48.3628" lon="-3.80195">
        <ele>276.20001220703</ele>
        <time>2021-09-12T13:28:17Z</time>
      </trkpt>
      <trkpt lat="48.36282" lon="-3.80189">
        <ele>276.20001220703</ele>
        <time>2021-09-12T13:28:18Z</time>
      </trkpt>
      <trkpt lat="48.36284" lon="-3.80184">
        <ele>276.20001220703</ele>
        <time>2021-09-12T13:28:19Z</time>
      </trkpt>
      <trkpt lat="48.36287" lon="-3.80179">
        <ele>276.39999389648</ele>
        <time>2021-09-12T13:28:20Z</time>
      </trkpt>
      <trkpt lat="48.36289" lon="-3.80174">
        <ele>276.60000610352</ele>
        <time>2021-09-12T13:28:21Z</time>
      </trkpt>
      <trkpt lat="48.36291" lon="-3.80168">
        <ele>276.60000610352</ele>
        <time>2021-09-12T13:28:22Z</time>
      </trkpt>
      <trkpt lat="48.36293" lon="-3.80164">
        <ele>276.60000610352</ele>
        <time>2021-09-12T13:28:23Z</time>
      </trkpt>
      <trkpt lat="48.36296" lon="-3.80159">
        <ele>276.79998779297</ele>
        <time>2021-09-12T13:28:24Z</time>
      </trkpt>
      <trkpt lat="48.36298" lon="-3.80154">
        <ele>276.79998779297</ele>
        <time>2021-09-12T13:28:25Z</time>
      </trkpt>
      <trkpt lat="48.36301" lon="-3.80149">
        <ele>276.79998779297</ele>
        <time>2021-09-12T13:28:26Z</time>
      </trkpt>
      <trkpt lat="48.36303" lon="-3.80145">
        <ele>276.79998779297</ele>
        <time>2021-09-12T13:28:27Z</time>
      </trkpt>
      <trkpt lat="48.36305" lon="-3.8014">
        <ele>276.79998779297</ele>
        <time>2021-09-12T13:28:28Z</time>
      </trkpt>
      <trkpt lat="48.36307" lon="-3.80136">
        <ele>277</ele>
        <time>2021-09-12T13:28:29Z</time>
      </trkpt>
      <trkpt lat="48.36308" lon="-3.80131">
        <ele>277</ele>
        <time>2021-09-12T13:28:30Z</time>
      </trkpt>
      <trkpt lat="48.36308" lon="-3.80128">
        <ele>277</ele>
        <time>2021-09-12T13:28:31Z</time>
      </trkpt>
      <trkpt lat="48.36308" lon="-3.80125">
        <ele>277.20001220703</ele>
        <time>2021-09-12T13:28:32Z</time>
      </trkpt>
      <trkpt lat="48.36307" lon="-3.80122">
        <ele>277.20001220703</ele>
        <time>2021-09-12T13:28:33Z</time>
      </trkpt>
      <trkpt lat="48.36305" lon="-3.80121">
        <ele>277.20001220703</ele>
        <time>2021-09-12T13:28:34Z</time>
      </trkpt>
      <trkpt lat="48.36303" lon="-3.80119">
        <ele>277.20001220703</ele>
        <time>2021-09-12T13:28:35Z</time>
      </trkpt>
      <trkpt lat="48.36301" lon="-3.80118">
        <ele>277.20001220703</ele>
        <time>2021-09-12T13:28:36Z</time>
      </trkpt>
      <trkpt lat="48.36299" lon="-3.80116">
        <ele>276.79998779297</ele>
        <time>2021-09-12T13:28:37Z</time>
      </trkpt>
      <trkpt lat="48.36296" lon="-3.80115">
        <ele>276.79998779297</ele>
        <time>2021-09-12T13:28:38Z</time>
      </trkpt>
      <trkpt lat="48.36292" lon="-3.80113">
        <ele>276.79998779297</ele>
        <time>2021-09-12T13:28:39Z</time>
      </trkpt>
      <trkpt lat="48.36288" lon="-3.80112">
        <ele>276.79998779297</ele>
        <time>2021-09-12T13:28:40Z</time>
      </trkpt>
      <trkpt lat="48.36284" lon="-3.80111">
        <ele>276.79998779297</ele>
        <time>2021-09-12T13:28:41Z</time>
      </trkpt>
      <trkpt lat="48.3628" lon="-3.80109">
        <ele>276.79998779297</ele>
        <time>2021-09-12T13:28:42Z</time>
      </trkpt>
      <trkpt lat="48.36276" lon="-3.80106">
        <ele>276.39999389648</ele>
        <time>2021-09-12T13:28:43Z</time>
      </trkpt>
      <trkpt lat="48.36271" lon="-3.80104">
        <ele>276.39999389648</ele>
        <time>2021-09-12T13:28:44Z</time>
      </trkpt>
      <trkpt lat="48.36267" lon="-3.80102">
        <ele>276.39999389648</ele>
        <time>2021-09-12T13:28:45Z</time>
      </trkpt>
      <trkpt lat="48.36263" lon="-3.80099">
        <ele>276</ele>
        <time>2021-09-12T13:28:46Z</time>
      </trkpt>
      <trkpt lat="48.36259" lon="-3.80097">
        <ele>275.60000610352</ele>
        <time>2021-09-12T13:28:47Z</time>
      </trkpt>
      <trkpt lat="48.36254" lon="-3.80094">
        <ele>275.39999389648</ele>
        <time>2021-09-12T13:28:48Z</time>
      </trkpt>
      <trkpt lat="48.3625" lon="-3.80092">
        <ele>275</ele>
        <time>2021-09-12T13:28:49Z</time>
      </trkpt>
      <trkpt lat="48.36245" lon="-3.8009">
        <ele>274.79998779297</ele>
        <time>2021-09-12T13:28:50Z</time>
      </trkpt>
      <trkpt lat="48.36241" lon="-3.80088">
        <ele>274.60000610352</ele>
        <time>2021-09-12T13:28:51Z</time>
      </trkpt>
      <trkpt lat="48.36236" lon="-3.80085">
        <ele>274.60000610352</ele>
        <time>2021-09-12T13:28:52Z</time>
      </trkpt>
      <trkpt lat="48.36231" lon="-3.80082">
        <ele>274</ele>
        <time>2021-09-12T13:28:53Z</time>
      </trkpt>
      <trkpt lat="48.36227" lon="-3.80079">
        <ele>274</ele>
        <time>2021-09-12T13:28:54Z</time>
      </trkpt>
      <trkpt lat="48.36222" lon="-3.80076">
        <ele>273.79998779297</ele>
        <time>2021-09-12T13:28:55Z</time>
      </trkpt>
      <trkpt lat="48.36217" lon="-3.80072">
        <ele>273.79998779297</ele>
        <time>2021-09-12T13:28:56Z</time>
      </trkpt>
      <trkpt lat="48.36213" lon="-3.80068">
        <ele>273.39999389648</ele>
        <time>2021-09-12T13:28:57Z</time>
      </trkpt>
      <trkpt lat="48.3621" lon="-3.80063">
        <ele>273</ele>
        <time>2021-09-12T13:28:58Z</time>
      </trkpt>
      <trkpt lat="48.36209" lon="-3.80058">
        <ele>273</ele>
        <time>2021-09-12T13:28:59Z</time>
      </trkpt>
      <trkpt lat="48.36209" lon="-3.80052">
        <ele>272.39999389648</ele>
        <time>2021-09-12T13:29:00Z</time>
      </trkpt>
      <trkpt lat="48.3621" lon="-3.80047">
        <ele>272.39999389648</ele>
        <time>2021-09-12T13:29:01Z</time>
      </trkpt>
      <trkpt lat="48.3621" lon="-3.80041">
        <ele>272.39999389648</ele>
        <time>2021-09-12T13:29:02Z</time>
      </trkpt>
      <trkpt lat="48.36211" lon="-3.80035">
        <ele>272.20001220703</ele>
        <time>2021-09-12T13:29:03Z</time>
      </trkpt>
      <trkpt lat="48.36212" lon="-3.80028">
        <ele>272.20001220703</ele>
        <time>2021-09-12T13:29:04Z</time>
      </trkpt>
      <trkpt lat="48.36212" lon="-3.80022">
        <ele>272.20001220703</ele>
        <time>2021-09-12T13:29:05Z</time>
      </trkpt>
      <trkpt lat="48.36211" lon="-3.80016">
        <ele>272.20001220703</ele>
        <time>2021-09-12T13:29:06Z</time>
      </trkpt>
      <trkpt lat="48.3621" lon="-3.80011">
        <ele>271.79998779297</ele>
        <time>2021-09-12T13:29:07Z</time>
      </trkpt>
      <trkpt lat="48.36209" lon="-3.80005">
        <ele>271.79998779297</ele>
        <time>2021-09-12T13:29:08Z</time>
      </trkpt>
      <trkpt lat="48.36206" lon="-3.79999">
        <ele>271.60000610352</ele>
        <time>2021-09-12T13:29:09Z</time>
      </trkpt>
      <trkpt lat="48.36204" lon="-3.79993">
        <ele>271.20001220703</ele>
        <time>2021-09-12T13:29:10Z</time>
      </trkpt>
      <trkpt lat="48.36202" lon="-3.79987">
        <ele>271</ele>
        <time>2021-09-12T13:29:11Z</time>
      </trkpt>
      <trkpt lat="48.36199" lon="-3.7998">
        <ele>271</ele>
        <time>2021-09-12T13:29:12Z</time>
      </trkpt>
      <trkpt lat="48.36197" lon="-3.79973">
        <ele>270.39999389648</ele>
        <time>2021-09-12T13:29:13Z</time>
      </trkpt>
      <trkpt lat="48.36195" lon="-3.79963">
        <ele>270.39999389648</ele>
        <time>2021-09-12T13:29:14Z</time>
      </trkpt>
      <trkpt lat="48.36193" lon="-3.79953">
        <ele>270.39999389648</ele>
        <time>2021-09-12T13:29:15Z</time>
      </trkpt>
      <trkpt lat="48.3619" lon="-3.79946">
        <ele>270.39999389648</ele>
        <time>2021-09-12T13:29:16Z</time>
      </trkpt>
      <trkpt lat="48.36187" lon="-3.79939">
        <ele>270.39999389648</ele>
        <time>2021-09-12T13:29:17Z</time>
      </trkpt>
      <trkpt lat="48.36185" lon="-3.79933">
        <ele>270</ele>
        <time>2021-09-12T13:29:18Z</time>
      </trkpt>
      <trkpt lat="48.36183" lon="-3.79927">
        <ele>270</ele>
        <time>2021-09-12T13:29:19Z</time>
      </trkpt>
      <trkpt lat="48.3618" lon="-3.7992">
        <ele>270</ele>
        <time>2021-09-12T13:29:20Z</time>
      </trkpt>
      <trkpt lat="48.36178" lon="-3.79912">
        <ele>270</ele>
        <time>2021-09-12T13:29:21Z</time>
      </trkpt>
      <trkpt lat="48.36176" lon="-3.79903">
        <ele>270</ele>
        <time>2021-09-12T13:29:22Z</time>
      </trkpt>
      <trkpt lat="48.36174" lon="-3.79897">
        <ele>270</ele>
        <time>2021-09-12T13:29:23Z</time>
      </trkpt>
      <trkpt lat="48.36172" lon="-3.79891">
        <ele>270</ele>
        <time>2021-09-12T13:29:24Z</time>
      </trkpt>
      <trkpt lat="48.3617" lon="-3.79887">
        <ele>269.79998779297</ele>
        <time>2021-09-12T13:29:25Z</time>
      </trkpt>
      <trkpt lat="48.36168" lon="-3.79882">
        <ele>269.60000610352</ele>
        <time>2021-09-12T13:29:26Z</time>
      </trkpt>
      <trkpt lat="48.36166" lon="-3.79878">
        <ele>269.39999389648</ele>
        <time>2021-09-12T13:29:27Z</time>
      </trkpt>
      <trkpt lat="48.36164" lon="-3.79874">
        <ele>269.39999389648</ele>
        <time>2021-09-12T13:29:28Z</time>
      </trkpt>
      <trkpt lat="48.36162" lon="-3.79869">
        <ele>268.79998779297</ele>
        <time>2021-09-12T13:29:29Z</time>
      </trkpt>
      <trkpt lat="48.36161" lon="-3.79865">
        <ele>268.60000610352</ele>
        <time>2021-09-12T13:29:30Z</time>
      </trkpt>
      <trkpt lat="48.36158" lon="-3.7986">
        <ele>268.39999389648</ele>
        <time>2021-09-12T13:29:31Z</time>
      </trkpt>
      <trkpt lat="48.36157" lon="-3.79854">
        <ele>268.20001220703</ele>
        <time>2021-09-12T13:29:32Z</time>
      </trkpt>
      <trkpt lat="48.36155" lon="-3.79848">
        <ele>268</ele>
        <time>2021-09-12T13:29:33Z</time>
      </trkpt>
      <trkpt lat="48.36154" lon="-3.79841">
        <ele>267.79998779297</ele>
        <time>2021-09-12T13:29:34Z</time>
      </trkpt>
      <trkpt lat="48.36153" lon="-3.79836">
        <ele>267.79998779297</ele>
        <time>2021-09-12T13:29:35Z</time>
      </trkpt>
      <trkpt lat="48.36152" lon="-3.79831">
        <ele>267.60000610352</ele>
        <time>2021-09-12T13:29:36Z</time>
      </trkpt>
      <trkpt lat="48.36151" lon="-3.79825">
        <ele>267.79998779297</ele>
        <time>2021-09-12T13:29:37Z</time>
      </trkpt>
      <trkpt lat="48.3615" lon="-3.79818">
        <ele>267.79998779297</ele>
        <time>2021-09-12T13:29:38Z</time>
      </trkpt>
      <trkpt lat="48.36149" lon="-3.79813">
        <ele>267.79998779297</ele>
        <time>2021-09-12T13:29:39Z</time>
      </trkpt>
      <trkpt lat="48.36149" lon="-3.79806">
        <ele>267.79998779297</ele>
        <time>2021-09-12T13:29:40Z</time>
      </trkpt>
      <trkpt lat="48.36147" lon="-3.79799">
        <ele>267.79998779297</ele>
        <time>2021-09-12T13:29:41Z</time>
      </trkpt>
      <trkpt lat="48.36144" lon="-3.79791">
        <ele>267.60000610352</ele>
        <time>2021-09-12T13:29:42Z</time>
      </trkpt>
      <trkpt lat="48.36142" lon="-3.79785">
        <ele>267.60000610352</ele>
        <time>2021-09-12T13:29:43Z</time>
      </trkpt>
      <trkpt lat="48.36139" lon="-3.79778">
        <ele>267.60000610352</ele>
        <time>2021-09-12T13:29:44Z</time>
      </trkpt>
      <trkpt lat="48.36137" lon="-3.79772">
        <ele>267.60000610352</ele>
        <time>2021-09-12T13:29:45Z</time>
      </trkpt>
      <trkpt lat="48.36135" lon="-3.79765">
        <ele>267.60000610352</ele>
        <time>2021-09-12T13:29:46Z</time>
      </trkpt>
      <trkpt lat="48.36132" lon="-3.79759">
        <ele>267.39999389648</ele>
        <time>2021-09-12T13:29:47Z</time>
      </trkpt>
      <trkpt lat="48.3613" lon="-3.79753">
        <ele>267.39999389648</ele>
        <time>2021-09-12T13:29:48Z</time>
      </trkpt>
      <trkpt lat="48.36127" lon="-3.79745">
        <ele>267.20001220703</ele>
        <time>2021-09-12T13:29:49Z</time>
      </trkpt>
      <trkpt lat="48.36123" lon="-3.79739">
        <ele>267</ele>
        <time>2021-09-12T13:29:50Z</time>
      </trkpt>
      <trkpt lat="48.36119" lon="-3.79732">
        <ele>267</ele>
        <time>2021-09-12T13:29:51Z</time>
      </trkpt>
      <trkpt lat="48.36115" lon="-3.79725">
        <ele>267</ele>
        <time>2021-09-12T13:29:52Z</time>
      </trkpt>
      <trkpt lat="48.3611" lon="-3.79717">
        <ele>267</ele>
        <time>2021-09-12T13:29:53Z</time>
      </trkpt>
      <trkpt lat="48.36106" lon="-3.7971">
        <ele>267</ele>
        <time>2021-09-12T13:29:54Z</time>
      </trkpt>
      <trkpt lat="48.36101" lon="-3.79703">
        <ele>267</ele>
        <time>2021-09-12T13:29:55Z</time>
      </trkpt>
      <trkpt lat="48.36097" lon="-3.79696">
        <ele>267</ele>
        <time>2021-09-12T13:29:56Z</time>
      </trkpt>
      <trkpt lat="48.36093" lon="-3.7969">
        <ele>267</ele>
        <time>2021-09-12T13:29:57Z</time>
      </trkpt>
      <trkpt lat="48.3609" lon="-3.79685">
        <ele>267</ele>
        <time>2021-09-12T13:29:58Z</time>
      </trkpt>
      <trkpt lat="48.36086" lon="-3.79679">
        <ele>266.79998779297</ele>
        <time>2021-09-12T13:29:59Z</time>
      </trkpt>
      <trkpt lat="48.36082" lon="-3.79674">
        <ele>267</ele>
        <time>2021-09-12T13:30:00Z</time>
      </trkpt>
      <trkpt lat="48.36079" lon="-3.79669">
        <ele>267</ele>
        <time>2021-09-12T13:30:01Z</time>
      </trkpt>
      <trkpt lat="48.36076" lon="-3.79664">
        <ele>266.79998779297</ele>
        <time>2021-09-12T13:30:02Z</time>
      </trkpt>
      <trkpt lat="48.36073" lon="-3.79658">
        <ele>266.79998779297</ele>
        <time>2021-09-12T13:30:03Z</time>
      </trkpt>
      <trkpt lat="48.36069" lon="-3.79654">
        <ele>266.79998779297</ele>
        <time>2021-09-12T13:30:04Z</time>
      </trkpt>
      <trkpt lat="48.36066" lon="-3.79649">
        <ele>266.79998779297</ele>
        <time>2021-09-12T13:30:05Z</time>
      </trkpt>
      <trkpt lat="48.36063" lon="-3.79645">
        <ele>266.79998779297</ele>
        <time>2021-09-12T13:30:06Z</time>
      </trkpt>
      <trkpt lat="48.3606" lon="-3.79636">
        <ele>266.60000610352</ele>
        <time>2021-09-12T13:30:07Z</time>
      </trkpt>
      <trkpt lat="48.36056" lon="-3.79628">
        <ele>266.79998779297</ele>
        <time>2021-09-12T13:30:08Z</time>
      </trkpt>
      <trkpt lat="48.36053" lon="-3.79624">
        <ele>266.79998779297</ele>
        <time>2021-09-12T13:30:09Z</time>
      </trkpt>
      <trkpt lat="48.36049" lon="-3.7962">
        <ele>266.79998779297</ele>
        <time>2021-09-12T13:30:10Z</time>
      </trkpt>
      <trkpt lat="48.36046" lon="-3.79615">
        <ele>266.79998779297</ele>
        <time>2021-09-12T13:30:11Z</time>
      </trkpt>
      <trkpt lat="48.36043" lon="-3.7961">
        <ele>266.79998779297</ele>
        <time>2021-09-12T13:30:12Z</time>
      </trkpt>
      <trkpt lat="48.36039" lon="-3.79604">
        <ele>266.60000610352</ele>
        <time>2021-09-12T13:30:13Z</time>
      </trkpt>
      <trkpt lat="48.36035" lon="-3.79599">
        <ele>266.60000610352</ele>
        <time>2021-09-12T13:30:14Z</time>
      </trkpt>
      <trkpt lat="48.36031" lon="-3.79595">
        <ele>266.60000610352</ele>
        <time>2021-09-12T13:30:15Z</time>
      </trkpt>
      <trkpt lat="48.36029" lon="-3.79591">
        <ele>266.39999389648</ele>
        <time>2021-09-12T13:30:16Z</time>
      </trkpt>
      <trkpt lat="48.36025" lon="-3.79586">
        <ele>266.20001220703</ele>
        <time>2021-09-12T13:30:17Z</time>
      </trkpt>
      <trkpt lat="48.36021" lon="-3.79579">
        <ele>266.20001220703</ele>
        <time>2021-09-12T13:30:18Z</time>
      </trkpt>
      <trkpt lat="48.36018" lon="-3.79574">
        <ele>266.20001220703</ele>
        <time>2021-09-12T13:30:19Z</time>
      </trkpt>
      <trkpt lat="48.36015" lon="-3.79568">
        <ele>266</ele>
        <time>2021-09-12T13:30:20Z</time>
      </trkpt>
      <trkpt lat="48.36011" lon="-3.79564">
        <ele>266</ele>
        <time>2021-09-12T13:30:21Z</time>
      </trkpt>
      <trkpt lat="48.36008" lon="-3.79558">
        <ele>266</ele>
        <time>2021-09-12T13:30:22Z</time>
      </trkpt>
      <trkpt lat="48.36006" lon="-3.79553">
        <ele>265.79998779297</ele>
        <time>2021-09-12T13:30:23Z</time>
      </trkpt>
      <trkpt lat="48.36004" lon="-3.79548">
        <ele>265.79998779297</ele>
        <time>2021-09-12T13:30:24Z</time>
      </trkpt>
      <trkpt lat="48.36002" lon="-3.79542">
        <ele>265.79998779297</ele>
        <time>2021-09-12T13:30:25Z</time>
      </trkpt>
      <trkpt lat="48.36" lon="-3.79536">
        <ele>265.79998779297</ele>
        <time>2021-09-12T13:30:26Z</time>
      </trkpt>
      <trkpt lat="48.35998" lon="-3.7953">
        <ele>265.79998779297</ele>
        <time>2021-09-12T13:30:27Z</time>
      </trkpt>
      <trkpt lat="48.35997" lon="-3.79524">
        <ele>265.79998779297</ele>
        <time>2021-09-12T13:30:28Z</time>
      </trkpt>
      <trkpt lat="48.35996" lon="-3.79518">
        <ele>266</ele>
        <time>2021-09-12T13:30:29Z</time>
      </trkpt>
      <trkpt lat="48.35996" lon="-3.79513">
        <ele>266</ele>
        <time>2021-09-12T13:30:30Z</time>
      </trkpt>
      <trkpt lat="48.35998" lon="-3.7951">
        <ele>266</ele>
        <time>2021-09-12T13:30:31Z</time>
      </trkpt>
      <trkpt lat="48.36001" lon="-3.79509">
        <ele>266</ele>
        <time>2021-09-12T13:30:32Z</time>
      </trkpt>
      <trkpt lat="48.36004" lon="-3.79507">
        <ele>266.20001220703</ele>
        <time>2021-09-12T13:30:33Z</time>
      </trkpt>
      <trkpt lat="48.36007" lon="-3.79506">
        <ele>266</ele>
        <time>2021-09-12T13:30:34Z</time>
      </trkpt>
      <trkpt lat="48.36011" lon="-3.79504">
        <ele>266.20001220703</ele>
        <time>2021-09-12T13:30:35Z</time>
      </trkpt>
      <trkpt lat="48.36015" lon="-3.79502">
        <ele>266</ele>
        <time>2021-09-12T13:30:36Z</time>
      </trkpt>
      <trkpt lat="48.36018" lon="-3.795">
        <ele>265.79998779297</ele>
        <time>2021-09-12T13:30:37Z</time>
      </trkpt>
      <trkpt lat="48.36022" lon="-3.79498">
        <ele>265.79998779297</ele>
        <time>2021-09-12T13:30:38Z</time>
      </trkpt>
      <trkpt lat="48.36026" lon="-3.79496">
        <ele>265.79998779297</ele>
        <time>2021-09-12T13:30:39Z</time>
      </trkpt>
      <trkpt lat="48.3603" lon="-3.79494">
        <ele>265.79998779297</ele>
        <time>2021-09-12T13:30:40Z</time>
      </trkpt>
      <trkpt lat="48.36035" lon="-3.79492">
        <ele>265.79998779297</ele>
        <time>2021-09-12T13:30:41Z</time>
      </trkpt>
      <trkpt lat="48.36038" lon="-3.7949">
        <ele>265.79998779297</ele>
        <time>2021-09-12T13:30:42Z</time>
      </trkpt>
      <trkpt lat="48.36041" lon="-3.79488">
        <ele>265.79998779297</ele>
        <time>2021-09-12T13:30:43Z</time>
      </trkpt>
      <trkpt lat="48.36044" lon="-3.79485">
        <ele>265.79998779297</ele>
        <time>2021-09-12T13:30:44Z</time>
      </trkpt>
      <trkpt lat="48.36045" lon="-3.79481">
        <ele>265.79998779297</ele>
        <time>2021-09-12T13:30:45Z</time>
      </trkpt>
      <trkpt lat="48.36046" lon="-3.79476">
        <ele>265.79998779297</ele>
        <time>2021-09-12T13:30:46Z</time>
      </trkpt>
      <trkpt lat="48.36046" lon="-3.7947">
        <ele>266.20001220703</ele>
        <time>2021-09-12T13:30:47Z</time>
      </trkpt>
      <trkpt lat="48.36044" lon="-3.79465">
        <ele>266.39999389648</ele>
        <time>2021-09-12T13:30:48Z</time>
      </trkpt>
      <trkpt lat="48.36044" lon="-3.7946">
        <ele>266.39999389648</ele>
        <time>2021-09-12T13:30:49Z</time>
      </trkpt>
      <trkpt lat="48.36044" lon="-3.79454">
        <ele>266.39999389648</ele>
        <time>2021-09-12T13:30:50Z</time>
      </trkpt>
      <trkpt lat="48.36045" lon="-3.79447">
        <ele>266.39999389648</ele>
        <time>2021-09-12T13:30:51Z</time>
      </trkpt>
      <trkpt lat="48.36047" lon="-3.7944">
        <ele>266.39999389648</ele>
        <time>2021-09-12T13:30:52Z</time>
      </trkpt>
      <trkpt lat="48.36048" lon="-3.79434">
        <ele>266.39999389648</ele>
        <time>2021-09-12T13:30:53Z</time>
      </trkpt>
      <trkpt lat="48.3605" lon="-3.79428">
        <ele>266.39999389648</ele>
        <time>2021-09-12T13:30:54Z</time>
      </trkpt>
      <trkpt lat="48.36052" lon="-3.79422">
        <ele>266.39999389648</ele>
        <time>2021-09-12T13:30:55Z</time>
      </trkpt>
      <trkpt lat="48.36054" lon="-3.79416">
        <ele>266.39999389648</ele>
        <time>2021-09-12T13:30:56Z</time>
      </trkpt>
      <trkpt lat="48.36056" lon="-3.7941">
        <ele>266.39999389648</ele>
        <time>2021-09-12T13:30:57Z</time>
      </trkpt>
      <trkpt lat="48.36057" lon="-3.79402">
        <ele>266.20001220703</ele>
        <time>2021-09-12T13:30:58Z</time>
      </trkpt>
      <trkpt lat="48.36058" lon="-3.79394">
        <ele>266.20001220703</ele>
        <time>2021-09-12T13:30:59Z</time>
      </trkpt>
      <trkpt lat="48.36058" lon="-3.79388">
        <ele>266</ele>
        <time>2021-09-12T13:31:00Z</time>
      </trkpt>
      <trkpt lat="48.36058" lon="-3.79381">
        <ele>265.60000610352</ele>
        <time>2021-09-12T13:31:01Z</time>
      </trkpt>
      <trkpt lat="48.36058" lon="-3.79373">
        <ele>265.20001220703</ele>
        <time>2021-09-12T13:31:02Z</time>
      </trkpt>
      <trkpt lat="48.36057" lon="-3.79365">
        <ele>265</ele>
        <time>2021-09-12T13:31:03Z</time>
      </trkpt>
      <trkpt lat="48.36056" lon="-3.79357">
        <ele>265</ele>
        <time>2021-09-12T13:31:04Z</time>
      </trkpt>
      <trkpt lat="48.36056" lon="-3.79352">
        <ele>264.39999389648</ele>
        <time>2021-09-12T13:31:05Z</time>
      </trkpt>
      <trkpt lat="48.36057" lon="-3.79348">
        <ele>263.79998779297</ele>
        <time>2021-09-12T13:31:06Z</time>
      </trkpt>
      <trkpt lat="48.36057" lon="-3.79344">
        <ele>263.60000610352</ele>
        <time>2021-09-12T13:31:07Z</time>
      </trkpt>
      <trkpt lat="48.36056" lon="-3.79341">
        <ele>263.60000610352</ele>
        <time>2021-09-12T13:31:08Z</time>
      </trkpt>
      <trkpt lat="48.36056" lon="-3.7934">
        <ele>263.39999389648</ele>
        <time>2021-09-12T13:31:09Z</time>
      </trkpt>
      <trkpt lat="48.36056" lon="-3.7934">
        <ele>263.39999389648</ele>
        <time>2021-09-12T13:31:10Z</time>
      </trkpt>
      <trkpt lat="48.36056" lon="-3.79338">
        <ele>263.39999389648</ele>
        <time>2021-09-12T13:31:11Z</time>
      </trkpt>
      <trkpt lat="48.36056" lon="-3.79337">
        <ele>263.20001220703</ele>
        <time>2021-09-12T13:31:12Z</time>
      </trkpt>
      <trkpt lat="48.36056" lon="-3.79337">
        <ele>263.20001220703</ele>
        <time>2021-09-12T13:31:13Z</time>
      </trkpt>
      <trkpt lat="48.36056" lon="-3.79336">
        <ele>263.20001220703</ele>
        <time>2021-09-12T13:31:14Z</time>
      </trkpt>
      <trkpt lat="48.36055" lon="-3.79334">
        <ele>263.20001220703</ele>
        <time>2021-09-12T13:31:15Z</time>
      </trkpt>
      <trkpt lat="48.36054" lon="-3.79332">
        <ele>263.20001220703</ele>
        <time>2021-09-12T13:31:16Z</time>
      </trkpt>
      <trkpt lat="48.36054" lon="-3.79332">
        <ele>263.20001220703</ele>
        <time>2021-09-12T13:31:17Z</time>
      </trkpt>
      <trkpt lat="48.36054" lon="-3.79332">
        <ele>263.20001220703</ele>
        <time>2021-09-12T13:31:18Z</time>
      </trkpt>
      <trkpt lat="48.36053" lon="-3.7933">
        <ele>263</ele>
        <time>2021-09-12T13:31:19Z</time>
      </trkpt>
      <trkpt lat="48.36054" lon="-3.79329">
        <ele>263</ele>
        <time>2021-09-12T13:31:20Z</time>
      </trkpt>
      <trkpt lat="48.36055" lon="-3.79326">
        <ele>263</ele>
        <time>2021-09-12T13:31:21Z</time>
      </trkpt>
      <trkpt lat="48.36055" lon="-3.79322">
        <ele>263</ele>
        <time>2021-09-12T13:31:22Z</time>
      </trkpt>
      <trkpt lat="48.36054" lon="-3.79319">
        <ele>263</ele>
        <time>2021-09-12T13:31:23Z</time>
      </trkpt>
      <trkpt lat="48.36053" lon="-3.79314">
        <ele>263</ele>
        <time>2021-09-12T13:31:24Z</time>
      </trkpt>
      <trkpt lat="48.36052" lon="-3.79309">
        <ele>262.79998779297</ele>
        <time>2021-09-12T13:31:25Z</time>
      </trkpt>
      <trkpt lat="48.3605" lon="-3.79304">
        <ele>262.79998779297</ele>
        <time>2021-09-12T13:31:26Z</time>
      </trkpt>
      <trkpt lat="48.36049" lon="-3.79299">
        <ele>262.79998779297</ele>
        <time>2021-09-12T13:31:27Z</time>
      </trkpt>
      <trkpt lat="48.36048" lon="-3.79293">
        <ele>262.79998779297</ele>
        <time>2021-09-12T13:31:28Z</time>
      </trkpt>
      <trkpt lat="48.36046" lon="-3.79288">
        <ele>262.60000610352</ele>
        <time>2021-09-12T13:31:29Z</time>
      </trkpt>
      <trkpt lat="48.36045" lon="-3.79284">
        <ele>262.60000610352</ele>
        <time>2021-09-12T13:31:30Z</time>
      </trkpt>
      <trkpt lat="48.36043" lon="-3.7928">
        <ele>262.60000610352</ele>
        <time>2021-09-12T13:31:31Z</time>
      </trkpt>
      <trkpt lat="48.36041" lon="-3.79274">
        <ele>262.60000610352</ele>
        <time>2021-09-12T13:31:32Z</time>
      </trkpt>
      <trkpt lat="48.36039" lon="-3.7927">
        <ele>262.60000610352</ele>
        <time>2021-09-12T13:31:33Z</time>
      </trkpt>
      <trkpt lat="48.36037" lon="-3.79263">
        <ele>262.60000610352</ele>
        <time>2021-09-12T13:31:34Z</time>
      </trkpt>
      <trkpt lat="48.36035" lon="-3.79258">
        <ele>262.60000610352</ele>
        <time>2021-09-12T13:31:35Z</time>
      </trkpt>
      <trkpt lat="48.36034" lon="-3.79253">
        <ele>262.39999389648</ele>
        <time>2021-09-12T13:31:36Z</time>
      </trkpt>
      <trkpt lat="48.36032" lon="-3.79249">
        <ele>262.39999389648</ele>
        <time>2021-09-12T13:31:37Z</time>
      </trkpt>
      <trkpt lat="48.3603" lon="-3.79243">
        <ele>262.39999389648</ele>
        <time>2021-09-12T13:31:38Z</time>
      </trkpt>
      <trkpt lat="48.36027" lon="-3.79238">
        <ele>262.39999389648</ele>
        <time>2021-09-12T13:31:39Z</time>
      </trkpt>
      <trkpt lat="48.36025" lon="-3.79232">
        <ele>262.20001220703</ele>
        <time>2021-09-12T13:31:40Z</time>
      </trkpt>
      <trkpt lat="48.36024" lon="-3.79225">
        <ele>262</ele>
        <time>2021-09-12T13:31:41Z</time>
      </trkpt>
      <trkpt lat="48.36026" lon="-3.79219">
        <ele>261.79998779297</ele>
        <time>2021-09-12T13:31:42Z</time>
      </trkpt>
      <trkpt lat="48.36026" lon="-3.79214">
        <ele>261.79998779297</ele>
        <time>2021-09-12T13:31:43Z</time>
      </trkpt>
      <trkpt lat="48.36027" lon="-3.79211">
        <ele>261.79998779297</ele>
        <time>2021-09-12T13:31:44Z</time>
      </trkpt>
      <trkpt lat="48.36028" lon="-3.79207">
        <ele>261.79998779297</ele>
        <time>2021-09-12T13:31:45Z</time>
      </trkpt>
      <trkpt lat="48.3603" lon="-3.79201">
        <ele>261.79998779297</ele>
        <time>2021-09-12T13:31:46Z</time>
      </trkpt>
      <trkpt lat="48.36033" lon="-3.792">
        <ele>261.79998779297</ele>
        <time>2021-09-12T13:31:47Z</time>
      </trkpt>
      <trkpt lat="48.36036" lon="-3.79199">
        <ele>261.79998779297</ele>
        <time>2021-09-12T13:31:48Z</time>
      </trkpt>
      <trkpt lat="48.36039" lon="-3.79198">
        <ele>261.79998779297</ele>
        <time>2021-09-12T13:31:49Z</time>
      </trkpt>
      <trkpt lat="48.36042" lon="-3.79197">
        <ele>261.79998779297</ele>
        <time>2021-09-12T13:31:50Z</time>
      </trkpt>
      <trkpt lat="48.36044" lon="-3.79196">
        <ele>262</ele>
        <time>2021-09-12T13:31:51Z</time>
      </trkpt>
      <trkpt lat="48.36047" lon="-3.79195">
        <ele>262</ele>
        <time>2021-09-12T13:31:52Z</time>
      </trkpt>
      <trkpt lat="48.3605" lon="-3.79194">
        <ele>262.20001220703</ele>
        <time>2021-09-12T13:31:53Z</time>
      </trkpt>
      <trkpt lat="48.36053" lon="-3.79193">
        <ele>262.39999389648</ele>
        <time>2021-09-12T13:31:54Z</time>
      </trkpt>
      <trkpt lat="48.36057" lon="-3.79192">
        <ele>262.60000610352</ele>
        <time>2021-09-12T13:31:55Z</time>
      </trkpt>
      <trkpt lat="48.3606" lon="-3.79192">
        <ele>262.60000610352</ele>
        <time>2021-09-12T13:31:56Z</time>
      </trkpt>
      <trkpt lat="48.36064" lon="-3.79191">
        <ele>262.60000610352</ele>
        <time>2021-09-12T13:31:57Z</time>
      </trkpt>
      <trkpt lat="48.36067" lon="-3.79189">
        <ele>263</ele>
        <time>2021-09-12T13:31:58Z</time>
      </trkpt>
      <trkpt lat="48.3607" lon="-3.79188">
        <ele>263.20001220703</ele>
        <time>2021-09-12T13:31:59Z</time>
      </trkpt>
      <trkpt lat="48.36073" lon="-3.79187">
        <ele>263.20001220703</ele>
        <time>2021-09-12T13:32:00Z</time>
      </trkpt>
      <trkpt lat="48.36076" lon="-3.79185">
        <ele>263.20001220703</ele>
        <time>2021-09-12T13:32:01Z</time>
      </trkpt>
      <trkpt lat="48.36079" lon="-3.79184">
        <ele>263.39999389648</ele>
        <time>2021-09-12T13:32:02Z</time>
      </trkpt>
      <trkpt lat="48.36082" lon="-3.79182">
        <ele>263.79998779297</ele>
        <time>2021-09-12T13:32:03Z</time>
      </trkpt>
      <trkpt lat="48.36085" lon="-3.79181">
        <ele>264</ele>
        <time>2021-09-12T13:32:04Z</time>
      </trkpt>
      <trkpt lat="48.36088" lon="-3.79179">
        <ele>264</ele>
        <time>2021-09-12T13:32:05Z</time>
      </trkpt>
      <trkpt lat="48.36091" lon="-3.79178">
        <ele>264</ele>
        <time>2021-09-12T13:32:06Z</time>
      </trkpt>
      <trkpt lat="48.36095" lon="-3.79177">
        <ele>264.20001220703</ele>
        <time>2021-09-12T13:32:07Z</time>
      </trkpt>
      <trkpt lat="48.36098" lon="-3.79176">
        <ele>264.39999389648</ele>
        <time>2021-09-12T13:32:08Z</time>
      </trkpt>
      <trkpt lat="48.36101" lon="-3.79175">
        <ele>264.39999389648</ele>
        <time>2021-09-12T13:32:09Z</time>
      </trkpt>
      <trkpt lat="48.36105" lon="-3.79174">
        <ele>264.39999389648</ele>
        <time>2021-09-12T13:32:10Z</time>
      </trkpt>
      <trkpt lat="48.36108" lon="-3.79173">
        <ele>265</ele>
        <time>2021-09-12T13:32:11Z</time>
      </trkpt>
      <trkpt lat="48.36112" lon="-3.79173">
        <ele>265</ele>
        <time>2021-09-12T13:32:12Z</time>
      </trkpt>
      <trkpt lat="48.36116" lon="-3.79174">
        <ele>265.20001220703</ele>
        <time>2021-09-12T13:32:13Z</time>
      </trkpt>
      <trkpt lat="48.36119" lon="-3.79175">
        <ele>265.20001220703</ele>
        <time>2021-09-12T13:32:14Z</time>
      </trkpt>
      <trkpt lat="48.36123" lon="-3.79176">
        <ele>265.20001220703</ele>
        <time>2021-09-12T13:32:15Z</time>
      </trkpt>
      <trkpt lat="48.36126" lon="-3.79177">
        <ele>265.39999389648</ele>
        <time>2021-09-12T13:32:16Z</time>
      </trkpt>
      <trkpt lat="48.3613" lon="-3.79179">
        <ele>265.60000610352</ele>
        <time>2021-09-12T13:32:17Z</time>
      </trkpt>
      <trkpt lat="48.36133" lon="-3.79181">
        <ele>265.60000610352</ele>
        <time>2021-09-12T13:32:18Z</time>
      </trkpt>
      <trkpt lat="48.36137" lon="-3.79183">
        <ele>265.60000610352</ele>
        <time>2021-09-12T13:32:19Z</time>
      </trkpt>
      <trkpt lat="48.3614" lon="-3.79185">
        <ele>265.79998779297</ele>
        <time>2021-09-12T13:32:20Z</time>
      </trkpt>
      <trkpt lat="48.36143" lon="-3.79186">
        <ele>265.79998779297</ele>
        <time>2021-09-12T13:32:21Z</time>
      </trkpt>
      <trkpt lat="48.36146" lon="-3.79186">
        <ele>265.79998779297</ele>
        <time>2021-09-12T13:32:22Z</time>
      </trkpt>
      <trkpt lat="48.36149" lon="-3.79185">
        <ele>265.79998779297</ele>
        <time>2021-09-12T13:32:23Z</time>
      </trkpt>
      <trkpt lat="48.36152" lon="-3.79184">
        <ele>265.60000610352</ele>
        <time>2021-09-12T13:32:24Z</time>
      </trkpt>
      <trkpt lat="48.36155" lon="-3.79184">
        <ele>265.60000610352</ele>
        <time>2021-09-12T13:32:25Z</time>
      </trkpt>
      <trkpt lat="48.36159" lon="-3.79184">
        <ele>265.60000610352</ele>
        <time>2021-09-12T13:32:26Z</time>
      </trkpt>
      <trkpt lat="48.36162" lon="-3.79185">
        <ele>265.60000610352</ele>
        <time>2021-09-12T13:32:27Z</time>
      </trkpt>
      <trkpt lat="48.36165" lon="-3.79184">
        <ele>265.20001220703</ele>
        <time>2021-09-12T13:32:28Z</time>
      </trkpt>
      <trkpt lat="48.36167" lon="-3.79182">
        <ele>264.79998779297</ele>
        <time>2021-09-12T13:32:29Z</time>
      </trkpt>
      <trkpt lat="48.36169" lon="-3.79177">
        <ele>264.79998779297</ele>
        <time>2021-09-12T13:32:30Z</time>
      </trkpt>
      <trkpt lat="48.3617" lon="-3.7917">
        <ele>264.60000610352</ele>
        <time>2021-09-12T13:32:31Z</time>
      </trkpt>
      <trkpt lat="48.36171" lon="-3.79163">
        <ele>264.39999389648</ele>
        <time>2021-09-12T13:32:32Z</time>
      </trkpt>
      <trkpt lat="48.36172" lon="-3.79155">
        <ele>264.39999389648</ele>
        <time>2021-09-12T13:32:33Z</time>
      </trkpt>
      <trkpt lat="48.36173" lon="-3.79146">
        <ele>263.79998779297</ele>
        <time>2021-09-12T13:32:34Z</time>
      </trkpt>
      <trkpt lat="48.36175" lon="-3.79136">
        <ele>263.39999389648</ele>
        <time>2021-09-12T13:32:35Z</time>
      </trkpt>
      <trkpt lat="48.36175" lon="-3.79126">
        <ele>263.20001220703</ele>
        <time>2021-09-12T13:32:36Z</time>
      </trkpt>
      <trkpt lat="48.36175" lon="-3.79116">
        <ele>263</ele>
        <time>2021-09-12T13:32:37Z</time>
      </trkpt>
      <trkpt lat="48.36176" lon="-3.79106">
        <ele>263</ele>
        <time>2021-09-12T13:32:38Z</time>
      </trkpt>
      <trkpt lat="48.36176" lon="-3.79097">
        <ele>262.60000610352</ele>
        <time>2021-09-12T13:32:39Z</time>
      </trkpt>
      <trkpt lat="48.36178" lon="-3.79087">
        <ele>262.20001220703</ele>
        <time>2021-09-12T13:32:40Z</time>
      </trkpt>
      <trkpt lat="48.36179" lon="-3.79076">
        <ele>262.20001220703</ele>
        <time>2021-09-12T13:32:41Z</time>
      </trkpt>
      <trkpt lat="48.36184" lon="-3.79065">
        <ele>262.20001220703</ele>
        <time>2021-09-12T13:32:42Z</time>
      </trkpt>
      <trkpt lat="48.36186" lon="-3.79055">
        <ele>261.79998779297</ele>
        <time>2021-09-12T13:32:43Z</time>
      </trkpt>
      <trkpt lat="48.36188" lon="-3.79045">
        <ele>261.79998779297</ele>
        <time>2021-09-12T13:32:44Z</time>
      </trkpt>
      <trkpt lat="48.36189" lon="-3.79036">
        <ele>261.79998779297</ele>
        <time>2021-09-12T13:32:45Z</time>
      </trkpt>
      <trkpt lat="48.36191" lon="-3.79027">
        <ele>261.79998779297</ele>
        <time>2021-09-12T13:32:46Z</time>
      </trkpt>
      <trkpt lat="48.36192" lon="-3.79018">
        <ele>261.60000610352</ele>
        <time>2021-09-12T13:32:47Z</time>
      </trkpt>
      <trkpt lat="48.36194" lon="-3.79008">
        <ele>261.60000610352</ele>
        <time>2021-09-12T13:32:48Z</time>
      </trkpt>
      <trkpt lat="48.36195" lon="-3.78998">
        <ele>261.79998779297</ele>
        <time>2021-09-12T13:32:49Z</time>
      </trkpt>
      <trkpt lat="48.36196" lon="-3.7899">
        <ele>261.79998779297</ele>
        <time>2021-09-12T13:32:50Z</time>
      </trkpt>
      <trkpt lat="48.36197" lon="-3.78984">
        <ele>261.79998779297</ele>
        <time>2021-09-12T13:32:51Z</time>
      </trkpt>
      <trkpt lat="48.36198" lon="-3.78975">
        <ele>261.79998779297</ele>
        <time>2021-09-12T13:32:52Z</time>
      </trkpt>
      <trkpt lat="48.36199" lon="-3.78965">
        <ele>261.79998779297</ele>
        <time>2021-09-12T13:32:53Z</time>
      </trkpt>
      <trkpt lat="48.362" lon="-3.78957">
        <ele>261.79998779297</ele>
        <time>2021-09-12T13:32:54Z</time>
      </trkpt>
      <trkpt lat="48.36202" lon="-3.78949">
        <ele>261.39999389648</ele>
        <time>2021-09-12T13:32:55Z</time>
      </trkpt>
      <trkpt lat="48.36204" lon="-3.7894">
        <ele>261.39999389648</ele>
        <time>2021-09-12T13:32:56Z</time>
      </trkpt>
      <trkpt lat="48.36206" lon="-3.78933">
        <ele>261.39999389648</ele>
        <time>2021-09-12T13:32:57Z</time>
      </trkpt>
      <trkpt lat="48.36208" lon="-3.78926">
        <ele>261.20001220703</ele>
        <time>2021-09-12T13:32:58Z</time>
      </trkpt>
      <trkpt lat="48.36209" lon="-3.78918">
        <ele>261</ele>
        <time>2021-09-12T13:32:59Z</time>
      </trkpt>
      <trkpt lat="48.36211" lon="-3.7891">
        <ele>260.79998779297</ele>
        <time>2021-09-12T13:33:00Z</time>
      </trkpt>
      <trkpt lat="48.36211" lon="-3.789">
        <ele>260.79998779297</ele>
        <time>2021-09-12T13:33:01Z</time>
      </trkpt>
      <trkpt lat="48.36211" lon="-3.78889">
        <ele>260.60000610352</ele>
        <time>2021-09-12T13:33:02Z</time>
      </trkpt>
      <trkpt lat="48.36212" lon="-3.78878">
        <ele>260.39999389648</ele>
        <time>2021-09-12T13:33:03Z</time>
      </trkpt>
      <trkpt lat="48.36214" lon="-3.7887">
        <ele>260.39999389648</ele>
        <time>2021-09-12T13:33:04Z</time>
      </trkpt>
      <trkpt lat="48.36218" lon="-3.78866">
        <ele>260.20001220703</ele>
        <time>2021-09-12T13:33:05Z</time>
      </trkpt>
      <trkpt lat="48.36222" lon="-3.78866">
        <ele>260.20001220703</ele>
        <time>2021-09-12T13:33:06Z</time>
      </trkpt>
      <trkpt lat="48.36226" lon="-3.7887">
        <ele>260</ele>
        <time>2021-09-12T13:33:07Z</time>
      </trkpt>
      <trkpt lat="48.3623" lon="-3.78874">
        <ele>259.79998779297</ele>
        <time>2021-09-12T13:33:08Z</time>
      </trkpt>
      <trkpt lat="48.36235" lon="-3.78878">
        <ele>259.79998779297</ele>
        <time>2021-09-12T13:33:09Z</time>
      </trkpt>
      <trkpt lat="48.36239" lon="-3.78883">
        <ele>259.60000610352</ele>
        <time>2021-09-12T13:33:10Z</time>
      </trkpt>
      <trkpt lat="48.36244" lon="-3.78888">
        <ele>259.60000610352</ele>
        <time>2021-09-12T13:33:11Z</time>
      </trkpt>
      <trkpt lat="48.36249" lon="-3.78893">
        <ele>259.39999389648</ele>
        <time>2021-09-12T13:33:12Z</time>
      </trkpt>
      <trkpt lat="48.36255" lon="-3.78897">
        <ele>259.39999389648</ele>
        <time>2021-09-12T13:33:13Z</time>
      </trkpt>
      <trkpt lat="48.36261" lon="-3.78901">
        <ele>259.39999389648</ele>
        <time>2021-09-12T13:33:14Z</time>
      </trkpt>
      <trkpt lat="48.36266" lon="-3.78904">
        <ele>259.39999389648</ele>
        <time>2021-09-12T13:33:15Z</time>
      </trkpt>
      <trkpt lat="48.36271" lon="-3.78907">
        <ele>259.39999389648</ele>
        <time>2021-09-12T13:33:16Z</time>
      </trkpt>
      <trkpt lat="48.36278" lon="-3.78912">
        <ele>259.20001220703</ele>
        <time>2021-09-12T13:33:17Z</time>
      </trkpt>
      <trkpt lat="48.36283" lon="-3.78917">
        <ele>258.79998779297</ele>
        <time>2021-09-12T13:33:18Z</time>
      </trkpt>
      <trkpt lat="48.36289" lon="-3.78921">
        <ele>258.79998779297</ele>
        <time>2021-09-12T13:33:19Z</time>
      </trkpt>
      <trkpt lat="48.36294" lon="-3.78927">
        <ele>258.79998779297</ele>
        <time>2021-09-12T13:33:20Z</time>
      </trkpt>
      <trkpt lat="48.36298" lon="-3.78935">
        <ele>258.79998779297</ele>
        <time>2021-09-12T13:33:21Z</time>
      </trkpt>
      <trkpt lat="48.36303" lon="-3.78944">
        <ele>258.60000610352</ele>
        <time>2021-09-12T13:33:22Z</time>
      </trkpt>
      <trkpt lat="48.36306" lon="-3.78953">
        <ele>258.39999389648</ele>
        <time>2021-09-12T13:33:23Z</time>
      </trkpt>
      <trkpt lat="48.3631" lon="-3.78961">
        <ele>258.39999389648</ele>
        <time>2021-09-12T13:33:24Z</time>
      </trkpt>
      <trkpt lat="48.36313" lon="-3.78969">
        <ele>258.20001220703</ele>
        <time>2021-09-12T13:33:25Z</time>
      </trkpt>
      <trkpt lat="48.36316" lon="-3.78978">
        <ele>257.60000610352</ele>
        <time>2021-09-12T13:33:26Z</time>
      </trkpt>
      <trkpt lat="48.3632" lon="-3.78985">
        <ele>257.60000610352</ele>
        <time>2021-09-12T13:33:27Z</time>
      </trkpt>
      <trkpt lat="48.36323" lon="-3.78994">
        <ele>257.39999389648</ele>
        <time>2021-09-12T13:33:28Z</time>
      </trkpt>
      <trkpt lat="48.36325" lon="-3.79002">
        <ele>257</ele>
        <time>2021-09-12T13:33:29Z</time>
      </trkpt>
      <trkpt lat="48.36328" lon="-3.7901">
        <ele>256.79998779297</ele>
        <time>2021-09-12T13:33:30Z</time>
      </trkpt>
      <trkpt lat="48.36331" lon="-3.79019">
        <ele>256.79998779297</ele>
        <time>2021-09-12T13:33:31Z</time>
      </trkpt>
      <trkpt lat="48.36334" lon="-3.79027">
        <ele>256.79998779297</ele>
        <time>2021-09-12T13:33:32Z</time>
      </trkpt>
      <trkpt lat="48.36336" lon="-3.79032">
        <ele>256.39999389648</ele>
        <time>2021-09-12T13:33:33Z</time>
      </trkpt>
      <trkpt lat="48.36339" lon="-3.79033">
        <ele>256.39999389648</ele>
        <time>2021-09-12T13:33:34Z</time>
      </trkpt>
      <trkpt lat="48.36342" lon="-3.79035">
        <ele>256.39999389648</ele>
        <time>2021-09-12T13:33:35Z</time>
      </trkpt>
      <trkpt lat="48.36345" lon="-3.79037">
        <ele>256.20001220703</ele>
        <time>2021-09-12T13:33:36Z</time>
      </trkpt>
      <trkpt lat="48.36347" lon="-3.79038">
        <ele>256.20001220703</ele>
        <time>2021-09-12T13:33:37Z</time>
      </trkpt>
      <trkpt lat="48.3635" lon="-3.79039">
        <ele>256.20001220703</ele>
        <time>2021-09-12T13:33:38Z</time>
      </trkpt>
      <trkpt lat="48.36352" lon="-3.7904">
        <ele>256.20001220703</ele>
        <time>2021-09-12T13:33:39Z</time>
      </trkpt>
      <trkpt lat="48.36354" lon="-3.79039">
        <ele>256.20001220703</ele>
        <time>2021-09-12T13:33:40Z</time>
      </trkpt>
      <trkpt lat="48.36357" lon="-3.79039">
        <ele>256.20001220703</ele>
        <time>2021-09-12T13:33:41Z</time>
      </trkpt>
      <trkpt lat="48.36359" lon="-3.79039">
        <ele>256.20001220703</ele>
        <time>2021-09-12T13:33:42Z</time>
      </trkpt>
      <trkpt lat="48.36362" lon="-3.79039">
        <ele>256.20001220703</ele>
        <time>2021-09-12T13:33:43Z</time>
      </trkpt>
      <trkpt lat="48.36365" lon="-3.79038">
        <ele>256.20001220703</ele>
        <time>2021-09-12T13:33:44Z</time>
      </trkpt>
      <trkpt lat="48.36367" lon="-3.79036">
        <ele>256.20001220703</ele>
        <time>2021-09-12T13:33:45Z</time>
      </trkpt>
      <trkpt lat="48.36369" lon="-3.79032">
        <ele>256.20001220703</ele>
        <time>2021-09-12T13:33:46Z</time>
      </trkpt>
      <trkpt lat="48.36372" lon="-3.7903">
        <ele>256</ele>
        <time>2021-09-12T13:33:47Z</time>
      </trkpt>
      <trkpt lat="48.36375" lon="-3.79027">
        <ele>255.60000610352</ele>
        <time>2021-09-12T13:33:48Z</time>
      </trkpt>
      <trkpt lat="48.36377" lon="-3.79024">
        <ele>255</ele>
        <time>2021-09-12T13:33:49Z</time>
      </trkpt>
      <trkpt lat="48.36379" lon="-3.79021">
        <ele>255</ele>
        <time>2021-09-12T13:33:50Z</time>
      </trkpt>
      <trkpt lat="48.36379" lon="-3.79021">
        <ele>254.39999389648</ele>
        <time>2021-09-12T13:33:51Z</time>
      </trkpt>
      <trkpt lat="48.36379" lon="-3.79021">
        <ele>253.80000305176</ele>
        <time>2021-09-12T13:33:52Z</time>
      </trkpt>
      <trkpt lat="48.36379" lon="-3.79021">
        <ele>253.60000610352</ele>
        <time>2021-09-12T13:33:53Z</time>
      </trkpt>
      <trkpt lat="48.36388" lon="-3.79">
        <ele>251.19999694824</ele>
        <time>2021-09-12T13:34:03Z</time>
      </trkpt>
      <trkpt lat="48.3639" lon="-3.78997">
        <ele>250.80000305176</ele>
        <time>2021-09-12T13:34:04Z</time>
      </trkpt>
      <trkpt lat="48.36391" lon="-3.78995">
        <ele>250.19999694824</ele>
        <time>2021-09-12T13:34:05Z</time>
      </trkpt>
      <trkpt lat="48.36392" lon="-3.7899">
        <ele>249.80000305176</ele>
        <time>2021-09-12T13:34:06Z</time>
      </trkpt>
      <trkpt lat="48.36395" lon="-3.78983">
        <ele>249.19999694824</ele>
        <time>2021-09-12T13:34:07Z</time>
      </trkpt>
      <trkpt lat="48.36398" lon="-3.78978">
        <ele>248.60000610352</ele>
        <time>2021-09-12T13:34:08Z</time>
      </trkpt>
      <trkpt lat="48.36402" lon="-3.78973">
        <ele>248.19999694824</ele>
        <time>2021-09-12T13:34:09Z</time>
      </trkpt>
      <trkpt lat="48.36407" lon="-3.78969">
        <ele>247.39999389648</ele>
        <time>2021-09-12T13:34:10Z</time>
      </trkpt>
      <trkpt lat="48.36411" lon="-3.78965">
        <ele>246.60000610352</ele>
        <time>2021-09-12T13:34:11Z</time>
      </trkpt>
      <trkpt lat="48.36415" lon="-3.78961">
        <ele>246.19999694824</ele>
        <time>2021-09-12T13:34:12Z</time>
      </trkpt>
      <trkpt lat="48.36421" lon="-3.78958">
        <ele>245.19999694824</ele>
        <time>2021-09-12T13:34:13Z</time>
      </trkpt>
      <trkpt lat="48.36425" lon="-3.78954">
        <ele>245.19999694824</ele>
        <time>2021-09-12T13:34:14Z</time>
      </trkpt>
      <trkpt lat="48.36428" lon="-3.78952">
        <ele>244</ele>
        <time>2021-09-12T13:34:15Z</time>
      </trkpt>
      <trkpt lat="48.3643" lon="-3.78952">
        <ele>243</ele>
        <time>2021-09-12T13:34:16Z</time>
      </trkpt>
      <trkpt lat="48.36432" lon="-3.78952">
        <ele>242.39999389648</ele>
        <time>2021-09-12T13:34:17Z</time>
      </trkpt>
      <trkpt lat="48.36434" lon="-3.78952">
        <ele>242</ele>
        <time>2021-09-12T13:34:18Z</time>
      </trkpt>
      <trkpt lat="48.36435" lon="-3.78952">
        <ele>241.80000305176</ele>
        <time>2021-09-12T13:34:19Z</time>
      </trkpt>
      <trkpt lat="48.36436" lon="-3.7895">
        <ele>241.39999389648</ele>
        <time>2021-09-12T13:34:20Z</time>
      </trkpt>
      <trkpt lat="48.36437" lon="-3.78948">
        <ele>241.39999389648</ele>
        <time>2021-09-12T13:34:21Z</time>
      </trkpt>
      <trkpt lat="48.36439" lon="-3.78946">
        <ele>241.39999389648</ele>
        <time>2021-09-12T13:34:22Z</time>
      </trkpt>
      <trkpt lat="48.36445" lon="-3.78943">
        <ele>241.19999694824</ele>
        <time>2021-09-12T13:34:23Z</time>
      </trkpt>
      <trkpt lat="48.36448" lon="-3.78939">
        <ele>241</ele>
        <time>2021-09-12T13:34:24Z</time>
      </trkpt>
      <trkpt lat="48.36449" lon="-3.78935">
        <ele>240.60000610352</ele>
        <time>2021-09-12T13:34:25Z</time>
      </trkpt>
      <trkpt lat="48.3645" lon="-3.78931">
        <ele>240.39999389648</ele>
        <time>2021-09-12T13:34:26Z</time>
      </trkpt>
      <trkpt lat="48.36452" lon="-3.78926">
        <ele>240.19999694824</ele>
        <time>2021-09-12T13:34:27Z</time>
      </trkpt>
      <trkpt lat="48.36453" lon="-3.7892">
        <ele>240.19999694824</ele>
        <time>2021-09-12T13:34:28Z</time>
      </trkpt>
      <trkpt lat="48.36454" lon="-3.78915">
        <ele>240.19999694824</ele>
        <time>2021-09-12T13:34:29Z</time>
      </trkpt>
      <trkpt lat="48.36455" lon="-3.7891">
        <ele>240.19999694824</ele>
        <time>2021-09-12T13:34:30Z</time>
      </trkpt>
      <trkpt lat="48.36456" lon="-3.78905">
        <ele>240.19999694824</ele>
        <time>2021-09-12T13:34:31Z</time>
      </trkpt>
      <trkpt lat="48.36459" lon="-3.78901">
        <ele>240.19999694824</ele>
        <time>2021-09-12T13:34:32Z</time>
      </trkpt>
      <trkpt lat="48.36462" lon="-3.78898">
        <ele>240.19999694824</ele>
        <time>2021-09-12T13:34:33Z</time>
      </trkpt>
      <trkpt lat="48.36465" lon="-3.78895">
        <ele>240</ele>
        <time>2021-09-12T13:34:34Z</time>
      </trkpt>
      <trkpt lat="48.36467" lon="-3.78893">
        <ele>239.39999389648</ele>
        <time>2021-09-12T13:34:35Z</time>
      </trkpt>
      <trkpt lat="48.36469" lon="-3.78891">
        <ele>239.39999389648</ele>
        <time>2021-09-12T13:34:36Z</time>
      </trkpt>
      <trkpt lat="48.3647" lon="-3.78889">
        <ele>239</ele>
        <time>2021-09-12T13:34:37Z</time>
      </trkpt>
      <trkpt lat="48.36471" lon="-3.78886">
        <ele>238.60000610352</ele>
        <time>2021-09-12T13:34:38Z</time>
      </trkpt>
      <trkpt lat="48.36473" lon="-3.78883">
        <ele>238.39999389648</ele>
        <time>2021-09-12T13:34:39Z</time>
      </trkpt>
      <trkpt lat="48.36473" lon="-3.78881">
        <ele>238</ele>
        <time>2021-09-12T13:34:40Z</time>
      </trkpt>
      <trkpt lat="48.36474" lon="-3.78878">
        <ele>237.80000305176</ele>
        <time>2021-09-12T13:34:41Z</time>
      </trkpt>
      <trkpt lat="48.36475" lon="-3.78875">
        <ele>237.80000305176</ele>
        <time>2021-09-12T13:34:42Z</time>
      </trkpt>
      <trkpt lat="48.36475" lon="-3.78874">
        <ele>237.60000610352</ele>
        <time>2021-09-12T13:34:43Z</time>
      </trkpt>
      <trkpt lat="48.36475" lon="-3.78874">
        <ele>237.60000610352</ele>
        <time>2021-09-12T13:34:44Z</time>
      </trkpt>
      <trkpt lat="48.36476" lon="-3.78872">
        <ele>237.39999389648</ele>
        <time>2021-09-12T13:34:45Z</time>
      </trkpt>
      <trkpt lat="48.36477" lon="-3.78871">
        <ele>237.39999389648</ele>
        <time>2021-09-12T13:34:46Z</time>
      </trkpt>
      <trkpt lat="48.36478" lon="-3.78871">
        <ele>237.39999389648</ele>
        <time>2021-09-12T13:34:47Z</time>
      </trkpt>
      <trkpt lat="48.3648" lon="-3.7887">
        <ele>237</ele>
        <time>2021-09-12T13:34:48Z</time>
      </trkpt>
      <trkpt lat="48.36481" lon="-3.78868">
        <ele>236.80000305176</ele>
        <time>2021-09-12T13:34:49Z</time>
      </trkpt>
      <trkpt lat="48.36482" lon="-3.78865">
        <ele>236.60000610352</ele>
        <time>2021-09-12T13:34:50Z</time>
      </trkpt>
      <trkpt lat="48.36484" lon="-3.78861">
        <ele>235.60000610352</ele>
        <time>2021-09-12T13:34:51Z</time>
      </trkpt>
      <trkpt lat="48.36487" lon="-3.78857">
        <ele>235.39999389648</ele>
        <time>2021-09-12T13:34:52Z</time>
      </trkpt>
      <trkpt lat="48.36492" lon="-3.78854">
        <ele>235.19999694824</ele>
        <time>2021-09-12T13:34:53Z</time>
      </trkpt>
      <trkpt lat="48.36494" lon="-3.7885">
        <ele>235</ele>
        <time>2021-09-12T13:34:54Z</time>
      </trkpt>
      <trkpt lat="48.36497" lon="-3.78847">
        <ele>234.80000305176</ele>
        <time>2021-09-12T13:34:55Z</time>
      </trkpt>
      <trkpt lat="48.365" lon="-3.78843">
        <ele>234.60000610352</ele>
        <time>2021-09-12T13:34:56Z</time>
      </trkpt>
      <trkpt lat="48.36503" lon="-3.7884">
        <ele>234.60000610352</ele>
        <time>2021-09-12T13:34:57Z</time>
      </trkpt>
      <trkpt lat="48.36506" lon="-3.78837">
        <ele>234.60000610352</ele>
        <time>2021-09-12T13:34:58Z</time>
      </trkpt>
      <trkpt lat="48.36512" lon="-3.78834">
        <ele>234.39999389648</ele>
        <time>2021-09-12T13:34:59Z</time>
      </trkpt>
      <trkpt lat="48.36515" lon="-3.78831">
        <ele>234.19999694824</ele>
        <time>2021-09-12T13:35:00Z</time>
      </trkpt>
      <trkpt lat="48.36516" lon="-3.78829">
        <ele>233.19999694824</ele>
        <time>2021-09-12T13:35:01Z</time>
      </trkpt>
      <trkpt lat="48.36518" lon="-3.78826">
        <ele>233.19999694824</ele>
        <time>2021-09-12T13:35:02Z</time>
      </trkpt>
      <trkpt lat="48.36522" lon="-3.78821">
        <ele>233</ele>
        <time>2021-09-12T13:35:03Z</time>
      </trkpt>
      <trkpt lat="48.36525" lon="-3.78817">
        <ele>232.80000305176</ele>
        <time>2021-09-12T13:35:04Z</time>
      </trkpt>
      <trkpt lat="48.36531" lon="-3.78813">
        <ele>232.80000305176</ele>
        <time>2021-09-12T13:35:05Z</time>
      </trkpt>
      <trkpt lat="48.36533" lon="-3.78811">
        <ele>232.60000610352</ele>
        <time>2021-09-12T13:35:06Z</time>
      </trkpt>
      <trkpt lat="48.36535" lon="-3.78806">
        <ele>232.19999694824</ele>
        <time>2021-09-12T13:35:07Z</time>
      </trkpt>
      <trkpt lat="48.36539" lon="-3.78803">
        <ele>232</ele>
        <time>2021-09-12T13:35:08Z</time>
      </trkpt>
      <trkpt lat="48.36542" lon="-3.78797">
        <ele>231.39999389648</ele>
        <time>2021-09-12T13:35:09Z</time>
      </trkpt>
      <trkpt lat="48.36543" lon="-3.78796">
        <ele>231.19999694824</ele>
        <time>2021-09-12T13:35:10Z</time>
      </trkpt>
      <trkpt lat="48.36544" lon="-3.78795">
        <ele>231</ele>
        <time>2021-09-12T13:35:11Z</time>
      </trkpt>
      <trkpt lat="48.36547" lon="-3.78794">
        <ele>231</ele>
        <time>2021-09-12T13:35:12Z</time>
      </trkpt>
      <trkpt lat="48.36548" lon="-3.78793">
        <ele>231</ele>
        <time>2021-09-12T13:35:13Z</time>
      </trkpt>
      <trkpt lat="48.3655" lon="-3.78792">
        <ele>231</ele>
        <time>2021-09-12T13:35:14Z</time>
      </trkpt>
      <trkpt lat="48.3655" lon="-3.78792">
        <ele>231</ele>
        <time>2021-09-12T13:35:15Z</time>
      </trkpt>
      <trkpt lat="48.3655" lon="-3.78792">
        <ele>231</ele>
        <time>2021-09-12T13:35:16Z</time>
      </trkpt>
      <trkpt lat="48.36552" lon="-3.78795">
        <ele>231</ele>
        <time>2021-09-12T13:35:17Z</time>
      </trkpt>
      <trkpt lat="48.36555" lon="-3.78798">
        <ele>230.80000305176</ele>
        <time>2021-09-12T13:35:18Z</time>
      </trkpt>
      <trkpt lat="48.36558" lon="-3.78801">
        <ele>230.39999389648</ele>
        <time>2021-09-12T13:35:19Z</time>
      </trkpt>
      <trkpt lat="48.36561" lon="-3.78803">
        <ele>230</ele>
        <time>2021-09-12T13:35:20Z</time>
      </trkpt>
      <trkpt lat="48.36563" lon="-3.78803">
        <ele>229.80000305176</ele>
        <time>2021-09-12T13:35:21Z</time>
      </trkpt>
      <trkpt lat="48.36565" lon="-3.78803">
        <ele>229.60000610352</ele>
        <time>2021-09-12T13:35:22Z</time>
      </trkpt>
      <trkpt lat="48.36566" lon="-3.78805">
        <ele>229.19999694824</ele>
        <time>2021-09-12T13:35:23Z</time>
      </trkpt>
      <trkpt lat="48.36567" lon="-3.78808">
        <ele>229</ele>
        <time>2021-09-12T13:35:24Z</time>
      </trkpt>
      <trkpt lat="48.36568" lon="-3.78812">
        <ele>229</ele>
        <time>2021-09-12T13:35:25Z</time>
      </trkpt>
      <trkpt lat="48.3657" lon="-3.78814">
        <ele>229</ele>
        <time>2021-09-12T13:35:26Z</time>
      </trkpt>
      <trkpt lat="48.36573" lon="-3.78813">
        <ele>228.60000610352</ele>
        <time>2021-09-12T13:35:27Z</time>
      </trkpt>
      <trkpt lat="48.36575" lon="-3.78814">
        <ele>228.19999694824</ele>
        <time>2021-09-12T13:35:28Z</time>
      </trkpt>
      <trkpt lat="48.36576" lon="-3.78816">
        <ele>227.80000305176</ele>
        <time>2021-09-12T13:35:29Z</time>
      </trkpt>
      <trkpt lat="48.36576" lon="-3.78818">
        <ele>227.80000305176</ele>
        <time>2021-09-12T13:35:30Z</time>
      </trkpt>
      <trkpt lat="48.36576" lon="-3.7882">
        <ele>227.80000305176</ele>
        <time>2021-09-12T13:35:31Z</time>
      </trkpt>
      <trkpt lat="48.36576" lon="-3.7882">
        <ele>227.80000305176</ele>
        <time>2021-09-12T13:35:32Z</time>
      </trkpt>
      <trkpt lat="48.36576" lon="-3.78821">
        <ele>227.80000305176</ele>
        <time>2021-09-12T13:35:33Z</time>
      </trkpt>
      <trkpt lat="48.36576" lon="-3.78822">
        <ele>227.80000305176</ele>
        <time>2021-09-12T13:35:34Z</time>
      </trkpt>
      <trkpt lat="48.36577" lon="-3.78824">
        <ele>227.80000305176</ele>
        <time>2021-09-12T13:35:35Z</time>
      </trkpt>
      <trkpt lat="48.36578" lon="-3.78826">
        <ele>227.39999389648</ele>
        <time>2021-09-12T13:35:36Z</time>
      </trkpt>
      <trkpt lat="48.3658" lon="-3.78828">
        <ele>227</ele>
        <time>2021-09-12T13:35:37Z</time>
      </trkpt>
      <trkpt lat="48.3658" lon="-3.78831">
        <ele>226.19999694824</ele>
        <time>2021-09-12T13:35:38Z</time>
      </trkpt>
      <trkpt lat="48.36579" lon="-3.78833">
        <ele>226</ele>
        <time>2021-09-12T13:35:39Z</time>
      </trkpt>
      <trkpt lat="48.36578" lon="-3.78834">
        <ele>225.60000610352</ele>
        <time>2021-09-12T13:35:40Z</time>
      </trkpt>
      <trkpt lat="48.36577" lon="-3.78837">
        <ele>225.60000610352</ele>
        <time>2021-09-12T13:35:41Z</time>
      </trkpt>
      <trkpt lat="48.36577" lon="-3.78839">
        <ele>225.60000610352</ele>
        <time>2021-09-12T13:35:42Z</time>
      </trkpt>
      <trkpt lat="48.36577" lon="-3.78843">
        <ele>225.60000610352</ele>
        <time>2021-09-12T13:35:43Z</time>
      </trkpt>
      <trkpt lat="48.36579" lon="-3.78848">
        <ele>225.39999389648</ele>
        <time>2021-09-12T13:35:44Z</time>
      </trkpt>
      <trkpt lat="48.3658" lon="-3.78852">
        <ele>225</ele>
        <time>2021-09-12T13:35:45Z</time>
      </trkpt>
      <trkpt lat="48.36582" lon="-3.78856">
        <ele>224.80000305176</ele>
        <time>2021-09-12T13:35:46Z</time>
      </trkpt>
      <trkpt lat="48.36583" lon="-3.7886">
        <ele>224.39999389648</ele>
        <time>2021-09-12T13:35:47Z</time>
      </trkpt>
      <trkpt lat="48.36585" lon="-3.78865">
        <ele>223.80000305176</ele>
        <time>2021-09-12T13:35:48Z</time>
      </trkpt>
      <trkpt lat="48.36587" lon="-3.78869">
        <ele>223.60000610352</ele>
        <time>2021-09-12T13:35:49Z</time>
      </trkpt>
      <trkpt lat="48.36589" lon="-3.78872">
        <ele>223.19999694824</ele>
        <time>2021-09-12T13:35:50Z</time>
      </trkpt>
      <trkpt lat="48.36591" lon="-3.78874">
        <ele>222.39999389648</ele>
        <time>2021-09-12T13:35:51Z</time>
      </trkpt>
      <trkpt lat="48.36594" lon="-3.78877">
        <ele>222.19999694824</ele>
        <time>2021-09-12T13:35:52Z</time>
      </trkpt>
      <trkpt lat="48.36596" lon="-3.78879">
        <ele>221.80000305176</ele>
        <time>2021-09-12T13:35:53Z</time>
      </trkpt>
      <trkpt lat="48.36596" lon="-3.7888">
        <ele>221.39999389648</ele>
        <time>2021-09-12T13:35:54Z</time>
      </trkpt>
      <trkpt lat="48.36596" lon="-3.7888">
        <ele>221.19999694824</ele>
        <time>2021-09-12T13:35:55Z</time>
      </trkpt>
      <trkpt lat="48.36597" lon="-3.78899">
        <ele>220.19999694824</ele>
        <time>2021-09-12T13:36:07Z</time>
      </trkpt>
      <trkpt lat="48.36596" lon="-3.78905">
        <ele>219.80000305176</ele>
        <time>2021-09-12T13:36:08Z</time>
      </trkpt>
      <trkpt lat="48.36597" lon="-3.78912">
        <ele>219.80000305176</ele>
        <time>2021-09-12T13:36:09Z</time>
      </trkpt>
      <trkpt lat="48.36597" lon="-3.78915">
        <ele>219</ele>
        <time>2021-09-12T13:36:10Z</time>
      </trkpt>
      <trkpt lat="48.36598" lon="-3.78919">
        <ele>218.80000305176</ele>
        <time>2021-09-12T13:36:11Z</time>
      </trkpt>
      <trkpt lat="48.366" lon="-3.78923">
        <ele>218.80000305176</ele>
        <time>2021-09-12T13:36:12Z</time>
      </trkpt>
      <trkpt lat="48.36602" lon="-3.78927">
        <ele>218.19999694824</ele>
        <time>2021-09-12T13:36:13Z</time>
      </trkpt>
      <trkpt lat="48.36605" lon="-3.78932">
        <ele>217.80000305176</ele>
        <time>2021-09-12T13:36:14Z</time>
      </trkpt>
      <trkpt lat="48.36606" lon="-3.78937">
        <ele>217.39999389648</ele>
        <time>2021-09-12T13:36:15Z</time>
      </trkpt>
      <trkpt lat="48.36608" lon="-3.78942">
        <ele>217.19999694824</ele>
        <time>2021-09-12T13:36:16Z</time>
      </trkpt>
      <trkpt lat="48.3661" lon="-3.78948">
        <ele>217</ele>
        <time>2021-09-12T13:36:17Z</time>
      </trkpt>
      <trkpt lat="48.36612" lon="-3.78955">
        <ele>216.80000305176</ele>
        <time>2021-09-12T13:36:18Z</time>
      </trkpt>
      <trkpt lat="48.36615" lon="-3.78962">
        <ele>216</ele>
        <time>2021-09-12T13:36:19Z</time>
      </trkpt>
      <trkpt lat="48.36619" lon="-3.7897">
        <ele>215.60000610352</ele>
        <time>2021-09-12T13:36:20Z</time>
      </trkpt>
      <trkpt lat="48.36624" lon="-3.78978">
        <ele>215.60000610352</ele>
        <time>2021-09-12T13:36:21Z</time>
      </trkpt>
      <trkpt lat="48.36629" lon="-3.78987">
        <ele>215.19999694824</ele>
        <time>2021-09-12T13:36:22Z</time>
      </trkpt>
      <trkpt lat="48.36633" lon="-3.78995">
        <ele>214.19999694824</ele>
        <time>2021-09-12T13:36:23Z</time>
      </trkpt>
      <trkpt lat="48.36638" lon="-3.79003">
        <ele>213.80000305176</ele>
        <time>2021-09-12T13:36:24Z</time>
      </trkpt>
      <trkpt lat="48.36643" lon="-3.7901">
        <ele>213.39999389648</ele>
        <time>2021-09-12T13:36:25Z</time>
      </trkpt>
      <trkpt lat="48.3665" lon="-3.79015">
        <ele>211.80000305176</ele>
        <time>2021-09-12T13:36:26Z</time>
      </trkpt>
      <trkpt lat="48.36655" lon="-3.79018">
        <ele>211.80000305176</ele>
        <time>2021-09-12T13:36:27Z</time>
      </trkpt>
      <trkpt lat="48.36662" lon="-3.79022">
        <ele>211.39999389648</ele>
        <time>2021-09-12T13:36:28Z</time>
      </trkpt>
      <trkpt lat="48.36669" lon="-3.79026">
        <ele>210.19999694824</ele>
        <time>2021-09-12T13:36:29Z</time>
      </trkpt>
      <trkpt lat="48.36676" lon="-3.79029">
        <ele>209.39999389648</ele>
        <time>2021-09-12T13:36:30Z</time>
      </trkpt>
      <trkpt lat="48.36683" lon="-3.79031">
        <ele>208.80000305176</ele>
        <time>2021-09-12T13:36:31Z</time>
      </trkpt>
      <trkpt lat="48.36689" lon="-3.79029">
        <ele>207.39999389648</ele>
        <time>2021-09-12T13:36:32Z</time>
      </trkpt>
      <trkpt lat="48.36696" lon="-3.79023">
        <ele>206.39999389648</ele>
        <time>2021-09-12T13:36:33Z</time>
      </trkpt>
      <trkpt lat="48.36699" lon="-3.79017">
        <ele>205.80000305176</ele>
        <time>2021-09-12T13:36:34Z</time>
      </trkpt>
      <trkpt lat="48.36704" lon="-3.79006">
        <ele>204.19999694824</ele>
        <time>2021-09-12T13:36:35Z</time>
      </trkpt>
      <trkpt lat="48.36706" lon="-3.78998">
        <ele>203.39999389648</ele>
        <time>2021-09-12T13:36:36Z</time>
      </trkpt>
      <trkpt lat="48.36709" lon="-3.78988">
        <ele>203.39999389648</ele>
        <time>2021-09-12T13:36:37Z</time>
      </trkpt>
      <trkpt lat="48.36713" lon="-3.7898">
        <ele>202.19999694824</ele>
        <time>2021-09-12T13:36:38Z</time>
      </trkpt>
      <trkpt lat="48.36717" lon="-3.78977">
        <ele>201</ele>
        <time>2021-09-12T13:36:39Z</time>
      </trkpt>
      <trkpt lat="48.36721" lon="-3.78979">
        <ele>200</ele>
        <time>2021-09-12T13:36:40Z</time>
      </trkpt>
      <trkpt lat="48.36725" lon="-3.78984">
        <ele>199.60000610352</ele>
        <time>2021-09-12T13:36:41Z</time>
      </trkpt>
      <trkpt lat="48.36726" lon="-3.78989">
        <ele>199.19999694824</ele>
        <time>2021-09-12T13:36:42Z</time>
      </trkpt>
      <trkpt lat="48.36727" lon="-3.78996">
        <ele>198.60000610352</ele>
        <time>2021-09-12T13:36:43Z</time>
      </trkpt>
      <trkpt lat="48.36728" lon="-3.79003">
        <ele>198.60000610352</ele>
        <time>2021-09-12T13:36:44Z</time>
      </trkpt>
      <trkpt lat="48.36729" lon="-3.7901">
        <ele>198.60000610352</ele>
        <time>2021-09-12T13:36:45Z</time>
      </trkpt>
      <trkpt lat="48.3673" lon="-3.79017">
        <ele>198.39999389648</ele>
        <time>2021-09-12T13:36:46Z</time>
      </trkpt>
      <trkpt lat="48.36732" lon="-3.79023">
        <ele>198.39999389648</ele>
        <time>2021-09-12T13:36:47Z</time>
      </trkpt>
      <trkpt lat="48.36735" lon="-3.79029">
        <ele>198.39999389648</ele>
        <time>2021-09-12T13:36:48Z</time>
      </trkpt>
      <trkpt lat="48.36737" lon="-3.79036">
        <ele>198.39999389648</ele>
        <time>2021-09-12T13:36:49Z</time>
      </trkpt>
      <trkpt lat="48.3674" lon="-3.79042">
        <ele>198.39999389648</ele>
        <time>2021-09-12T13:36:50Z</time>
      </trkpt>
      <trkpt lat="48.36743" lon="-3.79047">
        <ele>198.39999389648</ele>
        <time>2021-09-12T13:36:51Z</time>
      </trkpt>
      <trkpt lat="48.36747" lon="-3.79052">
        <ele>198.39999389648</ele>
        <time>2021-09-12T13:36:52Z</time>
      </trkpt>
      <trkpt lat="48.36751" lon="-3.79056">
        <ele>198.60000610352</ele>
        <time>2021-09-12T13:36:53Z</time>
      </trkpt>
      <trkpt lat="48.36755" lon="-3.7906">
        <ele>198.60000610352</ele>
        <time>2021-09-12T13:36:54Z</time>
      </trkpt>
      <trkpt lat="48.36759" lon="-3.79064">
        <ele>198.60000610352</ele>
        <time>2021-09-12T13:36:55Z</time>
      </trkpt>
      <trkpt lat="48.36762" lon="-3.79067">
        <ele>198.60000610352</ele>
        <time>2021-09-12T13:36:56Z</time>
      </trkpt>
      <trkpt lat="48.36767" lon="-3.7907">
        <ele>198.39999389648</ele>
        <time>2021-09-12T13:36:57Z</time>
      </trkpt>
      <trkpt lat="48.36772" lon="-3.7907">
        <ele>198.39999389648</ele>
        <time>2021-09-12T13:36:58Z</time>
      </trkpt>
      <trkpt lat="48.36777" lon="-3.79069">
        <ele>198.19999694824</ele>
        <time>2021-09-12T13:36:59Z</time>
      </trkpt>
      <trkpt lat="48.36782" lon="-3.79065">
        <ele>197.80000305176</ele>
        <time>2021-09-12T13:37:00Z</time>
      </trkpt>
      <trkpt lat="48.36786" lon="-3.79059">
        <ele>197.60000610352</ele>
        <time>2021-09-12T13:37:01Z</time>
      </trkpt>
      <trkpt lat="48.36791" lon="-3.79051">
        <ele>197</ele>
        <time>2021-09-12T13:37:02Z</time>
      </trkpt>
      <trkpt lat="48.36794" lon="-3.79041">
        <ele>196.80000305176</ele>
        <time>2021-09-12T13:37:03Z</time>
      </trkpt>
      <trkpt lat="48.36797" lon="-3.79029">
        <ele>196.19999694824</ele>
        <time>2021-09-12T13:37:04Z</time>
      </trkpt>
      <trkpt lat="48.36797" lon="-3.7902">
        <ele>196</ele>
        <time>2021-09-12T13:37:05Z</time>
      </trkpt>
      <trkpt lat="48.36798" lon="-3.7901">
        <ele>195.80000305176</ele>
        <time>2021-09-12T13:37:06Z</time>
      </trkpt>
      <trkpt lat="48.36799" lon="-3.79001">
        <ele>195.80000305176</ele>
        <time>2021-09-12T13:37:07Z</time>
      </trkpt>
      <trkpt lat="48.36799" lon="-3.78993">
        <ele>195.80000305176</ele>
        <time>2021-09-12T13:37:08Z</time>
      </trkpt>
      <trkpt lat="48.368" lon="-3.78985">
        <ele>195.80000305176</ele>
        <time>2021-09-12T13:37:09Z</time>
      </trkpt>
      <trkpt lat="48.368" lon="-3.78978">
        <ele>196</ele>
        <time>2021-09-12T13:37:10Z</time>
      </trkpt>
      <trkpt lat="48.368" lon="-3.78972">
        <ele>196.19999694824</ele>
        <time>2021-09-12T13:37:11Z</time>
      </trkpt>
      <trkpt lat="48.368" lon="-3.78966">
        <ele>196.60000610352</ele>
        <time>2021-09-12T13:37:12Z</time>
      </trkpt>
      <trkpt lat="48.36802" lon="-3.78961">
        <ele>196.80000305176</ele>
        <time>2021-09-12T13:37:13Z</time>
      </trkpt>
      <trkpt lat="48.36802" lon="-3.78956">
        <ele>197</ele>
        <time>2021-09-12T13:37:14Z</time>
      </trkpt>
      <trkpt lat="48.36803" lon="-3.78952">
        <ele>197.19999694824</ele>
        <time>2021-09-12T13:37:15Z</time>
      </trkpt>
      <trkpt lat="48.36805" lon="-3.78948">
        <ele>197.19999694824</ele>
        <time>2021-09-12T13:37:16Z</time>
      </trkpt>
      <trkpt lat="48.36807" lon="-3.78944">
        <ele>197.60000610352</ele>
        <time>2021-09-12T13:37:17Z</time>
      </trkpt>
      <trkpt lat="48.3681" lon="-3.7894">
        <ele>197.80000305176</ele>
        <time>2021-09-12T13:37:18Z</time>
      </trkpt>
      <trkpt lat="48.36814" lon="-3.78937">
        <ele>198</ele>
        <time>2021-09-12T13:37:19Z</time>
      </trkpt>
      <trkpt lat="48.36817" lon="-3.78934">
        <ele>198</ele>
        <time>2021-09-12T13:37:20Z</time>
      </trkpt>
      <trkpt lat="48.3682" lon="-3.78931">
        <ele>198.60000610352</ele>
        <time>2021-09-12T13:37:21Z</time>
      </trkpt>
      <trkpt lat="48.36823" lon="-3.78929">
        <ele>198.80000305176</ele>
        <time>2021-09-12T13:37:22Z</time>
      </trkpt>
      <trkpt lat="48.36826" lon="-3.78928">
        <ele>198.80000305176</ele>
        <time>2021-09-12T13:37:23Z</time>
      </trkpt>
      <trkpt lat="48.36829" lon="-3.78926">
        <ele>199</ele>
        <time>2021-09-12T13:37:24Z</time>
      </trkpt>
      <trkpt lat="48.36832" lon="-3.78925">
        <ele>199.19999694824</ele>
        <time>2021-09-12T13:37:25Z</time>
      </trkpt>
      <trkpt lat="48.36835" lon="-3.78923">
        <ele>199.60000610352</ele>
        <time>2021-09-12T13:37:26Z</time>
      </trkpt>
      <trkpt lat="48.36839" lon="-3.78921">
        <ele>199.80000305176</ele>
        <time>2021-09-12T13:37:27Z</time>
      </trkpt>
      <trkpt lat="48.36842" lon="-3.78919">
        <ele>200.19999694824</ele>
        <time>2021-09-12T13:37:28Z</time>
      </trkpt>
      <trkpt lat="48.36846" lon="-3.78917">
        <ele>200.39999389648</ele>
        <time>2021-09-12T13:37:29Z</time>
      </trkpt>
      <trkpt lat="48.36849" lon="-3.78915">
        <ele>200.39999389648</ele>
        <time>2021-09-12T13:37:30Z</time>
      </trkpt>
      <trkpt lat="48.36852" lon="-3.78914">
        <ele>200.80000305176</ele>
        <time>2021-09-12T13:37:31Z</time>
      </trkpt>
      <trkpt lat="48.36855" lon="-3.78913">
        <ele>200.80000305176</ele>
        <time>2021-09-12T13:37:32Z</time>
      </trkpt>
      <trkpt lat="48.36857" lon="-3.78913">
        <ele>201.39999389648</ele>
        <time>2021-09-12T13:37:33Z</time>
      </trkpt>
      <trkpt lat="48.3686" lon="-3.78912">
        <ele>201.80000305176</ele>
        <time>2021-09-12T13:37:34Z</time>
      </trkpt>
      <trkpt lat="48.36863" lon="-3.78911">
        <ele>201.80000305176</ele>
        <time>2021-09-12T13:37:35Z</time>
      </trkpt>
      <trkpt lat="48.36865" lon="-3.78911">
        <ele>201.80000305176</ele>
        <time>2021-09-12T13:37:36Z</time>
      </trkpt>
      <trkpt lat="48.36868" lon="-3.7891">
        <ele>202.19999694824</ele>
        <time>2021-09-12T13:37:37Z</time>
      </trkpt>
      <trkpt lat="48.36871" lon="-3.78908">
        <ele>202.60000610352</ele>
        <time>2021-09-12T13:37:38Z</time>
      </trkpt>
      <trkpt lat="48.36874" lon="-3.78907">
        <ele>202.80000305176</ele>
        <time>2021-09-12T13:37:39Z</time>
      </trkpt>
      <trkpt lat="48.36877" lon="-3.78905">
        <ele>203</ele>
        <time>2021-09-12T13:37:40Z</time>
      </trkpt>
      <trkpt lat="48.36879" lon="-3.78904">
        <ele>203.19999694824</ele>
        <time>2021-09-12T13:37:41Z</time>
      </trkpt>
      <trkpt lat="48.36882" lon="-3.78903">
        <ele>203.60000610352</ele>
        <time>2021-09-12T13:37:42Z</time>
      </trkpt>
      <trkpt lat="48.36885" lon="-3.78902">
        <ele>204</ele>
        <time>2021-09-12T13:37:43Z</time>
      </trkpt>
      <trkpt lat="48.36887" lon="-3.78901">
        <ele>204.39999389648</ele>
        <time>2021-09-12T13:37:44Z</time>
      </trkpt>
      <trkpt lat="48.3689" lon="-3.78899">
        <ele>204.39999389648</ele>
        <time>2021-09-12T13:37:45Z</time>
      </trkpt>
      <trkpt lat="48.36892" lon="-3.78898">
        <ele>204.80000305176</ele>
        <time>2021-09-12T13:37:46Z</time>
      </trkpt>
      <trkpt lat="48.36895" lon="-3.78897">
        <ele>205</ele>
        <time>2021-09-12T13:37:47Z</time>
      </trkpt>
      <trkpt lat="48.36898" lon="-3.78895">
        <ele>205.60000610352</ele>
        <time>2021-09-12T13:37:48Z</time>
      </trkpt>
      <trkpt lat="48.369" lon="-3.78894">
        <ele>205.60000610352</ele>
        <time>2021-09-12T13:37:49Z</time>
      </trkpt>
      <trkpt lat="48.36903" lon="-3.78893">
        <ele>205.80000305176</ele>
        <time>2021-09-12T13:37:50Z</time>
      </trkpt>
      <trkpt lat="48.36905" lon="-3.78892">
        <ele>206</ele>
        <time>2021-09-12T13:37:51Z</time>
      </trkpt>
      <trkpt lat="48.36908" lon="-3.78891">
        <ele>206.39999389648</ele>
        <time>2021-09-12T13:37:52Z</time>
      </trkpt>
      <trkpt lat="48.3691" lon="-3.7889">
        <ele>206.80000305176</ele>
        <time>2021-09-12T13:37:53Z</time>
      </trkpt>
      <trkpt lat="48.36913" lon="-3.78888">
        <ele>207</ele>
        <time>2021-09-12T13:37:54Z</time>
      </trkpt>
      <trkpt lat="48.36915" lon="-3.78887">
        <ele>207.39999389648</ele>
        <time>2021-09-12T13:37:55Z</time>
      </trkpt>
      <trkpt lat="48.36917" lon="-3.78887">
        <ele>207.80000305176</ele>
        <time>2021-09-12T13:37:56Z</time>
      </trkpt>
      <trkpt lat="48.3692" lon="-3.78886">
        <ele>208</ele>
        <time>2021-09-12T13:37:57Z</time>
      </trkpt>
      <trkpt lat="48.36922" lon="-3.78885">
        <ele>208.60000610352</ele>
        <time>2021-09-12T13:37:58Z</time>
      </trkpt>
      <trkpt lat="48.36925" lon="-3.78884">
        <ele>208.60000610352</ele>
        <time>2021-09-12T13:37:59Z</time>
      </trkpt>
      <trkpt lat="48.36927" lon="-3.78883">
        <ele>208.80000305176</ele>
        <time>2021-09-12T13:38:00Z</time>
      </trkpt>
      <trkpt lat="48.3693" lon="-3.78882">
        <ele>209.60000610352</ele>
        <time>2021-09-12T13:38:01Z</time>
      </trkpt>
      <trkpt lat="48.36933" lon="-3.7888">
        <ele>209.60000610352</ele>
        <time>2021-09-12T13:38:02Z</time>
      </trkpt>
      <trkpt lat="48.36935" lon="-3.78879">
        <ele>210</ele>
        <time>2021-09-12T13:38:03Z</time>
      </trkpt>
      <trkpt lat="48.36937" lon="-3.78878">
        <ele>210.19999694824</ele>
        <time>2021-09-12T13:38:04Z</time>
      </trkpt>
      <trkpt lat="48.36939" lon="-3.78876">
        <ele>210.60000610352</ele>
        <time>2021-09-12T13:38:05Z</time>
      </trkpt>
      <trkpt lat="48.36942" lon="-3.78874">
        <ele>210.80000305176</ele>
        <time>2021-09-12T13:38:06Z</time>
      </trkpt>
      <trkpt lat="48.36944" lon="-3.78872">
        <ele>211.39999389648</ele>
        <time>2021-09-12T13:38:07Z</time>
      </trkpt>
      <trkpt lat="48.36946" lon="-3.78871">
        <ele>211.60000610352</ele>
        <time>2021-09-12T13:38:08Z</time>
      </trkpt>
      <trkpt lat="48.36948" lon="-3.78871">
        <ele>212</ele>
        <time>2021-09-12T13:38:09Z</time>
      </trkpt>
      <trkpt lat="48.3695" lon="-3.7887">
        <ele>212</ele>
        <time>2021-09-12T13:38:10Z</time>
      </trkpt>
      <trkpt lat="48.36952" lon="-3.7887">
        <ele>212.39999389648</ele>
        <time>2021-09-12T13:38:11Z</time>
      </trkpt>
      <trkpt lat="48.36954" lon="-3.78869">
        <ele>212.80000305176</ele>
        <time>2021-09-12T13:38:12Z</time>
      </trkpt>
      <trkpt lat="48.36956" lon="-3.78867">
        <ele>213.19999694824</ele>
        <time>2021-09-12T13:38:13Z</time>
      </trkpt>
      <trkpt lat="48.36958" lon="-3.78866">
        <ele>213.60000610352</ele>
        <time>2021-09-12T13:38:14Z</time>
      </trkpt>
      <trkpt lat="48.36961" lon="-3.78865">
        <ele>213.80000305176</ele>
        <time>2021-09-12T13:38:15Z</time>
      </trkpt>
      <trkpt lat="48.36963" lon="-3.78864">
        <ele>214.19999694824</ele>
        <time>2021-09-12T13:38:16Z</time>
      </trkpt>
      <trkpt lat="48.36966" lon="-3.78862">
        <ele>214.39999389648</ele>
        <time>2021-09-12T13:38:17Z</time>
      </trkpt>
      <trkpt lat="48.36968" lon="-3.78862">
        <ele>214.60000610352</ele>
        <time>2021-09-12T13:38:18Z</time>
      </trkpt>
      <trkpt lat="48.36971" lon="-3.78861">
        <ele>215</ele>
        <time>2021-09-12T13:38:19Z</time>
      </trkpt>
      <trkpt lat="48.36973" lon="-3.7886">
        <ele>215.19999694824</ele>
        <time>2021-09-12T13:38:20Z</time>
      </trkpt>
      <trkpt lat="48.36975" lon="-3.78859">
        <ele>215.39999389648</ele>
        <time>2021-09-12T13:38:21Z</time>
      </trkpt>
      <trkpt lat="48.36978" lon="-3.78858">
        <ele>216</ele>
        <time>2021-09-12T13:38:22Z</time>
      </trkpt>
      <trkpt lat="48.3698" lon="-3.78856">
        <ele>216</ele>
        <time>2021-09-12T13:38:23Z</time>
      </trkpt>
      <trkpt lat="48.36983" lon="-3.78855">
        <ele>216.60000610352</ele>
        <time>2021-09-12T13:38:24Z</time>
      </trkpt>
      <trkpt lat="48.36985" lon="-3.78854">
        <ele>216.60000610352</ele>
        <time>2021-09-12T13:38:25Z</time>
      </trkpt>
      <trkpt lat="48.36988" lon="-3.78854">
        <ele>217</ele>
        <time>2021-09-12T13:38:26Z</time>
      </trkpt>
      <trkpt lat="48.3699" lon="-3.78853">
        <ele>217.19999694824</ele>
        <time>2021-09-12T13:38:27Z</time>
      </trkpt>
      <trkpt lat="48.36993" lon="-3.78852">
        <ele>217.60000610352</ele>
        <time>2021-09-12T13:38:28Z</time>
      </trkpt>
      <trkpt lat="48.36995" lon="-3.78851">
        <ele>218</ele>
        <time>2021-09-12T13:38:29Z</time>
      </trkpt>
      <trkpt lat="48.36998" lon="-3.7885">
        <ele>218.19999694824</ele>
        <time>2021-09-12T13:38:30Z</time>
      </trkpt>
      <trkpt lat="48.37" lon="-3.78848">
        <ele>218.19999694824</ele>
        <time>2021-09-12T13:38:31Z</time>
      </trkpt>
      <trkpt lat="48.37002" lon="-3.78847">
        <ele>218.80000305176</ele>
        <time>2021-09-12T13:38:32Z</time>
      </trkpt>
      <trkpt lat="48.37005" lon="-3.78846">
        <ele>218.80000305176</ele>
        <time>2021-09-12T13:38:33Z</time>
      </trkpt>
      <trkpt lat="48.37007" lon="-3.78845">
        <ele>219.39999389648</ele>
        <time>2021-09-12T13:38:34Z</time>
      </trkpt>
      <trkpt lat="48.37009" lon="-3.78845">
        <ele>219.60000610352</ele>
        <time>2021-09-12T13:38:35Z</time>
      </trkpt>
      <trkpt lat="48.37011" lon="-3.78844">
        <ele>219.80000305176</ele>
        <time>2021-09-12T13:38:36Z</time>
      </trkpt>
      <trkpt lat="48.37014" lon="-3.78843">
        <ele>220</ele>
        <time>2021-09-12T13:38:37Z</time>
      </trkpt>
      <trkpt lat="48.37016" lon="-3.78842">
        <ele>220</ele>
        <time>2021-09-12T13:38:38Z</time>
      </trkpt>
      <trkpt lat="48.37018" lon="-3.78841">
        <ele>220.19999694824</ele>
        <time>2021-09-12T13:38:39Z</time>
      </trkpt>
      <trkpt lat="48.3702" lon="-3.78839">
        <ele>221</ele>
        <time>2021-09-12T13:38:40Z</time>
      </trkpt>
      <trkpt lat="48.37023" lon="-3.78838">
        <ele>221.19999694824</ele>
        <time>2021-09-12T13:38:41Z</time>
      </trkpt>
      <trkpt lat="48.37025" lon="-3.78837">
        <ele>221.60000610352</ele>
        <time>2021-09-12T13:38:42Z</time>
      </trkpt>
      <trkpt lat="48.37027" lon="-3.78836">
        <ele>221.60000610352</ele>
        <time>2021-09-12T13:38:43Z</time>
      </trkpt>
      <trkpt lat="48.37029" lon="-3.78834">
        <ele>222.19999694824</ele>
        <time>2021-09-12T13:38:44Z</time>
      </trkpt>
      <trkpt lat="48.37032" lon="-3.78833">
        <ele>222.19999694824</ele>
        <time>2021-09-12T13:38:45Z</time>
      </trkpt>
      <trkpt lat="48.37034" lon="-3.78832">
        <ele>222.39999389648</ele>
        <time>2021-09-12T13:38:46Z</time>
      </trkpt>
      <trkpt lat="48.37036" lon="-3.78832">
        <ele>223</ele>
        <time>2021-09-12T13:38:47Z</time>
      </trkpt>
      <trkpt lat="48.37039" lon="-3.78831">
        <ele>223.19999694824</ele>
        <time>2021-09-12T13:38:48Z</time>
      </trkpt>
      <trkpt lat="48.37042" lon="-3.7883">
        <ele>223.39999389648</ele>
        <time>2021-09-12T13:38:49Z</time>
      </trkpt>
      <trkpt lat="48.37045" lon="-3.78828">
        <ele>223.39999389648</ele>
        <time>2021-09-12T13:38:50Z</time>
      </trkpt>
      <trkpt lat="48.37048" lon="-3.78827">
        <ele>223.60000610352</ele>
        <time>2021-09-12T13:38:51Z</time>
      </trkpt>
      <trkpt lat="48.37051" lon="-3.78825">
        <ele>223.60000610352</ele>
        <time>2021-09-12T13:38:52Z</time>
      </trkpt>
      <trkpt lat="48.37053" lon="-3.78824">
        <ele>223.80000305176</ele>
        <time>2021-09-12T13:38:53Z</time>
      </trkpt>
      <trkpt lat="48.37056" lon="-3.78823">
        <ele>224</ele>
        <time>2021-09-12T13:38:54Z</time>
      </trkpt>
      <trkpt lat="48.37059" lon="-3.78821">
        <ele>224.19999694824</ele>
        <time>2021-09-12T13:38:55Z</time>
      </trkpt>
      <trkpt lat="48.37061" lon="-3.7882">
        <ele>224.19999694824</ele>
        <time>2021-09-12T13:38:56Z</time>
      </trkpt>
      <trkpt lat="48.37064" lon="-3.7882">
        <ele>224.19999694824</ele>
        <time>2021-09-12T13:38:57Z</time>
      </trkpt>
      <trkpt lat="48.37066" lon="-3.78819">
        <ele>224.19999694824</ele>
        <time>2021-09-12T13:38:58Z</time>
      </trkpt>
      <trkpt lat="48.37069" lon="-3.78819">
        <ele>224.39999389648</ele>
        <time>2021-09-12T13:38:59Z</time>
      </trkpt>
      <trkpt lat="48.3707" lon="-3.78819">
        <ele>224.39999389648</ele>
        <time>2021-09-12T13:39:00Z</time>
      </trkpt>
      <trkpt lat="48.37072" lon="-3.78817">
        <ele>224.60000610352</ele>
        <time>2021-09-12T13:39:01Z</time>
      </trkpt>
      <trkpt lat="48.37073" lon="-3.78814">
        <ele>224.60000610352</ele>
        <time>2021-09-12T13:39:02Z</time>
      </trkpt>
      <trkpt lat="48.37072" lon="-3.78811">
        <ele>224.60000610352</ele>
        <time>2021-09-12T13:39:03Z</time>
      </trkpt>
      <trkpt lat="48.37071" lon="-3.78809">
        <ele>224.60000610352</ele>
        <time>2021-09-12T13:39:04Z</time>
      </trkpt>
      <trkpt lat="48.37069" lon="-3.78806">
        <ele>224.60000610352</ele>
        <time>2021-09-12T13:39:05Z</time>
      </trkpt>
      <trkpt lat="48.37067" lon="-3.78804">
        <ele>224.60000610352</ele>
        <time>2021-09-12T13:39:06Z</time>
      </trkpt>
      <trkpt lat="48.37065" lon="-3.788">
        <ele>224.60000610352</ele>
        <time>2021-09-12T13:39:07Z</time>
      </trkpt>
      <trkpt lat="48.37063" lon="-3.78797">
        <ele>224.60000610352</ele>
        <time>2021-09-12T13:39:08Z</time>
      </trkpt>
      <trkpt lat="48.3706" lon="-3.78793">
        <ele>224.39999389648</ele>
        <time>2021-09-12T13:39:09Z</time>
      </trkpt>
      <trkpt lat="48.37057" lon="-3.78788">
        <ele>224.19999694824</ele>
        <time>2021-09-12T13:39:10Z</time>
      </trkpt>
      <trkpt lat="48.37055" lon="-3.78783">
        <ele>224</ele>
        <time>2021-09-12T13:39:11Z</time>
      </trkpt>
      <trkpt lat="48.37053" lon="-3.78779">
        <ele>224</ele>
        <time>2021-09-12T13:39:12Z</time>
      </trkpt>
      <trkpt lat="48.3705" lon="-3.78775">
        <ele>223.80000305176</ele>
        <time>2021-09-12T13:39:13Z</time>
      </trkpt>
      <trkpt lat="48.37048" lon="-3.78771">
        <ele>223.60000610352</ele>
        <time>2021-09-12T13:39:14Z</time>
      </trkpt>
      <trkpt lat="48.37045" lon="-3.78767">
        <ele>223.60000610352</ele>
        <time>2021-09-12T13:39:15Z</time>
      </trkpt>
      <trkpt lat="48.37043" lon="-3.78763">
        <ele>223.39999389648</ele>
        <time>2021-09-12T13:39:16Z</time>
      </trkpt>
      <trkpt lat="48.3704" lon="-3.78759">
        <ele>223.39999389648</ele>
        <time>2021-09-12T13:39:17Z</time>
      </trkpt>
      <trkpt lat="48.37037" lon="-3.78755">
        <ele>223.19999694824</ele>
        <time>2021-09-12T13:39:18Z</time>
      </trkpt>
      <trkpt lat="48.37034" lon="-3.7875">
        <ele>223</ele>
        <time>2021-09-12T13:39:19Z</time>
      </trkpt>
      <trkpt lat="48.37031" lon="-3.78745">
        <ele>223</ele>
        <time>2021-09-12T13:39:20Z</time>
      </trkpt>
      <trkpt lat="48.37028" lon="-3.7874">
        <ele>222.80000305176</ele>
        <time>2021-09-12T13:39:21Z</time>
      </trkpt>
      <trkpt lat="48.37026" lon="-3.78734">
        <ele>222.80000305176</ele>
        <time>2021-09-12T13:39:22Z</time>
      </trkpt>
      <trkpt lat="48.37024" lon="-3.78728">
        <ele>222.80000305176</ele>
        <time>2021-09-12T13:39:23Z</time>
      </trkpt>
      <trkpt lat="48.37021" lon="-3.78722">
        <ele>222.60000610352</ele>
        <time>2021-09-12T13:39:24Z</time>
      </trkpt>
      <trkpt lat="48.37018" lon="-3.78717">
        <ele>222.39999389648</ele>
        <time>2021-09-12T13:39:25Z</time>
      </trkpt>
      <trkpt lat="48.37014" lon="-3.78711">
        <ele>222.39999389648</ele>
        <time>2021-09-12T13:39:26Z</time>
      </trkpt>
      <trkpt lat="48.3701" lon="-3.78705">
        <ele>222.39999389648</ele>
        <time>2021-09-12T13:39:27Z</time>
      </trkpt>
      <trkpt lat="48.37007" lon="-3.78699">
        <ele>222.19999694824</ele>
        <time>2021-09-12T13:39:28Z</time>
      </trkpt>
      <trkpt lat="48.37004" lon="-3.78694">
        <ele>222</ele>
        <time>2021-09-12T13:39:29Z</time>
      </trkpt>
      <trkpt lat="48.37002" lon="-3.78688">
        <ele>222</ele>
        <time>2021-09-12T13:39:30Z</time>
      </trkpt>
      <trkpt lat="48.36999" lon="-3.78682">
        <ele>221.60000610352</ele>
        <time>2021-09-12T13:39:31Z</time>
      </trkpt>
      <trkpt lat="48.36996" lon="-3.78675">
        <ele>221.60000610352</ele>
        <time>2021-09-12T13:39:32Z</time>
      </trkpt>
      <trkpt lat="48.36992" lon="-3.78669">
        <ele>221.39999389648</ele>
        <time>2021-09-12T13:39:33Z</time>
      </trkpt>
      <trkpt lat="48.3699" lon="-3.78663">
        <ele>221.39999389648</ele>
        <time>2021-09-12T13:39:34Z</time>
      </trkpt>
      <trkpt lat="48.36987" lon="-3.78656">
        <ele>221.39999389648</ele>
        <time>2021-09-12T13:39:35Z</time>
      </trkpt>
      <trkpt lat="48.36985" lon="-3.7865">
        <ele>221.39999389648</ele>
        <time>2021-09-12T13:39:36Z</time>
      </trkpt>
      <trkpt lat="48.36983" lon="-3.78642">
        <ele>221.39999389648</ele>
        <time>2021-09-12T13:39:37Z</time>
      </trkpt>
      <trkpt lat="48.36981" lon="-3.78635">
        <ele>221.19999694824</ele>
        <time>2021-09-12T13:39:38Z</time>
      </trkpt>
      <trkpt lat="48.36979" lon="-3.78628">
        <ele>221.19999694824</ele>
        <time>2021-09-12T13:39:39Z</time>
      </trkpt>
      <trkpt lat="48.36978" lon="-3.7862">
        <ele>221.19999694824</ele>
        <time>2021-09-12T13:39:40Z</time>
      </trkpt>
      <trkpt lat="48.36977" lon="-3.78612">
        <ele>221.19999694824</ele>
        <time>2021-09-12T13:39:41Z</time>
      </trkpt>
      <trkpt lat="48.36976" lon="-3.78604">
        <ele>221.19999694824</ele>
        <time>2021-09-12T13:39:42Z</time>
      </trkpt>
      <trkpt lat="48.36974" lon="-3.78596">
        <ele>221</ele>
        <time>2021-09-12T13:39:43Z</time>
      </trkpt>
      <trkpt lat="48.36972" lon="-3.78588">
        <ele>221</ele>
        <time>2021-09-12T13:39:44Z</time>
      </trkpt>
      <trkpt lat="48.3697" lon="-3.78581">
        <ele>221</ele>
        <time>2021-09-12T13:39:45Z</time>
      </trkpt>
      <trkpt lat="48.36969" lon="-3.78574">
        <ele>221</ele>
        <time>2021-09-12T13:39:46Z</time>
      </trkpt>
      <trkpt lat="48.36966" lon="-3.78566">
        <ele>221</ele>
        <time>2021-09-12T13:39:47Z</time>
      </trkpt>
      <trkpt lat="48.36963" lon="-3.7856">
        <ele>221</ele>
        <time>2021-09-12T13:39:48Z</time>
      </trkpt>
      <trkpt lat="48.36961" lon="-3.78554">
        <ele>221</ele>
        <time>2021-09-12T13:39:49Z</time>
      </trkpt>
      <trkpt lat="48.3696" lon="-3.78548">
        <ele>220.80000305176</ele>
        <time>2021-09-12T13:39:50Z</time>
      </trkpt>
      <trkpt lat="48.36959" lon="-3.78543">
        <ele>220.80000305176</ele>
        <time>2021-09-12T13:39:51Z</time>
      </trkpt>
      <trkpt lat="48.36958" lon="-3.78536">
        <ele>220.80000305176</ele>
        <time>2021-09-12T13:39:52Z</time>
      </trkpt>
      <trkpt lat="48.36957" lon="-3.78529">
        <ele>220.80000305176</ele>
        <time>2021-09-12T13:39:53Z</time>
      </trkpt>
      <trkpt lat="48.36956" lon="-3.78523">
        <ele>220.80000305176</ele>
        <time>2021-09-12T13:39:54Z</time>
      </trkpt>
      <trkpt lat="48.36956" lon="-3.78516">
        <ele>220.80000305176</ele>
        <time>2021-09-12T13:39:55Z</time>
      </trkpt>
      <trkpt lat="48.36956" lon="-3.78511">
        <ele>221</ele>
        <time>2021-09-12T13:39:56Z</time>
      </trkpt>
      <trkpt lat="48.36956" lon="-3.78506">
        <ele>221.19999694824</ele>
        <time>2021-09-12T13:39:57Z</time>
      </trkpt>
      <trkpt lat="48.36954" lon="-3.785">
        <ele>221.39999389648</ele>
        <time>2021-09-12T13:39:58Z</time>
      </trkpt>
      <trkpt lat="48.36953" lon="-3.78495">
        <ele>221.39999389648</ele>
        <time>2021-09-12T13:39:59Z</time>
      </trkpt>
      <trkpt lat="48.36951" lon="-3.78489">
        <ele>221.19999694824</ele>
        <time>2021-09-12T13:40:00Z</time>
      </trkpt>
      <trkpt lat="48.36948" lon="-3.78484">
        <ele>221.19999694824</ele>
        <time>2021-09-12T13:40:01Z</time>
      </trkpt>
      <trkpt lat="48.36947" lon="-3.7848">
        <ele>221.19999694824</ele>
        <time>2021-09-12T13:40:02Z</time>
      </trkpt>
      <trkpt lat="48.36945" lon="-3.78475">
        <ele>221.19999694824</ele>
        <time>2021-09-12T13:40:03Z</time>
      </trkpt>
      <trkpt lat="48.36944" lon="-3.78469">
        <ele>221.19999694824</ele>
        <time>2021-09-12T13:40:04Z</time>
      </trkpt>
      <trkpt lat="48.36944" lon="-3.78462">
        <ele>221</ele>
        <time>2021-09-12T13:40:05Z</time>
      </trkpt>
      <trkpt lat="48.36944" lon="-3.78455">
        <ele>221</ele>
        <time>2021-09-12T13:40:06Z</time>
      </trkpt>
      <trkpt lat="48.36945" lon="-3.78448">
        <ele>221</ele>
        <time>2021-09-12T13:40:07Z</time>
      </trkpt>
      <trkpt lat="48.36945" lon="-3.78441">
        <ele>220.80000305176</ele>
        <time>2021-09-12T13:40:08Z</time>
      </trkpt>
      <trkpt lat="48.36945" lon="-3.78434">
        <ele>220.39999389648</ele>
        <time>2021-09-12T13:40:09Z</time>
      </trkpt>
      <trkpt lat="48.36944" lon="-3.78426">
        <ele>220.39999389648</ele>
        <time>2021-09-12T13:40:10Z</time>
      </trkpt>
      <trkpt lat="48.36943" lon="-3.78418">
        <ele>220.19999694824</ele>
        <time>2021-09-12T13:40:11Z</time>
      </trkpt>
      <trkpt lat="48.36943" lon="-3.7841">
        <ele>219.80000305176</ele>
        <time>2021-09-12T13:40:12Z</time>
      </trkpt>
      <trkpt lat="48.36943" lon="-3.78402">
        <ele>219.80000305176</ele>
        <time>2021-09-12T13:40:13Z</time>
      </trkpt>
      <trkpt lat="48.36943" lon="-3.78395">
        <ele>219.39999389648</ele>
        <time>2021-09-12T13:40:14Z</time>
      </trkpt>
      <trkpt lat="48.36943" lon="-3.78387">
        <ele>219.39999389648</ele>
        <time>2021-09-12T13:40:15Z</time>
      </trkpt>
      <trkpt lat="48.36943" lon="-3.78378">
        <ele>219</ele>
        <time>2021-09-12T13:40:16Z</time>
      </trkpt>
      <trkpt lat="48.36943" lon="-3.78371">
        <ele>218.80000305176</ele>
        <time>2021-09-12T13:40:17Z</time>
      </trkpt>
      <trkpt lat="48.36943" lon="-3.78364">
        <ele>218.80000305176</ele>
        <time>2021-09-12T13:40:18Z</time>
      </trkpt>
      <trkpt lat="48.36943" lon="-3.78355">
        <ele>218.60000610352</ele>
        <time>2021-09-12T13:40:19Z</time>
      </trkpt>
      <trkpt lat="48.36943" lon="-3.78348">
        <ele>218.60000610352</ele>
        <time>2021-09-12T13:40:20Z</time>
      </trkpt>
      <trkpt lat="48.36944" lon="-3.78341">
        <ele>218.60000610352</ele>
        <time>2021-09-12T13:40:21Z</time>
      </trkpt>
      <trkpt lat="48.36944" lon="-3.78336">
        <ele>218.60000610352</ele>
        <time>2021-09-12T13:40:22Z</time>
      </trkpt>
      <trkpt lat="48.36944" lon="-3.78329">
        <ele>218.60000610352</ele>
        <time>2021-09-12T13:40:23Z</time>
      </trkpt>
      <trkpt lat="48.36945" lon="-3.78324">
        <ele>218.80000305176</ele>
        <time>2021-09-12T13:40:24Z</time>
      </trkpt>
      <trkpt lat="48.36946" lon="-3.78318">
        <ele>219</ele>
        <time>2021-09-12T13:40:25Z</time>
      </trkpt>
      <trkpt lat="48.36947" lon="-3.78312">
        <ele>219</ele>
        <time>2021-09-12T13:40:26Z</time>
      </trkpt>
      <trkpt lat="48.36946" lon="-3.7831">
        <ele>219</ele>
        <time>2021-09-12T13:40:27Z</time>
      </trkpt>
      <trkpt lat="48.36946" lon="-3.78309">
        <ele>219</ele>
        <time>2021-09-12T13:40:28Z</time>
      </trkpt>
      <trkpt lat="48.36946" lon="-3.78309">
        <ele>219</ele>
        <time>2021-09-12T13:40:29Z</time>
      </trkpt>
      <trkpt lat="48.36946" lon="-3.78301">
        <ele>219.19999694824</ele>
        <time>2021-09-12T13:42:09Z</time>
      </trkpt>
      <trkpt lat="48.36946" lon="-3.78296">
        <ele>219.39999389648</ele>
        <time>2021-09-12T13:42:10Z</time>
      </trkpt>
      <trkpt lat="48.36946" lon="-3.7829">
        <ele>219.80000305176</ele>
        <time>2021-09-12T13:42:11Z</time>
      </trkpt>
      <trkpt lat="48.36945" lon="-3.78282">
        <ele>219.80000305176</ele>
        <time>2021-09-12T13:42:12Z</time>
      </trkpt>
      <trkpt lat="48.36945" lon="-3.78275">
        <ele>219.80000305176</ele>
        <time>2021-09-12T13:42:13Z</time>
      </trkpt>
      <trkpt lat="48.36945" lon="-3.78268">
        <ele>219.80000305176</ele>
        <time>2021-09-12T13:42:14Z</time>
      </trkpt>
      <trkpt lat="48.36945" lon="-3.78261">
        <ele>219.80000305176</ele>
        <time>2021-09-12T13:42:15Z</time>
      </trkpt>
      <trkpt lat="48.36945" lon="-3.78254">
        <ele>219.80000305176</ele>
        <time>2021-09-12T13:42:16Z</time>
      </trkpt>
      <trkpt lat="48.36944" lon="-3.78247">
        <ele>219.60000610352</ele>
        <time>2021-09-12T13:42:17Z</time>
      </trkpt>
      <trkpt lat="48.36944" lon="-3.7824">
        <ele>219.60000610352</ele>
        <time>2021-09-12T13:42:18Z</time>
      </trkpt>
      <trkpt lat="48.36943" lon="-3.78232">
        <ele>219.60000610352</ele>
        <time>2021-09-12T13:42:19Z</time>
      </trkpt>
      <trkpt lat="48.36942" lon="-3.78225">
        <ele>219.60000610352</ele>
        <time>2021-09-12T13:42:20Z</time>
      </trkpt>
      <trkpt lat="48.3694" lon="-3.78218">
        <ele>219.80000305176</ele>
        <time>2021-09-12T13:42:21Z</time>
      </trkpt>
      <trkpt lat="48.36938" lon="-3.78211">
        <ele>219.60000610352</ele>
        <time>2021-09-12T13:42:22Z</time>
      </trkpt>
      <trkpt lat="48.36936" lon="-3.78206">
        <ele>219.60000610352</ele>
        <time>2021-09-12T13:42:23Z</time>
      </trkpt>
      <trkpt lat="48.36934" lon="-3.78201">
        <ele>219.60000610352</ele>
        <time>2021-09-12T13:42:24Z</time>
      </trkpt>
      <trkpt lat="48.3693" lon="-3.78196">
        <ele>219.60000610352</ele>
        <time>2021-09-12T13:42:25Z</time>
      </trkpt>
      <trkpt lat="48.36927" lon="-3.78191">
        <ele>218.80000305176</ele>
        <time>2021-09-12T13:42:26Z</time>
      </trkpt>
      <trkpt lat="48.36924" lon="-3.78186">
        <ele>218.60000610352</ele>
        <time>2021-09-12T13:42:27Z</time>
      </trkpt>
      <trkpt lat="48.36921" lon="-3.7818">
        <ele>218.39999389648</ele>
        <time>2021-09-12T13:42:28Z</time>
      </trkpt>
      <trkpt lat="48.36918" lon="-3.78175">
        <ele>218.39999389648</ele>
        <time>2021-09-12T13:42:29Z</time>
      </trkpt>
      <trkpt lat="48.36916" lon="-3.7817">
        <ele>218.19999694824</ele>
        <time>2021-09-12T13:42:30Z</time>
      </trkpt>
      <trkpt lat="48.36914" lon="-3.78166">
        <ele>217.80000305176</ele>
        <time>2021-09-12T13:42:31Z</time>
      </trkpt>
      <trkpt lat="48.36912" lon="-3.78162">
        <ele>217.39999389648</ele>
        <time>2021-09-12T13:42:32Z</time>
      </trkpt>
      <trkpt lat="48.3691" lon="-3.78157">
        <ele>217</ele>
        <time>2021-09-12T13:42:33Z</time>
      </trkpt>
      <trkpt lat="48.36905" lon="-3.78147">
        <ele>216.60000610352</ele>
        <time>2021-09-12T13:42:34Z</time>
      </trkpt>
      <trkpt lat="48.36901" lon="-3.78141">
        <ele>216.19999694824</ele>
        <time>2021-09-12T13:42:35Z</time>
      </trkpt>
      <trkpt lat="48.36899" lon="-3.78137">
        <ele>216.19999694824</ele>
        <time>2021-09-12T13:42:36Z</time>
      </trkpt>
      <trkpt lat="48.36896" lon="-3.78132">
        <ele>216.19999694824</ele>
        <time>2021-09-12T13:42:37Z</time>
      </trkpt>
      <trkpt lat="48.36893" lon="-3.78127">
        <ele>216</ele>
        <time>2021-09-12T13:42:38Z</time>
      </trkpt>
      <trkpt lat="48.3689" lon="-3.7812">
        <ele>215.80000305176</ele>
        <time>2021-09-12T13:42:39Z</time>
      </trkpt>
      <trkpt lat="48.36887" lon="-3.78116">
        <ele>215.60000610352</ele>
        <time>2021-09-12T13:42:40Z</time>
      </trkpt>
      <trkpt lat="48.36884" lon="-3.7811">
        <ele>215.39999389648</ele>
        <time>2021-09-12T13:42:41Z</time>
      </trkpt>
      <trkpt lat="48.36883" lon="-3.78101">
        <ele>215.19999694824</ele>
        <time>2021-09-12T13:42:42Z</time>
      </trkpt>
      <trkpt lat="48.36881" lon="-3.78092">
        <ele>214.19999694824</ele>
        <time>2021-09-12T13:42:43Z</time>
      </trkpt>
      <trkpt lat="48.36879" lon="-3.78079">
        <ele>214.19999694824</ele>
        <time>2021-09-12T13:42:44Z</time>
      </trkpt>
      <trkpt lat="48.36878" lon="-3.78068">
        <ele>214.19999694824</ele>
        <time>2021-09-12T13:42:45Z</time>
      </trkpt>
      <trkpt lat="48.36879" lon="-3.78058">
        <ele>214</ele>
        <time>2021-09-12T13:42:46Z</time>
      </trkpt>
      <trkpt lat="48.36878" lon="-3.78048">
        <ele>213.60000610352</ele>
        <time>2021-09-12T13:42:47Z</time>
      </trkpt>
      <trkpt lat="48.36878" lon="-3.78039">
        <ele>213.39999389648</ele>
        <time>2021-09-12T13:42:48Z</time>
      </trkpt>
      <trkpt lat="48.36877" lon="-3.78029">
        <ele>213.39999389648</ele>
        <time>2021-09-12T13:42:49Z</time>
      </trkpt>
      <trkpt lat="48.36877" lon="-3.78019">
        <ele>213</ele>
        <time>2021-09-12T13:42:50Z</time>
      </trkpt>
      <trkpt lat="48.36877" lon="-3.7801">
        <ele>212.60000610352</ele>
        <time>2021-09-12T13:42:51Z</time>
      </trkpt>
      <trkpt lat="48.36875" lon="-3.77997">
        <ele>212.60000610352</ele>
        <time>2021-09-12T13:42:52Z</time>
      </trkpt>
      <trkpt lat="48.36872" lon="-3.77985">
        <ele>212.39999389648</ele>
        <time>2021-09-12T13:42:53Z</time>
      </trkpt>
      <trkpt lat="48.36869" lon="-3.77976">
        <ele>211.80000305176</ele>
        <time>2021-09-12T13:42:54Z</time>
      </trkpt>
      <trkpt lat="48.36866" lon="-3.77967">
        <ele>211.80000305176</ele>
        <time>2021-09-12T13:42:55Z</time>
      </trkpt>
      <trkpt lat="48.36864" lon="-3.77957">
        <ele>211.19999694824</ele>
        <time>2021-09-12T13:42:56Z</time>
      </trkpt>
      <trkpt lat="48.36861" lon="-3.77946">
        <ele>211.19999694824</ele>
        <time>2021-09-12T13:42:57Z</time>
      </trkpt>
      <trkpt lat="48.36859" lon="-3.77934">
        <ele>211</ele>
        <time>2021-09-12T13:42:58Z</time>
      </trkpt>
      <trkpt lat="48.36857" lon="-3.77921">
        <ele>210.80000305176</ele>
        <time>2021-09-12T13:42:59Z</time>
      </trkpt>
      <trkpt lat="48.36857" lon="-3.77909">
        <ele>210.80000305176</ele>
        <time>2021-09-12T13:43:00Z</time>
      </trkpt>
      <trkpt lat="48.36856" lon="-3.77898">
        <ele>210.19999694824</ele>
        <time>2021-09-12T13:43:01Z</time>
      </trkpt>
      <trkpt lat="48.36854" lon="-3.77886">
        <ele>210.19999694824</ele>
        <time>2021-09-12T13:43:02Z</time>
      </trkpt>
      <trkpt lat="48.36853" lon="-3.77876">
        <ele>209.80000305176</ele>
        <time>2021-09-12T13:43:03Z</time>
      </trkpt>
      <trkpt lat="48.36852" lon="-3.77865">
        <ele>209.60000610352</ele>
        <time>2021-09-12T13:43:04Z</time>
      </trkpt>
      <trkpt lat="48.36851" lon="-3.77855">
        <ele>209.39999389648</ele>
        <time>2021-09-12T13:43:05Z</time>
      </trkpt>
      <trkpt lat="48.3685" lon="-3.77845">
        <ele>209.19999694824</ele>
        <time>2021-09-12T13:43:06Z</time>
      </trkpt>
      <trkpt lat="48.36848" lon="-3.77835">
        <ele>209</ele>
        <time>2021-09-12T13:43:07Z</time>
      </trkpt>
      <trkpt lat="48.36847" lon="-3.77825">
        <ele>208.80000305176</ele>
        <time>2021-09-12T13:43:08Z</time>
      </trkpt>
      <trkpt lat="48.36845" lon="-3.77816">
        <ele>208.80000305176</ele>
        <time>2021-09-12T13:43:09Z</time>
      </trkpt>
      <trkpt lat="48.36844" lon="-3.77806">
        <ele>208.60000610352</ele>
        <time>2021-09-12T13:43:10Z</time>
      </trkpt>
      <trkpt lat="48.36843" lon="-3.77796">
        <ele>208.39999389648</ele>
        <time>2021-09-12T13:43:11Z</time>
      </trkpt>
      <trkpt lat="48.36841" lon="-3.77787">
        <ele>208.39999389648</ele>
        <time>2021-09-12T13:43:12Z</time>
      </trkpt>
      <trkpt lat="48.3684" lon="-3.77777">
        <ele>207.80000305176</ele>
        <time>2021-09-12T13:43:13Z</time>
      </trkpt>
      <trkpt lat="48.36838" lon="-3.77768">
        <ele>207.80000305176</ele>
        <time>2021-09-12T13:43:14Z</time>
      </trkpt>
      <trkpt lat="48.36837" lon="-3.77758">
        <ele>207.60000610352</ele>
        <time>2021-09-12T13:43:15Z</time>
      </trkpt>
      <trkpt lat="48.36836" lon="-3.77749">
        <ele>207.60000610352</ele>
        <time>2021-09-12T13:43:16Z</time>
      </trkpt>
      <trkpt lat="48.36835" lon="-3.77739">
        <ele>207.39999389648</ele>
        <time>2021-09-12T13:43:17Z</time>
      </trkpt>
      <trkpt lat="48.36834" lon="-3.7773">
        <ele>207.39999389648</ele>
        <time>2021-09-12T13:43:18Z</time>
      </trkpt>
      <trkpt lat="48.36833" lon="-3.77721">
        <ele>207.19999694824</ele>
        <time>2021-09-12T13:43:19Z</time>
      </trkpt>
      <trkpt lat="48.36831" lon="-3.77712">
        <ele>207.19999694824</ele>
        <time>2021-09-12T13:43:20Z</time>
      </trkpt>
      <trkpt lat="48.3683" lon="-3.77702">
        <ele>207.19999694824</ele>
        <time>2021-09-12T13:43:21Z</time>
      </trkpt>
      <trkpt lat="48.36829" lon="-3.77693">
        <ele>207.19999694824</ele>
        <time>2021-09-12T13:43:22Z</time>
      </trkpt>
      <trkpt lat="48.36828" lon="-3.77684">
        <ele>207.19999694824</ele>
        <time>2021-09-12T13:43:23Z</time>
      </trkpt>
      <trkpt lat="48.36827" lon="-3.77676">
        <ele>207.19999694824</ele>
        <time>2021-09-12T13:43:24Z</time>
      </trkpt>
      <trkpt lat="48.36826" lon="-3.77668">
        <ele>207</ele>
        <time>2021-09-12T13:43:25Z</time>
      </trkpt>
      <trkpt lat="48.36825" lon="-3.7766">
        <ele>207</ele>
        <time>2021-09-12T13:43:26Z</time>
      </trkpt>
      <trkpt lat="48.36824" lon="-3.77652">
        <ele>207</ele>
        <time>2021-09-12T13:43:27Z</time>
      </trkpt>
      <trkpt lat="48.36823" lon="-3.77643">
        <ele>207</ele>
        <time>2021-09-12T13:43:28Z</time>
      </trkpt>
      <trkpt lat="48.36822" lon="-3.77635">
        <ele>207</ele>
        <time>2021-09-12T13:43:29Z</time>
      </trkpt>
      <trkpt lat="48.36821" lon="-3.77626">
        <ele>207</ele>
        <time>2021-09-12T13:43:30Z</time>
      </trkpt>
      <trkpt lat="48.3682" lon="-3.77618">
        <ele>207</ele>
        <time>2021-09-12T13:43:31Z</time>
      </trkpt>
      <trkpt lat="48.36818" lon="-3.77608">
        <ele>207</ele>
        <time>2021-09-12T13:43:32Z</time>
      </trkpt>
      <trkpt lat="48.36817" lon="-3.77599">
        <ele>207</ele>
        <time>2021-09-12T13:43:33Z</time>
      </trkpt>
      <trkpt lat="48.36816" lon="-3.77589">
        <ele>207</ele>
        <time>2021-09-12T13:43:34Z</time>
      </trkpt>
      <trkpt lat="48.36814" lon="-3.7758">
        <ele>206.80000305176</ele>
        <time>2021-09-12T13:43:35Z</time>
      </trkpt>
      <trkpt lat="48.36813" lon="-3.7757">
        <ele>206.60000610352</ele>
        <time>2021-09-12T13:43:36Z</time>
      </trkpt>
      <trkpt lat="48.36812" lon="-3.77561">
        <ele>206.60000610352</ele>
        <time>2021-09-12T13:43:37Z</time>
      </trkpt>
      <trkpt lat="48.3681" lon="-3.77552">
        <ele>206.39999389648</ele>
        <time>2021-09-12T13:43:38Z</time>
      </trkpt>
      <trkpt lat="48.3681" lon="-3.77543">
        <ele>206.39999389648</ele>
        <time>2021-09-12T13:43:39Z</time>
      </trkpt>
      <trkpt lat="48.36809" lon="-3.77534">
        <ele>206</ele>
        <time>2021-09-12T13:43:40Z</time>
      </trkpt>
      <trkpt lat="48.36808" lon="-3.77525">
        <ele>206</ele>
        <time>2021-09-12T13:43:41Z</time>
      </trkpt>
      <trkpt lat="48.36808" lon="-3.77517">
        <ele>205.80000305176</ele>
        <time>2021-09-12T13:43:42Z</time>
      </trkpt>
      <trkpt lat="48.36808" lon="-3.77508">
        <ele>205.80000305176</ele>
        <time>2021-09-12T13:43:43Z</time>
      </trkpt>
      <trkpt lat="48.36808" lon="-3.77499">
        <ele>205.80000305176</ele>
        <time>2021-09-12T13:43:44Z</time>
      </trkpt>
      <trkpt lat="48.36808" lon="-3.7749">
        <ele>205.60000610352</ele>
        <time>2021-09-12T13:43:45Z</time>
      </trkpt>
      <trkpt lat="48.36808" lon="-3.77482">
        <ele>205.39999389648</ele>
        <time>2021-09-12T13:43:46Z</time>
      </trkpt>
      <trkpt lat="48.36807" lon="-3.77474">
        <ele>205.39999389648</ele>
        <time>2021-09-12T13:43:47Z</time>
      </trkpt>
      <trkpt lat="48.36807" lon="-3.77465">
        <ele>205.39999389648</ele>
        <time>2021-09-12T13:43:48Z</time>
      </trkpt>
      <trkpt lat="48.36807" lon="-3.77457">
        <ele>205.39999389648</ele>
        <time>2021-09-12T13:43:49Z</time>
      </trkpt>
      <trkpt lat="48.36807" lon="-3.77449">
        <ele>205.60000610352</ele>
        <time>2021-09-12T13:43:50Z</time>
      </trkpt>
      <trkpt lat="48.36807" lon="-3.77441">
        <ele>205.60000610352</ele>
        <time>2021-09-12T13:43:51Z</time>
      </trkpt>
      <trkpt lat="48.36807" lon="-3.77432">
        <ele>205.60000610352</ele>
        <time>2021-09-12T13:43:52Z</time>
      </trkpt>
      <trkpt lat="48.36807" lon="-3.77425">
        <ele>205.60000610352</ele>
        <time>2021-09-12T13:43:53Z</time>
      </trkpt>
      <trkpt lat="48.36807" lon="-3.77417">
        <ele>205.80000305176</ele>
        <time>2021-09-12T13:43:54Z</time>
      </trkpt>
      <trkpt lat="48.36807" lon="-3.77411">
        <ele>205.80000305176</ele>
        <time>2021-09-12T13:43:55Z</time>
      </trkpt>
      <trkpt lat="48.36807" lon="-3.77405">
        <ele>206</ele>
        <time>2021-09-12T13:43:56Z</time>
      </trkpt>
      <trkpt lat="48.36806" lon="-3.77399">
        <ele>206</ele>
        <time>2021-09-12T13:43:57Z</time>
      </trkpt>
      <trkpt lat="48.36804" lon="-3.77393">
        <ele>206</ele>
        <time>2021-09-12T13:43:58Z</time>
      </trkpt>
      <trkpt lat="48.36802" lon="-3.77389">
        <ele>206</ele>
        <time>2021-09-12T13:43:59Z</time>
      </trkpt>
      <trkpt lat="48.36799" lon="-3.77383">
        <ele>206</ele>
        <time>2021-09-12T13:44:00Z</time>
      </trkpt>
      <trkpt lat="48.36796" lon="-3.77378">
        <ele>205.60000610352</ele>
        <time>2021-09-12T13:44:01Z</time>
      </trkpt>
      <trkpt lat="48.36792" lon="-3.77373">
        <ele>205</ele>
        <time>2021-09-12T13:44:02Z</time>
      </trkpt>
      <trkpt lat="48.36788" lon="-3.77368">
        <ele>204.80000305176</ele>
        <time>2021-09-12T13:44:03Z</time>
      </trkpt>
      <trkpt lat="48.36783" lon="-3.77363">
        <ele>204.60000610352</ele>
        <time>2021-09-12T13:44:04Z</time>
      </trkpt>
      <trkpt lat="48.36779" lon="-3.77358">
        <ele>204.60000610352</ele>
        <time>2021-09-12T13:44:05Z</time>
      </trkpt>
      <trkpt lat="48.36775" lon="-3.77354">
        <ele>204.60000610352</ele>
        <time>2021-09-12T13:44:06Z</time>
      </trkpt>
      <trkpt lat="48.36771" lon="-3.7735">
        <ele>204.39999389648</ele>
        <time>2021-09-12T13:44:07Z</time>
      </trkpt>
      <trkpt lat="48.36766" lon="-3.77344">
        <ele>204.19999694824</ele>
        <time>2021-09-12T13:44:08Z</time>
      </trkpt>
      <trkpt lat="48.36762" lon="-3.7734">
        <ele>204</ele>
        <time>2021-09-12T13:44:09Z</time>
      </trkpt>
      <trkpt lat="48.36757" lon="-3.77333">
        <ele>204</ele>
        <time>2021-09-12T13:44:10Z</time>
      </trkpt>
      <trkpt lat="48.36752" lon="-3.77327">
        <ele>204</ele>
        <time>2021-09-12T13:44:11Z</time>
      </trkpt>
      <trkpt lat="48.36747" lon="-3.7732">
        <ele>203.80000305176</ele>
        <time>2021-09-12T13:44:12Z</time>
      </trkpt>
      <trkpt lat="48.36742" lon="-3.77312">
        <ele>203.80000305176</ele>
        <time>2021-09-12T13:44:13Z</time>
      </trkpt>
      <trkpt lat="48.36737" lon="-3.77307">
        <ele>203.60000610352</ele>
        <time>2021-09-12T13:44:14Z</time>
      </trkpt>
      <trkpt lat="48.36731" lon="-3.773">
        <ele>203.60000610352</ele>
        <time>2021-09-12T13:44:15Z</time>
      </trkpt>
      <trkpt lat="48.36725" lon="-3.77296">
        <ele>203.80000305176</ele>
        <time>2021-09-12T13:44:16Z</time>
      </trkpt>
      <trkpt lat="48.3672" lon="-3.77292">
        <ele>203.80000305176</ele>
        <time>2021-09-12T13:44:17Z</time>
      </trkpt>
      <trkpt lat="48.36716" lon="-3.77288">
        <ele>204</ele>
        <time>2021-09-12T13:44:18Z</time>
      </trkpt>
      <trkpt lat="48.36712" lon="-3.77284">
        <ele>204.19999694824</ele>
        <time>2021-09-12T13:44:19Z</time>
      </trkpt>
      <trkpt lat="48.36707" lon="-3.77279">
        <ele>204.19999694824</ele>
        <time>2021-09-12T13:44:20Z</time>
      </trkpt>
      <trkpt lat="48.36702" lon="-3.77273">
        <ele>204.19999694824</ele>
        <time>2021-09-12T13:44:21Z</time>
      </trkpt>
      <trkpt lat="48.36697" lon="-3.77269">
        <ele>204.39999389648</ele>
        <time>2021-09-12T13:44:22Z</time>
      </trkpt>
      <trkpt lat="48.36692" lon="-3.77264">
        <ele>204.39999389648</ele>
        <time>2021-09-12T13:44:23Z</time>
      </trkpt>
      <trkpt lat="48.36687" lon="-3.7726">
        <ele>204.80000305176</ele>
        <time>2021-09-12T13:44:24Z</time>
      </trkpt>
      <trkpt lat="48.36682" lon="-3.77257">
        <ele>204.80000305176</ele>
        <time>2021-09-12T13:44:25Z</time>
      </trkpt>
      <trkpt lat="48.36677" lon="-3.77253">
        <ele>204.80000305176</ele>
        <time>2021-09-12T13:44:26Z</time>
      </trkpt>
      <trkpt lat="48.36673" lon="-3.77249">
        <ele>204.80000305176</ele>
        <time>2021-09-12T13:44:27Z</time>
      </trkpt>
      <trkpt lat="48.36668" lon="-3.77243">
        <ele>205</ele>
        <time>2021-09-12T13:44:28Z</time>
      </trkpt>
      <trkpt lat="48.36663" lon="-3.77236">
        <ele>205.19999694824</ele>
        <time>2021-09-12T13:44:29Z</time>
      </trkpt>
      <trkpt lat="48.36657" lon="-3.77229">
        <ele>205.39999389648</ele>
        <time>2021-09-12T13:44:30Z</time>
      </trkpt>
      <trkpt lat="48.36653" lon="-3.77224">
        <ele>205.39999389648</ele>
        <time>2021-09-12T13:44:31Z</time>
      </trkpt>
      <trkpt lat="48.3665" lon="-3.77215">
        <ele>205.80000305176</ele>
        <time>2021-09-12T13:44:32Z</time>
      </trkpt>
      <trkpt lat="48.36647" lon="-3.77208">
        <ele>205.80000305176</ele>
        <time>2021-09-12T13:44:33Z</time>
      </trkpt>
      <trkpt lat="48.36644" lon="-3.77201">
        <ele>206</ele>
        <time>2021-09-12T13:44:34Z</time>
      </trkpt>
      <trkpt lat="48.36642" lon="-3.77192">
        <ele>206</ele>
        <time>2021-09-12T13:44:35Z</time>
      </trkpt>
      <trkpt lat="48.36641" lon="-3.77186">
        <ele>206</ele>
        <time>2021-09-12T13:44:36Z</time>
      </trkpt>
      <trkpt lat="48.36639" lon="-3.77181">
        <ele>206.19999694824</ele>
        <time>2021-09-12T13:44:37Z</time>
      </trkpt>
      <trkpt lat="48.36637" lon="-3.77174">
        <ele>206.19999694824</ele>
        <time>2021-09-12T13:44:38Z</time>
      </trkpt>
      <trkpt lat="48.36635" lon="-3.77165">
        <ele>206.39999389648</ele>
        <time>2021-09-12T13:44:39Z</time>
      </trkpt>
      <trkpt lat="48.36632" lon="-3.77158">
        <ele>206.39999389648</ele>
        <time>2021-09-12T13:44:40Z</time>
      </trkpt>
      <trkpt lat="48.3663" lon="-3.7715">
        <ele>206.39999389648</ele>
        <time>2021-09-12T13:44:41Z</time>
      </trkpt>
      <trkpt lat="48.36628" lon="-3.77143">
        <ele>206.60000610352</ele>
        <time>2021-09-12T13:44:42Z</time>
      </trkpt>
      <trkpt lat="48.36625" lon="-3.77134">
        <ele>206.60000610352</ele>
        <time>2021-09-12T13:44:43Z</time>
      </trkpt>
      <trkpt lat="48.36622" lon="-3.77127">
        <ele>206.60000610352</ele>
        <time>2021-09-12T13:44:44Z</time>
      </trkpt>
      <trkpt lat="48.36621" lon="-3.77118">
        <ele>207.19999694824</ele>
        <time>2021-09-12T13:44:45Z</time>
      </trkpt>
      <trkpt lat="48.36618" lon="-3.77111">
        <ele>207.39999389648</ele>
        <time>2021-09-12T13:44:46Z</time>
      </trkpt>
      <trkpt lat="48.36616" lon="-3.77106">
        <ele>207.39999389648</ele>
        <time>2021-09-12T13:44:47Z</time>
      </trkpt>
      <trkpt lat="48.36616" lon="-3.771">
        <ele>207.39999389648</ele>
        <time>2021-09-12T13:44:48Z</time>
      </trkpt>
      <trkpt lat="48.36615" lon="-3.77093">
        <ele>207.39999389648</ele>
        <time>2021-09-12T13:44:49Z</time>
      </trkpt>
      <trkpt lat="48.36613" lon="-3.77086">
        <ele>207.39999389648</ele>
        <time>2021-09-12T13:44:50Z</time>
      </trkpt>
      <trkpt lat="48.36612" lon="-3.77077">
        <ele>207.39999389648</ele>
        <time>2021-09-12T13:44:51Z</time>
      </trkpt>
      <trkpt lat="48.3661" lon="-3.77068">
        <ele>207.39999389648</ele>
        <time>2021-09-12T13:44:52Z</time>
      </trkpt>
      <trkpt lat="48.36607" lon="-3.77062">
        <ele>207.39999389648</ele>
        <time>2021-09-12T13:44:53Z</time>
      </trkpt>
      <trkpt lat="48.36607" lon="-3.77054">
        <ele>207.60000610352</ele>
        <time>2021-09-12T13:44:54Z</time>
      </trkpt>
      <trkpt lat="48.36607" lon="-3.77048">
        <ele>207.60000610352</ele>
        <time>2021-09-12T13:44:55Z</time>
      </trkpt>
      <trkpt lat="48.36606" lon="-3.77042">
        <ele>207.60000610352</ele>
        <time>2021-09-12T13:44:56Z</time>
      </trkpt>
      <trkpt lat="48.36605" lon="-3.77037">
        <ele>207.60000610352</ele>
        <time>2021-09-12T13:44:57Z</time>
      </trkpt>
      <trkpt lat="48.36604" lon="-3.77031">
        <ele>207.80000305176</ele>
        <time>2021-09-12T13:44:58Z</time>
      </trkpt>
      <trkpt lat="48.36603" lon="-3.77025">
        <ele>207.80000305176</ele>
        <time>2021-09-12T13:44:59Z</time>
      </trkpt>
      <trkpt lat="48.36602" lon="-3.7702">
        <ele>207.60000610352</ele>
        <time>2021-09-12T13:45:00Z</time>
      </trkpt>
      <trkpt lat="48.36601" lon="-3.77015">
        <ele>207.60000610352</ele>
        <time>2021-09-12T13:45:01Z</time>
      </trkpt>
      <trkpt lat="48.366" lon="-3.7701">
        <ele>207.39999389648</ele>
        <time>2021-09-12T13:45:02Z</time>
      </trkpt>
      <trkpt lat="48.36598" lon="-3.77004">
        <ele>207.39999389648</ele>
        <time>2021-09-12T13:45:03Z</time>
      </trkpt>
      <trkpt lat="48.36597" lon="-3.76997">
        <ele>207.19999694824</ele>
        <time>2021-09-12T13:45:04Z</time>
      </trkpt>
      <trkpt lat="48.36595" lon="-3.76993">
        <ele>206.60000610352</ele>
        <time>2021-09-12T13:45:05Z</time>
      </trkpt>
      <trkpt lat="48.36594" lon="-3.76987">
        <ele>206.19999694824</ele>
        <time>2021-09-12T13:45:06Z</time>
      </trkpt>
      <trkpt lat="48.36592" lon="-3.76981">
        <ele>205.39999389648</ele>
        <time>2021-09-12T13:45:07Z</time>
      </trkpt>
      <trkpt lat="48.3659" lon="-3.76973">
        <ele>205</ele>
        <time>2021-09-12T13:45:08Z</time>
      </trkpt>
      <trkpt lat="48.3659" lon="-3.76965">
        <ele>204</ele>
        <time>2021-09-12T13:45:09Z</time>
      </trkpt>
      <trkpt lat="48.3659" lon="-3.76958">
        <ele>203.80000305176</ele>
        <time>2021-09-12T13:45:10Z</time>
      </trkpt>
      <trkpt lat="48.36589" lon="-3.76947">
        <ele>203.80000305176</ele>
        <time>2021-09-12T13:45:11Z</time>
      </trkpt>
      <trkpt lat="48.3659" lon="-3.76938">
        <ele>203.60000610352</ele>
        <time>2021-09-12T13:45:12Z</time>
      </trkpt>
      <trkpt lat="48.3659" lon="-3.76929">
        <ele>203</ele>
        <time>2021-09-12T13:45:13Z</time>
      </trkpt>
      <trkpt lat="48.36591" lon="-3.76918">
        <ele>202</ele>
        <time>2021-09-12T13:45:14Z</time>
      </trkpt>
      <trkpt lat="48.36591" lon="-3.76907">
        <ele>202</ele>
        <time>2021-09-12T13:45:15Z</time>
      </trkpt>
      <trkpt lat="48.36591" lon="-3.76896">
        <ele>201.60000610352</ele>
        <time>2021-09-12T13:45:16Z</time>
      </trkpt>
      <trkpt lat="48.3659" lon="-3.76882">
        <ele>201.60000610352</ele>
        <time>2021-09-12T13:45:17Z</time>
      </trkpt>
      <trkpt lat="48.36589" lon="-3.76873">
        <ele>201.60000610352</ele>
        <time>2021-09-12T13:45:18Z</time>
      </trkpt>
      <trkpt lat="48.36587" lon="-3.76864">
        <ele>201</ele>
        <time>2021-09-12T13:45:19Z</time>
      </trkpt>
      <trkpt lat="48.36586" lon="-3.76855">
        <ele>201</ele>
        <time>2021-09-12T13:45:20Z</time>
      </trkpt>
      <trkpt lat="48.36587" lon="-3.76846">
        <ele>200.80000305176</ele>
        <time>2021-09-12T13:45:21Z</time>
      </trkpt>
      <trkpt lat="48.36588" lon="-3.76838">
        <ele>200.60000610352</ele>
        <time>2021-09-12T13:45:22Z</time>
      </trkpt>
      <trkpt lat="48.36591" lon="-3.76831">
        <ele>200.39999389648</ele>
        <time>2021-09-12T13:45:23Z</time>
      </trkpt>
      <trkpt lat="48.36592" lon="-3.76823">
        <ele>200.39999389648</ele>
        <time>2021-09-12T13:45:24Z</time>
      </trkpt>
      <trkpt lat="48.36593" lon="-3.76815">
        <ele>200.39999389648</ele>
        <time>2021-09-12T13:45:25Z</time>
      </trkpt>
      <trkpt lat="48.36593" lon="-3.76807">
        <ele>199.80000305176</ele>
        <time>2021-09-12T13:45:26Z</time>
      </trkpt>
      <trkpt lat="48.36593" lon="-3.768">
        <ele>199.80000305176</ele>
        <time>2021-09-12T13:45:27Z</time>
      </trkpt>
      <trkpt lat="48.36593" lon="-3.76792">
        <ele>199.80000305176</ele>
        <time>2021-09-12T13:45:28Z</time>
      </trkpt>
      <trkpt lat="48.36594" lon="-3.76783">
        <ele>199.80000305176</ele>
        <time>2021-09-12T13:45:29Z</time>
      </trkpt>
      <trkpt lat="48.36594" lon="-3.76773">
        <ele>199.80000305176</ele>
        <time>2021-09-12T13:45:30Z</time>
      </trkpt>
      <trkpt lat="48.36593" lon="-3.76763">
        <ele>199.80000305176</ele>
        <time>2021-09-12T13:45:31Z</time>
      </trkpt>
      <trkpt lat="48.36592" lon="-3.76754">
        <ele>199.80000305176</ele>
        <time>2021-09-12T13:45:32Z</time>
      </trkpt>
      <trkpt lat="48.36591" lon="-3.76745">
        <ele>199.80000305176</ele>
        <time>2021-09-12T13:45:33Z</time>
      </trkpt>
      <trkpt lat="48.36591" lon="-3.76737">
        <ele>199.80000305176</ele>
        <time>2021-09-12T13:45:34Z</time>
      </trkpt>
      <trkpt lat="48.36591" lon="-3.7673">
        <ele>199.80000305176</ele>
        <time>2021-09-12T13:45:35Z</time>
      </trkpt>
      <trkpt lat="48.36592" lon="-3.76724">
        <ele>199.80000305176</ele>
        <time>2021-09-12T13:45:36Z</time>
      </trkpt>
      <trkpt lat="48.36592" lon="-3.76715">
        <ele>199.80000305176</ele>
        <time>2021-09-12T13:45:37Z</time>
      </trkpt>
      <trkpt lat="48.36593" lon="-3.76708">
        <ele>200</ele>
        <time>2021-09-12T13:45:38Z</time>
      </trkpt>
      <trkpt lat="48.36594" lon="-3.76701">
        <ele>200</ele>
        <time>2021-09-12T13:45:39Z</time>
      </trkpt>
      <trkpt lat="48.36595" lon="-3.76696">
        <ele>200</ele>
        <time>2021-09-12T13:45:40Z</time>
      </trkpt>
      <trkpt lat="48.36596" lon="-3.76689">
        <ele>200.19999694824</ele>
        <time>2021-09-12T13:45:41Z</time>
      </trkpt>
      <trkpt lat="48.36598" lon="-3.76683">
        <ele>200.80000305176</ele>
        <time>2021-09-12T13:45:42Z</time>
      </trkpt>
      <trkpt lat="48.36599" lon="-3.76676">
        <ele>200.80000305176</ele>
        <time>2021-09-12T13:45:43Z</time>
      </trkpt>
      <trkpt lat="48.36603" lon="-3.76665">
        <ele>201</ele>
        <time>2021-09-12T13:45:44Z</time>
      </trkpt>
      <trkpt lat="48.36603" lon="-3.76658">
        <ele>201.19999694824</ele>
        <time>2021-09-12T13:45:45Z</time>
      </trkpt>
      <trkpt lat="48.36603" lon="-3.76649">
        <ele>201.19999694824</ele>
        <time>2021-09-12T13:45:46Z</time>
      </trkpt>
      <trkpt lat="48.36604" lon="-3.76641">
        <ele>201.39999389648</ele>
        <time>2021-09-12T13:45:47Z</time>
      </trkpt>
      <trkpt lat="48.36604" lon="-3.76635">
        <ele>202</ele>
        <time>2021-09-12T13:45:48Z</time>
      </trkpt>
      <trkpt lat="48.36604" lon="-3.76629">
        <ele>202.19999694824</ele>
        <time>2021-09-12T13:45:49Z</time>
      </trkpt>
      <trkpt lat="48.36603" lon="-3.76622">
        <ele>202.19999694824</ele>
        <time>2021-09-12T13:45:50Z</time>
      </trkpt>
      <trkpt lat="48.36602" lon="-3.76615">
        <ele>202.60000610352</ele>
        <time>2021-09-12T13:45:51Z</time>
      </trkpt>
      <trkpt lat="48.36602" lon="-3.7661">
        <ele>202.80000305176</ele>
        <time>2021-09-12T13:45:52Z</time>
      </trkpt>
      <trkpt lat="48.36602" lon="-3.76603">
        <ele>203</ele>
        <time>2021-09-12T13:45:53Z</time>
      </trkpt>
      <trkpt lat="48.36601" lon="-3.76597">
        <ele>203.19999694824</ele>
        <time>2021-09-12T13:45:54Z</time>
      </trkpt>
      <trkpt lat="48.36601" lon="-3.76589">
        <ele>203.60000610352</ele>
        <time>2021-09-12T13:45:55Z</time>
      </trkpt>
      <trkpt lat="48.36601" lon="-3.76584">
        <ele>204</ele>
        <time>2021-09-12T13:45:56Z</time>
      </trkpt>
      <trkpt lat="48.36599" lon="-3.76579">
        <ele>204.19999694824</ele>
        <time>2021-09-12T13:45:57Z</time>
      </trkpt>
      <trkpt lat="48.36597" lon="-3.76574">
        <ele>204.19999694824</ele>
        <time>2021-09-12T13:45:58Z</time>
      </trkpt>
      <trkpt lat="48.36594" lon="-3.76568">
        <ele>204.39999389648</ele>
        <time>2021-09-12T13:45:59Z</time>
      </trkpt>
      <trkpt lat="48.36591" lon="-3.76562">
        <ele>204.39999389648</ele>
        <time>2021-09-12T13:46:00Z</time>
      </trkpt>
      <trkpt lat="48.36588" lon="-3.76554">
        <ele>204.19999694824</ele>
        <time>2021-09-12T13:46:01Z</time>
      </trkpt>
      <trkpt lat="48.36584" lon="-3.76548">
        <ele>204.19999694824</ele>
        <time>2021-09-12T13:46:02Z</time>
      </trkpt>
      <trkpt lat="48.36581" lon="-3.76542">
        <ele>204</ele>
        <time>2021-09-12T13:46:03Z</time>
      </trkpt>
      <trkpt lat="48.36579" lon="-3.76538">
        <ele>203.80000305176</ele>
        <time>2021-09-12T13:46:04Z</time>
      </trkpt>
      <trkpt lat="48.36576" lon="-3.76531">
        <ele>203.60000610352</ele>
        <time>2021-09-12T13:46:05Z</time>
      </trkpt>
      <trkpt lat="48.36573" lon="-3.76526">
        <ele>203.60000610352</ele>
        <time>2021-09-12T13:46:06Z</time>
      </trkpt>
      <trkpt lat="48.3657" lon="-3.7652">
        <ele>203.60000610352</ele>
        <time>2021-09-12T13:46:07Z</time>
      </trkpt>
      <trkpt lat="48.36567" lon="-3.76516">
        <ele>203.60000610352</ele>
        <time>2021-09-12T13:46:08Z</time>
      </trkpt>
      <trkpt lat="48.36564" lon="-3.7651">
        <ele>203.60000610352</ele>
        <time>2021-09-12T13:46:09Z</time>
      </trkpt>
      <trkpt lat="48.36559" lon="-3.76504">
        <ele>203.60000610352</ele>
        <time>2021-09-12T13:46:10Z</time>
      </trkpt>
      <trkpt lat="48.36554" lon="-3.765">
        <ele>203.60000610352</ele>
        <time>2021-09-12T13:46:11Z</time>
      </trkpt>
      <trkpt lat="48.3655" lon="-3.76496">
        <ele>203.60000610352</ele>
        <time>2021-09-12T13:46:12Z</time>
      </trkpt>
      <trkpt lat="48.36546" lon="-3.76493">
        <ele>203.60000610352</ele>
        <time>2021-09-12T13:46:13Z</time>
      </trkpt>
      <trkpt lat="48.36541" lon="-3.76489">
        <ele>203.60000610352</ele>
        <time>2021-09-12T13:46:14Z</time>
      </trkpt>
      <trkpt lat="48.36536" lon="-3.76484">
        <ele>203.60000610352</ele>
        <time>2021-09-12T13:46:15Z</time>
      </trkpt>
      <trkpt lat="48.36531" lon="-3.76481">
        <ele>203.60000610352</ele>
        <time>2021-09-12T13:46:16Z</time>
      </trkpt>
      <trkpt lat="48.36526" lon="-3.76477">
        <ele>203.60000610352</ele>
        <time>2021-09-12T13:46:17Z</time>
      </trkpt>
      <trkpt lat="48.36523" lon="-3.76475">
        <ele>204</ele>
        <time>2021-09-12T13:46:18Z</time>
      </trkpt>
      <trkpt lat="48.36518" lon="-3.76471">
        <ele>204.19999694824</ele>
        <time>2021-09-12T13:46:19Z</time>
      </trkpt>
      <trkpt lat="48.36514" lon="-3.76468">
        <ele>204.19999694824</ele>
        <time>2021-09-12T13:46:20Z</time>
      </trkpt>
      <trkpt lat="48.36509" lon="-3.76465">
        <ele>204.39999389648</ele>
        <time>2021-09-12T13:46:21Z</time>
      </trkpt>
      <trkpt lat="48.36505" lon="-3.76462">
        <ele>204.60000610352</ele>
        <time>2021-09-12T13:46:22Z</time>
      </trkpt>
      <trkpt lat="48.36502" lon="-3.7646">
        <ele>205.19999694824</ele>
        <time>2021-09-12T13:46:23Z</time>
      </trkpt>
      <trkpt lat="48.36498" lon="-3.76457">
        <ele>205.39999389648</ele>
        <time>2021-09-12T13:46:24Z</time>
      </trkpt>
      <trkpt lat="48.36493" lon="-3.76453">
        <ele>205.60000610352</ele>
        <time>2021-09-12T13:46:25Z</time>
      </trkpt>
      <trkpt lat="48.3649" lon="-3.76449">
        <ele>205.80000305176</ele>
        <time>2021-09-12T13:46:26Z</time>
      </trkpt>
      <trkpt lat="48.36486" lon="-3.76446">
        <ele>205.80000305176</ele>
        <time>2021-09-12T13:46:27Z</time>
      </trkpt>
      <trkpt lat="48.36483" lon="-3.76444">
        <ele>206</ele>
        <time>2021-09-12T13:46:28Z</time>
      </trkpt>
      <trkpt lat="48.3648" lon="-3.76441">
        <ele>206.39999389648</ele>
        <time>2021-09-12T13:46:29Z</time>
      </trkpt>
      <trkpt lat="48.36475" lon="-3.76438">
        <ele>206.39999389648</ele>
        <time>2021-09-12T13:46:30Z</time>
      </trkpt>
      <trkpt lat="48.36472" lon="-3.76434">
        <ele>207</ele>
        <time>2021-09-12T13:46:31Z</time>
      </trkpt>
      <trkpt lat="48.36469" lon="-3.76432">
        <ele>207.19999694824</ele>
        <time>2021-09-12T13:46:32Z</time>
      </trkpt>
      <trkpt lat="48.36466" lon="-3.76429">
        <ele>207.39999389648</ele>
        <time>2021-09-12T13:46:33Z</time>
      </trkpt>
      <trkpt lat="48.36462" lon="-3.76426">
        <ele>207.60000610352</ele>
        <time>2021-09-12T13:46:34Z</time>
      </trkpt>
      <trkpt lat="48.36458" lon="-3.76423">
        <ele>208</ele>
        <time>2021-09-12T13:46:35Z</time>
      </trkpt>
      <trkpt lat="48.36454" lon="-3.7642">
        <ele>208.39999389648</ele>
        <time>2021-09-12T13:46:36Z</time>
      </trkpt>
      <trkpt lat="48.36451" lon="-3.76416">
        <ele>208.60000610352</ele>
        <time>2021-09-12T13:46:37Z</time>
      </trkpt>
      <trkpt lat="48.36448" lon="-3.76412">
        <ele>208.80000305176</ele>
        <time>2021-09-12T13:46:38Z</time>
      </trkpt>
      <trkpt lat="48.36443" lon="-3.76407">
        <ele>209.19999694824</ele>
        <time>2021-09-12T13:46:39Z</time>
      </trkpt>
      <trkpt lat="48.36439" lon="-3.76403">
        <ele>209.19999694824</ele>
        <time>2021-09-12T13:46:40Z</time>
      </trkpt>
      <trkpt lat="48.36435" lon="-3.76399">
        <ele>210</ele>
        <time>2021-09-12T13:46:41Z</time>
      </trkpt>
      <trkpt lat="48.36432" lon="-3.76395">
        <ele>210</ele>
        <time>2021-09-12T13:46:42Z</time>
      </trkpt>
      <trkpt lat="48.36429" lon="-3.76392">
        <ele>210.19999694824</ele>
        <time>2021-09-12T13:46:43Z</time>
      </trkpt>
      <trkpt lat="48.36425" lon="-3.76388">
        <ele>210.19999694824</ele>
        <time>2021-09-12T13:46:44Z</time>
      </trkpt>
      <trkpt lat="48.36422" lon="-3.76385">
        <ele>210.60000610352</ele>
        <time>2021-09-12T13:46:45Z</time>
      </trkpt>
      <trkpt lat="48.36418" lon="-3.76381">
        <ele>211.19999694824</ele>
        <time>2021-09-12T13:46:46Z</time>
      </trkpt>
      <trkpt lat="48.36415" lon="-3.76378">
        <ele>211.19999694824</ele>
        <time>2021-09-12T13:46:47Z</time>
      </trkpt>
      <trkpt lat="48.36411" lon="-3.76375">
        <ele>211.19999694824</ele>
        <time>2021-09-12T13:46:48Z</time>
      </trkpt>
      <trkpt lat="48.36407" lon="-3.76372">
        <ele>211.19999694824</ele>
        <time>2021-09-12T13:46:49Z</time>
      </trkpt>
      <trkpt lat="48.36404" lon="-3.76368">
        <ele>211.19999694824</ele>
        <time>2021-09-12T13:46:50Z</time>
      </trkpt>
      <trkpt lat="48.364" lon="-3.76364">
        <ele>211.19999694824</ele>
        <time>2021-09-12T13:46:51Z</time>
      </trkpt>
      <trkpt lat="48.36397" lon="-3.7636">
        <ele>211.19999694824</ele>
        <time>2021-09-12T13:46:52Z</time>
      </trkpt>
      <trkpt lat="48.36393" lon="-3.76357">
        <ele>211.19999694824</ele>
        <time>2021-09-12T13:46:53Z</time>
      </trkpt>
      <trkpt lat="48.36389" lon="-3.76353">
        <ele>211</ele>
        <time>2021-09-12T13:46:54Z</time>
      </trkpt>
      <trkpt lat="48.36384" lon="-3.76348">
        <ele>210.80000305176</ele>
        <time>2021-09-12T13:46:55Z</time>
      </trkpt>
      <trkpt lat="48.3638" lon="-3.76344">
        <ele>210.60000610352</ele>
        <time>2021-09-12T13:46:56Z</time>
      </trkpt>
      <trkpt lat="48.36376" lon="-3.76341">
        <ele>210.60000610352</ele>
        <time>2021-09-12T13:46:57Z</time>
      </trkpt>
      <trkpt lat="48.36373" lon="-3.76335">
        <ele>210.39999389648</ele>
        <time>2021-09-12T13:46:58Z</time>
      </trkpt>
      <trkpt lat="48.36371" lon="-3.76328">
        <ele>210</ele>
        <time>2021-09-12T13:46:59Z</time>
      </trkpt>
      <trkpt lat="48.36372" lon="-3.76321">
        <ele>209.60000610352</ele>
        <time>2021-09-12T13:47:00Z</time>
      </trkpt>
      <trkpt lat="48.36374" lon="-3.76314">
        <ele>208.80000305176</ele>
        <time>2021-09-12T13:47:01Z</time>
      </trkpt>
      <trkpt lat="48.36377" lon="-3.76309">
        <ele>208.80000305176</ele>
        <time>2021-09-12T13:47:02Z</time>
      </trkpt>
      <trkpt lat="48.36382" lon="-3.76304">
        <ele>208.60000610352</ele>
        <time>2021-09-12T13:47:03Z</time>
      </trkpt>
      <trkpt lat="48.36386" lon="-3.763">
        <ele>208.60000610352</ele>
        <time>2021-09-12T13:47:04Z</time>
      </trkpt>
      <trkpt lat="48.36391" lon="-3.76295">
        <ele>208.39999389648</ele>
        <time>2021-09-12T13:47:05Z</time>
      </trkpt>
      <trkpt lat="48.36395" lon="-3.76291">
        <ele>207.80000305176</ele>
        <time>2021-09-12T13:47:06Z</time>
      </trkpt>
      <trkpt lat="48.36399" lon="-3.76286">
        <ele>207.80000305176</ele>
        <time>2021-09-12T13:47:07Z</time>
      </trkpt>
      <trkpt lat="48.36403" lon="-3.76281">
        <ele>207.39999389648</ele>
        <time>2021-09-12T13:47:08Z</time>
      </trkpt>
      <trkpt lat="48.36408" lon="-3.76276">
        <ele>206</ele>
        <time>2021-09-12T13:47:09Z</time>
      </trkpt>
      <trkpt lat="48.36413" lon="-3.7627">
        <ele>205.60000610352</ele>
        <time>2021-09-12T13:47:10Z</time>
      </trkpt>
      <trkpt lat="48.3642" lon="-3.76262">
        <ele>204.39999389648</ele>
        <time>2021-09-12T13:47:11Z</time>
      </trkpt>
      <trkpt lat="48.36426" lon="-3.76255">
        <ele>203.39999389648</ele>
        <time>2021-09-12T13:47:12Z</time>
      </trkpt>
      <trkpt lat="48.36432" lon="-3.76248">
        <ele>202.80000305176</ele>
        <time>2021-09-12T13:47:13Z</time>
      </trkpt>
      <trkpt lat="48.36438" lon="-3.76241">
        <ele>202.80000305176</ele>
        <time>2021-09-12T13:47:14Z</time>
      </trkpt>
      <trkpt lat="48.36443" lon="-3.76235">
        <ele>201.80000305176</ele>
        <time>2021-09-12T13:47:15Z</time>
      </trkpt>
      <trkpt lat="48.3645" lon="-3.76228">
        <ele>201.39999389648</ele>
        <time>2021-09-12T13:47:16Z</time>
      </trkpt>
      <trkpt lat="48.36458" lon="-3.76219">
        <ele>201.39999389648</ele>
        <time>2021-09-12T13:47:17Z</time>
      </trkpt>
      <trkpt lat="48.36465" lon="-3.7621">
        <ele>201.19999694824</ele>
        <time>2021-09-12T13:47:18Z</time>
      </trkpt>
      <trkpt lat="48.36469" lon="-3.76201">
        <ele>201</ele>
        <time>2021-09-12T13:47:19Z</time>
      </trkpt>
      <trkpt lat="48.36473" lon="-3.76192">
        <ele>200.80000305176</ele>
        <time>2021-09-12T13:47:20Z</time>
      </trkpt>
      <trkpt lat="48.36478" lon="-3.76184">
        <ele>200.39999389648</ele>
        <time>2021-09-12T13:47:21Z</time>
      </trkpt>
      <trkpt lat="48.36484" lon="-3.76176">
        <ele>199.80000305176</ele>
        <time>2021-09-12T13:47:22Z</time>
      </trkpt>
      <trkpt lat="48.3649" lon="-3.76168">
        <ele>199.39999389648</ele>
        <time>2021-09-12T13:47:23Z</time>
      </trkpt>
      <trkpt lat="48.36496" lon="-3.76159">
        <ele>198.60000610352</ele>
        <time>2021-09-12T13:47:24Z</time>
      </trkpt>
      <trkpt lat="48.36504" lon="-3.7615">
        <ele>198.19999694824</ele>
        <time>2021-09-12T13:47:25Z</time>
      </trkpt>
      <trkpt lat="48.36511" lon="-3.7614">
        <ele>197.39999389648</ele>
        <time>2021-09-12T13:47:26Z</time>
      </trkpt>
      <trkpt lat="48.36517" lon="-3.7613">
        <ele>196.80000305176</ele>
        <time>2021-09-12T13:47:27Z</time>
      </trkpt>
      <trkpt lat="48.36524" lon="-3.7612">
        <ele>196</ele>
        <time>2021-09-12T13:47:28Z</time>
      </trkpt>
      <trkpt lat="48.36532" lon="-3.76109">
        <ele>195.19999694824</ele>
        <time>2021-09-12T13:47:29Z</time>
      </trkpt>
      <trkpt lat="48.36539" lon="-3.76099">
        <ele>194.19999694824</ele>
        <time>2021-09-12T13:47:30Z</time>
      </trkpt>
      <trkpt lat="48.36547" lon="-3.76088">
        <ele>193.39999389648</ele>
        <time>2021-09-12T13:47:31Z</time>
      </trkpt>
      <trkpt lat="48.36557" lon="-3.76076">
        <ele>192.19999694824</ele>
        <time>2021-09-12T13:47:32Z</time>
      </trkpt>
      <trkpt lat="48.36565" lon="-3.76066">
        <ele>192.19999694824</ele>
        <time>2021-09-12T13:47:33Z</time>
      </trkpt>
      <trkpt lat="48.36572" lon="-3.76056">
        <ele>191.80000305176</ele>
        <time>2021-09-12T13:47:34Z</time>
      </trkpt>
      <trkpt lat="48.36574" lon="-3.76049">
        <ele>190.19999694824</ele>
        <time>2021-09-12T13:47:35Z</time>
      </trkpt>
      <trkpt lat="48.36572" lon="-3.76042">
        <ele>189.60000610352</ele>
        <time>2021-09-12T13:47:36Z</time>
      </trkpt>
      <trkpt lat="48.36569" lon="-3.76037">
        <ele>189.39999389648</ele>
        <time>2021-09-12T13:47:37Z</time>
      </trkpt>
      <trkpt lat="48.36567" lon="-3.7603">
        <ele>189.19999694824</ele>
        <time>2021-09-12T13:47:38Z</time>
      </trkpt>
      <trkpt lat="48.36567" lon="-3.76023">
        <ele>189.19999694824</ele>
        <time>2021-09-12T13:47:39Z</time>
      </trkpt>
      <trkpt lat="48.36565" lon="-3.76014">
        <ele>189.19999694824</ele>
        <time>2021-09-12T13:47:40Z</time>
      </trkpt>
      <trkpt lat="48.36563" lon="-3.76005">
        <ele>189</ele>
        <time>2021-09-12T13:47:41Z</time>
      </trkpt>
      <trkpt lat="48.36562" lon="-3.75996">
        <ele>188.80000305176</ele>
        <time>2021-09-12T13:47:42Z</time>
      </trkpt>
      <trkpt lat="48.3656" lon="-3.75987">
        <ele>188.60000610352</ele>
        <time>2021-09-12T13:47:43Z</time>
      </trkpt>
      <trkpt lat="48.3656" lon="-3.75979">
        <ele>188.19999694824</ele>
        <time>2021-09-12T13:47:44Z</time>
      </trkpt>
      <trkpt lat="48.3656" lon="-3.75967">
        <ele>187.60000610352</ele>
        <time>2021-09-12T13:47:45Z</time>
      </trkpt>
      <trkpt lat="48.36559" lon="-3.75958">
        <ele>187.60000610352</ele>
        <time>2021-09-12T13:47:46Z</time>
      </trkpt>
      <trkpt lat="48.36558" lon="-3.75949">
        <ele>187.19999694824</ele>
        <time>2021-09-12T13:47:47Z</time>
      </trkpt>
      <trkpt lat="48.36558" lon="-3.75939">
        <ele>187.19999694824</ele>
        <time>2021-09-12T13:47:48Z</time>
      </trkpt>
      <trkpt lat="48.36557" lon="-3.7593">
        <ele>187.19999694824</ele>
        <time>2021-09-12T13:47:49Z</time>
      </trkpt>
      <trkpt lat="48.36556" lon="-3.75921">
        <ele>186.80000305176</ele>
        <time>2021-09-12T13:47:50Z</time>
      </trkpt>
      <trkpt lat="48.36554" lon="-3.75912">
        <ele>186.60000610352</ele>
        <time>2021-09-12T13:47:51Z</time>
      </trkpt>
      <trkpt lat="48.36553" lon="-3.75905">
        <ele>186.39999389648</ele>
        <time>2021-09-12T13:47:52Z</time>
      </trkpt>
      <trkpt lat="48.36552" lon="-3.75898">
        <ele>186</ele>
        <time>2021-09-12T13:47:53Z</time>
      </trkpt>
      <trkpt lat="48.36551" lon="-3.75893">
        <ele>185.19999694824</ele>
        <time>2021-09-12T13:47:54Z</time>
      </trkpt>
      <trkpt lat="48.36549" lon="-3.75888">
        <ele>185.19999694824</ele>
        <time>2021-09-12T13:47:55Z</time>
      </trkpt>
      <trkpt lat="48.36547" lon="-3.75882">
        <ele>185.19999694824</ele>
        <time>2021-09-12T13:47:56Z</time>
      </trkpt>
      <trkpt lat="48.36546" lon="-3.75876">
        <ele>185.19999694824</ele>
        <time>2021-09-12T13:47:57Z</time>
      </trkpt>
      <trkpt lat="48.36545" lon="-3.75871">
        <ele>185.19999694824</ele>
        <time>2021-09-12T13:47:58Z</time>
      </trkpt>
      <trkpt lat="48.36543" lon="-3.75866">
        <ele>185.19999694824</ele>
        <time>2021-09-12T13:47:59Z</time>
      </trkpt>
      <trkpt lat="48.36542" lon="-3.7586">
        <ele>185.19999694824</ele>
        <time>2021-09-12T13:48:00Z</time>
      </trkpt>
      <trkpt lat="48.36541" lon="-3.75855">
        <ele>185</ele>
        <time>2021-09-12T13:48:01Z</time>
      </trkpt>
      <trkpt lat="48.3654" lon="-3.75849">
        <ele>185</ele>
        <time>2021-09-12T13:48:02Z</time>
      </trkpt>
      <trkpt lat="48.36539" lon="-3.75843">
        <ele>185</ele>
        <time>2021-09-12T13:48:03Z</time>
      </trkpt>
      <trkpt lat="48.36537" lon="-3.75838">
        <ele>185</ele>
        <time>2021-09-12T13:48:04Z</time>
      </trkpt>
      <trkpt lat="48.36537" lon="-3.75833">
        <ele>184.60000610352</ele>
        <time>2021-09-12T13:48:05Z</time>
      </trkpt>
      <trkpt lat="48.36536" lon="-3.75824">
        <ele>183.80000305176</ele>
        <time>2021-09-12T13:48:06Z</time>
      </trkpt>
      <trkpt lat="48.36533" lon="-3.75817">
        <ele>183.60000610352</ele>
        <time>2021-09-12T13:48:07Z</time>
      </trkpt>
      <trkpt lat="48.36528" lon="-3.75807">
        <ele>183.39999389648</ele>
        <time>2021-09-12T13:48:08Z</time>
      </trkpt>
      <trkpt lat="48.36524" lon="-3.75797">
        <ele>183.39999389648</ele>
        <time>2021-09-12T13:48:09Z</time>
      </trkpt>
      <trkpt lat="48.36519" lon="-3.75791">
        <ele>183.39999389648</ele>
        <time>2021-09-12T13:48:10Z</time>
      </trkpt>
      <trkpt lat="48.36517" lon="-3.75786">
        <ele>183.39999389648</ele>
        <time>2021-09-12T13:48:11Z</time>
      </trkpt>
      <trkpt lat="48.36516" lon="-3.75784">
        <ele>184.39999389648</ele>
        <time>2021-09-12T13:48:12Z</time>
      </trkpt>
      <trkpt lat="48.36516" lon="-3.75781">
        <ele>185.19999694824</ele>
        <time>2021-09-12T13:48:13Z</time>
      </trkpt>
      <trkpt lat="48.36514" lon="-3.75776">
        <ele>185.60000610352</ele>
        <time>2021-09-12T13:48:14Z</time>
      </trkpt>
      <trkpt lat="48.36514" lon="-3.75773">
        <ele>185.60000610352</ele>
        <time>2021-09-12T13:48:15Z</time>
      </trkpt>
      <trkpt lat="48.36516" lon="-3.75771">
        <ele>185.60000610352</ele>
        <time>2021-09-12T13:48:16Z</time>
      </trkpt>
      <trkpt lat="48.36521" lon="-3.75769">
        <ele>185.60000610352</ele>
        <time>2021-09-12T13:48:17Z</time>
      </trkpt>
      <trkpt lat="48.36525" lon="-3.75767">
        <ele>185.19999694824</ele>
        <time>2021-09-12T13:48:18Z</time>
      </trkpt>
      <trkpt lat="48.36529" lon="-3.75765">
        <ele>184.60000610352</ele>
        <time>2021-09-12T13:48:19Z</time>
      </trkpt>
      <trkpt lat="48.36534" lon="-3.75763">
        <ele>183.80000305176</ele>
        <time>2021-09-12T13:48:20Z</time>
      </trkpt>
      <trkpt lat="48.36537" lon="-3.7576">
        <ele>183.80000305176</ele>
        <time>2021-09-12T13:48:21Z</time>
      </trkpt>
      <trkpt lat="48.36541" lon="-3.75758">
        <ele>183.80000305176</ele>
        <time>2021-09-12T13:48:22Z</time>
      </trkpt>
      <trkpt lat="48.36545" lon="-3.75757">
        <ele>183.80000305176</ele>
        <time>2021-09-12T13:48:23Z</time>
      </trkpt>
      <trkpt lat="48.3655" lon="-3.75755">
        <ele>183.60000610352</ele>
        <time>2021-09-12T13:48:24Z</time>
      </trkpt>
      <trkpt lat="48.36554" lon="-3.75753">
        <ele>183.60000610352</ele>
        <time>2021-09-12T13:48:25Z</time>
      </trkpt>
      <trkpt lat="48.36558" lon="-3.75751">
        <ele>183.60000610352</ele>
        <time>2021-09-12T13:48:26Z</time>
      </trkpt>
      <trkpt lat="48.36563" lon="-3.75749">
        <ele>183.39999389648</ele>
        <time>2021-09-12T13:48:27Z</time>
      </trkpt>
      <trkpt lat="48.36569" lon="-3.75747">
        <ele>183.39999389648</ele>
        <time>2021-09-12T13:48:28Z</time>
      </trkpt>
      <trkpt lat="48.36574" lon="-3.75744">
        <ele>183.19999694824</ele>
        <time>2021-09-12T13:48:29Z</time>
      </trkpt>
      <trkpt lat="48.36579" lon="-3.75742">
        <ele>183</ele>
        <time>2021-09-12T13:48:30Z</time>
      </trkpt>
      <trkpt lat="48.36583" lon="-3.75738">
        <ele>182.80000305176</ele>
        <time>2021-09-12T13:48:31Z</time>
      </trkpt>
      <trkpt lat="48.36588" lon="-3.75733">
        <ele>182.80000305176</ele>
        <time>2021-09-12T13:48:32Z</time>
      </trkpt>
      <trkpt lat="48.36593" lon="-3.75728">
        <ele>182.80000305176</ele>
        <time>2021-09-12T13:48:33Z</time>
      </trkpt>
      <trkpt lat="48.36597" lon="-3.75722">
        <ele>182.80000305176</ele>
        <time>2021-09-12T13:48:34Z</time>
      </trkpt>
      <trkpt lat="48.36601" lon="-3.75715">
        <ele>182.60000610352</ele>
        <time>2021-09-12T13:48:35Z</time>
      </trkpt>
      <trkpt lat="48.36605" lon="-3.75709">
        <ele>182.60000610352</ele>
        <time>2021-09-12T13:48:36Z</time>
      </trkpt>
      <trkpt lat="48.36607" lon="-3.75702">
        <ele>182.39999389648</ele>
        <time>2021-09-12T13:48:37Z</time>
      </trkpt>
      <trkpt lat="48.36609" lon="-3.75695">
        <ele>182</ele>
        <time>2021-09-12T13:48:38Z</time>
      </trkpt>
      <trkpt lat="48.36609" lon="-3.75687">
        <ele>182</ele>
        <time>2021-09-12T13:48:39Z</time>
      </trkpt>
      <trkpt lat="48.36609" lon="-3.7568">
        <ele>182</ele>
        <time>2021-09-12T13:48:40Z</time>
      </trkpt>
      <trkpt lat="48.36609" lon="-3.75675">
        <ele>182.19999694824</ele>
        <time>2021-09-12T13:48:41Z</time>
      </trkpt>
      <trkpt lat="48.36608" lon="-3.75667">
        <ele>182.19999694824</ele>
        <time>2021-09-12T13:48:42Z</time>
      </trkpt>
      <trkpt lat="48.36607" lon="-3.75661">
        <ele>182.19999694824</ele>
        <time>2021-09-12T13:48:43Z</time>
      </trkpt>
      <trkpt lat="48.36606" lon="-3.75654">
        <ele>182.39999389648</ele>
        <time>2021-09-12T13:48:44Z</time>
      </trkpt>
      <trkpt lat="48.36603" lon="-3.75647">
        <ele>182.39999389648</ele>
        <time>2021-09-12T13:48:45Z</time>
      </trkpt>
      <trkpt lat="48.366" lon="-3.75641">
        <ele>182.39999389648</ele>
        <time>2021-09-12T13:48:46Z</time>
      </trkpt>
      <trkpt lat="48.36598" lon="-3.75634">
        <ele>182.60000610352</ele>
        <time>2021-09-12T13:48:47Z</time>
      </trkpt>
      <trkpt lat="48.36595" lon="-3.75628">
        <ele>182.60000610352</ele>
        <time>2021-09-12T13:48:48Z</time>
      </trkpt>
      <trkpt lat="48.36593" lon="-3.75622">
        <ele>182.60000610352</ele>
        <time>2021-09-12T13:48:49Z</time>
      </trkpt>
      <trkpt lat="48.36591" lon="-3.75617">
        <ele>182.60000610352</ele>
        <time>2021-09-12T13:48:50Z</time>
      </trkpt>
      <trkpt lat="48.36588" lon="-3.7561">
        <ele>182.60000610352</ele>
        <time>2021-09-12T13:48:51Z</time>
      </trkpt>
      <trkpt lat="48.36585" lon="-3.75603">
        <ele>182.60000610352</ele>
        <time>2021-09-12T13:48:52Z</time>
      </trkpt>
      <trkpt lat="48.36582" lon="-3.75598">
        <ele>182.60000610352</ele>
        <time>2021-09-12T13:48:53Z</time>
      </trkpt>
      <trkpt lat="48.3658" lon="-3.75591">
        <ele>182.60000610352</ele>
        <time>2021-09-12T13:48:54Z</time>
      </trkpt>
      <trkpt lat="48.36577" lon="-3.75585">
        <ele>182.60000610352</ele>
        <time>2021-09-12T13:48:55Z</time>
      </trkpt>
      <trkpt lat="48.36575" lon="-3.75578">
        <ele>182.60000610352</ele>
        <time>2021-09-12T13:48:56Z</time>
      </trkpt>
      <trkpt lat="48.36573" lon="-3.75572">
        <ele>182.60000610352</ele>
        <time>2021-09-12T13:48:57Z</time>
      </trkpt>
      <trkpt lat="48.36572" lon="-3.75565">
        <ele>182.39999389648</ele>
        <time>2021-09-12T13:48:58Z</time>
      </trkpt>
      <trkpt lat="48.3657" lon="-3.75557">
        <ele>182.60000610352</ele>
        <time>2021-09-12T13:48:59Z</time>
      </trkpt>
      <trkpt lat="48.36569" lon="-3.75549">
        <ele>182.60000610352</ele>
        <time>2021-09-12T13:49:00Z</time>
      </trkpt>
      <trkpt lat="48.36567" lon="-3.75542">
        <ele>182.60000610352</ele>
        <time>2021-09-12T13:49:01Z</time>
      </trkpt>
      <trkpt lat="48.36564" lon="-3.75535">
        <ele>182.60000610352</ele>
        <time>2021-09-12T13:49:02Z</time>
      </trkpt>
      <trkpt lat="48.36561" lon="-3.75527">
        <ele>182.60000610352</ele>
        <time>2021-09-12T13:49:03Z</time>
      </trkpt>
      <trkpt lat="48.36558" lon="-3.7552">
        <ele>182.39999389648</ele>
        <time>2021-09-12T13:49:04Z</time>
      </trkpt>
      <trkpt lat="48.36555" lon="-3.75512">
        <ele>182.19999694824</ele>
        <time>2021-09-12T13:49:05Z</time>
      </trkpt>
      <trkpt lat="48.36551" lon="-3.75504">
        <ele>182.19999694824</ele>
        <time>2021-09-12T13:49:06Z</time>
      </trkpt>
      <trkpt lat="48.36548" lon="-3.75496">
        <ele>182</ele>
        <time>2021-09-12T13:49:07Z</time>
      </trkpt>
      <trkpt lat="48.36545" lon="-3.75488">
        <ele>181.60000610352</ele>
        <time>2021-09-12T13:49:08Z</time>
      </trkpt>
      <trkpt lat="48.36543" lon="-3.75479">
        <ele>181.19999694824</ele>
        <time>2021-09-12T13:49:09Z</time>
      </trkpt>
      <trkpt lat="48.3654" lon="-3.75471">
        <ele>181.19999694824</ele>
        <time>2021-09-12T13:49:10Z</time>
      </trkpt>
      <trkpt lat="48.36537" lon="-3.75463">
        <ele>181</ele>
        <time>2021-09-12T13:49:11Z</time>
      </trkpt>
      <trkpt lat="48.36535" lon="-3.75455">
        <ele>180.80000305176</ele>
        <time>2021-09-12T13:49:12Z</time>
      </trkpt>
      <trkpt lat="48.36532" lon="-3.75448">
        <ele>180.80000305176</ele>
        <time>2021-09-12T13:49:13Z</time>
      </trkpt>
      <trkpt lat="48.3653" lon="-3.75441">
        <ele>180.80000305176</ele>
        <time>2021-09-12T13:49:14Z</time>
      </trkpt>
      <trkpt lat="48.36528" lon="-3.75434">
        <ele>181</ele>
        <time>2021-09-12T13:49:15Z</time>
      </trkpt>
      <trkpt lat="48.36526" lon="-3.75426">
        <ele>181</ele>
        <time>2021-09-12T13:49:16Z</time>
      </trkpt>
      <trkpt lat="48.36524" lon="-3.75418">
        <ele>181</ele>
        <time>2021-09-12T13:49:17Z</time>
      </trkpt>
      <trkpt lat="48.36523" lon="-3.75411">
        <ele>181</ele>
        <time>2021-09-12T13:49:18Z</time>
      </trkpt>
      <trkpt lat="48.36521" lon="-3.75403">
        <ele>181</ele>
        <time>2021-09-12T13:49:19Z</time>
      </trkpt>
      <trkpt lat="48.3652" lon="-3.75395">
        <ele>181</ele>
        <time>2021-09-12T13:49:20Z</time>
      </trkpt>
      <trkpt lat="48.36518" lon="-3.75387">
        <ele>181</ele>
        <time>2021-09-12T13:49:21Z</time>
      </trkpt>
      <trkpt lat="48.36517" lon="-3.75379">
        <ele>181</ele>
        <time>2021-09-12T13:49:22Z</time>
      </trkpt>
      <trkpt lat="48.36516" lon="-3.75371">
        <ele>181</ele>
        <time>2021-09-12T13:49:23Z</time>
      </trkpt>
      <trkpt lat="48.36515" lon="-3.75363">
        <ele>181</ele>
        <time>2021-09-12T13:49:24Z</time>
      </trkpt>
      <trkpt lat="48.36514" lon="-3.75356">
        <ele>181</ele>
        <time>2021-09-12T13:49:25Z</time>
      </trkpt>
      <trkpt lat="48.36512" lon="-3.75348">
        <ele>181</ele>
        <time>2021-09-12T13:49:26Z</time>
      </trkpt>
      <trkpt lat="48.36511" lon="-3.7534">
        <ele>181</ele>
        <time>2021-09-12T13:49:27Z</time>
      </trkpt>
      <trkpt lat="48.3651" lon="-3.75332">
        <ele>181</ele>
        <time>2021-09-12T13:49:28Z</time>
      </trkpt>
      <trkpt lat="48.36509" lon="-3.75325">
        <ele>181</ele>
        <time>2021-09-12T13:49:29Z</time>
      </trkpt>
      <trkpt lat="48.36508" lon="-3.75317">
        <ele>181</ele>
        <time>2021-09-12T13:49:30Z</time>
      </trkpt>
      <trkpt lat="48.36507" lon="-3.7531">
        <ele>181.19999694824</ele>
        <time>2021-09-12T13:49:31Z</time>
      </trkpt>
      <trkpt lat="48.36506" lon="-3.75303">
        <ele>181</ele>
        <time>2021-09-12T13:49:32Z</time>
      </trkpt>
      <trkpt lat="48.36505" lon="-3.75295">
        <ele>181</ele>
        <time>2021-09-12T13:49:33Z</time>
      </trkpt>
      <trkpt lat="48.36504" lon="-3.75288">
        <ele>181</ele>
        <time>2021-09-12T13:49:34Z</time>
      </trkpt>
      <trkpt lat="48.36503" lon="-3.7528">
        <ele>181</ele>
        <time>2021-09-12T13:49:35Z</time>
      </trkpt>
      <trkpt lat="48.36502" lon="-3.75272">
        <ele>181.19999694824</ele>
        <time>2021-09-12T13:49:36Z</time>
      </trkpt>
      <trkpt lat="48.36501" lon="-3.75264">
        <ele>181</ele>
        <time>2021-09-12T13:49:37Z</time>
      </trkpt>
      <trkpt lat="48.365" lon="-3.75257">
        <ele>181</ele>
        <time>2021-09-12T13:49:38Z</time>
      </trkpt>
      <trkpt lat="48.36499" lon="-3.75249">
        <ele>181</ele>
        <time>2021-09-12T13:49:39Z</time>
      </trkpt>
      <trkpt lat="48.36498" lon="-3.75242">
        <ele>181</ele>
        <time>2021-09-12T13:49:40Z</time>
      </trkpt>
      <trkpt lat="48.36497" lon="-3.75235">
        <ele>181</ele>
        <time>2021-09-12T13:49:41Z</time>
      </trkpt>
      <trkpt lat="48.36496" lon="-3.75229">
        <ele>181</ele>
        <time>2021-09-12T13:49:42Z</time>
      </trkpt>
      <trkpt lat="48.36494" lon="-3.7522">
        <ele>181</ele>
        <time>2021-09-12T13:49:43Z</time>
      </trkpt>
      <trkpt lat="48.36492" lon="-3.75213">
        <ele>181</ele>
        <time>2021-09-12T13:49:44Z</time>
      </trkpt>
      <trkpt lat="48.36491" lon="-3.75206">
        <ele>181</ele>
        <time>2021-09-12T13:49:45Z</time>
      </trkpt>
      <trkpt lat="48.36489" lon="-3.75199">
        <ele>181</ele>
        <time>2021-09-12T13:49:46Z</time>
      </trkpt>
      <trkpt lat="48.36487" lon="-3.75193">
        <ele>181</ele>
        <time>2021-09-12T13:49:47Z</time>
      </trkpt>
      <trkpt lat="48.36484" lon="-3.75186">
        <ele>181</ele>
        <time>2021-09-12T13:49:48Z</time>
      </trkpt>
      <trkpt lat="48.3648" lon="-3.75179">
        <ele>181</ele>
        <time>2021-09-12T13:49:49Z</time>
      </trkpt>
      <trkpt lat="48.36476" lon="-3.75174">
        <ele>181</ele>
        <time>2021-09-12T13:49:50Z</time>
      </trkpt>
      <trkpt lat="48.36473" lon="-3.75168">
        <ele>181.19999694824</ele>
        <time>2021-09-12T13:49:51Z</time>
      </trkpt>
      <trkpt lat="48.36469" lon="-3.75162">
        <ele>181.19999694824</ele>
        <time>2021-09-12T13:49:52Z</time>
      </trkpt>
      <trkpt lat="48.36465" lon="-3.75157">
        <ele>181.19999694824</ele>
        <time>2021-09-12T13:49:53Z</time>
      </trkpt>
      <trkpt lat="48.3646" lon="-3.75151">
        <ele>181.19999694824</ele>
        <time>2021-09-12T13:49:54Z</time>
      </trkpt>
      <trkpt lat="48.36456" lon="-3.75147">
        <ele>181.19999694824</ele>
        <time>2021-09-12T13:49:55Z</time>
      </trkpt>
      <trkpt lat="48.36451" lon="-3.75145">
        <ele>181.19999694824</ele>
        <time>2021-09-12T13:49:56Z</time>
      </trkpt>
      <trkpt lat="48.36446" lon="-3.75145">
        <ele>181.19999694824</ele>
        <time>2021-09-12T13:49:57Z</time>
      </trkpt>
      <trkpt lat="48.36443" lon="-3.75148">
        <ele>181</ele>
        <time>2021-09-12T13:49:58Z</time>
      </trkpt>
      <trkpt lat="48.36442" lon="-3.75154">
        <ele>180.80000305176</ele>
        <time>2021-09-12T13:49:59Z</time>
      </trkpt>
      <trkpt lat="48.36441" lon="-3.7516">
        <ele>180.80000305176</ele>
        <time>2021-09-12T13:50:00Z</time>
      </trkpt>
      <trkpt lat="48.36441" lon="-3.75167">
        <ele>180.80000305176</ele>
        <time>2021-09-12T13:50:01Z</time>
      </trkpt>
      <trkpt lat="48.36441" lon="-3.75173">
        <ele>180.60000610352</ele>
        <time>2021-09-12T13:50:02Z</time>
      </trkpt>
      <trkpt lat="48.36442" lon="-3.75181">
        <ele>180.80000305176</ele>
        <time>2021-09-12T13:50:03Z</time>
      </trkpt>
      <trkpt lat="48.36441" lon="-3.75188">
        <ele>180.80000305176</ele>
        <time>2021-09-12T13:50:04Z</time>
      </trkpt>
      <trkpt lat="48.36441" lon="-3.75198">
        <ele>180.80000305176</ele>
        <time>2021-09-12T13:50:05Z</time>
      </trkpt>
      <trkpt lat="48.3644" lon="-3.75205">
        <ele>180.80000305176</ele>
        <time>2021-09-12T13:50:06Z</time>
      </trkpt>
      <trkpt lat="48.36441" lon="-3.75214">
        <ele>181</ele>
        <time>2021-09-12T13:50:07Z</time>
      </trkpt>
      <trkpt lat="48.36442" lon="-3.75223">
        <ele>181</ele>
        <time>2021-09-12T13:50:08Z</time>
      </trkpt>
      <trkpt lat="48.36442" lon="-3.75231">
        <ele>181</ele>
        <time>2021-09-12T13:50:09Z</time>
      </trkpt>
      <trkpt lat="48.36443" lon="-3.75239">
        <ele>181</ele>
        <time>2021-09-12T13:50:10Z</time>
      </trkpt>
      <trkpt lat="48.36443" lon="-3.75246">
        <ele>181</ele>
        <time>2021-09-12T13:50:11Z</time>
      </trkpt>
      <trkpt lat="48.36443" lon="-3.75255">
        <ele>181</ele>
        <time>2021-09-12T13:50:12Z</time>
      </trkpt>
      <trkpt lat="48.36443" lon="-3.75265">
        <ele>181</ele>
        <time>2021-09-12T13:50:13Z</time>
      </trkpt>
      <trkpt lat="48.36443" lon="-3.75274">
        <ele>181</ele>
        <time>2021-09-12T13:50:14Z</time>
      </trkpt>
      <trkpt lat="48.36442" lon="-3.75283">
        <ele>181</ele>
        <time>2021-09-12T13:50:15Z</time>
      </trkpt>
      <trkpt lat="48.36441" lon="-3.7529">
        <ele>181</ele>
        <time>2021-09-12T13:50:16Z</time>
      </trkpt>
      <trkpt lat="48.36439" lon="-3.75299">
        <ele>181</ele>
        <time>2021-09-12T13:50:17Z</time>
      </trkpt>
      <trkpt lat="48.36437" lon="-3.7531">
        <ele>181</ele>
        <time>2021-09-12T13:50:18Z</time>
      </trkpt>
      <trkpt lat="48.36435" lon="-3.75319">
        <ele>181</ele>
        <time>2021-09-12T13:50:19Z</time>
      </trkpt>
      <trkpt lat="48.36433" lon="-3.75326">
        <ele>181</ele>
        <time>2021-09-12T13:50:20Z</time>
      </trkpt>
      <trkpt lat="48.36431" lon="-3.75334">
        <ele>181</ele>
        <time>2021-09-12T13:50:21Z</time>
      </trkpt>
      <trkpt lat="48.36429" lon="-3.75343">
        <ele>181</ele>
        <time>2021-09-12T13:50:22Z</time>
      </trkpt>
      <trkpt lat="48.36426" lon="-3.75352">
        <ele>181</ele>
        <time>2021-09-12T13:50:23Z</time>
      </trkpt>
      <trkpt lat="48.36425" lon="-3.75358">
        <ele>181</ele>
        <time>2021-09-12T13:50:24Z</time>
      </trkpt>
      <trkpt lat="48.36422" lon="-3.75367">
        <ele>181</ele>
        <time>2021-09-12T13:50:25Z</time>
      </trkpt>
      <trkpt lat="48.3642" lon="-3.75374">
        <ele>181</ele>
        <time>2021-09-12T13:50:26Z</time>
      </trkpt>
      <trkpt lat="48.36418" lon="-3.75382">
        <ele>180.80000305176</ele>
        <time>2021-09-12T13:50:27Z</time>
      </trkpt>
      <trkpt lat="48.36414" lon="-3.75391">
        <ele>180.80000305176</ele>
        <time>2021-09-12T13:50:28Z</time>
      </trkpt>
      <trkpt lat="48.36411" lon="-3.75399">
        <ele>180.80000305176</ele>
        <time>2021-09-12T13:50:29Z</time>
      </trkpt>
      <trkpt lat="48.36408" lon="-3.75406">
        <ele>180.80000305176</ele>
        <time>2021-09-12T13:50:30Z</time>
      </trkpt>
      <trkpt lat="48.36405" lon="-3.75411">
        <ele>180.80000305176</ele>
        <time>2021-09-12T13:50:31Z</time>
      </trkpt>
      <trkpt lat="48.36401" lon="-3.75417">
        <ele>180.80000305176</ele>
        <time>2021-09-12T13:50:32Z</time>
      </trkpt>
      <trkpt lat="48.36397" lon="-3.75425">
        <ele>181</ele>
        <time>2021-09-12T13:50:33Z</time>
      </trkpt>
      <trkpt lat="48.36393" lon="-3.7543">
        <ele>181</ele>
        <time>2021-09-12T13:50:34Z</time>
      </trkpt>
      <trkpt lat="48.3639" lon="-3.75434">
        <ele>181.39999389648</ele>
        <time>2021-09-12T13:50:35Z</time>
      </trkpt>
      <trkpt lat="48.36386" lon="-3.75438">
        <ele>181.39999389648</ele>
        <time>2021-09-12T13:50:36Z</time>
      </trkpt>
      <trkpt lat="48.36381" lon="-3.75442">
        <ele>181.80000305176</ele>
        <time>2021-09-12T13:50:37Z</time>
      </trkpt>
      <trkpt lat="48.36376" lon="-3.75445">
        <ele>181.80000305176</ele>
        <time>2021-09-12T13:50:38Z</time>
      </trkpt>
      <trkpt lat="48.36372" lon="-3.75447">
        <ele>182</ele>
        <time>2021-09-12T13:50:39Z</time>
      </trkpt>
      <trkpt lat="48.36367" lon="-3.75449">
        <ele>182</ele>
        <time>2021-09-12T13:50:40Z</time>
      </trkpt>
      <trkpt lat="48.36363" lon="-3.75451">
        <ele>182.19999694824</ele>
        <time>2021-09-12T13:50:41Z</time>
      </trkpt>
      <trkpt lat="48.36357" lon="-3.75454">
        <ele>182.19999694824</ele>
        <time>2021-09-12T13:50:42Z</time>
      </trkpt>
      <trkpt lat="48.36351" lon="-3.75456">
        <ele>182.19999694824</ele>
        <time>2021-09-12T13:50:43Z</time>
      </trkpt>
      <trkpt lat="48.36347" lon="-3.75458">
        <ele>182.19999694824</ele>
        <time>2021-09-12T13:50:44Z</time>
      </trkpt>
      <trkpt lat="48.36343" lon="-3.7546">
        <ele>182.19999694824</ele>
        <time>2021-09-12T13:50:45Z</time>
      </trkpt>
      <trkpt lat="48.36338" lon="-3.75463">
        <ele>182.19999694824</ele>
        <time>2021-09-12T13:50:46Z</time>
      </trkpt>
      <trkpt lat="48.36332" lon="-3.75467">
        <ele>182</ele>
        <time>2021-09-12T13:50:47Z</time>
      </trkpt>
      <trkpt lat="48.36327" lon="-3.75471">
        <ele>181.80000305176</ele>
        <time>2021-09-12T13:50:48Z</time>
      </trkpt>
      <trkpt lat="48.36324" lon="-3.75475">
        <ele>181.80000305176</ele>
        <time>2021-09-12T13:50:49Z</time>
      </trkpt>
      <trkpt lat="48.3632" lon="-3.75481">
        <ele>181.80000305176</ele>
        <time>2021-09-12T13:50:50Z</time>
      </trkpt>
      <trkpt lat="48.36315" lon="-3.75487">
        <ele>181.60000610352</ele>
        <time>2021-09-12T13:50:51Z</time>
      </trkpt>
      <trkpt lat="48.36311" lon="-3.75494">
        <ele>181.19999694824</ele>
        <time>2021-09-12T13:50:52Z</time>
      </trkpt>
      <trkpt lat="48.36307" lon="-3.755">
        <ele>181.19999694824</ele>
        <time>2021-09-12T13:50:53Z</time>
      </trkpt>
      <trkpt lat="48.36304" lon="-3.75504">
        <ele>181</ele>
        <time>2021-09-12T13:50:54Z</time>
      </trkpt>
      <trkpt lat="48.363" lon="-3.7551">
        <ele>181</ele>
        <time>2021-09-12T13:50:55Z</time>
      </trkpt>
      <trkpt lat="48.36295" lon="-3.75516">
        <ele>181</ele>
        <time>2021-09-12T13:50:56Z</time>
      </trkpt>
      <trkpt lat="48.3629" lon="-3.7552">
        <ele>181</ele>
        <time>2021-09-12T13:50:57Z</time>
      </trkpt>
      <trkpt lat="48.36286" lon="-3.75523">
        <ele>180.80000305176</ele>
        <time>2021-09-12T13:50:58Z</time>
      </trkpt>
      <trkpt lat="48.36283" lon="-3.75522">
        <ele>180.80000305176</ele>
        <time>2021-09-12T13:50:59Z</time>
      </trkpt>
      <trkpt lat="48.36277" lon="-3.7552">
        <ele>180.80000305176</ele>
        <time>2021-09-12T13:51:00Z</time>
      </trkpt>
      <trkpt lat="48.36272" lon="-3.75519">
        <ele>180.80000305176</ele>
        <time>2021-09-12T13:51:01Z</time>
      </trkpt>
      <trkpt lat="48.36268" lon="-3.75519">
        <ele>180.80000305176</ele>
        <time>2021-09-12T13:51:02Z</time>
      </trkpt>
      <trkpt lat="48.36264" lon="-3.75519">
        <ele>181</ele>
        <time>2021-09-12T13:51:03Z</time>
      </trkpt>
      <trkpt lat="48.36261" lon="-3.7552">
        <ele>181</ele>
        <time>2021-09-12T13:51:04Z</time>
      </trkpt>
      <trkpt lat="48.36256" lon="-3.75521">
        <ele>181</ele>
        <time>2021-09-12T13:51:05Z</time>
      </trkpt>
      <trkpt lat="48.3625" lon="-3.75521">
        <ele>181.19999694824</ele>
        <time>2021-09-12T13:51:06Z</time>
      </trkpt>
      <trkpt lat="48.36246" lon="-3.75521">
        <ele>181</ele>
        <time>2021-09-12T13:51:07Z</time>
      </trkpt>
      <trkpt lat="48.36241" lon="-3.7552">
        <ele>181.19999694824</ele>
        <time>2021-09-12T13:51:08Z</time>
      </trkpt>
      <trkpt lat="48.36237" lon="-3.75519">
        <ele>181.19999694824</ele>
        <time>2021-09-12T13:51:09Z</time>
      </trkpt>
      <trkpt lat="48.36231" lon="-3.75518">
        <ele>181.19999694824</ele>
        <time>2021-09-12T13:51:10Z</time>
      </trkpt>
      <trkpt lat="48.36224" lon="-3.75517">
        <ele>181</ele>
        <time>2021-09-12T13:51:11Z</time>
      </trkpt>
      <trkpt lat="48.36219" lon="-3.75514">
        <ele>181</ele>
        <time>2021-09-12T13:51:12Z</time>
      </trkpt>
      <trkpt lat="48.36214" lon="-3.7551">
        <ele>181</ele>
        <time>2021-09-12T13:51:13Z</time>
      </trkpt>
      <trkpt lat="48.3621" lon="-3.75507">
        <ele>181</ele>
        <time>2021-09-12T13:51:14Z</time>
      </trkpt>
      <trkpt lat="48.36204" lon="-3.75505">
        <ele>180.80000305176</ele>
        <time>2021-09-12T13:51:15Z</time>
      </trkpt>
      <trkpt lat="48.36197" lon="-3.75504">
        <ele>180.80000305176</ele>
        <time>2021-09-12T13:51:16Z</time>
      </trkpt>
      <trkpt lat="48.36192" lon="-3.75504">
        <ele>180.80000305176</ele>
        <time>2021-09-12T13:51:17Z</time>
      </trkpt>
      <trkpt lat="48.36187" lon="-3.75506">
        <ele>180.60000610352</ele>
        <time>2021-09-12T13:51:18Z</time>
      </trkpt>
      <trkpt lat="48.36182" lon="-3.75507">
        <ele>180.60000610352</ele>
        <time>2021-09-12T13:51:19Z</time>
      </trkpt>
      <trkpt lat="48.36176" lon="-3.75509">
        <ele>180.60000610352</ele>
        <time>2021-09-12T13:51:20Z</time>
      </trkpt>
      <trkpt lat="48.36171" lon="-3.7551">
        <ele>180.60000610352</ele>
        <time>2021-09-12T13:51:21Z</time>
      </trkpt>
      <trkpt lat="48.36166" lon="-3.75512">
        <ele>180.60000610352</ele>
        <time>2021-09-12T13:51:22Z</time>
      </trkpt>
      <trkpt lat="48.36162" lon="-3.75513">
        <ele>180.60000610352</ele>
        <time>2021-09-12T13:51:23Z</time>
      </trkpt>
      <trkpt lat="48.36156" lon="-3.75516">
        <ele>180.60000610352</ele>
        <time>2021-09-12T13:51:24Z</time>
      </trkpt>
      <trkpt lat="48.36151" lon="-3.75518">
        <ele>180.60000610352</ele>
        <time>2021-09-12T13:51:25Z</time>
      </trkpt>
      <trkpt lat="48.36146" lon="-3.7552">
        <ele>180.60000610352</ele>
        <time>2021-09-12T13:51:26Z</time>
      </trkpt>
      <trkpt lat="48.36141" lon="-3.75523">
        <ele>180.60000610352</ele>
        <time>2021-09-12T13:51:27Z</time>
      </trkpt>
      <trkpt lat="48.36138" lon="-3.75525">
        <ele>180.60000610352</ele>
        <time>2021-09-12T13:51:28Z</time>
      </trkpt>
      <trkpt lat="48.36133" lon="-3.7553">
        <ele>180.60000610352</ele>
        <time>2021-09-12T13:51:29Z</time>
      </trkpt>
      <trkpt lat="48.36129" lon="-3.75536">
        <ele>180.60000610352</ele>
        <time>2021-09-12T13:51:30Z</time>
      </trkpt>
      <trkpt lat="48.36126" lon="-3.75543">
        <ele>180.60000610352</ele>
        <time>2021-09-12T13:51:31Z</time>
      </trkpt>
      <trkpt lat="48.36123" lon="-3.7555">
        <ele>180.80000305176</ele>
        <time>2021-09-12T13:51:32Z</time>
      </trkpt>
      <trkpt lat="48.36122" lon="-3.75558">
        <ele>180.80000305176</ele>
        <time>2021-09-12T13:51:33Z</time>
      </trkpt>
      <trkpt lat="48.36121" lon="-3.75566">
        <ele>180.80000305176</ele>
        <time>2021-09-12T13:51:34Z</time>
      </trkpt>
      <trkpt lat="48.3612" lon="-3.75573">
        <ele>181</ele>
        <time>2021-09-12T13:51:35Z</time>
      </trkpt>
      <trkpt lat="48.3612" lon="-3.75581">
        <ele>181</ele>
        <time>2021-09-12T13:51:36Z</time>
      </trkpt>
      <trkpt lat="48.36119" lon="-3.75588">
        <ele>181</ele>
        <time>2021-09-12T13:51:37Z</time>
      </trkpt>
      <trkpt lat="48.36119" lon="-3.75594">
        <ele>181</ele>
        <time>2021-09-12T13:51:38Z</time>
      </trkpt>
      <trkpt lat="48.36118" lon="-3.75601">
        <ele>181.19999694824</ele>
        <time>2021-09-12T13:51:39Z</time>
      </trkpt>
      <trkpt lat="48.36117" lon="-3.75606">
        <ele>181.39999389648</ele>
        <time>2021-09-12T13:51:40Z</time>
      </trkpt>
      <trkpt lat="48.36116" lon="-3.75608">
        <ele>181.39999389648</ele>
        <time>2021-09-12T13:51:41Z</time>
      </trkpt>
      <trkpt lat="48.36114" lon="-3.75608">
        <ele>181.39999389648</ele>
        <time>2021-09-12T13:51:42Z</time>
      </trkpt>
      <trkpt lat="48.36112" lon="-3.75607">
        <ele>181.39999389648</ele>
        <time>2021-09-12T13:51:43Z</time>
      </trkpt>
      <trkpt lat="48.36108" lon="-3.75605">
        <ele>181.60000610352</ele>
        <time>2021-09-12T13:51:44Z</time>
      </trkpt>
      <trkpt lat="48.36105" lon="-3.75604">
        <ele>181.60000610352</ele>
        <time>2021-09-12T13:51:45Z</time>
      </trkpt>
      <trkpt lat="48.36102" lon="-3.75601">
        <ele>181.60000610352</ele>
        <time>2021-09-12T13:51:46Z</time>
      </trkpt>
      <trkpt lat="48.36101" lon="-3.75597">
        <ele>181.60000610352</ele>
        <time>2021-09-12T13:51:47Z</time>
      </trkpt>
      <trkpt lat="48.36102" lon="-3.75593">
        <ele>181.60000610352</ele>
        <time>2021-09-12T13:51:48Z</time>
      </trkpt>
      <trkpt lat="48.36103" lon="-3.75585">
        <ele>181.19999694824</ele>
        <time>2021-09-12T13:51:49Z</time>
      </trkpt>
      <trkpt lat="48.36104" lon="-3.75578">
        <ele>181.19999694824</ele>
        <time>2021-09-12T13:51:50Z</time>
      </trkpt>
      <trkpt lat="48.36106" lon="-3.7557">
        <ele>181.19999694824</ele>
        <time>2021-09-12T13:51:51Z</time>
      </trkpt>
      <trkpt lat="48.36107" lon="-3.75563">
        <ele>181.19999694824</ele>
        <time>2021-09-12T13:51:52Z</time>
      </trkpt>
      <trkpt lat="48.36108" lon="-3.75555">
        <ele>181.19999694824</ele>
        <time>2021-09-12T13:51:53Z</time>
      </trkpt>
      <trkpt lat="48.3611" lon="-3.75548">
        <ele>181.19999694824</ele>
        <time>2021-09-12T13:51:54Z</time>
      </trkpt>
      <trkpt lat="48.36111" lon="-3.75541">
        <ele>181.60000610352</ele>
        <time>2021-09-12T13:51:55Z</time>
      </trkpt>
      <trkpt lat="48.36112" lon="-3.75534">
        <ele>181.60000610352</ele>
        <time>2021-09-12T13:51:56Z</time>
      </trkpt>
      <trkpt lat="48.36114" lon="-3.75528">
        <ele>181.60000610352</ele>
        <time>2021-09-12T13:51:57Z</time>
      </trkpt>
      <trkpt lat="48.36116" lon="-3.75521">
        <ele>181.60000610352</ele>
        <time>2021-09-12T13:51:58Z</time>
      </trkpt>
      <trkpt lat="48.36119" lon="-3.75515">
        <ele>181.60000610352</ele>
        <time>2021-09-12T13:51:59Z</time>
      </trkpt>
      <trkpt lat="48.36122" lon="-3.75509">
        <ele>181.60000610352</ele>
        <time>2021-09-12T13:52:00Z</time>
      </trkpt>
      <trkpt lat="48.36125" lon="-3.75504">
        <ele>182</ele>
        <time>2021-09-12T13:52:01Z</time>
      </trkpt>
      <trkpt lat="48.36128" lon="-3.75499">
        <ele>182</ele>
        <time>2021-09-12T13:52:02Z</time>
      </trkpt>
      <trkpt lat="48.36131" lon="-3.75495">
        <ele>182</ele>
        <time>2021-09-12T13:52:03Z</time>
      </trkpt>
      <trkpt lat="48.36134" lon="-3.7549">
        <ele>182.39999389648</ele>
        <time>2021-09-12T13:52:04Z</time>
      </trkpt>
      <trkpt lat="48.36138" lon="-3.75486">
        <ele>182.60000610352</ele>
        <time>2021-09-12T13:52:05Z</time>
      </trkpt>
      <trkpt lat="48.36141" lon="-3.75482">
        <ele>182.60000610352</ele>
        <time>2021-09-12T13:52:06Z</time>
      </trkpt>
      <trkpt lat="48.36143" lon="-3.75478">
        <ele>182.60000610352</ele>
        <time>2021-09-12T13:52:07Z</time>
      </trkpt>
      <trkpt lat="48.36147" lon="-3.75473">
        <ele>183</ele>
        <time>2021-09-12T13:52:08Z</time>
      </trkpt>
      <trkpt lat="48.3615" lon="-3.75468">
        <ele>183.19999694824</ele>
        <time>2021-09-12T13:52:09Z</time>
      </trkpt>
      <trkpt lat="48.36153" lon="-3.75464">
        <ele>183.60000610352</ele>
        <time>2021-09-12T13:52:10Z</time>
      </trkpt>
      <trkpt lat="48.36156" lon="-3.75459">
        <ele>183.60000610352</ele>
        <time>2021-09-12T13:52:11Z</time>
      </trkpt>
      <trkpt lat="48.36159" lon="-3.75454">
        <ele>183.60000610352</ele>
        <time>2021-09-12T13:52:12Z</time>
      </trkpt>
      <trkpt lat="48.36162" lon="-3.75449">
        <ele>184.19999694824</ele>
        <time>2021-09-12T13:52:13Z</time>
      </trkpt>
      <trkpt lat="48.36164" lon="-3.75444">
        <ele>184.19999694824</ele>
        <time>2021-09-12T13:52:14Z</time>
      </trkpt>
      <trkpt lat="48.36167" lon="-3.75439">
        <ele>184.19999694824</ele>
        <time>2021-09-12T13:52:15Z</time>
      </trkpt>
      <trkpt lat="48.36169" lon="-3.75435">
        <ele>184.19999694824</ele>
        <time>2021-09-12T13:52:16Z</time>
      </trkpt>
      <trkpt lat="48.36172" lon="-3.7543">
        <ele>184.39999389648</ele>
        <time>2021-09-12T13:52:17Z</time>
      </trkpt>
      <trkpt lat="48.36175" lon="-3.75424">
        <ele>184.60000610352</ele>
        <time>2021-09-12T13:52:18Z</time>
      </trkpt>
      <trkpt lat="48.36177" lon="-3.75418">
        <ele>184.60000610352</ele>
        <time>2021-09-12T13:52:19Z</time>
      </trkpt>
      <trkpt lat="48.36179" lon="-3.75413">
        <ele>184.60000610352</ele>
        <time>2021-09-12T13:52:20Z</time>
      </trkpt>
      <trkpt lat="48.36182" lon="-3.75406">
        <ele>184.60000610352</ele>
        <time>2021-09-12T13:52:21Z</time>
      </trkpt>
      <trkpt lat="48.36184" lon="-3.75399">
        <ele>184.60000610352</ele>
        <time>2021-09-12T13:52:22Z</time>
      </trkpt>
      <trkpt lat="48.36187" lon="-3.75392">
        <ele>184.60000610352</ele>
        <time>2021-09-12T13:52:23Z</time>
      </trkpt>
      <trkpt lat="48.36189" lon="-3.75386">
        <ele>184.60000610352</ele>
        <time>2021-09-12T13:52:24Z</time>
      </trkpt>
      <trkpt lat="48.36191" lon="-3.75381">
        <ele>184.60000610352</ele>
        <time>2021-09-12T13:52:25Z</time>
      </trkpt>
      <trkpt lat="48.36193" lon="-3.75374">
        <ele>184.39999389648</ele>
        <time>2021-09-12T13:52:26Z</time>
      </trkpt>
      <trkpt lat="48.36196" lon="-3.75366">
        <ele>184.39999389648</ele>
        <time>2021-09-12T13:52:27Z</time>
      </trkpt>
      <trkpt lat="48.36198" lon="-3.75359">
        <ele>184.39999389648</ele>
        <time>2021-09-12T13:52:28Z</time>
      </trkpt>
      <trkpt lat="48.362" lon="-3.75353">
        <ele>184.39999389648</ele>
        <time>2021-09-12T13:52:29Z</time>
      </trkpt>
      <trkpt lat="48.36202" lon="-3.75348">
        <ele>184.39999389648</ele>
        <time>2021-09-12T13:52:30Z</time>
      </trkpt>
      <trkpt lat="48.36204" lon="-3.75341">
        <ele>184.19999694824</ele>
        <time>2021-09-12T13:52:31Z</time>
      </trkpt>
      <trkpt lat="48.36207" lon="-3.75334">
        <ele>184.19999694824</ele>
        <time>2021-09-12T13:52:32Z</time>
      </trkpt>
      <trkpt lat="48.36209" lon="-3.75327">
        <ele>183.80000305176</ele>
        <time>2021-09-12T13:52:33Z</time>
      </trkpt>
      <trkpt lat="48.36212" lon="-3.75321">
        <ele>183.80000305176</ele>
        <time>2021-09-12T13:52:34Z</time>
      </trkpt>
      <trkpt lat="48.36214" lon="-3.75314">
        <ele>183.80000305176</ele>
        <time>2021-09-12T13:52:35Z</time>
      </trkpt>
      <trkpt lat="48.36217" lon="-3.75307">
        <ele>183.80000305176</ele>
        <time>2021-09-12T13:52:36Z</time>
      </trkpt>
      <trkpt lat="48.36219" lon="-3.753">
        <ele>183.80000305176</ele>
        <time>2021-09-12T13:52:37Z</time>
      </trkpt>
      <trkpt lat="48.36221" lon="-3.75293">
        <ele>183.80000305176</ele>
        <time>2021-09-12T13:52:38Z</time>
      </trkpt>
      <trkpt lat="48.36223" lon="-3.75286">
        <ele>183.80000305176</ele>
        <time>2021-09-12T13:52:39Z</time>
      </trkpt>
      <trkpt lat="48.36225" lon="-3.75279">
        <ele>183.80000305176</ele>
        <time>2021-09-12T13:52:40Z</time>
      </trkpt>
      <trkpt lat="48.36227" lon="-3.75272">
        <ele>183.80000305176</ele>
        <time>2021-09-12T13:52:41Z</time>
      </trkpt>
      <trkpt lat="48.36229" lon="-3.75266">
        <ele>183.80000305176</ele>
        <time>2021-09-12T13:52:42Z</time>
      </trkpt>
      <trkpt lat="48.36231" lon="-3.75261">
        <ele>183.60000610352</ele>
        <time>2021-09-12T13:52:43Z</time>
      </trkpt>
      <trkpt lat="48.36232" lon="-3.75255">
        <ele>183.60000610352</ele>
        <time>2021-09-12T13:52:44Z</time>
      </trkpt>
      <trkpt lat="48.36234" lon="-3.7525">
        <ele>183.60000610352</ele>
        <time>2021-09-12T13:52:45Z</time>
      </trkpt>
      <trkpt lat="48.36237" lon="-3.75243">
        <ele>183.60000610352</ele>
        <time>2021-09-12T13:52:46Z</time>
      </trkpt>
      <trkpt lat="48.3624" lon="-3.75237">
        <ele>183.39999389648</ele>
        <time>2021-09-12T13:52:47Z</time>
      </trkpt>
      <trkpt lat="48.36243" lon="-3.7523">
        <ele>183.39999389648</ele>
        <time>2021-09-12T13:52:48Z</time>
      </trkpt>
      <trkpt lat="48.36246" lon="-3.75224">
        <ele>183.39999389648</ele>
        <time>2021-09-12T13:52:49Z</time>
      </trkpt>
      <trkpt lat="48.36248" lon="-3.75218">
        <ele>183.19999694824</ele>
        <time>2021-09-12T13:52:50Z</time>
      </trkpt>
      <trkpt lat="48.3625" lon="-3.7521">
        <ele>183</ele>
        <time>2021-09-12T13:52:51Z</time>
      </trkpt>
      <trkpt lat="48.36252" lon="-3.75203">
        <ele>183</ele>
        <time>2021-09-12T13:52:52Z</time>
      </trkpt>
      <trkpt lat="48.36254" lon="-3.75197">
        <ele>183</ele>
        <time>2021-09-12T13:52:53Z</time>
      </trkpt>
      <trkpt lat="48.36255" lon="-3.75189">
        <ele>183</ele>
        <time>2021-09-12T13:52:54Z</time>
      </trkpt>
      <trkpt lat="48.36256" lon="-3.75182">
        <ele>183</ele>
        <time>2021-09-12T13:52:55Z</time>
      </trkpt>
      <trkpt lat="48.36258" lon="-3.75174">
        <ele>183</ele>
        <time>2021-09-12T13:52:56Z</time>
      </trkpt>
      <trkpt lat="48.3626" lon="-3.75167">
        <ele>183</ele>
        <time>2021-09-12T13:52:57Z</time>
      </trkpt>
      <trkpt lat="48.36262" lon="-3.75163">
        <ele>183</ele>
        <time>2021-09-12T13:52:58Z</time>
      </trkpt>
      <trkpt lat="48.36264" lon="-3.75157">
        <ele>183</ele>
        <time>2021-09-12T13:52:59Z</time>
      </trkpt>
      <trkpt lat="48.36266" lon="-3.7515">
        <ele>183</ele>
        <time>2021-09-12T13:53:00Z</time>
      </trkpt>
      <trkpt lat="48.36268" lon="-3.75143">
        <ele>182.80000305176</ele>
        <time>2021-09-12T13:53:01Z</time>
      </trkpt>
      <trkpt lat="48.36271" lon="-3.75135">
        <ele>182.80000305176</ele>
        <time>2021-09-12T13:53:02Z</time>
      </trkpt>
      <trkpt lat="48.36273" lon="-3.75128">
        <ele>182.80000305176</ele>
        <time>2021-09-12T13:53:03Z</time>
      </trkpt>
      <trkpt lat="48.36275" lon="-3.75122">
        <ele>182.80000305176</ele>
        <time>2021-09-12T13:53:04Z</time>
      </trkpt>
      <trkpt lat="48.36277" lon="-3.75114">
        <ele>182.80000305176</ele>
        <time>2021-09-12T13:53:05Z</time>
      </trkpt>
      <trkpt lat="48.3628" lon="-3.75107">
        <ele>182.60000610352</ele>
        <time>2021-09-12T13:53:06Z</time>
      </trkpt>
      <trkpt lat="48.36282" lon="-3.75101">
        <ele>182.39999389648</ele>
        <time>2021-09-12T13:53:07Z</time>
      </trkpt>
      <trkpt lat="48.36285" lon="-3.75095">
        <ele>182.39999389648</ele>
        <time>2021-09-12T13:53:08Z</time>
      </trkpt>
      <trkpt lat="48.36288" lon="-3.75089">
        <ele>182.39999389648</ele>
        <time>2021-09-12T13:53:09Z</time>
      </trkpt>
      <trkpt lat="48.3629" lon="-3.75084">
        <ele>182.19999694824</ele>
        <time>2021-09-12T13:53:10Z</time>
      </trkpt>
      <trkpt lat="48.36293" lon="-3.75077">
        <ele>182.19999694824</ele>
        <time>2021-09-12T13:53:11Z</time>
      </trkpt>
      <trkpt lat="48.36295" lon="-3.75072">
        <ele>182.39999389648</ele>
        <time>2021-09-12T13:53:12Z</time>
      </trkpt>
      <trkpt lat="48.36298" lon="-3.75066">
        <ele>182.39999389648</ele>
        <time>2021-09-12T13:53:13Z</time>
      </trkpt>
      <trkpt lat="48.363" lon="-3.7506">
        <ele>182.39999389648</ele>
        <time>2021-09-12T13:53:14Z</time>
      </trkpt>
      <trkpt lat="48.36303" lon="-3.75053">
        <ele>182.39999389648</ele>
        <time>2021-09-12T13:53:15Z</time>
      </trkpt>
      <trkpt lat="48.36304" lon="-3.75048">
        <ele>182.39999389648</ele>
        <time>2021-09-12T13:53:16Z</time>
      </trkpt>
      <trkpt lat="48.36306" lon="-3.75041">
        <ele>182.39999389648</ele>
        <time>2021-09-12T13:53:17Z</time>
      </trkpt>
      <trkpt lat="48.36308" lon="-3.75035">
        <ele>182.39999389648</ele>
        <time>2021-09-12T13:53:18Z</time>
      </trkpt>
      <trkpt lat="48.3631" lon="-3.7503">
        <ele>182.39999389648</ele>
        <time>2021-09-12T13:53:19Z</time>
      </trkpt>
      <trkpt lat="48.36314" lon="-3.75023">
        <ele>182.39999389648</ele>
        <time>2021-09-12T13:53:20Z</time>
      </trkpt>
      <trkpt lat="48.36317" lon="-3.75017">
        <ele>182.39999389648</ele>
        <time>2021-09-12T13:53:21Z</time>
      </trkpt>
      <trkpt lat="48.3632" lon="-3.75011">
        <ele>182.39999389648</ele>
        <time>2021-09-12T13:53:22Z</time>
      </trkpt>
      <trkpt lat="48.36323" lon="-3.75006">
        <ele>182.39999389648</ele>
        <time>2021-09-12T13:53:23Z</time>
      </trkpt>
      <trkpt lat="48.36326" lon="-3.75">
        <ele>182.39999389648</ele>
        <time>2021-09-12T13:53:24Z</time>
      </trkpt>
      <trkpt lat="48.3633" lon="-3.74992">
        <ele>182.39999389648</ele>
        <time>2021-09-12T13:53:25Z</time>
      </trkpt>
      <trkpt lat="48.36333" lon="-3.74986">
        <ele>182.39999389648</ele>
        <time>2021-09-12T13:53:26Z</time>
      </trkpt>
      <trkpt lat="48.36335" lon="-3.74979">
        <ele>182.39999389648</ele>
        <time>2021-09-12T13:53:27Z</time>
      </trkpt>
      <trkpt lat="48.36337" lon="-3.74973">
        <ele>182.60000610352</ele>
        <time>2021-09-12T13:53:28Z</time>
      </trkpt>
      <trkpt lat="48.36339" lon="-3.74967">
        <ele>182.60000610352</ele>
        <time>2021-09-12T13:53:29Z</time>
      </trkpt>
      <trkpt lat="48.36341" lon="-3.74958">
        <ele>182.39999389648</ele>
        <time>2021-09-12T13:53:30Z</time>
      </trkpt>
      <trkpt lat="48.36342" lon="-3.74951">
        <ele>182.39999389648</ele>
        <time>2021-09-12T13:53:31Z</time>
      </trkpt>
      <trkpt lat="48.36343" lon="-3.74943">
        <ele>182.39999389648</ele>
        <time>2021-09-12T13:53:32Z</time>
      </trkpt>
      <trkpt lat="48.36344" lon="-3.74937">
        <ele>182.19999694824</ele>
        <time>2021-09-12T13:53:33Z</time>
      </trkpt>
      <trkpt lat="48.36346" lon="-3.74929">
        <ele>182.19999694824</ele>
        <time>2021-09-12T13:53:34Z</time>
      </trkpt>
      <trkpt lat="48.36347" lon="-3.7492">
        <ele>182.19999694824</ele>
        <time>2021-09-12T13:53:35Z</time>
      </trkpt>
      <trkpt lat="48.36349" lon="-3.74913">
        <ele>182</ele>
        <time>2021-09-12T13:53:36Z</time>
      </trkpt>
      <trkpt lat="48.3635" lon="-3.74905">
        <ele>182</ele>
        <time>2021-09-12T13:53:37Z</time>
      </trkpt>
      <trkpt lat="48.36351" lon="-3.74898">
        <ele>181.80000305176</ele>
        <time>2021-09-12T13:53:38Z</time>
      </trkpt>
      <trkpt lat="48.36352" lon="-3.74891">
        <ele>181.80000305176</ele>
        <time>2021-09-12T13:53:39Z</time>
      </trkpt>
      <trkpt lat="48.36353" lon="-3.74883">
        <ele>181.80000305176</ele>
        <time>2021-09-12T13:53:40Z</time>
      </trkpt>
      <trkpt lat="48.36355" lon="-3.74874">
        <ele>181.80000305176</ele>
        <time>2021-09-12T13:53:41Z</time>
      </trkpt>
      <trkpt lat="48.36356" lon="-3.74868">
        <ele>181.80000305176</ele>
        <time>2021-09-12T13:53:42Z</time>
      </trkpt>
      <trkpt lat="48.36357" lon="-3.74861">
        <ele>181.80000305176</ele>
        <time>2021-09-12T13:53:43Z</time>
      </trkpt>
      <trkpt lat="48.36359" lon="-3.74852">
        <ele>181.80000305176</ele>
        <time>2021-09-12T13:53:44Z</time>
      </trkpt>
      <trkpt lat="48.3636" lon="-3.74844">
        <ele>181.80000305176</ele>
        <time>2021-09-12T13:53:45Z</time>
      </trkpt>
      <trkpt lat="48.36361" lon="-3.74837">
        <ele>182</ele>
        <time>2021-09-12T13:53:46Z</time>
      </trkpt>
      <trkpt lat="48.36361" lon="-3.74831">
        <ele>182</ele>
        <time>2021-09-12T13:53:47Z</time>
      </trkpt>
      <trkpt lat="48.36362" lon="-3.74823">
        <ele>182.19999694824</ele>
        <time>2021-09-12T13:53:48Z</time>
      </trkpt>
      <trkpt lat="48.36362" lon="-3.74814">
        <ele>182.39999389648</ele>
        <time>2021-09-12T13:53:49Z</time>
      </trkpt>
      <trkpt lat="48.36362" lon="-3.74807">
        <ele>182.39999389648</ele>
        <time>2021-09-12T13:53:50Z</time>
      </trkpt>
      <trkpt lat="48.36361" lon="-3.74799">
        <ele>182.39999389648</ele>
        <time>2021-09-12T13:53:51Z</time>
      </trkpt>
      <trkpt lat="48.36361" lon="-3.74793">
        <ele>182.39999389648</ele>
        <time>2021-09-12T13:53:52Z</time>
      </trkpt>
      <trkpt lat="48.36359" lon="-3.74784">
        <ele>182.60000610352</ele>
        <time>2021-09-12T13:53:53Z</time>
      </trkpt>
      <trkpt lat="48.36358" lon="-3.74779">
        <ele>183</ele>
        <time>2021-09-12T13:53:54Z</time>
      </trkpt>
      <trkpt lat="48.36356" lon="-3.74771">
        <ele>183.19999694824</ele>
        <time>2021-09-12T13:53:55Z</time>
      </trkpt>
      <trkpt lat="48.36354" lon="-3.74766">
        <ele>183.39999389648</ele>
        <time>2021-09-12T13:53:56Z</time>
      </trkpt>
      <trkpt lat="48.36353" lon="-3.74759">
        <ele>183.39999389648</ele>
        <time>2021-09-12T13:53:57Z</time>
      </trkpt>
      <trkpt lat="48.36351" lon="-3.74753">
        <ele>183.60000610352</ele>
        <time>2021-09-12T13:53:58Z</time>
      </trkpt>
      <trkpt lat="48.36349" lon="-3.74745">
        <ele>183.80000305176</ele>
        <time>2021-09-12T13:53:59Z</time>
      </trkpt>
      <trkpt lat="48.36347" lon="-3.74739">
        <ele>183.80000305176</ele>
        <time>2021-09-12T13:54:00Z</time>
      </trkpt>
      <trkpt lat="48.36344" lon="-3.74733">
        <ele>184</ele>
        <time>2021-09-12T13:54:01Z</time>
      </trkpt>
      <trkpt lat="48.36342" lon="-3.74726">
        <ele>184.19999694824</ele>
        <time>2021-09-12T13:54:02Z</time>
      </trkpt>
      <trkpt lat="48.3634" lon="-3.74721">
        <ele>184.19999694824</ele>
        <time>2021-09-12T13:54:03Z</time>
      </trkpt>
      <trkpt lat="48.36339" lon="-3.74715">
        <ele>184.39999389648</ele>
        <time>2021-09-12T13:54:04Z</time>
      </trkpt>
      <trkpt lat="48.36337" lon="-3.7471">
        <ele>184.60000610352</ele>
        <time>2021-09-12T13:54:05Z</time>
      </trkpt>
      <trkpt lat="48.36336" lon="-3.74705">
        <ele>184.60000610352</ele>
        <time>2021-09-12T13:54:06Z</time>
      </trkpt>
      <trkpt lat="48.36334" lon="-3.74699">
        <ele>184.60000610352</ele>
        <time>2021-09-12T13:54:07Z</time>
      </trkpt>
      <trkpt lat="48.36332" lon="-3.74692">
        <ele>184.39999389648</ele>
        <time>2021-09-12T13:54:08Z</time>
      </trkpt>
      <trkpt lat="48.3633" lon="-3.74685">
        <ele>184.39999389648</ele>
        <time>2021-09-12T13:54:09Z</time>
      </trkpt>
      <trkpt lat="48.36328" lon="-3.74678">
        <ele>184.39999389648</ele>
        <time>2021-09-12T13:54:10Z</time>
      </trkpt>
      <trkpt lat="48.36326" lon="-3.74673">
        <ele>184.19999694824</ele>
        <time>2021-09-12T13:54:11Z</time>
      </trkpt>
      <trkpt lat="48.36323" lon="-3.74666">
        <ele>184</ele>
        <time>2021-09-12T13:54:12Z</time>
      </trkpt>
      <trkpt lat="48.3632" lon="-3.74656">
        <ele>183.60000610352</ele>
        <time>2021-09-12T13:54:13Z</time>
      </trkpt>
      <trkpt lat="48.36318" lon="-3.74648">
        <ele>183.39999389648</ele>
        <time>2021-09-12T13:54:14Z</time>
      </trkpt>
      <trkpt lat="48.36315" lon="-3.7464">
        <ele>183</ele>
        <time>2021-09-12T13:54:15Z</time>
      </trkpt>
      <trkpt lat="48.36313" lon="-3.74633">
        <ele>182.80000305176</ele>
        <time>2021-09-12T13:54:16Z</time>
      </trkpt>
      <trkpt lat="48.3631" lon="-3.74625">
        <ele>182.39999389648</ele>
        <time>2021-09-12T13:54:17Z</time>
      </trkpt>
      <trkpt lat="48.36307" lon="-3.74614">
        <ele>182</ele>
        <time>2021-09-12T13:54:18Z</time>
      </trkpt>
      <trkpt lat="48.36305" lon="-3.74605">
        <ele>182</ele>
        <time>2021-09-12T13:54:19Z</time>
      </trkpt>
      <trkpt lat="48.36302" lon="-3.74596">
        <ele>181.80000305176</ele>
        <time>2021-09-12T13:54:20Z</time>
      </trkpt>
      <trkpt lat="48.36299" lon="-3.74587">
        <ele>181.60000610352</ele>
        <time>2021-09-12T13:54:21Z</time>
      </trkpt>
      <trkpt lat="48.36297" lon="-3.7458">
        <ele>181.39999389648</ele>
        <time>2021-09-12T13:54:22Z</time>
      </trkpt>
      <trkpt lat="48.36294" lon="-3.74569">
        <ele>180.60000610352</ele>
        <time>2021-09-12T13:54:23Z</time>
      </trkpt>
      <trkpt lat="48.36291" lon="-3.7456">
        <ele>180.39999389648</ele>
        <time>2021-09-12T13:54:24Z</time>
      </trkpt>
      <trkpt lat="48.36289" lon="-3.74551">
        <ele>180.19999694824</ele>
        <time>2021-09-12T13:54:25Z</time>
      </trkpt>
      <trkpt lat="48.36286" lon="-3.74541">
        <ele>179.80000305176</ele>
        <time>2021-09-12T13:54:26Z</time>
      </trkpt>
      <trkpt lat="48.36283" lon="-3.74532">
        <ele>179.60000610352</ele>
        <time>2021-09-12T13:54:27Z</time>
      </trkpt>
      <trkpt lat="48.36281" lon="-3.74523">
        <ele>179.60000610352</ele>
        <time>2021-09-12T13:54:28Z</time>
      </trkpt>
      <trkpt lat="48.36279" lon="-3.74514">
        <ele>179.60000610352</ele>
        <time>2021-09-12T13:54:29Z</time>
      </trkpt>
      <trkpt lat="48.36277" lon="-3.74505">
        <ele>179.39999389648</ele>
        <time>2021-09-12T13:54:30Z</time>
      </trkpt>
      <trkpt lat="48.36277" lon="-3.74498">
        <ele>179.39999389648</ele>
        <time>2021-09-12T13:54:31Z</time>
      </trkpt>
      <trkpt lat="48.36277" lon="-3.74489">
        <ele>179.39999389648</ele>
        <time>2021-09-12T13:54:32Z</time>
      </trkpt>
      <trkpt lat="48.36277" lon="-3.74479">
        <ele>179.39999389648</ele>
        <time>2021-09-12T13:54:33Z</time>
      </trkpt>
      <trkpt lat="48.36277" lon="-3.7447">
        <ele>179.39999389648</ele>
        <time>2021-09-12T13:54:34Z</time>
      </trkpt>
      <trkpt lat="48.36277" lon="-3.74464">
        <ele>179.19999694824</ele>
        <time>2021-09-12T13:54:35Z</time>
      </trkpt>
      <trkpt lat="48.36276" lon="-3.74455">
        <ele>179.19999694824</ele>
        <time>2021-09-12T13:54:36Z</time>
      </trkpt>
      <trkpt lat="48.36276" lon="-3.7445">
        <ele>179.39999389648</ele>
        <time>2021-09-12T13:54:37Z</time>
      </trkpt>
      <trkpt lat="48.36276" lon="-3.74443">
        <ele>179.39999389648</ele>
        <time>2021-09-12T13:54:38Z</time>
      </trkpt>
      <trkpt lat="48.36277" lon="-3.74439">
        <ele>179.39999389648</ele>
        <time>2021-09-12T13:54:39Z</time>
      </trkpt>
      <trkpt lat="48.36278" lon="-3.74435">
        <ele>180</ele>
        <time>2021-09-12T13:54:40Z</time>
      </trkpt>
      <trkpt lat="48.36277" lon="-3.74432">
        <ele>180.60000610352</ele>
        <time>2021-09-12T13:54:41Z</time>
      </trkpt>
      <trkpt lat="48.36277" lon="-3.74429">
        <ele>180.80000305176</ele>
        <time>2021-09-12T13:54:42Z</time>
      </trkpt>
      <trkpt lat="48.36276" lon="-3.74426">
        <ele>181.39999389648</ele>
        <time>2021-09-12T13:54:43Z</time>
      </trkpt>
      <trkpt lat="48.36276" lon="-3.74424">
        <ele>181.39999389648</ele>
        <time>2021-09-12T13:54:44Z</time>
      </trkpt>
      <trkpt lat="48.36275" lon="-3.74422">
        <ele>182.19999694824</ele>
        <time>2021-09-12T13:54:45Z</time>
      </trkpt>
      <trkpt lat="48.36275" lon="-3.74421">
        <ele>182.60000610352</ele>
        <time>2021-09-12T13:54:46Z</time>
      </trkpt>
      <trkpt lat="48.36274" lon="-3.74419">
        <ele>183.19999694824</ele>
        <time>2021-09-12T13:54:47Z</time>
      </trkpt>
      <trkpt lat="48.36273" lon="-3.74418">
        <ele>183.19999694824</ele>
        <time>2021-09-12T13:54:48Z</time>
      </trkpt>
      <trkpt lat="48.36271" lon="-3.74417">
        <ele>183.80000305176</ele>
        <time>2021-09-12T13:54:49Z</time>
      </trkpt>
      <trkpt lat="48.3627" lon="-3.74416">
        <ele>184.19999694824</ele>
        <time>2021-09-12T13:54:50Z</time>
      </trkpt>
      <trkpt lat="48.36269" lon="-3.74415">
        <ele>184.60000610352</ele>
        <time>2021-09-12T13:54:51Z</time>
      </trkpt>
      <trkpt lat="48.36268" lon="-3.74414">
        <ele>184.80000305176</ele>
        <time>2021-09-12T13:54:52Z</time>
      </trkpt>
      <trkpt lat="48.36267" lon="-3.74414">
        <ele>185.19999694824</ele>
        <time>2021-09-12T13:54:53Z</time>
      </trkpt>
      <trkpt lat="48.36265" lon="-3.74413">
        <ele>185.60000610352</ele>
        <time>2021-09-12T13:54:54Z</time>
      </trkpt>
      <trkpt lat="48.36263" lon="-3.74412">
        <ele>186</ele>
        <time>2021-09-12T13:54:55Z</time>
      </trkpt>
      <trkpt lat="48.36262" lon="-3.74411">
        <ele>186.19999694824</ele>
        <time>2021-09-12T13:54:56Z</time>
      </trkpt>
      <trkpt lat="48.3626" lon="-3.7441">
        <ele>186.39999389648</ele>
        <time>2021-09-12T13:54:57Z</time>
      </trkpt>
      <trkpt lat="48.36258" lon="-3.74408">
        <ele>187</ele>
        <time>2021-09-12T13:54:58Z</time>
      </trkpt>
      <trkpt lat="48.36257" lon="-3.74407">
        <ele>187.19999694824</ele>
        <time>2021-09-12T13:54:59Z</time>
      </trkpt>
      <trkpt lat="48.36255" lon="-3.74406">
        <ele>187.39999389648</ele>
        <time>2021-09-12T13:55:00Z</time>
      </trkpt>
      <trkpt lat="48.36253" lon="-3.74404">
        <ele>187.80000305176</ele>
        <time>2021-09-12T13:55:01Z</time>
      </trkpt>
      <trkpt lat="48.36251" lon="-3.74404">
        <ele>188.19999694824</ele>
        <time>2021-09-12T13:55:02Z</time>
      </trkpt>
      <trkpt lat="48.36249" lon="-3.74403">
        <ele>188.39999389648</ele>
        <time>2021-09-12T13:55:03Z</time>
      </trkpt>
      <trkpt lat="48.36248" lon="-3.74403">
        <ele>188.39999389648</ele>
        <time>2021-09-12T13:55:04Z</time>
      </trkpt>
      <trkpt lat="48.36246" lon="-3.74403">
        <ele>189</ele>
        <time>2021-09-12T13:55:05Z</time>
      </trkpt>
      <trkpt lat="48.36244" lon="-3.74403">
        <ele>189</ele>
        <time>2021-09-12T13:55:06Z</time>
      </trkpt>
      <trkpt lat="48.36243" lon="-3.74402">
        <ele>189.39999389648</ele>
        <time>2021-09-12T13:55:07Z</time>
      </trkpt>
      <trkpt lat="48.36241" lon="-3.74402">
        <ele>189.60000610352</ele>
        <time>2021-09-12T13:55:08Z</time>
      </trkpt>
      <trkpt lat="48.3624" lon="-3.74402">
        <ele>189.80000305176</ele>
        <time>2021-09-12T13:55:09Z</time>
      </trkpt>
      <trkpt lat="48.36238" lon="-3.74402">
        <ele>189.80000305176</ele>
        <time>2021-09-12T13:55:10Z</time>
      </trkpt>
      <trkpt lat="48.36236" lon="-3.74401">
        <ele>190.19999694824</ele>
        <time>2021-09-12T13:55:11Z</time>
      </trkpt>
      <trkpt lat="48.36235" lon="-3.744">
        <ele>190.19999694824</ele>
        <time>2021-09-12T13:55:12Z</time>
      </trkpt>
      <trkpt lat="48.36233" lon="-3.74399">
        <ele>190.19999694824</ele>
        <time>2021-09-12T13:55:13Z</time>
      </trkpt>
      <trkpt lat="48.36231" lon="-3.74399">
        <ele>190.39999389648</ele>
        <time>2021-09-12T13:55:14Z</time>
      </trkpt>
      <trkpt lat="48.36229" lon="-3.74399">
        <ele>190.60000610352</ele>
        <time>2021-09-12T13:55:15Z</time>
      </trkpt>
      <trkpt lat="48.36228" lon="-3.74398">
        <ele>190.80000305176</ele>
        <time>2021-09-12T13:55:16Z</time>
      </trkpt>
      <trkpt lat="48.36227" lon="-3.74397">
        <ele>190.80000305176</ele>
        <time>2021-09-12T13:55:17Z</time>
      </trkpt>
      <trkpt lat="48.36225" lon="-3.74396">
        <ele>191</ele>
        <time>2021-09-12T13:55:18Z</time>
      </trkpt>
      <trkpt lat="48.36223" lon="-3.74396">
        <ele>191.19999694824</ele>
        <time>2021-09-12T13:55:19Z</time>
      </trkpt>
      <trkpt lat="48.36222" lon="-3.74396">
        <ele>191.39999389648</ele>
        <time>2021-09-12T13:55:20Z</time>
      </trkpt>
      <trkpt lat="48.3622" lon="-3.74396">
        <ele>191.60000610352</ele>
        <time>2021-09-12T13:55:21Z</time>
      </trkpt>
      <trkpt lat="48.36218" lon="-3.74396">
        <ele>191.60000610352</ele>
        <time>2021-09-12T13:55:22Z</time>
      </trkpt>
      <trkpt lat="48.36216" lon="-3.74395">
        <ele>191.80000305176</ele>
        <time>2021-09-12T13:55:23Z</time>
      </trkpt>
      <trkpt lat="48.36214" lon="-3.74394">
        <ele>191.80000305176</ele>
        <time>2021-09-12T13:55:24Z</time>
      </trkpt>
      <trkpt lat="48.36212" lon="-3.74393">
        <ele>192.19999694824</ele>
        <time>2021-09-12T13:55:25Z</time>
      </trkpt>
      <trkpt lat="48.36211" lon="-3.74393">
        <ele>192.19999694824</ele>
        <time>2021-09-12T13:55:26Z</time>
      </trkpt>
      <trkpt lat="48.3621" lon="-3.74392">
        <ele>192.39999389648</ele>
        <time>2021-09-12T13:55:27Z</time>
      </trkpt>
      <trkpt lat="48.36209" lon="-3.74392">
        <ele>192.80000305176</ele>
        <time>2021-09-12T13:55:28Z</time>
      </trkpt>
      <trkpt lat="48.36207" lon="-3.7439">
        <ele>192.80000305176</ele>
        <time>2021-09-12T13:55:29Z</time>
      </trkpt>
      <trkpt lat="48.36205" lon="-3.74389">
        <ele>193.39999389648</ele>
        <time>2021-09-12T13:55:30Z</time>
      </trkpt>
      <trkpt lat="48.36204" lon="-3.74389">
        <ele>193.39999389648</ele>
        <time>2021-09-12T13:55:31Z</time>
      </trkpt>
      <trkpt lat="48.36202" lon="-3.74388">
        <ele>193.60000610352</ele>
        <time>2021-09-12T13:55:32Z</time>
      </trkpt>
      <trkpt lat="48.36201" lon="-3.74387">
        <ele>194.19999694824</ele>
        <time>2021-09-12T13:55:33Z</time>
      </trkpt>
      <trkpt lat="48.362" lon="-3.74387">
        <ele>194.39999389648</ele>
        <time>2021-09-12T13:55:34Z</time>
      </trkpt>
      <trkpt lat="48.36199" lon="-3.74386">
        <ele>194.60000610352</ele>
        <time>2021-09-12T13:55:35Z</time>
      </trkpt>
      <trkpt lat="48.36197" lon="-3.74386">
        <ele>194.80000305176</ele>
        <time>2021-09-12T13:55:36Z</time>
      </trkpt>
      <trkpt lat="48.36196" lon="-3.74386">
        <ele>195</ele>
        <time>2021-09-12T13:55:37Z</time>
      </trkpt>
      <trkpt lat="48.36195" lon="-3.74385">
        <ele>195.39999389648</ele>
        <time>2021-09-12T13:55:38Z</time>
      </trkpt>
      <trkpt lat="48.36194" lon="-3.74384">
        <ele>195.80000305176</ele>
        <time>2021-09-12T13:55:39Z</time>
      </trkpt>
      <trkpt lat="48.36192" lon="-3.74383">
        <ele>195.80000305176</ele>
        <time>2021-09-12T13:55:40Z</time>
      </trkpt>
      <trkpt lat="48.3619" lon="-3.74383">
        <ele>196.19999694824</ele>
        <time>2021-09-12T13:55:41Z</time>
      </trkpt>
      <trkpt lat="48.36189" lon="-3.74383">
        <ele>196.60000610352</ele>
        <time>2021-09-12T13:55:42Z</time>
      </trkpt>
      <trkpt lat="48.36187" lon="-3.74382">
        <ele>197</ele>
        <time>2021-09-12T13:55:43Z</time>
      </trkpt>
      <trkpt lat="48.36186" lon="-3.74381">
        <ele>197.19999694824</ele>
        <time>2021-09-12T13:55:44Z</time>
      </trkpt>
      <trkpt lat="48.36185" lon="-3.74378">
        <ele>197.60000610352</ele>
        <time>2021-09-12T13:55:45Z</time>
      </trkpt>
      <trkpt lat="48.36183" lon="-3.74375">
        <ele>197.60000610352</ele>
        <time>2021-09-12T13:55:46Z</time>
      </trkpt>
      <trkpt lat="48.3618" lon="-3.74372">
        <ele>198.39999389648</ele>
        <time>2021-09-12T13:55:47Z</time>
      </trkpt>
      <trkpt lat="48.36177" lon="-3.7437">
        <ele>198.39999389648</ele>
        <time>2021-09-12T13:55:48Z</time>
      </trkpt>
      <trkpt lat="48.36176" lon="-3.74369">
        <ele>198.60000610352</ele>
        <time>2021-09-12T13:55:49Z</time>
      </trkpt>
      <trkpt lat="48.36175" lon="-3.74369">
        <ele>198.80000305176</ele>
        <time>2021-09-12T13:55:50Z</time>
      </trkpt>
      <trkpt lat="48.36174" lon="-3.74369">
        <ele>199.19999694824</ele>
        <time>2021-09-12T13:55:51Z</time>
      </trkpt>
      <trkpt lat="48.36173" lon="-3.74368">
        <ele>199.60000610352</ele>
        <time>2021-09-12T13:55:52Z</time>
      </trkpt>
      <trkpt lat="48.36171" lon="-3.74368">
        <ele>199.80000305176</ele>
        <time>2021-09-12T13:55:53Z</time>
      </trkpt>
      <trkpt lat="48.36171" lon="-3.74369">
        <ele>200</ele>
        <time>2021-09-12T13:55:54Z</time>
      </trkpt>
      <trkpt lat="48.3617" lon="-3.74369">
        <ele>200.60000610352</ele>
        <time>2021-09-12T13:55:55Z</time>
      </trkpt>
      <trkpt lat="48.36169" lon="-3.74368">
        <ele>200.60000610352</ele>
        <time>2021-09-12T13:55:56Z</time>
      </trkpt>
      <trkpt lat="48.36168" lon="-3.74367">
        <ele>201</ele>
        <time>2021-09-12T13:55:57Z</time>
      </trkpt>
      <trkpt lat="48.36167" lon="-3.74367">
        <ele>201.19999694824</ele>
        <time>2021-09-12T13:55:58Z</time>
      </trkpt>
      <trkpt lat="48.36165" lon="-3.74365">
        <ele>201.80000305176</ele>
        <time>2021-09-12T13:55:59Z</time>
      </trkpt>
      <trkpt lat="48.36164" lon="-3.74365">
        <ele>202.19999694824</ele>
        <time>2021-09-12T13:56:00Z</time>
      </trkpt>
      <trkpt lat="48.36163" lon="-3.74363">
        <ele>202.19999694824</ele>
        <time>2021-09-12T13:56:01Z</time>
      </trkpt>
      <trkpt lat="48.36161" lon="-3.74362">
        <ele>202.80000305176</ele>
        <time>2021-09-12T13:56:02Z</time>
      </trkpt>
      <trkpt lat="48.3616" lon="-3.74361">
        <ele>203</ele>
        <time>2021-09-12T13:56:03Z</time>
      </trkpt>
      <trkpt lat="48.36158" lon="-3.7436">
        <ele>203.39999389648</ele>
        <time>2021-09-12T13:56:04Z</time>
      </trkpt>
      <trkpt lat="48.36157" lon="-3.74359">
        <ele>203.39999389648</ele>
        <time>2021-09-12T13:56:05Z</time>
      </trkpt>
      <trkpt lat="48.36155" lon="-3.74358">
        <ele>204</ele>
        <time>2021-09-12T13:56:06Z</time>
      </trkpt>
      <trkpt lat="48.36154" lon="-3.74357">
        <ele>204.19999694824</ele>
        <time>2021-09-12T13:56:07Z</time>
      </trkpt>
      <trkpt lat="48.36153" lon="-3.74355">
        <ele>204.39999389648</ele>
        <time>2021-09-12T13:56:08Z</time>
      </trkpt>
      <trkpt lat="48.36151" lon="-3.74354">
        <ele>205</ele>
        <time>2021-09-12T13:56:09Z</time>
      </trkpt>
      <trkpt lat="48.3615" lon="-3.74353">
        <ele>205</ele>
        <time>2021-09-12T13:56:10Z</time>
      </trkpt>
      <trkpt lat="48.36148" lon="-3.74352">
        <ele>205.19999694824</ele>
        <time>2021-09-12T13:56:11Z</time>
      </trkpt>
      <trkpt lat="48.36147" lon="-3.74351">
        <ele>205.19999694824</ele>
        <time>2021-09-12T13:56:12Z</time>
      </trkpt>
      <trkpt lat="48.36145" lon="-3.7435">
        <ele>205.39999389648</ele>
        <time>2021-09-12T13:56:13Z</time>
      </trkpt>
      <trkpt lat="48.36144" lon="-3.74348">
        <ele>205.80000305176</ele>
        <time>2021-09-12T13:56:14Z</time>
      </trkpt>
      <trkpt lat="48.36142" lon="-3.74346">
        <ele>205.80000305176</ele>
        <time>2021-09-12T13:56:15Z</time>
      </trkpt>
      <trkpt lat="48.36141" lon="-3.74345">
        <ele>206.19999694824</ele>
        <time>2021-09-12T13:56:16Z</time>
      </trkpt>
      <trkpt lat="48.36139" lon="-3.74343">
        <ele>206.39999389648</ele>
        <time>2021-09-12T13:56:17Z</time>
      </trkpt>
      <trkpt lat="48.36138" lon="-3.74341">
        <ele>206.60000610352</ele>
        <time>2021-09-12T13:56:18Z</time>
      </trkpt>
      <trkpt lat="48.36137" lon="-3.74339">
        <ele>206.80000305176</ele>
        <time>2021-09-12T13:56:19Z</time>
      </trkpt>
      <trkpt lat="48.36136" lon="-3.74336">
        <ele>207.60000610352</ele>
        <time>2021-09-12T13:56:20Z</time>
      </trkpt>
      <trkpt lat="48.36134" lon="-3.74334">
        <ele>207.60000610352</ele>
        <time>2021-09-12T13:56:21Z</time>
      </trkpt>
      <trkpt lat="48.36133" lon="-3.74333">
        <ele>208</ele>
        <time>2021-09-12T13:56:22Z</time>
      </trkpt>
      <trkpt lat="48.36132" lon="-3.74331">
        <ele>208.19999694824</ele>
        <time>2021-09-12T13:56:23Z</time>
      </trkpt>
      <trkpt lat="48.36131" lon="-3.74329">
        <ele>208.60000610352</ele>
        <time>2021-09-12T13:56:24Z</time>
      </trkpt>
      <trkpt lat="48.3613" lon="-3.74327">
        <ele>208.60000610352</ele>
        <time>2021-09-12T13:56:25Z</time>
      </trkpt>
      <trkpt lat="48.36128" lon="-3.74325">
        <ele>209.19999694824</ele>
        <time>2021-09-12T13:56:26Z</time>
      </trkpt>
      <trkpt lat="48.36127" lon="-3.74322">
        <ele>209.19999694824</ele>
        <time>2021-09-12T13:56:27Z</time>
      </trkpt>
      <trkpt lat="48.36126" lon="-3.7432">
        <ele>209.60000610352</ele>
        <time>2021-09-12T13:56:28Z</time>
      </trkpt>
      <trkpt lat="48.36125" lon="-3.74317">
        <ele>209.60000610352</ele>
        <time>2021-09-12T13:56:29Z</time>
      </trkpt>
      <trkpt lat="48.36124" lon="-3.74314">
        <ele>210</ele>
        <time>2021-09-12T13:56:30Z</time>
      </trkpt>
      <trkpt lat="48.36122" lon="-3.74312">
        <ele>210.39999389648</ele>
        <time>2021-09-12T13:56:31Z</time>
      </trkpt>
      <trkpt lat="48.36122" lon="-3.74309">
        <ele>210.60000610352</ele>
        <time>2021-09-12T13:56:32Z</time>
      </trkpt>
      <trkpt lat="48.3612" lon="-3.74306">
        <ele>210.80000305176</ele>
        <time>2021-09-12T13:56:33Z</time>
      </trkpt>
      <trkpt lat="48.36119" lon="-3.74303">
        <ele>211</ele>
        <time>2021-09-12T13:56:34Z</time>
      </trkpt>
      <trkpt lat="48.36117" lon="-3.74301">
        <ele>211</ele>
        <time>2021-09-12T13:56:35Z</time>
      </trkpt>
      <trkpt lat="48.36116" lon="-3.74298">
        <ele>211.19999694824</ele>
        <time>2021-09-12T13:56:36Z</time>
      </trkpt>
      <trkpt lat="48.36115" lon="-3.74295">
        <ele>211.60000610352</ele>
        <time>2021-09-12T13:56:37Z</time>
      </trkpt>
      <trkpt lat="48.36113" lon="-3.74292">
        <ele>211.80000305176</ele>
        <time>2021-09-12T13:56:38Z</time>
      </trkpt>
      <trkpt lat="48.36112" lon="-3.74289">
        <ele>211.80000305176</ele>
        <time>2021-09-12T13:56:39Z</time>
      </trkpt>
      <trkpt lat="48.36111" lon="-3.74286">
        <ele>211.80000305176</ele>
        <time>2021-09-12T13:56:40Z</time>
      </trkpt>
      <trkpt lat="48.3611" lon="-3.74284">
        <ele>212</ele>
        <time>2021-09-12T13:56:41Z</time>
      </trkpt>
      <trkpt lat="48.36108" lon="-3.74281">
        <ele>212.19999694824</ele>
        <time>2021-09-12T13:56:42Z</time>
      </trkpt>
      <trkpt lat="48.36106" lon="-3.74278">
        <ele>212.39999389648</ele>
        <time>2021-09-12T13:56:43Z</time>
      </trkpt>
      <trkpt lat="48.36105" lon="-3.74275">
        <ele>212.60000610352</ele>
        <time>2021-09-12T13:56:44Z</time>
      </trkpt>
      <trkpt lat="48.36103" lon="-3.74271">
        <ele>212.60000610352</ele>
        <time>2021-09-12T13:56:45Z</time>
      </trkpt>
      <trkpt lat="48.36102" lon="-3.74268">
        <ele>212.80000305176</ele>
        <time>2021-09-12T13:56:46Z</time>
      </trkpt>
      <trkpt lat="48.361" lon="-3.74265">
        <ele>212.80000305176</ele>
        <time>2021-09-12T13:56:47Z</time>
      </trkpt>
      <trkpt lat="48.36099" lon="-3.74262">
        <ele>213</ele>
        <time>2021-09-12T13:56:48Z</time>
      </trkpt>
      <trkpt lat="48.36097" lon="-3.74258">
        <ele>213</ele>
        <time>2021-09-12T13:56:49Z</time>
      </trkpt>
      <trkpt lat="48.36095" lon="-3.74255">
        <ele>213.19999694824</ele>
        <time>2021-09-12T13:56:50Z</time>
      </trkpt>
      <trkpt lat="48.36094" lon="-3.74251">
        <ele>213.19999694824</ele>
        <time>2021-09-12T13:56:51Z</time>
      </trkpt>
      <trkpt lat="48.36092" lon="-3.74247">
        <ele>213.19999694824</ele>
        <time>2021-09-12T13:56:52Z</time>
      </trkpt>
      <trkpt lat="48.3609" lon="-3.74243">
        <ele>213</ele>
        <time>2021-09-12T13:56:53Z</time>
      </trkpt>
      <trkpt lat="48.36088" lon="-3.74239">
        <ele>213</ele>
        <time>2021-09-12T13:56:54Z</time>
      </trkpt>
      <trkpt lat="48.36085" lon="-3.74235">
        <ele>213</ele>
        <time>2021-09-12T13:56:55Z</time>
      </trkpt>
      <trkpt lat="48.36082" lon="-3.7423">
        <ele>213</ele>
        <time>2021-09-12T13:56:56Z</time>
      </trkpt>
      <trkpt lat="48.36079" lon="-3.74226">
        <ele>212.60000610352</ele>
        <time>2021-09-12T13:56:57Z</time>
      </trkpt>
      <trkpt lat="48.36074" lon="-3.74221">
        <ele>212</ele>
        <time>2021-09-12T13:56:58Z</time>
      </trkpt>
      <trkpt lat="48.36068" lon="-3.74217">
        <ele>212</ele>
        <time>2021-09-12T13:56:59Z</time>
      </trkpt>
      <trkpt lat="48.3606" lon="-3.74215">
        <ele>211.19999694824</ele>
        <time>2021-09-12T13:57:00Z</time>
      </trkpt>
      <trkpt lat="48.36055" lon="-3.74215">
        <ele>210.80000305176</ele>
        <time>2021-09-12T13:57:01Z</time>
      </trkpt>
      <trkpt lat="48.36049" lon="-3.74217">
        <ele>210.60000610352</ele>
        <time>2021-09-12T13:57:02Z</time>
      </trkpt>
      <trkpt lat="48.3604" lon="-3.7422">
        <ele>209.80000305176</ele>
        <time>2021-09-12T13:57:03Z</time>
      </trkpt>
      <trkpt lat="48.36032" lon="-3.74223">
        <ele>209</ele>
        <time>2021-09-12T13:57:04Z</time>
      </trkpt>
      <trkpt lat="48.36026" lon="-3.74227">
        <ele>209</ele>
        <time>2021-09-12T13:57:05Z</time>
      </trkpt>
      <trkpt lat="48.36019" lon="-3.74231">
        <ele>208.80000305176</ele>
        <time>2021-09-12T13:57:06Z</time>
      </trkpt>
      <trkpt lat="48.36013" lon="-3.74237">
        <ele>208.60000610352</ele>
        <time>2021-09-12T13:57:07Z</time>
      </trkpt>
      <trkpt lat="48.36009" lon="-3.74244">
        <ele>208.60000610352</ele>
        <time>2021-09-12T13:57:08Z</time>
      </trkpt>
      <trkpt lat="48.36006" lon="-3.74251">
        <ele>208.60000610352</ele>
        <time>2021-09-12T13:57:09Z</time>
      </trkpt>
      <trkpt lat="48.36004" lon="-3.74257">
        <ele>208.60000610352</ele>
        <time>2021-09-12T13:57:10Z</time>
      </trkpt>
      <trkpt lat="48.36002" lon="-3.74261">
        <ele>208.80000305176</ele>
        <time>2021-09-12T13:57:11Z</time>
      </trkpt>
      <trkpt lat="48.36" lon="-3.74267">
        <ele>209.19999694824</ele>
        <time>2021-09-12T13:57:12Z</time>
      </trkpt>
      <trkpt lat="48.35997" lon="-3.74273">
        <ele>209.60000610352</ele>
        <time>2021-09-12T13:57:13Z</time>
      </trkpt>
      <trkpt lat="48.35995" lon="-3.74278">
        <ele>209.80000305176</ele>
        <time>2021-09-12T13:57:14Z</time>
      </trkpt>
      <trkpt lat="48.35994" lon="-3.74281">
        <ele>210.19999694824</ele>
        <time>2021-09-12T13:57:15Z</time>
      </trkpt>
      <trkpt lat="48.35992" lon="-3.74286">
        <ele>210.39999389648</ele>
        <time>2021-09-12T13:57:16Z</time>
      </trkpt>
      <trkpt lat="48.35989" lon="-3.74291">
        <ele>211.19999694824</ele>
        <time>2021-09-12T13:57:17Z</time>
      </trkpt>
      <trkpt lat="48.35987" lon="-3.74295">
        <ele>211.39999389648</ele>
        <time>2021-09-12T13:57:18Z</time>
      </trkpt>
      <trkpt lat="48.35985" lon="-3.74299">
        <ele>211.60000610352</ele>
        <time>2021-09-12T13:57:19Z</time>
      </trkpt>
      <trkpt lat="48.35982" lon="-3.74302">
        <ele>212</ele>
        <time>2021-09-12T13:57:20Z</time>
      </trkpt>
      <trkpt lat="48.3598" lon="-3.74307">
        <ele>212.19999694824</ele>
        <time>2021-09-12T13:57:21Z</time>
      </trkpt>
      <trkpt lat="48.35977" lon="-3.74312">
        <ele>212.39999389648</ele>
        <time>2021-09-12T13:57:22Z</time>
      </trkpt>
      <trkpt lat="48.35974" lon="-3.74316">
        <ele>212.39999389648</ele>
        <time>2021-09-12T13:57:23Z</time>
      </trkpt>
      <trkpt lat="48.3597" lon="-3.7432">
        <ele>212.60000610352</ele>
        <time>2021-09-12T13:57:24Z</time>
      </trkpt>
      <trkpt lat="48.35966" lon="-3.74323">
        <ele>212.80000305176</ele>
        <time>2021-09-12T13:57:25Z</time>
      </trkpt>
      <trkpt lat="48.35963" lon="-3.74325">
        <ele>212.80000305176</ele>
        <time>2021-09-12T13:57:26Z</time>
      </trkpt>
      <trkpt lat="48.35959" lon="-3.74326">
        <ele>212.80000305176</ele>
        <time>2021-09-12T13:57:27Z</time>
      </trkpt>
      <trkpt lat="48.35955" lon="-3.74328">
        <ele>212.80000305176</ele>
        <time>2021-09-12T13:57:28Z</time>
      </trkpt>
      <trkpt lat="48.35951" lon="-3.7433">
        <ele>212.80000305176</ele>
        <time>2021-09-12T13:57:29Z</time>
      </trkpt>
      <trkpt lat="48.35946" lon="-3.74332">
        <ele>212.80000305176</ele>
        <time>2021-09-12T13:57:30Z</time>
      </trkpt>
      <trkpt lat="48.35942" lon="-3.74335">
        <ele>212.80000305176</ele>
        <time>2021-09-12T13:57:31Z</time>
      </trkpt>
      <trkpt lat="48.35937" lon="-3.74338">
        <ele>212.19999694824</ele>
        <time>2021-09-12T13:57:32Z</time>
      </trkpt>
      <trkpt lat="48.35932" lon="-3.7434">
        <ele>211.80000305176</ele>
        <time>2021-09-12T13:57:33Z</time>
      </trkpt>
      <trkpt lat="48.35927" lon="-3.74343">
        <ele>211.80000305176</ele>
        <time>2021-09-12T13:57:34Z</time>
      </trkpt>
      <trkpt lat="48.35922" lon="-3.74345">
        <ele>211.60000610352</ele>
        <time>2021-09-12T13:57:35Z</time>
      </trkpt>
      <trkpt lat="48.35916" lon="-3.74348">
        <ele>211.19999694824</ele>
        <time>2021-09-12T13:57:36Z</time>
      </trkpt>
      <trkpt lat="48.3591" lon="-3.7435">
        <ele>211</ele>
        <time>2021-09-12T13:57:37Z</time>
      </trkpt>
      <trkpt lat="48.35904" lon="-3.74352">
        <ele>210.80000305176</ele>
        <time>2021-09-12T13:57:38Z</time>
      </trkpt>
      <trkpt lat="48.35898" lon="-3.74355">
        <ele>210.39999389648</ele>
        <time>2021-09-12T13:57:39Z</time>
      </trkpt>
      <trkpt lat="48.35893" lon="-3.74358">
        <ele>210.19999694824</ele>
        <time>2021-09-12T13:57:40Z</time>
      </trkpt>
      <trkpt lat="48.35887" lon="-3.74361">
        <ele>210</ele>
        <time>2021-09-12T13:57:41Z</time>
      </trkpt>
      <trkpt lat="48.35882" lon="-3.74364">
        <ele>210</ele>
        <time>2021-09-12T13:57:42Z</time>
      </trkpt>
      <trkpt lat="48.35876" lon="-3.74367">
        <ele>210</ele>
        <time>2021-09-12T13:57:43Z</time>
      </trkpt>
      <trkpt lat="48.35871" lon="-3.7437">
        <ele>210</ele>
        <time>2021-09-12T13:57:44Z</time>
      </trkpt>
      <trkpt lat="48.35867" lon="-3.74374">
        <ele>210</ele>
        <time>2021-09-12T13:57:45Z</time>
      </trkpt>
      <trkpt lat="48.35863" lon="-3.74378">
        <ele>210</ele>
        <time>2021-09-12T13:57:46Z</time>
      </trkpt>
      <trkpt lat="48.35859" lon="-3.74381">
        <ele>210</ele>
        <time>2021-09-12T13:57:47Z</time>
      </trkpt>
      <trkpt lat="48.35855" lon="-3.74384">
        <ele>210.39999389648</ele>
        <time>2021-09-12T13:57:48Z</time>
      </trkpt>
      <trkpt lat="48.35852" lon="-3.74387">
        <ele>210.39999389648</ele>
        <time>2021-09-12T13:57:49Z</time>
      </trkpt>
      <trkpt lat="48.35849" lon="-3.7439">
        <ele>210.60000610352</ele>
        <time>2021-09-12T13:57:50Z</time>
      </trkpt>
      <trkpt lat="48.35846" lon="-3.74393">
        <ele>211</ele>
        <time>2021-09-12T13:57:51Z</time>
      </trkpt>
      <trkpt lat="48.35842" lon="-3.74395">
        <ele>211.19999694824</ele>
        <time>2021-09-12T13:57:52Z</time>
      </trkpt>
      <trkpt lat="48.35839" lon="-3.74396">
        <ele>211.19999694824</ele>
        <time>2021-09-12T13:57:53Z</time>
      </trkpt>
      <trkpt lat="48.35836" lon="-3.74398">
        <ele>211.19999694824</ele>
        <time>2021-09-12T13:57:54Z</time>
      </trkpt>
      <trkpt lat="48.35831" lon="-3.744">
        <ele>211.39999389648</ele>
        <time>2021-09-12T13:57:55Z</time>
      </trkpt>
      <trkpt lat="48.35827" lon="-3.74402">
        <ele>211.39999389648</ele>
        <time>2021-09-12T13:57:56Z</time>
      </trkpt>
      <trkpt lat="48.35823" lon="-3.74404">
        <ele>211.39999389648</ele>
        <time>2021-09-12T13:57:57Z</time>
      </trkpt>
      <trkpt lat="48.35819" lon="-3.74407">
        <ele>211.39999389648</ele>
        <time>2021-09-12T13:57:58Z</time>
      </trkpt>
      <trkpt lat="48.35816" lon="-3.7441">
        <ele>211.80000305176</ele>
        <time>2021-09-12T13:57:59Z</time>
      </trkpt>
      <trkpt lat="48.35814" lon="-3.74412">
        <ele>212</ele>
        <time>2021-09-12T13:58:00Z</time>
      </trkpt>
      <trkpt lat="48.35813" lon="-3.74414">
        <ele>212.39999389648</ele>
        <time>2021-09-12T13:58:01Z</time>
      </trkpt>
      <trkpt lat="48.35812" lon="-3.74416">
        <ele>212.39999389648</ele>
        <time>2021-09-12T13:58:02Z</time>
      </trkpt>
      <trkpt lat="48.35811" lon="-3.74418">
        <ele>212.80000305176</ele>
        <time>2021-09-12T13:58:03Z</time>
      </trkpt>
      <trkpt lat="48.35812" lon="-3.7442">
        <ele>213.19999694824</ele>
        <time>2021-09-12T13:58:04Z</time>
      </trkpt>
      <trkpt lat="48.35812" lon="-3.74421">
        <ele>213.19999694824</ele>
        <time>2021-09-12T13:58:05Z</time>
      </trkpt>
    </trkseg>
  </trk>
</gpx>